<?xml version="1.0" encoding="UTF-8" standalone="no" ?>
<gpx xmlns="http://www.topografix.com/GPX/1/1" xmlns:xsi="http://www.w3.org/2001/XMLSchema-instance" xsi:schemaLocation="http://www.topografix.com/GPX/1/1 http://www.topografix.com/GPX/1/1/gpx.xsd" version="1.1" creator="VisuGPX - https://www.visugpx.com">
  <metadata>
    <name>Bramafan_Naouri_Col de Vence</name>
    <desc><![CDATA[Relevé Terrain:
Bramafan_Naouri_Col de Vence
]]></desc>
  </metadata>
  <trk>
    <name><![CDATA[2022-09-21_110639--Courmes_2013]]></name>
    <extensions>
      <line xmlns="http://www.topografix.com/GPX/gpx_style/0/2">
        <width>6</width>
      </line>
    </extensions>
    <trkseg>
      <trkpt lat="43.7631" lon="6.98732">
        <ele>475.5</ele>
        <time>2022-09-21T09:06:39.000Z</time>
      </trkpt>
      <trkpt lat="43.7631" lon="6.98731">
        <ele>475.5</ele>
        <time>2022-09-21T09:06:40.000Z</time>
      </trkpt>
      <trkpt lat="43.76309" lon="6.98732">
        <ele>475.4</ele>
        <time>2022-09-21T09:06:47.000Z</time>
      </trkpt>
      <trkpt lat="43.76308" lon="6.98733">
        <ele>475.1</ele>
        <time>2022-09-21T09:06:48.000Z</time>
      </trkpt>
      <trkpt lat="43.76308" lon="6.98734">
        <ele>475.1</ele>
        <time>2022-09-21T09:06:50.000Z</time>
      </trkpt>
      <trkpt lat="43.76307" lon="6.98734">
        <ele>472</ele>
        <time>2022-09-21T09:06:52.000Z</time>
      </trkpt>
      <trkpt lat="43.76307" lon="6.98735">
        <ele>476.4</ele>
        <time>2022-09-21T09:06:55.000Z</time>
      </trkpt>
      <trkpt lat="43.76307" lon="6.98736">
        <ele>477.8</ele>
        <time>2022-09-21T09:06:57.000Z</time>
      </trkpt>
      <trkpt lat="43.76306" lon="6.98736">
        <ele>476.9</ele>
        <time>2022-09-21T09:07:02.000Z</time>
      </trkpt>
      <trkpt lat="43.76306" lon="6.98736">
        <ele>477.5</ele>
        <time>2022-09-21T09:07:05.000Z</time>
      </trkpt>
      <trkpt lat="43.76306" lon="6.98736">
        <ele>477.5</ele>
        <time>2022-09-21T09:07:05.000Z</time>
      </trkpt>
      <trkpt lat="43.76306" lon="6.98736">
        <ele>475.8</ele>
        <time>2022-09-21T09:07:08.000Z</time>
      </trkpt>
      <trkpt lat="43.76306" lon="6.98736">
        <ele>475.8</ele>
        <time>2022-09-21T09:07:09.000Z</time>
      </trkpt>
      <trkpt lat="43.76306" lon="6.98732">
        <ele>475.7</ele>
        <time>2022-09-21T09:07:16.000Z</time>
      </trkpt>
      <trkpt lat="43.76307" lon="6.98731">
        <ele>476</ele>
        <time>2022-09-21T09:07:18.000Z</time>
      </trkpt>
      <trkpt lat="43.76308" lon="6.9873">
        <ele>475.9</ele>
        <time>2022-09-21T09:07:22.000Z</time>
      </trkpt>
      <trkpt lat="43.76308" lon="6.9873">
        <ele>476</ele>
        <time>2022-09-21T09:07:52.000Z</time>
      </trkpt>
      <trkpt lat="43.76309" lon="6.98731">
        <ele>476</ele>
        <time>2022-09-21T09:07:55.000Z</time>
      </trkpt>
      <trkpt lat="43.76308" lon="6.98734">
        <ele>475.8</ele>
        <time>2022-09-21T09:08:25.000Z</time>
      </trkpt>
      <trkpt lat="43.76307" lon="6.98736">
        <ele>475.7</ele>
        <time>2022-09-21T09:08:29.000Z</time>
      </trkpt>
      <trkpt lat="43.76307" lon="6.98737">
        <ele>475.2</ele>
        <time>2022-09-21T09:09:28.000Z</time>
      </trkpt>
      <trkpt lat="43.76307" lon="6.98737">
        <ele>475.2</ele>
        <time>2022-09-21T09:09:29.000Z</time>
      </trkpt>
      <trkpt lat="43.76308" lon="6.98737">
        <ele>475.3</ele>
        <time>2022-09-21T09:10:30.000Z</time>
      </trkpt>
      <trkpt lat="43.76308" lon="6.98737">
        <ele>475.2</ele>
        <time>2022-09-21T09:10:31.000Z</time>
      </trkpt>
      <trkpt lat="43.76308" lon="6.98737">
        <ele>475.2</ele>
        <time>2022-09-21T09:11:09.000Z</time>
      </trkpt>
      <trkpt lat="43.76309" lon="6.98735">
        <ele>475.1</ele>
        <time>2022-09-21T09:11:12.000Z</time>
      </trkpt>
      <trkpt lat="43.76309" lon="6.98735">
        <ele>475.1</ele>
        <time>2022-09-21T09:11:45.000Z</time>
      </trkpt>
      <trkpt lat="43.76309" lon="6.98736">
        <ele>475.1</ele>
        <time>2022-09-21T09:11:50.000Z</time>
      </trkpt>
      <trkpt lat="43.76309" lon="6.98736">
        <ele>475.2</ele>
        <time>2022-09-21T09:12:10.000Z</time>
      </trkpt>
      <trkpt lat="43.76309" lon="6.98736">
        <ele>475.2</ele>
        <time>2022-09-21T09:12:11.000Z</time>
      </trkpt>
      <trkpt lat="43.76309" lon="6.98736">
        <ele>475.2</ele>
        <time>2022-09-21T09:12:41.000Z</time>
      </trkpt>
      <trkpt lat="43.76309" lon="6.98736">
        <ele>475.3</ele>
        <time>2022-09-21T09:12:42.000Z</time>
      </trkpt>
      <trkpt lat="43.76309" lon="6.98735">
        <ele>474.7</ele>
        <time>2022-09-21T09:13:23.000Z</time>
      </trkpt>
      <trkpt lat="43.76309" lon="6.98735">
        <ele>474.7</ele>
        <time>2022-09-21T09:13:24.000Z</time>
      </trkpt>
      <trkpt lat="43.76309" lon="6.98735">
        <ele>474.8</ele>
        <time>2022-09-21T09:13:29.000Z</time>
      </trkpt>
      <trkpt lat="43.76308" lon="6.98736">
        <ele>474.6</ele>
        <time>2022-09-21T09:13:32.000Z</time>
      </trkpt>
      <trkpt lat="43.76308" lon="6.98736">
        <ele>474.6</ele>
        <time>2022-09-21T09:13:34.000Z</time>
      </trkpt>
      <trkpt lat="43.76308" lon="6.98736">
        <ele>474.6</ele>
        <time>2022-09-21T09:13:38.000Z</time>
      </trkpt>
      <trkpt lat="43.76307" lon="6.98736">
        <ele>474.5</ele>
        <time>2022-09-21T09:13:39.000Z</time>
      </trkpt>
      <trkpt lat="43.76307" lon="6.98736">
        <ele>474.4</ele>
        <time>2022-09-21T09:13:40.000Z</time>
      </trkpt>
      <trkpt lat="43.76307" lon="6.98736">
        <ele>474.1</ele>
        <time>2022-09-21T09:14:26.000Z</time>
      </trkpt>
      <trkpt lat="43.76306" lon="6.98737">
        <ele>474</ele>
        <time>2022-09-21T09:14:30.000Z</time>
      </trkpt>
      <trkpt lat="43.76306" lon="6.98737">
        <ele>474</ele>
        <time>2022-09-21T09:14:32.000Z</time>
      </trkpt>
      <trkpt lat="43.76301" lon="6.9874">
        <ele>473.9</ele>
        <time>2022-09-21T09:14:36.000Z</time>
      </trkpt>
      <trkpt lat="43.76296" lon="6.98744">
        <ele>473.7</ele>
        <time>2022-09-21T09:14:38.000Z</time>
      </trkpt>
      <trkpt lat="43.76292" lon="6.98748">
        <ele>473.9</ele>
        <time>2022-09-21T09:14:40.000Z</time>
      </trkpt>
      <trkpt lat="43.76286" lon="6.98753">
        <ele>473.8</ele>
        <time>2022-09-21T09:14:42.000Z</time>
      </trkpt>
      <trkpt lat="43.76279" lon="6.98757">
        <ele>473.5</ele>
        <time>2022-09-21T09:14:44.000Z</time>
      </trkpt>
      <trkpt lat="43.76271" lon="6.98762">
        <ele>472.7</ele>
        <time>2022-09-21T09:14:46.000Z</time>
      </trkpt>
      <trkpt lat="43.76267" lon="6.98764">
        <ele>472.4</ele>
        <time>2022-09-21T09:14:47.000Z</time>
      </trkpt>
      <trkpt lat="43.76262" lon="6.98767">
        <ele>472.4</ele>
        <time>2022-09-21T09:14:48.000Z</time>
      </trkpt>
      <trkpt lat="43.76258" lon="6.9877">
        <ele>472.5</ele>
        <time>2022-09-21T09:14:49.000Z</time>
      </trkpt>
      <trkpt lat="43.76254" lon="6.98773">
        <ele>472.4</ele>
        <time>2022-09-21T09:14:50.000Z</time>
      </trkpt>
      <trkpt lat="43.7625" lon="6.98776">
        <ele>472.3</ele>
        <time>2022-09-21T09:14:51.000Z</time>
      </trkpt>
      <trkpt lat="43.76245" lon="6.98778">
        <ele>472</ele>
        <time>2022-09-21T09:14:52.000Z</time>
      </trkpt>
      <trkpt lat="43.76237" lon="6.98783">
        <ele>472</ele>
        <time>2022-09-21T09:14:54.000Z</time>
      </trkpt>
      <trkpt lat="43.76233" lon="6.98785">
        <ele>471.4</ele>
        <time>2022-09-21T09:14:55.000Z</time>
      </trkpt>
      <trkpt lat="43.76228" lon="6.98788">
        <ele>471</ele>
        <time>2022-09-21T09:14:56.000Z</time>
      </trkpt>
      <trkpt lat="43.76224" lon="6.9879">
        <ele>470.9</ele>
        <time>2022-09-21T09:14:57.000Z</time>
      </trkpt>
      <trkpt lat="43.76215" lon="6.98796">
        <ele>471.1</ele>
        <time>2022-09-21T09:14:59.000Z</time>
      </trkpt>
      <trkpt lat="43.76207" lon="6.98802">
        <ele>471</ele>
        <time>2022-09-21T09:15:01.000Z</time>
      </trkpt>
      <trkpt lat="43.76202" lon="6.98806">
        <ele>470.7</ele>
        <time>2022-09-21T09:15:02.000Z</time>
      </trkpt>
      <trkpt lat="43.76197" lon="6.9881">
        <ele>470.2</ele>
        <time>2022-09-21T09:15:03.000Z</time>
      </trkpt>
      <trkpt lat="43.76193" lon="6.98814">
        <ele>469.8</ele>
        <time>2022-09-21T09:15:04.000Z</time>
      </trkpt>
      <trkpt lat="43.7619" lon="6.98818">
        <ele>469.9</ele>
        <time>2022-09-21T09:15:05.000Z</time>
      </trkpt>
      <trkpt lat="43.76186" lon="6.98823">
        <ele>470.1</ele>
        <time>2022-09-21T09:15:06.000Z</time>
      </trkpt>
      <trkpt lat="43.76183" lon="6.98828">
        <ele>470.2</ele>
        <time>2022-09-21T09:15:07.000Z</time>
      </trkpt>
      <trkpt lat="43.7618" lon="6.98833">
        <ele>470.1</ele>
        <time>2022-09-21T09:15:08.000Z</time>
      </trkpt>
      <trkpt lat="43.76177" lon="6.98839">
        <ele>470.1</ele>
        <time>2022-09-21T09:15:09.000Z</time>
      </trkpt>
      <trkpt lat="43.76175" lon="6.98844">
        <ele>469.5</ele>
        <time>2022-09-21T09:15:10.000Z</time>
      </trkpt>
      <trkpt lat="43.76172" lon="6.98849">
        <ele>469.1</ele>
        <time>2022-09-21T09:15:11.000Z</time>
      </trkpt>
      <trkpt lat="43.76169" lon="6.98855">
        <ele>468.6</ele>
        <time>2022-09-21T09:15:12.000Z</time>
      </trkpt>
      <trkpt lat="43.76165" lon="6.98861">
        <ele>468.4</ele>
        <time>2022-09-21T09:15:13.000Z</time>
      </trkpt>
      <trkpt lat="43.76163" lon="6.98868">
        <ele>468.4</ele>
        <time>2022-09-21T09:15:14.000Z</time>
      </trkpt>
      <trkpt lat="43.7616" lon="6.98874">
        <ele>468.3</ele>
        <time>2022-09-21T09:15:15.000Z</time>
      </trkpt>
      <trkpt lat="43.76156" lon="6.98884">
        <ele>468.1</ele>
        <time>2022-09-21T09:15:17.000Z</time>
      </trkpt>
      <trkpt lat="43.76151" lon="6.98891">
        <ele>468.1</ele>
        <time>2022-09-21T09:15:19.000Z</time>
      </trkpt>
      <trkpt lat="43.76147" lon="6.98901">
        <ele>468</ele>
        <time>2022-09-21T09:15:21.000Z</time>
      </trkpt>
      <trkpt lat="43.76148" lon="6.9891">
        <ele>467.3</ele>
        <time>2022-09-21T09:15:23.000Z</time>
      </trkpt>
      <trkpt lat="43.76149" lon="6.98921">
        <ele>467.8</ele>
        <time>2022-09-21T09:15:25.000Z</time>
      </trkpt>
      <trkpt lat="43.7615" lon="6.98931">
        <ele>468</ele>
        <time>2022-09-21T09:15:27.000Z</time>
      </trkpt>
      <trkpt lat="43.76149" lon="6.98939">
        <ele>468.4</ele>
        <time>2022-09-21T09:15:29.000Z</time>
      </trkpt>
      <trkpt lat="43.7615" lon="6.98947">
        <ele>468.8</ele>
        <time>2022-09-21T09:15:31.000Z</time>
      </trkpt>
      <trkpt lat="43.76149" lon="6.98956">
        <ele>469.3</ele>
        <time>2022-09-21T09:15:33.000Z</time>
      </trkpt>
      <trkpt lat="43.76149" lon="6.98965">
        <ele>469.4</ele>
        <time>2022-09-21T09:15:35.000Z</time>
      </trkpt>
      <trkpt lat="43.76147" lon="6.98974">
        <ele>469.6</ele>
        <time>2022-09-21T09:15:37.000Z</time>
      </trkpt>
      <trkpt lat="43.76145" lon="6.98982">
        <ele>469.7</ele>
        <time>2022-09-21T09:15:39.000Z</time>
      </trkpt>
      <trkpt lat="43.76144" lon="6.98989">
        <ele>470.2</ele>
        <time>2022-09-21T09:15:41.000Z</time>
      </trkpt>
      <trkpt lat="43.76141" lon="6.98995">
        <ele>470.6</ele>
        <time>2022-09-21T09:15:43.000Z</time>
      </trkpt>
      <trkpt lat="43.76138" lon="6.99002">
        <ele>470.9</ele>
        <time>2022-09-21T09:15:45.000Z</time>
      </trkpt>
      <trkpt lat="43.76134" lon="6.99011">
        <ele>471</ele>
        <time>2022-09-21T09:15:47.000Z</time>
      </trkpt>
      <trkpt lat="43.7613" lon="6.9902">
        <ele>471.6</ele>
        <time>2022-09-21T09:15:49.000Z</time>
      </trkpt>
      <trkpt lat="43.76127" lon="6.99028">
        <ele>472.2</ele>
        <time>2022-09-21T09:15:51.000Z</time>
      </trkpt>
      <trkpt lat="43.76124" lon="6.99034">
        <ele>472</ele>
        <time>2022-09-21T09:15:53.000Z</time>
      </trkpt>
      <trkpt lat="43.76122" lon="6.99041">
        <ele>472.2</ele>
        <time>2022-09-21T09:15:55.000Z</time>
      </trkpt>
      <trkpt lat="43.7612" lon="6.99049">
        <ele>472.9</ele>
        <time>2022-09-21T09:15:58.000Z</time>
      </trkpt>
      <trkpt lat="43.76117" lon="6.99058">
        <ele>472.8</ele>
        <time>2022-09-21T09:16:01.000Z</time>
      </trkpt>
      <trkpt lat="43.76115" lon="6.99065">
        <ele>473.3</ele>
        <time>2022-09-21T09:16:03.000Z</time>
      </trkpt>
      <trkpt lat="43.76111" lon="6.99073">
        <ele>473.7</ele>
        <time>2022-09-21T09:16:05.000Z</time>
      </trkpt>
      <trkpt lat="43.76106" lon="6.99082">
        <ele>474.1</ele>
        <time>2022-09-21T09:16:07.000Z</time>
      </trkpt>
      <trkpt lat="43.76102" lon="6.99089">
        <ele>474.5</ele>
        <time>2022-09-21T09:16:09.000Z</time>
      </trkpt>
      <trkpt lat="43.76099" lon="6.99097">
        <ele>474.5</ele>
        <time>2022-09-21T09:16:11.000Z</time>
      </trkpt>
      <trkpt lat="43.76096" lon="6.99105">
        <ele>474.7</ele>
        <time>2022-09-21T09:16:13.000Z</time>
      </trkpt>
      <trkpt lat="43.76093" lon="6.99112">
        <ele>475.2</ele>
        <time>2022-09-21T09:16:15.000Z</time>
      </trkpt>
      <trkpt lat="43.76089" lon="6.99121">
        <ele>475.8</ele>
        <time>2022-09-21T09:16:17.000Z</time>
      </trkpt>
      <trkpt lat="43.76085" lon="6.99129">
        <ele>476.1</ele>
        <time>2022-09-21T09:16:19.000Z</time>
      </trkpt>
      <trkpt lat="43.76081" lon="6.99136">
        <ele>476.5</ele>
        <time>2022-09-21T09:16:21.000Z</time>
      </trkpt>
      <trkpt lat="43.76078" lon="6.99142">
        <ele>476.7</ele>
        <time>2022-09-21T09:16:23.000Z</time>
      </trkpt>
      <trkpt lat="43.76074" lon="6.99149">
        <ele>476.9</ele>
        <time>2022-09-21T09:16:25.000Z</time>
      </trkpt>
      <trkpt lat="43.7607" lon="6.99155">
        <ele>477.1</ele>
        <time>2022-09-21T09:16:27.000Z</time>
      </trkpt>
      <trkpt lat="43.76065" lon="6.99159">
        <ele>477.3</ele>
        <time>2022-09-21T09:16:29.000Z</time>
      </trkpt>
      <trkpt lat="43.7606" lon="6.99161">
        <ele>477.6</ele>
        <time>2022-09-21T09:16:31.000Z</time>
      </trkpt>
      <trkpt lat="43.76054" lon="6.99164">
        <ele>478.2</ele>
        <time>2022-09-21T09:16:33.000Z</time>
      </trkpt>
      <trkpt lat="43.76049" lon="6.99165">
        <ele>478.4</ele>
        <time>2022-09-21T09:16:35.000Z</time>
      </trkpt>
      <trkpt lat="43.76044" lon="6.99165">
        <ele>478.7</ele>
        <time>2022-09-21T09:16:37.000Z</time>
      </trkpt>
      <trkpt lat="43.76038" lon="6.99165">
        <ele>479</ele>
        <time>2022-09-21T09:16:39.000Z</time>
      </trkpt>
      <trkpt lat="43.76033" lon="6.99162">
        <ele>479</ele>
        <time>2022-09-21T09:16:41.000Z</time>
      </trkpt>
      <trkpt lat="43.76024" lon="6.99155">
        <ele>479.3</ele>
        <time>2022-09-21T09:16:43.000Z</time>
      </trkpt>
      <trkpt lat="43.7602" lon="6.99152">
        <ele>479.6</ele>
        <time>2022-09-21T09:16:44.000Z</time>
      </trkpt>
      <trkpt lat="43.76015" lon="6.99149">
        <ele>479.7</ele>
        <time>2022-09-21T09:16:45.000Z</time>
      </trkpt>
      <trkpt lat="43.76008" lon="6.99146">
        <ele>479.9</ele>
        <time>2022-09-21T09:16:47.000Z</time>
      </trkpt>
      <trkpt lat="43.76001" lon="6.99149">
        <ele>480.2</ele>
        <time>2022-09-21T09:16:49.000Z</time>
      </trkpt>
      <trkpt lat="43.75996" lon="6.99153">
        <ele>480.4</ele>
        <time>2022-09-21T09:16:51.000Z</time>
      </trkpt>
      <trkpt lat="43.7599" lon="6.99156">
        <ele>480.6</ele>
        <time>2022-09-21T09:16:53.000Z</time>
      </trkpt>
      <trkpt lat="43.75984" lon="6.99158">
        <ele>480.9</ele>
        <time>2022-09-21T09:16:55.000Z</time>
      </trkpt>
      <trkpt lat="43.75977" lon="6.99157">
        <ele>481.1</ele>
        <time>2022-09-21T09:16:57.000Z</time>
      </trkpt>
      <trkpt lat="43.7597" lon="6.99157">
        <ele>481.6</ele>
        <time>2022-09-21T09:16:59.000Z</time>
      </trkpt>
      <trkpt lat="43.75965" lon="6.99157">
        <ele>481.8</ele>
        <time>2022-09-21T09:17:01.000Z</time>
      </trkpt>
      <trkpt lat="43.75959" lon="6.99159">
        <ele>482.3</ele>
        <time>2022-09-21T09:17:03.000Z</time>
      </trkpt>
      <trkpt lat="43.75953" lon="6.99162">
        <ele>482.3</ele>
        <time>2022-09-21T09:17:06.000Z</time>
      </trkpt>
      <trkpt lat="43.75949" lon="6.99166">
        <ele>482.8</ele>
        <time>2022-09-21T09:17:08.000Z</time>
      </trkpt>
      <trkpt lat="43.75943" lon="6.99169">
        <ele>483.1</ele>
        <time>2022-09-21T09:17:10.000Z</time>
      </trkpt>
      <trkpt lat="43.75938" lon="6.99171">
        <ele>483.7</ele>
        <time>2022-09-21T09:17:12.000Z</time>
      </trkpt>
      <trkpt lat="43.75933" lon="6.99172">
        <ele>483.9</ele>
        <time>2022-09-21T09:17:14.000Z</time>
      </trkpt>
      <trkpt lat="43.75927" lon="6.99173">
        <ele>484</ele>
        <time>2022-09-21T09:17:16.000Z</time>
      </trkpt>
      <trkpt lat="43.75922" lon="6.99174">
        <ele>484.4</ele>
        <time>2022-09-21T09:17:18.000Z</time>
      </trkpt>
      <trkpt lat="43.75915" lon="6.99174">
        <ele>484.9</ele>
        <time>2022-09-21T09:17:20.000Z</time>
      </trkpt>
      <trkpt lat="43.75909" lon="6.99173">
        <ele>484.9</ele>
        <time>2022-09-21T09:17:22.000Z</time>
      </trkpt>
      <trkpt lat="43.75902" lon="6.99173">
        <ele>485.1</ele>
        <time>2022-09-21T09:17:24.000Z</time>
      </trkpt>
      <trkpt lat="43.75896" lon="6.99173">
        <ele>485.5</ele>
        <time>2022-09-21T09:17:26.000Z</time>
      </trkpt>
      <trkpt lat="43.75891" lon="6.99173">
        <ele>485.7</ele>
        <time>2022-09-21T09:17:28.000Z</time>
      </trkpt>
      <trkpt lat="43.75885" lon="6.99174">
        <ele>486.3</ele>
        <time>2022-09-21T09:17:30.000Z</time>
      </trkpt>
      <trkpt lat="43.7588" lon="6.99175">
        <ele>486.7</ele>
        <time>2022-09-21T09:17:32.000Z</time>
      </trkpt>
      <trkpt lat="43.75874" lon="6.99177">
        <ele>486.9</ele>
        <time>2022-09-21T09:17:34.000Z</time>
      </trkpt>
      <trkpt lat="43.75869" lon="6.99177">
        <ele>487</ele>
        <time>2022-09-21T09:17:36.000Z</time>
      </trkpt>
      <trkpt lat="43.75863" lon="6.99177">
        <ele>487.3</ele>
        <time>2022-09-21T09:17:38.000Z</time>
      </trkpt>
      <trkpt lat="43.75856" lon="6.99179">
        <ele>487.6</ele>
        <time>2022-09-21T09:17:40.000Z</time>
      </trkpt>
      <trkpt lat="43.75849" lon="6.99179">
        <ele>487.8</ele>
        <time>2022-09-21T09:17:42.000Z</time>
      </trkpt>
      <trkpt lat="43.75842" lon="6.99179">
        <ele>488.2</ele>
        <time>2022-09-21T09:17:44.000Z</time>
      </trkpt>
      <trkpt lat="43.75837" lon="6.9918">
        <ele>488.6</ele>
        <time>2022-09-21T09:17:46.000Z</time>
      </trkpt>
      <trkpt lat="43.75833" lon="6.99177">
        <ele>489.1</ele>
        <time>2022-09-21T09:17:49.000Z</time>
      </trkpt>
      <trkpt lat="43.75828" lon="6.99177">
        <ele>489.5</ele>
        <time>2022-09-21T09:17:51.000Z</time>
      </trkpt>
      <trkpt lat="43.75823" lon="6.9918">
        <ele>489.7</ele>
        <time>2022-09-21T09:17:52.000Z</time>
      </trkpt>
      <trkpt lat="43.75816" lon="6.99179">
        <ele>489.8</ele>
        <time>2022-09-21T09:17:54.000Z</time>
      </trkpt>
      <trkpt lat="43.7581" lon="6.99177">
        <ele>490.1</ele>
        <time>2022-09-21T09:17:56.000Z</time>
      </trkpt>
      <trkpt lat="43.75805" lon="6.99174">
        <ele>490.2</ele>
        <time>2022-09-21T09:17:58.000Z</time>
      </trkpt>
      <trkpt lat="43.758" lon="6.99172">
        <ele>490.9</ele>
        <time>2022-09-21T09:18:00.000Z</time>
      </trkpt>
      <trkpt lat="43.75793" lon="6.99169">
        <ele>491.1</ele>
        <time>2022-09-21T09:18:03.000Z</time>
      </trkpt>
      <trkpt lat="43.75786" lon="6.99168">
        <ele>491.3</ele>
        <time>2022-09-21T09:18:05.000Z</time>
      </trkpt>
      <trkpt lat="43.7578" lon="6.99167">
        <ele>491.7</ele>
        <time>2022-09-21T09:18:07.000Z</time>
      </trkpt>
      <trkpt lat="43.75775" lon="6.99167">
        <ele>492.1</ele>
        <time>2022-09-21T09:18:09.000Z</time>
      </trkpt>
      <trkpt lat="43.75771" lon="6.99165">
        <ele>492.2</ele>
        <time>2022-09-21T09:18:11.000Z</time>
      </trkpt>
      <trkpt lat="43.75765" lon="6.99162">
        <ele>492.5</ele>
        <time>2022-09-21T09:18:14.000Z</time>
      </trkpt>
      <trkpt lat="43.7576" lon="6.99165">
        <ele>492.5</ele>
        <time>2022-09-21T09:18:16.000Z</time>
      </trkpt>
      <trkpt lat="43.75754" lon="6.99166">
        <ele>493.4</ele>
        <time>2022-09-21T09:18:20.000Z</time>
      </trkpt>
      <trkpt lat="43.75749" lon="6.9917">
        <ele>493.4</ele>
        <time>2022-09-21T09:18:22.000Z</time>
      </trkpt>
      <trkpt lat="43.75745" lon="6.99176">
        <ele>494</ele>
        <time>2022-09-21T09:18:24.000Z</time>
      </trkpt>
      <trkpt lat="43.75741" lon="6.9918">
        <ele>494.2</ele>
        <time>2022-09-21T09:18:26.000Z</time>
      </trkpt>
      <trkpt lat="43.75735" lon="6.99184">
        <ele>494.4</ele>
        <time>2022-09-21T09:18:28.000Z</time>
      </trkpt>
      <trkpt lat="43.75729" lon="6.99189">
        <ele>494.8</ele>
        <time>2022-09-21T09:18:31.000Z</time>
      </trkpt>
      <trkpt lat="43.75723" lon="6.99193">
        <ele>494.9</ele>
        <time>2022-09-21T09:18:33.000Z</time>
      </trkpt>
      <trkpt lat="43.75716" lon="6.99195">
        <ele>495.5</ele>
        <time>2022-09-21T09:18:35.000Z</time>
      </trkpt>
      <trkpt lat="43.7571" lon="6.99198">
        <ele>495.7</ele>
        <time>2022-09-21T09:18:37.000Z</time>
      </trkpt>
      <trkpt lat="43.75703" lon="6.99201">
        <ele>495.7</ele>
        <time>2022-09-21T09:18:39.000Z</time>
      </trkpt>
      <trkpt lat="43.75696" lon="6.992">
        <ele>496</ele>
        <time>2022-09-21T09:18:41.000Z</time>
      </trkpt>
      <trkpt lat="43.7569" lon="6.99202">
        <ele>496.3</ele>
        <time>2022-09-21T09:18:43.000Z</time>
      </trkpt>
      <trkpt lat="43.75684" lon="6.99204">
        <ele>496.7</ele>
        <time>2022-09-21T09:18:45.000Z</time>
      </trkpt>
      <trkpt lat="43.75676" lon="6.99206">
        <ele>497</ele>
        <time>2022-09-21T09:18:47.000Z</time>
      </trkpt>
      <trkpt lat="43.75669" lon="6.99206">
        <ele>497.2</ele>
        <time>2022-09-21T09:18:49.000Z</time>
      </trkpt>
      <trkpt lat="43.75663" lon="6.99207">
        <ele>497.5</ele>
        <time>2022-09-21T09:18:51.000Z</time>
      </trkpt>
      <trkpt lat="43.75657" lon="6.99209">
        <ele>497.7</ele>
        <time>2022-09-21T09:18:53.000Z</time>
      </trkpt>
      <trkpt lat="43.75652" lon="6.9921">
        <ele>498</ele>
        <time>2022-09-21T09:18:55.000Z</time>
      </trkpt>
      <trkpt lat="43.75646" lon="6.99212">
        <ele>498.5</ele>
        <time>2022-09-21T09:18:58.000Z</time>
      </trkpt>
      <trkpt lat="43.75642" lon="6.99216">
        <ele>498.5</ele>
        <time>2022-09-21T09:19:00.000Z</time>
      </trkpt>
      <trkpt lat="43.75637" lon="6.99219">
        <ele>498.7</ele>
        <time>2022-09-21T09:19:02.000Z</time>
      </trkpt>
      <trkpt lat="43.75632" lon="6.99223">
        <ele>498.8</ele>
        <time>2022-09-21T09:19:04.000Z</time>
      </trkpt>
      <trkpt lat="43.75628" lon="6.99229">
        <ele>499.2</ele>
        <time>2022-09-21T09:19:06.000Z</time>
      </trkpt>
      <trkpt lat="43.75624" lon="6.99234">
        <ele>499.3</ele>
        <time>2022-09-21T09:19:08.000Z</time>
      </trkpt>
      <trkpt lat="43.7562" lon="6.9924">
        <ele>499.4</ele>
        <time>2022-09-21T09:19:10.000Z</time>
      </trkpt>
      <trkpt lat="43.75616" lon="6.99245">
        <ele>499.8</ele>
        <time>2022-09-21T09:19:12.000Z</time>
      </trkpt>
      <trkpt lat="43.75612" lon="6.99251">
        <ele>500.2</ele>
        <time>2022-09-21T09:19:14.000Z</time>
      </trkpt>
      <trkpt lat="43.75608" lon="6.99259">
        <ele>500.7</ele>
        <time>2022-09-21T09:19:16.000Z</time>
      </trkpt>
      <trkpt lat="43.75603" lon="6.99265">
        <ele>500.7</ele>
        <time>2022-09-21T09:19:18.000Z</time>
      </trkpt>
      <trkpt lat="43.75599" lon="6.9927">
        <ele>500.8</ele>
        <time>2022-09-21T09:19:20.000Z</time>
      </trkpt>
      <trkpt lat="43.75594" lon="6.99278">
        <ele>501.1</ele>
        <time>2022-09-21T09:19:22.000Z</time>
      </trkpt>
      <trkpt lat="43.75589" lon="6.99284">
        <ele>501.5</ele>
        <time>2022-09-21T09:19:24.000Z</time>
      </trkpt>
      <trkpt lat="43.75585" lon="6.99291">
        <ele>501.4</ele>
        <time>2022-09-21T09:19:26.000Z</time>
      </trkpt>
      <trkpt lat="43.75581" lon="6.99296">
        <ele>501.3</ele>
        <time>2022-09-21T09:19:28.000Z</time>
      </trkpt>
      <trkpt lat="43.75577" lon="6.993">
        <ele>502</ele>
        <time>2022-09-21T09:19:30.000Z</time>
      </trkpt>
      <trkpt lat="43.75573" lon="6.99304">
        <ele>502.2</ele>
        <time>2022-09-21T09:19:32.000Z</time>
      </trkpt>
      <trkpt lat="43.75568" lon="6.99308">
        <ele>502.3</ele>
        <time>2022-09-21T09:19:34.000Z</time>
      </trkpt>
      <trkpt lat="43.75563" lon="6.99311">
        <ele>502.6</ele>
        <time>2022-09-21T09:19:36.000Z</time>
      </trkpt>
      <trkpt lat="43.75558" lon="6.99314">
        <ele>502.9</ele>
        <time>2022-09-21T09:19:38.000Z</time>
      </trkpt>
      <trkpt lat="43.75551" lon="6.99316">
        <ele>503.4</ele>
        <time>2022-09-21T09:19:40.000Z</time>
      </trkpt>
      <trkpt lat="43.75545" lon="6.9932">
        <ele>503.6</ele>
        <time>2022-09-21T09:19:42.000Z</time>
      </trkpt>
      <trkpt lat="43.75541" lon="6.99324">
        <ele>503.9</ele>
        <time>2022-09-21T09:19:44.000Z</time>
      </trkpt>
      <trkpt lat="43.75536" lon="6.99329">
        <ele>504.1</ele>
        <time>2022-09-21T09:19:46.000Z</time>
      </trkpt>
      <trkpt lat="43.75531" lon="6.99334">
        <ele>504.4</ele>
        <time>2022-09-21T09:19:48.000Z</time>
      </trkpt>
      <trkpt lat="43.75527" lon="6.99339">
        <ele>504.9</ele>
        <time>2022-09-21T09:19:50.000Z</time>
      </trkpt>
      <trkpt lat="43.75523" lon="6.99343">
        <ele>505</ele>
        <time>2022-09-21T09:19:52.000Z</time>
      </trkpt>
      <trkpt lat="43.7552" lon="6.99349">
        <ele>505</ele>
        <time>2022-09-21T09:19:54.000Z</time>
      </trkpt>
      <trkpt lat="43.75516" lon="6.99355">
        <ele>505</ele>
        <time>2022-09-21T09:19:56.000Z</time>
      </trkpt>
      <trkpt lat="43.75512" lon="6.99362">
        <ele>505.9</ele>
        <time>2022-09-21T09:19:59.000Z</time>
      </trkpt>
      <trkpt lat="43.7551" lon="6.9937">
        <ele>505.9</ele>
        <time>2022-09-21T09:20:02.000Z</time>
      </trkpt>
      <trkpt lat="43.75509" lon="6.99377">
        <ele>505.8</ele>
        <time>2022-09-21T09:20:04.000Z</time>
      </trkpt>
      <trkpt lat="43.75507" lon="6.99383">
        <ele>506.3</ele>
        <time>2022-09-21T09:20:06.000Z</time>
      </trkpt>
      <trkpt lat="43.75504" lon="6.9939">
        <ele>506.7</ele>
        <time>2022-09-21T09:20:08.000Z</time>
      </trkpt>
      <trkpt lat="43.755" lon="6.99395">
        <ele>507.2</ele>
        <time>2022-09-21T09:20:10.000Z</time>
      </trkpt>
      <trkpt lat="43.75497" lon="6.99401">
        <ele>507.2</ele>
        <time>2022-09-21T09:20:12.000Z</time>
      </trkpt>
      <trkpt lat="43.75493" lon="6.99407">
        <ele>507.6</ele>
        <time>2022-09-21T09:20:14.000Z</time>
      </trkpt>
      <trkpt lat="43.7549" lon="6.99413">
        <ele>507.8</ele>
        <time>2022-09-21T09:20:16.000Z</time>
      </trkpt>
      <trkpt lat="43.75486" lon="6.99421">
        <ele>508.3</ele>
        <time>2022-09-21T09:20:19.000Z</time>
      </trkpt>
      <trkpt lat="43.75485" lon="6.99429">
        <ele>508.5</ele>
        <time>2022-09-21T09:20:21.000Z</time>
      </trkpt>
      <trkpt lat="43.75485" lon="6.99438">
        <ele>508.8</ele>
        <time>2022-09-21T09:20:23.000Z</time>
      </trkpt>
      <trkpt lat="43.75486" lon="6.99446">
        <ele>509.3</ele>
        <time>2022-09-21T09:20:25.000Z</time>
      </trkpt>
      <trkpt lat="43.75488" lon="6.99456">
        <ele>509.3</ele>
        <time>2022-09-21T09:20:27.000Z</time>
      </trkpt>
      <trkpt lat="43.75489" lon="6.99466">
        <ele>509.5</ele>
        <time>2022-09-21T09:20:29.000Z</time>
      </trkpt>
      <trkpt lat="43.75491" lon="6.99475">
        <ele>509.7</ele>
        <time>2022-09-21T09:20:31.000Z</time>
      </trkpt>
      <trkpt lat="43.75492" lon="6.99483">
        <ele>509.9</ele>
        <time>2022-09-21T09:20:33.000Z</time>
      </trkpt>
      <trkpt lat="43.75492" lon="6.99491">
        <ele>510</ele>
        <time>2022-09-21T09:20:35.000Z</time>
      </trkpt>
      <trkpt lat="43.75491" lon="6.99499">
        <ele>510.3</ele>
        <time>2022-09-21T09:20:37.000Z</time>
      </trkpt>
      <trkpt lat="43.75489" lon="6.99506">
        <ele>510.6</ele>
        <time>2022-09-21T09:20:39.000Z</time>
      </trkpt>
      <trkpt lat="43.75485" lon="6.99511">
        <ele>511</ele>
        <time>2022-09-21T09:20:41.000Z</time>
      </trkpt>
      <trkpt lat="43.7548" lon="6.99516">
        <ele>511.1</ele>
        <time>2022-09-21T09:20:43.000Z</time>
      </trkpt>
      <trkpt lat="43.75474" lon="6.99519">
        <ele>511.6</ele>
        <time>2022-09-21T09:20:45.000Z</time>
      </trkpt>
      <trkpt lat="43.75467" lon="6.99519">
        <ele>512</ele>
        <time>2022-09-21T09:20:47.000Z</time>
      </trkpt>
      <trkpt lat="43.75461" lon="6.99518">
        <ele>512.4</ele>
        <time>2022-09-21T09:20:49.000Z</time>
      </trkpt>
      <trkpt lat="43.75457" lon="6.99518">
        <ele>512.7</ele>
        <time>2022-09-21T09:20:51.000Z</time>
      </trkpt>
      <trkpt lat="43.7545" lon="6.99519">
        <ele>513.2</ele>
        <time>2022-09-21T09:20:54.000Z</time>
      </trkpt>
      <trkpt lat="43.75445" lon="6.99521">
        <ele>513.9</ele>
        <time>2022-09-21T09:20:56.000Z</time>
      </trkpt>
      <trkpt lat="43.7544" lon="6.99523">
        <ele>513.7</ele>
        <time>2022-09-21T09:20:58.000Z</time>
      </trkpt>
      <trkpt lat="43.75436" lon="6.99526">
        <ele>514.1</ele>
        <time>2022-09-21T09:21:00.000Z</time>
      </trkpt>
      <trkpt lat="43.7543" lon="6.99531">
        <ele>514.5</ele>
        <time>2022-09-21T09:21:03.000Z</time>
      </trkpt>
      <trkpt lat="43.75425" lon="6.99535">
        <ele>514.6</ele>
        <time>2022-09-21T09:21:05.000Z</time>
      </trkpt>
      <trkpt lat="43.7542" lon="6.99539">
        <ele>514.8</ele>
        <time>2022-09-21T09:21:07.000Z</time>
      </trkpt>
      <trkpt lat="43.75415" lon="6.99539">
        <ele>515.2</ele>
        <time>2022-09-21T09:21:09.000Z</time>
      </trkpt>
      <trkpt lat="43.7541" lon="6.99541">
        <ele>515.5</ele>
        <time>2022-09-21T09:21:11.000Z</time>
      </trkpt>
      <trkpt lat="43.75406" lon="6.99544">
        <ele>515.9</ele>
        <time>2022-09-21T09:21:13.000Z</time>
      </trkpt>
      <trkpt lat="43.75401" lon="6.99545">
        <ele>516.2</ele>
        <time>2022-09-21T09:21:15.000Z</time>
      </trkpt>
      <trkpt lat="43.75396" lon="6.99547">
        <ele>516.3</ele>
        <time>2022-09-21T09:21:17.000Z</time>
      </trkpt>
      <trkpt lat="43.75391" lon="6.99551">
        <ele>516.3</ele>
        <time>2022-09-21T09:21:19.000Z</time>
      </trkpt>
      <trkpt lat="43.75386" lon="6.99554">
        <ele>516.5</ele>
        <time>2022-09-21T09:21:21.000Z</time>
      </trkpt>
      <trkpt lat="43.75381" lon="6.99559">
        <ele>517</ele>
        <time>2022-09-21T09:21:23.000Z</time>
      </trkpt>
      <trkpt lat="43.75377" lon="6.99563">
        <ele>517.2</ele>
        <time>2022-09-21T09:21:25.000Z</time>
      </trkpt>
      <trkpt lat="43.75373" lon="6.9957">
        <ele>517.2</ele>
        <time>2022-09-21T09:21:27.000Z</time>
      </trkpt>
      <trkpt lat="43.7537" lon="6.99575">
        <ele>517.8</ele>
        <time>2022-09-21T09:21:29.000Z</time>
      </trkpt>
      <trkpt lat="43.75366" lon="6.99579">
        <ele>518.2</ele>
        <time>2022-09-21T09:21:31.000Z</time>
      </trkpt>
      <trkpt lat="43.75363" lon="6.99584">
        <ele>518.3</ele>
        <time>2022-09-21T09:21:33.000Z</time>
      </trkpt>
      <trkpt lat="43.7536" lon="6.99589">
        <ele>518.5</ele>
        <time>2022-09-21T09:21:35.000Z</time>
      </trkpt>
      <trkpt lat="43.75356" lon="6.99596">
        <ele>518.8</ele>
        <time>2022-09-21T09:21:37.000Z</time>
      </trkpt>
      <trkpt lat="43.75351" lon="6.996">
        <ele>519</ele>
        <time>2022-09-21T09:21:39.000Z</time>
      </trkpt>
      <trkpt lat="43.75346" lon="6.99605">
        <ele>519.5</ele>
        <time>2022-09-21T09:21:41.000Z</time>
      </trkpt>
      <trkpt lat="43.75342" lon="6.99609">
        <ele>519.5</ele>
        <time>2022-09-21T09:21:43.000Z</time>
      </trkpt>
      <trkpt lat="43.75338" lon="6.99616">
        <ele>520</ele>
        <time>2022-09-21T09:21:45.000Z</time>
      </trkpt>
      <trkpt lat="43.75332" lon="6.99622">
        <ele>520.2</ele>
        <time>2022-09-21T09:21:47.000Z</time>
      </trkpt>
      <trkpt lat="43.75327" lon="6.99627">
        <ele>520.4</ele>
        <time>2022-09-21T09:21:49.000Z</time>
      </trkpt>
      <trkpt lat="43.75324" lon="6.9963">
        <ele>520.8</ele>
        <time>2022-09-21T09:21:51.000Z</time>
      </trkpt>
      <trkpt lat="43.75318" lon="6.99634">
        <ele>521.2</ele>
        <time>2022-09-21T09:21:54.000Z</time>
      </trkpt>
      <trkpt lat="43.75313" lon="6.99638">
        <ele>521.5</ele>
        <time>2022-09-21T09:21:56.000Z</time>
      </trkpt>
      <trkpt lat="43.75309" lon="6.99642">
        <ele>521.6</ele>
        <time>2022-09-21T09:21:58.000Z</time>
      </trkpt>
      <trkpt lat="43.75305" lon="6.99646">
        <ele>521.7</ele>
        <time>2022-09-21T09:22:00.000Z</time>
      </trkpt>
      <trkpt lat="43.75301" lon="6.99652">
        <ele>522.1</ele>
        <time>2022-09-21T09:22:02.000Z</time>
      </trkpt>
      <trkpt lat="43.75298" lon="6.99657">
        <ele>522.5</ele>
        <time>2022-09-21T09:22:04.000Z</time>
      </trkpt>
      <trkpt lat="43.75296" lon="6.99663">
        <ele>522.5</ele>
        <time>2022-09-21T09:22:06.000Z</time>
      </trkpt>
      <trkpt lat="43.75293" lon="6.9967">
        <ele>522.9</ele>
        <time>2022-09-21T09:22:08.000Z</time>
      </trkpt>
      <trkpt lat="43.7529" lon="6.99677">
        <ele>523.2</ele>
        <time>2022-09-21T09:22:11.000Z</time>
      </trkpt>
      <trkpt lat="43.75289" lon="6.99683">
        <ele>523.3</ele>
        <time>2022-09-21T09:22:13.000Z</time>
      </trkpt>
      <trkpt lat="43.75288" lon="6.9969">
        <ele>523.9</ele>
        <time>2022-09-21T09:22:15.000Z</time>
      </trkpt>
      <trkpt lat="43.75286" lon="6.99699">
        <ele>524.2</ele>
        <time>2022-09-21T09:22:18.000Z</time>
      </trkpt>
      <trkpt lat="43.75284" lon="6.99706">
        <ele>524.6</ele>
        <time>2022-09-21T09:22:20.000Z</time>
      </trkpt>
      <trkpt lat="43.75282" lon="6.99712">
        <ele>524.7</ele>
        <time>2022-09-21T09:22:22.000Z</time>
      </trkpt>
      <trkpt lat="43.75279" lon="6.99719">
        <ele>524.8</ele>
        <time>2022-09-21T09:22:24.000Z</time>
      </trkpt>
      <trkpt lat="43.75276" lon="6.99725">
        <ele>525.2</ele>
        <time>2022-09-21T09:22:26.000Z</time>
      </trkpt>
      <trkpt lat="43.75273" lon="6.99731">
        <ele>525.3</ele>
        <time>2022-09-21T09:22:28.000Z</time>
      </trkpt>
      <trkpt lat="43.75269" lon="6.99738">
        <ele>525.8</ele>
        <time>2022-09-21T09:22:30.000Z</time>
      </trkpt>
      <trkpt lat="43.75266" lon="6.99744">
        <ele>526.1</ele>
        <time>2022-09-21T09:22:32.000Z</time>
      </trkpt>
      <trkpt lat="43.75262" lon="6.9975">
        <ele>526</ele>
        <time>2022-09-21T09:22:34.000Z</time>
      </trkpt>
      <trkpt lat="43.75259" lon="6.99755">
        <ele>526.6</ele>
        <time>2022-09-21T09:22:36.000Z</time>
      </trkpt>
      <trkpt lat="43.75255" lon="6.99761">
        <ele>527.1</ele>
        <time>2022-09-21T09:22:38.000Z</time>
      </trkpt>
      <trkpt lat="43.75252" lon="6.99767">
        <ele>527.2</ele>
        <time>2022-09-21T09:22:40.000Z</time>
      </trkpt>
      <trkpt lat="43.75249" lon="6.99772">
        <ele>527.6</ele>
        <time>2022-09-21T09:22:42.000Z</time>
      </trkpt>
      <trkpt lat="43.75246" lon="6.9978">
        <ele>528</ele>
        <time>2022-09-21T09:22:44.000Z</time>
      </trkpt>
      <trkpt lat="43.75245" lon="6.99786">
        <ele>527.6</ele>
        <time>2022-09-21T09:22:46.000Z</time>
      </trkpt>
      <trkpt lat="43.75242" lon="6.99793">
        <ele>528</ele>
        <time>2022-09-21T09:22:48.000Z</time>
      </trkpt>
      <trkpt lat="43.7524" lon="6.998">
        <ele>528.1</ele>
        <time>2022-09-21T09:22:50.000Z</time>
      </trkpt>
      <trkpt lat="43.75238" lon="6.99807">
        <ele>528.5</ele>
        <time>2022-09-21T09:22:52.000Z</time>
      </trkpt>
      <trkpt lat="43.75236" lon="6.99813">
        <ele>528.6</ele>
        <time>2022-09-21T09:22:54.000Z</time>
      </trkpt>
      <trkpt lat="43.75233" lon="6.99818">
        <ele>529.1</ele>
        <time>2022-09-21T09:22:56.000Z</time>
      </trkpt>
      <trkpt lat="43.75231" lon="6.99826">
        <ele>529.1</ele>
        <time>2022-09-21T09:22:58.000Z</time>
      </trkpt>
      <trkpt lat="43.75229" lon="6.99833">
        <ele>529.6</ele>
        <time>2022-09-21T09:23:00.000Z</time>
      </trkpt>
      <trkpt lat="43.75228" lon="6.99841">
        <ele>530</ele>
        <time>2022-09-21T09:23:02.000Z</time>
      </trkpt>
      <trkpt lat="43.75227" lon="6.99848">
        <ele>529.8</ele>
        <time>2022-09-21T09:23:04.000Z</time>
      </trkpt>
      <trkpt lat="43.75228" lon="6.99856">
        <ele>530.2</ele>
        <time>2022-09-21T09:23:06.000Z</time>
      </trkpt>
      <trkpt lat="43.75228" lon="6.99864">
        <ele>530.1</ele>
        <time>2022-09-21T09:23:08.000Z</time>
      </trkpt>
      <trkpt lat="43.75228" lon="6.99872">
        <ele>530.6</ele>
        <time>2022-09-21T09:23:10.000Z</time>
      </trkpt>
      <trkpt lat="43.75227" lon="6.99879">
        <ele>531.1</ele>
        <time>2022-09-21T09:23:12.000Z</time>
      </trkpt>
      <trkpt lat="43.75227" lon="6.99885">
        <ele>531.5</ele>
        <time>2022-09-21T09:23:14.000Z</time>
      </trkpt>
      <trkpt lat="43.75228" lon="6.99894">
        <ele>531.8</ele>
        <time>2022-09-21T09:23:17.000Z</time>
      </trkpt>
      <trkpt lat="43.75228" lon="6.99901">
        <ele>531.8</ele>
        <time>2022-09-21T09:23:19.000Z</time>
      </trkpt>
      <trkpt lat="43.75229" lon="6.99907">
        <ele>532.3</ele>
        <time>2022-09-21T09:23:21.000Z</time>
      </trkpt>
      <trkpt lat="43.75232" lon="6.99914">
        <ele>532.6</ele>
        <time>2022-09-21T09:23:23.000Z</time>
      </trkpt>
      <trkpt lat="43.75237" lon="6.99918">
        <ele>533.2</ele>
        <time>2022-09-21T09:23:26.000Z</time>
      </trkpt>
      <trkpt lat="43.75242" lon="6.9992">
        <ele>533.3</ele>
        <time>2022-09-21T09:23:28.000Z</time>
      </trkpt>
      <trkpt lat="43.75246" lon="6.99923">
        <ele>533.6</ele>
        <time>2022-09-21T09:23:30.000Z</time>
      </trkpt>
      <trkpt lat="43.75251" lon="6.99923">
        <ele>533.9</ele>
        <time>2022-09-21T09:23:32.000Z</time>
      </trkpt>
      <trkpt lat="43.75256" lon="6.99925">
        <ele>534.1</ele>
        <time>2022-09-21T09:23:34.000Z</time>
      </trkpt>
      <trkpt lat="43.75261" lon="6.99927">
        <ele>534.5</ele>
        <time>2022-09-21T09:23:36.000Z</time>
      </trkpt>
      <trkpt lat="43.75266" lon="6.9993">
        <ele>534.9</ele>
        <time>2022-09-21T09:23:38.000Z</time>
      </trkpt>
      <trkpt lat="43.7527" lon="6.99934">
        <ele>535.1</ele>
        <time>2022-09-21T09:23:40.000Z</time>
      </trkpt>
      <trkpt lat="43.75275" lon="6.99937">
        <ele>535.2</ele>
        <time>2022-09-21T09:23:42.000Z</time>
      </trkpt>
      <trkpt lat="43.7528" lon="6.9994">
        <ele>535.4</ele>
        <time>2022-09-21T09:23:44.000Z</time>
      </trkpt>
      <trkpt lat="43.75286" lon="6.99944">
        <ele>535.3</ele>
        <time>2022-09-21T09:23:46.000Z</time>
      </trkpt>
      <trkpt lat="43.7529" lon="6.99949">
        <ele>536</ele>
        <time>2022-09-21T09:23:48.000Z</time>
      </trkpt>
      <trkpt lat="43.75294" lon="6.99953">
        <ele>536.2</ele>
        <time>2022-09-21T09:23:50.000Z</time>
      </trkpt>
      <trkpt lat="43.75298" lon="6.99957">
        <ele>536.3</ele>
        <time>2022-09-21T09:23:52.000Z</time>
      </trkpt>
      <trkpt lat="43.75302" lon="6.99964">
        <ele>536.6</ele>
        <time>2022-09-21T09:23:54.000Z</time>
      </trkpt>
      <trkpt lat="43.75306" lon="6.99971">
        <ele>537</ele>
        <time>2022-09-21T09:23:57.000Z</time>
      </trkpt>
      <trkpt lat="43.75311" lon="6.99977">
        <ele>537.4</ele>
        <time>2022-09-21T09:24:00.000Z</time>
      </trkpt>
      <trkpt lat="43.75317" lon="6.99981">
        <ele>537.8</ele>
        <time>2022-09-21T09:24:03.000Z</time>
      </trkpt>
      <trkpt lat="43.75322" lon="6.99984">
        <ele>538.2</ele>
        <time>2022-09-21T09:24:06.000Z</time>
      </trkpt>
      <trkpt lat="43.75329" lon="6.99985">
        <ele>538.4</ele>
        <time>2022-09-21T09:24:09.000Z</time>
      </trkpt>
      <trkpt lat="43.75334" lon="6.99985">
        <ele>538.9</ele>
        <time>2022-09-21T09:24:11.000Z</time>
      </trkpt>
      <trkpt lat="43.75339" lon="6.99986">
        <ele>539.1</ele>
        <time>2022-09-21T09:24:13.000Z</time>
      </trkpt>
      <trkpt lat="43.75344" lon="6.99986">
        <ele>539.4</ele>
        <time>2022-09-21T09:24:15.000Z</time>
      </trkpt>
      <trkpt lat="43.75349" lon="6.99987">
        <ele>539.5</ele>
        <time>2022-09-21T09:24:17.000Z</time>
      </trkpt>
      <trkpt lat="43.75354" lon="6.99987">
        <ele>539.9</ele>
        <time>2022-09-21T09:24:19.000Z</time>
      </trkpt>
      <trkpt lat="43.75359" lon="6.99987">
        <ele>540.2</ele>
        <time>2022-09-21T09:24:21.000Z</time>
      </trkpt>
      <trkpt lat="43.75363" lon="6.9999">
        <ele>540.2</ele>
        <time>2022-09-21T09:24:23.000Z</time>
      </trkpt>
      <trkpt lat="43.75368" lon="6.99993">
        <ele>540.6</ele>
        <time>2022-09-21T09:24:25.000Z</time>
      </trkpt>
      <trkpt lat="43.75373" lon="6.99997">
        <ele>540.7</ele>
        <time>2022-09-21T09:24:27.000Z</time>
      </trkpt>
      <trkpt lat="43.75378" lon="6.99999">
        <ele>540.8</ele>
        <time>2022-09-21T09:24:29.000Z</time>
      </trkpt>
      <trkpt lat="43.75382" lon="7.00002">
        <ele>541.4</ele>
        <time>2022-09-21T09:24:31.000Z</time>
      </trkpt>
      <trkpt lat="43.75387" lon="7.00008">
        <ele>541.3</ele>
        <time>2022-09-21T09:24:33.000Z</time>
      </trkpt>
      <trkpt lat="43.7539" lon="7.00015">
        <ele>541.7</ele>
        <time>2022-09-21T09:24:35.000Z</time>
      </trkpt>
      <trkpt lat="43.75393" lon="7.00021">
        <ele>542</ele>
        <time>2022-09-21T09:24:37.000Z</time>
      </trkpt>
      <trkpt lat="43.75394" lon="7.00029">
        <ele>542.4</ele>
        <time>2022-09-21T09:24:39.000Z</time>
      </trkpt>
      <trkpt lat="43.75396" lon="7.00037">
        <ele>542.4</ele>
        <time>2022-09-21T09:24:41.000Z</time>
      </trkpt>
      <trkpt lat="43.75396" lon="7.00043">
        <ele>542.8</ele>
        <time>2022-09-21T09:24:43.000Z</time>
      </trkpt>
      <trkpt lat="43.75397" lon="7.0005">
        <ele>543.2</ele>
        <time>2022-09-21T09:24:45.000Z</time>
      </trkpt>
      <trkpt lat="43.75397" lon="7.00057">
        <ele>543.3</ele>
        <time>2022-09-21T09:24:47.000Z</time>
      </trkpt>
      <trkpt lat="43.75397" lon="7.00063">
        <ele>543.4</ele>
        <time>2022-09-21T09:24:49.000Z</time>
      </trkpt>
      <trkpt lat="43.75396" lon="7.00071">
        <ele>543.7</ele>
        <time>2022-09-21T09:24:51.000Z</time>
      </trkpt>
      <trkpt lat="43.75396" lon="7.00079">
        <ele>543.8</ele>
        <time>2022-09-21T09:24:53.000Z</time>
      </trkpt>
      <trkpt lat="43.75395" lon="7.00086">
        <ele>544.2</ele>
        <time>2022-09-21T09:24:55.000Z</time>
      </trkpt>
      <trkpt lat="43.75395" lon="7.00094">
        <ele>544.6</ele>
        <time>2022-09-21T09:24:57.000Z</time>
      </trkpt>
      <trkpt lat="43.75394" lon="7.001">
        <ele>544.8</ele>
        <time>2022-09-21T09:24:59.000Z</time>
      </trkpt>
      <trkpt lat="43.75394" lon="7.00107">
        <ele>545.1</ele>
        <time>2022-09-21T09:25:01.000Z</time>
      </trkpt>
      <trkpt lat="43.75393" lon="7.00116">
        <ele>545.6</ele>
        <time>2022-09-21T09:25:04.000Z</time>
      </trkpt>
      <trkpt lat="43.75393" lon="7.00123">
        <ele>545.7</ele>
        <time>2022-09-21T09:25:06.000Z</time>
      </trkpt>
      <trkpt lat="43.75394" lon="7.00133">
        <ele>545.8</ele>
        <time>2022-09-21T09:25:09.000Z</time>
      </trkpt>
      <trkpt lat="43.75395" lon="7.00139">
        <ele>546.1</ele>
        <time>2022-09-21T09:25:11.000Z</time>
      </trkpt>
      <trkpt lat="43.75396" lon="7.00146">
        <ele>546.6</ele>
        <time>2022-09-21T09:25:13.000Z</time>
      </trkpt>
      <trkpt lat="43.75397" lon="7.00154">
        <ele>546.9</ele>
        <time>2022-09-21T09:25:15.000Z</time>
      </trkpt>
      <trkpt lat="43.75399" lon="7.0016">
        <ele>547</ele>
        <time>2022-09-21T09:25:17.000Z</time>
      </trkpt>
      <trkpt lat="43.75401" lon="7.00166">
        <ele>547.1</ele>
        <time>2022-09-21T09:25:19.000Z</time>
      </trkpt>
      <trkpt lat="43.75403" lon="7.00172">
        <ele>547.4</ele>
        <time>2022-09-21T09:25:21.000Z</time>
      </trkpt>
      <trkpt lat="43.75405" lon="7.00179">
        <ele>547.9</ele>
        <time>2022-09-21T09:25:23.000Z</time>
      </trkpt>
      <trkpt lat="43.75407" lon="7.00185">
        <ele>548.3</ele>
        <time>2022-09-21T09:25:25.000Z</time>
      </trkpt>
      <trkpt lat="43.7541" lon="7.00191">
        <ele>548.4</ele>
        <time>2022-09-21T09:25:27.000Z</time>
      </trkpt>
      <trkpt lat="43.75414" lon="7.00196">
        <ele>548.4</ele>
        <time>2022-09-21T09:25:29.000Z</time>
      </trkpt>
      <trkpt lat="43.75418" lon="7.00202">
        <ele>548.8</ele>
        <time>2022-09-21T09:25:31.000Z</time>
      </trkpt>
      <trkpt lat="43.75421" lon="7.00209">
        <ele>549.2</ele>
        <time>2022-09-21T09:25:33.000Z</time>
      </trkpt>
      <trkpt lat="43.75424" lon="7.00214">
        <ele>549.4</ele>
        <time>2022-09-21T09:25:35.000Z</time>
      </trkpt>
      <trkpt lat="43.75427" lon="7.0022">
        <ele>549.5</ele>
        <time>2022-09-21T09:25:37.000Z</time>
      </trkpt>
      <trkpt lat="43.75431" lon="7.00227">
        <ele>549.7</ele>
        <time>2022-09-21T09:25:39.000Z</time>
      </trkpt>
      <trkpt lat="43.75434" lon="7.00234">
        <ele>549.9</ele>
        <time>2022-09-21T09:25:41.000Z</time>
      </trkpt>
      <trkpt lat="43.75436" lon="7.00242">
        <ele>550.2</ele>
        <time>2022-09-21T09:25:43.000Z</time>
      </trkpt>
      <trkpt lat="43.75438" lon="7.0025">
        <ele>550.2</ele>
        <time>2022-09-21T09:25:45.000Z</time>
      </trkpt>
      <trkpt lat="43.7544" lon="7.00257">
        <ele>550.6</ele>
        <time>2022-09-21T09:25:47.000Z</time>
      </trkpt>
      <trkpt lat="43.75441" lon="7.00264">
        <ele>551</ele>
        <time>2022-09-21T09:25:49.000Z</time>
      </trkpt>
      <trkpt lat="43.75442" lon="7.00271">
        <ele>551.2</ele>
        <time>2022-09-21T09:25:51.000Z</time>
      </trkpt>
      <trkpt lat="43.75441" lon="7.00279">
        <ele>551.6</ele>
        <time>2022-09-21T09:25:54.000Z</time>
      </trkpt>
      <trkpt lat="43.75439" lon="7.00286">
        <ele>552</ele>
        <time>2022-09-21T09:25:56.000Z</time>
      </trkpt>
      <trkpt lat="43.75435" lon="7.00293">
        <ele>552.2</ele>
        <time>2022-09-21T09:25:58.000Z</time>
      </trkpt>
      <trkpt lat="43.75432" lon="7.00299">
        <ele>552.6</ele>
        <time>2022-09-21T09:26:00.000Z</time>
      </trkpt>
      <trkpt lat="43.75429" lon="7.00306">
        <ele>552.7</ele>
        <time>2022-09-21T09:26:02.000Z</time>
      </trkpt>
      <trkpt lat="43.75427" lon="7.00312">
        <ele>552.8</ele>
        <time>2022-09-21T09:26:04.000Z</time>
      </trkpt>
      <trkpt lat="43.75423" lon="7.00318">
        <ele>553.3</ele>
        <time>2022-09-21T09:26:06.000Z</time>
      </trkpt>
      <trkpt lat="43.7542" lon="7.00325">
        <ele>553.5</ele>
        <time>2022-09-21T09:26:08.000Z</time>
      </trkpt>
      <trkpt lat="43.75418" lon="7.00332">
        <ele>553.8</ele>
        <time>2022-09-21T09:26:10.000Z</time>
      </trkpt>
      <trkpt lat="43.75415" lon="7.00337">
        <ele>554</ele>
        <time>2022-09-21T09:26:12.000Z</time>
      </trkpt>
      <trkpt lat="43.75412" lon="7.00343">
        <ele>554.4</ele>
        <time>2022-09-21T09:26:14.000Z</time>
      </trkpt>
      <trkpt lat="43.75407" lon="7.0035">
        <ele>554.5</ele>
        <time>2022-09-21T09:26:17.000Z</time>
      </trkpt>
      <trkpt lat="43.75406" lon="7.00357">
        <ele>554.7</ele>
        <time>2022-09-21T09:26:19.000Z</time>
      </trkpt>
      <trkpt lat="43.75403" lon="7.00362">
        <ele>555.1</ele>
        <time>2022-09-21T09:26:21.000Z</time>
      </trkpt>
      <trkpt lat="43.75401" lon="7.0037">
        <ele>555.2</ele>
        <time>2022-09-21T09:26:24.000Z</time>
      </trkpt>
      <trkpt lat="43.75398" lon="7.00378">
        <ele>555.7</ele>
        <time>2022-09-21T09:26:27.000Z</time>
      </trkpt>
      <trkpt lat="43.75395" lon="7.00383">
        <ele>556.2</ele>
        <time>2022-09-21T09:26:29.000Z</time>
      </trkpt>
      <trkpt lat="43.75392" lon="7.00388">
        <ele>556.1</ele>
        <time>2022-09-21T09:26:31.000Z</time>
      </trkpt>
      <trkpt lat="43.75389" lon="7.00396">
        <ele>556.5</ele>
        <time>2022-09-21T09:26:34.000Z</time>
      </trkpt>
      <trkpt lat="43.75387" lon="7.00404">
        <ele>556.5</ele>
        <time>2022-09-21T09:26:36.000Z</time>
      </trkpt>
      <trkpt lat="43.75384" lon="7.0041">
        <ele>556.8</ele>
        <time>2022-09-21T09:26:38.000Z</time>
      </trkpt>
      <trkpt lat="43.75382" lon="7.00417">
        <ele>557.5</ele>
        <time>2022-09-21T09:26:40.000Z</time>
      </trkpt>
      <trkpt lat="43.75379" lon="7.00423">
        <ele>557.7</ele>
        <time>2022-09-21T09:26:42.000Z</time>
      </trkpt>
      <trkpt lat="43.75375" lon="7.00429">
        <ele>557.9</ele>
        <time>2022-09-21T09:26:44.000Z</time>
      </trkpt>
      <trkpt lat="43.75372" lon="7.00435">
        <ele>558.2</ele>
        <time>2022-09-21T09:26:46.000Z</time>
      </trkpt>
      <trkpt lat="43.7537" lon="7.00441">
        <ele>558.4</ele>
        <time>2022-09-21T09:26:48.000Z</time>
      </trkpt>
      <trkpt lat="43.75367" lon="7.00447">
        <ele>558.6</ele>
        <time>2022-09-21T09:26:50.000Z</time>
      </trkpt>
      <trkpt lat="43.75363" lon="7.00452">
        <ele>558.8</ele>
        <time>2022-09-21T09:26:52.000Z</time>
      </trkpt>
      <trkpt lat="43.7536" lon="7.00459">
        <ele>559.3</ele>
        <time>2022-09-21T09:26:54.000Z</time>
      </trkpt>
      <trkpt lat="43.75358" lon="7.00466">
        <ele>559.4</ele>
        <time>2022-09-21T09:26:56.000Z</time>
      </trkpt>
      <trkpt lat="43.75355" lon="7.00472">
        <ele>559.6</ele>
        <time>2022-09-21T09:26:58.000Z</time>
      </trkpt>
      <trkpt lat="43.75353" lon="7.00479">
        <ele>560.1</ele>
        <time>2022-09-21T09:27:00.000Z</time>
      </trkpt>
      <trkpt lat="43.7535" lon="7.00486">
        <ele>560.4</ele>
        <time>2022-09-21T09:27:02.000Z</time>
      </trkpt>
      <trkpt lat="43.75346" lon="7.00492">
        <ele>560.6</ele>
        <time>2022-09-21T09:27:04.000Z</time>
      </trkpt>
      <trkpt lat="43.75343" lon="7.00499">
        <ele>561</ele>
        <time>2022-09-21T09:27:06.000Z</time>
      </trkpt>
      <trkpt lat="43.75338" lon="7.00504">
        <ele>561.1</ele>
        <time>2022-09-21T09:27:08.000Z</time>
      </trkpt>
      <trkpt lat="43.75334" lon="7.0051">
        <ele>561.2</ele>
        <time>2022-09-21T09:27:10.000Z</time>
      </trkpt>
      <trkpt lat="43.75331" lon="7.00516">
        <ele>561.6</ele>
        <time>2022-09-21T09:27:12.000Z</time>
      </trkpt>
      <trkpt lat="43.75328" lon="7.00521">
        <ele>562.3</ele>
        <time>2022-09-21T09:27:14.000Z</time>
      </trkpt>
      <trkpt lat="43.75326" lon="7.00528">
        <ele>562.3</ele>
        <time>2022-09-21T09:27:16.000Z</time>
      </trkpt>
      <trkpt lat="43.75322" lon="7.00533">
        <ele>562.4</ele>
        <time>2022-09-21T09:27:18.000Z</time>
      </trkpt>
      <trkpt lat="43.75318" lon="7.00538">
        <ele>562.7</ele>
        <time>2022-09-21T09:27:20.000Z</time>
      </trkpt>
      <trkpt lat="43.75315" lon="7.00543">
        <ele>562.9</ele>
        <time>2022-09-21T09:27:22.000Z</time>
      </trkpt>
      <trkpt lat="43.75311" lon="7.00548">
        <ele>563.4</ele>
        <time>2022-09-21T09:27:24.000Z</time>
      </trkpt>
      <trkpt lat="43.75308" lon="7.00554">
        <ele>563.5</ele>
        <time>2022-09-21T09:27:26.000Z</time>
      </trkpt>
      <trkpt lat="43.75304" lon="7.00561">
        <ele>563.7</ele>
        <time>2022-09-21T09:27:28.000Z</time>
      </trkpt>
      <trkpt lat="43.753" lon="7.00566">
        <ele>564.3</ele>
        <time>2022-09-21T09:27:30.000Z</time>
      </trkpt>
      <trkpt lat="43.75295" lon="7.00568">
        <ele>564.3</ele>
        <time>2022-09-21T09:27:32.000Z</time>
      </trkpt>
      <trkpt lat="43.75291" lon="7.00571">
        <ele>564.6</ele>
        <time>2022-09-21T09:27:34.000Z</time>
      </trkpt>
      <trkpt lat="43.75287" lon="7.00575">
        <ele>564.5</ele>
        <time>2022-09-21T09:27:36.000Z</time>
      </trkpt>
      <trkpt lat="43.75282" lon="7.0058">
        <ele>565</ele>
        <time>2022-09-21T09:27:38.000Z</time>
      </trkpt>
      <trkpt lat="43.75278" lon="7.00582">
        <ele>565.3</ele>
        <time>2022-09-21T09:27:40.000Z</time>
      </trkpt>
      <trkpt lat="43.75273" lon="7.00585">
        <ele>565.6</ele>
        <time>2022-09-21T09:27:42.000Z</time>
      </trkpt>
      <trkpt lat="43.7527" lon="7.0059">
        <ele>565.4</ele>
        <time>2022-09-21T09:27:44.000Z</time>
      </trkpt>
      <trkpt lat="43.75266" lon="7.00594">
        <ele>566.2</ele>
        <time>2022-09-21T09:27:46.000Z</time>
      </trkpt>
      <trkpt lat="43.7526" lon="7.00597">
        <ele>566.3</ele>
        <time>2022-09-21T09:27:49.000Z</time>
      </trkpt>
      <trkpt lat="43.75255" lon="7.006">
        <ele>566.6</ele>
        <time>2022-09-21T09:27:51.000Z</time>
      </trkpt>
      <trkpt lat="43.7525" lon="7.00603">
        <ele>566.7</ele>
        <time>2022-09-21T09:27:53.000Z</time>
      </trkpt>
      <trkpt lat="43.75244" lon="7.00606">
        <ele>567</ele>
        <time>2022-09-21T09:27:55.000Z</time>
      </trkpt>
      <trkpt lat="43.75239" lon="7.00607">
        <ele>567.4</ele>
        <time>2022-09-21T09:27:57.000Z</time>
      </trkpt>
      <trkpt lat="43.75233" lon="7.00609">
        <ele>567.7</ele>
        <time>2022-09-21T09:27:59.000Z</time>
      </trkpt>
      <trkpt lat="43.75228" lon="7.00612">
        <ele>567.6</ele>
        <time>2022-09-21T09:28:01.000Z</time>
      </trkpt>
      <trkpt lat="43.75223" lon="7.00615">
        <ele>567.9</ele>
        <time>2022-09-21T09:28:03.000Z</time>
      </trkpt>
      <trkpt lat="43.75218" lon="7.00617">
        <ele>568.6</ele>
        <time>2022-09-21T09:28:05.000Z</time>
      </trkpt>
      <trkpt lat="43.75213" lon="7.00621">
        <ele>568.7</ele>
        <time>2022-09-21T09:28:07.000Z</time>
      </trkpt>
      <trkpt lat="43.75207" lon="7.00626">
        <ele>568.9</ele>
        <time>2022-09-21T09:28:10.000Z</time>
      </trkpt>
      <trkpt lat="43.75203" lon="7.00628">
        <ele>569.1</ele>
        <time>2022-09-21T09:28:12.000Z</time>
      </trkpt>
      <trkpt lat="43.75198" lon="7.00631">
        <ele>569.5</ele>
        <time>2022-09-21T09:28:14.000Z</time>
      </trkpt>
      <trkpt lat="43.75193" lon="7.00634">
        <ele>569.8</ele>
        <time>2022-09-21T09:28:16.000Z</time>
      </trkpt>
      <trkpt lat="43.75188" lon="7.00637">
        <ele>569.7</ele>
        <time>2022-09-21T09:28:18.000Z</time>
      </trkpt>
      <trkpt lat="43.75183" lon="7.00638">
        <ele>570.2</ele>
        <time>2022-09-21T09:28:20.000Z</time>
      </trkpt>
      <trkpt lat="43.75177" lon="7.00641">
        <ele>570.6</ele>
        <time>2022-09-21T09:28:22.000Z</time>
      </trkpt>
      <trkpt lat="43.75172" lon="7.00645">
        <ele>570.8</ele>
        <time>2022-09-21T09:28:24.000Z</time>
      </trkpt>
      <trkpt lat="43.75167" lon="7.00645">
        <ele>570.7</ele>
        <time>2022-09-21T09:28:26.000Z</time>
      </trkpt>
      <trkpt lat="43.75162" lon="7.00647">
        <ele>571.1</ele>
        <time>2022-09-21T09:28:28.000Z</time>
      </trkpt>
      <trkpt lat="43.75157" lon="7.00648">
        <ele>571.5</ele>
        <time>2022-09-21T09:28:30.000Z</time>
      </trkpt>
      <trkpt lat="43.75152" lon="7.00651">
        <ele>571.6</ele>
        <time>2022-09-21T09:28:32.000Z</time>
      </trkpt>
      <trkpt lat="43.75147" lon="7.00653">
        <ele>571.9</ele>
        <time>2022-09-21T09:28:34.000Z</time>
      </trkpt>
      <trkpt lat="43.75142" lon="7.00656">
        <ele>572.1</ele>
        <time>2022-09-21T09:28:36.000Z</time>
      </trkpt>
      <trkpt lat="43.75137" lon="7.00659">
        <ele>572.3</ele>
        <time>2022-09-21T09:28:38.000Z</time>
      </trkpt>
      <trkpt lat="43.75132" lon="7.00661">
        <ele>572.6</ele>
        <time>2022-09-21T09:28:40.000Z</time>
      </trkpt>
      <trkpt lat="43.75126" lon="7.00662">
        <ele>572.9</ele>
        <time>2022-09-21T09:28:42.000Z</time>
      </trkpt>
      <trkpt lat="43.75121" lon="7.00664">
        <ele>573.2</ele>
        <time>2022-09-21T09:28:44.000Z</time>
      </trkpt>
      <trkpt lat="43.75116" lon="7.00666">
        <ele>573.5</ele>
        <time>2022-09-21T09:28:46.000Z</time>
      </trkpt>
      <trkpt lat="43.75111" lon="7.00669">
        <ele>573.7</ele>
        <time>2022-09-21T09:28:48.000Z</time>
      </trkpt>
      <trkpt lat="43.75107" lon="7.00671">
        <ele>574</ele>
        <time>2022-09-21T09:28:50.000Z</time>
      </trkpt>
      <trkpt lat="43.75102" lon="7.00673">
        <ele>574.2</ele>
        <time>2022-09-21T09:28:52.000Z</time>
      </trkpt>
      <trkpt lat="43.75096" lon="7.00674">
        <ele>574.9</ele>
        <time>2022-09-21T09:28:54.000Z</time>
      </trkpt>
      <trkpt lat="43.75091" lon="7.00673">
        <ele>575.2</ele>
        <time>2022-09-21T09:28:56.000Z</time>
      </trkpt>
      <trkpt lat="43.75086" lon="7.00673">
        <ele>575.5</ele>
        <time>2022-09-21T09:28:58.000Z</time>
      </trkpt>
      <trkpt lat="43.7508" lon="7.00674">
        <ele>575.4</ele>
        <time>2022-09-21T09:29:00.000Z</time>
      </trkpt>
      <trkpt lat="43.75075" lon="7.00674">
        <ele>575.9</ele>
        <time>2022-09-21T09:29:02.000Z</time>
      </trkpt>
      <trkpt lat="43.75069" lon="7.00674">
        <ele>576.1</ele>
        <time>2022-09-21T09:29:04.000Z</time>
      </trkpt>
      <trkpt lat="43.75065" lon="7.00675">
        <ele>576.3</ele>
        <time>2022-09-21T09:29:06.000Z</time>
      </trkpt>
      <trkpt lat="43.7506" lon="7.00675">
        <ele>576.5</ele>
        <time>2022-09-21T09:29:08.000Z</time>
      </trkpt>
      <trkpt lat="43.75055" lon="7.00676">
        <ele>576.9</ele>
        <time>2022-09-21T09:29:10.000Z</time>
      </trkpt>
      <trkpt lat="43.7505" lon="7.00677">
        <ele>577.4</ele>
        <time>2022-09-21T09:29:12.000Z</time>
      </trkpt>
      <trkpt lat="43.75046" lon="7.00678">
        <ele>577.9</ele>
        <time>2022-09-21T09:29:14.000Z</time>
      </trkpt>
      <trkpt lat="43.7504" lon="7.00678">
        <ele>577.7</ele>
        <time>2022-09-21T09:29:16.000Z</time>
      </trkpt>
      <trkpt lat="43.75035" lon="7.0068">
        <ele>577.8</ele>
        <time>2022-09-21T09:29:18.000Z</time>
      </trkpt>
      <trkpt lat="43.7503" lon="7.00681">
        <ele>578.3</ele>
        <time>2022-09-21T09:29:20.000Z</time>
      </trkpt>
      <trkpt lat="43.75025" lon="7.00684">
        <ele>578.4</ele>
        <time>2022-09-21T09:29:22.000Z</time>
      </trkpt>
      <trkpt lat="43.7502" lon="7.00686">
        <ele>578.6</ele>
        <time>2022-09-21T09:29:24.000Z</time>
      </trkpt>
      <trkpt lat="43.75015" lon="7.00687">
        <ele>578.8</ele>
        <time>2022-09-21T09:29:26.000Z</time>
      </trkpt>
      <trkpt lat="43.75009" lon="7.0069">
        <ele>578.7</ele>
        <time>2022-09-21T09:29:28.000Z</time>
      </trkpt>
      <trkpt lat="43.75004" lon="7.00692">
        <ele>579.5</ele>
        <time>2022-09-21T09:29:30.000Z</time>
      </trkpt>
      <trkpt lat="43.74998" lon="7.00695">
        <ele>579.5</ele>
        <time>2022-09-21T09:29:32.000Z</time>
      </trkpt>
      <trkpt lat="43.74993" lon="7.00697">
        <ele>579.4</ele>
        <time>2022-09-21T09:29:34.000Z</time>
      </trkpt>
      <trkpt lat="43.74988" lon="7.00698">
        <ele>580</ele>
        <time>2022-09-21T09:29:36.000Z</time>
      </trkpt>
      <trkpt lat="43.74982" lon="7.00698">
        <ele>580.2</ele>
        <time>2022-09-21T09:29:38.000Z</time>
      </trkpt>
      <trkpt lat="43.74977" lon="7.00698">
        <ele>580.8</ele>
        <time>2022-09-21T09:29:40.000Z</time>
      </trkpt>
      <trkpt lat="43.74971" lon="7.007">
        <ele>581.1</ele>
        <time>2022-09-21T09:29:43.000Z</time>
      </trkpt>
      <trkpt lat="43.74966" lon="7.007">
        <ele>581.7</ele>
        <time>2022-09-21T09:29:45.000Z</time>
      </trkpt>
      <trkpt lat="43.74961" lon="7.00699">
        <ele>581.9</ele>
        <time>2022-09-21T09:29:47.000Z</time>
      </trkpt>
      <trkpt lat="43.74956" lon="7.00698">
        <ele>582.1</ele>
        <time>2022-09-21T09:29:49.000Z</time>
      </trkpt>
      <trkpt lat="43.74951" lon="7.00697">
        <ele>582.5</ele>
        <time>2022-09-21T09:29:51.000Z</time>
      </trkpt>
      <trkpt lat="43.74946" lon="7.00695">
        <ele>582.7</ele>
        <time>2022-09-21T09:29:53.000Z</time>
      </trkpt>
      <trkpt lat="43.74941" lon="7.007">
        <ele>583</ele>
        <time>2022-09-21T09:29:56.000Z</time>
      </trkpt>
      <trkpt lat="43.74936" lon="7.00702">
        <ele>583.3</ele>
        <time>2022-09-21T09:29:58.000Z</time>
      </trkpt>
      <trkpt lat="43.74931" lon="7.00704">
        <ele>583.4</ele>
        <time>2022-09-21T09:30:00.000Z</time>
      </trkpt>
      <trkpt lat="43.74926" lon="7.00708">
        <ele>583.5</ele>
        <time>2022-09-21T09:30:02.000Z</time>
      </trkpt>
      <trkpt lat="43.74921" lon="7.00712">
        <ele>583.8</ele>
        <time>2022-09-21T09:30:04.000Z</time>
      </trkpt>
      <trkpt lat="43.74917" lon="7.00714">
        <ele>584.1</ele>
        <time>2022-09-21T09:30:06.000Z</time>
      </trkpt>
      <trkpt lat="43.74912" lon="7.00716">
        <ele>584.3</ele>
        <time>2022-09-21T09:30:08.000Z</time>
      </trkpt>
      <trkpt lat="43.74907" lon="7.00718">
        <ele>584.5</ele>
        <time>2022-09-21T09:30:10.000Z</time>
      </trkpt>
      <trkpt lat="43.74902" lon="7.00719">
        <ele>584.7</ele>
        <time>2022-09-21T09:30:12.000Z</time>
      </trkpt>
      <trkpt lat="43.74897" lon="7.00719">
        <ele>584.9</ele>
        <time>2022-09-21T09:30:14.000Z</time>
      </trkpt>
      <trkpt lat="43.74891" lon="7.00719">
        <ele>585</ele>
        <time>2022-09-21T09:30:16.000Z</time>
      </trkpt>
      <trkpt lat="43.74886" lon="7.00719">
        <ele>585.4</ele>
        <time>2022-09-21T09:30:18.000Z</time>
      </trkpt>
      <trkpt lat="43.74881" lon="7.00718">
        <ele>586</ele>
        <time>2022-09-21T09:30:20.000Z</time>
      </trkpt>
      <trkpt lat="43.74877" lon="7.00722">
        <ele>586.4</ele>
        <time>2022-09-21T09:30:22.000Z</time>
      </trkpt>
      <trkpt lat="43.74873" lon="7.0073">
        <ele>586.4</ele>
        <time>2022-09-21T09:30:24.000Z</time>
      </trkpt>
      <trkpt lat="43.74871" lon="7.00737">
        <ele>586.6</ele>
        <time>2022-09-21T09:30:26.000Z</time>
      </trkpt>
      <trkpt lat="43.74868" lon="7.00744">
        <ele>586.8</ele>
        <time>2022-09-21T09:30:28.000Z</time>
      </trkpt>
      <trkpt lat="43.74865" lon="7.00749">
        <ele>586.9</ele>
        <time>2022-09-21T09:30:30.000Z</time>
      </trkpt>
      <trkpt lat="43.7486" lon="7.00756">
        <ele>587.1</ele>
        <time>2022-09-21T09:30:33.000Z</time>
      </trkpt>
      <trkpt lat="43.74856" lon="7.00764">
        <ele>587.6</ele>
        <time>2022-09-21T09:30:36.000Z</time>
      </trkpt>
      <trkpt lat="43.74858" lon="7.00773">
        <ele>588</ele>
        <time>2022-09-21T09:30:39.000Z</time>
      </trkpt>
      <trkpt lat="43.74858" lon="7.0078">
        <ele>588</ele>
        <time>2022-09-21T09:30:41.000Z</time>
      </trkpt>
      <trkpt lat="43.7486" lon="7.00787">
        <ele>588.2</ele>
        <time>2022-09-21T09:30:43.000Z</time>
      </trkpt>
      <trkpt lat="43.74861" lon="7.00794">
        <ele>588.3</ele>
        <time>2022-09-21T09:30:45.000Z</time>
      </trkpt>
      <trkpt lat="43.74861" lon="7.00802">
        <ele>588.2</ele>
        <time>2022-09-21T09:30:47.000Z</time>
      </trkpt>
      <trkpt lat="43.74858" lon="7.00809">
        <ele>588.2</ele>
        <time>2022-09-21T09:30:49.000Z</time>
      </trkpt>
      <trkpt lat="43.74856" lon="7.00816">
        <ele>588.9</ele>
        <time>2022-09-21T09:30:51.000Z</time>
      </trkpt>
      <trkpt lat="43.74851" lon="7.0082">
        <ele>588.9</ele>
        <time>2022-09-21T09:30:53.000Z</time>
      </trkpt>
      <trkpt lat="43.74847" lon="7.00823">
        <ele>589.2</ele>
        <time>2022-09-21T09:30:55.000Z</time>
      </trkpt>
      <trkpt lat="43.74842" lon="7.00824">
        <ele>589.6</ele>
        <time>2022-09-21T09:30:57.000Z</time>
      </trkpt>
      <trkpt lat="43.74837" lon="7.00825">
        <ele>589.7</ele>
        <time>2022-09-21T09:30:59.000Z</time>
      </trkpt>
      <trkpt lat="43.74831" lon="7.00827">
        <ele>589.6</ele>
        <time>2022-09-21T09:31:01.000Z</time>
      </trkpt>
      <trkpt lat="43.74825" lon="7.00828">
        <ele>589.7</ele>
        <time>2022-09-21T09:31:03.000Z</time>
      </trkpt>
      <trkpt lat="43.7482" lon="7.00827">
        <ele>590.4</ele>
        <time>2022-09-21T09:31:05.000Z</time>
      </trkpt>
      <trkpt lat="43.74814" lon="7.00826">
        <ele>590.4</ele>
        <time>2022-09-21T09:31:07.000Z</time>
      </trkpt>
      <trkpt lat="43.74807" lon="7.00824">
        <ele>590.8</ele>
        <time>2022-09-21T09:31:09.000Z</time>
      </trkpt>
      <trkpt lat="43.74801" lon="7.00823">
        <ele>591</ele>
        <time>2022-09-21T09:31:11.000Z</time>
      </trkpt>
      <trkpt lat="43.74796" lon="7.00821">
        <ele>591.5</ele>
        <time>2022-09-21T09:31:13.000Z</time>
      </trkpt>
      <trkpt lat="43.74791" lon="7.00819">
        <ele>591.4</ele>
        <time>2022-09-21T09:31:15.000Z</time>
      </trkpt>
      <trkpt lat="43.74785" lon="7.00816">
        <ele>591.3</ele>
        <time>2022-09-21T09:31:17.000Z</time>
      </trkpt>
      <trkpt lat="43.7478" lon="7.00814">
        <ele>591.2</ele>
        <time>2022-09-21T09:31:18.000Z</time>
      </trkpt>
      <trkpt lat="43.74776" lon="7.00815">
        <ele>591.6</ele>
        <time>2022-09-21T09:31:20.000Z</time>
      </trkpt>
      <trkpt lat="43.7477" lon="7.00812">
        <ele>591.8</ele>
        <time>2022-09-21T09:31:22.000Z</time>
      </trkpt>
      <trkpt lat="43.74763" lon="7.00811">
        <ele>591.6</ele>
        <time>2022-09-21T09:31:24.000Z</time>
      </trkpt>
      <trkpt lat="43.74757" lon="7.00812">
        <ele>592</ele>
        <time>2022-09-21T09:31:26.000Z</time>
      </trkpt>
      <trkpt lat="43.74751" lon="7.00814">
        <ele>592.6</ele>
        <time>2022-09-21T09:31:28.000Z</time>
      </trkpt>
      <trkpt lat="43.74747" lon="7.00819">
        <ele>592.8</ele>
        <time>2022-09-21T09:31:30.000Z</time>
      </trkpt>
      <trkpt lat="43.74743" lon="7.00823">
        <ele>592.9</ele>
        <time>2022-09-21T09:31:32.000Z</time>
      </trkpt>
      <trkpt lat="43.74739" lon="7.00826">
        <ele>593.2</ele>
        <time>2022-09-21T09:31:34.000Z</time>
      </trkpt>
      <trkpt lat="43.74735" lon="7.0083">
        <ele>593.3</ele>
        <time>2022-09-21T09:31:36.000Z</time>
      </trkpt>
      <trkpt lat="43.74731" lon="7.00834">
        <ele>593.3</ele>
        <time>2022-09-21T09:31:38.000Z</time>
      </trkpt>
      <trkpt lat="43.74727" lon="7.00838">
        <ele>593.9</ele>
        <time>2022-09-21T09:31:40.000Z</time>
      </trkpt>
      <trkpt lat="43.74724" lon="7.00843">
        <ele>594.2</ele>
        <time>2022-09-21T09:31:42.000Z</time>
      </trkpt>
      <trkpt lat="43.7472" lon="7.00848">
        <ele>594.5</ele>
        <time>2022-09-21T09:31:44.000Z</time>
      </trkpt>
      <trkpt lat="43.74716" lon="7.00853">
        <ele>594.8</ele>
        <time>2022-09-21T09:31:46.000Z</time>
      </trkpt>
      <trkpt lat="43.74712" lon="7.00857">
        <ele>595.1</ele>
        <time>2022-09-21T09:31:48.000Z</time>
      </trkpt>
      <trkpt lat="43.74709" lon="7.00862">
        <ele>595.6</ele>
        <time>2022-09-21T09:31:50.000Z</time>
      </trkpt>
      <trkpt lat="43.74705" lon="7.00866">
        <ele>596.1</ele>
        <time>2022-09-21T09:31:52.000Z</time>
      </trkpt>
      <trkpt lat="43.74701" lon="7.00869">
        <ele>596.3</ele>
        <time>2022-09-21T09:31:54.000Z</time>
      </trkpt>
      <trkpt lat="43.74696" lon="7.00871">
        <ele>596.4</ele>
        <time>2022-09-21T09:31:56.000Z</time>
      </trkpt>
      <trkpt lat="43.74692" lon="7.00875">
        <ele>596.7</ele>
        <time>2022-09-21T09:31:58.000Z</time>
      </trkpt>
      <trkpt lat="43.74688" lon="7.0088">
        <ele>597.1</ele>
        <time>2022-09-21T09:32:00.000Z</time>
      </trkpt>
      <trkpt lat="43.74684" lon="7.00886">
        <ele>597.3</ele>
        <time>2022-09-21T09:32:02.000Z</time>
      </trkpt>
      <trkpt lat="43.7468" lon="7.0089">
        <ele>597.4</ele>
        <time>2022-09-21T09:32:04.000Z</time>
      </trkpt>
      <trkpt lat="43.74675" lon="7.00897">
        <ele>598</ele>
        <time>2022-09-21T09:32:07.000Z</time>
      </trkpt>
      <trkpt lat="43.74671" lon="7.00901">
        <ele>597.9</ele>
        <time>2022-09-21T09:32:09.000Z</time>
      </trkpt>
      <trkpt lat="43.74667" lon="7.00905">
        <ele>598.4</ele>
        <time>2022-09-21T09:32:11.000Z</time>
      </trkpt>
      <trkpt lat="43.74663" lon="7.00909">
        <ele>598.6</ele>
        <time>2022-09-21T09:32:13.000Z</time>
      </trkpt>
      <trkpt lat="43.74659" lon="7.00914">
        <ele>599.1</ele>
        <time>2022-09-21T09:32:15.000Z</time>
      </trkpt>
      <trkpt lat="43.74653" lon="7.00919">
        <ele>599.5</ele>
        <time>2022-09-21T09:32:17.000Z</time>
      </trkpt>
      <trkpt lat="43.74649" lon="7.00923">
        <ele>599.8</ele>
        <time>2022-09-21T09:32:19.000Z</time>
      </trkpt>
      <trkpt lat="43.74645" lon="7.00926">
        <ele>600.1</ele>
        <time>2022-09-21T09:32:21.000Z</time>
      </trkpt>
      <trkpt lat="43.74639" lon="7.0093">
        <ele>600.5</ele>
        <time>2022-09-21T09:32:24.000Z</time>
      </trkpt>
      <trkpt lat="43.74636" lon="7.00935">
        <ele>600.8</ele>
        <time>2022-09-21T09:32:26.000Z</time>
      </trkpt>
      <trkpt lat="43.74631" lon="7.00936">
        <ele>601.2</ele>
        <time>2022-09-21T09:32:28.000Z</time>
      </trkpt>
      <trkpt lat="43.74626" lon="7.00939">
        <ele>601.2</ele>
        <time>2022-09-21T09:32:30.000Z</time>
      </trkpt>
      <trkpt lat="43.74621" lon="7.00941">
        <ele>601.4</ele>
        <time>2022-09-21T09:32:32.000Z</time>
      </trkpt>
      <trkpt lat="43.74616" lon="7.00942">
        <ele>601.8</ele>
        <time>2022-09-21T09:32:34.000Z</time>
      </trkpt>
      <trkpt lat="43.7461" lon="7.00947">
        <ele>602.1</ele>
        <time>2022-09-21T09:32:37.000Z</time>
      </trkpt>
      <trkpt lat="43.74605" lon="7.0095">
        <ele>602.3</ele>
        <time>2022-09-21T09:32:39.000Z</time>
      </trkpt>
      <trkpt lat="43.74601" lon="7.00951">
        <ele>602.8</ele>
        <time>2022-09-21T09:32:41.000Z</time>
      </trkpt>
      <trkpt lat="43.74594" lon="7.00953">
        <ele>603</ele>
        <time>2022-09-21T09:32:44.000Z</time>
      </trkpt>
      <trkpt lat="43.74588" lon="7.00954">
        <ele>603.3</ele>
        <time>2022-09-21T09:32:47.000Z</time>
      </trkpt>
      <trkpt lat="43.74582" lon="7.00956">
        <ele>603.7</ele>
        <time>2022-09-21T09:32:50.000Z</time>
      </trkpt>
      <trkpt lat="43.74578" lon="7.00955">
        <ele>603.9</ele>
        <time>2022-09-21T09:32:52.000Z</time>
      </trkpt>
      <trkpt lat="43.74572" lon="7.00952">
        <ele>604.5</ele>
        <time>2022-09-21T09:32:55.000Z</time>
      </trkpt>
      <trkpt lat="43.74567" lon="7.00949">
        <ele>604.9</ele>
        <time>2022-09-21T09:32:57.000Z</time>
      </trkpt>
      <trkpt lat="43.7456" lon="7.00946">
        <ele>605.3</ele>
        <time>2022-09-21T09:33:00.000Z</time>
      </trkpt>
      <trkpt lat="43.74556" lon="7.00944">
        <ele>605.5</ele>
        <time>2022-09-21T09:33:02.000Z</time>
      </trkpt>
      <trkpt lat="43.74551" lon="7.00942">
        <ele>605.7</ele>
        <time>2022-09-21T09:33:04.000Z</time>
      </trkpt>
      <trkpt lat="43.74546" lon="7.00938">
        <ele>606.4</ele>
        <time>2022-09-21T09:33:07.000Z</time>
      </trkpt>
      <trkpt lat="43.74542" lon="7.00935">
        <ele>606.6</ele>
        <time>2022-09-21T09:33:10.000Z</time>
      </trkpt>
      <trkpt lat="43.74538" lon="7.00931">
        <ele>607.1</ele>
        <time>2022-09-21T09:33:13.000Z</time>
      </trkpt>
      <trkpt lat="43.74531" lon="7.00928">
        <ele>607.6</ele>
        <time>2022-09-21T09:33:16.000Z</time>
      </trkpt>
      <trkpt lat="43.74526" lon="7.00923">
        <ele>608</ele>
        <time>2022-09-21T09:33:19.000Z</time>
      </trkpt>
      <trkpt lat="43.7452" lon="7.00921">
        <ele>608.3</ele>
        <time>2022-09-21T09:33:22.000Z</time>
      </trkpt>
      <trkpt lat="43.74515" lon="7.00919">
        <ele>608.6</ele>
        <time>2022-09-21T09:33:24.000Z</time>
      </trkpt>
      <trkpt lat="43.74509" lon="7.00918">
        <ele>608.9</ele>
        <time>2022-09-21T09:33:26.000Z</time>
      </trkpt>
      <trkpt lat="43.74505" lon="7.00916">
        <ele>609.1</ele>
        <time>2022-09-21T09:33:28.000Z</time>
      </trkpt>
      <trkpt lat="43.745" lon="7.00915">
        <ele>609.3</ele>
        <time>2022-09-21T09:33:30.000Z</time>
      </trkpt>
      <trkpt lat="43.74494" lon="7.00915">
        <ele>609.9</ele>
        <time>2022-09-21T09:33:33.000Z</time>
      </trkpt>
      <trkpt lat="43.74489" lon="7.00915">
        <ele>610</ele>
        <time>2022-09-21T09:33:35.000Z</time>
      </trkpt>
      <trkpt lat="43.74483" lon="7.00915">
        <ele>610.1</ele>
        <time>2022-09-21T09:33:37.000Z</time>
      </trkpt>
      <trkpt lat="43.74477" lon="7.00914">
        <ele>610.7</ele>
        <time>2022-09-21T09:33:40.000Z</time>
      </trkpt>
      <trkpt lat="43.7447" lon="7.00914">
        <ele>611.1</ele>
        <time>2022-09-21T09:33:43.000Z</time>
      </trkpt>
      <trkpt lat="43.74466" lon="7.00913">
        <ele>611.3</ele>
        <time>2022-09-21T09:33:45.000Z</time>
      </trkpt>
      <trkpt lat="43.74461" lon="7.00914">
        <ele>611.4</ele>
        <time>2022-09-21T09:33:47.000Z</time>
      </trkpt>
      <trkpt lat="43.74454" lon="7.00912">
        <ele>612.1</ele>
        <time>2022-09-21T09:33:50.000Z</time>
      </trkpt>
      <trkpt lat="43.74448" lon="7.0091">
        <ele>612.1</ele>
        <time>2022-09-21T09:33:52.000Z</time>
      </trkpt>
      <trkpt lat="43.74442" lon="7.00909">
        <ele>612.5</ele>
        <time>2022-09-21T09:33:54.000Z</time>
      </trkpt>
      <trkpt lat="43.74436" lon="7.00908">
        <ele>613</ele>
        <time>2022-09-21T09:33:57.000Z</time>
      </trkpt>
      <trkpt lat="43.74431" lon="7.00907">
        <ele>613.2</ele>
        <time>2022-09-21T09:34:00.000Z</time>
      </trkpt>
      <trkpt lat="43.74426" lon="7.00906">
        <ele>613.5</ele>
        <time>2022-09-21T09:34:02.000Z</time>
      </trkpt>
      <trkpt lat="43.74421" lon="7.00905">
        <ele>614</ele>
        <time>2022-09-21T09:34:04.000Z</time>
      </trkpt>
      <trkpt lat="43.74416" lon="7.00903">
        <ele>614.4</ele>
        <time>2022-09-21T09:34:06.000Z</time>
      </trkpt>
      <trkpt lat="43.7441" lon="7.00901">
        <ele>614.6</ele>
        <time>2022-09-21T09:34:09.000Z</time>
      </trkpt>
      <trkpt lat="43.74405" lon="7.009">
        <ele>615.3</ele>
        <time>2022-09-21T09:34:12.000Z</time>
      </trkpt>
      <trkpt lat="43.74399" lon="7.00898">
        <ele>615.3</ele>
        <time>2022-09-21T09:34:16.000Z</time>
      </trkpt>
      <trkpt lat="43.74395" lon="7.00897">
        <ele>615.5</ele>
        <time>2022-09-21T09:34:19.000Z</time>
      </trkpt>
      <trkpt lat="43.74391" lon="7.00901">
        <ele>615.8</ele>
        <time>2022-09-21T09:34:22.000Z</time>
      </trkpt>
      <trkpt lat="43.74385" lon="7.00903">
        <ele>616.9</ele>
        <time>2022-09-21T09:34:26.000Z</time>
      </trkpt>
      <trkpt lat="43.74382" lon="7.00909">
        <ele>617.8</ele>
        <time>2022-09-21T09:34:30.000Z</time>
      </trkpt>
      <trkpt lat="43.74382" lon="7.00917">
        <ele>618.2</ele>
        <time>2022-09-21T09:34:34.000Z</time>
      </trkpt>
      <trkpt lat="43.74383" lon="7.00924">
        <ele>619</ele>
        <time>2022-09-21T09:34:38.000Z</time>
      </trkpt>
      <trkpt lat="43.74384" lon="7.00931">
        <ele>619.7</ele>
        <time>2022-09-21T09:34:49.000Z</time>
      </trkpt>
      <trkpt lat="43.74385" lon="7.00937">
        <ele>620.1</ele>
        <time>2022-09-21T09:34:54.000Z</time>
      </trkpt>
      <trkpt lat="43.74383" lon="7.00944">
        <ele>620.5</ele>
        <time>2022-09-21T09:35:03.000Z</time>
      </trkpt>
      <trkpt lat="43.7438" lon="7.00948">
        <ele>621.2</ele>
        <time>2022-09-21T09:35:08.000Z</time>
      </trkpt>
      <trkpt lat="43.74375" lon="7.00951">
        <ele>622</ele>
        <time>2022-09-21T09:35:12.000Z</time>
      </trkpt>
      <trkpt lat="43.74371" lon="7.00954">
        <ele>622.8</ele>
        <time>2022-09-21T09:35:16.000Z</time>
      </trkpt>
      <trkpt lat="43.74366" lon="7.00959">
        <ele>623.7</ele>
        <time>2022-09-21T09:35:20.000Z</time>
      </trkpt>
      <trkpt lat="43.74365" lon="7.00965">
        <ele>624.3</ele>
        <time>2022-09-21T09:35:23.000Z</time>
      </trkpt>
      <trkpt lat="43.74363" lon="7.00972">
        <ele>624.9</ele>
        <time>2022-09-21T09:35:26.000Z</time>
      </trkpt>
      <trkpt lat="43.74361" lon="7.0098">
        <ele>626.3</ele>
        <time>2022-09-21T09:35:31.000Z</time>
      </trkpt>
      <trkpt lat="43.74359" lon="7.00986">
        <ele>627.1</ele>
        <time>2022-09-21T09:35:35.000Z</time>
      </trkpt>
      <trkpt lat="43.74356" lon="7.00992">
        <ele>627.9</ele>
        <time>2022-09-21T09:35:39.000Z</time>
      </trkpt>
      <trkpt lat="43.74353" lon="7.00997">
        <ele>628.6</ele>
        <time>2022-09-21T09:35:43.000Z</time>
      </trkpt>
      <trkpt lat="43.74349" lon="7.01002">
        <ele>629.8</ele>
        <time>2022-09-21T09:35:47.000Z</time>
      </trkpt>
      <trkpt lat="43.74345" lon="7.01005">
        <ele>631.2</ele>
        <time>2022-09-21T09:35:55.000Z</time>
      </trkpt>
      <trkpt lat="43.74341" lon="7.01009">
        <ele>632.4</ele>
        <time>2022-09-21T09:36:00.000Z</time>
      </trkpt>
      <trkpt lat="43.74338" lon="7.01013">
        <ele>633</ele>
        <time>2022-09-21T09:36:03.000Z</time>
      </trkpt>
      <trkpt lat="43.74332" lon="7.01016">
        <ele>633.7</ele>
        <time>2022-09-21T09:36:07.000Z</time>
      </trkpt>
      <trkpt lat="43.74328" lon="7.01021">
        <ele>635</ele>
        <time>2022-09-21T09:36:12.000Z</time>
      </trkpt>
      <trkpt lat="43.74327" lon="7.01027">
        <ele>636.3</ele>
        <time>2022-09-21T09:36:18.000Z</time>
      </trkpt>
      <trkpt lat="43.74324" lon="7.01033">
        <ele>638.2</ele>
        <time>2022-09-21T09:36:31.000Z</time>
      </trkpt>
      <trkpt lat="43.7432" lon="7.01036">
        <ele>639.9</ele>
        <time>2022-09-21T09:36:38.000Z</time>
      </trkpt>
      <trkpt lat="43.74316" lon="7.01039">
        <ele>640.9</ele>
        <time>2022-09-21T09:36:43.000Z</time>
      </trkpt>
      <trkpt lat="43.7431" lon="7.01042">
        <ele>641.9</ele>
        <time>2022-09-21T09:36:48.000Z</time>
      </trkpt>
      <trkpt lat="43.74307" lon="7.01046">
        <ele>642.7</ele>
        <time>2022-09-21T09:36:52.000Z</time>
      </trkpt>
      <trkpt lat="43.74304" lon="7.01051">
        <ele>643.8</ele>
        <time>2022-09-21T09:36:58.000Z</time>
      </trkpt>
      <trkpt lat="43.74299" lon="7.01048">
        <ele>643.8</ele>
        <time>2022-09-21T09:37:06.000Z</time>
      </trkpt>
      <trkpt lat="43.74299" lon="7.01048">
        <ele>644.1</ele>
        <time>2022-09-21T09:37:11.000Z</time>
      </trkpt>
      <trkpt lat="43.74298" lon="7.01048">
        <ele>644.1</ele>
        <time>2022-09-21T09:37:12.000Z</time>
      </trkpt>
      <trkpt lat="43.74297" lon="7.01054">
        <ele>643.9</ele>
        <time>2022-09-21T09:37:19.000Z</time>
      </trkpt>
      <trkpt lat="43.74293" lon="7.01057">
        <ele>644.5</ele>
        <time>2022-09-21T09:37:24.000Z</time>
      </trkpt>
      <trkpt lat="43.74289" lon="7.0106">
        <ele>645.3</ele>
        <time>2022-09-21T09:37:27.000Z</time>
      </trkpt>
      <trkpt lat="43.74287" lon="7.01067">
        <ele>645.9</ele>
        <time>2022-09-21T09:37:31.000Z</time>
      </trkpt>
      <trkpt lat="43.74285" lon="7.01073">
        <ele>646.8</ele>
        <time>2022-09-21T09:37:35.000Z</time>
      </trkpt>
      <trkpt lat="43.74282" lon="7.01079">
        <ele>647.5</ele>
        <time>2022-09-21T09:37:39.000Z</time>
      </trkpt>
      <trkpt lat="43.74279" lon="7.01086">
        <ele>648.4</ele>
        <time>2022-09-21T09:37:44.000Z</time>
      </trkpt>
      <trkpt lat="43.74277" lon="7.01092">
        <ele>649.2</ele>
        <time>2022-09-21T09:37:48.000Z</time>
      </trkpt>
      <trkpt lat="43.74276" lon="7.011">
        <ele>650.4</ele>
        <time>2022-09-21T09:37:52.000Z</time>
      </trkpt>
      <trkpt lat="43.74275" lon="7.01106">
        <ele>651.1</ele>
        <time>2022-09-21T09:37:56.000Z</time>
      </trkpt>
      <trkpt lat="43.7427" lon="7.01111">
        <ele>651.8</ele>
        <time>2022-09-21T09:38:00.000Z</time>
      </trkpt>
      <trkpt lat="43.74266" lon="7.01115">
        <ele>652.6</ele>
        <time>2022-09-21T09:38:05.000Z</time>
      </trkpt>
      <trkpt lat="43.74262" lon="7.01118">
        <ele>653.3</ele>
        <time>2022-09-21T09:38:08.000Z</time>
      </trkpt>
      <trkpt lat="43.74258" lon="7.01124">
        <ele>654.2</ele>
        <time>2022-09-21T09:38:12.000Z</time>
      </trkpt>
      <trkpt lat="43.74254" lon="7.01128">
        <ele>654.8</ele>
        <time>2022-09-21T09:38:15.000Z</time>
      </trkpt>
      <trkpt lat="43.7425" lon="7.01131">
        <ele>655.2</ele>
        <time>2022-09-21T09:38:18.000Z</time>
      </trkpt>
      <trkpt lat="43.74244" lon="7.01132">
        <ele>655.6</ele>
        <time>2022-09-21T09:38:23.000Z</time>
      </trkpt>
      <trkpt lat="43.74239" lon="7.01135">
        <ele>656.6</ele>
        <time>2022-09-21T09:38:27.000Z</time>
      </trkpt>
      <trkpt lat="43.74235" lon="7.01137">
        <ele>657.3</ele>
        <time>2022-09-21T09:38:30.000Z</time>
      </trkpt>
      <trkpt lat="43.7423" lon="7.01139">
        <ele>657.9</ele>
        <time>2022-09-21T09:38:33.000Z</time>
      </trkpt>
      <trkpt lat="43.74225" lon="7.01141">
        <ele>658.4</ele>
        <time>2022-09-21T09:38:36.000Z</time>
      </trkpt>
      <trkpt lat="43.7422" lon="7.01143">
        <ele>659.2</ele>
        <time>2022-09-21T09:38:40.000Z</time>
      </trkpt>
      <trkpt lat="43.74215" lon="7.01145">
        <ele>660.1</ele>
        <time>2022-09-21T09:38:44.000Z</time>
      </trkpt>
      <trkpt lat="43.74211" lon="7.01148">
        <ele>660.7</ele>
        <time>2022-09-21T09:38:48.000Z</time>
      </trkpt>
      <trkpt lat="43.74206" lon="7.0115">
        <ele>661.4</ele>
        <time>2022-09-21T09:38:52.000Z</time>
      </trkpt>
      <trkpt lat="43.74202" lon="7.01153">
        <ele>662.6</ele>
        <time>2022-09-21T09:38:57.000Z</time>
      </trkpt>
      <trkpt lat="43.74197" lon="7.01156">
        <ele>663.9</ele>
        <time>2022-09-21T09:39:02.000Z</time>
      </trkpt>
      <trkpt lat="43.74192" lon="7.01158">
        <ele>665.1</ele>
        <time>2022-09-21T09:39:07.000Z</time>
      </trkpt>
      <trkpt lat="43.74188" lon="7.01161">
        <ele>665.8</ele>
        <time>2022-09-21T09:39:11.000Z</time>
      </trkpt>
      <trkpt lat="43.74183" lon="7.01163">
        <ele>666.4</ele>
        <time>2022-09-21T09:39:15.000Z</time>
      </trkpt>
      <trkpt lat="43.74179" lon="7.01167">
        <ele>667.2</ele>
        <time>2022-09-21T09:39:19.000Z</time>
      </trkpt>
      <trkpt lat="43.74174" lon="7.01169">
        <ele>667.6</ele>
        <time>2022-09-21T09:39:23.000Z</time>
      </trkpt>
      <trkpt lat="43.7417" lon="7.01173">
        <ele>668.7</ele>
        <time>2022-09-21T09:39:27.000Z</time>
      </trkpt>
      <trkpt lat="43.74166" lon="7.01177">
        <ele>669.9</ele>
        <time>2022-09-21T09:39:31.000Z</time>
      </trkpt>
      <trkpt lat="43.74163" lon="7.01182">
        <ele>670.9</ele>
        <time>2022-09-21T09:39:35.000Z</time>
      </trkpt>
      <trkpt lat="43.74159" lon="7.01186">
        <ele>671.9</ele>
        <time>2022-09-21T09:39:45.000Z</time>
      </trkpt>
      <trkpt lat="43.74154" lon="7.01188">
        <ele>673.4</ele>
        <time>2022-09-21T09:39:50.000Z</time>
      </trkpt>
      <trkpt lat="43.7415" lon="7.01192">
        <ele>673.8</ele>
        <time>2022-09-21T09:39:55.000Z</time>
      </trkpt>
      <trkpt lat="43.74146" lon="7.01194">
        <ele>674.6</ele>
        <time>2022-09-21T09:39:59.000Z</time>
      </trkpt>
      <trkpt lat="43.74142" lon="7.01198">
        <ele>675.7</ele>
        <time>2022-09-21T09:40:04.000Z</time>
      </trkpt>
      <trkpt lat="43.74137" lon="7.01199">
        <ele>676.4</ele>
        <time>2022-09-21T09:40:10.000Z</time>
      </trkpt>
      <trkpt lat="43.74132" lon="7.01199">
        <ele>677</ele>
        <time>2022-09-21T09:40:24.000Z</time>
      </trkpt>
      <trkpt lat="43.74128" lon="7.01195">
        <ele>677.6</ele>
        <time>2022-09-21T09:40:28.000Z</time>
      </trkpt>
      <trkpt lat="43.74126" lon="7.01189">
        <ele>677.7</ele>
        <time>2022-09-21T09:40:32.000Z</time>
      </trkpt>
      <trkpt lat="43.74124" lon="7.01182">
        <ele>678.4</ele>
        <time>2022-09-21T09:40:36.000Z</time>
      </trkpt>
      <trkpt lat="43.74122" lon="7.01175">
        <ele>679.2</ele>
        <time>2022-09-21T09:40:40.000Z</time>
      </trkpt>
      <trkpt lat="43.74118" lon="7.01172">
        <ele>680.6</ele>
        <time>2022-09-21T09:40:45.000Z</time>
      </trkpt>
      <trkpt lat="43.74115" lon="7.01177">
        <ele>680.5</ele>
        <time>2022-09-21T09:40:48.000Z</time>
      </trkpt>
      <trkpt lat="43.74114" lon="7.01184">
        <ele>681.2</ele>
        <time>2022-09-21T09:40:51.000Z</time>
      </trkpt>
      <trkpt lat="43.74115" lon="7.01191">
        <ele>681.8</ele>
        <time>2022-09-21T09:40:55.000Z</time>
      </trkpt>
      <trkpt lat="43.74114" lon="7.01198">
        <ele>681.9</ele>
        <time>2022-09-21T09:40:58.000Z</time>
      </trkpt>
      <trkpt lat="43.74114" lon="7.01204">
        <ele>682.7</ele>
        <time>2022-09-21T09:41:02.000Z</time>
      </trkpt>
      <trkpt lat="43.74114" lon="7.01213">
        <ele>683.4</ele>
        <time>2022-09-21T09:41:07.000Z</time>
      </trkpt>
      <trkpt lat="43.74115" lon="7.0122">
        <ele>684.2</ele>
        <time>2022-09-21T09:41:11.000Z</time>
      </trkpt>
      <trkpt lat="43.74117" lon="7.01227">
        <ele>684.8</ele>
        <time>2022-09-21T09:41:15.000Z</time>
      </trkpt>
      <trkpt lat="43.74121" lon="7.01232">
        <ele>684.9</ele>
        <time>2022-09-21T09:41:18.000Z</time>
      </trkpt>
      <trkpt lat="43.74124" lon="7.01236">
        <ele>685.4</ele>
        <time>2022-09-21T09:41:21.000Z</time>
      </trkpt>
      <trkpt lat="43.74128" lon="7.0124">
        <ele>685.7</ele>
        <time>2022-09-21T09:41:24.000Z</time>
      </trkpt>
      <trkpt lat="43.74134" lon="7.01244">
        <ele>686.7</ele>
        <time>2022-09-21T09:41:28.000Z</time>
      </trkpt>
      <trkpt lat="43.74139" lon="7.01247">
        <ele>687.2</ele>
        <time>2022-09-21T09:41:31.000Z</time>
      </trkpt>
      <trkpt lat="43.74144" lon="7.01249">
        <ele>687.7</ele>
        <time>2022-09-21T09:41:35.000Z</time>
      </trkpt>
      <trkpt lat="43.74149" lon="7.01254">
        <ele>688.1</ele>
        <time>2022-09-21T09:41:39.000Z</time>
      </trkpt>
      <trkpt lat="43.74153" lon="7.01259">
        <ele>688.7</ele>
        <time>2022-09-21T09:41:42.000Z</time>
      </trkpt>
      <trkpt lat="43.74157" lon="7.01265">
        <ele>688.7</ele>
        <time>2022-09-21T09:41:45.000Z</time>
      </trkpt>
      <trkpt lat="43.74161" lon="7.01268">
        <ele>689.1</ele>
        <time>2022-09-21T09:41:48.000Z</time>
      </trkpt>
      <trkpt lat="43.74165" lon="7.01273">
        <ele>689.8</ele>
        <time>2022-09-21T09:41:52.000Z</time>
      </trkpt>
      <trkpt lat="43.74169" lon="7.01278">
        <ele>690.8</ele>
        <time>2022-09-21T09:41:57.000Z</time>
      </trkpt>
      <trkpt lat="43.74171" lon="7.01284">
        <ele>692.2</ele>
        <time>2022-09-21T09:42:01.000Z</time>
      </trkpt>
      <trkpt lat="43.74173" lon="7.0129">
        <ele>693</ele>
        <time>2022-09-21T09:42:05.000Z</time>
      </trkpt>
      <trkpt lat="43.7417" lon="7.01295">
        <ele>694.2</ele>
        <time>2022-09-21T09:42:10.000Z</time>
      </trkpt>
      <trkpt lat="43.74164" lon="7.01297">
        <ele>695.6</ele>
        <time>2022-09-21T09:42:15.000Z</time>
      </trkpt>
      <trkpt lat="43.74159" lon="7.01299">
        <ele>696</ele>
        <time>2022-09-21T09:42:18.000Z</time>
      </trkpt>
      <trkpt lat="43.74153" lon="7.01299">
        <ele>696</ele>
        <time>2022-09-21T09:42:21.000Z</time>
      </trkpt>
      <trkpt lat="43.74148" lon="7.013">
        <ele>695.9</ele>
        <time>2022-09-21T09:42:24.000Z</time>
      </trkpt>
      <trkpt lat="43.74143" lon="7.01302">
        <ele>696.4</ele>
        <time>2022-09-21T09:42:28.000Z</time>
      </trkpt>
      <trkpt lat="43.74138" lon="7.01305">
        <ele>697.1</ele>
        <time>2022-09-21T09:42:32.000Z</time>
      </trkpt>
      <trkpt lat="43.74133" lon="7.01306">
        <ele>698.2</ele>
        <time>2022-09-21T09:42:36.000Z</time>
      </trkpt>
      <trkpt lat="43.74128" lon="7.01307">
        <ele>699.2</ele>
        <time>2022-09-21T09:42:41.000Z</time>
      </trkpt>
      <trkpt lat="43.74123" lon="7.01306">
        <ele>700.7</ele>
        <time>2022-09-21T09:42:46.000Z</time>
      </trkpt>
      <trkpt lat="43.74117" lon="7.01303">
        <ele>701.2</ele>
        <time>2022-09-21T09:42:50.000Z</time>
      </trkpt>
      <trkpt lat="43.74113" lon="7.01298">
        <ele>701.7</ele>
        <time>2022-09-21T09:42:53.000Z</time>
      </trkpt>
      <trkpt lat="43.74108" lon="7.01293">
        <ele>701.5</ele>
        <time>2022-09-21T09:42:56.000Z</time>
      </trkpt>
      <trkpt lat="43.74104" lon="7.0129">
        <ele>701.4</ele>
        <time>2022-09-21T09:42:58.000Z</time>
      </trkpt>
      <trkpt lat="43.74099" lon="7.01286">
        <ele>701.1</ele>
        <time>2022-09-21T09:43:00.000Z</time>
      </trkpt>
      <trkpt lat="43.74095" lon="7.01283">
        <ele>700.7</ele>
        <time>2022-09-21T09:43:02.000Z</time>
      </trkpt>
      <trkpt lat="43.74089" lon="7.01278">
        <ele>700.8</ele>
        <time>2022-09-21T09:43:05.000Z</time>
      </trkpt>
      <trkpt lat="43.74083" lon="7.01276">
        <ele>700.4</ele>
        <time>2022-09-21T09:43:07.000Z</time>
      </trkpt>
      <trkpt lat="43.74079" lon="7.01273">
        <ele>700.6</ele>
        <time>2022-09-21T09:43:09.000Z</time>
      </trkpt>
      <trkpt lat="43.74074" lon="7.0127">
        <ele>700.7</ele>
        <time>2022-09-21T09:43:11.000Z</time>
      </trkpt>
      <trkpt lat="43.7407" lon="7.01268">
        <ele>700.9</ele>
        <time>2022-09-21T09:43:13.000Z</time>
      </trkpt>
      <trkpt lat="43.74064" lon="7.01264">
        <ele>700.4</ele>
        <time>2022-09-21T09:43:16.000Z</time>
      </trkpt>
      <trkpt lat="43.74058" lon="7.0126">
        <ele>701.3</ele>
        <time>2022-09-21T09:43:18.000Z</time>
      </trkpt>
      <trkpt lat="43.74054" lon="7.01259">
        <ele>701.6</ele>
        <time>2022-09-21T09:43:20.000Z</time>
      </trkpt>
      <trkpt lat="43.74049" lon="7.01257">
        <ele>702</ele>
        <time>2022-09-21T09:43:22.000Z</time>
      </trkpt>
      <trkpt lat="43.74044" lon="7.01255">
        <ele>702.4</ele>
        <time>2022-09-21T09:43:24.000Z</time>
      </trkpt>
      <trkpt lat="43.74038" lon="7.01256">
        <ele>702.6</ele>
        <time>2022-09-21T09:43:27.000Z</time>
      </trkpt>
      <trkpt lat="43.74033" lon="7.01258">
        <ele>702.8</ele>
        <time>2022-09-21T09:43:29.000Z</time>
      </trkpt>
      <trkpt lat="43.74027" lon="7.01261">
        <ele>703.5</ele>
        <time>2022-09-21T09:43:31.000Z</time>
      </trkpt>
      <trkpt lat="43.74023" lon="7.01262">
        <ele>703.9</ele>
        <time>2022-09-21T09:43:33.000Z</time>
      </trkpt>
      <trkpt lat="43.74017" lon="7.01265">
        <ele>704.4</ele>
        <time>2022-09-21T09:43:36.000Z</time>
      </trkpt>
      <trkpt lat="43.74012" lon="7.01267">
        <ele>704.9</ele>
        <time>2022-09-21T09:43:39.000Z</time>
      </trkpt>
      <trkpt lat="43.74006" lon="7.0127">
        <ele>705.3</ele>
        <time>2022-09-21T09:43:42.000Z</time>
      </trkpt>
      <trkpt lat="43.74" lon="7.01275">
        <ele>705.7</ele>
        <time>2022-09-21T09:43:45.000Z</time>
      </trkpt>
      <trkpt lat="43.73995" lon="7.01279">
        <ele>705.9</ele>
        <time>2022-09-21T09:43:48.000Z</time>
      </trkpt>
      <trkpt lat="43.73989" lon="7.01282">
        <ele>706.5</ele>
        <time>2022-09-21T09:43:51.000Z</time>
      </trkpt>
      <trkpt lat="43.73983" lon="7.01285">
        <ele>706.4</ele>
        <time>2022-09-21T09:43:54.000Z</time>
      </trkpt>
      <trkpt lat="43.73977" lon="7.01286">
        <ele>706.9</ele>
        <time>2022-09-21T09:43:57.000Z</time>
      </trkpt>
      <trkpt lat="43.73972" lon="7.01286">
        <ele>707.6</ele>
        <time>2022-09-21T09:44:00.000Z</time>
      </trkpt>
      <trkpt lat="43.73966" lon="7.01286">
        <ele>708.1</ele>
        <time>2022-09-21T09:44:03.000Z</time>
      </trkpt>
      <trkpt lat="43.73961" lon="7.01286">
        <ele>709.2</ele>
        <time>2022-09-21T09:44:06.000Z</time>
      </trkpt>
      <trkpt lat="43.73957" lon="7.01286">
        <ele>710.1</ele>
        <time>2022-09-21T09:44:10.000Z</time>
      </trkpt>
      <trkpt lat="43.73952" lon="7.01289">
        <ele>711</ele>
        <time>2022-09-21T09:44:15.000Z</time>
      </trkpt>
      <trkpt lat="43.73949" lon="7.01294">
        <ele>711.7</ele>
        <time>2022-09-21T09:44:18.000Z</time>
      </trkpt>
      <trkpt lat="43.73945" lon="7.01298">
        <ele>712.6</ele>
        <time>2022-09-21T09:44:22.000Z</time>
      </trkpt>
      <trkpt lat="43.7394" lon="7.01301">
        <ele>713.6</ele>
        <time>2022-09-21T09:44:27.000Z</time>
      </trkpt>
      <trkpt lat="43.73934" lon="7.01302">
        <ele>714.6</ele>
        <time>2022-09-21T09:44:32.000Z</time>
      </trkpt>
      <trkpt lat="43.73929" lon="7.01303">
        <ele>715.3</ele>
        <time>2022-09-21T09:44:35.000Z</time>
      </trkpt>
      <trkpt lat="43.73924" lon="7.01304">
        <ele>715.8</ele>
        <time>2022-09-21T09:44:39.000Z</time>
      </trkpt>
      <trkpt lat="43.73919" lon="7.01304">
        <ele>716.3</ele>
        <time>2022-09-21T09:44:42.000Z</time>
      </trkpt>
      <trkpt lat="43.73913" lon="7.01303">
        <ele>716.7</ele>
        <time>2022-09-21T09:44:46.000Z</time>
      </trkpt>
      <trkpt lat="43.73908" lon="7.01302">
        <ele>717.4</ele>
        <time>2022-09-21T09:44:50.000Z</time>
      </trkpt>
      <trkpt lat="43.73903" lon="7.01301">
        <ele>717.8</ele>
        <time>2022-09-21T09:44:53.000Z</time>
      </trkpt>
      <trkpt lat="43.73898" lon="7.01301">
        <ele>718.2</ele>
        <time>2022-09-21T09:44:57.000Z</time>
      </trkpt>
      <trkpt lat="43.73894" lon="7.01303">
        <ele>718.4</ele>
        <time>2022-09-21T09:45:01.000Z</time>
      </trkpt>
      <trkpt lat="43.73889" lon="7.01305">
        <ele>718.8</ele>
        <time>2022-09-21T09:45:05.000Z</time>
      </trkpt>
      <trkpt lat="43.73884" lon="7.01307">
        <ele>720.1</ele>
        <time>2022-09-21T09:45:09.000Z</time>
      </trkpt>
      <trkpt lat="43.73879" lon="7.01306">
        <ele>721</ele>
        <time>2022-09-21T09:45:15.000Z</time>
      </trkpt>
      <trkpt lat="43.73879" lon="7.01306">
        <ele>720.4</ele>
        <time>2022-09-21T09:45:17.000Z</time>
      </trkpt>
      <trkpt lat="43.73879" lon="7.01306">
        <ele>720.7</ele>
        <time>2022-09-21T09:45:18.000Z</time>
      </trkpt>
      <trkpt lat="43.73879" lon="7.01304">
        <ele>720.7</ele>
        <time>2022-09-21T09:45:23.000Z</time>
      </trkpt>
      <trkpt lat="43.73878" lon="7.01304">
        <ele>720.8</ele>
        <time>2022-09-21T09:45:29.000Z</time>
      </trkpt>
      <trkpt lat="43.73874" lon="7.01309">
        <ele>721.4</ele>
        <time>2022-09-21T09:45:53.000Z</time>
      </trkpt>
      <trkpt lat="43.73869" lon="7.01311">
        <ele>722.4</ele>
        <time>2022-09-21T09:45:59.000Z</time>
      </trkpt>
      <trkpt lat="43.73866" lon="7.01315">
        <ele>724</ele>
        <time>2022-09-21T09:46:06.000Z</time>
      </trkpt>
      <trkpt lat="43.73861" lon="7.01315">
        <ele>725.1</ele>
        <time>2022-09-21T09:46:11.000Z</time>
      </trkpt>
      <trkpt lat="43.73856" lon="7.01316">
        <ele>725.9</ele>
        <time>2022-09-21T09:46:15.000Z</time>
      </trkpt>
      <trkpt lat="43.73852" lon="7.01322">
        <ele>727.2</ele>
        <time>2022-09-21T09:46:20.000Z</time>
      </trkpt>
      <trkpt lat="43.73848" lon="7.01326">
        <ele>727.9</ele>
        <time>2022-09-21T09:46:23.000Z</time>
      </trkpt>
      <trkpt lat="43.73842" lon="7.01327">
        <ele>728.6</ele>
        <time>2022-09-21T09:46:27.000Z</time>
      </trkpt>
      <trkpt lat="43.73838" lon="7.01329">
        <ele>729.2</ele>
        <time>2022-09-21T09:46:33.000Z</time>
      </trkpt>
      <trkpt lat="43.73836" lon="7.01335">
        <ele>729</ele>
        <time>2022-09-21T09:46:38.000Z</time>
      </trkpt>
      <trkpt lat="43.73833" lon="7.0134">
        <ele>729.8</ele>
        <time>2022-09-21T09:46:42.000Z</time>
      </trkpt>
      <trkpt lat="43.73827" lon="7.01345">
        <ele>730.4</ele>
        <time>2022-09-21T09:46:46.000Z</time>
      </trkpt>
      <trkpt lat="43.73825" lon="7.0135">
        <ele>730.6</ele>
        <time>2022-09-21T09:46:48.000Z</time>
      </trkpt>
      <trkpt lat="43.73822" lon="7.01358">
        <ele>731.2</ele>
        <time>2022-09-21T09:46:51.000Z</time>
      </trkpt>
      <trkpt lat="43.7382" lon="7.01364">
        <ele>731.6</ele>
        <time>2022-09-21T09:46:54.000Z</time>
      </trkpt>
      <trkpt lat="43.73818" lon="7.0137">
        <ele>732</ele>
        <time>2022-09-21T09:46:57.000Z</time>
      </trkpt>
      <trkpt lat="43.73818" lon="7.01377">
        <ele>732.8</ele>
        <time>2022-09-21T09:47:00.000Z</time>
      </trkpt>
      <trkpt lat="43.73818" lon="7.01385">
        <ele>733.4</ele>
        <time>2022-09-21T09:47:04.000Z</time>
      </trkpt>
      <trkpt lat="43.73817" lon="7.01391">
        <ele>734.4</ele>
        <time>2022-09-21T09:47:07.000Z</time>
      </trkpt>
      <trkpt lat="43.73818" lon="7.01398">
        <ele>735.5</ele>
        <time>2022-09-21T09:47:10.000Z</time>
      </trkpt>
      <trkpt lat="43.73817" lon="7.01405">
        <ele>736</ele>
        <time>2022-09-21T09:47:14.000Z</time>
      </trkpt>
      <trkpt lat="43.73816" lon="7.01411">
        <ele>736.6</ele>
        <time>2022-09-21T09:47:17.000Z</time>
      </trkpt>
      <trkpt lat="43.73815" lon="7.01418">
        <ele>737.7</ele>
        <time>2022-09-21T09:47:20.000Z</time>
      </trkpt>
      <trkpt lat="43.73812" lon="7.01423">
        <ele>738.5</ele>
        <time>2022-09-21T09:47:25.000Z</time>
      </trkpt>
      <trkpt lat="43.73809" lon="7.01428">
        <ele>739.6</ele>
        <time>2022-09-21T09:47:30.000Z</time>
      </trkpt>
      <trkpt lat="43.73806" lon="7.01434">
        <ele>740.2</ele>
        <time>2022-09-21T09:47:34.000Z</time>
      </trkpt>
      <trkpt lat="43.73803" lon="7.01439">
        <ele>741.1</ele>
        <time>2022-09-21T09:47:38.000Z</time>
      </trkpt>
      <trkpt lat="43.73802" lon="7.01445">
        <ele>741.9</ele>
        <time>2022-09-21T09:47:41.000Z</time>
      </trkpt>
      <trkpt lat="43.73802" lon="7.01452">
        <ele>742.7</ele>
        <time>2022-09-21T09:47:46.000Z</time>
      </trkpt>
      <trkpt lat="43.73802" lon="7.01459">
        <ele>743.6</ele>
        <time>2022-09-21T09:47:51.000Z</time>
      </trkpt>
      <trkpt lat="43.73803" lon="7.01466">
        <ele>744.9</ele>
        <time>2022-09-21T09:47:57.000Z</time>
      </trkpt>
      <trkpt lat="43.73803" lon="7.01474">
        <ele>745.8</ele>
        <time>2022-09-21T09:48:01.000Z</time>
      </trkpt>
      <trkpt lat="43.73801" lon="7.01481">
        <ele>746.3</ele>
        <time>2022-09-21T09:48:04.000Z</time>
      </trkpt>
      <trkpt lat="43.73795" lon="7.01481">
        <ele>746.8</ele>
        <time>2022-09-21T09:48:09.000Z</time>
      </trkpt>
      <trkpt lat="43.7379" lon="7.01478">
        <ele>747.2</ele>
        <time>2022-09-21T09:48:13.000Z</time>
      </trkpt>
      <trkpt lat="43.73786" lon="7.01471">
        <ele>747.9</ele>
        <time>2022-09-21T09:48:16.000Z</time>
      </trkpt>
      <trkpt lat="43.7378" lon="7.01467">
        <ele>747.7</ele>
        <time>2022-09-21T09:48:19.000Z</time>
      </trkpt>
      <trkpt lat="43.73776" lon="7.01463">
        <ele>747.9</ele>
        <time>2022-09-21T09:48:21.000Z</time>
      </trkpt>
      <trkpt lat="43.7377" lon="7.0146">
        <ele>748.1</ele>
        <time>2022-09-21T09:48:23.000Z</time>
      </trkpt>
      <trkpt lat="43.73764" lon="7.01457">
        <ele>748.1</ele>
        <time>2022-09-21T09:48:26.000Z</time>
      </trkpt>
      <trkpt lat="43.73759" lon="7.01454">
        <ele>748.7</ele>
        <time>2022-09-21T09:48:28.000Z</time>
      </trkpt>
      <trkpt lat="43.73754" lon="7.01452">
        <ele>749</ele>
        <time>2022-09-21T09:48:30.000Z</time>
      </trkpt>
      <trkpt lat="43.7375" lon="7.01451">
        <ele>749.4</ele>
        <time>2022-09-21T09:48:32.000Z</time>
      </trkpt>
      <trkpt lat="43.73744" lon="7.01447">
        <ele>749.8</ele>
        <time>2022-09-21T09:48:35.000Z</time>
      </trkpt>
      <trkpt lat="43.73738" lon="7.01445">
        <ele>750.2</ele>
        <time>2022-09-21T09:48:38.000Z</time>
      </trkpt>
      <trkpt lat="43.73733" lon="7.01442">
        <ele>750.8</ele>
        <time>2022-09-21T09:48:42.000Z</time>
      </trkpt>
      <trkpt lat="43.73728" lon="7.01438">
        <ele>750.8</ele>
        <time>2022-09-21T09:48:45.000Z</time>
      </trkpt>
      <trkpt lat="43.73721" lon="7.01436">
        <ele>751.3</ele>
        <time>2022-09-21T09:48:48.000Z</time>
      </trkpt>
      <trkpt lat="43.73716" lon="7.01434">
        <ele>751.9</ele>
        <time>2022-09-21T09:48:51.000Z</time>
      </trkpt>
      <trkpt lat="43.7371" lon="7.01435">
        <ele>752.7</ele>
        <time>2022-09-21T09:48:55.000Z</time>
      </trkpt>
      <trkpt lat="43.73706" lon="7.01439">
        <ele>753.4</ele>
        <time>2022-09-21T09:48:59.000Z</time>
      </trkpt>
      <trkpt lat="43.73702" lon="7.01444">
        <ele>754.3</ele>
        <time>2022-09-21T09:49:04.000Z</time>
      </trkpt>
      <trkpt lat="43.73699" lon="7.01448">
        <ele>755.1</ele>
        <time>2022-09-21T09:49:07.000Z</time>
      </trkpt>
      <trkpt lat="43.73694" lon="7.0145">
        <ele>756.9</ele>
        <time>2022-09-21T09:49:13.000Z</time>
      </trkpt>
      <trkpt lat="43.73692" lon="7.01457">
        <ele>758.1</ele>
        <time>2022-09-21T09:49:18.000Z</time>
      </trkpt>
      <trkpt lat="43.73688" lon="7.01462">
        <ele>759.9</ele>
        <time>2022-09-21T09:49:23.000Z</time>
      </trkpt>
      <trkpt lat="43.73685" lon="7.01469">
        <ele>760.9</ele>
        <time>2022-09-21T09:49:28.000Z</time>
      </trkpt>
      <trkpt lat="43.7368" lon="7.01469">
        <ele>761.8</ele>
        <time>2022-09-21T09:49:31.000Z</time>
      </trkpt>
      <trkpt lat="43.73676" lon="7.0147">
        <ele>762.3</ele>
        <time>2022-09-21T09:49:35.000Z</time>
      </trkpt>
      <trkpt lat="43.7367" lon="7.01471">
        <ele>762.8</ele>
        <time>2022-09-21T09:49:39.000Z</time>
      </trkpt>
      <trkpt lat="43.73665" lon="7.01474">
        <ele>762.7</ele>
        <time>2022-09-21T09:49:42.000Z</time>
      </trkpt>
      <trkpt lat="43.73661" lon="7.01477">
        <ele>762.7</ele>
        <time>2022-09-21T09:49:44.000Z</time>
      </trkpt>
      <trkpt lat="43.73656" lon="7.01477">
        <ele>763</ele>
        <time>2022-09-21T09:49:46.000Z</time>
      </trkpt>
      <trkpt lat="43.73651" lon="7.01477">
        <ele>762.9</ele>
        <time>2022-09-21T09:49:49.000Z</time>
      </trkpt>
      <trkpt lat="43.73647" lon="7.01472">
        <ele>764.2</ele>
        <time>2022-09-21T09:49:54.000Z</time>
      </trkpt>
      <trkpt lat="43.73643" lon="7.01468">
        <ele>764.9</ele>
        <time>2022-09-21T09:49:57.000Z</time>
      </trkpt>
      <trkpt lat="43.73638" lon="7.01466">
        <ele>765.2</ele>
        <time>2022-09-21T09:50:00.000Z</time>
      </trkpt>
      <trkpt lat="43.73632" lon="7.01463">
        <ele>766</ele>
        <time>2022-09-21T09:50:03.000Z</time>
      </trkpt>
      <trkpt lat="43.73627" lon="7.01461">
        <ele>766.4</ele>
        <time>2022-09-21T09:50:06.000Z</time>
      </trkpt>
      <trkpt lat="43.73623" lon="7.01459">
        <ele>767</ele>
        <time>2022-09-21T09:50:09.000Z</time>
      </trkpt>
      <trkpt lat="43.73617" lon="7.01458">
        <ele>767.6</ele>
        <time>2022-09-21T09:50:13.000Z</time>
      </trkpt>
      <trkpt lat="43.73612" lon="7.0146">
        <ele>768</ele>
        <time>2022-09-21T09:50:17.000Z</time>
      </trkpt>
      <trkpt lat="43.73607" lon="7.01461">
        <ele>768.2</ele>
        <time>2022-09-21T09:50:20.000Z</time>
      </trkpt>
      <trkpt lat="43.73603" lon="7.01466">
        <ele>768.4</ele>
        <time>2022-09-21T09:50:23.000Z</time>
      </trkpt>
      <trkpt lat="43.73598" lon="7.01469">
        <ele>768.7</ele>
        <time>2022-09-21T09:50:26.000Z</time>
      </trkpt>
      <trkpt lat="43.73593" lon="7.01471">
        <ele>769.6</ele>
        <time>2022-09-21T09:50:30.000Z</time>
      </trkpt>
      <trkpt lat="43.73588" lon="7.01473">
        <ele>770.3</ele>
        <time>2022-09-21T09:50:33.000Z</time>
      </trkpt>
      <trkpt lat="43.73582" lon="7.01474">
        <ele>770.6</ele>
        <time>2022-09-21T09:50:36.000Z</time>
      </trkpt>
      <trkpt lat="43.73576" lon="7.01471">
        <ele>770.9</ele>
        <time>2022-09-21T09:50:39.000Z</time>
      </trkpt>
      <trkpt lat="43.73572" lon="7.01468">
        <ele>770.6</ele>
        <time>2022-09-21T09:50:41.000Z</time>
      </trkpt>
      <trkpt lat="43.73567" lon="7.01463">
        <ele>771.1</ele>
        <time>2022-09-21T09:50:44.000Z</time>
      </trkpt>
      <trkpt lat="43.73562" lon="7.0146">
        <ele>771.4</ele>
        <time>2022-09-21T09:50:47.000Z</time>
      </trkpt>
      <trkpt lat="43.73557" lon="7.01457">
        <ele>771.8</ele>
        <time>2022-09-21T09:50:50.000Z</time>
      </trkpt>
      <trkpt lat="43.73551" lon="7.01456">
        <ele>772.4</ele>
        <time>2022-09-21T09:50:53.000Z</time>
      </trkpt>
      <trkpt lat="43.73546" lon="7.01455">
        <ele>773.3</ele>
        <time>2022-09-21T09:50:56.000Z</time>
      </trkpt>
      <trkpt lat="43.73541" lon="7.01458">
        <ele>774</ele>
        <time>2022-09-21T09:51:00.000Z</time>
      </trkpt>
      <trkpt lat="43.73537" lon="7.0146">
        <ele>774.5</ele>
        <time>2022-09-21T09:51:03.000Z</time>
      </trkpt>
      <trkpt lat="43.73532" lon="7.01464">
        <ele>775.3</ele>
        <time>2022-09-21T09:51:06.000Z</time>
      </trkpt>
      <trkpt lat="43.73527" lon="7.01467">
        <ele>775.5</ele>
        <time>2022-09-21T09:51:10.000Z</time>
      </trkpt>
      <trkpt lat="43.73523" lon="7.01471">
        <ele>776.3</ele>
        <time>2022-09-21T09:51:14.000Z</time>
      </trkpt>
      <trkpt lat="43.7352" lon="7.01477">
        <ele>777.2</ele>
        <time>2022-09-21T09:51:18.000Z</time>
      </trkpt>
      <trkpt lat="43.73516" lon="7.0148">
        <ele>777.8</ele>
        <time>2022-09-21T09:51:21.000Z</time>
      </trkpt>
      <trkpt lat="43.73511" lon="7.01481">
        <ele>778.2</ele>
        <time>2022-09-21T09:51:24.000Z</time>
      </trkpt>
      <trkpt lat="43.73506" lon="7.01483">
        <ele>779</ele>
        <time>2022-09-21T09:51:27.000Z</time>
      </trkpt>
      <trkpt lat="43.735" lon="7.01484">
        <ele>779.5</ele>
        <time>2022-09-21T09:51:30.000Z</time>
      </trkpt>
      <trkpt lat="43.73495" lon="7.01484">
        <ele>779.9</ele>
        <time>2022-09-21T09:51:34.000Z</time>
      </trkpt>
      <trkpt lat="43.7349" lon="7.01482">
        <ele>780.4</ele>
        <time>2022-09-21T09:51:38.000Z</time>
      </trkpt>
      <trkpt lat="43.73487" lon="7.01477">
        <ele>781</ele>
        <time>2022-09-21T09:51:42.000Z</time>
      </trkpt>
      <trkpt lat="43.73482" lon="7.01474">
        <ele>781.6</ele>
        <time>2022-09-21T09:51:46.000Z</time>
      </trkpt>
      <trkpt lat="43.73476" lon="7.01473">
        <ele>783</ele>
        <time>2022-09-21T09:51:50.000Z</time>
      </trkpt>
      <trkpt lat="43.73471" lon="7.01471">
        <ele>783.7</ele>
        <time>2022-09-21T09:51:52.000Z</time>
      </trkpt>
      <trkpt lat="43.73465" lon="7.01469">
        <ele>784.3</ele>
        <time>2022-09-21T09:51:55.000Z</time>
      </trkpt>
      <trkpt lat="43.7346" lon="7.01467">
        <ele>785</ele>
        <time>2022-09-21T09:51:58.000Z</time>
      </trkpt>
      <trkpt lat="43.73458" lon="7.01462">
        <ele>784.7</ele>
        <time>2022-09-21T09:52:00.000Z</time>
      </trkpt>
      <trkpt lat="43.73455" lon="7.01457">
        <ele>785.5</ele>
        <time>2022-09-21T09:52:03.000Z</time>
      </trkpt>
      <trkpt lat="43.73453" lon="7.0145">
        <ele>785.6</ele>
        <time>2022-09-21T09:52:07.000Z</time>
      </trkpt>
      <trkpt lat="43.73452" lon="7.0144">
        <ele>785.5</ele>
        <time>2022-09-21T09:52:10.000Z</time>
      </trkpt>
      <trkpt lat="43.73452" lon="7.01432">
        <ele>786.2</ele>
        <time>2022-09-21T09:52:13.000Z</time>
      </trkpt>
      <trkpt lat="43.73453" lon="7.01425">
        <ele>786.6</ele>
        <time>2022-09-21T09:52:16.000Z</time>
      </trkpt>
      <trkpt lat="43.73452" lon="7.01418">
        <ele>786</ele>
        <time>2022-09-21T09:52:18.000Z</time>
      </trkpt>
      <trkpt lat="43.73454" lon="7.0141">
        <ele>785.8</ele>
        <time>2022-09-21T09:52:20.000Z</time>
      </trkpt>
      <trkpt lat="43.73455" lon="7.01401">
        <ele>785.5</ele>
        <time>2022-09-21T09:52:22.000Z</time>
      </trkpt>
      <trkpt lat="43.73457" lon="7.01391">
        <ele>785.6</ele>
        <time>2022-09-21T09:52:24.000Z</time>
      </trkpt>
      <trkpt lat="43.73459" lon="7.01385">
        <ele>785.6</ele>
        <time>2022-09-21T09:52:26.000Z</time>
      </trkpt>
      <trkpt lat="43.73461" lon="7.01377">
        <ele>785.8</ele>
        <time>2022-09-21T09:52:29.000Z</time>
      </trkpt>
      <trkpt lat="43.73464" lon="7.0137">
        <ele>786.4</ele>
        <time>2022-09-21T09:52:32.000Z</time>
      </trkpt>
      <trkpt lat="43.73469" lon="7.01367">
        <ele>786.5</ele>
        <time>2022-09-21T09:52:35.000Z</time>
      </trkpt>
      <trkpt lat="43.73473" lon="7.01363">
        <ele>786.5</ele>
        <time>2022-09-21T09:52:38.000Z</time>
      </trkpt>
      <trkpt lat="43.73478" lon="7.01361">
        <ele>786.9</ele>
        <time>2022-09-21T09:52:40.000Z</time>
      </trkpt>
      <trkpt lat="43.73481" lon="7.01357">
        <ele>787</ele>
        <time>2022-09-21T09:52:42.000Z</time>
      </trkpt>
      <trkpt lat="43.73486" lon="7.01352">
        <ele>787.4</ele>
        <time>2022-09-21T09:52:45.000Z</time>
      </trkpt>
      <trkpt lat="43.73491" lon="7.01348">
        <ele>787.6</ele>
        <time>2022-09-21T09:52:48.000Z</time>
      </trkpt>
      <trkpt lat="43.73494" lon="7.01344">
        <ele>787.8</ele>
        <time>2022-09-21T09:52:50.000Z</time>
      </trkpt>
      <trkpt lat="43.73498" lon="7.0134">
        <ele>787.7</ele>
        <time>2022-09-21T09:52:52.000Z</time>
      </trkpt>
      <trkpt lat="43.73502" lon="7.01335">
        <ele>787.3</ele>
        <time>2022-09-21T09:52:54.000Z</time>
      </trkpt>
      <trkpt lat="43.73509" lon="7.01328">
        <ele>785.9</ele>
        <time>2022-09-21T09:52:56.000Z</time>
      </trkpt>
      <trkpt lat="43.73516" lon="7.0132">
        <ele>785.7</ele>
        <time>2022-09-21T09:52:58.000Z</time>
      </trkpt>
      <trkpt lat="43.73518" lon="7.01314">
        <ele>785.8</ele>
        <time>2022-09-21T09:52:59.000Z</time>
      </trkpt>
      <trkpt lat="43.73519" lon="7.01305">
        <ele>786.4</ele>
        <time>2022-09-21T09:53:01.000Z</time>
      </trkpt>
      <trkpt lat="43.73519" lon="7.01298">
        <ele>786.7</ele>
        <time>2022-09-21T09:53:03.000Z</time>
      </trkpt>
      <trkpt lat="43.73519" lon="7.0129">
        <ele>787.5</ele>
        <time>2022-09-21T09:53:06.000Z</time>
      </trkpt>
      <trkpt lat="43.73514" lon="7.01284">
        <ele>789</ele>
        <time>2022-09-21T09:53:10.000Z</time>
      </trkpt>
      <trkpt lat="43.7351" lon="7.01281">
        <ele>789.5</ele>
        <time>2022-09-21T09:53:14.000Z</time>
      </trkpt>
      <trkpt lat="43.73505" lon="7.01278">
        <ele>790.1</ele>
        <time>2022-09-21T09:53:18.000Z</time>
      </trkpt>
      <trkpt lat="43.73501" lon="7.01274">
        <ele>790.4</ele>
        <time>2022-09-21T09:53:21.000Z</time>
      </trkpt>
      <trkpt lat="43.73497" lon="7.01271">
        <ele>791.3</ele>
        <time>2022-09-21T09:53:24.000Z</time>
      </trkpt>
      <trkpt lat="43.73492" lon="7.01268">
        <ele>791.8</ele>
        <time>2022-09-21T09:53:28.000Z</time>
      </trkpt>
      <trkpt lat="43.73489" lon="7.01262">
        <ele>792.5</ele>
        <time>2022-09-21T09:53:33.000Z</time>
      </trkpt>
      <trkpt lat="43.73484" lon="7.01256">
        <ele>792.7</ele>
        <time>2022-09-21T09:53:36.000Z</time>
      </trkpt>
      <trkpt lat="43.73481" lon="7.0125">
        <ele>792.6</ele>
        <time>2022-09-21T09:53:38.000Z</time>
      </trkpt>
      <trkpt lat="43.73477" lon="7.01244">
        <ele>792.9</ele>
        <time>2022-09-21T09:53:41.000Z</time>
      </trkpt>
      <trkpt lat="43.73474" lon="7.01237">
        <ele>793.4</ele>
        <time>2022-09-21T09:53:44.000Z</time>
      </trkpt>
      <trkpt lat="43.73471" lon="7.0123">
        <ele>794.3</ele>
        <time>2022-09-21T09:53:48.000Z</time>
      </trkpt>
      <trkpt lat="43.73468" lon="7.01224">
        <ele>794.8</ele>
        <time>2022-09-21T09:53:51.000Z</time>
      </trkpt>
      <trkpt lat="43.73464" lon="7.01219">
        <ele>795.1</ele>
        <time>2022-09-21T09:53:55.000Z</time>
      </trkpt>
      <trkpt lat="43.73461" lon="7.01214">
        <ele>795.6</ele>
        <time>2022-09-21T09:53:58.000Z</time>
      </trkpt>
      <trkpt lat="43.73457" lon="7.01207">
        <ele>796.2</ele>
        <time>2022-09-21T09:54:02.000Z</time>
      </trkpt>
      <trkpt lat="43.73455" lon="7.01201">
        <ele>796.9</ele>
        <time>2022-09-21T09:54:05.000Z</time>
      </trkpt>
      <trkpt lat="43.73453" lon="7.01194">
        <ele>797.5</ele>
        <time>2022-09-21T09:54:08.000Z</time>
      </trkpt>
      <trkpt lat="43.73451" lon="7.01188">
        <ele>797.7</ele>
        <time>2022-09-21T09:54:11.000Z</time>
      </trkpt>
      <trkpt lat="43.73447" lon="7.01183">
        <ele>798</ele>
        <time>2022-09-21T09:54:14.000Z</time>
      </trkpt>
      <trkpt lat="43.73443" lon="7.01176">
        <ele>797.6</ele>
        <time>2022-09-21T09:54:17.000Z</time>
      </trkpt>
      <trkpt lat="43.73439" lon="7.01168">
        <ele>797.6</ele>
        <time>2022-09-21T09:54:19.000Z</time>
      </trkpt>
      <trkpt lat="43.73437" lon="7.01161">
        <ele>797.5</ele>
        <time>2022-09-21T09:54:21.000Z</time>
      </trkpt>
      <trkpt lat="43.73435" lon="7.01153">
        <ele>798.3</ele>
        <time>2022-09-21T09:54:24.000Z</time>
      </trkpt>
      <trkpt lat="43.73432" lon="7.01148">
        <ele>799</ele>
        <time>2022-09-21T09:54:26.000Z</time>
      </trkpt>
      <trkpt lat="43.73427" lon="7.01144">
        <ele>799.2</ele>
        <time>2022-09-21T09:54:29.000Z</time>
      </trkpt>
      <trkpt lat="43.73422" lon="7.01141">
        <ele>799.2</ele>
        <time>2022-09-21T09:54:31.000Z</time>
      </trkpt>
      <trkpt lat="43.73416" lon="7.0114">
        <ele>799.6</ele>
        <time>2022-09-21T09:54:34.000Z</time>
      </trkpt>
      <trkpt lat="43.73411" lon="7.01139">
        <ele>800</ele>
        <time>2022-09-21T09:54:37.000Z</time>
      </trkpt>
      <trkpt lat="43.73406" lon="7.0114">
        <ele>800.5</ele>
        <time>2022-09-21T09:54:40.000Z</time>
      </trkpt>
      <trkpt lat="43.73402" lon="7.01144">
        <ele>800.9</ele>
        <time>2022-09-21T09:54:43.000Z</time>
      </trkpt>
      <trkpt lat="43.73398" lon="7.01148">
        <ele>801.8</ele>
        <time>2022-09-21T09:54:47.000Z</time>
      </trkpt>
      <trkpt lat="43.73395" lon="7.01155">
        <ele>802.8</ele>
        <time>2022-09-21T09:54:51.000Z</time>
      </trkpt>
      <trkpt lat="43.73392" lon="7.0116">
        <ele>803.1</ele>
        <time>2022-09-21T09:54:55.000Z</time>
      </trkpt>
      <trkpt lat="43.73388" lon="7.01167">
        <ele>802.5</ele>
        <time>2022-09-21T09:54:58.000Z</time>
      </trkpt>
      <trkpt lat="43.73382" lon="7.01171">
        <ele>802.5</ele>
        <time>2022-09-21T09:55:00.000Z</time>
      </trkpt>
      <trkpt lat="43.73376" lon="7.01173">
        <ele>802.3</ele>
        <time>2022-09-21T09:55:02.000Z</time>
      </trkpt>
      <trkpt lat="43.73372" lon="7.01175">
        <ele>802.6</ele>
        <time>2022-09-21T09:55:04.000Z</time>
      </trkpt>
      <trkpt lat="43.73367" lon="7.01178">
        <ele>803.2</ele>
        <time>2022-09-21T09:55:07.000Z</time>
      </trkpt>
      <trkpt lat="43.73362" lon="7.0118">
        <ele>803.8</ele>
        <time>2022-09-21T09:55:10.000Z</time>
      </trkpt>
      <trkpt lat="43.73356" lon="7.01179">
        <ele>804.2</ele>
        <time>2022-09-21T09:55:13.000Z</time>
      </trkpt>
      <trkpt lat="43.73351" lon="7.01181">
        <ele>804.7</ele>
        <time>2022-09-21T09:55:16.000Z</time>
      </trkpt>
      <trkpt lat="43.73347" lon="7.01186">
        <ele>805</ele>
        <time>2022-09-21T09:55:19.000Z</time>
      </trkpt>
      <trkpt lat="43.73346" lon="7.01193">
        <ele>805.1</ele>
        <time>2022-09-21T09:55:22.000Z</time>
      </trkpt>
      <trkpt lat="43.73345" lon="7.012">
        <ele>805.9</ele>
        <time>2022-09-21T09:55:25.000Z</time>
      </trkpt>
      <trkpt lat="43.73345" lon="7.01209">
        <ele>807.2</ele>
        <time>2022-09-21T09:55:29.000Z</time>
      </trkpt>
      <trkpt lat="43.73348" lon="7.01214">
        <ele>807.7</ele>
        <time>2022-09-21T09:55:31.000Z</time>
      </trkpt>
      <trkpt lat="43.73351" lon="7.01221">
        <ele>807.8</ele>
        <time>2022-09-21T09:55:34.000Z</time>
      </trkpt>
      <trkpt lat="43.73353" lon="7.0123">
        <ele>807.4</ele>
        <time>2022-09-21T09:55:37.000Z</time>
      </trkpt>
      <trkpt lat="43.73352" lon="7.0124">
        <ele>807.9</ele>
        <time>2022-09-21T09:55:40.000Z</time>
      </trkpt>
      <trkpt lat="43.73349" lon="7.01247">
        <ele>808</ele>
        <time>2022-09-21T09:55:42.000Z</time>
      </trkpt>
      <trkpt lat="43.73347" lon="7.01252">
        <ele>808</ele>
        <time>2022-09-21T09:55:44.000Z</time>
      </trkpt>
      <trkpt lat="43.73343" lon="7.01258">
        <ele>808.1</ele>
        <time>2022-09-21T09:55:47.000Z</time>
      </trkpt>
      <trkpt lat="43.73338" lon="7.01264">
        <ele>808.6</ele>
        <time>2022-09-21T09:55:50.000Z</time>
      </trkpt>
      <trkpt lat="43.73334" lon="7.01266">
        <ele>809.4</ele>
        <time>2022-09-21T09:55:53.000Z</time>
      </trkpt>
      <trkpt lat="43.73329" lon="7.01269">
        <ele>809.9</ele>
        <time>2022-09-21T09:55:56.000Z</time>
      </trkpt>
      <trkpt lat="43.73324" lon="7.0127">
        <ele>810.3</ele>
        <time>2022-09-21T09:55:58.000Z</time>
      </trkpt>
      <trkpt lat="43.7332" lon="7.01276">
        <ele>810.7</ele>
        <time>2022-09-21T09:56:01.000Z</time>
      </trkpt>
      <trkpt lat="43.73317" lon="7.01281">
        <ele>810.7</ele>
        <time>2022-09-21T09:56:04.000Z</time>
      </trkpt>
      <trkpt lat="43.73313" lon="7.01286">
        <ele>810.5</ele>
        <time>2022-09-21T09:56:07.000Z</time>
      </trkpt>
      <trkpt lat="43.73308" lon="7.01293">
        <ele>810.8</ele>
        <time>2022-09-21T09:56:10.000Z</time>
      </trkpt>
      <trkpt lat="43.73304" lon="7.01298">
        <ele>811</ele>
        <time>2022-09-21T09:56:12.000Z</time>
      </trkpt>
      <trkpt lat="43.73299" lon="7.01303">
        <ele>811.3</ele>
        <time>2022-09-21T09:56:15.000Z</time>
      </trkpt>
      <trkpt lat="43.73294" lon="7.0131">
        <ele>811.6</ele>
        <time>2022-09-21T09:56:18.000Z</time>
      </trkpt>
      <trkpt lat="43.73294" lon="7.01316">
        <ele>811.7</ele>
        <time>2022-09-21T09:56:20.000Z</time>
      </trkpt>
      <trkpt lat="43.73291" lon="7.01323">
        <ele>811.8</ele>
        <time>2022-09-21T09:56:22.000Z</time>
      </trkpt>
      <trkpt lat="43.73288" lon="7.01327">
        <ele>812</ele>
        <time>2022-09-21T09:56:24.000Z</time>
      </trkpt>
      <trkpt lat="43.73283" lon="7.01329">
        <ele>812.4</ele>
        <time>2022-09-21T09:56:26.000Z</time>
      </trkpt>
      <trkpt lat="43.73277" lon="7.01328">
        <ele>813</ele>
        <time>2022-09-21T09:56:29.000Z</time>
      </trkpt>
      <trkpt lat="43.73272" lon="7.01328">
        <ele>813.5</ele>
        <time>2022-09-21T09:56:32.000Z</time>
      </trkpt>
      <trkpt lat="43.73268" lon="7.01329">
        <ele>814.2</ele>
        <time>2022-09-21T09:56:36.000Z</time>
      </trkpt>
      <trkpt lat="43.73263" lon="7.01328">
        <ele>815</ele>
        <time>2022-09-21T09:56:39.000Z</time>
      </trkpt>
      <trkpt lat="43.73258" lon="7.01331">
        <ele>816</ele>
        <time>2022-09-21T09:56:44.000Z</time>
      </trkpt>
      <trkpt lat="43.73254" lon="7.01335">
        <ele>816.8</ele>
        <time>2022-09-21T09:56:48.000Z</time>
      </trkpt>
      <trkpt lat="43.73252" lon="7.01341">
        <ele>817.5</ele>
        <time>2022-09-21T09:56:53.000Z</time>
      </trkpt>
      <trkpt lat="43.73249" lon="7.01348">
        <ele>817.7</ele>
        <time>2022-09-21T09:56:56.000Z</time>
      </trkpt>
      <trkpt lat="43.73247" lon="7.01355">
        <ele>818.4</ele>
        <time>2022-09-21T09:56:59.000Z</time>
      </trkpt>
      <trkpt lat="43.73243" lon="7.01361">
        <ele>819</ele>
        <time>2022-09-21T09:57:03.000Z</time>
      </trkpt>
      <trkpt lat="43.73242" lon="7.01368">
        <ele>819.6</ele>
        <time>2022-09-21T09:57:06.000Z</time>
      </trkpt>
      <trkpt lat="43.73243" lon="7.01374">
        <ele>820.2</ele>
        <time>2022-09-21T09:57:09.000Z</time>
      </trkpt>
      <trkpt lat="43.73246" lon="7.01382">
        <ele>820.8</ele>
        <time>2022-09-21T09:57:13.000Z</time>
      </trkpt>
      <trkpt lat="43.73247" lon="7.01389">
        <ele>821.1</ele>
        <time>2022-09-21T09:57:16.000Z</time>
      </trkpt>
      <trkpt lat="43.73248" lon="7.01396">
        <ele>821.3</ele>
        <time>2022-09-21T09:57:18.000Z</time>
      </trkpt>
      <trkpt lat="43.73249" lon="7.01404">
        <ele>821.9</ele>
        <time>2022-09-21T09:57:22.000Z</time>
      </trkpt>
      <trkpt lat="43.73251" lon="7.01411">
        <ele>822.5</ele>
        <time>2022-09-21T09:57:25.000Z</time>
      </trkpt>
      <trkpt lat="43.73253" lon="7.01417">
        <ele>823.3</ele>
        <time>2022-09-21T09:57:29.000Z</time>
      </trkpt>
      <trkpt lat="43.73254" lon="7.01424">
        <ele>823.5</ele>
        <time>2022-09-21T09:57:34.000Z</time>
      </trkpt>
      <trkpt lat="43.73258" lon="7.01429">
        <ele>824</ele>
        <time>2022-09-21T09:57:37.000Z</time>
      </trkpt>
      <trkpt lat="43.7326" lon="7.01434">
        <ele>825.1</ele>
        <time>2022-09-21T09:57:41.000Z</time>
      </trkpt>
      <trkpt lat="43.73265" lon="7.01439">
        <ele>825.5</ele>
        <time>2022-09-21T09:57:45.000Z</time>
      </trkpt>
      <trkpt lat="43.73268" lon="7.01443">
        <ele>825.7</ele>
        <time>2022-09-21T09:57:48.000Z</time>
      </trkpt>
      <trkpt lat="43.73275" lon="7.01448">
        <ele>826.2</ele>
        <time>2022-09-21T09:57:51.000Z</time>
      </trkpt>
      <trkpt lat="43.7328" lon="7.01453">
        <ele>826.3</ele>
        <time>2022-09-21T09:57:55.000Z</time>
      </trkpt>
      <trkpt lat="43.73284" lon="7.01457">
        <ele>826.3</ele>
        <time>2022-09-21T09:57:57.000Z</time>
      </trkpt>
      <trkpt lat="43.73287" lon="7.01462">
        <ele>826.9</ele>
        <time>2022-09-21T09:57:59.000Z</time>
      </trkpt>
      <trkpt lat="43.73292" lon="7.01467">
        <ele>826.4</ele>
        <time>2022-09-21T09:58:01.000Z</time>
      </trkpt>
      <trkpt lat="43.73296" lon="7.01472">
        <ele>826.4</ele>
        <time>2022-09-21T09:58:03.000Z</time>
      </trkpt>
      <trkpt lat="43.733" lon="7.01477">
        <ele>826.8</ele>
        <time>2022-09-21T09:58:05.000Z</time>
      </trkpt>
      <trkpt lat="43.73305" lon="7.01482">
        <ele>826.2</ele>
        <time>2022-09-21T09:58:07.000Z</time>
      </trkpt>
      <trkpt lat="43.7331" lon="7.01487">
        <ele>826</ele>
        <time>2022-09-21T09:58:09.000Z</time>
      </trkpt>
      <trkpt lat="43.73315" lon="7.01492">
        <ele>826.3</ele>
        <time>2022-09-21T09:58:11.000Z</time>
      </trkpt>
      <trkpt lat="43.7332" lon="7.01499">
        <ele>825.5</ele>
        <time>2022-09-21T09:58:13.000Z</time>
      </trkpt>
      <trkpt lat="43.73325" lon="7.01505">
        <ele>825.8</ele>
        <time>2022-09-21T09:58:15.000Z</time>
      </trkpt>
      <trkpt lat="43.73331" lon="7.01513">
        <ele>825.7</ele>
        <time>2022-09-21T09:58:17.000Z</time>
      </trkpt>
      <trkpt lat="43.73336" lon="7.01522">
        <ele>825</ele>
        <time>2022-09-21T09:58:19.000Z</time>
      </trkpt>
      <trkpt lat="43.73342" lon="7.0153">
        <ele>825</ele>
        <time>2022-09-21T09:58:21.000Z</time>
      </trkpt>
      <trkpt lat="43.73348" lon="7.01539">
        <ele>824.6</ele>
        <time>2022-09-21T09:58:23.000Z</time>
      </trkpt>
      <trkpt lat="43.73351" lon="7.01543">
        <ele>823.9</ele>
        <time>2022-09-21T09:58:24.000Z</time>
      </trkpt>
      <trkpt lat="43.73355" lon="7.01547">
        <ele>823.4</ele>
        <time>2022-09-21T09:58:25.000Z</time>
      </trkpt>
      <trkpt lat="43.73361" lon="7.01554">
        <ele>823.6</ele>
        <time>2022-09-21T09:58:27.000Z</time>
      </trkpt>
      <trkpt lat="43.73367" lon="7.01558">
        <ele>823.6</ele>
        <time>2022-09-21T09:58:29.000Z</time>
      </trkpt>
      <trkpt lat="43.73372" lon="7.0156">
        <ele>823.9</ele>
        <time>2022-09-21T09:58:31.000Z</time>
      </trkpt>
      <trkpt lat="43.73376" lon="7.01564">
        <ele>824.2</ele>
        <time>2022-09-21T09:58:33.000Z</time>
      </trkpt>
      <trkpt lat="43.73381" lon="7.01567">
        <ele>824.2</ele>
        <time>2022-09-21T09:58:35.000Z</time>
      </trkpt>
      <trkpt lat="43.73386" lon="7.0157">
        <ele>824.6</ele>
        <time>2022-09-21T09:58:38.000Z</time>
      </trkpt>
      <trkpt lat="43.73393" lon="7.01572">
        <ele>824.5</ele>
        <time>2022-09-21T09:58:41.000Z</time>
      </trkpt>
      <trkpt lat="43.73397" lon="7.01577">
        <ele>825.1</ele>
        <time>2022-09-21T09:58:43.000Z</time>
      </trkpt>
      <trkpt lat="43.73403" lon="7.01582">
        <ele>824.2</ele>
        <time>2022-09-21T09:58:45.000Z</time>
      </trkpt>
      <trkpt lat="43.7341" lon="7.01587">
        <ele>824</ele>
        <time>2022-09-21T09:58:47.000Z</time>
      </trkpt>
      <trkpt lat="43.73416" lon="7.01594">
        <ele>823.7</ele>
        <time>2022-09-21T09:58:49.000Z</time>
      </trkpt>
      <trkpt lat="43.73423" lon="7.01602">
        <ele>823.5</ele>
        <time>2022-09-21T09:58:51.000Z</time>
      </trkpt>
      <trkpt lat="43.7343" lon="7.0161">
        <ele>822.8</ele>
        <time>2022-09-21T09:58:53.000Z</time>
      </trkpt>
      <trkpt lat="43.73434" lon="7.01613">
        <ele>823.1</ele>
        <time>2022-09-21T09:58:54.000Z</time>
      </trkpt>
      <trkpt lat="43.73442" lon="7.01619">
        <ele>822.4</ele>
        <time>2022-09-21T09:58:56.000Z</time>
      </trkpt>
      <trkpt lat="43.73446" lon="7.01623">
        <ele>822.8</ele>
        <time>2022-09-21T09:58:57.000Z</time>
      </trkpt>
      <trkpt lat="43.73453" lon="7.0163">
        <ele>823</ele>
        <time>2022-09-21T09:58:59.000Z</time>
      </trkpt>
      <trkpt lat="43.73457" lon="7.01633">
        <ele>822.8</ele>
        <time>2022-09-21T09:59:00.000Z</time>
      </trkpt>
      <trkpt lat="43.73463" lon="7.01639">
        <ele>822.9</ele>
        <time>2022-09-21T09:59:02.000Z</time>
      </trkpt>
      <trkpt lat="43.73468" lon="7.01645">
        <ele>822.8</ele>
        <time>2022-09-21T09:59:04.000Z</time>
      </trkpt>
      <trkpt lat="43.73474" lon="7.01649">
        <ele>823.2</ele>
        <time>2022-09-21T09:59:06.000Z</time>
      </trkpt>
      <trkpt lat="43.7348" lon="7.01652">
        <ele>823.8</ele>
        <time>2022-09-21T09:59:08.000Z</time>
      </trkpt>
      <trkpt lat="43.73485" lon="7.01655">
        <ele>824.1</ele>
        <time>2022-09-21T09:59:10.000Z</time>
      </trkpt>
      <trkpt lat="43.7349" lon="7.01658">
        <ele>823.8</ele>
        <time>2022-09-21T09:59:12.000Z</time>
      </trkpt>
      <trkpt lat="43.73494" lon="7.01664">
        <ele>823.4</ele>
        <time>2022-09-21T09:59:14.000Z</time>
      </trkpt>
      <trkpt lat="43.73498" lon="7.01669">
        <ele>823.6</ele>
        <time>2022-09-21T09:59:16.000Z</time>
      </trkpt>
      <trkpt lat="43.73503" lon="7.01674">
        <ele>824.4</ele>
        <time>2022-09-21T09:59:18.000Z</time>
      </trkpt>
      <trkpt lat="43.73507" lon="7.01679">
        <ele>824.6</ele>
        <time>2022-09-21T09:59:20.000Z</time>
      </trkpt>
      <trkpt lat="43.73511" lon="7.01684">
        <ele>825.3</ele>
        <time>2022-09-21T09:59:22.000Z</time>
      </trkpt>
      <trkpt lat="43.73515" lon="7.01688">
        <ele>825.4</ele>
        <time>2022-09-21T09:59:24.000Z</time>
      </trkpt>
      <trkpt lat="43.7352" lon="7.01692">
        <ele>825.7</ele>
        <time>2022-09-21T09:59:26.000Z</time>
      </trkpt>
      <trkpt lat="43.73524" lon="7.01696">
        <ele>826.1</ele>
        <time>2022-09-21T09:59:28.000Z</time>
      </trkpt>
      <trkpt lat="43.73528" lon="7.017">
        <ele>826.5</ele>
        <time>2022-09-21T09:59:30.000Z</time>
      </trkpt>
      <trkpt lat="43.73531" lon="7.01705">
        <ele>826.4</ele>
        <time>2022-09-21T09:59:32.000Z</time>
      </trkpt>
      <trkpt lat="43.73535" lon="7.01709">
        <ele>826.4</ele>
        <time>2022-09-21T09:59:34.000Z</time>
      </trkpt>
      <trkpt lat="43.73538" lon="7.01715">
        <ele>826.4</ele>
        <time>2022-09-21T09:59:36.000Z</time>
      </trkpt>
      <trkpt lat="43.73539" lon="7.01723">
        <ele>826.1</ele>
        <time>2022-09-21T09:59:38.000Z</time>
      </trkpt>
      <trkpt lat="43.7354" lon="7.01733">
        <ele>825</ele>
        <time>2022-09-21T09:59:40.000Z</time>
      </trkpt>
      <trkpt lat="43.73541" lon="7.01743">
        <ele>823.9</ele>
        <time>2022-09-21T09:59:42.000Z</time>
      </trkpt>
      <trkpt lat="43.73543" lon="7.01753">
        <ele>823.6</ele>
        <time>2022-09-21T09:59:44.000Z</time>
      </trkpt>
      <trkpt lat="43.73543" lon="7.01763">
        <ele>822.5</ele>
        <time>2022-09-21T09:59:46.000Z</time>
      </trkpt>
      <trkpt lat="43.73545" lon="7.01772">
        <ele>823.6</ele>
        <time>2022-09-21T09:59:48.000Z</time>
      </trkpt>
      <trkpt lat="43.73552" lon="7.01779">
        <ele>821.9</ele>
        <time>2022-09-21T09:59:50.000Z</time>
      </trkpt>
      <trkpt lat="43.7356" lon="7.01784">
        <ele>821.3</ele>
        <time>2022-09-21T09:59:52.000Z</time>
      </trkpt>
      <trkpt lat="43.73565" lon="7.01787">
        <ele>821.4</ele>
        <time>2022-09-21T09:59:53.000Z</time>
      </trkpt>
      <trkpt lat="43.7357" lon="7.01788">
        <ele>821.2</ele>
        <time>2022-09-21T09:59:54.000Z</time>
      </trkpt>
      <trkpt lat="43.73574" lon="7.01786">
        <ele>821.2</ele>
        <time>2022-09-21T09:59:55.000Z</time>
      </trkpt>
      <trkpt lat="43.73581" lon="7.01781">
        <ele>821</ele>
        <time>2022-09-21T09:59:57.000Z</time>
      </trkpt>
      <trkpt lat="43.73587" lon="7.01776">
        <ele>820.8</ele>
        <time>2022-09-21T09:59:59.000Z</time>
      </trkpt>
      <trkpt lat="43.73592" lon="7.01774">
        <ele>821</ele>
        <time>2022-09-21T10:00:01.000Z</time>
      </trkpt>
      <trkpt lat="43.73597" lon="7.01774">
        <ele>821.3</ele>
        <time>2022-09-21T10:00:04.000Z</time>
      </trkpt>
      <trkpt lat="43.73601" lon="7.01776">
        <ele>821.9</ele>
        <time>2022-09-21T10:00:06.000Z</time>
      </trkpt>
      <trkpt lat="43.73607" lon="7.0178">
        <ele>821.7</ele>
        <time>2022-09-21T10:00:08.000Z</time>
      </trkpt>
      <trkpt lat="43.73612" lon="7.01784">
        <ele>821</ele>
        <time>2022-09-21T10:00:10.000Z</time>
      </trkpt>
      <trkpt lat="43.73619" lon="7.01787">
        <ele>821.5</ele>
        <time>2022-09-21T10:00:12.000Z</time>
      </trkpt>
      <trkpt lat="43.73624" lon="7.01791">
        <ele>821.4</ele>
        <time>2022-09-21T10:00:15.000Z</time>
      </trkpt>
      <trkpt lat="43.73631" lon="7.01794">
        <ele>821.3</ele>
        <time>2022-09-21T10:00:18.000Z</time>
      </trkpt>
      <trkpt lat="43.73637" lon="7.01797">
        <ele>820.8</ele>
        <time>2022-09-21T10:00:20.000Z</time>
      </trkpt>
      <trkpt lat="43.73644" lon="7.018">
        <ele>819.4</ele>
        <time>2022-09-21T10:00:22.000Z</time>
      </trkpt>
      <trkpt lat="43.73648" lon="7.01801">
        <ele>818.6</ele>
        <time>2022-09-21T10:00:23.000Z</time>
      </trkpt>
      <trkpt lat="43.73656" lon="7.01802">
        <ele>818.6</ele>
        <time>2022-09-21T10:00:25.000Z</time>
      </trkpt>
      <trkpt lat="43.73663" lon="7.01803">
        <ele>819.2</ele>
        <time>2022-09-21T10:00:27.000Z</time>
      </trkpt>
      <trkpt lat="43.73669" lon="7.01805">
        <ele>819.7</ele>
        <time>2022-09-21T10:00:29.000Z</time>
      </trkpt>
      <trkpt lat="43.73677" lon="7.01805">
        <ele>819.2</ele>
        <time>2022-09-21T10:00:31.000Z</time>
      </trkpt>
      <trkpt lat="43.73685" lon="7.01805">
        <ele>818.9</ele>
        <time>2022-09-21T10:00:33.000Z</time>
      </trkpt>
      <trkpt lat="43.73693" lon="7.01804">
        <ele>819.2</ele>
        <time>2022-09-21T10:00:35.000Z</time>
      </trkpt>
      <trkpt lat="43.73699" lon="7.01803">
        <ele>819.5</ele>
        <time>2022-09-21T10:00:37.000Z</time>
      </trkpt>
      <trkpt lat="43.73705" lon="7.018">
        <ele>819.8</ele>
        <time>2022-09-21T10:00:39.000Z</time>
      </trkpt>
      <trkpt lat="43.7371" lon="7.01797">
        <ele>820</ele>
        <time>2022-09-21T10:00:41.000Z</time>
      </trkpt>
      <trkpt lat="43.73715" lon="7.01795">
        <ele>820.3</ele>
        <time>2022-09-21T10:00:43.000Z</time>
      </trkpt>
      <trkpt lat="43.73721" lon="7.01791">
        <ele>821</ele>
        <time>2022-09-21T10:00:46.000Z</time>
      </trkpt>
      <trkpt lat="43.73727" lon="7.0179">
        <ele>821.7</ele>
        <time>2022-09-21T10:00:49.000Z</time>
      </trkpt>
      <trkpt lat="43.73733" lon="7.0179">
        <ele>821.7</ele>
        <time>2022-09-21T10:00:51.000Z</time>
      </trkpt>
      <trkpt lat="43.7374" lon="7.01792">
        <ele>822.2</ele>
        <time>2022-09-21T10:00:53.000Z</time>
      </trkpt>
      <trkpt lat="43.73746" lon="7.01795">
        <ele>822.5</ele>
        <time>2022-09-21T10:00:55.000Z</time>
      </trkpt>
      <trkpt lat="43.73752" lon="7.01795">
        <ele>822.6</ele>
        <time>2022-09-21T10:00:57.000Z</time>
      </trkpt>
      <trkpt lat="43.73757" lon="7.01796">
        <ele>822.8</ele>
        <time>2022-09-21T10:00:59.000Z</time>
      </trkpt>
      <trkpt lat="43.73764" lon="7.01797">
        <ele>822.9</ele>
        <time>2022-09-21T10:01:02.000Z</time>
      </trkpt>
      <trkpt lat="43.7377" lon="7.01796">
        <ele>823.7</ele>
        <time>2022-09-21T10:01:05.000Z</time>
      </trkpt>
      <trkpt lat="43.73775" lon="7.01797">
        <ele>824.4</ele>
        <time>2022-09-21T10:01:07.000Z</time>
      </trkpt>
      <trkpt lat="43.73781" lon="7.01798">
        <ele>824.2</ele>
        <time>2022-09-21T10:01:09.000Z</time>
      </trkpt>
      <trkpt lat="43.73787" lon="7.01799">
        <ele>823.1</ele>
        <time>2022-09-21T10:01:11.000Z</time>
      </trkpt>
      <trkpt lat="43.73794" lon="7.018">
        <ele>823.3</ele>
        <time>2022-09-21T10:01:13.000Z</time>
      </trkpt>
      <trkpt lat="43.73801" lon="7.01801">
        <ele>823.4</ele>
        <time>2022-09-21T10:01:15.000Z</time>
      </trkpt>
      <trkpt lat="43.73806" lon="7.01799">
        <ele>823.9</ele>
        <time>2022-09-21T10:01:17.000Z</time>
      </trkpt>
      <trkpt lat="43.73811" lon="7.01798">
        <ele>824.4</ele>
        <time>2022-09-21T10:01:19.000Z</time>
      </trkpt>
      <trkpt lat="43.73815" lon="7.01792">
        <ele>824.7</ele>
        <time>2022-09-21T10:01:22.000Z</time>
      </trkpt>
      <trkpt lat="43.73819" lon="7.01788">
        <ele>824</ele>
        <time>2022-09-21T10:01:24.000Z</time>
      </trkpt>
      <trkpt lat="43.73825" lon="7.01789">
        <ele>824.2</ele>
        <time>2022-09-21T10:01:26.000Z</time>
      </trkpt>
      <trkpt lat="43.73831" lon="7.01788">
        <ele>824.3</ele>
        <time>2022-09-21T10:01:28.000Z</time>
      </trkpt>
      <trkpt lat="43.73837" lon="7.01788">
        <ele>824.6</ele>
        <time>2022-09-21T10:01:30.000Z</time>
      </trkpt>
      <trkpt lat="43.73843" lon="7.0179">
        <ele>824.5</ele>
        <time>2022-09-21T10:01:32.000Z</time>
      </trkpt>
      <trkpt lat="43.73849" lon="7.0179">
        <ele>824.6</ele>
        <time>2022-09-21T10:01:34.000Z</time>
      </trkpt>
      <trkpt lat="43.73854" lon="7.0179">
        <ele>824.6</ele>
        <time>2022-09-21T10:01:36.000Z</time>
      </trkpt>
      <trkpt lat="43.73859" lon="7.0179">
        <ele>825</ele>
        <time>2022-09-21T10:01:38.000Z</time>
      </trkpt>
      <trkpt lat="43.73864" lon="7.0179">
        <ele>825.7</ele>
        <time>2022-09-21T10:01:40.000Z</time>
      </trkpt>
      <trkpt lat="43.73869" lon="7.0179">
        <ele>826</ele>
        <time>2022-09-21T10:01:42.000Z</time>
      </trkpt>
      <trkpt lat="43.73875" lon="7.01787">
        <ele>825.9</ele>
        <time>2022-09-21T10:01:45.000Z</time>
      </trkpt>
      <trkpt lat="43.7388" lon="7.01786">
        <ele>826.7</ele>
        <time>2022-09-21T10:01:48.000Z</time>
      </trkpt>
      <trkpt lat="43.73886" lon="7.01784">
        <ele>827.6</ele>
        <time>2022-09-21T10:01:52.000Z</time>
      </trkpt>
      <trkpt lat="43.7389" lon="7.01781">
        <ele>827.9</ele>
        <time>2022-09-21T10:01:55.000Z</time>
      </trkpt>
      <trkpt lat="43.73895" lon="7.0178">
        <ele>828.5</ele>
        <time>2022-09-21T10:01:58.000Z</time>
      </trkpt>
      <trkpt lat="43.739" lon="7.01781">
        <ele>829.3</ele>
        <time>2022-09-21T10:02:02.000Z</time>
      </trkpt>
      <trkpt lat="43.73905" lon="7.0178">
        <ele>830.2</ele>
        <time>2022-09-21T10:02:07.000Z</time>
      </trkpt>
      <trkpt lat="43.73909" lon="7.01777">
        <ele>830.6</ele>
        <time>2022-09-21T10:02:12.000Z</time>
      </trkpt>
      <trkpt lat="43.73914" lon="7.01775">
        <ele>831.6</ele>
        <time>2022-09-21T10:02:15.000Z</time>
      </trkpt>
      <trkpt lat="43.7392" lon="7.01774">
        <ele>832</ele>
        <time>2022-09-21T10:02:18.000Z</time>
      </trkpt>
      <trkpt lat="43.73925" lon="7.01774">
        <ele>832.3</ele>
        <time>2022-09-21T10:02:21.000Z</time>
      </trkpt>
      <trkpt lat="43.73932" lon="7.01773">
        <ele>832.4</ele>
        <time>2022-09-21T10:02:24.000Z</time>
      </trkpt>
      <trkpt lat="43.73939" lon="7.01774">
        <ele>832.5</ele>
        <time>2022-09-21T10:02:27.000Z</time>
      </trkpt>
      <trkpt lat="43.73946" lon="7.01775">
        <ele>832.7</ele>
        <time>2022-09-21T10:02:30.000Z</time>
      </trkpt>
      <trkpt lat="43.73952" lon="7.01775">
        <ele>833.1</ele>
        <time>2022-09-21T10:02:33.000Z</time>
      </trkpt>
      <trkpt lat="43.73959" lon="7.01776">
        <ele>832.9</ele>
        <time>2022-09-21T10:02:36.000Z</time>
      </trkpt>
      <trkpt lat="43.73965" lon="7.01777">
        <ele>833.3</ele>
        <time>2022-09-21T10:02:39.000Z</time>
      </trkpt>
      <trkpt lat="43.73971" lon="7.0178">
        <ele>833.4</ele>
        <time>2022-09-21T10:02:42.000Z</time>
      </trkpt>
      <trkpt lat="43.73977" lon="7.01781">
        <ele>833.7</ele>
        <time>2022-09-21T10:02:45.000Z</time>
      </trkpt>
      <trkpt lat="43.73982" lon="7.01782">
        <ele>833.8</ele>
        <time>2022-09-21T10:02:47.000Z</time>
      </trkpt>
      <trkpt lat="43.73986" lon="7.01784">
        <ele>834</ele>
        <time>2022-09-21T10:02:49.000Z</time>
      </trkpt>
      <trkpt lat="43.73991" lon="7.01786">
        <ele>833.8</ele>
        <time>2022-09-21T10:02:52.000Z</time>
      </trkpt>
      <trkpt lat="43.73997" lon="7.01788">
        <ele>834.5</ele>
        <time>2022-09-21T10:02:56.000Z</time>
      </trkpt>
      <trkpt lat="43.74002" lon="7.01789">
        <ele>834.9</ele>
        <time>2022-09-21T10:02:58.000Z</time>
      </trkpt>
      <trkpt lat="43.74008" lon="7.01791">
        <ele>835</ele>
        <time>2022-09-21T10:03:00.000Z</time>
      </trkpt>
      <trkpt lat="43.74014" lon="7.01792">
        <ele>835</ele>
        <time>2022-09-21T10:03:02.000Z</time>
      </trkpt>
      <trkpt lat="43.74018" lon="7.01793">
        <ele>835.4</ele>
        <time>2022-09-21T10:03:04.000Z</time>
      </trkpt>
      <trkpt lat="43.74023" lon="7.01794">
        <ele>836.2</ele>
        <time>2022-09-21T10:03:07.000Z</time>
      </trkpt>
      <trkpt lat="43.74028" lon="7.01796">
        <ele>836.6</ele>
        <time>2022-09-21T10:03:10.000Z</time>
      </trkpt>
      <trkpt lat="43.74033" lon="7.01799">
        <ele>836.9</ele>
        <time>2022-09-21T10:03:13.000Z</time>
      </trkpt>
      <trkpt lat="43.74039" lon="7.01802">
        <ele>837.7</ele>
        <time>2022-09-21T10:03:16.000Z</time>
      </trkpt>
      <trkpt lat="43.74043" lon="7.01806">
        <ele>837.8</ele>
        <time>2022-09-21T10:03:18.000Z</time>
      </trkpt>
      <trkpt lat="43.74048" lon="7.01808">
        <ele>838</ele>
        <time>2022-09-21T10:03:20.000Z</time>
      </trkpt>
      <trkpt lat="43.74053" lon="7.01809">
        <ele>838.6</ele>
        <time>2022-09-21T10:03:23.000Z</time>
      </trkpt>
      <trkpt lat="43.74058" lon="7.01812">
        <ele>838.7</ele>
        <time>2022-09-21T10:03:25.000Z</time>
      </trkpt>
      <trkpt lat="43.74063" lon="7.01814">
        <ele>838.4</ele>
        <time>2022-09-21T10:03:27.000Z</time>
      </trkpt>
      <trkpt lat="43.74069" lon="7.01816">
        <ele>838.6</ele>
        <time>2022-09-21T10:03:29.000Z</time>
      </trkpt>
      <trkpt lat="43.74074" lon="7.01815">
        <ele>838.8</ele>
        <time>2022-09-21T10:03:31.000Z</time>
      </trkpt>
      <trkpt lat="43.74078" lon="7.01816">
        <ele>839.1</ele>
        <time>2022-09-21T10:03:33.000Z</time>
      </trkpt>
      <trkpt lat="43.74085" lon="7.01818">
        <ele>838.9</ele>
        <time>2022-09-21T10:03:35.000Z</time>
      </trkpt>
      <trkpt lat="43.74089" lon="7.0182">
        <ele>839.2</ele>
        <time>2022-09-21T10:03:37.000Z</time>
      </trkpt>
      <trkpt lat="43.74094" lon="7.01822">
        <ele>839.1</ele>
        <time>2022-09-21T10:03:39.000Z</time>
      </trkpt>
      <trkpt lat="43.74098" lon="7.01825">
        <ele>839.3</ele>
        <time>2022-09-21T10:03:41.000Z</time>
      </trkpt>
      <trkpt lat="43.74103" lon="7.01827">
        <ele>839.4</ele>
        <time>2022-09-21T10:03:43.000Z</time>
      </trkpt>
      <trkpt lat="43.74108" lon="7.01829">
        <ele>839.3</ele>
        <time>2022-09-21T10:03:45.000Z</time>
      </trkpt>
      <trkpt lat="43.74113" lon="7.0183">
        <ele>839.6</ele>
        <time>2022-09-21T10:03:47.000Z</time>
      </trkpt>
      <trkpt lat="43.74118" lon="7.01832">
        <ele>840</ele>
        <time>2022-09-21T10:03:49.000Z</time>
      </trkpt>
      <trkpt lat="43.74125" lon="7.01831">
        <ele>839.8</ele>
        <time>2022-09-21T10:03:52.000Z</time>
      </trkpt>
      <trkpt lat="43.74131" lon="7.01829">
        <ele>839.9</ele>
        <time>2022-09-21T10:03:55.000Z</time>
      </trkpt>
      <trkpt lat="43.74136" lon="7.01828">
        <ele>840.1</ele>
        <time>2022-09-21T10:03:57.000Z</time>
      </trkpt>
      <trkpt lat="43.7414" lon="7.01826">
        <ele>840.3</ele>
        <time>2022-09-21T10:03:59.000Z</time>
      </trkpt>
      <trkpt lat="43.74144" lon="7.01823">
        <ele>840.3</ele>
        <time>2022-09-21T10:04:01.000Z</time>
      </trkpt>
      <trkpt lat="43.7415" lon="7.01818">
        <ele>840.6</ele>
        <time>2022-09-21T10:04:04.000Z</time>
      </trkpt>
      <trkpt lat="43.74156" lon="7.01816">
        <ele>840.9</ele>
        <time>2022-09-21T10:04:07.000Z</time>
      </trkpt>
      <trkpt lat="43.7416" lon="7.01815">
        <ele>841.6</ele>
        <time>2022-09-21T10:04:09.000Z</time>
      </trkpt>
      <trkpt lat="43.74165" lon="7.01813">
        <ele>841.4</ele>
        <time>2022-09-21T10:04:11.000Z</time>
      </trkpt>
      <trkpt lat="43.7417" lon="7.01811">
        <ele>841.5</ele>
        <time>2022-09-21T10:04:13.000Z</time>
      </trkpt>
      <trkpt lat="43.74177" lon="7.01808">
        <ele>842.2</ele>
        <time>2022-09-21T10:04:16.000Z</time>
      </trkpt>
      <trkpt lat="43.74182" lon="7.01807">
        <ele>842.7</ele>
        <time>2022-09-21T10:04:18.000Z</time>
      </trkpt>
      <trkpt lat="43.74188" lon="7.01805">
        <ele>842.8</ele>
        <time>2022-09-21T10:04:21.000Z</time>
      </trkpt>
      <trkpt lat="43.74194" lon="7.01804">
        <ele>843.2</ele>
        <time>2022-09-21T10:04:24.000Z</time>
      </trkpt>
      <trkpt lat="43.74199" lon="7.01803">
        <ele>844</ele>
        <time>2022-09-21T10:04:27.000Z</time>
      </trkpt>
      <trkpt lat="43.74205" lon="7.018">
        <ele>844.3</ele>
        <time>2022-09-21T10:04:30.000Z</time>
      </trkpt>
      <trkpt lat="43.74211" lon="7.01798">
        <ele>844.8</ele>
        <time>2022-09-21T10:04:33.000Z</time>
      </trkpt>
      <trkpt lat="43.74216" lon="7.01797">
        <ele>845.2</ele>
        <time>2022-09-21T10:04:36.000Z</time>
      </trkpt>
      <trkpt lat="43.7422" lon="7.01796">
        <ele>845.5</ele>
        <time>2022-09-21T10:04:39.000Z</time>
      </trkpt>
      <trkpt lat="43.74227" lon="7.01794">
        <ele>845.9</ele>
        <time>2022-09-21T10:04:42.000Z</time>
      </trkpt>
      <trkpt lat="43.74232" lon="7.01792">
        <ele>846.7</ele>
        <time>2022-09-21T10:04:45.000Z</time>
      </trkpt>
      <trkpt lat="43.74236" lon="7.01789">
        <ele>847.6</ele>
        <time>2022-09-21T10:04:49.000Z</time>
      </trkpt>
      <trkpt lat="43.74241" lon="7.01785">
        <ele>847.5</ele>
        <time>2022-09-21T10:04:53.000Z</time>
      </trkpt>
      <trkpt lat="43.74246" lon="7.01783">
        <ele>848.2</ele>
        <time>2022-09-21T10:04:57.000Z</time>
      </trkpt>
      <trkpt lat="43.74252" lon="7.01783">
        <ele>848.4</ele>
        <time>2022-09-21T10:05:00.000Z</time>
      </trkpt>
      <trkpt lat="43.74257" lon="7.01785">
        <ele>848.5</ele>
        <time>2022-09-21T10:05:03.000Z</time>
      </trkpt>
      <trkpt lat="43.74264" lon="7.01784">
        <ele>849.1</ele>
        <time>2022-09-21T10:05:06.000Z</time>
      </trkpt>
      <trkpt lat="43.74271" lon="7.01785">
        <ele>849.3</ele>
        <time>2022-09-21T10:05:09.000Z</time>
      </trkpt>
      <trkpt lat="43.74277" lon="7.01786">
        <ele>849.1</ele>
        <time>2022-09-21T10:05:11.000Z</time>
      </trkpt>
      <trkpt lat="43.74282" lon="7.01784">
        <ele>848.8</ele>
        <time>2022-09-21T10:05:13.000Z</time>
      </trkpt>
      <trkpt lat="43.74287" lon="7.01782">
        <ele>849.1</ele>
        <time>2022-09-21T10:05:15.000Z</time>
      </trkpt>
      <trkpt lat="43.74292" lon="7.01781">
        <ele>849.4</ele>
        <time>2022-09-21T10:05:18.000Z</time>
      </trkpt>
      <trkpt lat="43.74297" lon="7.01778">
        <ele>849.7</ele>
        <time>2022-09-21T10:05:21.000Z</time>
      </trkpt>
      <trkpt lat="43.74303" lon="7.01775">
        <ele>849.9</ele>
        <time>2022-09-21T10:05:24.000Z</time>
      </trkpt>
      <trkpt lat="43.74308" lon="7.01771">
        <ele>849.6</ele>
        <time>2022-09-21T10:05:26.000Z</time>
      </trkpt>
      <trkpt lat="43.74312" lon="7.01767">
        <ele>849.7</ele>
        <time>2022-09-21T10:05:28.000Z</time>
      </trkpt>
      <trkpt lat="43.74317" lon="7.01765">
        <ele>850</ele>
        <time>2022-09-21T10:05:30.000Z</time>
      </trkpt>
      <trkpt lat="43.74322" lon="7.01764">
        <ele>849.9</ele>
        <time>2022-09-21T10:05:32.000Z</time>
      </trkpt>
      <trkpt lat="43.74327" lon="7.01763">
        <ele>850.1</ele>
        <time>2022-09-21T10:05:34.000Z</time>
      </trkpt>
      <trkpt lat="43.74333" lon="7.01762">
        <ele>850.4</ele>
        <time>2022-09-21T10:05:36.000Z</time>
      </trkpt>
      <trkpt lat="43.74339" lon="7.01761">
        <ele>850.2</ele>
        <time>2022-09-21T10:05:38.000Z</time>
      </trkpt>
      <trkpt lat="43.74343" lon="7.01759">
        <ele>850.6</ele>
        <time>2022-09-21T10:05:40.000Z</time>
      </trkpt>
      <trkpt lat="43.74348" lon="7.01756">
        <ele>850.8</ele>
        <time>2022-09-21T10:05:42.000Z</time>
      </trkpt>
      <trkpt lat="43.74352" lon="7.01751">
        <ele>851.4</ele>
        <time>2022-09-21T10:05:44.000Z</time>
      </trkpt>
      <trkpt lat="43.74354" lon="7.01745">
        <ele>851.6</ele>
        <time>2022-09-21T10:05:46.000Z</time>
      </trkpt>
      <trkpt lat="43.74358" lon="7.0174">
        <ele>852.1</ele>
        <time>2022-09-21T10:05:49.000Z</time>
      </trkpt>
      <trkpt lat="43.74362" lon="7.01736">
        <ele>852.3</ele>
        <time>2022-09-21T10:05:51.000Z</time>
      </trkpt>
      <trkpt lat="43.74366" lon="7.01732">
        <ele>852.3</ele>
        <time>2022-09-21T10:05:53.000Z</time>
      </trkpt>
      <trkpt lat="43.7437" lon="7.01727">
        <ele>852.5</ele>
        <time>2022-09-21T10:05:56.000Z</time>
      </trkpt>
      <trkpt lat="43.74375" lon="7.01723">
        <ele>852.5</ele>
        <time>2022-09-21T10:05:59.000Z</time>
      </trkpt>
      <trkpt lat="43.7438" lon="7.01718">
        <ele>852.9</ele>
        <time>2022-09-21T10:06:02.000Z</time>
      </trkpt>
      <trkpt lat="43.74382" lon="7.01713">
        <ele>853.3</ele>
        <time>2022-09-21T10:06:04.000Z</time>
      </trkpt>
      <trkpt lat="43.74385" lon="7.01707">
        <ele>853.2</ele>
        <time>2022-09-21T10:06:07.000Z</time>
      </trkpt>
      <trkpt lat="43.7439" lon="7.01701">
        <ele>853.9</ele>
        <time>2022-09-21T10:06:10.000Z</time>
      </trkpt>
      <trkpt lat="43.74393" lon="7.01696">
        <ele>853.8</ele>
        <time>2022-09-21T10:06:12.000Z</time>
      </trkpt>
      <trkpt lat="43.74398" lon="7.01692">
        <ele>853.9</ele>
        <time>2022-09-21T10:06:14.000Z</time>
      </trkpt>
      <trkpt lat="43.74403" lon="7.0169">
        <ele>853.7</ele>
        <time>2022-09-21T10:06:16.000Z</time>
      </trkpt>
      <trkpt lat="43.74407" lon="7.01685">
        <ele>854.3</ele>
        <time>2022-09-21T10:06:18.000Z</time>
      </trkpt>
      <trkpt lat="43.74411" lon="7.0168">
        <ele>854.5</ele>
        <time>2022-09-21T10:06:20.000Z</time>
      </trkpt>
      <trkpt lat="43.74417" lon="7.01676">
        <ele>854.9</ele>
        <time>2022-09-21T10:06:22.000Z</time>
      </trkpt>
      <trkpt lat="43.74423" lon="7.01673">
        <ele>855.9</ele>
        <time>2022-09-21T10:06:25.000Z</time>
      </trkpt>
      <trkpt lat="43.74427" lon="7.01669">
        <ele>855.7</ele>
        <time>2022-09-21T10:06:27.000Z</time>
      </trkpt>
      <trkpt lat="43.74432" lon="7.01664">
        <ele>855.6</ele>
        <time>2022-09-21T10:06:29.000Z</time>
      </trkpt>
      <trkpt lat="43.74436" lon="7.01659">
        <ele>855.7</ele>
        <time>2022-09-21T10:06:31.000Z</time>
      </trkpt>
      <trkpt lat="43.74439" lon="7.01653">
        <ele>856.2</ele>
        <time>2022-09-21T10:06:33.000Z</time>
      </trkpt>
      <trkpt lat="43.74443" lon="7.01646">
        <ele>856.2</ele>
        <time>2022-09-21T10:06:35.000Z</time>
      </trkpt>
      <trkpt lat="43.74446" lon="7.0164">
        <ele>856</ele>
        <time>2022-09-21T10:06:37.000Z</time>
      </trkpt>
      <trkpt lat="43.74452" lon="7.01634">
        <ele>856</ele>
        <time>2022-09-21T10:06:39.000Z</time>
      </trkpt>
      <trkpt lat="43.74458" lon="7.01629">
        <ele>855.9</ele>
        <time>2022-09-21T10:06:41.000Z</time>
      </trkpt>
      <trkpt lat="43.74462" lon="7.01625">
        <ele>855.5</ele>
        <time>2022-09-21T10:06:43.000Z</time>
      </trkpt>
      <trkpt lat="43.74467" lon="7.0162">
        <ele>855.6</ele>
        <time>2022-09-21T10:06:45.000Z</time>
      </trkpt>
      <trkpt lat="43.74471" lon="7.01616">
        <ele>856.4</ele>
        <time>2022-09-21T10:06:47.000Z</time>
      </trkpt>
      <trkpt lat="43.74476" lon="7.01611">
        <ele>856.4</ele>
        <time>2022-09-21T10:06:49.000Z</time>
      </trkpt>
      <trkpt lat="43.74481" lon="7.01609">
        <ele>856.8</ele>
        <time>2022-09-21T10:06:51.000Z</time>
      </trkpt>
      <trkpt lat="43.74485" lon="7.01605">
        <ele>857.5</ele>
        <time>2022-09-21T10:06:54.000Z</time>
      </trkpt>
      <trkpt lat="43.74489" lon="7.01602">
        <ele>858.1</ele>
        <time>2022-09-21T10:06:56.000Z</time>
      </trkpt>
      <trkpt lat="43.74494" lon="7.01599">
        <ele>858.1</ele>
        <time>2022-09-21T10:06:58.000Z</time>
      </trkpt>
      <trkpt lat="43.745" lon="7.01598">
        <ele>858.7</ele>
        <time>2022-09-21T10:07:01.000Z</time>
      </trkpt>
      <trkpt lat="43.74505" lon="7.01592">
        <ele>858.9</ele>
        <time>2022-09-21T10:07:04.000Z</time>
      </trkpt>
      <trkpt lat="43.74508" lon="7.01587">
        <ele>859.3</ele>
        <time>2022-09-21T10:07:06.000Z</time>
      </trkpt>
      <trkpt lat="43.74513" lon="7.01579">
        <ele>859.4</ele>
        <time>2022-09-21T10:07:08.000Z</time>
      </trkpt>
      <trkpt lat="43.74518" lon="7.01574">
        <ele>859.6</ele>
        <time>2022-09-21T10:07:10.000Z</time>
      </trkpt>
      <trkpt lat="43.74522" lon="7.0157">
        <ele>859.4</ele>
        <time>2022-09-21T10:07:12.000Z</time>
      </trkpt>
      <trkpt lat="43.74526" lon="7.01565">
        <ele>859.2</ele>
        <time>2022-09-21T10:07:14.000Z</time>
      </trkpt>
      <trkpt lat="43.7453" lon="7.01559">
        <ele>860</ele>
        <time>2022-09-21T10:07:17.000Z</time>
      </trkpt>
      <trkpt lat="43.74536" lon="7.01553">
        <ele>860.3</ele>
        <time>2022-09-21T10:07:20.000Z</time>
      </trkpt>
      <trkpt lat="43.7454" lon="7.0155">
        <ele>860.4</ele>
        <time>2022-09-21T10:07:22.000Z</time>
      </trkpt>
      <trkpt lat="43.74545" lon="7.01548">
        <ele>860.9</ele>
        <time>2022-09-21T10:07:25.000Z</time>
      </trkpt>
      <trkpt lat="43.74552" lon="7.01547">
        <ele>861</ele>
        <time>2022-09-21T10:07:28.000Z</time>
      </trkpt>
      <trkpt lat="43.74559" lon="7.01547">
        <ele>861.3</ele>
        <time>2022-09-21T10:07:30.000Z</time>
      </trkpt>
      <trkpt lat="43.74564" lon="7.01547">
        <ele>861.7</ele>
        <time>2022-09-21T10:07:32.000Z</time>
      </trkpt>
      <trkpt lat="43.74569" lon="7.01546">
        <ele>861.4</ele>
        <time>2022-09-21T10:07:34.000Z</time>
      </trkpt>
      <trkpt lat="43.74575" lon="7.01543">
        <ele>861.4</ele>
        <time>2022-09-21T10:07:36.000Z</time>
      </trkpt>
      <trkpt lat="43.74581" lon="7.01542">
        <ele>861.7</ele>
        <time>2022-09-21T10:07:38.000Z</time>
      </trkpt>
      <trkpt lat="43.74587" lon="7.01542">
        <ele>861.9</ele>
        <time>2022-09-21T10:07:40.000Z</time>
      </trkpt>
      <trkpt lat="43.74592" lon="7.0154">
        <ele>861.8</ele>
        <time>2022-09-21T10:07:42.000Z</time>
      </trkpt>
      <trkpt lat="43.74598" lon="7.01539">
        <ele>862.9</ele>
        <time>2022-09-21T10:07:45.000Z</time>
      </trkpt>
      <trkpt lat="43.74603" lon="7.01537">
        <ele>863.5</ele>
        <time>2022-09-21T10:07:48.000Z</time>
      </trkpt>
      <trkpt lat="43.74607" lon="7.01533">
        <ele>863</ele>
        <time>2022-09-21T10:07:51.000Z</time>
      </trkpt>
      <trkpt lat="43.74613" lon="7.01533">
        <ele>863.5</ele>
        <time>2022-09-21T10:07:55.000Z</time>
      </trkpt>
      <trkpt lat="43.74618" lon="7.01533">
        <ele>863.7</ele>
        <time>2022-09-21T10:07:57.000Z</time>
      </trkpt>
      <trkpt lat="43.74623" lon="7.01532">
        <ele>863.6</ele>
        <time>2022-09-21T10:08:00.000Z</time>
      </trkpt>
      <trkpt lat="43.7463" lon="7.0153">
        <ele>864.5</ele>
        <time>2022-09-21T10:08:03.000Z</time>
      </trkpt>
      <trkpt lat="43.74635" lon="7.01529">
        <ele>864.5</ele>
        <time>2022-09-21T10:08:05.000Z</time>
      </trkpt>
      <trkpt lat="43.7464" lon="7.01528">
        <ele>865.1</ele>
        <time>2022-09-21T10:08:07.000Z</time>
      </trkpt>
      <trkpt lat="43.74645" lon="7.01526">
        <ele>865.7</ele>
        <time>2022-09-21T10:08:10.000Z</time>
      </trkpt>
      <trkpt lat="43.7465" lon="7.01523">
        <ele>866.1</ele>
        <time>2022-09-21T10:08:13.000Z</time>
      </trkpt>
      <trkpt lat="43.74655" lon="7.01519">
        <ele>866.9</ele>
        <time>2022-09-21T10:08:16.000Z</time>
      </trkpt>
      <trkpt lat="43.74659" lon="7.01515">
        <ele>866.8</ele>
        <time>2022-09-21T10:08:19.000Z</time>
      </trkpt>
      <trkpt lat="43.74664" lon="7.01512">
        <ele>867</ele>
        <time>2022-09-21T10:08:22.000Z</time>
      </trkpt>
      <trkpt lat="43.74669" lon="7.0151">
        <ele>867.7</ele>
        <time>2022-09-21T10:08:25.000Z</time>
      </trkpt>
      <trkpt lat="43.74673" lon="7.01506">
        <ele>868.3</ele>
        <time>2022-09-21T10:08:28.000Z</time>
      </trkpt>
      <trkpt lat="43.74676" lon="7.01501">
        <ele>868.7</ele>
        <time>2022-09-21T10:08:31.000Z</time>
      </trkpt>
      <trkpt lat="43.7468" lon="7.01495">
        <ele>869.1</ele>
        <time>2022-09-21T10:08:35.000Z</time>
      </trkpt>
      <trkpt lat="43.74685" lon="7.0149">
        <ele>869.2</ele>
        <time>2022-09-21T10:08:38.000Z</time>
      </trkpt>
      <trkpt lat="43.74688" lon="7.01484">
        <ele>869.8</ele>
        <time>2022-09-21T10:08:42.000Z</time>
      </trkpt>
      <trkpt lat="43.74692" lon="7.01478">
        <ele>870.3</ele>
        <time>2022-09-21T10:08:45.000Z</time>
      </trkpt>
      <trkpt lat="43.74696" lon="7.01473">
        <ele>870.6</ele>
        <time>2022-09-21T10:08:48.000Z</time>
      </trkpt>
      <trkpt lat="43.74699" lon="7.01466">
        <ele>871.6</ele>
        <time>2022-09-21T10:08:51.000Z</time>
      </trkpt>
      <trkpt lat="43.74701" lon="7.0146">
        <ele>872</ele>
        <time>2022-09-21T10:08:54.000Z</time>
      </trkpt>
      <trkpt lat="43.74704" lon="7.01452">
        <ele>872.1</ele>
        <time>2022-09-21T10:08:57.000Z</time>
      </trkpt>
      <trkpt lat="43.74708" lon="7.01445">
        <ele>872.9</ele>
        <time>2022-09-21T10:09:00.000Z</time>
      </trkpt>
      <trkpt lat="43.7471" lon="7.01438">
        <ele>873.1</ele>
        <time>2022-09-21T10:09:04.000Z</time>
      </trkpt>
      <trkpt lat="43.74714" lon="7.01434">
        <ele>873.5</ele>
        <time>2022-09-21T10:09:07.000Z</time>
      </trkpt>
      <trkpt lat="43.74716" lon="7.01428">
        <ele>874</ele>
        <time>2022-09-21T10:09:10.000Z</time>
      </trkpt>
      <trkpt lat="43.74718" lon="7.01422">
        <ele>874.7</ele>
        <time>2022-09-21T10:09:13.000Z</time>
      </trkpt>
      <trkpt lat="43.7472" lon="7.01417">
        <ele>874.9</ele>
        <time>2022-09-21T10:09:16.000Z</time>
      </trkpt>
      <trkpt lat="43.74724" lon="7.01412">
        <ele>874.7</ele>
        <time>2022-09-21T10:09:19.000Z</time>
      </trkpt>
      <trkpt lat="43.74729" lon="7.01407">
        <ele>874.8</ele>
        <time>2022-09-21T10:09:22.000Z</time>
      </trkpt>
      <trkpt lat="43.74734" lon="7.01402">
        <ele>874.7</ele>
        <time>2022-09-21T10:09:25.000Z</time>
      </trkpt>
      <trkpt lat="43.74741" lon="7.01401">
        <ele>874.6</ele>
        <time>2022-09-21T10:09:28.000Z</time>
      </trkpt>
      <trkpt lat="43.74747" lon="7.01402">
        <ele>874.3</ele>
        <time>2022-09-21T10:09:30.000Z</time>
      </trkpt>
      <trkpt lat="43.74752" lon="7.01405">
        <ele>873.9</ele>
        <time>2022-09-21T10:09:32.000Z</time>
      </trkpt>
      <trkpt lat="43.74756" lon="7.01412">
        <ele>873.6</ele>
        <time>2022-09-21T10:09:35.000Z</time>
      </trkpt>
      <trkpt lat="43.7476" lon="7.01416">
        <ele>874</ele>
        <time>2022-09-21T10:09:37.000Z</time>
      </trkpt>
      <trkpt lat="43.74763" lon="7.0142">
        <ele>874</ele>
        <time>2022-09-21T10:09:39.000Z</time>
      </trkpt>
      <trkpt lat="43.74767" lon="7.01425">
        <ele>874</ele>
        <time>2022-09-21T10:09:41.000Z</time>
      </trkpt>
      <trkpt lat="43.74771" lon="7.01429">
        <ele>874.2</ele>
        <time>2022-09-21T10:09:43.000Z</time>
      </trkpt>
      <trkpt lat="43.74774" lon="7.01434">
        <ele>874.3</ele>
        <time>2022-09-21T10:09:45.000Z</time>
      </trkpt>
      <trkpt lat="43.74777" lon="7.01439">
        <ele>874.3</ele>
        <time>2022-09-21T10:09:47.000Z</time>
      </trkpt>
      <trkpt lat="43.74782" lon="7.01445">
        <ele>874.5</ele>
        <time>2022-09-21T10:09:50.000Z</time>
      </trkpt>
      <trkpt lat="43.74786" lon="7.0145">
        <ele>875.2</ele>
        <time>2022-09-21T10:09:53.000Z</time>
      </trkpt>
      <trkpt lat="43.74789" lon="7.01454">
        <ele>875.3</ele>
        <time>2022-09-21T10:09:56.000Z</time>
      </trkpt>
      <trkpt lat="43.74794" lon="7.01458">
        <ele>876.6</ele>
        <time>2022-09-21T10:10:00.000Z</time>
      </trkpt>
      <trkpt lat="43.74799" lon="7.01461">
        <ele>876.6</ele>
        <time>2022-09-21T10:10:03.000Z</time>
      </trkpt>
      <trkpt lat="43.74805" lon="7.01467">
        <ele>876.9</ele>
        <time>2022-09-21T10:10:06.000Z</time>
      </trkpt>
      <trkpt lat="43.74809" lon="7.01474">
        <ele>876.7</ele>
        <time>2022-09-21T10:10:08.000Z</time>
      </trkpt>
      <trkpt lat="43.74813" lon="7.0148">
        <ele>876.4</ele>
        <time>2022-09-21T10:10:10.000Z</time>
      </trkpt>
      <trkpt lat="43.74816" lon="7.01486">
        <ele>876.1</ele>
        <time>2022-09-21T10:10:12.000Z</time>
      </trkpt>
      <trkpt lat="43.7482" lon="7.01492">
        <ele>876</ele>
        <time>2022-09-21T10:10:14.000Z</time>
      </trkpt>
      <trkpt lat="43.74824" lon="7.01498">
        <ele>875.7</ele>
        <time>2022-09-21T10:10:16.000Z</time>
      </trkpt>
      <trkpt lat="43.74828" lon="7.01503">
        <ele>875.6</ele>
        <time>2022-09-21T10:10:18.000Z</time>
      </trkpt>
      <trkpt lat="43.74832" lon="7.01509">
        <ele>875.5</ele>
        <time>2022-09-21T10:10:20.000Z</time>
      </trkpt>
      <trkpt lat="43.74837" lon="7.01516">
        <ele>875.5</ele>
        <time>2022-09-21T10:10:22.000Z</time>
      </trkpt>
      <trkpt lat="43.74841" lon="7.01522">
        <ele>875.7</ele>
        <time>2022-09-21T10:10:24.000Z</time>
      </trkpt>
      <trkpt lat="43.74845" lon="7.01528">
        <ele>876.1</ele>
        <time>2022-09-21T10:10:26.000Z</time>
      </trkpt>
      <trkpt lat="43.74848" lon="7.01533">
        <ele>876.3</ele>
        <time>2022-09-21T10:10:28.000Z</time>
      </trkpt>
      <trkpt lat="43.74851" lon="7.01537">
        <ele>876.5</ele>
        <time>2022-09-21T10:10:30.000Z</time>
      </trkpt>
      <trkpt lat="43.74854" lon="7.01543">
        <ele>877.8</ele>
        <time>2022-09-21T10:10:33.000Z</time>
      </trkpt>
      <trkpt lat="43.74857" lon="7.01549">
        <ele>877.7</ele>
        <time>2022-09-21T10:10:37.000Z</time>
      </trkpt>
      <trkpt lat="43.74861" lon="7.01553">
        <ele>878.3</ele>
        <time>2022-09-21T10:10:41.000Z</time>
      </trkpt>
      <trkpt lat="43.74864" lon="7.01559">
        <ele>879.2</ele>
        <time>2022-09-21T10:10:46.000Z</time>
      </trkpt>
      <trkpt lat="43.74868" lon="7.01562">
        <ele>879.4</ele>
        <time>2022-09-21T10:10:49.000Z</time>
      </trkpt>
      <trkpt lat="43.74873" lon="7.01565">
        <ele>880</ele>
        <time>2022-09-21T10:10:52.000Z</time>
      </trkpt>
      <trkpt lat="43.74877" lon="7.01569">
        <ele>880.3</ele>
        <time>2022-09-21T10:10:55.000Z</time>
      </trkpt>
      <trkpt lat="43.74882" lon="7.01573">
        <ele>880.9</ele>
        <time>2022-09-21T10:10:58.000Z</time>
      </trkpt>
      <trkpt lat="43.74887" lon="7.01578">
        <ele>881.2</ele>
        <time>2022-09-21T10:11:02.000Z</time>
      </trkpt>
      <trkpt lat="43.74892" lon="7.0158">
        <ele>881.9</ele>
        <time>2022-09-21T10:11:05.000Z</time>
      </trkpt>
      <trkpt lat="43.74896" lon="7.01581">
        <ele>881.5</ele>
        <time>2022-09-21T10:11:08.000Z</time>
      </trkpt>
      <trkpt lat="43.74901" lon="7.01583">
        <ele>882.5</ele>
        <time>2022-09-21T10:11:12.000Z</time>
      </trkpt>
      <trkpt lat="43.74907" lon="7.01586">
        <ele>883</ele>
        <time>2022-09-21T10:11:16.000Z</time>
      </trkpt>
      <trkpt lat="43.74912" lon="7.01588">
        <ele>883.6</ele>
        <time>2022-09-21T10:11:20.000Z</time>
      </trkpt>
      <trkpt lat="43.74917" lon="7.01589">
        <ele>884.3</ele>
        <time>2022-09-21T10:11:25.000Z</time>
      </trkpt>
      <trkpt lat="43.74922" lon="7.0159">
        <ele>885.4</ele>
        <time>2022-09-21T10:11:29.000Z</time>
      </trkpt>
      <trkpt lat="43.74927" lon="7.01592">
        <ele>886.3</ele>
        <time>2022-09-21T10:11:35.000Z</time>
      </trkpt>
      <trkpt lat="43.74932" lon="7.01596">
        <ele>887.2</ele>
        <time>2022-09-21T10:11:43.000Z</time>
      </trkpt>
      <trkpt lat="43.74936" lon="7.01598">
        <ele>887.5</ele>
        <time>2022-09-21T10:11:49.000Z</time>
      </trkpt>
      <trkpt lat="43.7494" lon="7.01601">
        <ele>888.4</ele>
        <time>2022-09-21T10:11:54.000Z</time>
      </trkpt>
      <trkpt lat="43.74945" lon="7.01602">
        <ele>889.2</ele>
        <time>2022-09-21T10:12:00.000Z</time>
      </trkpt>
      <trkpt lat="43.74949" lon="7.01599">
        <ele>890.4</ele>
        <time>2022-09-21T10:12:05.000Z</time>
      </trkpt>
      <trkpt lat="43.74954" lon="7.01602">
        <ele>890.9</ele>
        <time>2022-09-21T10:12:10.000Z</time>
      </trkpt>
      <trkpt lat="43.74959" lon="7.01602">
        <ele>891.2</ele>
        <time>2022-09-21T10:12:15.000Z</time>
      </trkpt>
      <trkpt lat="43.74963" lon="7.01606">
        <ele>892.7</ele>
        <time>2022-09-21T10:12:23.000Z</time>
      </trkpt>
      <trkpt lat="43.74968" lon="7.0161">
        <ele>893.8</ele>
        <time>2022-09-21T10:12:29.000Z</time>
      </trkpt>
      <trkpt lat="43.74973" lon="7.01612">
        <ele>895</ele>
        <time>2022-09-21T10:12:40.000Z</time>
      </trkpt>
      <trkpt lat="43.74978" lon="7.01614">
        <ele>895</ele>
        <time>2022-09-21T10:12:48.000Z</time>
      </trkpt>
      <trkpt lat="43.74982" lon="7.01615">
        <ele>896.3</ele>
        <time>2022-09-21T10:12:56.000Z</time>
      </trkpt>
      <trkpt lat="43.74981" lon="7.01617">
        <ele>896.3</ele>
        <time>2022-09-21T10:13:03.000Z</time>
      </trkpt>
      <trkpt lat="43.74981" lon="7.01617">
        <ele>896.4</ele>
        <time>2022-09-21T10:13:08.000Z</time>
      </trkpt>
      <trkpt lat="43.74986" lon="7.01616">
        <ele>897.4</ele>
        <time>2022-09-21T10:13:16.000Z</time>
      </trkpt>
      <trkpt lat="43.7499" lon="7.01617">
        <ele>897.9</ele>
        <time>2022-09-21T10:13:21.000Z</time>
      </trkpt>
      <trkpt lat="43.74994" lon="7.01618">
        <ele>898.8</ele>
        <time>2022-09-21T10:13:26.000Z</time>
      </trkpt>
      <trkpt lat="43.74995" lon="7.01618">
        <ele>898.8</ele>
        <time>2022-09-21T10:13:27.000Z</time>
      </trkpt>
      <trkpt lat="43.75" lon="7.01617">
        <ele>899.6</ele>
        <time>2022-09-21T10:13:33.000Z</time>
      </trkpt>
      <trkpt lat="43.75005" lon="7.01619">
        <ele>900.7</ele>
        <time>2022-09-21T10:13:39.000Z</time>
      </trkpt>
      <trkpt lat="43.75009" lon="7.01623">
        <ele>901</ele>
        <time>2022-09-21T10:13:42.000Z</time>
      </trkpt>
      <trkpt lat="43.75014" lon="7.01625">
        <ele>902</ele>
        <time>2022-09-21T10:13:46.000Z</time>
      </trkpt>
      <trkpt lat="43.75016" lon="7.01623">
        <ele>902.4</ele>
        <time>2022-09-21T10:13:52.000Z</time>
      </trkpt>
      <trkpt lat="43.75016" lon="7.01623">
        <ele>902.6</ele>
        <time>2022-09-21T10:13:53.000Z</time>
      </trkpt>
      <trkpt lat="43.75017" lon="7.01623">
        <ele>902.4</ele>
        <time>2022-09-21T10:13:58.000Z</time>
      </trkpt>
      <trkpt lat="43.75017" lon="7.01623">
        <ele>902.6</ele>
        <time>2022-09-21T10:14:00.000Z</time>
      </trkpt>
      <trkpt lat="43.75022" lon="7.01623">
        <ele>902.7</ele>
        <time>2022-09-21T10:14:04.000Z</time>
      </trkpt>
      <trkpt lat="43.75027" lon="7.01625">
        <ele>903.1</ele>
        <time>2022-09-21T10:14:07.000Z</time>
      </trkpt>
      <trkpt lat="43.75032" lon="7.01625">
        <ele>903.6</ele>
        <time>2022-09-21T10:14:10.000Z</time>
      </trkpt>
      <trkpt lat="43.75037" lon="7.01627">
        <ele>904.3</ele>
        <time>2022-09-21T10:14:14.000Z</time>
      </trkpt>
      <trkpt lat="43.75042" lon="7.01628">
        <ele>904.7</ele>
        <time>2022-09-21T10:14:17.000Z</time>
      </trkpt>
      <trkpt lat="43.75047" lon="7.01629">
        <ele>905.2</ele>
        <time>2022-09-21T10:14:21.000Z</time>
      </trkpt>
      <trkpt lat="43.75053" lon="7.01628">
        <ele>906.2</ele>
        <time>2022-09-21T10:14:26.000Z</time>
      </trkpt>
      <trkpt lat="43.75058" lon="7.01628">
        <ele>907</ele>
        <time>2022-09-21T10:14:31.000Z</time>
      </trkpt>
      <trkpt lat="43.75062" lon="7.01628">
        <ele>908.4</ele>
        <time>2022-09-21T10:14:36.000Z</time>
      </trkpt>
      <trkpt lat="43.75067" lon="7.01629">
        <ele>909.5</ele>
        <time>2022-09-21T10:14:49.000Z</time>
      </trkpt>
      <trkpt lat="43.75072" lon="7.0163">
        <ele>910.2</ele>
        <time>2022-09-21T10:14:54.000Z</time>
      </trkpt>
      <trkpt lat="43.75076" lon="7.01633">
        <ele>911.2</ele>
        <time>2022-09-21T10:15:02.000Z</time>
      </trkpt>
      <trkpt lat="43.75081" lon="7.01636">
        <ele>912.3</ele>
        <time>2022-09-21T10:15:07.000Z</time>
      </trkpt>
      <trkpt lat="43.75086" lon="7.01636">
        <ele>913.2</ele>
        <time>2022-09-21T10:15:11.000Z</time>
      </trkpt>
      <trkpt lat="43.75091" lon="7.01638">
        <ele>913.9</ele>
        <time>2022-09-21T10:15:17.000Z</time>
      </trkpt>
      <trkpt lat="43.75096" lon="7.01636">
        <ele>914.8</ele>
        <time>2022-09-21T10:15:22.000Z</time>
      </trkpt>
      <trkpt lat="43.75098" lon="7.01631">
        <ele>915.7</ele>
        <time>2022-09-21T10:15:28.000Z</time>
      </trkpt>
      <trkpt lat="43.75098" lon="7.01624">
        <ele>916.6</ele>
        <time>2022-09-21T10:15:32.000Z</time>
      </trkpt>
      <trkpt lat="43.751" lon="7.01618">
        <ele>917.4</ele>
        <time>2022-09-21T10:15:39.000Z</time>
      </trkpt>
      <trkpt lat="43.75104" lon="7.01613">
        <ele>918.4</ele>
        <time>2022-09-21T10:15:44.000Z</time>
      </trkpt>
      <trkpt lat="43.75102" lon="7.01606">
        <ele>918.2</ele>
        <time>2022-09-21T10:15:49.000Z</time>
      </trkpt>
      <trkpt lat="43.75102" lon="7.01605">
        <ele>917.9</ele>
        <time>2022-09-21T10:15:54.000Z</time>
      </trkpt>
      <trkpt lat="43.75103" lon="7.01604">
        <ele>918</ele>
        <time>2022-09-21T10:16:00.000Z</time>
      </trkpt>
      <trkpt lat="43.75103" lon="7.01603">
        <ele>918</ele>
        <time>2022-09-21T10:16:03.000Z</time>
      </trkpt>
      <trkpt lat="43.75102" lon="7.01603">
        <ele>917.9</ele>
        <time>2022-09-21T10:16:04.000Z</time>
      </trkpt>
      <trkpt lat="43.75102" lon="7.016">
        <ele>916.5</ele>
        <time>2022-09-21T10:16:13.000Z</time>
      </trkpt>
      <trkpt lat="43.75102" lon="7.016">
        <ele>916.4</ele>
        <time>2022-09-21T10:16:14.000Z</time>
      </trkpt>
      <trkpt lat="43.75102" lon="7.016">
        <ele>916.5</ele>
        <time>2022-09-21T10:16:16.000Z</time>
      </trkpt>
      <trkpt lat="43.75102" lon="7.01599">
        <ele>916.5</ele>
        <time>2022-09-21T10:16:19.000Z</time>
      </trkpt>
      <trkpt lat="43.75102" lon="7.01599">
        <ele>916.5</ele>
        <time>2022-09-21T10:16:20.000Z</time>
      </trkpt>
      <trkpt lat="43.75102" lon="7.01599">
        <ele>916.2</ele>
        <time>2022-09-21T10:16:22.000Z</time>
      </trkpt>
      <trkpt lat="43.75102" lon="7.01599">
        <ele>916.2</ele>
        <time>2022-09-21T10:16:23.000Z</time>
      </trkpt>
      <trkpt lat="43.75102" lon="7.01599">
        <ele>916</ele>
        <time>2022-09-21T10:17:21.000Z</time>
      </trkpt>
      <trkpt lat="43.75102" lon="7.01599">
        <ele>916</ele>
        <time>2022-09-21T10:17:22.000Z</time>
      </trkpt>
      <trkpt lat="43.75102" lon="7.01599">
        <ele>915.5</ele>
        <time>2022-09-21T10:18:15.000Z</time>
      </trkpt>
      <trkpt lat="43.75102" lon="7.01599">
        <ele>915.5</ele>
        <time>2022-09-21T10:18:16.000Z</time>
      </trkpt>
      <trkpt lat="43.75102" lon="7.01599">
        <ele>916.2</ele>
        <time>2022-09-21T10:20:31.000Z</time>
      </trkpt>
      <trkpt lat="43.75102" lon="7.01599">
        <ele>916</ele>
        <time>2022-09-21T10:20:32.000Z</time>
      </trkpt>
      <trkpt lat="43.75102" lon="7.01599">
        <ele>915.8</ele>
        <time>2022-09-21T10:21:28.000Z</time>
      </trkpt>
      <trkpt lat="43.75103" lon="7.01604">
        <ele>916.7</ele>
        <time>2022-09-21T10:21:33.000Z</time>
      </trkpt>
      <trkpt lat="43.75103" lon="7.01604">
        <ele>916.9</ele>
        <time>2022-09-21T10:21:34.000Z</time>
      </trkpt>
      <trkpt lat="43.75103" lon="7.01604">
        <ele>916.9</ele>
        <time>2022-09-21T10:21:35.000Z</time>
      </trkpt>
      <trkpt lat="43.75102" lon="7.01604">
        <ele>916.9</ele>
        <time>2022-09-21T10:21:36.000Z</time>
      </trkpt>
      <trkpt lat="43.75107" lon="7.01606">
        <ele>916.5</ele>
        <time>2022-09-21T10:21:43.000Z</time>
      </trkpt>
      <trkpt lat="43.75112" lon="7.01608">
        <ele>917</ele>
        <time>2022-09-21T10:21:46.000Z</time>
      </trkpt>
      <trkpt lat="43.75117" lon="7.01609">
        <ele>917.5</ele>
        <time>2022-09-21T10:21:49.000Z</time>
      </trkpt>
      <trkpt lat="43.75124" lon="7.01611">
        <ele>916.9</ele>
        <time>2022-09-21T10:21:52.000Z</time>
      </trkpt>
      <trkpt lat="43.7513" lon="7.01614">
        <ele>917.2</ele>
        <time>2022-09-21T10:21:54.000Z</time>
      </trkpt>
      <trkpt lat="43.75137" lon="7.01618">
        <ele>917.1</ele>
        <time>2022-09-21T10:21:56.000Z</time>
      </trkpt>
      <trkpt lat="43.75144" lon="7.01622">
        <ele>916.6</ele>
        <time>2022-09-21T10:21:58.000Z</time>
      </trkpt>
      <trkpt lat="43.75151" lon="7.01624">
        <ele>916.7</ele>
        <time>2022-09-21T10:22:00.000Z</time>
      </trkpt>
      <trkpt lat="43.75157" lon="7.01628">
        <ele>916.9</ele>
        <time>2022-09-21T10:22:02.000Z</time>
      </trkpt>
      <trkpt lat="43.75164" lon="7.01631">
        <ele>916.7</ele>
        <time>2022-09-21T10:22:04.000Z</time>
      </trkpt>
      <trkpt lat="43.7517" lon="7.01634">
        <ele>916.5</ele>
        <time>2022-09-21T10:22:06.000Z</time>
      </trkpt>
      <trkpt lat="43.75176" lon="7.01639">
        <ele>916.8</ele>
        <time>2022-09-21T10:22:08.000Z</time>
      </trkpt>
      <trkpt lat="43.75181" lon="7.01644">
        <ele>917.3</ele>
        <time>2022-09-21T10:22:10.000Z</time>
      </trkpt>
      <trkpt lat="43.75186" lon="7.0165">
        <ele>917</ele>
        <time>2022-09-21T10:22:12.000Z</time>
      </trkpt>
      <trkpt lat="43.75192" lon="7.01656">
        <ele>916.9</ele>
        <time>2022-09-21T10:22:14.000Z</time>
      </trkpt>
      <trkpt lat="43.75198" lon="7.01663">
        <ele>916.6</ele>
        <time>2022-09-21T10:22:16.000Z</time>
      </trkpt>
      <trkpt lat="43.75203" lon="7.01668">
        <ele>916.6</ele>
        <time>2022-09-21T10:22:18.000Z</time>
      </trkpt>
      <trkpt lat="43.75208" lon="7.01674">
        <ele>916.8</ele>
        <time>2022-09-21T10:22:20.000Z</time>
      </trkpt>
      <trkpt lat="43.75215" lon="7.01679">
        <ele>917</ele>
        <time>2022-09-21T10:22:22.000Z</time>
      </trkpt>
      <trkpt lat="43.75221" lon="7.01684">
        <ele>916.5</ele>
        <time>2022-09-21T10:22:24.000Z</time>
      </trkpt>
      <trkpt lat="43.75227" lon="7.01689">
        <ele>916.9</ele>
        <time>2022-09-21T10:22:26.000Z</time>
      </trkpt>
      <trkpt lat="43.75234" lon="7.01694">
        <ele>917.2</ele>
        <time>2022-09-21T10:22:28.000Z</time>
      </trkpt>
      <trkpt lat="43.7524" lon="7.01699">
        <ele>917.4</ele>
        <time>2022-09-21T10:22:30.000Z</time>
      </trkpt>
      <trkpt lat="43.75247" lon="7.01706">
        <ele>917.6</ele>
        <time>2022-09-21T10:22:32.000Z</time>
      </trkpt>
      <trkpt lat="43.75253" lon="7.01712">
        <ele>917.6</ele>
        <time>2022-09-21T10:22:34.000Z</time>
      </trkpt>
      <trkpt lat="43.7526" lon="7.01718">
        <ele>917.1</ele>
        <time>2022-09-21T10:22:36.000Z</time>
      </trkpt>
      <trkpt lat="43.75267" lon="7.01724">
        <ele>917.8</ele>
        <time>2022-09-21T10:22:38.000Z</time>
      </trkpt>
      <trkpt lat="43.75273" lon="7.01729">
        <ele>918.4</ele>
        <time>2022-09-21T10:22:40.000Z</time>
      </trkpt>
      <trkpt lat="43.75278" lon="7.01735">
        <ele>918.1</ele>
        <time>2022-09-21T10:22:42.000Z</time>
      </trkpt>
      <trkpt lat="43.75282" lon="7.01739">
        <ele>918.3</ele>
        <time>2022-09-21T10:22:44.000Z</time>
      </trkpt>
      <trkpt lat="43.75286" lon="7.01743">
        <ele>918.7</ele>
        <time>2022-09-21T10:22:46.000Z</time>
      </trkpt>
      <trkpt lat="43.75291" lon="7.01748">
        <ele>919.4</ele>
        <time>2022-09-21T10:22:49.000Z</time>
      </trkpt>
      <trkpt lat="43.75296" lon="7.01751">
        <ele>919</ele>
        <time>2022-09-21T10:22:51.000Z</time>
      </trkpt>
      <trkpt lat="43.75301" lon="7.01755">
        <ele>920.3</ele>
        <time>2022-09-21T10:22:54.000Z</time>
      </trkpt>
      <trkpt lat="43.75306" lon="7.01759">
        <ele>920.7</ele>
        <time>2022-09-21T10:22:57.000Z</time>
      </trkpt>
      <trkpt lat="43.75311" lon="7.01763">
        <ele>921.5</ele>
        <time>2022-09-21T10:23:00.000Z</time>
      </trkpt>
      <trkpt lat="43.75315" lon="7.01767">
        <ele>921.8</ele>
        <time>2022-09-21T10:23:03.000Z</time>
      </trkpt>
      <trkpt lat="43.75319" lon="7.01771">
        <ele>922.6</ele>
        <time>2022-09-21T10:23:06.000Z</time>
      </trkpt>
      <trkpt lat="43.75323" lon="7.01774">
        <ele>922.9</ele>
        <time>2022-09-21T10:23:09.000Z</time>
      </trkpt>
      <trkpt lat="43.75327" lon="7.01777">
        <ele>923.9</ele>
        <time>2022-09-21T10:23:12.000Z</time>
      </trkpt>
      <trkpt lat="43.75332" lon="7.0178">
        <ele>924.1</ele>
        <time>2022-09-21T10:23:15.000Z</time>
      </trkpt>
      <trkpt lat="43.75336" lon="7.01785">
        <ele>924.4</ele>
        <time>2022-09-21T10:23:18.000Z</time>
      </trkpt>
      <trkpt lat="43.75339" lon="7.01792">
        <ele>925.5</ele>
        <time>2022-09-21T10:23:22.000Z</time>
      </trkpt>
      <trkpt lat="43.7534" lon="7.01799">
        <ele>926.5</ele>
        <time>2022-09-21T10:23:25.000Z</time>
      </trkpt>
      <trkpt lat="43.75342" lon="7.01804">
        <ele>927.2</ele>
        <time>2022-09-21T10:23:28.000Z</time>
      </trkpt>
      <trkpt lat="43.75346" lon="7.0181">
        <ele>927.5</ele>
        <time>2022-09-21T10:23:32.000Z</time>
      </trkpt>
      <trkpt lat="43.75348" lon="7.01817">
        <ele>928.2</ele>
        <time>2022-09-21T10:23:36.000Z</time>
      </trkpt>
      <trkpt lat="43.75352" lon="7.01823">
        <ele>928.9</ele>
        <time>2022-09-21T10:23:40.000Z</time>
      </trkpt>
      <trkpt lat="43.75356" lon="7.01828">
        <ele>929.5</ele>
        <time>2022-09-21T10:23:43.000Z</time>
      </trkpt>
      <trkpt lat="43.75359" lon="7.01833">
        <ele>929.8</ele>
        <time>2022-09-21T10:23:46.000Z</time>
      </trkpt>
      <trkpt lat="43.75361" lon="7.0184">
        <ele>929.9</ele>
        <time>2022-09-21T10:23:50.000Z</time>
      </trkpt>
      <trkpt lat="43.75357" lon="7.01844">
        <ele>930.1</ele>
        <time>2022-09-21T10:23:52.000Z</time>
      </trkpt>
      <trkpt lat="43.75354" lon="7.01849">
        <ele>930.6</ele>
        <time>2022-09-21T10:23:54.000Z</time>
      </trkpt>
      <trkpt lat="43.75351" lon="7.01856">
        <ele>930.3</ele>
        <time>2022-09-21T10:23:57.000Z</time>
      </trkpt>
      <trkpt lat="43.7535" lon="7.01864">
        <ele>930.1</ele>
        <time>2022-09-21T10:24:00.000Z</time>
      </trkpt>
      <trkpt lat="43.7535" lon="7.01872">
        <ele>929.9</ele>
        <time>2022-09-21T10:24:03.000Z</time>
      </trkpt>
      <trkpt lat="43.75351" lon="7.01881">
        <ele>929.8</ele>
        <time>2022-09-21T10:24:05.000Z</time>
      </trkpt>
      <trkpt lat="43.75347" lon="7.01892">
        <ele>928.9</ele>
        <time>2022-09-21T10:24:07.000Z</time>
      </trkpt>
      <trkpt lat="43.75341" lon="7.019">
        <ele>928.1</ele>
        <time>2022-09-21T10:24:09.000Z</time>
      </trkpt>
      <trkpt lat="43.75338" lon="7.0191">
        <ele>928</ele>
        <time>2022-09-21T10:24:11.000Z</time>
      </trkpt>
      <trkpt lat="43.75337" lon="7.01919">
        <ele>927.5</ele>
        <time>2022-09-21T10:24:13.000Z</time>
      </trkpt>
      <trkpt lat="43.75336" lon="7.01928">
        <ele>927.6</ele>
        <time>2022-09-21T10:24:15.000Z</time>
      </trkpt>
      <trkpt lat="43.75337" lon="7.01938">
        <ele>927.7</ele>
        <time>2022-09-21T10:24:17.000Z</time>
      </trkpt>
      <trkpt lat="43.75338" lon="7.0195">
        <ele>927.4</ele>
        <time>2022-09-21T10:24:19.000Z</time>
      </trkpt>
      <trkpt lat="43.75338" lon="7.0196">
        <ele>927.1</ele>
        <time>2022-09-21T10:24:21.000Z</time>
      </trkpt>
      <trkpt lat="43.75339" lon="7.0197">
        <ele>927.2</ele>
        <time>2022-09-21T10:24:23.000Z</time>
      </trkpt>
      <trkpt lat="43.7534" lon="7.0198">
        <ele>926.8</ele>
        <time>2022-09-21T10:24:25.000Z</time>
      </trkpt>
      <trkpt lat="43.75341" lon="7.01991">
        <ele>926.6</ele>
        <time>2022-09-21T10:24:27.000Z</time>
      </trkpt>
      <trkpt lat="43.75342" lon="7.02001">
        <ele>926.7</ele>
        <time>2022-09-21T10:24:29.000Z</time>
      </trkpt>
      <trkpt lat="43.75342" lon="7.02013">
        <ele>925.8</ele>
        <time>2022-09-21T10:24:31.000Z</time>
      </trkpt>
      <trkpt lat="43.75343" lon="7.02025">
        <ele>925.9</ele>
        <time>2022-09-21T10:24:33.000Z</time>
      </trkpt>
      <trkpt lat="43.75344" lon="7.02037">
        <ele>926</ele>
        <time>2022-09-21T10:24:35.000Z</time>
      </trkpt>
      <trkpt lat="43.75344" lon="7.02049">
        <ele>925.8</ele>
        <time>2022-09-21T10:24:37.000Z</time>
      </trkpt>
      <trkpt lat="43.75346" lon="7.02061">
        <ele>925.7</ele>
        <time>2022-09-21T10:24:39.000Z</time>
      </trkpt>
      <trkpt lat="43.75348" lon="7.02073">
        <ele>925.7</ele>
        <time>2022-09-21T10:24:41.000Z</time>
      </trkpt>
      <trkpt lat="43.75349" lon="7.02084">
        <ele>925.9</ele>
        <time>2022-09-21T10:24:43.000Z</time>
      </trkpt>
      <trkpt lat="43.7535" lon="7.02096">
        <ele>925.9</ele>
        <time>2022-09-21T10:24:45.000Z</time>
      </trkpt>
      <trkpt lat="43.75351" lon="7.02107">
        <ele>925.7</ele>
        <time>2022-09-21T10:24:47.000Z</time>
      </trkpt>
      <trkpt lat="43.75353" lon="7.02119">
        <ele>925.6</ele>
        <time>2022-09-21T10:24:49.000Z</time>
      </trkpt>
      <trkpt lat="43.75355" lon="7.0213">
        <ele>925.5</ele>
        <time>2022-09-21T10:24:51.000Z</time>
      </trkpt>
      <trkpt lat="43.75358" lon="7.02141">
        <ele>925.4</ele>
        <time>2022-09-21T10:24:53.000Z</time>
      </trkpt>
      <trkpt lat="43.75362" lon="7.0215">
        <ele>925.8</ele>
        <time>2022-09-21T10:24:55.000Z</time>
      </trkpt>
      <trkpt lat="43.75368" lon="7.0216">
        <ele>925.4</ele>
        <time>2022-09-21T10:24:57.000Z</time>
      </trkpt>
      <trkpt lat="43.7537" lon="7.02166">
        <ele>925.5</ele>
        <time>2022-09-21T10:24:58.000Z</time>
      </trkpt>
      <trkpt lat="43.75372" lon="7.02177">
        <ele>925.9</ele>
        <time>2022-09-21T10:25:00.000Z</time>
      </trkpt>
      <trkpt lat="43.75372" lon="7.02189">
        <ele>926</ele>
        <time>2022-09-21T10:25:02.000Z</time>
      </trkpt>
      <trkpt lat="43.75372" lon="7.02198">
        <ele>925.7</ele>
        <time>2022-09-21T10:25:04.000Z</time>
      </trkpt>
      <trkpt lat="43.75372" lon="7.02206">
        <ele>926.5</ele>
        <time>2022-09-21T10:25:06.000Z</time>
      </trkpt>
      <trkpt lat="43.75372" lon="7.02214">
        <ele>927.1</ele>
        <time>2022-09-21T10:25:08.000Z</time>
      </trkpt>
      <trkpt lat="43.75371" lon="7.02222">
        <ele>927.3</ele>
        <time>2022-09-21T10:25:10.000Z</time>
      </trkpt>
      <trkpt lat="43.75369" lon="7.0223">
        <ele>927.5</ele>
        <time>2022-09-21T10:25:12.000Z</time>
      </trkpt>
      <trkpt lat="43.75368" lon="7.02237">
        <ele>928.1</ele>
        <time>2022-09-21T10:25:14.000Z</time>
      </trkpt>
      <trkpt lat="43.75367" lon="7.02245">
        <ele>928.4</ele>
        <time>2022-09-21T10:25:16.000Z</time>
      </trkpt>
      <trkpt lat="43.75367" lon="7.02252">
        <ele>928.5</ele>
        <time>2022-09-21T10:25:18.000Z</time>
      </trkpt>
      <trkpt lat="43.75369" lon="7.02259">
        <ele>928.8</ele>
        <time>2022-09-21T10:25:20.000Z</time>
      </trkpt>
      <trkpt lat="43.75371" lon="7.02266">
        <ele>929</ele>
        <time>2022-09-21T10:25:22.000Z</time>
      </trkpt>
      <trkpt lat="43.75373" lon="7.02274">
        <ele>929.3</ele>
        <time>2022-09-21T10:25:24.000Z</time>
      </trkpt>
      <trkpt lat="43.75376" lon="7.02282">
        <ele>929.2</ele>
        <time>2022-09-21T10:25:26.000Z</time>
      </trkpt>
      <trkpt lat="43.75378" lon="7.0229">
        <ele>929.1</ele>
        <time>2022-09-21T10:25:28.000Z</time>
      </trkpt>
      <trkpt lat="43.75381" lon="7.02297">
        <ele>929.6</ele>
        <time>2022-09-21T10:25:30.000Z</time>
      </trkpt>
      <trkpt lat="43.75384" lon="7.02304">
        <ele>930.3</ele>
        <time>2022-09-21T10:25:32.000Z</time>
      </trkpt>
      <trkpt lat="43.75387" lon="7.02311">
        <ele>930.4</ele>
        <time>2022-09-21T10:25:34.000Z</time>
      </trkpt>
      <trkpt lat="43.7539" lon="7.02318">
        <ele>930.2</ele>
        <time>2022-09-21T10:25:36.000Z</time>
      </trkpt>
      <trkpt lat="43.75393" lon="7.02327">
        <ele>930.2</ele>
        <time>2022-09-21T10:25:38.000Z</time>
      </trkpt>
      <trkpt lat="43.75397" lon="7.02336">
        <ele>930</ele>
        <time>2022-09-21T10:25:43.000Z</time>
      </trkpt>
      <trkpt lat="43.75401" lon="7.0234">
        <ele>929.9</ele>
        <time>2022-09-21T10:25:44.000Z</time>
      </trkpt>
      <trkpt lat="43.75405" lon="7.02344">
        <ele>930.2</ele>
        <time>2022-09-21T10:25:45.000Z</time>
      </trkpt>
      <trkpt lat="43.7541" lon="7.02351">
        <ele>930.8</ele>
        <time>2022-09-21T10:25:47.000Z</time>
      </trkpt>
      <trkpt lat="43.75415" lon="7.02359">
        <ele>930.8</ele>
        <time>2022-09-21T10:25:49.000Z</time>
      </trkpt>
      <trkpt lat="43.7542" lon="7.02367">
        <ele>931.1</ele>
        <time>2022-09-21T10:25:51.000Z</time>
      </trkpt>
      <trkpt lat="43.75423" lon="7.02376">
        <ele>931.4</ele>
        <time>2022-09-21T10:25:53.000Z</time>
      </trkpt>
      <trkpt lat="43.75426" lon="7.02385">
        <ele>931.6</ele>
        <time>2022-09-21T10:25:55.000Z</time>
      </trkpt>
      <trkpt lat="43.75431" lon="7.02392">
        <ele>931.3</ele>
        <time>2022-09-21T10:25:57.000Z</time>
      </trkpt>
      <trkpt lat="43.75436" lon="7.02401">
        <ele>931.2</ele>
        <time>2022-09-21T10:25:59.000Z</time>
      </trkpt>
      <trkpt lat="43.75443" lon="7.02408">
        <ele>930.7</ele>
        <time>2022-09-21T10:26:01.000Z</time>
      </trkpt>
      <trkpt lat="43.7545" lon="7.02415">
        <ele>930.7</ele>
        <time>2022-09-21T10:26:03.000Z</time>
      </trkpt>
      <trkpt lat="43.75457" lon="7.02421">
        <ele>930.8</ele>
        <time>2022-09-21T10:26:05.000Z</time>
      </trkpt>
      <trkpt lat="43.75463" lon="7.02426">
        <ele>931.2</ele>
        <time>2022-09-21T10:26:07.000Z</time>
      </trkpt>
      <trkpt lat="43.75469" lon="7.0243">
        <ele>932</ele>
        <time>2022-09-21T10:26:09.000Z</time>
      </trkpt>
      <trkpt lat="43.75475" lon="7.02435">
        <ele>931.7</ele>
        <time>2022-09-21T10:26:11.000Z</time>
      </trkpt>
      <trkpt lat="43.75479" lon="7.02442">
        <ele>932.1</ele>
        <time>2022-09-21T10:26:13.000Z</time>
      </trkpt>
      <trkpt lat="43.75483" lon="7.02448">
        <ele>932.4</ele>
        <time>2022-09-21T10:26:15.000Z</time>
      </trkpt>
      <trkpt lat="43.75489" lon="7.02453">
        <ele>932.8</ele>
        <time>2022-09-21T10:26:17.000Z</time>
      </trkpt>
      <trkpt lat="43.75495" lon="7.02456">
        <ele>932.8</ele>
        <time>2022-09-21T10:26:19.000Z</time>
      </trkpt>
      <trkpt lat="43.75503" lon="7.02459">
        <ele>932.3</ele>
        <time>2022-09-21T10:26:21.000Z</time>
      </trkpt>
      <trkpt lat="43.75512" lon="7.02461">
        <ele>932.5</ele>
        <time>2022-09-21T10:26:23.000Z</time>
      </trkpt>
      <trkpt lat="43.7552" lon="7.02465">
        <ele>932.6</ele>
        <time>2022-09-21T10:26:25.000Z</time>
      </trkpt>
      <trkpt lat="43.75527" lon="7.02471">
        <ele>931.9</ele>
        <time>2022-09-21T10:26:27.000Z</time>
      </trkpt>
      <trkpt lat="43.75535" lon="7.02476">
        <ele>931.9</ele>
        <time>2022-09-21T10:26:29.000Z</time>
      </trkpt>
      <trkpt lat="43.75543" lon="7.0248">
        <ele>931.3</ele>
        <time>2022-09-21T10:26:31.000Z</time>
      </trkpt>
      <trkpt lat="43.75549" lon="7.02482">
        <ele>931.8</ele>
        <time>2022-09-21T10:26:33.000Z</time>
      </trkpt>
      <trkpt lat="43.75556" lon="7.02483">
        <ele>931.4</ele>
        <time>2022-09-21T10:26:35.000Z</time>
      </trkpt>
      <trkpt lat="43.75563" lon="7.02486">
        <ele>930.3</ele>
        <time>2022-09-21T10:26:37.000Z</time>
      </trkpt>
      <trkpt lat="43.7557" lon="7.0249">
        <ele>930</ele>
        <time>2022-09-21T10:26:39.000Z</time>
      </trkpt>
      <trkpt lat="43.75577" lon="7.02495">
        <ele>930.7</ele>
        <time>2022-09-21T10:26:41.000Z</time>
      </trkpt>
      <trkpt lat="43.75584" lon="7.025">
        <ele>930</ele>
        <time>2022-09-21T10:26:43.000Z</time>
      </trkpt>
      <trkpt lat="43.75591" lon="7.02506">
        <ele>929.7</ele>
        <time>2022-09-21T10:26:45.000Z</time>
      </trkpt>
      <trkpt lat="43.75597" lon="7.02513">
        <ele>929.3</ele>
        <time>2022-09-21T10:26:47.000Z</time>
      </trkpt>
      <trkpt lat="43.75604" lon="7.02519">
        <ele>929</ele>
        <time>2022-09-21T10:26:49.000Z</time>
      </trkpt>
      <trkpt lat="43.7561" lon="7.02526">
        <ele>929.1</ele>
        <time>2022-09-21T10:26:51.000Z</time>
      </trkpt>
      <trkpt lat="43.75616" lon="7.02533">
        <ele>928.9</ele>
        <time>2022-09-21T10:26:53.000Z</time>
      </trkpt>
      <trkpt lat="43.75622" lon="7.0254">
        <ele>929.5</ele>
        <time>2022-09-21T10:26:55.000Z</time>
      </trkpt>
      <trkpt lat="43.75627" lon="7.02546">
        <ele>929.3</ele>
        <time>2022-09-21T10:26:57.000Z</time>
      </trkpt>
      <trkpt lat="43.75632" lon="7.02553">
        <ele>929.7</ele>
        <time>2022-09-21T10:26:59.000Z</time>
      </trkpt>
      <trkpt lat="43.75637" lon="7.02559">
        <ele>929.4</ele>
        <time>2022-09-21T10:27:01.000Z</time>
      </trkpt>
      <trkpt lat="43.75643" lon="7.02566">
        <ele>929.9</ele>
        <time>2022-09-21T10:27:03.000Z</time>
      </trkpt>
      <trkpt lat="43.75648" lon="7.02573">
        <ele>929.3</ele>
        <time>2022-09-21T10:27:05.000Z</time>
      </trkpt>
      <trkpt lat="43.75654" lon="7.02577">
        <ele>928.8</ele>
        <time>2022-09-21T10:27:07.000Z</time>
      </trkpt>
      <trkpt lat="43.75661" lon="7.02582">
        <ele>928.8</ele>
        <time>2022-09-21T10:27:09.000Z</time>
      </trkpt>
      <trkpt lat="43.75667" lon="7.02589">
        <ele>929.1</ele>
        <time>2022-09-21T10:27:11.000Z</time>
      </trkpt>
      <trkpt lat="43.75673" lon="7.02598">
        <ele>928.1</ele>
        <time>2022-09-21T10:27:13.000Z</time>
      </trkpt>
      <trkpt lat="43.75678" lon="7.02607">
        <ele>926.9</ele>
        <time>2022-09-21T10:27:15.000Z</time>
      </trkpt>
      <trkpt lat="43.75683" lon="7.02615">
        <ele>927.3</ele>
        <time>2022-09-21T10:27:17.000Z</time>
      </trkpt>
      <trkpt lat="43.75688" lon="7.02624">
        <ele>927.3</ele>
        <time>2022-09-21T10:27:19.000Z</time>
      </trkpt>
      <trkpt lat="43.75691" lon="7.02631">
        <ele>927.6</ele>
        <time>2022-09-21T10:27:21.000Z</time>
      </trkpt>
      <trkpt lat="43.75695" lon="7.02638">
        <ele>927.9</ele>
        <time>2022-09-21T10:27:23.000Z</time>
      </trkpt>
      <trkpt lat="43.75699" lon="7.02646">
        <ele>927.4</ele>
        <time>2022-09-21T10:27:25.000Z</time>
      </trkpt>
      <trkpt lat="43.75701" lon="7.02655">
        <ele>927.4</ele>
        <time>2022-09-21T10:27:27.000Z</time>
      </trkpt>
      <trkpt lat="43.75701" lon="7.02664">
        <ele>927.3</ele>
        <time>2022-09-21T10:27:29.000Z</time>
      </trkpt>
      <trkpt lat="43.75705" lon="7.02671">
        <ele>926.1</ele>
        <time>2022-09-21T10:27:31.000Z</time>
      </trkpt>
      <trkpt lat="43.75709" lon="7.02679">
        <ele>925.8</ele>
        <time>2022-09-21T10:27:33.000Z</time>
      </trkpt>
      <trkpt lat="43.75713" lon="7.02688">
        <ele>924.9</ele>
        <time>2022-09-21T10:27:35.000Z</time>
      </trkpt>
      <trkpt lat="43.75717" lon="7.02698">
        <ele>924</ele>
        <time>2022-09-21T10:27:37.000Z</time>
      </trkpt>
      <trkpt lat="43.7572" lon="7.02703">
        <ele>923.5</ele>
        <time>2022-09-21T10:27:38.000Z</time>
      </trkpt>
      <trkpt lat="43.75722" lon="7.02709">
        <ele>923.1</ele>
        <time>2022-09-21T10:27:39.000Z</time>
      </trkpt>
      <trkpt lat="43.75724" lon="7.02715">
        <ele>923</ele>
        <time>2022-09-21T10:27:40.000Z</time>
      </trkpt>
      <trkpt lat="43.75725" lon="7.02722">
        <ele>923.3</ele>
        <time>2022-09-21T10:27:41.000Z</time>
      </trkpt>
      <trkpt lat="43.75724" lon="7.02729">
        <ele>923.1</ele>
        <time>2022-09-21T10:27:42.000Z</time>
      </trkpt>
      <trkpt lat="43.7572" lon="7.02739">
        <ele>922.4</ele>
        <time>2022-09-21T10:27:44.000Z</time>
      </trkpt>
      <trkpt lat="43.75717" lon="7.02751">
        <ele>921.7</ele>
        <time>2022-09-21T10:27:46.000Z</time>
      </trkpt>
      <trkpt lat="43.75715" lon="7.02763">
        <ele>922.1</ele>
        <time>2022-09-21T10:27:48.000Z</time>
      </trkpt>
      <trkpt lat="43.75716" lon="7.02769">
        <ele>921.9</ele>
        <time>2022-09-21T10:27:49.000Z</time>
      </trkpt>
      <trkpt lat="43.75716" lon="7.02781">
        <ele>920.9</ele>
        <time>2022-09-21T10:27:51.000Z</time>
      </trkpt>
      <trkpt lat="43.75717" lon="7.02792">
        <ele>920.6</ele>
        <time>2022-09-21T10:27:53.000Z</time>
      </trkpt>
      <trkpt lat="43.75718" lon="7.02804">
        <ele>920.7</ele>
        <time>2022-09-21T10:27:55.000Z</time>
      </trkpt>
      <trkpt lat="43.75718" lon="7.0281">
        <ele>920.6</ele>
        <time>2022-09-21T10:27:56.000Z</time>
      </trkpt>
      <trkpt lat="43.75719" lon="7.02817">
        <ele>920.3</ele>
        <time>2022-09-21T10:27:57.000Z</time>
      </trkpt>
      <trkpt lat="43.75719" lon="7.02824">
        <ele>920.1</ele>
        <time>2022-09-21T10:27:58.000Z</time>
      </trkpt>
      <trkpt lat="43.75718" lon="7.0283">
        <ele>920.1</ele>
        <time>2022-09-21T10:27:59.000Z</time>
      </trkpt>
      <trkpt lat="43.75717" lon="7.02842">
        <ele>919.4</ele>
        <time>2022-09-21T10:28:01.000Z</time>
      </trkpt>
      <trkpt lat="43.75715" lon="7.02853">
        <ele>919.3</ele>
        <time>2022-09-21T10:28:03.000Z</time>
      </trkpt>
      <trkpt lat="43.75713" lon="7.02864">
        <ele>919.4</ele>
        <time>2022-09-21T10:28:05.000Z</time>
      </trkpt>
      <trkpt lat="43.75711" lon="7.02874">
        <ele>919.6</ele>
        <time>2022-09-21T10:28:07.000Z</time>
      </trkpt>
      <trkpt lat="43.7571" lon="7.02884">
        <ele>920.1</ele>
        <time>2022-09-21T10:28:09.000Z</time>
      </trkpt>
      <trkpt lat="43.75709" lon="7.02894">
        <ele>920.7</ele>
        <time>2022-09-21T10:28:11.000Z</time>
      </trkpt>
      <trkpt lat="43.75707" lon="7.02903">
        <ele>920.9</ele>
        <time>2022-09-21T10:28:13.000Z</time>
      </trkpt>
      <trkpt lat="43.75706" lon="7.02912">
        <ele>920.6</ele>
        <time>2022-09-21T10:28:15.000Z</time>
      </trkpt>
      <trkpt lat="43.75704" lon="7.0292">
        <ele>920.8</ele>
        <time>2022-09-21T10:28:17.000Z</time>
      </trkpt>
      <trkpt lat="43.75702" lon="7.02927">
        <ele>920.8</ele>
        <time>2022-09-21T10:28:19.000Z</time>
      </trkpt>
      <trkpt lat="43.757" lon="7.02934">
        <ele>922.5</ele>
        <time>2022-09-21T10:28:22.000Z</time>
      </trkpt>
      <trkpt lat="43.75698" lon="7.0294">
        <ele>923.5</ele>
        <time>2022-09-21T10:28:25.000Z</time>
      </trkpt>
      <trkpt lat="43.75696" lon="7.02948">
        <ele>924</ele>
        <time>2022-09-21T10:28:28.000Z</time>
      </trkpt>
      <trkpt lat="43.75694" lon="7.02955">
        <ele>924.4</ele>
        <time>2022-09-21T10:28:31.000Z</time>
      </trkpt>
      <trkpt lat="43.7569" lon="7.02961">
        <ele>924.9</ele>
        <time>2022-09-21T10:28:34.000Z</time>
      </trkpt>
      <trkpt lat="43.75685" lon="7.02965">
        <ele>925.8</ele>
        <time>2022-09-21T10:28:37.000Z</time>
      </trkpt>
      <trkpt lat="43.75682" lon="7.0297">
        <ele>925</ele>
        <time>2022-09-21T10:28:39.000Z</time>
      </trkpt>
      <trkpt lat="43.75679" lon="7.02979">
        <ele>924.8</ele>
        <time>2022-09-21T10:28:41.000Z</time>
      </trkpt>
      <trkpt lat="43.75677" lon="7.02987">
        <ele>924.7</ele>
        <time>2022-09-21T10:28:43.000Z</time>
      </trkpt>
      <trkpt lat="43.75675" lon="7.02993">
        <ele>924.9</ele>
        <time>2022-09-21T10:28:45.000Z</time>
      </trkpt>
      <trkpt lat="43.75672" lon="7.02999">
        <ele>925.5</ele>
        <time>2022-09-21T10:28:48.000Z</time>
      </trkpt>
      <trkpt lat="43.75668" lon="7.03005">
        <ele>925.5</ele>
        <time>2022-09-21T10:28:51.000Z</time>
      </trkpt>
      <trkpt lat="43.75664" lon="7.03009">
        <ele>926.3</ele>
        <time>2022-09-21T10:28:54.000Z</time>
      </trkpt>
      <trkpt lat="43.75661" lon="7.03014">
        <ele>926.7</ele>
        <time>2022-09-21T10:28:57.000Z</time>
      </trkpt>
      <trkpt lat="43.75658" lon="7.0302">
        <ele>927</ele>
        <time>2022-09-21T10:29:00.000Z</time>
      </trkpt>
      <trkpt lat="43.75657" lon="7.03028">
        <ele>927.3</ele>
        <time>2022-09-21T10:29:03.000Z</time>
      </trkpt>
      <trkpt lat="43.75655" lon="7.03035">
        <ele>927.8</ele>
        <time>2022-09-21T10:29:06.000Z</time>
      </trkpt>
      <trkpt lat="43.75653" lon="7.03043">
        <ele>927.7</ele>
        <time>2022-09-21T10:29:09.000Z</time>
      </trkpt>
      <trkpt lat="43.75655" lon="7.03051">
        <ele>928.2</ele>
        <time>2022-09-21T10:29:13.000Z</time>
      </trkpt>
      <trkpt lat="43.75657" lon="7.03059">
        <ele>928.5</ele>
        <time>2022-09-21T10:29:16.000Z</time>
      </trkpt>
      <trkpt lat="43.75658" lon="7.03067">
        <ele>928.7</ele>
        <time>2022-09-21T10:29:19.000Z</time>
      </trkpt>
      <trkpt lat="43.75659" lon="7.03075">
        <ele>928.7</ele>
        <time>2022-09-21T10:29:22.000Z</time>
      </trkpt>
      <trkpt lat="43.7566" lon="7.03083">
        <ele>928.9</ele>
        <time>2022-09-21T10:29:25.000Z</time>
      </trkpt>
      <trkpt lat="43.75663" lon="7.03088">
        <ele>928.6</ele>
        <time>2022-09-21T10:29:27.000Z</time>
      </trkpt>
      <trkpt lat="43.75663" lon="7.03096">
        <ele>928.6</ele>
        <time>2022-09-21T10:29:29.000Z</time>
      </trkpt>
      <trkpt lat="43.75662" lon="7.03103">
        <ele>928.7</ele>
        <time>2022-09-21T10:29:31.000Z</time>
      </trkpt>
      <trkpt lat="43.75658" lon="7.0311">
        <ele>928.7</ele>
        <time>2022-09-21T10:29:34.000Z</time>
      </trkpt>
      <trkpt lat="43.75655" lon="7.03118">
        <ele>929.1</ele>
        <time>2022-09-21T10:29:37.000Z</time>
      </trkpt>
      <trkpt lat="43.75653" lon="7.03125">
        <ele>929.4</ele>
        <time>2022-09-21T10:29:40.000Z</time>
      </trkpt>
      <trkpt lat="43.75654" lon="7.03132">
        <ele>929.9</ele>
        <time>2022-09-21T10:29:44.000Z</time>
      </trkpt>
      <trkpt lat="43.75655" lon="7.0314">
        <ele>929.9</ele>
        <time>2022-09-21T10:29:48.000Z</time>
      </trkpt>
      <trkpt lat="43.75655" lon="7.03147">
        <ele>929.8</ele>
        <time>2022-09-21T10:29:51.000Z</time>
      </trkpt>
      <trkpt lat="43.75653" lon="7.03155">
        <ele>929.7</ele>
        <time>2022-09-21T10:29:54.000Z</time>
      </trkpt>
      <trkpt lat="43.7565" lon="7.03162">
        <ele>930.1</ele>
        <time>2022-09-21T10:29:57.000Z</time>
      </trkpt>
      <trkpt lat="43.75646" lon="7.03166">
        <ele>930.8</ele>
        <time>2022-09-21T10:30:00.000Z</time>
      </trkpt>
      <trkpt lat="43.75645" lon="7.03174">
        <ele>931</ele>
        <time>2022-09-21T10:30:04.000Z</time>
      </trkpt>
      <trkpt lat="43.75647" lon="7.03181">
        <ele>930.8</ele>
        <time>2022-09-21T10:30:06.000Z</time>
      </trkpt>
      <trkpt lat="43.75649" lon="7.03188">
        <ele>930.8</ele>
        <time>2022-09-21T10:30:08.000Z</time>
      </trkpt>
      <trkpt lat="43.75652" lon="7.03196">
        <ele>930.3</ele>
        <time>2022-09-21T10:30:10.000Z</time>
      </trkpt>
      <trkpt lat="43.75653" lon="7.03204">
        <ele>930.1</ele>
        <time>2022-09-21T10:30:12.000Z</time>
      </trkpt>
      <trkpt lat="43.75654" lon="7.03211">
        <ele>929.9</ele>
        <time>2022-09-21T10:30:14.000Z</time>
      </trkpt>
      <trkpt lat="43.75656" lon="7.03218">
        <ele>929.6</ele>
        <time>2022-09-21T10:30:16.000Z</time>
      </trkpt>
      <trkpt lat="43.75659" lon="7.03224">
        <ele>929.7</ele>
        <time>2022-09-21T10:30:18.000Z</time>
      </trkpt>
      <trkpt lat="43.75662" lon="7.03232">
        <ele>929.5</ele>
        <time>2022-09-21T10:30:20.000Z</time>
      </trkpt>
      <trkpt lat="43.75666" lon="7.0324">
        <ele>929.5</ele>
        <time>2022-09-21T10:30:22.000Z</time>
      </trkpt>
      <trkpt lat="43.7567" lon="7.03248">
        <ele>929.3</ele>
        <time>2022-09-21T10:30:24.000Z</time>
      </trkpt>
      <trkpt lat="43.75674" lon="7.03257">
        <ele>929.1</ele>
        <time>2022-09-21T10:30:26.000Z</time>
      </trkpt>
      <trkpt lat="43.75679" lon="7.03266">
        <ele>928.7</ele>
        <time>2022-09-21T10:30:28.000Z</time>
      </trkpt>
      <trkpt lat="43.75684" lon="7.03275">
        <ele>927.5</ele>
        <time>2022-09-21T10:30:30.000Z</time>
      </trkpt>
      <trkpt lat="43.75687" lon="7.0328">
        <ele>927.9</ele>
        <time>2022-09-21T10:30:31.000Z</time>
      </trkpt>
      <trkpt lat="43.75689" lon="7.03286">
        <ele>927.9</ele>
        <time>2022-09-21T10:30:32.000Z</time>
      </trkpt>
      <trkpt lat="43.75691" lon="7.03292">
        <ele>927.8</ele>
        <time>2022-09-21T10:30:33.000Z</time>
      </trkpt>
      <trkpt lat="43.75693" lon="7.03304">
        <ele>927</ele>
        <time>2022-09-21T10:30:35.000Z</time>
      </trkpt>
      <trkpt lat="43.75694" lon="7.03315">
        <ele>927</ele>
        <time>2022-09-21T10:30:37.000Z</time>
      </trkpt>
      <trkpt lat="43.75696" lon="7.03325">
        <ele>926.9</ele>
        <time>2022-09-21T10:30:39.000Z</time>
      </trkpt>
      <trkpt lat="43.75701" lon="7.03337">
        <ele>926.6</ele>
        <time>2022-09-21T10:30:41.000Z</time>
      </trkpt>
      <trkpt lat="43.75704" lon="7.03342">
        <ele>926.3</ele>
        <time>2022-09-21T10:30:42.000Z</time>
      </trkpt>
      <trkpt lat="43.75707" lon="7.03347">
        <ele>926.4</ele>
        <time>2022-09-21T10:30:43.000Z</time>
      </trkpt>
      <trkpt lat="43.75709" lon="7.03353">
        <ele>926.7</ele>
        <time>2022-09-21T10:30:44.000Z</time>
      </trkpt>
      <trkpt lat="43.75714" lon="7.0336">
        <ele>927</ele>
        <time>2022-09-21T10:30:46.000Z</time>
      </trkpt>
      <trkpt lat="43.75718" lon="7.03367">
        <ele>926.9</ele>
        <time>2022-09-21T10:30:48.000Z</time>
      </trkpt>
      <trkpt lat="43.75721" lon="7.03373">
        <ele>926.9</ele>
        <time>2022-09-21T10:30:50.000Z</time>
      </trkpt>
      <trkpt lat="43.75727" lon="7.03381">
        <ele>927.1</ele>
        <time>2022-09-21T10:30:52.000Z</time>
      </trkpt>
      <trkpt lat="43.75732" lon="7.03389">
        <ele>927.1</ele>
        <time>2022-09-21T10:30:54.000Z</time>
      </trkpt>
      <trkpt lat="43.75737" lon="7.03397">
        <ele>927.4</ele>
        <time>2022-09-21T10:30:56.000Z</time>
      </trkpt>
      <trkpt lat="43.75742" lon="7.03406">
        <ele>927.6</ele>
        <time>2022-09-21T10:30:58.000Z</time>
      </trkpt>
      <trkpt lat="43.75745" lon="7.03411">
        <ele>927.5</ele>
        <time>2022-09-21T10:30:59.000Z</time>
      </trkpt>
      <trkpt lat="43.75748" lon="7.03416">
        <ele>927.2</ele>
        <time>2022-09-21T10:31:00.000Z</time>
      </trkpt>
      <trkpt lat="43.75754" lon="7.03426">
        <ele>926.3</ele>
        <time>2022-09-21T10:31:02.000Z</time>
      </trkpt>
      <trkpt lat="43.75759" lon="7.03434">
        <ele>926.7</ele>
        <time>2022-09-21T10:31:04.000Z</time>
      </trkpt>
      <trkpt lat="43.75764" lon="7.03442">
        <ele>926.9</ele>
        <time>2022-09-21T10:31:06.000Z</time>
      </trkpt>
      <trkpt lat="43.75769" lon="7.0345">
        <ele>926.3</ele>
        <time>2022-09-21T10:31:08.000Z</time>
      </trkpt>
      <trkpt lat="43.75773" lon="7.03458">
        <ele>927.1</ele>
        <time>2022-09-21T10:31:10.000Z</time>
      </trkpt>
      <trkpt lat="43.75777" lon="7.03465">
        <ele>927.7</ele>
        <time>2022-09-21T10:31:12.000Z</time>
      </trkpt>
      <trkpt lat="43.75781" lon="7.03472">
        <ele>927.2</ele>
        <time>2022-09-21T10:31:14.000Z</time>
      </trkpt>
      <trkpt lat="43.75784" lon="7.0348">
        <ele>927.3</ele>
        <time>2022-09-21T10:31:16.000Z</time>
      </trkpt>
      <trkpt lat="43.75788" lon="7.03488">
        <ele>928.2</ele>
        <time>2022-09-21T10:31:18.000Z</time>
      </trkpt>
      <trkpt lat="43.75792" lon="7.03496">
        <ele>929.1</ele>
        <time>2022-09-21T10:31:20.000Z</time>
      </trkpt>
      <trkpt lat="43.75795" lon="7.03503">
        <ele>929.1</ele>
        <time>2022-09-21T10:31:22.000Z</time>
      </trkpt>
      <trkpt lat="43.75799" lon="7.0351">
        <ele>929.5</ele>
        <time>2022-09-21T10:31:24.000Z</time>
      </trkpt>
      <trkpt lat="43.75801" lon="7.03518">
        <ele>930.1</ele>
        <time>2022-09-21T10:31:26.000Z</time>
      </trkpt>
      <trkpt lat="43.75803" lon="7.03526">
        <ele>930.7</ele>
        <time>2022-09-21T10:31:28.000Z</time>
      </trkpt>
      <trkpt lat="43.75804" lon="7.03535">
        <ele>930.5</ele>
        <time>2022-09-21T10:31:30.000Z</time>
      </trkpt>
      <trkpt lat="43.75805" lon="7.03544">
        <ele>930</ele>
        <time>2022-09-21T10:31:32.000Z</time>
      </trkpt>
      <trkpt lat="43.75805" lon="7.03552">
        <ele>930</ele>
        <time>2022-09-21T10:31:34.000Z</time>
      </trkpt>
      <trkpt lat="43.75805" lon="7.03561">
        <ele>930.2</ele>
        <time>2022-09-21T10:31:36.000Z</time>
      </trkpt>
      <trkpt lat="43.75806" lon="7.0357">
        <ele>930.3</ele>
        <time>2022-09-21T10:31:38.000Z</time>
      </trkpt>
      <trkpt lat="43.75805" lon="7.03578">
        <ele>930.5</ele>
        <time>2022-09-21T10:31:40.000Z</time>
      </trkpt>
      <trkpt lat="43.75805" lon="7.03585">
        <ele>931.3</ele>
        <time>2022-09-21T10:31:42.000Z</time>
      </trkpt>
      <trkpt lat="43.75805" lon="7.03591">
        <ele>931.5</ele>
        <time>2022-09-21T10:31:44.000Z</time>
      </trkpt>
      <trkpt lat="43.75804" lon="7.03598">
        <ele>931.3</ele>
        <time>2022-09-21T10:31:46.000Z</time>
      </trkpt>
      <trkpt lat="43.75805" lon="7.03605">
        <ele>931.5</ele>
        <time>2022-09-21T10:31:48.000Z</time>
      </trkpt>
      <trkpt lat="43.75806" lon="7.03612">
        <ele>931.6</ele>
        <time>2022-09-21T10:31:50.000Z</time>
      </trkpt>
      <trkpt lat="43.75807" lon="7.0362">
        <ele>931.3</ele>
        <time>2022-09-21T10:31:52.000Z</time>
      </trkpt>
      <trkpt lat="43.75808" lon="7.03626">
        <ele>931.2</ele>
        <time>2022-09-21T10:31:54.000Z</time>
      </trkpt>
      <trkpt lat="43.7581" lon="7.03634">
        <ele>931.2</ele>
        <time>2022-09-21T10:31:57.000Z</time>
      </trkpt>
      <trkpt lat="43.75809" lon="7.03642">
        <ele>931.9</ele>
        <time>2022-09-21T10:32:00.000Z</time>
      </trkpt>
      <trkpt lat="43.75806" lon="7.03648">
        <ele>932.1</ele>
        <time>2022-09-21T10:32:03.000Z</time>
      </trkpt>
      <trkpt lat="43.75805" lon="7.03655">
        <ele>933.7</ele>
        <time>2022-09-21T10:32:06.000Z</time>
      </trkpt>
      <trkpt lat="43.75805" lon="7.03662">
        <ele>934.1</ele>
        <time>2022-09-21T10:32:09.000Z</time>
      </trkpt>
      <trkpt lat="43.75805" lon="7.03669">
        <ele>934.7</ele>
        <time>2022-09-21T10:32:12.000Z</time>
      </trkpt>
      <trkpt lat="43.75806" lon="7.03676">
        <ele>935.2</ele>
        <time>2022-09-21T10:32:15.000Z</time>
      </trkpt>
      <trkpt lat="43.75809" lon="7.03683">
        <ele>935.1</ele>
        <time>2022-09-21T10:32:18.000Z</time>
      </trkpt>
      <trkpt lat="43.75811" lon="7.03691">
        <ele>935.6</ele>
        <time>2022-09-21T10:32:21.000Z</time>
      </trkpt>
      <trkpt lat="43.75813" lon="7.03699">
        <ele>936.1</ele>
        <time>2022-09-21T10:32:24.000Z</time>
      </trkpt>
      <trkpt lat="43.75816" lon="7.03706">
        <ele>936.2</ele>
        <time>2022-09-21T10:32:27.000Z</time>
      </trkpt>
      <trkpt lat="43.75819" lon="7.03709">
        <ele>936.2</ele>
        <time>2022-09-21T10:32:29.000Z</time>
      </trkpt>
      <trkpt lat="43.75823" lon="7.03712">
        <ele>936.3</ele>
        <time>2022-09-21T10:32:31.000Z</time>
      </trkpt>
      <trkpt lat="43.75827" lon="7.03715">
        <ele>936.7</ele>
        <time>2022-09-21T10:32:33.000Z</time>
      </trkpt>
      <trkpt lat="43.75833" lon="7.0372">
        <ele>937.1</ele>
        <time>2022-09-21T10:32:36.000Z</time>
      </trkpt>
      <trkpt lat="43.75837" lon="7.03724">
        <ele>937</ele>
        <time>2022-09-21T10:32:38.000Z</time>
      </trkpt>
      <trkpt lat="43.7584" lon="7.03727">
        <ele>937.6</ele>
        <time>2022-09-21T10:32:40.000Z</time>
      </trkpt>
      <trkpt lat="43.75844" lon="7.03731">
        <ele>937.5</ele>
        <time>2022-09-21T10:32:42.000Z</time>
      </trkpt>
      <trkpt lat="43.75848" lon="7.03736">
        <ele>937.6</ele>
        <time>2022-09-21T10:32:44.000Z</time>
      </trkpt>
      <trkpt lat="43.7585" lon="7.03743">
        <ele>938</ele>
        <time>2022-09-21T10:32:47.000Z</time>
      </trkpt>
      <trkpt lat="43.75852" lon="7.03752">
        <ele>938.8</ele>
        <time>2022-09-21T10:32:50.000Z</time>
      </trkpt>
      <trkpt lat="43.75853" lon="7.03761">
        <ele>939.3</ele>
        <time>2022-09-21T10:32:53.000Z</time>
      </trkpt>
      <trkpt lat="43.75856" lon="7.03769">
        <ele>939.8</ele>
        <time>2022-09-21T10:32:56.000Z</time>
      </trkpt>
      <trkpt lat="43.75859" lon="7.03775">
        <ele>940.4</ele>
        <time>2022-09-21T10:32:59.000Z</time>
      </trkpt>
      <trkpt lat="43.75861" lon="7.03783">
        <ele>940.7</ele>
        <time>2022-09-21T10:33:02.000Z</time>
      </trkpt>
      <trkpt lat="43.7586" lon="7.03789">
        <ele>940.9</ele>
        <time>2022-09-21T10:33:05.000Z</time>
      </trkpt>
      <trkpt lat="43.75856" lon="7.03795">
        <ele>941.7</ele>
        <time>2022-09-21T10:33:08.000Z</time>
      </trkpt>
      <trkpt lat="43.75851" lon="7.03799">
        <ele>942.5</ele>
        <time>2022-09-21T10:33:11.000Z</time>
      </trkpt>
      <trkpt lat="43.75848" lon="7.03803">
        <ele>943</ele>
        <time>2022-09-21T10:33:14.000Z</time>
      </trkpt>
      <trkpt lat="43.75844" lon="7.03808">
        <ele>943.7</ele>
        <time>2022-09-21T10:33:17.000Z</time>
      </trkpt>
      <trkpt lat="43.7584" lon="7.03813">
        <ele>944.6</ele>
        <time>2022-09-21T10:33:20.000Z</time>
      </trkpt>
      <trkpt lat="43.75836" lon="7.03819">
        <ele>945.2</ele>
        <time>2022-09-21T10:33:23.000Z</time>
      </trkpt>
      <trkpt lat="43.75832" lon="7.03826">
        <ele>945</ele>
        <time>2022-09-21T10:33:26.000Z</time>
      </trkpt>
      <trkpt lat="43.75829" lon="7.03831">
        <ele>945</ele>
        <time>2022-09-21T10:33:29.000Z</time>
      </trkpt>
      <trkpt lat="43.75826" lon="7.03838">
        <ele>945</ele>
        <time>2022-09-21T10:33:32.000Z</time>
      </trkpt>
      <trkpt lat="43.75823" lon="7.03844">
        <ele>944.9</ele>
        <time>2022-09-21T10:33:34.000Z</time>
      </trkpt>
      <trkpt lat="43.75821" lon="7.03851">
        <ele>944.6</ele>
        <time>2022-09-21T10:33:36.000Z</time>
      </trkpt>
      <trkpt lat="43.75819" lon="7.03859">
        <ele>944.3</ele>
        <time>2022-09-21T10:33:39.000Z</time>
      </trkpt>
      <trkpt lat="43.75817" lon="7.03866">
        <ele>942.8</ele>
        <time>2022-09-21T10:33:41.000Z</time>
      </trkpt>
      <trkpt lat="43.75814" lon="7.03874">
        <ele>942.2</ele>
        <time>2022-09-21T10:33:43.000Z</time>
      </trkpt>
      <trkpt lat="43.75815" lon="7.03884">
        <ele>942.5</ele>
        <time>2022-09-21T10:33:45.000Z</time>
      </trkpt>
      <trkpt lat="43.75817" lon="7.0389">
        <ele>942.5</ele>
        <time>2022-09-21T10:33:47.000Z</time>
      </trkpt>
      <trkpt lat="43.75818" lon="7.03897">
        <ele>942</ele>
        <time>2022-09-21T10:33:49.000Z</time>
      </trkpt>
      <trkpt lat="43.75819" lon="7.03905">
        <ele>941.4</ele>
        <time>2022-09-21T10:33:51.000Z</time>
      </trkpt>
      <trkpt lat="43.75821" lon="7.03915">
        <ele>941</ele>
        <time>2022-09-21T10:33:53.000Z</time>
      </trkpt>
      <trkpt lat="43.75824" lon="7.03925">
        <ele>940.7</ele>
        <time>2022-09-21T10:33:55.000Z</time>
      </trkpt>
      <trkpt lat="43.75827" lon="7.03934">
        <ele>941</ele>
        <time>2022-09-21T10:33:57.000Z</time>
      </trkpt>
      <trkpt lat="43.75827" lon="7.03942">
        <ele>941.5</ele>
        <time>2022-09-21T10:33:59.000Z</time>
      </trkpt>
      <trkpt lat="43.75825" lon="7.03948">
        <ele>941.4</ele>
        <time>2022-09-21T10:34:01.000Z</time>
      </trkpt>
      <trkpt lat="43.75823" lon="7.03955">
        <ele>940.7</ele>
        <time>2022-09-21T10:34:03.000Z</time>
      </trkpt>
      <trkpt lat="43.75821" lon="7.03963">
        <ele>941.3</ele>
        <time>2022-09-21T10:34:05.000Z</time>
      </trkpt>
      <trkpt lat="43.75819" lon="7.03971">
        <ele>942</ele>
        <time>2022-09-21T10:34:07.000Z</time>
      </trkpt>
      <trkpt lat="43.75819" lon="7.03977">
        <ele>941.9</ele>
        <time>2022-09-21T10:34:09.000Z</time>
      </trkpt>
      <trkpt lat="43.75823" lon="7.03987">
        <ele>942.2</ele>
        <time>2022-09-21T10:34:11.000Z</time>
      </trkpt>
      <trkpt lat="43.75826" lon="7.03992">
        <ele>942.3</ele>
        <time>2022-09-21T10:34:13.000Z</time>
      </trkpt>
      <trkpt lat="43.75829" lon="7.04001">
        <ele>942.6</ele>
        <time>2022-09-21T10:34:16.000Z</time>
      </trkpt>
      <trkpt lat="43.75831" lon="7.04007">
        <ele>943.2</ele>
        <time>2022-09-21T10:34:18.000Z</time>
      </trkpt>
      <trkpt lat="43.75834" lon="7.04014">
        <ele>943</ele>
        <time>2022-09-21T10:34:21.000Z</time>
      </trkpt>
      <trkpt lat="43.75837" lon="7.04019">
        <ele>943.4</ele>
        <time>2022-09-21T10:34:23.000Z</time>
      </trkpt>
      <trkpt lat="43.75841" lon="7.04025">
        <ele>943.9</ele>
        <time>2022-09-21T10:34:26.000Z</time>
      </trkpt>
      <trkpt lat="43.75845" lon="7.04028">
        <ele>944.7</ele>
        <time>2022-09-21T10:34:29.000Z</time>
      </trkpt>
      <trkpt lat="43.7585" lon="7.04032">
        <ele>945</ele>
        <time>2022-09-21T10:34:32.000Z</time>
      </trkpt>
      <trkpt lat="43.75853" lon="7.04037">
        <ele>945.5</ele>
        <time>2022-09-21T10:34:35.000Z</time>
      </trkpt>
      <trkpt lat="43.75855" lon="7.04046">
        <ele>945.8</ele>
        <time>2022-09-21T10:34:38.000Z</time>
      </trkpt>
      <trkpt lat="43.75856" lon="7.04055">
        <ele>946.1</ele>
        <time>2022-09-21T10:34:41.000Z</time>
      </trkpt>
      <trkpt lat="43.75858" lon="7.04061">
        <ele>946.2</ele>
        <time>2022-09-21T10:34:43.000Z</time>
      </trkpt>
      <trkpt lat="43.7586" lon="7.04067">
        <ele>946.1</ele>
        <time>2022-09-21T10:34:45.000Z</time>
      </trkpt>
      <trkpt lat="43.75861" lon="7.04073">
        <ele>946.1</ele>
        <time>2022-09-21T10:34:47.000Z</time>
      </trkpt>
      <trkpt lat="43.75863" lon="7.0408">
        <ele>946.4</ele>
        <time>2022-09-21T10:34:49.000Z</time>
      </trkpt>
      <trkpt lat="43.75863" lon="7.04087">
        <ele>946.3</ele>
        <time>2022-09-21T10:34:51.000Z</time>
      </trkpt>
      <trkpt lat="43.75861" lon="7.04093">
        <ele>946.2</ele>
        <time>2022-09-21T10:34:53.000Z</time>
      </trkpt>
      <trkpt lat="43.75857" lon="7.04096">
        <ele>946.3</ele>
        <time>2022-09-21T10:34:55.000Z</time>
      </trkpt>
      <trkpt lat="43.75852" lon="7.04102">
        <ele>947.2</ele>
        <time>2022-09-21T10:34:58.000Z</time>
      </trkpt>
      <trkpt lat="43.75849" lon="7.04108">
        <ele>947.9</ele>
        <time>2022-09-21T10:35:01.000Z</time>
      </trkpt>
      <trkpt lat="43.75848" lon="7.04115">
        <ele>948.9</ele>
        <time>2022-09-21T10:35:04.000Z</time>
      </trkpt>
      <trkpt lat="43.75847" lon="7.04123">
        <ele>949.1</ele>
        <time>2022-09-21T10:35:07.000Z</time>
      </trkpt>
      <trkpt lat="43.75845" lon="7.04129">
        <ele>950</ele>
        <time>2022-09-21T10:35:10.000Z</time>
      </trkpt>
      <trkpt lat="43.75844" lon="7.04135">
        <ele>950.4</ele>
        <time>2022-09-21T10:35:13.000Z</time>
      </trkpt>
      <trkpt lat="43.75844" lon="7.04142">
        <ele>951.1</ele>
        <time>2022-09-21T10:35:16.000Z</time>
      </trkpt>
      <trkpt lat="43.75843" lon="7.04149">
        <ele>950.9</ele>
        <time>2022-09-21T10:35:19.000Z</time>
      </trkpt>
      <trkpt lat="43.75842" lon="7.04156">
        <ele>951.3</ele>
        <time>2022-09-21T10:35:22.000Z</time>
      </trkpt>
      <trkpt lat="43.7584" lon="7.04162">
        <ele>952.1</ele>
        <time>2022-09-21T10:35:25.000Z</time>
      </trkpt>
      <trkpt lat="43.75841" lon="7.04169">
        <ele>952.5</ele>
        <time>2022-09-21T10:35:28.000Z</time>
      </trkpt>
      <trkpt lat="43.75841" lon="7.04175">
        <ele>952.3</ele>
        <time>2022-09-21T10:35:31.000Z</time>
      </trkpt>
      <trkpt lat="43.75841" lon="7.04183">
        <ele>952.4</ele>
        <time>2022-09-21T10:35:34.000Z</time>
      </trkpt>
      <trkpt lat="43.75838" lon="7.04187">
        <ele>951.9</ele>
        <time>2022-09-21T10:35:36.000Z</time>
      </trkpt>
      <trkpt lat="43.75833" lon="7.04192">
        <ele>952.5</ele>
        <time>2022-09-21T10:35:38.000Z</time>
      </trkpt>
      <trkpt lat="43.75828" lon="7.04196">
        <ele>952.3</ele>
        <time>2022-09-21T10:35:40.000Z</time>
      </trkpt>
      <trkpt lat="43.75824" lon="7.04201">
        <ele>952</ele>
        <time>2022-09-21T10:35:42.000Z</time>
      </trkpt>
      <trkpt lat="43.7582" lon="7.04207">
        <ele>951.9</ele>
        <time>2022-09-21T10:35:44.000Z</time>
      </trkpt>
      <trkpt lat="43.75816" lon="7.04212">
        <ele>951.7</ele>
        <time>2022-09-21T10:35:46.000Z</time>
      </trkpt>
      <trkpt lat="43.75812" lon="7.04217">
        <ele>952.3</ele>
        <time>2022-09-21T10:35:48.000Z</time>
      </trkpt>
      <trkpt lat="43.75808" lon="7.04223">
        <ele>952.5</ele>
        <time>2022-09-21T10:35:50.000Z</time>
      </trkpt>
      <trkpt lat="43.75803" lon="7.04229">
        <ele>952.2</ele>
        <time>2022-09-21T10:35:52.000Z</time>
      </trkpt>
      <trkpt lat="43.75799" lon="7.04236">
        <ele>951.8</ele>
        <time>2022-09-21T10:35:54.000Z</time>
      </trkpt>
      <trkpt lat="43.75794" lon="7.04243">
        <ele>951.2</ele>
        <time>2022-09-21T10:35:56.000Z</time>
      </trkpt>
      <trkpt lat="43.75788" lon="7.0425">
        <ele>951.1</ele>
        <time>2022-09-21T10:35:58.000Z</time>
      </trkpt>
      <trkpt lat="43.75782" lon="7.04256">
        <ele>951.5</ele>
        <time>2022-09-21T10:36:00.000Z</time>
      </trkpt>
      <trkpt lat="43.75777" lon="7.04262">
        <ele>950.7</ele>
        <time>2022-09-21T10:36:02.000Z</time>
      </trkpt>
      <trkpt lat="43.75773" lon="7.04269">
        <ele>951.3</ele>
        <time>2022-09-21T10:36:04.000Z</time>
      </trkpt>
      <trkpt lat="43.7577" lon="7.04276">
        <ele>951.8</ele>
        <time>2022-09-21T10:36:06.000Z</time>
      </trkpt>
      <trkpt lat="43.75769" lon="7.04283">
        <ele>951.9</ele>
        <time>2022-09-21T10:36:08.000Z</time>
      </trkpt>
      <trkpt lat="43.75768" lon="7.04292">
        <ele>952.1</ele>
        <time>2022-09-21T10:36:11.000Z</time>
      </trkpt>
      <trkpt lat="43.75767" lon="7.04299">
        <ele>952.7</ele>
        <time>2022-09-21T10:36:13.000Z</time>
      </trkpt>
      <trkpt lat="43.75766" lon="7.04306">
        <ele>952.6</ele>
        <time>2022-09-21T10:36:15.000Z</time>
      </trkpt>
      <trkpt lat="43.75764" lon="7.04314">
        <ele>952.4</ele>
        <time>2022-09-21T10:36:17.000Z</time>
      </trkpt>
      <trkpt lat="43.75763" lon="7.04322">
        <ele>952.7</ele>
        <time>2022-09-21T10:36:19.000Z</time>
      </trkpt>
      <trkpt lat="43.75762" lon="7.0433">
        <ele>953.1</ele>
        <time>2022-09-21T10:36:21.000Z</time>
      </trkpt>
      <trkpt lat="43.75762" lon="7.04338">
        <ele>953.5</ele>
        <time>2022-09-21T10:36:23.000Z</time>
      </trkpt>
      <trkpt lat="43.75761" lon="7.04345">
        <ele>952.7</ele>
        <time>2022-09-21T10:36:25.000Z</time>
      </trkpt>
      <trkpt lat="43.75758" lon="7.04352">
        <ele>953.2</ele>
        <time>2022-09-21T10:36:27.000Z</time>
      </trkpt>
      <trkpt lat="43.75756" lon="7.04359">
        <ele>953.6</ele>
        <time>2022-09-21T10:36:29.000Z</time>
      </trkpt>
      <trkpt lat="43.75753" lon="7.04366">
        <ele>953.2</ele>
        <time>2022-09-21T10:36:31.000Z</time>
      </trkpt>
      <trkpt lat="43.75752" lon="7.04373">
        <ele>953.5</ele>
        <time>2022-09-21T10:36:33.000Z</time>
      </trkpt>
      <trkpt lat="43.7575" lon="7.04381">
        <ele>954.1</ele>
        <time>2022-09-21T10:36:35.000Z</time>
      </trkpt>
      <trkpt lat="43.75749" lon="7.04389">
        <ele>954.4</ele>
        <time>2022-09-21T10:36:38.000Z</time>
      </trkpt>
      <trkpt lat="43.75749" lon="7.04398">
        <ele>954.3</ele>
        <time>2022-09-21T10:36:41.000Z</time>
      </trkpt>
      <trkpt lat="43.75749" lon="7.04404">
        <ele>954.9</ele>
        <time>2022-09-21T10:36:43.000Z</time>
      </trkpt>
      <trkpt lat="43.7575" lon="7.04412">
        <ele>955</ele>
        <time>2022-09-21T10:36:45.000Z</time>
      </trkpt>
      <trkpt lat="43.75751" lon="7.04419">
        <ele>954.7</ele>
        <time>2022-09-21T10:36:47.000Z</time>
      </trkpt>
      <trkpt lat="43.75751" lon="7.04426">
        <ele>955.1</ele>
        <time>2022-09-21T10:36:49.000Z</time>
      </trkpt>
      <trkpt lat="43.75752" lon="7.04433">
        <ele>955.8</ele>
        <time>2022-09-21T10:36:51.000Z</time>
      </trkpt>
      <trkpt lat="43.75752" lon="7.04442">
        <ele>955.5</ele>
        <time>2022-09-21T10:36:54.000Z</time>
      </trkpt>
      <trkpt lat="43.75754" lon="7.0445">
        <ele>955.4</ele>
        <time>2022-09-21T10:36:57.000Z</time>
      </trkpt>
      <trkpt lat="43.75755" lon="7.04457">
        <ele>955.8</ele>
        <time>2022-09-21T10:37:00.000Z</time>
      </trkpt>
      <trkpt lat="43.75754" lon="7.04463">
        <ele>956</ele>
        <time>2022-09-21T10:37:02.000Z</time>
      </trkpt>
      <trkpt lat="43.75752" lon="7.04469">
        <ele>956</ele>
        <time>2022-09-21T10:37:04.000Z</time>
      </trkpt>
      <trkpt lat="43.7575" lon="7.04476">
        <ele>955.5</ele>
        <time>2022-09-21T10:37:06.000Z</time>
      </trkpt>
      <trkpt lat="43.75746" lon="7.04483">
        <ele>955.4</ele>
        <time>2022-09-21T10:37:08.000Z</time>
      </trkpt>
      <trkpt lat="43.75745" lon="7.04491">
        <ele>955.2</ele>
        <time>2022-09-21T10:37:10.000Z</time>
      </trkpt>
      <trkpt lat="43.75745" lon="7.04499">
        <ele>954.7</ele>
        <time>2022-09-21T10:37:12.000Z</time>
      </trkpt>
      <trkpt lat="43.75746" lon="7.04507">
        <ele>955.3</ele>
        <time>2022-09-21T10:37:14.000Z</time>
      </trkpt>
      <trkpt lat="43.75746" lon="7.04515">
        <ele>955.5</ele>
        <time>2022-09-21T10:37:16.000Z</time>
      </trkpt>
      <trkpt lat="43.75748" lon="7.04522">
        <ele>955.3</ele>
        <time>2022-09-21T10:37:18.000Z</time>
      </trkpt>
      <trkpt lat="43.75748" lon="7.0453">
        <ele>955.6</ele>
        <time>2022-09-21T10:37:21.000Z</time>
      </trkpt>
      <trkpt lat="43.75743" lon="7.04535">
        <ele>955.2</ele>
        <time>2022-09-21T10:37:23.000Z</time>
      </trkpt>
      <trkpt lat="43.75738" lon="7.04542">
        <ele>954.5</ele>
        <time>2022-09-21T10:37:25.000Z</time>
      </trkpt>
      <trkpt lat="43.75731" lon="7.04548">
        <ele>954</ele>
        <time>2022-09-21T10:37:27.000Z</time>
      </trkpt>
      <trkpt lat="43.75725" lon="7.04549">
        <ele>953.9</ele>
        <time>2022-09-21T10:37:29.000Z</time>
      </trkpt>
      <trkpt lat="43.7572" lon="7.04552">
        <ele>954</ele>
        <time>2022-09-21T10:37:31.000Z</time>
      </trkpt>
      <trkpt lat="43.75716" lon="7.04556">
        <ele>954</ele>
        <time>2022-09-21T10:37:33.000Z</time>
      </trkpt>
      <trkpt lat="43.75712" lon="7.04561">
        <ele>953.7</ele>
        <time>2022-09-21T10:37:35.000Z</time>
      </trkpt>
      <trkpt lat="43.75707" lon="7.04565">
        <ele>954</ele>
        <time>2022-09-21T10:37:37.000Z</time>
      </trkpt>
      <trkpt lat="43.75702" lon="7.04568">
        <ele>954.2</ele>
        <time>2022-09-21T10:37:39.000Z</time>
      </trkpt>
      <trkpt lat="43.75697" lon="7.04575">
        <ele>953.9</ele>
        <time>2022-09-21T10:37:41.000Z</time>
      </trkpt>
      <trkpt lat="43.75694" lon="7.04582">
        <ele>953.5</ele>
        <time>2022-09-21T10:37:43.000Z</time>
      </trkpt>
      <trkpt lat="43.75692" lon="7.04588">
        <ele>953.9</ele>
        <time>2022-09-21T10:37:45.000Z</time>
      </trkpt>
      <trkpt lat="43.75688" lon="7.04595">
        <ele>954.4</ele>
        <time>2022-09-21T10:37:47.000Z</time>
      </trkpt>
      <trkpt lat="43.75683" lon="7.04601">
        <ele>954.2</ele>
        <time>2022-09-21T10:37:49.000Z</time>
      </trkpt>
      <trkpt lat="43.75679" lon="7.04605">
        <ele>953.6</ele>
        <time>2022-09-21T10:37:51.000Z</time>
      </trkpt>
      <trkpt lat="43.75673" lon="7.04611">
        <ele>953.5</ele>
        <time>2022-09-21T10:37:53.000Z</time>
      </trkpt>
      <trkpt lat="43.75668" lon="7.04617">
        <ele>953.5</ele>
        <time>2022-09-21T10:37:55.000Z</time>
      </trkpt>
      <trkpt lat="43.75662" lon="7.04624">
        <ele>953.1</ele>
        <time>2022-09-21T10:37:57.000Z</time>
      </trkpt>
      <trkpt lat="43.75656" lon="7.04631">
        <ele>951.9</ele>
        <time>2022-09-21T10:37:59.000Z</time>
      </trkpt>
      <trkpt lat="43.75649" lon="7.04637">
        <ele>951.2</ele>
        <time>2022-09-21T10:38:01.000Z</time>
      </trkpt>
      <trkpt lat="43.75641" lon="7.04645">
        <ele>950.7</ele>
        <time>2022-09-21T10:38:03.000Z</time>
      </trkpt>
      <trkpt lat="43.75637" lon="7.04648">
        <ele>950.5</ele>
        <time>2022-09-21T10:38:04.000Z</time>
      </trkpt>
      <trkpt lat="43.75633" lon="7.04652">
        <ele>950.4</ele>
        <time>2022-09-21T10:38:05.000Z</time>
      </trkpt>
      <trkpt lat="43.7563" lon="7.04656">
        <ele>950.4</ele>
        <time>2022-09-21T10:38:06.000Z</time>
      </trkpt>
      <trkpt lat="43.75627" lon="7.0466">
        <ele>950.3</ele>
        <time>2022-09-21T10:38:07.000Z</time>
      </trkpt>
      <trkpt lat="43.7562" lon="7.04667">
        <ele>949.9</ele>
        <time>2022-09-21T10:38:09.000Z</time>
      </trkpt>
      <trkpt lat="43.75614" lon="7.04671">
        <ele>949.5</ele>
        <time>2022-09-21T10:38:11.000Z</time>
      </trkpt>
      <trkpt lat="43.75608" lon="7.04677">
        <ele>949.8</ele>
        <time>2022-09-21T10:38:13.000Z</time>
      </trkpt>
      <trkpt lat="43.75603" lon="7.04683">
        <ele>949.5</ele>
        <time>2022-09-21T10:38:15.000Z</time>
      </trkpt>
      <trkpt lat="43.75599" lon="7.0469">
        <ele>949.9</ele>
        <time>2022-09-21T10:38:17.000Z</time>
      </trkpt>
      <trkpt lat="43.75593" lon="7.04697">
        <ele>950.1</ele>
        <time>2022-09-21T10:38:19.000Z</time>
      </trkpt>
      <trkpt lat="43.75589" lon="7.04704">
        <ele>949.9</ele>
        <time>2022-09-21T10:38:21.000Z</time>
      </trkpt>
      <trkpt lat="43.75585" lon="7.0471">
        <ele>948.1</ele>
        <time>2022-09-21T10:38:23.000Z</time>
      </trkpt>
      <trkpt lat="43.7558" lon="7.04716">
        <ele>948.1</ele>
        <time>2022-09-21T10:38:25.000Z</time>
      </trkpt>
      <trkpt lat="43.75575" lon="7.04722">
        <ele>948.2</ele>
        <time>2022-09-21T10:38:27.000Z</time>
      </trkpt>
      <trkpt lat="43.75571" lon="7.04727">
        <ele>947.6</ele>
        <time>2022-09-21T10:38:29.000Z</time>
      </trkpt>
      <trkpt lat="43.75566" lon="7.04733">
        <ele>947.6</ele>
        <time>2022-09-21T10:38:31.000Z</time>
      </trkpt>
      <trkpt lat="43.75562" lon="7.04737">
        <ele>946.7</ele>
        <time>2022-09-21T10:38:33.000Z</time>
      </trkpt>
      <trkpt lat="43.75558" lon="7.04742">
        <ele>946.9</ele>
        <time>2022-09-21T10:38:35.000Z</time>
      </trkpt>
      <trkpt lat="43.75554" lon="7.04746">
        <ele>947.1</ele>
        <time>2022-09-21T10:38:37.000Z</time>
      </trkpt>
      <trkpt lat="43.75551" lon="7.0475">
        <ele>946.9</ele>
        <time>2022-09-21T10:38:39.000Z</time>
      </trkpt>
      <trkpt lat="43.75547" lon="7.04755">
        <ele>947.6</ele>
        <time>2022-09-21T10:38:41.000Z</time>
      </trkpt>
      <trkpt lat="43.75544" lon="7.04761">
        <ele>948</ele>
        <time>2022-09-21T10:38:43.000Z</time>
      </trkpt>
      <trkpt lat="43.75543" lon="7.04768">
        <ele>947.4</ele>
        <time>2022-09-21T10:38:45.000Z</time>
      </trkpt>
      <trkpt lat="43.75541" lon="7.04774">
        <ele>947.2</ele>
        <time>2022-09-21T10:38:47.000Z</time>
      </trkpt>
      <trkpt lat="43.75539" lon="7.04779">
        <ele>947</ele>
        <time>2022-09-21T10:38:49.000Z</time>
      </trkpt>
      <trkpt lat="43.75536" lon="7.04785">
        <ele>946.8</ele>
        <time>2022-09-21T10:38:51.000Z</time>
      </trkpt>
      <trkpt lat="43.75533" lon="7.04792">
        <ele>947.6</ele>
        <time>2022-09-21T10:38:54.000Z</time>
      </trkpt>
      <trkpt lat="43.75531" lon="7.04801">
        <ele>948.1</ele>
        <time>2022-09-21T10:38:57.000Z</time>
      </trkpt>
      <trkpt lat="43.75529" lon="7.04807">
        <ele>948.4</ele>
        <time>2022-09-21T10:38:59.000Z</time>
      </trkpt>
      <trkpt lat="43.75527" lon="7.04815">
        <ele>948.5</ele>
        <time>2022-09-21T10:39:02.000Z</time>
      </trkpt>
      <trkpt lat="43.75524" lon="7.04822">
        <ele>948.8</ele>
        <time>2022-09-21T10:39:05.000Z</time>
      </trkpt>
      <trkpt lat="43.75521" lon="7.04828">
        <ele>949.1</ele>
        <time>2022-09-21T10:39:07.000Z</time>
      </trkpt>
      <trkpt lat="43.75519" lon="7.04836">
        <ele>949.9</ele>
        <time>2022-09-21T10:39:10.000Z</time>
      </trkpt>
      <trkpt lat="43.75516" lon="7.04845">
        <ele>950</ele>
        <time>2022-09-21T10:39:13.000Z</time>
      </trkpt>
      <trkpt lat="43.75514" lon="7.04851">
        <ele>950.6</ele>
        <time>2022-09-21T10:39:15.000Z</time>
      </trkpt>
      <trkpt lat="43.75513" lon="7.04858">
        <ele>950.5</ele>
        <time>2022-09-21T10:39:17.000Z</time>
      </trkpt>
      <trkpt lat="43.75512" lon="7.04864">
        <ele>950.9</ele>
        <time>2022-09-21T10:39:19.000Z</time>
      </trkpt>
      <trkpt lat="43.7551" lon="7.04872">
        <ele>951.3</ele>
        <time>2022-09-21T10:39:22.000Z</time>
      </trkpt>
      <trkpt lat="43.75508" lon="7.04873">
        <ele>951.2</ele>
        <time>2022-09-21T10:39:30.000Z</time>
      </trkpt>
      <trkpt lat="43.75508" lon="7.04873">
        <ele>951</ele>
        <time>2022-09-21T10:39:53.000Z</time>
      </trkpt>
      <trkpt lat="43.75508" lon="7.04873">
        <ele>951.1</ele>
        <time>2022-09-21T10:39:54.000Z</time>
      </trkpt>
      <trkpt lat="43.75508" lon="7.04873">
        <ele>950.9</ele>
        <time>2022-09-21T10:40:03.000Z</time>
      </trkpt>
      <trkpt lat="43.75508" lon="7.04874">
        <ele>950.8</ele>
        <time>2022-09-21T10:40:05.000Z</time>
      </trkpt>
      <trkpt lat="43.75507" lon="7.04874">
        <ele>950.8</ele>
        <time>2022-09-21T10:40:06.000Z</time>
      </trkpt>
      <trkpt lat="43.75507" lon="7.04874">
        <ele>950.9</ele>
        <time>2022-09-21T10:40:08.000Z</time>
      </trkpt>
      <trkpt lat="43.75507" lon="7.04873">
        <ele>951.1</ele>
        <time>2022-09-21T10:40:11.000Z</time>
      </trkpt>
      <trkpt lat="43.75507" lon="7.04874">
        <ele>950.9</ele>
        <time>2022-09-21T10:40:14.000Z</time>
      </trkpt>
      <trkpt lat="43.75506" lon="7.04874">
        <ele>950.9</ele>
        <time>2022-09-21T10:40:16.000Z</time>
      </trkpt>
      <trkpt lat="43.75506" lon="7.04874">
        <ele>951.1</ele>
        <time>2022-09-21T10:40:17.000Z</time>
      </trkpt>
      <trkpt lat="43.75506" lon="7.04874">
        <ele>951</ele>
        <time>2022-09-21T10:40:20.000Z</time>
      </trkpt>
      <trkpt lat="43.75506" lon="7.04882">
        <ele>951.6</ele>
        <time>2022-09-21T10:40:35.000Z</time>
      </trkpt>
      <trkpt lat="43.75506" lon="7.04889">
        <ele>951.6</ele>
        <time>2022-09-21T10:40:37.000Z</time>
      </trkpt>
      <trkpt lat="43.75506" lon="7.04895">
        <ele>951.7</ele>
        <time>2022-09-21T10:40:39.000Z</time>
      </trkpt>
      <trkpt lat="43.75506" lon="7.04901">
        <ele>952.7</ele>
        <time>2022-09-21T10:40:41.000Z</time>
      </trkpt>
      <trkpt lat="43.75505" lon="7.0491">
        <ele>953.1</ele>
        <time>2022-09-21T10:40:44.000Z</time>
      </trkpt>
      <trkpt lat="43.75504" lon="7.04918">
        <ele>954</ele>
        <time>2022-09-21T10:40:47.000Z</time>
      </trkpt>
      <trkpt lat="43.75503" lon="7.04924">
        <ele>954.7</ele>
        <time>2022-09-21T10:40:49.000Z</time>
      </trkpt>
      <trkpt lat="43.75502" lon="7.04931">
        <ele>955.5</ele>
        <time>2022-09-21T10:40:51.000Z</time>
      </trkpt>
      <trkpt lat="43.75501" lon="7.04937">
        <ele>955.8</ele>
        <time>2022-09-21T10:40:53.000Z</time>
      </trkpt>
      <trkpt lat="43.75499" lon="7.04943">
        <ele>956.4</ele>
        <time>2022-09-21T10:40:55.000Z</time>
      </trkpt>
      <trkpt lat="43.75497" lon="7.04949">
        <ele>956.7</ele>
        <time>2022-09-21T10:40:57.000Z</time>
      </trkpt>
      <trkpt lat="43.75495" lon="7.04955">
        <ele>956.6</ele>
        <time>2022-09-21T10:40:59.000Z</time>
      </trkpt>
      <trkpt lat="43.75491" lon="7.04961">
        <ele>956.8</ele>
        <time>2022-09-21T10:41:01.000Z</time>
      </trkpt>
      <trkpt lat="43.75487" lon="7.04966">
        <ele>957.1</ele>
        <time>2022-09-21T10:41:04.000Z</time>
      </trkpt>
      <trkpt lat="43.75482" lon="7.04968">
        <ele>956.7</ele>
        <time>2022-09-21T10:41:06.000Z</time>
      </trkpt>
      <trkpt lat="43.75476" lon="7.04974">
        <ele>956</ele>
        <time>2022-09-21T10:41:08.000Z</time>
      </trkpt>
      <trkpt lat="43.7547" lon="7.04982">
        <ele>954.4</ele>
        <time>2022-09-21T10:41:10.000Z</time>
      </trkpt>
      <trkpt lat="43.75467" lon="7.04986">
        <ele>953.9</ele>
        <time>2022-09-21T10:41:11.000Z</time>
      </trkpt>
      <trkpt lat="43.75464" lon="7.04992">
        <ele>954</ele>
        <time>2022-09-21T10:41:12.000Z</time>
      </trkpt>
      <trkpt lat="43.75462" lon="7.04998">
        <ele>953.9</ele>
        <time>2022-09-21T10:41:13.000Z</time>
      </trkpt>
      <trkpt lat="43.75461" lon="7.05005">
        <ele>954.1</ele>
        <time>2022-09-21T10:41:14.000Z</time>
      </trkpt>
      <trkpt lat="43.75461" lon="7.05011">
        <ele>953.9</ele>
        <time>2022-09-21T10:41:15.000Z</time>
      </trkpt>
      <trkpt lat="43.75458" lon="7.05022">
        <ele>954</ele>
        <time>2022-09-21T10:41:17.000Z</time>
      </trkpt>
      <trkpt lat="43.75456" lon="7.05034">
        <ele>953.9</ele>
        <time>2022-09-21T10:41:19.000Z</time>
      </trkpt>
      <trkpt lat="43.75454" lon="7.05046">
        <ele>953.9</ele>
        <time>2022-09-21T10:41:21.000Z</time>
      </trkpt>
      <trkpt lat="43.75453" lon="7.05057">
        <ele>954.3</ele>
        <time>2022-09-21T10:41:23.000Z</time>
      </trkpt>
      <trkpt lat="43.75452" lon="7.05068">
        <ele>954.2</ele>
        <time>2022-09-21T10:41:25.000Z</time>
      </trkpt>
      <trkpt lat="43.7545" lon="7.05078">
        <ele>954.3</ele>
        <time>2022-09-21T10:41:27.000Z</time>
      </trkpt>
      <trkpt lat="43.75448" lon="7.05087">
        <ele>954.4</ele>
        <time>2022-09-21T10:41:29.000Z</time>
      </trkpt>
      <trkpt lat="43.75444" lon="7.05094">
        <ele>954.8</ele>
        <time>2022-09-21T10:41:31.000Z</time>
      </trkpt>
      <trkpt lat="43.75441" lon="7.05101">
        <ele>954.9</ele>
        <time>2022-09-21T10:41:33.000Z</time>
      </trkpt>
      <trkpt lat="43.75437" lon="7.0511">
        <ele>954.8</ele>
        <time>2022-09-21T10:41:35.000Z</time>
      </trkpt>
      <trkpt lat="43.75433" lon="7.05118">
        <ele>954.7</ele>
        <time>2022-09-21T10:41:37.000Z</time>
      </trkpt>
      <trkpt lat="43.75427" lon="7.05123">
        <ele>954.8</ele>
        <time>2022-09-21T10:41:39.000Z</time>
      </trkpt>
      <trkpt lat="43.75421" lon="7.05127">
        <ele>953.9</ele>
        <time>2022-09-21T10:41:41.000Z</time>
      </trkpt>
      <trkpt lat="43.75414" lon="7.0513">
        <ele>953.3</ele>
        <time>2022-09-21T10:41:43.000Z</time>
      </trkpt>
      <trkpt lat="43.75409" lon="7.05132">
        <ele>953.1</ele>
        <time>2022-09-21T10:41:44.000Z</time>
      </trkpt>
      <trkpt lat="43.75405" lon="7.05134">
        <ele>952.8</ele>
        <time>2022-09-21T10:41:45.000Z</time>
      </trkpt>
      <trkpt lat="43.754" lon="7.05137">
        <ele>952.8</ele>
        <time>2022-09-21T10:41:46.000Z</time>
      </trkpt>
      <trkpt lat="43.75396" lon="7.05141">
        <ele>952.9</ele>
        <time>2022-09-21T10:41:47.000Z</time>
      </trkpt>
      <trkpt lat="43.75393" lon="7.05147">
        <ele>953.1</ele>
        <time>2022-09-21T10:41:48.000Z</time>
      </trkpt>
      <trkpt lat="43.75389" lon="7.05152">
        <ele>953.7</ele>
        <time>2022-09-21T10:41:49.000Z</time>
      </trkpt>
      <trkpt lat="43.75386" lon="7.05158">
        <ele>954.3</ele>
        <time>2022-09-21T10:41:50.000Z</time>
      </trkpt>
      <trkpt lat="43.75383" lon="7.05163">
        <ele>954.7</ele>
        <time>2022-09-21T10:41:51.000Z</time>
      </trkpt>
      <trkpt lat="43.75378" lon="7.05173">
        <ele>954.8</ele>
        <time>2022-09-21T10:41:53.000Z</time>
      </trkpt>
      <trkpt lat="43.75373" lon="7.05182">
        <ele>954.9</ele>
        <time>2022-09-21T10:41:55.000Z</time>
      </trkpt>
      <trkpt lat="43.75368" lon="7.0519">
        <ele>955.3</ele>
        <time>2022-09-21T10:41:57.000Z</time>
      </trkpt>
      <trkpt lat="43.75363" lon="7.05199">
        <ele>955.4</ele>
        <time>2022-09-21T10:41:59.000Z</time>
      </trkpt>
      <trkpt lat="43.75358" lon="7.05207">
        <ele>955.2</ele>
        <time>2022-09-21T10:42:01.000Z</time>
      </trkpt>
      <trkpt lat="43.75355" lon="7.05212">
        <ele>954.8</ele>
        <time>2022-09-21T10:42:02.000Z</time>
      </trkpt>
      <trkpt lat="43.75349" lon="7.05221">
        <ele>953.9</ele>
        <time>2022-09-21T10:42:04.000Z</time>
      </trkpt>
      <trkpt lat="43.75344" lon="7.05229">
        <ele>954.4</ele>
        <time>2022-09-21T10:42:06.000Z</time>
      </trkpt>
      <trkpt lat="43.7534" lon="7.05233">
        <ele>953.7</ele>
        <time>2022-09-21T10:42:07.000Z</time>
      </trkpt>
      <trkpt lat="43.75337" lon="7.05238">
        <ele>953.2</ele>
        <time>2022-09-21T10:42:08.000Z</time>
      </trkpt>
      <trkpt lat="43.75331" lon="7.05246">
        <ele>953.3</ele>
        <time>2022-09-21T10:42:10.000Z</time>
      </trkpt>
      <trkpt lat="43.75326" lon="7.05254">
        <ele>953.3</ele>
        <time>2022-09-21T10:42:12.000Z</time>
      </trkpt>
      <trkpt lat="43.7532" lon="7.05262">
        <ele>952.8</ele>
        <time>2022-09-21T10:42:14.000Z</time>
      </trkpt>
      <trkpt lat="43.75315" lon="7.05271">
        <ele>953.4</ele>
        <time>2022-09-21T10:42:16.000Z</time>
      </trkpt>
      <trkpt lat="43.75309" lon="7.05279">
        <ele>952.8</ele>
        <time>2022-09-21T10:42:18.000Z</time>
      </trkpt>
      <trkpt lat="43.75304" lon="7.05287">
        <ele>952.8</ele>
        <time>2022-09-21T10:42:20.000Z</time>
      </trkpt>
      <trkpt lat="43.75299" lon="7.05296">
        <ele>953.3</ele>
        <time>2022-09-21T10:42:22.000Z</time>
      </trkpt>
      <trkpt lat="43.75294" lon="7.05304">
        <ele>953</ele>
        <time>2022-09-21T10:42:24.000Z</time>
      </trkpt>
      <trkpt lat="43.75291" lon="7.05315">
        <ele>953.1</ele>
        <time>2022-09-21T10:42:26.000Z</time>
      </trkpt>
      <trkpt lat="43.7529" lon="7.05327">
        <ele>953</ele>
        <time>2022-09-21T10:42:28.000Z</time>
      </trkpt>
      <trkpt lat="43.75288" lon="7.05338">
        <ele>952.8</ele>
        <time>2022-09-21T10:42:30.000Z</time>
      </trkpt>
      <trkpt lat="43.75285" lon="7.05349">
        <ele>952.6</ele>
        <time>2022-09-21T10:42:32.000Z</time>
      </trkpt>
      <trkpt lat="43.75281" lon="7.05357">
        <ele>952.3</ele>
        <time>2022-09-21T10:42:34.000Z</time>
      </trkpt>
      <trkpt lat="43.75277" lon="7.05365">
        <ele>952</ele>
        <time>2022-09-21T10:42:36.000Z</time>
      </trkpt>
      <trkpt lat="43.75273" lon="7.05376">
        <ele>952.1</ele>
        <time>2022-09-21T10:42:38.000Z</time>
      </trkpt>
      <trkpt lat="43.75271" lon="7.05382">
        <ele>951.3</ele>
        <time>2022-09-21T10:42:39.000Z</time>
      </trkpt>
      <trkpt lat="43.7527" lon="7.05388">
        <ele>951.2</ele>
        <time>2022-09-21T10:42:40.000Z</time>
      </trkpt>
      <trkpt lat="43.75267" lon="7.05399">
        <ele>951.2</ele>
        <time>2022-09-21T10:42:42.000Z</time>
      </trkpt>
      <trkpt lat="43.75263" lon="7.05409">
        <ele>951.1</ele>
        <time>2022-09-21T10:42:44.000Z</time>
      </trkpt>
      <trkpt lat="43.75258" lon="7.05416">
        <ele>950.3</ele>
        <time>2022-09-21T10:42:46.000Z</time>
      </trkpt>
      <trkpt lat="43.75253" lon="7.05422">
        <ele>950</ele>
        <time>2022-09-21T10:42:48.000Z</time>
      </trkpt>
      <trkpt lat="43.75247" lon="7.05428">
        <ele>949.4</ele>
        <time>2022-09-21T10:42:50.000Z</time>
      </trkpt>
      <trkpt lat="43.7524" lon="7.05436">
        <ele>948.8</ele>
        <time>2022-09-21T10:42:52.000Z</time>
      </trkpt>
      <trkpt lat="43.75234" lon="7.05444">
        <ele>948</ele>
        <time>2022-09-21T10:42:54.000Z</time>
      </trkpt>
      <trkpt lat="43.75227" lon="7.05451">
        <ele>947</ele>
        <time>2022-09-21T10:42:56.000Z</time>
      </trkpt>
      <trkpt lat="43.75222" lon="7.05457">
        <ele>947.6</ele>
        <time>2022-09-21T10:42:58.000Z</time>
      </trkpt>
      <trkpt lat="43.75214" lon="7.05462">
        <ele>947.3</ele>
        <time>2022-09-21T10:43:00.000Z</time>
      </trkpt>
      <trkpt lat="43.75206" lon="7.05468">
        <ele>947.2</ele>
        <time>2022-09-21T10:43:02.000Z</time>
      </trkpt>
      <trkpt lat="43.75202" lon="7.0547">
        <ele>947.3</ele>
        <time>2022-09-21T10:43:03.000Z</time>
      </trkpt>
      <trkpt lat="43.75198" lon="7.05473">
        <ele>947.4</ele>
        <time>2022-09-21T10:43:04.000Z</time>
      </trkpt>
      <trkpt lat="43.75194" lon="7.05475">
        <ele>947.4</ele>
        <time>2022-09-21T10:43:05.000Z</time>
      </trkpt>
      <trkpt lat="43.75187" lon="7.05482">
        <ele>948.2</ele>
        <time>2022-09-21T10:43:07.000Z</time>
      </trkpt>
      <trkpt lat="43.75181" lon="7.0549">
        <ele>947.3</ele>
        <time>2022-09-21T10:43:09.000Z</time>
      </trkpt>
      <trkpt lat="43.75174" lon="7.05499">
        <ele>947.6</ele>
        <time>2022-09-21T10:43:11.000Z</time>
      </trkpt>
      <trkpt lat="43.7517" lon="7.05504">
        <ele>948</ele>
        <time>2022-09-21T10:43:12.000Z</time>
      </trkpt>
      <trkpt lat="43.75167" lon="7.05508">
        <ele>948.6</ele>
        <time>2022-09-21T10:43:13.000Z</time>
      </trkpt>
      <trkpt lat="43.75164" lon="7.05513">
        <ele>948.7</ele>
        <time>2022-09-21T10:43:14.000Z</time>
      </trkpt>
      <trkpt lat="43.75157" lon="7.05521">
        <ele>947.7</ele>
        <time>2022-09-21T10:43:16.000Z</time>
      </trkpt>
      <trkpt lat="43.75152" lon="7.05528">
        <ele>948.7</ele>
        <time>2022-09-21T10:43:18.000Z</time>
      </trkpt>
      <trkpt lat="43.75147" lon="7.05535">
        <ele>948.9</ele>
        <time>2022-09-21T10:43:20.000Z</time>
      </trkpt>
      <trkpt lat="43.75143" lon="7.05542">
        <ele>949.4</ele>
        <time>2022-09-21T10:43:22.000Z</time>
      </trkpt>
      <trkpt lat="43.75137" lon="7.05548">
        <ele>950.2</ele>
        <time>2022-09-21T10:43:24.000Z</time>
      </trkpt>
      <trkpt lat="43.75132" lon="7.05553">
        <ele>949.9</ele>
        <time>2022-09-21T10:43:26.000Z</time>
      </trkpt>
      <trkpt lat="43.75127" lon="7.05556">
        <ele>951</ele>
        <time>2022-09-21T10:43:28.000Z</time>
      </trkpt>
      <trkpt lat="43.75122" lon="7.05558">
        <ele>951.4</ele>
        <time>2022-09-21T10:43:30.000Z</time>
      </trkpt>
      <trkpt lat="43.75117" lon="7.05561">
        <ele>951.4</ele>
        <time>2022-09-21T10:43:32.000Z</time>
      </trkpt>
      <trkpt lat="43.75111" lon="7.05565">
        <ele>951.5</ele>
        <time>2022-09-21T10:43:34.000Z</time>
      </trkpt>
      <trkpt lat="43.75106" lon="7.05568">
        <ele>951.7</ele>
        <time>2022-09-21T10:43:36.000Z</time>
      </trkpt>
      <trkpt lat="43.75101" lon="7.05568">
        <ele>952.1</ele>
        <time>2022-09-21T10:43:38.000Z</time>
      </trkpt>
      <trkpt lat="43.75097" lon="7.05566">
        <ele>952.3</ele>
        <time>2022-09-21T10:43:40.000Z</time>
      </trkpt>
      <trkpt lat="43.75092" lon="7.05562">
        <ele>952.7</ele>
        <time>2022-09-21T10:43:42.000Z</time>
      </trkpt>
      <trkpt lat="43.75088" lon="7.05557">
        <ele>953.2</ele>
        <time>2022-09-21T10:43:44.000Z</time>
      </trkpt>
      <trkpt lat="43.75083" lon="7.05551">
        <ele>952.9</ele>
        <time>2022-09-21T10:43:46.000Z</time>
      </trkpt>
      <trkpt lat="43.75078" lon="7.05546">
        <ele>952.6</ele>
        <time>2022-09-21T10:43:48.000Z</time>
      </trkpt>
      <trkpt lat="43.75075" lon="7.0554">
        <ele>952.6</ele>
        <time>2022-09-21T10:43:50.000Z</time>
      </trkpt>
      <trkpt lat="43.7507" lon="7.05534">
        <ele>952.5</ele>
        <time>2022-09-21T10:43:52.000Z</time>
      </trkpt>
      <trkpt lat="43.75066" lon="7.05529">
        <ele>952.8</ele>
        <time>2022-09-21T10:43:54.000Z</time>
      </trkpt>
      <trkpt lat="43.75061" lon="7.05525">
        <ele>952.9</ele>
        <time>2022-09-21T10:43:56.000Z</time>
      </trkpt>
      <trkpt lat="43.75056" lon="7.0552">
        <ele>953</ele>
        <time>2022-09-21T10:43:58.000Z</time>
      </trkpt>
      <trkpt lat="43.75051" lon="7.05516">
        <ele>952.7</ele>
        <time>2022-09-21T10:44:00.000Z</time>
      </trkpt>
      <trkpt lat="43.75047" lon="7.05511">
        <ele>952.4</ele>
        <time>2022-09-21T10:44:02.000Z</time>
      </trkpt>
      <trkpt lat="43.7504" lon="7.05504">
        <ele>952</ele>
        <time>2022-09-21T10:44:04.000Z</time>
      </trkpt>
      <trkpt lat="43.75036" lon="7.05501">
        <ele>951.3</ele>
        <time>2022-09-21T10:44:05.000Z</time>
      </trkpt>
      <trkpt lat="43.75031" lon="7.05499">
        <ele>950.9</ele>
        <time>2022-09-21T10:44:06.000Z</time>
      </trkpt>
      <trkpt lat="43.75024" lon="7.05497">
        <ele>951</ele>
        <time>2022-09-21T10:44:08.000Z</time>
      </trkpt>
      <trkpt lat="43.75018" lon="7.05496">
        <ele>949.1</ele>
        <time>2022-09-21T10:44:10.000Z</time>
      </trkpt>
      <trkpt lat="43.75013" lon="7.05494">
        <ele>950.5</ele>
        <time>2022-09-21T10:44:12.000Z</time>
      </trkpt>
      <trkpt lat="43.75008" lon="7.05493">
        <ele>955.2</ele>
        <time>2022-09-21T10:44:14.000Z</time>
      </trkpt>
      <trkpt lat="43.75004" lon="7.0549">
        <ele>953.6</ele>
        <time>2022-09-21T10:44:16.000Z</time>
      </trkpt>
      <trkpt lat="43.75" lon="7.05484">
        <ele>951.9</ele>
        <time>2022-09-21T10:44:18.000Z</time>
      </trkpt>
      <trkpt lat="43.74996" lon="7.05479">
        <ele>952</ele>
        <time>2022-09-21T10:44:20.000Z</time>
      </trkpt>
      <trkpt lat="43.74991" lon="7.05473">
        <ele>952</ele>
        <time>2022-09-21T10:44:22.000Z</time>
      </trkpt>
      <trkpt lat="43.74987" lon="7.05468">
        <ele>951.9</ele>
        <time>2022-09-21T10:44:24.000Z</time>
      </trkpt>
      <trkpt lat="43.74983" lon="7.05462">
        <ele>951.8</ele>
        <time>2022-09-21T10:44:26.000Z</time>
      </trkpt>
      <trkpt lat="43.74979" lon="7.05456">
        <ele>951.7</ele>
        <time>2022-09-21T10:44:28.000Z</time>
      </trkpt>
      <trkpt lat="43.74976" lon="7.0545">
        <ele>951.6</ele>
        <time>2022-09-21T10:44:30.000Z</time>
      </trkpt>
      <trkpt lat="43.74972" lon="7.05444">
        <ele>951.8</ele>
        <time>2022-09-21T10:44:33.000Z</time>
      </trkpt>
      <trkpt lat="43.74974" lon="7.05437">
        <ele>951.9</ele>
        <time>2022-09-21T10:44:36.000Z</time>
      </trkpt>
      <trkpt lat="43.74977" lon="7.05434">
        <ele>952.3</ele>
        <time>2022-09-21T10:44:39.000Z</time>
      </trkpt>
      <trkpt lat="43.74979" lon="7.05426">
        <ele>952.7</ele>
        <time>2022-09-21T10:44:43.000Z</time>
      </trkpt>
      <trkpt lat="43.74978" lon="7.05425">
        <ele>953.1</ele>
        <time>2022-09-21T10:44:49.000Z</time>
      </trkpt>
      <trkpt lat="43.74978" lon="7.05425">
        <ele>953.2</ele>
        <time>2022-09-21T10:44:50.000Z</time>
      </trkpt>
      <trkpt lat="43.74976" lon="7.05418">
        <ele>953.4</ele>
        <time>2022-09-21T10:44:56.000Z</time>
      </trkpt>
      <trkpt lat="43.74975" lon="7.05418">
        <ele>952.6</ele>
        <time>2022-09-21T10:45:01.000Z</time>
      </trkpt>
      <trkpt lat="43.74974" lon="7.05418">
        <ele>952.6</ele>
        <time>2022-09-21T10:45:02.000Z</time>
      </trkpt>
      <trkpt lat="43.74974" lon="7.05418">
        <ele>952.4</ele>
        <time>2022-09-21T10:45:04.000Z</time>
      </trkpt>
      <trkpt lat="43.74975" lon="7.05418">
        <ele>952.2</ele>
        <time>2022-09-21T10:45:05.000Z</time>
      </trkpt>
      <trkpt lat="43.7497" lon="7.05416">
        <ele>953.4</ele>
        <time>2022-09-21T10:45:13.000Z</time>
      </trkpt>
      <trkpt lat="43.74965" lon="7.05414">
        <ele>953.1</ele>
        <time>2022-09-21T10:45:17.000Z</time>
      </trkpt>
      <trkpt lat="43.74965" lon="7.05412">
        <ele>953</ele>
        <time>2022-09-21T10:45:23.000Z</time>
      </trkpt>
      <trkpt lat="43.74966" lon="7.05413">
        <ele>953.6</ele>
        <time>2022-09-21T10:45:25.000Z</time>
      </trkpt>
      <trkpt lat="43.74965" lon="7.05413">
        <ele>953.5</ele>
        <time>2022-09-21T10:45:27.000Z</time>
      </trkpt>
      <trkpt lat="43.74965" lon="7.05412">
        <ele>953.3</ele>
        <time>2022-09-21T10:45:28.000Z</time>
      </trkpt>
      <trkpt lat="43.74961" lon="7.05407">
        <ele>953.3</ele>
        <time>2022-09-21T10:45:32.000Z</time>
      </trkpt>
      <trkpt lat="43.74957" lon="7.05401">
        <ele>953.8</ele>
        <time>2022-09-21T10:45:35.000Z</time>
      </trkpt>
      <trkpt lat="43.74951" lon="7.05396">
        <ele>953.1</ele>
        <time>2022-09-21T10:45:38.000Z</time>
      </trkpt>
      <trkpt lat="43.74946" lon="7.05391">
        <ele>953.6</ele>
        <time>2022-09-21T10:45:41.000Z</time>
      </trkpt>
      <trkpt lat="43.74942" lon="7.05385">
        <ele>953.8</ele>
        <time>2022-09-21T10:45:44.000Z</time>
      </trkpt>
      <trkpt lat="43.74938" lon="7.05379">
        <ele>954.1</ele>
        <time>2022-09-21T10:45:47.000Z</time>
      </trkpt>
      <trkpt lat="43.74934" lon="7.05373">
        <ele>954.3</ele>
        <time>2022-09-21T10:45:50.000Z</time>
      </trkpt>
      <trkpt lat="43.7493" lon="7.05367">
        <ele>954.7</ele>
        <time>2022-09-21T10:45:53.000Z</time>
      </trkpt>
      <trkpt lat="43.74926" lon="7.05362">
        <ele>955.3</ele>
        <time>2022-09-21T10:45:57.000Z</time>
      </trkpt>
      <trkpt lat="43.74924" lon="7.05356">
        <ele>955.4</ele>
        <time>2022-09-21T10:46:01.000Z</time>
      </trkpt>
      <trkpt lat="43.74919" lon="7.05353">
        <ele>955.3</ele>
        <time>2022-09-21T10:46:05.000Z</time>
      </trkpt>
      <trkpt lat="43.74915" lon="7.05349">
        <ele>956.8</ele>
        <time>2022-09-21T10:46:13.000Z</time>
      </trkpt>
      <trkpt lat="43.74911" lon="7.05343">
        <ele>956.9</ele>
        <time>2022-09-21T10:46:18.000Z</time>
      </trkpt>
      <trkpt lat="43.74906" lon="7.05339">
        <ele>957.4</ele>
        <time>2022-09-21T10:46:22.000Z</time>
      </trkpt>
      <trkpt lat="43.74902" lon="7.05334">
        <ele>958</ele>
        <time>2022-09-21T10:46:27.000Z</time>
      </trkpt>
      <trkpt lat="43.74897" lon="7.05331">
        <ele>958.2</ele>
        <time>2022-09-21T10:46:35.000Z</time>
      </trkpt>
      <trkpt lat="43.74894" lon="7.05324">
        <ele>958.9</ele>
        <time>2022-09-21T10:46:40.000Z</time>
      </trkpt>
      <trkpt lat="43.74891" lon="7.05318">
        <ele>959.7</ele>
        <time>2022-09-21T10:46:45.000Z</time>
      </trkpt>
      <trkpt lat="43.74888" lon="7.05312">
        <ele>960.5</ele>
        <time>2022-09-21T10:46:49.000Z</time>
      </trkpt>
      <trkpt lat="43.74884" lon="7.05309">
        <ele>961.8</ele>
        <time>2022-09-21T10:46:53.000Z</time>
      </trkpt>
      <trkpt lat="43.74883" lon="7.05306">
        <ele>962.9</ele>
        <time>2022-09-21T10:47:00.000Z</time>
      </trkpt>
      <trkpt lat="43.74883" lon="7.05306">
        <ele>962.8</ele>
        <time>2022-09-21T10:47:01.000Z</time>
      </trkpt>
      <trkpt lat="43.74885" lon="7.05298">
        <ele>962.5</ele>
        <time>2022-09-21T10:47:06.000Z</time>
      </trkpt>
      <trkpt lat="43.74886" lon="7.05292">
        <ele>962.2</ele>
        <time>2022-09-21T10:47:08.000Z</time>
      </trkpt>
      <trkpt lat="43.74883" lon="7.05285">
        <ele>962.3</ele>
        <time>2022-09-21T10:47:11.000Z</time>
      </trkpt>
      <trkpt lat="43.74881" lon="7.05279">
        <ele>962.4</ele>
        <time>2022-09-21T10:47:15.000Z</time>
      </trkpt>
      <trkpt lat="43.74884" lon="7.05285">
        <ele>961.8</ele>
        <time>2022-09-21T10:47:24.000Z</time>
      </trkpt>
      <trkpt lat="43.74885" lon="7.05292">
        <ele>962</ele>
        <time>2022-09-21T10:47:27.000Z</time>
      </trkpt>
      <trkpt lat="43.74885" lon="7.053">
        <ele>962</ele>
        <time>2022-09-21T10:47:30.000Z</time>
      </trkpt>
      <trkpt lat="43.74884" lon="7.05306">
        <ele>962</ele>
        <time>2022-09-21T10:47:33.000Z</time>
      </trkpt>
      <trkpt lat="43.74882" lon="7.05312">
        <ele>962.1</ele>
        <time>2022-09-21T10:47:36.000Z</time>
      </trkpt>
      <trkpt lat="43.74877" lon="7.05317">
        <ele>962.1</ele>
        <time>2022-09-21T10:47:40.000Z</time>
      </trkpt>
      <trkpt lat="43.74872" lon="7.05318">
        <ele>962.7</ele>
        <time>2022-09-21T10:47:43.000Z</time>
      </trkpt>
      <trkpt lat="43.74867" lon="7.05316">
        <ele>963.5</ele>
        <time>2022-09-21T10:47:48.000Z</time>
      </trkpt>
      <trkpt lat="43.74866" lon="7.05316">
        <ele>964.3</ele>
        <time>2022-09-21T10:47:51.000Z</time>
      </trkpt>
      <trkpt lat="43.74866" lon="7.05316">
        <ele>964.3</ele>
        <time>2022-09-21T10:47:53.000Z</time>
      </trkpt>
      <trkpt lat="43.7486" lon="7.05315">
        <ele>965.8</ele>
        <time>2022-09-21T10:47:59.000Z</time>
      </trkpt>
      <trkpt lat="43.74855" lon="7.05313">
        <ele>967.4</ele>
        <time>2022-09-21T10:48:05.000Z</time>
      </trkpt>
      <trkpt lat="43.74849" lon="7.05314">
        <ele>969.8</ele>
        <time>2022-09-21T10:48:10.000Z</time>
      </trkpt>
      <trkpt lat="43.74845" lon="7.05313">
        <ele>969.9</ele>
        <time>2022-09-21T10:48:15.000Z</time>
      </trkpt>
      <trkpt lat="43.7484" lon="7.0531">
        <ele>971.2</ele>
        <time>2022-09-21T10:48:22.000Z</time>
      </trkpt>
      <trkpt lat="43.74836" lon="7.05309">
        <ele>972.4</ele>
        <time>2022-09-21T10:48:28.000Z</time>
      </trkpt>
      <trkpt lat="43.74832" lon="7.05312">
        <ele>973.3</ele>
        <time>2022-09-21T10:48:34.000Z</time>
      </trkpt>
      <trkpt lat="43.74827" lon="7.05313">
        <ele>974.1</ele>
        <time>2022-09-21T10:48:39.000Z</time>
      </trkpt>
      <trkpt lat="43.74825" lon="7.05314">
        <ele>974.2</ele>
        <time>2022-09-21T10:48:47.000Z</time>
      </trkpt>
      <trkpt lat="43.74825" lon="7.05314">
        <ele>974.1</ele>
        <time>2022-09-21T10:48:48.000Z</time>
      </trkpt>
      <trkpt lat="43.7482" lon="7.05312">
        <ele>974.7</ele>
        <time>2022-09-21T10:48:54.000Z</time>
      </trkpt>
      <trkpt lat="43.74817" lon="7.05308">
        <ele>975.4</ele>
        <time>2022-09-21T10:48:59.000Z</time>
      </trkpt>
      <trkpt lat="43.74814" lon="7.05305">
        <ele>976.1</ele>
        <time>2022-09-21T10:49:06.000Z</time>
      </trkpt>
      <trkpt lat="43.74814" lon="7.05304">
        <ele>976.3</ele>
        <time>2022-09-21T10:49:09.000Z</time>
      </trkpt>
      <trkpt lat="43.7481" lon="7.053">
        <ele>976.7</ele>
        <time>2022-09-21T10:49:17.000Z</time>
      </trkpt>
      <trkpt lat="43.74808" lon="7.05294">
        <ele>976.9</ele>
        <time>2022-09-21T10:49:21.000Z</time>
      </trkpt>
      <trkpt lat="43.74803" lon="7.05291">
        <ele>976.6</ele>
        <time>2022-09-21T10:49:24.000Z</time>
      </trkpt>
      <trkpt lat="43.74797" lon="7.0529">
        <ele>976.7</ele>
        <time>2022-09-21T10:49:27.000Z</time>
      </trkpt>
      <trkpt lat="43.74793" lon="7.05284">
        <ele>976.9</ele>
        <time>2022-09-21T10:49:30.000Z</time>
      </trkpt>
      <trkpt lat="43.74789" lon="7.05278">
        <ele>977.2</ele>
        <time>2022-09-21T10:49:33.000Z</time>
      </trkpt>
      <trkpt lat="43.74784" lon="7.05273">
        <ele>977.7</ele>
        <time>2022-09-21T10:49:36.000Z</time>
      </trkpt>
      <trkpt lat="43.74779" lon="7.05268">
        <ele>978.5</ele>
        <time>2022-09-21T10:49:39.000Z</time>
      </trkpt>
      <trkpt lat="43.74776" lon="7.05263">
        <ele>978.4</ele>
        <time>2022-09-21T10:49:42.000Z</time>
      </trkpt>
      <trkpt lat="43.74771" lon="7.0526">
        <ele>978.9</ele>
        <time>2022-09-21T10:49:45.000Z</time>
      </trkpt>
      <trkpt lat="43.74767" lon="7.05257">
        <ele>979.9</ele>
        <time>2022-09-21T10:49:49.000Z</time>
      </trkpt>
      <trkpt lat="43.74766" lon="7.05251">
        <ele>980.6</ele>
        <time>2022-09-21T10:49:52.000Z</time>
      </trkpt>
      <trkpt lat="43.74763" lon="7.05244">
        <ele>981.2</ele>
        <time>2022-09-21T10:49:56.000Z</time>
      </trkpt>
      <trkpt lat="43.74761" lon="7.05239">
        <ele>981.4</ele>
        <time>2022-09-21T10:50:00.000Z</time>
      </trkpt>
      <trkpt lat="43.74759" lon="7.05232">
        <ele>982</ele>
        <time>2022-09-21T10:50:04.000Z</time>
      </trkpt>
      <trkpt lat="43.74756" lon="7.05226">
        <ele>982.8</ele>
        <time>2022-09-21T10:50:08.000Z</time>
      </trkpt>
      <trkpt lat="43.74754" lon="7.05219">
        <ele>983.6</ele>
        <time>2022-09-21T10:50:12.000Z</time>
      </trkpt>
      <trkpt lat="43.74753" lon="7.05213">
        <ele>984.2</ele>
        <time>2022-09-21T10:50:15.000Z</time>
      </trkpt>
      <trkpt lat="43.7475" lon="7.05206">
        <ele>984.8</ele>
        <time>2022-09-21T10:50:19.000Z</time>
      </trkpt>
      <trkpt lat="43.7475" lon="7.05199">
        <ele>985.6</ele>
        <time>2022-09-21T10:50:23.000Z</time>
      </trkpt>
      <trkpt lat="43.7475" lon="7.05192">
        <ele>985.7</ele>
        <time>2022-09-21T10:50:26.000Z</time>
      </trkpt>
      <trkpt lat="43.7475" lon="7.05184">
        <ele>986.1</ele>
        <time>2022-09-21T10:50:29.000Z</time>
      </trkpt>
      <trkpt lat="43.7475" lon="7.05177">
        <ele>986.7</ele>
        <time>2022-09-21T10:50:32.000Z</time>
      </trkpt>
      <trkpt lat="43.74749" lon="7.0517">
        <ele>987.2</ele>
        <time>2022-09-21T10:50:35.000Z</time>
      </trkpt>
      <trkpt lat="43.74748" lon="7.05164">
        <ele>987.7</ele>
        <time>2022-09-21T10:50:39.000Z</time>
      </trkpt>
      <trkpt lat="43.74745" lon="7.05158">
        <ele>988.5</ele>
        <time>2022-09-21T10:50:43.000Z</time>
      </trkpt>
      <trkpt lat="43.74743" lon="7.05156">
        <ele>989.5</ele>
        <time>2022-09-21T10:50:51.000Z</time>
      </trkpt>
      <trkpt lat="43.74743" lon="7.05156">
        <ele>989.6</ele>
        <time>2022-09-21T10:50:54.000Z</time>
      </trkpt>
      <trkpt lat="43.74737" lon="7.05154">
        <ele>990.6</ele>
        <time>2022-09-21T10:51:00.000Z</time>
      </trkpt>
      <trkpt lat="43.74732" lon="7.05154">
        <ele>991.7</ele>
        <time>2022-09-21T10:51:05.000Z</time>
      </trkpt>
      <trkpt lat="43.74728" lon="7.05152">
        <ele>992.4</ele>
        <time>2022-09-21T10:51:10.000Z</time>
      </trkpt>
      <trkpt lat="43.74723" lon="7.05149">
        <ele>993.5</ele>
        <time>2022-09-21T10:51:16.000Z</time>
      </trkpt>
      <trkpt lat="43.7472" lon="7.05143">
        <ele>994.3</ele>
        <time>2022-09-21T10:51:22.000Z</time>
      </trkpt>
      <trkpt lat="43.74718" lon="7.0514">
        <ele>995.5</ele>
        <time>2022-09-21T10:51:30.000Z</time>
      </trkpt>
      <trkpt lat="43.74718" lon="7.0514">
        <ele>995.3</ele>
        <time>2022-09-21T10:51:42.000Z</time>
      </trkpt>
      <trkpt lat="43.74718" lon="7.0514">
        <ele>995.5</ele>
        <time>2022-09-21T10:51:43.000Z</time>
      </trkpt>
      <trkpt lat="43.74718" lon="7.0514">
        <ele>995.8</ele>
        <time>2022-09-21T10:51:51.000Z</time>
      </trkpt>
      <trkpt lat="43.74716" lon="7.05133">
        <ele>996.4</ele>
        <time>2022-09-21T10:51:55.000Z</time>
      </trkpt>
      <trkpt lat="43.74713" lon="7.05126">
        <ele>996.8</ele>
        <time>2022-09-21T10:51:58.000Z</time>
      </trkpt>
      <trkpt lat="43.74709" lon="7.0512">
        <ele>996.9</ele>
        <time>2022-09-21T10:52:01.000Z</time>
      </trkpt>
      <trkpt lat="43.74705" lon="7.05115">
        <ele>997.2</ele>
        <time>2022-09-21T10:52:04.000Z</time>
      </trkpt>
      <trkpt lat="43.74701" lon="7.05108">
        <ele>998</ele>
        <time>2022-09-21T10:52:07.000Z</time>
      </trkpt>
      <trkpt lat="43.74698" lon="7.051">
        <ele>997.9</ele>
        <time>2022-09-21T10:52:10.000Z</time>
      </trkpt>
      <trkpt lat="43.74696" lon="7.05095">
        <ele>998.1</ele>
        <time>2022-09-21T10:52:12.000Z</time>
      </trkpt>
      <trkpt lat="43.74691" lon="7.05088">
        <ele>998.4</ele>
        <time>2022-09-21T10:52:15.000Z</time>
      </trkpt>
      <trkpt lat="43.74687" lon="7.05082">
        <ele>999.2</ele>
        <time>2022-09-21T10:52:18.000Z</time>
      </trkpt>
      <trkpt lat="43.74683" lon="7.05076">
        <ele>999.4</ele>
        <time>2022-09-21T10:52:21.000Z</time>
      </trkpt>
      <trkpt lat="43.74679" lon="7.0507">
        <ele>999.7</ele>
        <time>2022-09-21T10:52:24.000Z</time>
      </trkpt>
      <trkpt lat="43.74674" lon="7.05065">
        <ele>1000.1</ele>
        <time>2022-09-21T10:52:27.000Z</time>
      </trkpt>
      <trkpt lat="43.7467" lon="7.05059">
        <ele>1000.6</ele>
        <time>2022-09-21T10:52:30.000Z</time>
      </trkpt>
      <trkpt lat="43.74667" lon="7.05052">
        <ele>1000.9</ele>
        <time>2022-09-21T10:52:33.000Z</time>
      </trkpt>
      <trkpt lat="43.74664" lon="7.05046">
        <ele>1001.1</ele>
        <time>2022-09-21T10:52:36.000Z</time>
      </trkpt>
      <trkpt lat="43.74659" lon="7.05041">
        <ele>1001.8</ele>
        <time>2022-09-21T10:52:39.000Z</time>
      </trkpt>
      <trkpt lat="43.74655" lon="7.05037">
        <ele>1002.4</ele>
        <time>2022-09-21T10:52:42.000Z</time>
      </trkpt>
      <trkpt lat="43.7465" lon="7.05034">
        <ele>1002.7</ele>
        <time>2022-09-21T10:52:45.000Z</time>
      </trkpt>
      <trkpt lat="43.74647" lon="7.05029">
        <ele>1003.3</ele>
        <time>2022-09-21T10:52:48.000Z</time>
      </trkpt>
      <trkpt lat="43.74643" lon="7.05025">
        <ele>1003.8</ele>
        <time>2022-09-21T10:52:51.000Z</time>
      </trkpt>
      <trkpt lat="43.74639" lon="7.05022">
        <ele>1005</ele>
        <time>2022-09-21T10:52:55.000Z</time>
      </trkpt>
      <trkpt lat="43.74633" lon="7.05019">
        <ele>1005.4</ele>
        <time>2022-09-21T10:52:59.000Z</time>
      </trkpt>
      <trkpt lat="43.74628" lon="7.05016">
        <ele>1006.2</ele>
        <time>2022-09-21T10:53:03.000Z</time>
      </trkpt>
      <trkpt lat="43.74624" lon="7.05012">
        <ele>1006.6</ele>
        <time>2022-09-21T10:53:07.000Z</time>
      </trkpt>
      <trkpt lat="43.74619" lon="7.05009">
        <ele>1007.4</ele>
        <time>2022-09-21T10:53:11.000Z</time>
      </trkpt>
      <trkpt lat="43.74614" lon="7.05007">
        <ele>1008.5</ele>
        <time>2022-09-21T10:53:15.000Z</time>
      </trkpt>
      <trkpt lat="43.74608" lon="7.05005">
        <ele>1009.1</ele>
        <time>2022-09-21T10:53:19.000Z</time>
      </trkpt>
      <trkpt lat="43.74603" lon="7.05005">
        <ele>1010.1</ele>
        <time>2022-09-21T10:53:23.000Z</time>
      </trkpt>
      <trkpt lat="43.74597" lon="7.05002">
        <ele>1010.3</ele>
        <time>2022-09-21T10:53:27.000Z</time>
      </trkpt>
      <trkpt lat="43.74592" lon="7.05001">
        <ele>1010.7</ele>
        <time>2022-09-21T10:53:30.000Z</time>
      </trkpt>
      <trkpt lat="43.74587" lon="7.05001">
        <ele>1010.8</ele>
        <time>2022-09-21T10:53:33.000Z</time>
      </trkpt>
      <trkpt lat="43.74582" lon="7.05001">
        <ele>1010.8</ele>
        <time>2022-09-21T10:53:36.000Z</time>
      </trkpt>
      <trkpt lat="43.74576" lon="7.05002">
        <ele>1011.1</ele>
        <time>2022-09-21T10:53:39.000Z</time>
      </trkpt>
      <trkpt lat="43.74572" lon="7.05002">
        <ele>1011.6</ele>
        <time>2022-09-21T10:53:42.000Z</time>
      </trkpt>
      <trkpt lat="43.74566" lon="7.05003">
        <ele>1011.8</ele>
        <time>2022-09-21T10:53:45.000Z</time>
      </trkpt>
      <trkpt lat="43.7456" lon="7.05002">
        <ele>1011.9</ele>
        <time>2022-09-21T10:53:48.000Z</time>
      </trkpt>
      <trkpt lat="43.74555" lon="7.05002">
        <ele>1011.9</ele>
        <time>2022-09-21T10:53:50.000Z</time>
      </trkpt>
      <trkpt lat="43.74549" lon="7.05002">
        <ele>1011.8</ele>
        <time>2022-09-21T10:53:53.000Z</time>
      </trkpt>
      <trkpt lat="43.74543" lon="7.05">
        <ele>1011.9</ele>
        <time>2022-09-21T10:53:55.000Z</time>
      </trkpt>
      <trkpt lat="43.74538" lon="7.04997">
        <ele>1011.7</ele>
        <time>2022-09-21T10:53:57.000Z</time>
      </trkpt>
      <trkpt lat="43.74533" lon="7.04997">
        <ele>1011.7</ele>
        <time>2022-09-21T10:53:59.000Z</time>
      </trkpt>
      <trkpt lat="43.74528" lon="7.04995">
        <ele>1011.8</ele>
        <time>2022-09-21T10:54:01.000Z</time>
      </trkpt>
      <trkpt lat="43.74523" lon="7.04994">
        <ele>1011.4</ele>
        <time>2022-09-21T10:54:03.000Z</time>
      </trkpt>
      <trkpt lat="43.74517" lon="7.04994">
        <ele>1011.9</ele>
        <time>2022-09-21T10:54:05.000Z</time>
      </trkpt>
      <trkpt lat="43.74511" lon="7.04996">
        <ele>1012.3</ele>
        <time>2022-09-21T10:54:07.000Z</time>
      </trkpt>
      <trkpt lat="43.74504" lon="7.04999">
        <ele>1011.4</ele>
        <time>2022-09-21T10:54:09.000Z</time>
      </trkpt>
      <trkpt lat="43.74498" lon="7.05002">
        <ele>1011.3</ele>
        <time>2022-09-21T10:54:11.000Z</time>
      </trkpt>
      <trkpt lat="43.74491" lon="7.05005">
        <ele>1011.6</ele>
        <time>2022-09-21T10:54:13.000Z</time>
      </trkpt>
      <trkpt lat="43.74486" lon="7.05008">
        <ele>1011.1</ele>
        <time>2022-09-21T10:54:15.000Z</time>
      </trkpt>
      <trkpt lat="43.74481" lon="7.0501">
        <ele>1010.6</ele>
        <time>2022-09-21T10:54:17.000Z</time>
      </trkpt>
      <trkpt lat="43.74475" lon="7.05011">
        <ele>1010.5</ele>
        <time>2022-09-21T10:54:19.000Z</time>
      </trkpt>
      <trkpt lat="43.74469" lon="7.05008">
        <ele>1010.9</ele>
        <time>2022-09-21T10:54:21.000Z</time>
      </trkpt>
      <trkpt lat="43.74465" lon="7.05003">
        <ele>1011.2</ele>
        <time>2022-09-21T10:54:23.000Z</time>
      </trkpt>
      <trkpt lat="43.74461" lon="7.04997">
        <ele>1011.5</ele>
        <time>2022-09-21T10:54:25.000Z</time>
      </trkpt>
      <trkpt lat="43.74457" lon="7.04992">
        <ele>1011.6</ele>
        <time>2022-09-21T10:54:27.000Z</time>
      </trkpt>
      <trkpt lat="43.74452" lon="7.04988">
        <ele>1011.3</ele>
        <time>2022-09-21T10:54:29.000Z</time>
      </trkpt>
      <trkpt lat="43.74449" lon="7.04982">
        <ele>1011.7</ele>
        <time>2022-09-21T10:54:32.000Z</time>
      </trkpt>
      <trkpt lat="43.74447" lon="7.04975">
        <ele>1012</ele>
        <time>2022-09-21T10:54:38.000Z</time>
      </trkpt>
      <trkpt lat="43.74447" lon="7.04974">
        <ele>1012.3</ele>
        <time>2022-09-21T10:54:40.000Z</time>
      </trkpt>
      <trkpt lat="43.74448" lon="7.04974">
        <ele>1012.3</ele>
        <time>2022-09-21T10:54:41.000Z</time>
      </trkpt>
      <trkpt lat="43.74448" lon="7.04974">
        <ele>1012.2</ele>
        <time>2022-09-21T10:54:43.000Z</time>
      </trkpt>
      <trkpt lat="43.74448" lon="7.04974">
        <ele>1012.1</ele>
        <time>2022-09-21T10:54:44.000Z</time>
      </trkpt>
      <trkpt lat="43.74446" lon="7.04967">
        <ele>1011.6</ele>
        <time>2022-09-21T10:54:49.000Z</time>
      </trkpt>
      <trkpt lat="43.74441" lon="7.04965">
        <ele>1012.3</ele>
        <time>2022-09-21T10:54:52.000Z</time>
      </trkpt>
      <trkpt lat="43.74436" lon="7.04965">
        <ele>1012.5</ele>
        <time>2022-09-21T10:54:55.000Z</time>
      </trkpt>
      <trkpt lat="43.7443" lon="7.04967">
        <ele>1011</ele>
        <time>2022-09-21T10:54:58.000Z</time>
      </trkpt>
      <trkpt lat="43.74425" lon="7.04969">
        <ele>1009.4</ele>
        <time>2022-09-21T10:55:00.000Z</time>
      </trkpt>
      <trkpt lat="43.74419" lon="7.04971">
        <ele>1008.8</ele>
        <time>2022-09-21T10:55:02.000Z</time>
      </trkpt>
      <trkpt lat="43.74414" lon="7.04972">
        <ele>1007.7</ele>
        <time>2022-09-21T10:55:04.000Z</time>
      </trkpt>
      <trkpt lat="43.74408" lon="7.04976">
        <ele>1006.9</ele>
        <time>2022-09-21T10:55:06.000Z</time>
      </trkpt>
      <trkpt lat="43.744" lon="7.04979">
        <ele>1004.6</ele>
        <time>2022-09-21T10:55:08.000Z</time>
      </trkpt>
      <trkpt lat="43.74395" lon="7.0498">
        <ele>1003.7</ele>
        <time>2022-09-21T10:55:09.000Z</time>
      </trkpt>
      <trkpt lat="43.7439" lon="7.04982">
        <ele>1003.3</ele>
        <time>2022-09-21T10:55:10.000Z</time>
      </trkpt>
      <trkpt lat="43.74385" lon="7.04983">
        <ele>1003</ele>
        <time>2022-09-21T10:55:11.000Z</time>
      </trkpt>
      <trkpt lat="43.74379" lon="7.04989">
        <ele>1002.4</ele>
        <time>2022-09-21T10:55:13.000Z</time>
      </trkpt>
      <trkpt lat="43.74373" lon="7.04989">
        <ele>1001.7</ele>
        <time>2022-09-21T10:55:15.000Z</time>
      </trkpt>
      <trkpt lat="43.74367" lon="7.04992">
        <ele>1001.8</ele>
        <time>2022-09-21T10:55:17.000Z</time>
      </trkpt>
      <trkpt lat="43.74362" lon="7.04997">
        <ele>1002</ele>
        <time>2022-09-21T10:55:19.000Z</time>
      </trkpt>
      <trkpt lat="43.74357" lon="7.05002">
        <ele>1001.6</ele>
        <time>2022-09-21T10:55:21.000Z</time>
      </trkpt>
      <trkpt lat="43.74352" lon="7.05006">
        <ele>1001.4</ele>
        <time>2022-09-21T10:55:23.000Z</time>
      </trkpt>
      <trkpt lat="43.74348" lon="7.05006">
        <ele>1002.1</ele>
        <time>2022-09-21T10:55:25.000Z</time>
      </trkpt>
      <trkpt lat="43.74342" lon="7.05007">
        <ele>1002</ele>
        <time>2022-09-21T10:55:28.000Z</time>
      </trkpt>
      <trkpt lat="43.74337" lon="7.05009">
        <ele>1002.2</ele>
        <time>2022-09-21T10:55:30.000Z</time>
      </trkpt>
      <trkpt lat="43.7433" lon="7.05008">
        <ele>1002.6</ele>
        <time>2022-09-21T10:55:33.000Z</time>
      </trkpt>
      <trkpt lat="43.74325" lon="7.05008">
        <ele>1001.5</ele>
        <time>2022-09-21T10:55:35.000Z</time>
      </trkpt>
      <trkpt lat="43.74319" lon="7.05005">
        <ele>1001.3</ele>
        <time>2022-09-21T10:55:37.000Z</time>
      </trkpt>
      <trkpt lat="43.74314" lon="7.05002">
        <ele>1001</ele>
        <time>2022-09-21T10:55:39.000Z</time>
      </trkpt>
      <trkpt lat="43.74308" lon="7.05001">
        <ele>1000.6</ele>
        <time>2022-09-21T10:55:41.000Z</time>
      </trkpt>
      <trkpt lat="43.74303" lon="7.05001">
        <ele>1000.6</ele>
        <time>2022-09-21T10:55:43.000Z</time>
      </trkpt>
      <trkpt lat="43.74298" lon="7.05001">
        <ele>1001.5</ele>
        <time>2022-09-21T10:55:46.000Z</time>
      </trkpt>
      <trkpt lat="43.74293" lon="7.05001">
        <ele>1001.5</ele>
        <time>2022-09-21T10:55:49.000Z</time>
      </trkpt>
      <trkpt lat="43.74288" lon="7.05007">
        <ele>1002</ele>
        <time>2022-09-21T10:55:52.000Z</time>
      </trkpt>
      <trkpt lat="43.74285" lon="7.05011">
        <ele>1002.1</ele>
        <time>2022-09-21T10:55:54.000Z</time>
      </trkpt>
      <trkpt lat="43.74283" lon="7.05019">
        <ele>1002.6</ele>
        <time>2022-09-21T10:55:57.000Z</time>
      </trkpt>
      <trkpt lat="43.74281" lon="7.05026">
        <ele>1002.9</ele>
        <time>2022-09-21T10:56:00.000Z</time>
      </trkpt>
      <trkpt lat="43.7428" lon="7.05032">
        <ele>1003.4</ele>
        <time>2022-09-21T10:56:05.000Z</time>
      </trkpt>
      <trkpt lat="43.74277" lon="7.05038">
        <ele>1003.8</ele>
        <time>2022-09-21T10:56:08.000Z</time>
      </trkpt>
      <trkpt lat="43.74273" lon="7.05042">
        <ele>1004.3</ele>
        <time>2022-09-21T10:56:11.000Z</time>
      </trkpt>
      <trkpt lat="43.74268" lon="7.05046">
        <ele>1004.7</ele>
        <time>2022-09-21T10:56:14.000Z</time>
      </trkpt>
      <trkpt lat="43.74263" lon="7.05049">
        <ele>1005</ele>
        <time>2022-09-21T10:56:17.000Z</time>
      </trkpt>
      <trkpt lat="43.74258" lon="7.05051">
        <ele>1005.8</ele>
        <time>2022-09-21T10:56:20.000Z</time>
      </trkpt>
      <trkpt lat="43.74254" lon="7.05054">
        <ele>1006.4</ele>
        <time>2022-09-21T10:56:23.000Z</time>
      </trkpt>
      <trkpt lat="43.7425" lon="7.05058">
        <ele>1006.9</ele>
        <time>2022-09-21T10:56:26.000Z</time>
      </trkpt>
      <trkpt lat="43.74246" lon="7.05063">
        <ele>1007.4</ele>
        <time>2022-09-21T10:56:29.000Z</time>
      </trkpt>
      <trkpt lat="43.74242" lon="7.05067">
        <ele>1008</ele>
        <time>2022-09-21T10:56:32.000Z</time>
      </trkpt>
      <trkpt lat="43.74237" lon="7.0507">
        <ele>1008</ele>
        <time>2022-09-21T10:56:35.000Z</time>
      </trkpt>
      <trkpt lat="43.74232" lon="7.05073">
        <ele>1008.4</ele>
        <time>2022-09-21T10:56:38.000Z</time>
      </trkpt>
      <trkpt lat="43.74227" lon="7.05076">
        <ele>1009</ele>
        <time>2022-09-21T10:56:41.000Z</time>
      </trkpt>
      <trkpt lat="43.74222" lon="7.05079">
        <ele>1009.5</ele>
        <time>2022-09-21T10:56:44.000Z</time>
      </trkpt>
      <trkpt lat="43.74218" lon="7.05082">
        <ele>1010</ele>
        <time>2022-09-21T10:56:47.000Z</time>
      </trkpt>
      <trkpt lat="43.74214" lon="7.05084">
        <ele>1010.9</ele>
        <time>2022-09-21T10:56:50.000Z</time>
      </trkpt>
      <trkpt lat="43.74209" lon="7.05086">
        <ele>1010.8</ele>
        <time>2022-09-21T10:56:53.000Z</time>
      </trkpt>
      <trkpt lat="43.74204" lon="7.05088">
        <ele>1011.6</ele>
        <time>2022-09-21T10:56:56.000Z</time>
      </trkpt>
      <trkpt lat="43.74199" lon="7.05088">
        <ele>1011.9</ele>
        <time>2022-09-21T10:56:59.000Z</time>
      </trkpt>
      <trkpt lat="43.74195" lon="7.05091">
        <ele>1012.4</ele>
        <time>2022-09-21T10:57:03.000Z</time>
      </trkpt>
      <trkpt lat="43.74189" lon="7.05093">
        <ele>1013</ele>
        <time>2022-09-21T10:57:07.000Z</time>
      </trkpt>
      <trkpt lat="43.74184" lon="7.05094">
        <ele>1013.3</ele>
        <time>2022-09-21T10:57:11.000Z</time>
      </trkpt>
      <trkpt lat="43.74178" lon="7.05098">
        <ele>1013.3</ele>
        <time>2022-09-21T10:57:14.000Z</time>
      </trkpt>
      <trkpt lat="43.74175" lon="7.05105">
        <ele>1013.2</ele>
        <time>2022-09-21T10:57:17.000Z</time>
      </trkpt>
      <trkpt lat="43.74172" lon="7.0511">
        <ele>1012.9</ele>
        <time>2022-09-21T10:57:20.000Z</time>
      </trkpt>
      <trkpt lat="43.74166" lon="7.05108">
        <ele>1013.5</ele>
        <time>2022-09-21T10:57:23.000Z</time>
      </trkpt>
      <trkpt lat="43.74159" lon="7.05106">
        <ele>1013.5</ele>
        <time>2022-09-21T10:57:26.000Z</time>
      </trkpt>
      <trkpt lat="43.74155" lon="7.05104">
        <ele>1013.9</ele>
        <time>2022-09-21T10:57:28.000Z</time>
      </trkpt>
      <trkpt lat="43.74148" lon="7.05102">
        <ele>1013.7</ele>
        <time>2022-09-21T10:57:31.000Z</time>
      </trkpt>
      <trkpt lat="43.74144" lon="7.051">
        <ele>1013.9</ele>
        <time>2022-09-21T10:57:34.000Z</time>
      </trkpt>
      <trkpt lat="43.74139" lon="7.05102">
        <ele>1014.7</ele>
        <time>2022-09-21T10:57:46.000Z</time>
      </trkpt>
      <trkpt lat="43.74134" lon="7.05103">
        <ele>1015.2</ele>
        <time>2022-09-21T10:57:49.000Z</time>
      </trkpt>
      <trkpt lat="43.74128" lon="7.05104">
        <ele>1015.5</ele>
        <time>2022-09-21T10:57:52.000Z</time>
      </trkpt>
      <trkpt lat="43.74124" lon="7.0511">
        <ele>1014.9</ele>
        <time>2022-09-21T10:57:55.000Z</time>
      </trkpt>
      <trkpt lat="43.74119" lon="7.05115">
        <ele>1014.7</ele>
        <time>2022-09-21T10:57:58.000Z</time>
      </trkpt>
      <trkpt lat="43.74114" lon="7.05119">
        <ele>1013.7</ele>
        <time>2022-09-21T10:58:01.000Z</time>
      </trkpt>
      <trkpt lat="43.74109" lon="7.05121">
        <ele>1013.9</ele>
        <time>2022-09-21T10:58:05.000Z</time>
      </trkpt>
      <trkpt lat="43.74105" lon="7.05127">
        <ele>1014.8</ele>
        <time>2022-09-21T10:58:14.000Z</time>
      </trkpt>
      <trkpt lat="43.741" lon="7.05126">
        <ele>1014.7</ele>
        <time>2022-09-21T10:58:17.000Z</time>
      </trkpt>
      <trkpt lat="43.74095" lon="7.05124">
        <ele>1015.6</ele>
        <time>2022-09-21T10:58:20.000Z</time>
      </trkpt>
      <trkpt lat="43.74091" lon="7.05121">
        <ele>1016.2</ele>
        <time>2022-09-21T10:58:26.000Z</time>
      </trkpt>
      <trkpt lat="43.74085" lon="7.05119">
        <ele>1015.3</ele>
        <time>2022-09-21T10:58:31.000Z</time>
      </trkpt>
      <trkpt lat="43.7408" lon="7.0512">
        <ele>1015.1</ele>
        <time>2022-09-21T10:58:33.000Z</time>
      </trkpt>
      <trkpt lat="43.74074" lon="7.05122">
        <ele>1014.6</ele>
        <time>2022-09-21T10:58:36.000Z</time>
      </trkpt>
      <trkpt lat="43.74069" lon="7.05123">
        <ele>1015</ele>
        <time>2022-09-21T10:58:39.000Z</time>
      </trkpt>
      <trkpt lat="43.74063" lon="7.05122">
        <ele>1015.1</ele>
        <time>2022-09-21T10:58:42.000Z</time>
      </trkpt>
      <trkpt lat="43.74058" lon="7.05119">
        <ele>1015.5</ele>
        <time>2022-09-21T10:58:45.000Z</time>
      </trkpt>
      <trkpt lat="43.74055" lon="7.05114">
        <ele>1015.3</ele>
        <time>2022-09-21T10:58:48.000Z</time>
      </trkpt>
      <trkpt lat="43.74049" lon="7.05112">
        <ele>1015.4</ele>
        <time>2022-09-21T10:58:52.000Z</time>
      </trkpt>
      <trkpt lat="43.74044" lon="7.05114">
        <ele>1015.4</ele>
        <time>2022-09-21T10:58:55.000Z</time>
      </trkpt>
      <trkpt lat="43.74038" lon="7.05112">
        <ele>1015.4</ele>
        <time>2022-09-21T10:58:58.000Z</time>
      </trkpt>
      <trkpt lat="43.74031" lon="7.05109">
        <ele>1014.7</ele>
        <time>2022-09-21T10:59:01.000Z</time>
      </trkpt>
      <trkpt lat="43.74026" lon="7.05109">
        <ele>1014.2</ele>
        <time>2022-09-21T10:59:03.000Z</time>
      </trkpt>
      <trkpt lat="43.74021" lon="7.0511">
        <ele>1014.1</ele>
        <time>2022-09-21T10:59:06.000Z</time>
      </trkpt>
      <trkpt lat="43.7402" lon="7.0511">
        <ele>1014</ele>
        <time>2022-09-21T10:59:08.000Z</time>
      </trkpt>
      <trkpt lat="43.7402" lon="7.0511">
        <ele>1013.8</ele>
        <time>2022-09-21T10:59:09.000Z</time>
      </trkpt>
      <trkpt lat="43.74019" lon="7.0511">
        <ele>1013.9</ele>
        <time>2022-09-21T10:59:14.000Z</time>
      </trkpt>
      <trkpt lat="43.7402" lon="7.0511">
        <ele>1013.9</ele>
        <time>2022-09-21T10:59:17.000Z</time>
      </trkpt>
      <trkpt lat="43.7402" lon="7.05111">
        <ele>1013.8</ele>
        <time>2022-09-21T10:59:21.000Z</time>
      </trkpt>
      <trkpt lat="43.7402" lon="7.05111">
        <ele>1013.8</ele>
        <time>2022-09-21T10:59:26.000Z</time>
      </trkpt>
      <trkpt lat="43.7402" lon="7.0511">
        <ele>1013.7</ele>
        <time>2022-09-21T10:59:27.000Z</time>
      </trkpt>
      <trkpt lat="43.7402" lon="7.0511">
        <ele>1013.4</ele>
        <time>2022-09-21T10:59:29.000Z</time>
      </trkpt>
      <trkpt lat="43.7402" lon="7.05111">
        <ele>1013.4</ele>
        <time>2022-09-21T10:59:30.000Z</time>
      </trkpt>
      <trkpt lat="43.7402" lon="7.05111">
        <ele>1013.4</ele>
        <time>2022-09-21T10:59:31.000Z</time>
      </trkpt>
      <trkpt lat="43.7402" lon="7.05111">
        <ele>1013.5</ele>
        <time>2022-09-21T10:59:32.000Z</time>
      </trkpt>
      <trkpt lat="43.7402" lon="7.05111">
        <ele>1013.6</ele>
        <time>2022-09-21T10:59:33.000Z</time>
      </trkpt>
      <trkpt lat="43.7402" lon="7.05111">
        <ele>1013.8</ele>
        <time>2022-09-21T10:59:34.000Z</time>
      </trkpt>
      <trkpt lat="43.74019" lon="7.05111">
        <ele>1013.9</ele>
        <time>2022-09-21T10:59:35.000Z</time>
      </trkpt>
      <trkpt lat="43.74019" lon="7.05111">
        <ele>1013.8</ele>
        <time>2022-09-21T10:59:36.000Z</time>
      </trkpt>
      <trkpt lat="43.7402" lon="7.05111">
        <ele>1013.3</ele>
        <time>2022-09-21T11:01:38.000Z</time>
      </trkpt>
      <trkpt lat="43.7402" lon="7.05111">
        <ele>1013.4</ele>
        <time>2022-09-21T11:01:39.000Z</time>
      </trkpt>
      <trkpt lat="43.74019" lon="7.05111">
        <ele>1013.4</ele>
        <time>2022-09-21T11:01:56.000Z</time>
      </trkpt>
      <trkpt lat="43.74019" lon="7.05111">
        <ele>1013.3</ele>
        <time>2022-09-21T11:01:57.000Z</time>
      </trkpt>
      <trkpt lat="43.7402" lon="7.05111">
        <ele>1013.4</ele>
        <time>2022-09-21T11:02:06.000Z</time>
      </trkpt>
      <trkpt lat="43.7402" lon="7.05111">
        <ele>1013.4</ele>
        <time>2022-09-21T11:02:07.000Z</time>
      </trkpt>
      <trkpt lat="43.7402" lon="7.05112">
        <ele>1013.8</ele>
        <time>2022-09-21T11:05:56.000Z</time>
      </trkpt>
      <trkpt lat="43.7402" lon="7.05112">
        <ele>1014</ele>
        <time>2022-09-21T11:05:57.000Z</time>
      </trkpt>
      <trkpt lat="43.74019" lon="7.05112">
        <ele>1014.2</ele>
        <time>2022-09-21T11:06:06.000Z</time>
      </trkpt>
      <trkpt lat="43.74018" lon="7.0511">
        <ele>1014</ele>
        <time>2022-09-21T11:06:13.000Z</time>
      </trkpt>
      <trkpt lat="43.74018" lon="7.05109">
        <ele>1013.7</ele>
        <time>2022-09-21T11:06:22.000Z</time>
      </trkpt>
      <trkpt lat="43.74018" lon="7.05109">
        <ele>1013.7</ele>
        <time>2022-09-21T11:06:23.000Z</time>
      </trkpt>
      <trkpt lat="43.74018" lon="7.0511">
        <ele>1013.8</ele>
        <time>2022-09-21T11:06:26.000Z</time>
      </trkpt>
      <trkpt lat="43.74018" lon="7.05111">
        <ele>1013.6</ele>
        <time>2022-09-21T11:06:30.000Z</time>
      </trkpt>
      <trkpt lat="43.74018" lon="7.05111">
        <ele>1013.5</ele>
        <time>2022-09-21T11:06:31.000Z</time>
      </trkpt>
      <trkpt lat="43.74018" lon="7.05112">
        <ele>1014.1</ele>
        <time>2022-09-21T11:06:36.000Z</time>
      </trkpt>
      <trkpt lat="43.74018" lon="7.05112">
        <ele>1013.4</ele>
        <time>2022-09-21T11:10:26.000Z</time>
      </trkpt>
      <trkpt lat="43.74018" lon="7.05112">
        <ele>1013.3</ele>
        <time>2022-09-21T11:10:27.000Z</time>
      </trkpt>
      <trkpt lat="43.74018" lon="7.05112">
        <ele>1013.3</ele>
        <time>2022-09-21T11:11:39.000Z</time>
      </trkpt>
      <trkpt lat="43.74011" lon="7.05113">
        <ele>1012.8</ele>
        <time>2022-09-21T11:11:43.000Z</time>
      </trkpt>
      <trkpt lat="43.74006" lon="7.05115">
        <ele>1011.2</ele>
        <time>2022-09-21T11:11:45.000Z</time>
      </trkpt>
      <trkpt lat="43.73999" lon="7.05121">
        <ele>1010.5</ele>
        <time>2022-09-21T11:11:47.000Z</time>
      </trkpt>
      <trkpt lat="43.73993" lon="7.05129">
        <ele>1011.1</ele>
        <time>2022-09-21T11:11:49.000Z</time>
      </trkpt>
      <trkpt lat="43.73989" lon="7.05136">
        <ele>1010.9</ele>
        <time>2022-09-21T11:11:51.000Z</time>
      </trkpt>
      <trkpt lat="43.73985" lon="7.05142">
        <ele>1011.1</ele>
        <time>2022-09-21T11:11:53.000Z</time>
      </trkpt>
      <trkpt lat="43.73981" lon="7.05148">
        <ele>1010.7</ele>
        <time>2022-09-21T11:11:55.000Z</time>
      </trkpt>
      <trkpt lat="43.73978" lon="7.05153">
        <ele>1010.5</ele>
        <time>2022-09-21T11:11:57.000Z</time>
      </trkpt>
      <trkpt lat="43.73975" lon="7.05159">
        <ele>1011.2</ele>
        <time>2022-09-21T11:11:59.000Z</time>
      </trkpt>
      <trkpt lat="43.73972" lon="7.05164">
        <ele>1011.8</ele>
        <time>2022-09-21T11:12:01.000Z</time>
      </trkpt>
      <trkpt lat="43.73969" lon="7.05169">
        <ele>1012.2</ele>
        <time>2022-09-21T11:12:03.000Z</time>
      </trkpt>
      <trkpt lat="43.73966" lon="7.05176">
        <ele>1012.8</ele>
        <time>2022-09-21T11:12:06.000Z</time>
      </trkpt>
      <trkpt lat="43.73962" lon="7.05184">
        <ele>1012.3</ele>
        <time>2022-09-21T11:12:09.000Z</time>
      </trkpt>
      <trkpt lat="43.73958" lon="7.05191">
        <ele>1012.6</ele>
        <time>2022-09-21T11:12:12.000Z</time>
      </trkpt>
      <trkpt lat="43.73956" lon="7.05198">
        <ele>1013.6</ele>
        <time>2022-09-21T11:12:15.000Z</time>
      </trkpt>
      <trkpt lat="43.73953" lon="7.05206">
        <ele>1013.2</ele>
        <time>2022-09-21T11:12:18.000Z</time>
      </trkpt>
      <trkpt lat="43.73951" lon="7.05214">
        <ele>1013.4</ele>
        <time>2022-09-21T11:12:21.000Z</time>
      </trkpt>
      <trkpt lat="43.73949" lon="7.05221">
        <ele>1013.7</ele>
        <time>2022-09-21T11:12:24.000Z</time>
      </trkpt>
      <trkpt lat="43.73948" lon="7.0523">
        <ele>1014</ele>
        <time>2022-09-21T11:12:28.000Z</time>
      </trkpt>
      <trkpt lat="43.73947" lon="7.05238">
        <ele>1013.2</ele>
        <time>2022-09-21T11:12:31.000Z</time>
      </trkpt>
      <trkpt lat="43.73946" lon="7.05247">
        <ele>1013.2</ele>
        <time>2022-09-21T11:12:34.000Z</time>
      </trkpt>
      <trkpt lat="43.73946" lon="7.05255">
        <ele>1011.7</ele>
        <time>2022-09-21T11:12:36.000Z</time>
      </trkpt>
      <trkpt lat="43.73945" lon="7.05262">
        <ele>1011.2</ele>
        <time>2022-09-21T11:12:38.000Z</time>
      </trkpt>
      <trkpt lat="43.73945" lon="7.0527">
        <ele>1011</ele>
        <time>2022-09-21T11:12:40.000Z</time>
      </trkpt>
      <trkpt lat="43.73943" lon="7.05277">
        <ele>1010.3</ele>
        <time>2022-09-21T11:12:42.000Z</time>
      </trkpt>
      <trkpt lat="43.7394" lon="7.05282">
        <ele>1009.1</ele>
        <time>2022-09-21T11:12:44.000Z</time>
      </trkpt>
      <trkpt lat="43.73939" lon="7.05288">
        <ele>1008.1</ele>
        <time>2022-09-21T11:12:46.000Z</time>
      </trkpt>
      <trkpt lat="43.7394" lon="7.0529">
        <ele>1005.7</ele>
        <time>2022-09-21T11:12:50.000Z</time>
      </trkpt>
      <trkpt lat="43.7394" lon="7.0529">
        <ele>1005.5</ele>
        <time>2022-09-21T11:12:51.000Z</time>
      </trkpt>
      <trkpt lat="43.73936" lon="7.05295">
        <ele>1006.7</ele>
        <time>2022-09-21T11:12:56.000Z</time>
      </trkpt>
      <trkpt lat="43.73933" lon="7.05301">
        <ele>1005.1</ele>
        <time>2022-09-21T11:12:58.000Z</time>
      </trkpt>
      <trkpt lat="43.73928" lon="7.05308">
        <ele>1002.3</ele>
        <time>2022-09-21T11:13:00.000Z</time>
      </trkpt>
      <trkpt lat="43.73923" lon="7.05316">
        <ele>1001.2</ele>
        <time>2022-09-21T11:13:02.000Z</time>
      </trkpt>
      <trkpt lat="43.73917" lon="7.05324">
        <ele>999.8</ele>
        <time>2022-09-21T11:13:04.000Z</time>
      </trkpt>
      <trkpt lat="43.73912" lon="7.05333">
        <ele>998.4</ele>
        <time>2022-09-21T11:13:06.000Z</time>
      </trkpt>
      <trkpt lat="43.73909" lon="7.05338">
        <ele>997.7</ele>
        <time>2022-09-21T11:13:07.000Z</time>
      </trkpt>
      <trkpt lat="43.73907" lon="7.05348">
        <ele>995.7</ele>
        <time>2022-09-21T11:13:09.000Z</time>
      </trkpt>
      <trkpt lat="43.73904" lon="7.05355">
        <ele>994.4</ele>
        <time>2022-09-21T11:13:10.000Z</time>
      </trkpt>
      <trkpt lat="43.73902" lon="7.05361">
        <ele>993.5</ele>
        <time>2022-09-21T11:13:11.000Z</time>
      </trkpt>
      <trkpt lat="43.739" lon="7.05366">
        <ele>992.6</ele>
        <time>2022-09-21T11:13:12.000Z</time>
      </trkpt>
      <trkpt lat="43.73897" lon="7.05372">
        <ele>990.9</ele>
        <time>2022-09-21T11:13:13.000Z</time>
      </trkpt>
      <trkpt lat="43.73895" lon="7.05378">
        <ele>989.9</ele>
        <time>2022-09-21T11:13:14.000Z</time>
      </trkpt>
      <trkpt lat="43.73892" lon="7.05384">
        <ele>989.8</ele>
        <time>2022-09-21T11:13:15.000Z</time>
      </trkpt>
      <trkpt lat="43.73887" lon="7.05393">
        <ele>988.5</ele>
        <time>2022-09-21T11:13:17.000Z</time>
      </trkpt>
      <trkpt lat="43.73882" lon="7.054">
        <ele>986.6</ele>
        <time>2022-09-21T11:13:19.000Z</time>
      </trkpt>
      <trkpt lat="43.73878" lon="7.05407">
        <ele>984.2</ele>
        <time>2022-09-21T11:13:21.000Z</time>
      </trkpt>
      <trkpt lat="43.73874" lon="7.05415">
        <ele>983.3</ele>
        <time>2022-09-21T11:13:23.000Z</time>
      </trkpt>
      <trkpt lat="43.73869" lon="7.05423">
        <ele>981.7</ele>
        <time>2022-09-21T11:13:25.000Z</time>
      </trkpt>
      <trkpt lat="43.73866" lon="7.05434">
        <ele>980.9</ele>
        <time>2022-09-21T11:13:27.000Z</time>
      </trkpt>
      <trkpt lat="43.73865" lon="7.05441">
        <ele>980</ele>
        <time>2022-09-21T11:13:28.000Z</time>
      </trkpt>
      <trkpt lat="43.73864" lon="7.05448">
        <ele>978.8</ele>
        <time>2022-09-21T11:13:29.000Z</time>
      </trkpt>
      <trkpt lat="43.73863" lon="7.05454">
        <ele>977.6</ele>
        <time>2022-09-21T11:13:30.000Z</time>
      </trkpt>
      <trkpt lat="43.7386" lon="7.05466">
        <ele>976.3</ele>
        <time>2022-09-21T11:13:32.000Z</time>
      </trkpt>
      <trkpt lat="43.73856" lon="7.05477">
        <ele>974.9</ele>
        <time>2022-09-21T11:13:34.000Z</time>
      </trkpt>
      <trkpt lat="43.73854" lon="7.05482">
        <ele>974.9</ele>
        <time>2022-09-21T11:13:35.000Z</time>
      </trkpt>
      <trkpt lat="43.73851" lon="7.05489">
        <ele>974.5</ele>
        <time>2022-09-21T11:13:36.000Z</time>
      </trkpt>
      <trkpt lat="43.73848" lon="7.05495">
        <ele>973.6</ele>
        <time>2022-09-21T11:13:37.000Z</time>
      </trkpt>
      <trkpt lat="43.73848" lon="7.05501">
        <ele>972.9</ele>
        <time>2022-09-21T11:13:38.000Z</time>
      </trkpt>
      <trkpt lat="43.73849" lon="7.05512">
        <ele>972</ele>
        <time>2022-09-21T11:13:40.000Z</time>
      </trkpt>
      <trkpt lat="43.73849" lon="7.05522">
        <ele>971.8</ele>
        <time>2022-09-21T11:13:42.000Z</time>
      </trkpt>
      <trkpt lat="43.73847" lon="7.05529">
        <ele>971.9</ele>
        <time>2022-09-21T11:13:44.000Z</time>
      </trkpt>
      <trkpt lat="43.73844" lon="7.05536">
        <ele>971.3</ele>
        <time>2022-09-21T11:13:47.000Z</time>
      </trkpt>
      <trkpt lat="43.73842" lon="7.05544">
        <ele>970.6</ele>
        <time>2022-09-21T11:13:50.000Z</time>
      </trkpt>
      <trkpt lat="43.73839" lon="7.05552">
        <ele>969.9</ele>
        <time>2022-09-21T11:13:52.000Z</time>
      </trkpt>
      <trkpt lat="43.73836" lon="7.05562">
        <ele>969.3</ele>
        <time>2022-09-21T11:13:54.000Z</time>
      </trkpt>
      <trkpt lat="43.73835" lon="7.05573">
        <ele>969.5</ele>
        <time>2022-09-21T11:13:56.000Z</time>
      </trkpt>
      <trkpt lat="43.73835" lon="7.0558">
        <ele>969.2</ele>
        <time>2022-09-21T11:13:58.000Z</time>
      </trkpt>
      <trkpt lat="43.73832" lon="7.05588">
        <ele>968.7</ele>
        <time>2022-09-21T11:14:01.000Z</time>
      </trkpt>
      <trkpt lat="43.73829" lon="7.05593">
        <ele>968.7</ele>
        <time>2022-09-21T11:14:03.000Z</time>
      </trkpt>
      <trkpt lat="43.73826" lon="7.056">
        <ele>969.3</ele>
        <time>2022-09-21T11:14:06.000Z</time>
      </trkpt>
      <trkpt lat="43.73825" lon="7.05607">
        <ele>970.5</ele>
        <time>2022-09-21T11:14:09.000Z</time>
      </trkpt>
      <trkpt lat="43.73825" lon="7.0561">
        <ele>970.6</ele>
        <time>2022-09-21T11:14:12.000Z</time>
      </trkpt>
      <trkpt lat="43.73825" lon="7.0561">
        <ele>970.5</ele>
        <time>2022-09-21T11:14:13.000Z</time>
      </trkpt>
      <trkpt lat="43.73826" lon="7.05617">
        <ele>971</ele>
        <time>2022-09-21T11:14:19.000Z</time>
      </trkpt>
      <trkpt lat="43.73826" lon="7.05624">
        <ele>971.3</ele>
        <time>2022-09-21T11:14:23.000Z</time>
      </trkpt>
      <trkpt lat="43.73826" lon="7.05627">
        <ele>971.6</ele>
        <time>2022-09-21T11:14:28.000Z</time>
      </trkpt>
      <trkpt lat="43.73826" lon="7.05628">
        <ele>971.5</ele>
        <time>2022-09-21T11:14:30.000Z</time>
      </trkpt>
      <trkpt lat="43.73826" lon="7.05629">
        <ele>971.5</ele>
        <time>2022-09-21T11:14:35.000Z</time>
      </trkpt>
      <trkpt lat="43.73825" lon="7.05629">
        <ele>971.4</ele>
        <time>2022-09-21T11:14:37.000Z</time>
      </trkpt>
      <trkpt lat="43.73825" lon="7.05629">
        <ele>971.4</ele>
        <time>2022-09-21T11:14:38.000Z</time>
      </trkpt>
      <trkpt lat="43.73825" lon="7.05629">
        <ele>971.4</ele>
        <time>2022-09-21T11:14:39.000Z</time>
      </trkpt>
      <trkpt lat="43.73823" lon="7.05635">
        <ele>970.9</ele>
        <time>2022-09-21T11:14:43.000Z</time>
      </trkpt>
      <trkpt lat="43.73824" lon="7.05643">
        <ele>971</ele>
        <time>2022-09-21T11:14:46.000Z</time>
      </trkpt>
      <trkpt lat="43.73824" lon="7.0565">
        <ele>971.1</ele>
        <time>2022-09-21T11:14:48.000Z</time>
      </trkpt>
      <trkpt lat="43.73825" lon="7.05659">
        <ele>971.5</ele>
        <time>2022-09-21T11:14:50.000Z</time>
      </trkpt>
      <trkpt lat="43.73825" lon="7.05665">
        <ele>971.3</ele>
        <time>2022-09-21T11:14:52.000Z</time>
      </trkpt>
      <trkpt lat="43.73824" lon="7.05671">
        <ele>971.8</ele>
        <time>2022-09-21T11:14:54.000Z</time>
      </trkpt>
      <trkpt lat="43.73823" lon="7.05679">
        <ele>970.7</ele>
        <time>2022-09-21T11:14:56.000Z</time>
      </trkpt>
      <trkpt lat="43.73822" lon="7.05686">
        <ele>971.1</ele>
        <time>2022-09-21T11:14:58.000Z</time>
      </trkpt>
      <trkpt lat="43.73821" lon="7.05693">
        <ele>970.9</ele>
        <time>2022-09-21T11:15:00.000Z</time>
      </trkpt>
      <trkpt lat="43.73819" lon="7.057">
        <ele>970.6</ele>
        <time>2022-09-21T11:15:02.000Z</time>
      </trkpt>
      <trkpt lat="43.73817" lon="7.05706">
        <ele>971</ele>
        <time>2022-09-21T11:15:04.000Z</time>
      </trkpt>
      <trkpt lat="43.73816" lon="7.05713">
        <ele>971.1</ele>
        <time>2022-09-21T11:15:06.000Z</time>
      </trkpt>
      <trkpt lat="43.73814" lon="7.05721">
        <ele>970.8</ele>
        <time>2022-09-21T11:15:08.000Z</time>
      </trkpt>
      <trkpt lat="43.73812" lon="7.05728">
        <ele>970.4</ele>
        <time>2022-09-21T11:15:10.000Z</time>
      </trkpt>
      <trkpt lat="43.73809" lon="7.05735">
        <ele>970.6</ele>
        <time>2022-09-21T11:15:12.000Z</time>
      </trkpt>
      <trkpt lat="43.73807" lon="7.05742">
        <ele>970.6</ele>
        <time>2022-09-21T11:15:14.000Z</time>
      </trkpt>
      <trkpt lat="43.73804" lon="7.05749">
        <ele>970</ele>
        <time>2022-09-21T11:15:16.000Z</time>
      </trkpt>
      <trkpt lat="43.73801" lon="7.05756">
        <ele>969.9</ele>
        <time>2022-09-21T11:15:18.000Z</time>
      </trkpt>
      <trkpt lat="43.73798" lon="7.05764">
        <ele>969.8</ele>
        <time>2022-09-21T11:15:20.000Z</time>
      </trkpt>
      <trkpt lat="43.73794" lon="7.05771">
        <ele>970.3</ele>
        <time>2022-09-21T11:15:22.000Z</time>
      </trkpt>
      <trkpt lat="43.73792" lon="7.05777">
        <ele>970.6</ele>
        <time>2022-09-21T11:15:24.000Z</time>
      </trkpt>
      <trkpt lat="43.73789" lon="7.05785">
        <ele>970.7</ele>
        <time>2022-09-21T11:15:27.000Z</time>
      </trkpt>
      <trkpt lat="43.73786" lon="7.05792">
        <ele>970.2</ele>
        <time>2022-09-21T11:15:30.000Z</time>
      </trkpt>
      <trkpt lat="43.73787" lon="7.058">
        <ele>970.1</ele>
        <time>2022-09-21T11:15:34.000Z</time>
      </trkpt>
      <trkpt lat="43.73792" lon="7.05804">
        <ele>969.9</ele>
        <time>2022-09-21T11:15:38.000Z</time>
      </trkpt>
      <trkpt lat="43.73797" lon="7.05808">
        <ele>969.6</ele>
        <time>2022-09-21T11:15:40.000Z</time>
      </trkpt>
      <trkpt lat="43.73801" lon="7.05812">
        <ele>969</ele>
        <time>2022-09-21T11:15:41.000Z</time>
      </trkpt>
      <trkpt lat="43.73804" lon="7.05816">
        <ele>968.2</ele>
        <time>2022-09-21T11:15:42.000Z</time>
      </trkpt>
      <trkpt lat="43.73809" lon="7.05819">
        <ele>967.4</ele>
        <time>2022-09-21T11:15:43.000Z</time>
      </trkpt>
      <trkpt lat="43.73814" lon="7.05822">
        <ele>966.2</ele>
        <time>2022-09-21T11:15:44.000Z</time>
      </trkpt>
      <trkpt lat="43.73818" lon="7.05827">
        <ele>964.7</ele>
        <time>2022-09-21T11:15:45.000Z</time>
      </trkpt>
      <trkpt lat="43.73823" lon="7.05833">
        <ele>963.6</ele>
        <time>2022-09-21T11:15:46.000Z</time>
      </trkpt>
      <trkpt lat="43.73827" lon="7.0584">
        <ele>962.8</ele>
        <time>2022-09-21T11:15:47.000Z</time>
      </trkpt>
      <trkpt lat="43.73832" lon="7.05845">
        <ele>962.3</ele>
        <time>2022-09-21T11:15:48.000Z</time>
      </trkpt>
      <trkpt lat="43.73837" lon="7.05851">
        <ele>962.1</ele>
        <time>2022-09-21T11:15:49.000Z</time>
      </trkpt>
      <trkpt lat="43.73841" lon="7.05854">
        <ele>961.7</ele>
        <time>2022-09-21T11:15:50.000Z</time>
      </trkpt>
      <trkpt lat="43.73846" lon="7.05854">
        <ele>961.4</ele>
        <time>2022-09-21T11:15:51.000Z</time>
      </trkpt>
      <trkpt lat="43.73855" lon="7.05852">
        <ele>960</ele>
        <time>2022-09-21T11:15:53.000Z</time>
      </trkpt>
      <trkpt lat="43.7386" lon="7.05853">
        <ele>958.7</ele>
        <time>2022-09-21T11:15:54.000Z</time>
      </trkpt>
      <trkpt lat="43.73868" lon="7.05852">
        <ele>956.2</ele>
        <time>2022-09-21T11:15:56.000Z</time>
      </trkpt>
      <trkpt lat="43.73873" lon="7.05845">
        <ele>954.6</ele>
        <time>2022-09-21T11:15:58.000Z</time>
      </trkpt>
      <trkpt lat="43.73876" lon="7.05834">
        <ele>952.1</ele>
        <time>2022-09-21T11:16:00.000Z</time>
      </trkpt>
      <trkpt lat="43.73879" lon="7.05825">
        <ele>950.3</ele>
        <time>2022-09-21T11:16:02.000Z</time>
      </trkpt>
      <trkpt lat="43.73882" lon="7.05815">
        <ele>948.3</ele>
        <time>2022-09-21T11:16:04.000Z</time>
      </trkpt>
      <trkpt lat="43.73883" lon="7.05803">
        <ele>945.4</ele>
        <time>2022-09-21T11:16:06.000Z</time>
      </trkpt>
      <trkpt lat="43.73887" lon="7.05795">
        <ele>944.2</ele>
        <time>2022-09-21T11:16:08.000Z</time>
      </trkpt>
      <trkpt lat="43.73894" lon="7.05795">
        <ele>942.7</ele>
        <time>2022-09-21T11:16:10.000Z</time>
      </trkpt>
      <trkpt lat="43.739" lon="7.05795">
        <ele>940.7</ele>
        <time>2022-09-21T11:16:12.000Z</time>
      </trkpt>
      <trkpt lat="43.73904" lon="7.05796">
        <ele>939.2</ele>
        <time>2022-09-21T11:16:14.000Z</time>
      </trkpt>
      <trkpt lat="43.7391" lon="7.05794">
        <ele>937.5</ele>
        <time>2022-09-21T11:16:17.000Z</time>
      </trkpt>
      <trkpt lat="43.73916" lon="7.05792">
        <ele>933.6</ele>
        <time>2022-09-21T11:16:21.000Z</time>
      </trkpt>
      <trkpt lat="43.73922" lon="7.05789">
        <ele>932</ele>
        <time>2022-09-21T11:16:24.000Z</time>
      </trkpt>
      <trkpt lat="43.73926" lon="7.05786">
        <ele>930.6</ele>
        <time>2022-09-21T11:16:26.000Z</time>
      </trkpt>
      <trkpt lat="43.7393" lon="7.05783">
        <ele>929.1</ele>
        <time>2022-09-21T11:16:28.000Z</time>
      </trkpt>
      <trkpt lat="43.73934" lon="7.05777">
        <ele>925.5</ele>
        <time>2022-09-21T11:16:31.000Z</time>
      </trkpt>
      <trkpt lat="43.73937" lon="7.05772">
        <ele>923.1</ele>
        <time>2022-09-21T11:16:34.000Z</time>
      </trkpt>
      <trkpt lat="43.73943" lon="7.05774">
        <ele>920.1</ele>
        <time>2022-09-21T11:16:37.000Z</time>
      </trkpt>
      <trkpt lat="43.73948" lon="7.05774">
        <ele>919</ele>
        <time>2022-09-21T11:16:39.000Z</time>
      </trkpt>
      <trkpt lat="43.73954" lon="7.05772">
        <ele>916.8</ele>
        <time>2022-09-21T11:16:41.000Z</time>
      </trkpt>
      <trkpt lat="43.7396" lon="7.0577">
        <ele>914.8</ele>
        <time>2022-09-21T11:16:43.000Z</time>
      </trkpt>
      <trkpt lat="43.73966" lon="7.05768">
        <ele>913</ele>
        <time>2022-09-21T11:16:45.000Z</time>
      </trkpt>
      <trkpt lat="43.73973" lon="7.05765">
        <ele>911.8</ele>
        <time>2022-09-21T11:16:47.000Z</time>
      </trkpt>
      <trkpt lat="43.7398" lon="7.05764">
        <ele>910.9</ele>
        <time>2022-09-21T11:16:49.000Z</time>
      </trkpt>
      <trkpt lat="43.73986" lon="7.05763">
        <ele>910.1</ele>
        <time>2022-09-21T11:16:51.000Z</time>
      </trkpt>
      <trkpt lat="43.73991" lon="7.05765">
        <ele>908.8</ele>
        <time>2022-09-21T11:16:53.000Z</time>
      </trkpt>
      <trkpt lat="43.73995" lon="7.05769">
        <ele>908.3</ele>
        <time>2022-09-21T11:16:55.000Z</time>
      </trkpt>
      <trkpt lat="43.74" lon="7.05773">
        <ele>907.4</ele>
        <time>2022-09-21T11:16:57.000Z</time>
      </trkpt>
      <trkpt lat="43.74006" lon="7.05777">
        <ele>906</ele>
        <time>2022-09-21T11:16:59.000Z</time>
      </trkpt>
      <trkpt lat="43.74011" lon="7.05779">
        <ele>903.5</ele>
        <time>2022-09-21T11:17:01.000Z</time>
      </trkpt>
      <trkpt lat="43.74016" lon="7.05783">
        <ele>902.1</ele>
        <time>2022-09-21T11:17:03.000Z</time>
      </trkpt>
      <trkpt lat="43.74023" lon="7.05784">
        <ele>899.8</ele>
        <time>2022-09-21T11:17:05.000Z</time>
      </trkpt>
      <trkpt lat="43.74029" lon="7.05783">
        <ele>898.9</ele>
        <time>2022-09-21T11:17:07.000Z</time>
      </trkpt>
      <trkpt lat="43.74036" lon="7.05783">
        <ele>897.3</ele>
        <time>2022-09-21T11:17:09.000Z</time>
      </trkpt>
      <trkpt lat="43.74042" lon="7.05784">
        <ele>895.4</ele>
        <time>2022-09-21T11:17:11.000Z</time>
      </trkpt>
      <trkpt lat="43.74049" lon="7.05787">
        <ele>892.8</ele>
        <time>2022-09-21T11:17:13.000Z</time>
      </trkpt>
      <trkpt lat="43.74056" lon="7.05789">
        <ele>891.4</ele>
        <time>2022-09-21T11:17:15.000Z</time>
      </trkpt>
      <trkpt lat="43.74062" lon="7.05788">
        <ele>891.2</ele>
        <time>2022-09-21T11:17:17.000Z</time>
      </trkpt>
      <trkpt lat="43.74068" lon="7.05787">
        <ele>889.5</ele>
        <time>2022-09-21T11:17:20.000Z</time>
      </trkpt>
      <trkpt lat="43.74072" lon="7.05786">
        <ele>888.7</ele>
        <time>2022-09-21T11:17:22.000Z</time>
      </trkpt>
      <trkpt lat="43.74078" lon="7.05788">
        <ele>888.6</ele>
        <time>2022-09-21T11:17:25.000Z</time>
      </trkpt>
      <trkpt lat="43.74083" lon="7.0579">
        <ele>887.8</ele>
        <time>2022-09-21T11:17:28.000Z</time>
      </trkpt>
      <trkpt lat="43.74088" lon="7.05796">
        <ele>885.5</ele>
        <time>2022-09-21T11:17:31.000Z</time>
      </trkpt>
      <trkpt lat="43.74094" lon="7.05801">
        <ele>883.9</ele>
        <time>2022-09-21T11:17:33.000Z</time>
      </trkpt>
      <trkpt lat="43.74098" lon="7.05804">
        <ele>882.1</ele>
        <time>2022-09-21T11:17:35.000Z</time>
      </trkpt>
      <trkpt lat="43.74103" lon="7.05807">
        <ele>880.2</ele>
        <time>2022-09-21T11:17:37.000Z</time>
      </trkpt>
      <trkpt lat="43.74108" lon="7.05811">
        <ele>879.5</ele>
        <time>2022-09-21T11:17:39.000Z</time>
      </trkpt>
      <trkpt lat="43.74115" lon="7.05815">
        <ele>877.5</ele>
        <time>2022-09-21T11:17:41.000Z</time>
      </trkpt>
      <trkpt lat="43.74121" lon="7.05818">
        <ele>875.9</ele>
        <time>2022-09-21T11:17:43.000Z</time>
      </trkpt>
      <trkpt lat="43.7413" lon="7.05819">
        <ele>873.7</ele>
        <time>2022-09-21T11:17:45.000Z</time>
      </trkpt>
      <trkpt lat="43.74136" lon="7.05819">
        <ele>873.3</ele>
        <time>2022-09-21T11:17:47.000Z</time>
      </trkpt>
      <trkpt lat="43.74141" lon="7.0582">
        <ele>873.2</ele>
        <time>2022-09-21T11:17:48.000Z</time>
      </trkpt>
      <trkpt lat="43.74146" lon="7.05821">
        <ele>872.9</ele>
        <time>2022-09-21T11:17:49.000Z</time>
      </trkpt>
      <trkpt lat="43.74154" lon="7.05823">
        <ele>871.2</ele>
        <time>2022-09-21T11:17:51.000Z</time>
      </trkpt>
      <trkpt lat="43.74159" lon="7.05826">
        <ele>870</ele>
        <time>2022-09-21T11:17:52.000Z</time>
      </trkpt>
      <trkpt lat="43.74164" lon="7.05829">
        <ele>869.1</ele>
        <time>2022-09-21T11:17:53.000Z</time>
      </trkpt>
      <trkpt lat="43.74169" lon="7.0583">
        <ele>868.6</ele>
        <time>2022-09-21T11:17:54.000Z</time>
      </trkpt>
      <trkpt lat="43.74173" lon="7.0583">
        <ele>868.4</ele>
        <time>2022-09-21T11:17:55.000Z</time>
      </trkpt>
      <trkpt lat="43.7418" lon="7.0583">
        <ele>868.1</ele>
        <time>2022-09-21T11:17:57.000Z</time>
      </trkpt>
      <trkpt lat="43.74184" lon="7.05833">
        <ele>867.1</ele>
        <time>2022-09-21T11:17:59.000Z</time>
      </trkpt>
      <trkpt lat="43.74188" lon="7.05837">
        <ele>865</ele>
        <time>2022-09-21T11:18:01.000Z</time>
      </trkpt>
      <trkpt lat="43.74193" lon="7.0584">
        <ele>864.4</ele>
        <time>2022-09-21T11:18:03.000Z</time>
      </trkpt>
      <trkpt lat="43.74192" lon="7.05851">
        <ele>862.5</ele>
        <time>2022-09-21T11:18:06.000Z</time>
      </trkpt>
      <trkpt lat="43.7419" lon="7.05863">
        <ele>861.8</ele>
        <time>2022-09-21T11:18:08.000Z</time>
      </trkpt>
      <trkpt lat="43.7419" lon="7.0587">
        <ele>861.5</ele>
        <time>2022-09-21T11:18:09.000Z</time>
      </trkpt>
      <trkpt lat="43.74192" lon="7.0588">
        <ele>860.4</ele>
        <time>2022-09-21T11:18:11.000Z</time>
      </trkpt>
      <trkpt lat="43.74198" lon="7.0589">
        <ele>859.4</ele>
        <time>2022-09-21T11:18:13.000Z</time>
      </trkpt>
      <trkpt lat="43.742" lon="7.05896">
        <ele>859</ele>
        <time>2022-09-21T11:18:14.000Z</time>
      </trkpt>
      <trkpt lat="43.74202" lon="7.05902">
        <ele>857.7</ele>
        <time>2022-09-21T11:18:15.000Z</time>
      </trkpt>
      <trkpt lat="43.74203" lon="7.05909">
        <ele>857.1</ele>
        <time>2022-09-21T11:18:16.000Z</time>
      </trkpt>
      <trkpt lat="43.74203" lon="7.05915">
        <ele>856.3</ele>
        <time>2022-09-21T11:18:17.000Z</time>
      </trkpt>
      <trkpt lat="43.74202" lon="7.05921">
        <ele>856</ele>
        <time>2022-09-21T11:18:18.000Z</time>
      </trkpt>
      <trkpt lat="43.74198" lon="7.05932">
        <ele>855.9</ele>
        <time>2022-09-21T11:18:20.000Z</time>
      </trkpt>
      <trkpt lat="43.74194" lon="7.05941">
        <ele>855.2</ele>
        <time>2022-09-21T11:18:22.000Z</time>
      </trkpt>
      <trkpt lat="43.74191" lon="7.05951">
        <ele>854.9</ele>
        <time>2022-09-21T11:18:24.000Z</time>
      </trkpt>
      <trkpt lat="43.7419" lon="7.0596">
        <ele>854.7</ele>
        <time>2022-09-21T11:18:26.000Z</time>
      </trkpt>
      <trkpt lat="43.74189" lon="7.0597">
        <ele>853.5</ele>
        <time>2022-09-21T11:18:28.000Z</time>
      </trkpt>
      <trkpt lat="43.74191" lon="7.05977">
        <ele>852.6</ele>
        <time>2022-09-21T11:18:30.000Z</time>
      </trkpt>
      <trkpt lat="43.7419" lon="7.05985">
        <ele>851.5</ele>
        <time>2022-09-21T11:18:32.000Z</time>
      </trkpt>
      <trkpt lat="43.7419" lon="7.05993">
        <ele>850.5</ele>
        <time>2022-09-21T11:18:34.000Z</time>
      </trkpt>
      <trkpt lat="43.7419" lon="7.06">
        <ele>849.5</ele>
        <time>2022-09-21T11:18:36.000Z</time>
      </trkpt>
      <trkpt lat="43.74192" lon="7.06009">
        <ele>847.6</ele>
        <time>2022-09-21T11:18:38.000Z</time>
      </trkpt>
      <trkpt lat="43.74191" lon="7.06018">
        <ele>846.4</ele>
        <time>2022-09-21T11:18:40.000Z</time>
      </trkpt>
      <trkpt lat="43.74191" lon="7.06027">
        <ele>844.5</ele>
        <time>2022-09-21T11:18:42.000Z</time>
      </trkpt>
      <trkpt lat="43.7419" lon="7.06038">
        <ele>843.9</ele>
        <time>2022-09-21T11:18:44.000Z</time>
      </trkpt>
      <trkpt lat="43.7419" lon="7.06045">
        <ele>843.1</ele>
        <time>2022-09-21T11:18:46.000Z</time>
      </trkpt>
      <trkpt lat="43.74191" lon="7.06051">
        <ele>842.5</ele>
        <time>2022-09-21T11:18:48.000Z</time>
      </trkpt>
      <trkpt lat="43.74193" lon="7.06059">
        <ele>840.9</ele>
        <time>2022-09-21T11:18:50.000Z</time>
      </trkpt>
      <trkpt lat="43.74194" lon="7.06066">
        <ele>840</ele>
        <time>2022-09-21T11:18:52.000Z</time>
      </trkpt>
      <trkpt lat="43.74194" lon="7.06075">
        <ele>838.5</ele>
        <time>2022-09-21T11:18:55.000Z</time>
      </trkpt>
      <trkpt lat="43.74193" lon="7.06083">
        <ele>838.5</ele>
        <time>2022-09-21T11:18:57.000Z</time>
      </trkpt>
      <trkpt lat="43.74192" lon="7.06091">
        <ele>837</ele>
        <time>2022-09-21T11:18:59.000Z</time>
      </trkpt>
      <trkpt lat="43.7419" lon="7.06101">
        <ele>835.6</ele>
        <time>2022-09-21T11:19:02.000Z</time>
      </trkpt>
      <trkpt lat="43.74187" lon="7.06111">
        <ele>834.5</ele>
        <time>2022-09-21T11:19:04.000Z</time>
      </trkpt>
      <trkpt lat="43.74185" lon="7.06121">
        <ele>834.7</ele>
        <time>2022-09-21T11:19:06.000Z</time>
      </trkpt>
      <trkpt lat="43.74184" lon="7.06128">
        <ele>834.5</ele>
        <time>2022-09-21T11:19:07.000Z</time>
      </trkpt>
      <trkpt lat="43.74182" lon="7.0614">
        <ele>833.5</ele>
        <time>2022-09-21T11:19:09.000Z</time>
      </trkpt>
      <trkpt lat="43.74182" lon="7.06152">
        <ele>831.8</ele>
        <time>2022-09-21T11:19:11.000Z</time>
      </trkpt>
      <trkpt lat="43.74182" lon="7.06164">
        <ele>831.5</ele>
        <time>2022-09-21T11:19:13.000Z</time>
      </trkpt>
      <trkpt lat="43.74182" lon="7.06171">
        <ele>831.5</ele>
        <time>2022-09-21T11:19:14.000Z</time>
      </trkpt>
      <trkpt lat="43.74182" lon="7.06177">
        <ele>831.1</ele>
        <time>2022-09-21T11:19:15.000Z</time>
      </trkpt>
      <trkpt lat="43.74182" lon="7.06189">
        <ele>829.8</ele>
        <time>2022-09-21T11:19:17.000Z</time>
      </trkpt>
      <trkpt lat="43.74182" lon="7.06197">
        <ele>828.9</ele>
        <time>2022-09-21T11:19:18.000Z</time>
      </trkpt>
      <trkpt lat="43.74184" lon="7.06209">
        <ele>828.6</ele>
        <time>2022-09-21T11:19:20.000Z</time>
      </trkpt>
      <trkpt lat="43.74185" lon="7.06215">
        <ele>828.5</ele>
        <time>2022-09-21T11:19:21.000Z</time>
      </trkpt>
      <trkpt lat="43.74187" lon="7.06221">
        <ele>828.2</ele>
        <time>2022-09-21T11:19:22.000Z</time>
      </trkpt>
      <trkpt lat="43.74191" lon="7.06231">
        <ele>827.4</ele>
        <time>2022-09-21T11:19:24.000Z</time>
      </trkpt>
      <trkpt lat="43.74192" lon="7.06239">
        <ele>826.1</ele>
        <time>2022-09-21T11:19:26.000Z</time>
      </trkpt>
      <trkpt lat="43.74194" lon="7.06246">
        <ele>825.5</ele>
        <time>2022-09-21T11:19:28.000Z</time>
      </trkpt>
      <trkpt lat="43.74192" lon="7.06254">
        <ele>824.7</ele>
        <time>2022-09-21T11:19:30.000Z</time>
      </trkpt>
      <trkpt lat="43.74192" lon="7.06264">
        <ele>823.9</ele>
        <time>2022-09-21T11:19:32.000Z</time>
      </trkpt>
      <trkpt lat="43.74191" lon="7.06271">
        <ele>823</ele>
        <time>2022-09-21T11:19:34.000Z</time>
      </trkpt>
      <trkpt lat="43.74192" lon="7.06277">
        <ele>822.1</ele>
        <time>2022-09-21T11:19:36.000Z</time>
      </trkpt>
      <trkpt lat="43.74193" lon="7.06285">
        <ele>821.2</ele>
        <time>2022-09-21T11:19:38.000Z</time>
      </trkpt>
      <trkpt lat="43.74191" lon="7.06297">
        <ele>819.8</ele>
        <time>2022-09-21T11:19:40.000Z</time>
      </trkpt>
      <trkpt lat="43.74191" lon="7.06304">
        <ele>819.6</ele>
        <time>2022-09-21T11:19:41.000Z</time>
      </trkpt>
      <trkpt lat="43.7419" lon="7.0631">
        <ele>819.7</ele>
        <time>2022-09-21T11:19:42.000Z</time>
      </trkpt>
      <trkpt lat="43.74192" lon="7.06319">
        <ele>819</ele>
        <time>2022-09-21T11:19:44.000Z</time>
      </trkpt>
      <trkpt lat="43.74193" lon="7.06327">
        <ele>818.3</ele>
        <time>2022-09-21T11:19:46.000Z</time>
      </trkpt>
      <trkpt lat="43.74194" lon="7.06334">
        <ele>817.7</ele>
        <time>2022-09-21T11:19:49.000Z</time>
      </trkpt>
      <trkpt lat="43.74195" lon="7.06341">
        <ele>817.1</ele>
        <time>2022-09-21T11:19:51.000Z</time>
      </trkpt>
      <trkpt lat="43.74195" lon="7.06349">
        <ele>816.2</ele>
        <time>2022-09-21T11:19:54.000Z</time>
      </trkpt>
      <trkpt lat="43.74191" lon="7.06354">
        <ele>816.2</ele>
        <time>2022-09-21T11:19:56.000Z</time>
      </trkpt>
      <trkpt lat="43.74187" lon="7.06351">
        <ele>816.3</ele>
        <time>2022-09-21T11:20:03.000Z</time>
      </trkpt>
      <trkpt lat="43.74187" lon="7.06351">
        <ele>816.2</ele>
        <time>2022-09-21T11:20:04.000Z</time>
      </trkpt>
      <trkpt lat="43.74186" lon="7.06351">
        <ele>816.1</ele>
        <time>2022-09-21T11:20:05.000Z</time>
      </trkpt>
      <trkpt lat="43.74186" lon="7.06352">
        <ele>816</ele>
        <time>2022-09-21T11:20:08.000Z</time>
      </trkpt>
      <trkpt lat="43.74186" lon="7.06352">
        <ele>816.1</ele>
        <time>2022-09-21T11:20:16.000Z</time>
      </trkpt>
      <trkpt lat="43.74186" lon="7.06347">
        <ele>816.1</ele>
        <time>2022-09-21T11:20:27.000Z</time>
      </trkpt>
      <trkpt lat="43.74187" lon="7.06347">
        <ele>816</ele>
        <time>2022-09-21T11:20:29.000Z</time>
      </trkpt>
      <trkpt lat="43.74187" lon="7.06347">
        <ele>816</ele>
        <time>2022-09-21T11:20:30.000Z</time>
      </trkpt>
      <trkpt lat="43.74187" lon="7.06347">
        <ele>816</ele>
        <time>2022-09-21T11:20:32.000Z</time>
      </trkpt>
      <trkpt lat="43.74187" lon="7.06346">
        <ele>816.1</ele>
        <time>2022-09-21T11:20:35.000Z</time>
      </trkpt>
      <trkpt lat="43.74187" lon="7.06346">
        <ele>816.1</ele>
        <time>2022-09-21T11:20:36.000Z</time>
      </trkpt>
      <trkpt lat="43.74188" lon="7.06353">
        <ele>815.4</ele>
        <time>2022-09-21T11:20:42.000Z</time>
      </trkpt>
      <trkpt lat="43.74191" lon="7.06359">
        <ele>814</ele>
        <time>2022-09-21T11:20:44.000Z</time>
      </trkpt>
      <trkpt lat="43.74194" lon="7.06367">
        <ele>812.5</ele>
        <time>2022-09-21T11:20:46.000Z</time>
      </trkpt>
      <trkpt lat="43.74197" lon="7.06374">
        <ele>810.8</ele>
        <time>2022-09-21T11:20:48.000Z</time>
      </trkpt>
      <trkpt lat="43.74199" lon="7.06381">
        <ele>810</ele>
        <time>2022-09-21T11:20:50.000Z</time>
      </trkpt>
      <trkpt lat="43.742" lon="7.06389">
        <ele>809.6</ele>
        <time>2022-09-21T11:20:52.000Z</time>
      </trkpt>
      <trkpt lat="43.74201" lon="7.06397">
        <ele>808.1</ele>
        <time>2022-09-21T11:20:54.000Z</time>
      </trkpt>
      <trkpt lat="43.74202" lon="7.06406">
        <ele>806.9</ele>
        <time>2022-09-21T11:20:56.000Z</time>
      </trkpt>
      <trkpt lat="43.74204" lon="7.06412">
        <ele>805.9</ele>
        <time>2022-09-21T11:20:58.000Z</time>
      </trkpt>
      <trkpt lat="43.74206" lon="7.06419">
        <ele>803.9</ele>
        <time>2022-09-21T11:21:00.000Z</time>
      </trkpt>
      <trkpt lat="43.74208" lon="7.06427">
        <ele>803.4</ele>
        <time>2022-09-21T11:21:02.000Z</time>
      </trkpt>
      <trkpt lat="43.7421" lon="7.06436">
        <ele>801.8</ele>
        <time>2022-09-21T11:21:04.000Z</time>
      </trkpt>
      <trkpt lat="43.74211" lon="7.06446">
        <ele>800.4</ele>
        <time>2022-09-21T11:21:06.000Z</time>
      </trkpt>
      <trkpt lat="43.74211" lon="7.06456">
        <ele>798.3</ele>
        <time>2022-09-21T11:21:08.000Z</time>
      </trkpt>
      <trkpt lat="43.7421" lon="7.06466">
        <ele>797.1</ele>
        <time>2022-09-21T11:21:10.000Z</time>
      </trkpt>
      <trkpt lat="43.74211" lon="7.06475">
        <ele>795.5</ele>
        <time>2022-09-21T11:21:13.000Z</time>
      </trkpt>
      <trkpt lat="43.74213" lon="7.06484">
        <ele>793.5</ele>
        <time>2022-09-21T11:21:16.000Z</time>
      </trkpt>
      <trkpt lat="43.74214" lon="7.06491">
        <ele>791.7</ele>
        <time>2022-09-21T11:21:18.000Z</time>
      </trkpt>
      <trkpt lat="43.74216" lon="7.065">
        <ele>791.2</ele>
        <time>2022-09-21T11:21:20.000Z</time>
      </trkpt>
      <trkpt lat="43.74216" lon="7.0651">
        <ele>790</ele>
        <time>2022-09-21T11:21:22.000Z</time>
      </trkpt>
      <trkpt lat="43.74215" lon="7.06518">
        <ele>787.5</ele>
        <time>2022-09-21T11:21:25.000Z</time>
      </trkpt>
      <trkpt lat="43.74218" lon="7.06526">
        <ele>786.8</ele>
        <time>2022-09-21T11:21:28.000Z</time>
      </trkpt>
      <trkpt lat="43.74221" lon="7.06532">
        <ele>784.5</ele>
        <time>2022-09-21T11:21:30.000Z</time>
      </trkpt>
      <trkpt lat="43.74226" lon="7.06537">
        <ele>782.7</ele>
        <time>2022-09-21T11:21:32.000Z</time>
      </trkpt>
      <trkpt lat="43.74231" lon="7.06543">
        <ele>781</ele>
        <time>2022-09-21T11:21:34.000Z</time>
      </trkpt>
      <trkpt lat="43.74233" lon="7.06551">
        <ele>779.7</ele>
        <time>2022-09-21T11:21:36.000Z</time>
      </trkpt>
      <trkpt lat="43.74236" lon="7.06557">
        <ele>778.4</ele>
        <time>2022-09-21T11:21:38.000Z</time>
      </trkpt>
      <trkpt lat="43.7424" lon="7.06563">
        <ele>776.8</ele>
        <time>2022-09-21T11:21:40.000Z</time>
      </trkpt>
      <trkpt lat="43.74245" lon="7.06568">
        <ele>775.4</ele>
        <time>2022-09-21T11:21:42.000Z</time>
      </trkpt>
      <trkpt lat="43.7425" lon="7.06573">
        <ele>773.8</ele>
        <time>2022-09-21T11:21:44.000Z</time>
      </trkpt>
      <trkpt lat="43.74253" lon="7.06578">
        <ele>772.5</ele>
        <time>2022-09-21T11:21:46.000Z</time>
      </trkpt>
      <trkpt lat="43.74257" lon="7.06584">
        <ele>771.1</ele>
        <time>2022-09-21T11:21:48.000Z</time>
      </trkpt>
      <trkpt lat="43.74263" lon="7.06595">
        <ele>769.1</ele>
        <time>2022-09-21T11:21:50.000Z</time>
      </trkpt>
      <trkpt lat="43.74265" lon="7.06603">
        <ele>768.3</ele>
        <time>2022-09-21T11:21:51.000Z</time>
      </trkpt>
      <trkpt lat="43.74267" lon="7.06613">
        <ele>767.1</ele>
        <time>2022-09-21T11:21:52.000Z</time>
      </trkpt>
      <trkpt lat="43.74268" lon="7.06623">
        <ele>766.5</ele>
        <time>2022-09-21T11:21:53.000Z</time>
      </trkpt>
      <trkpt lat="43.7427" lon="7.06632">
        <ele>766.3</ele>
        <time>2022-09-21T11:21:54.000Z</time>
      </trkpt>
      <trkpt lat="43.74273" lon="7.06641">
        <ele>765.6</ele>
        <time>2022-09-21T11:21:55.000Z</time>
      </trkpt>
      <trkpt lat="43.74276" lon="7.06649">
        <ele>765.1</ele>
        <time>2022-09-21T11:21:56.000Z</time>
      </trkpt>
      <trkpt lat="43.74279" lon="7.06657">
        <ele>763.7</ele>
        <time>2022-09-21T11:21:57.000Z</time>
      </trkpt>
      <trkpt lat="43.74282" lon="7.06663">
        <ele>762.9</ele>
        <time>2022-09-21T11:21:58.000Z</time>
      </trkpt>
      <trkpt lat="43.74285" lon="7.0667">
        <ele>762.8</ele>
        <time>2022-09-21T11:21:59.000Z</time>
      </trkpt>
      <trkpt lat="43.74288" lon="7.06676">
        <ele>761.6</ele>
        <time>2022-09-21T11:22:00.000Z</time>
      </trkpt>
      <trkpt lat="43.74292" lon="7.06682">
        <ele>760.7</ele>
        <time>2022-09-21T11:22:01.000Z</time>
      </trkpt>
      <trkpt lat="43.74294" lon="7.06688">
        <ele>759.7</ele>
        <time>2022-09-21T11:22:02.000Z</time>
      </trkpt>
      <trkpt lat="43.74298" lon="7.06698">
        <ele>757.8</ele>
        <time>2022-09-21T11:22:04.000Z</time>
      </trkpt>
      <trkpt lat="43.74302" lon="7.06704">
        <ele>756.1</ele>
        <time>2022-09-21T11:22:06.000Z</time>
      </trkpt>
      <trkpt lat="43.74305" lon="7.0671">
        <ele>754.7</ele>
        <time>2022-09-21T11:22:09.000Z</time>
      </trkpt>
      <trkpt lat="43.74309" lon="7.06715">
        <ele>752.8</ele>
        <time>2022-09-21T11:22:12.000Z</time>
      </trkpt>
      <trkpt lat="43.74315" lon="7.06719">
        <ele>752.2</ele>
        <time>2022-09-21T11:22:15.000Z</time>
      </trkpt>
      <trkpt lat="43.74316" lon="7.06727">
        <ele>751.4</ele>
        <time>2022-09-21T11:22:17.000Z</time>
      </trkpt>
      <trkpt lat="43.74318" lon="7.06737">
        <ele>750.7</ele>
        <time>2022-09-21T11:22:19.000Z</time>
      </trkpt>
      <trkpt lat="43.74323" lon="7.06743">
        <ele>749.7</ele>
        <time>2022-09-21T11:22:21.000Z</time>
      </trkpt>
      <trkpt lat="43.74329" lon="7.06746">
        <ele>749.1</ele>
        <time>2022-09-21T11:22:23.000Z</time>
      </trkpt>
      <trkpt lat="43.74334" lon="7.06751">
        <ele>748.5</ele>
        <time>2022-09-21T11:22:25.000Z</time>
      </trkpt>
      <trkpt lat="43.7434" lon="7.06757">
        <ele>748.2</ele>
        <time>2022-09-21T11:22:27.000Z</time>
      </trkpt>
      <trkpt lat="43.74343" lon="7.06764">
        <ele>747.2</ele>
        <time>2022-09-21T11:22:29.000Z</time>
      </trkpt>
      <trkpt lat="43.74349" lon="7.06769">
        <ele>746.5</ele>
        <time>2022-09-21T11:22:31.000Z</time>
      </trkpt>
      <trkpt lat="43.74356" lon="7.06773">
        <ele>746</ele>
        <time>2022-09-21T11:22:34.000Z</time>
      </trkpt>
      <trkpt lat="43.74361" lon="7.06773">
        <ele>745.8</ele>
        <time>2022-09-21T11:22:36.000Z</time>
      </trkpt>
      <trkpt lat="43.74367" lon="7.06773">
        <ele>744.9</ele>
        <time>2022-09-21T11:22:39.000Z</time>
      </trkpt>
      <trkpt lat="43.74373" lon="7.06772">
        <ele>744.1</ele>
        <time>2022-09-21T11:22:42.000Z</time>
      </trkpt>
      <trkpt lat="43.74372" lon="7.06778">
        <ele>743.8</ele>
        <time>2022-09-21T11:22:44.000Z</time>
      </trkpt>
      <trkpt lat="43.74371" lon="7.06786">
        <ele>743.8</ele>
        <time>2022-09-21T11:22:47.000Z</time>
      </trkpt>
      <trkpt lat="43.74372" lon="7.06793">
        <ele>744.4</ele>
        <time>2022-09-21T11:22:50.000Z</time>
      </trkpt>
      <trkpt lat="43.74374" lon="7.06799">
        <ele>744.6</ele>
        <time>2022-09-21T11:22:53.000Z</time>
      </trkpt>
      <trkpt lat="43.74375" lon="7.06807">
        <ele>745</ele>
        <time>2022-09-21T11:22:56.000Z</time>
      </trkpt>
      <trkpt lat="43.74376" lon="7.06813">
        <ele>745.6</ele>
        <time>2022-09-21T11:22:59.000Z</time>
      </trkpt>
      <trkpt lat="43.74376" lon="7.0682">
        <ele>745.7</ele>
        <time>2022-09-21T11:23:02.000Z</time>
      </trkpt>
      <trkpt lat="43.74376" lon="7.06826">
        <ele>745.2</ele>
        <time>2022-09-21T11:23:04.000Z</time>
      </trkpt>
      <trkpt lat="43.74375" lon="7.06833">
        <ele>744.9</ele>
        <time>2022-09-21T11:23:06.000Z</time>
      </trkpt>
      <trkpt lat="43.74374" lon="7.06841">
        <ele>744.6</ele>
        <time>2022-09-21T11:23:08.000Z</time>
      </trkpt>
      <trkpt lat="43.74373" lon="7.06852">
        <ele>744</ele>
        <time>2022-09-21T11:23:10.000Z</time>
      </trkpt>
      <trkpt lat="43.74372" lon="7.06858">
        <ele>744.1</ele>
        <time>2022-09-21T11:23:11.000Z</time>
      </trkpt>
      <trkpt lat="43.74372" lon="7.06865">
        <ele>743.4</ele>
        <time>2022-09-21T11:23:12.000Z</time>
      </trkpt>
      <trkpt lat="43.7437" lon="7.06877">
        <ele>742.8</ele>
        <time>2022-09-21T11:23:14.000Z</time>
      </trkpt>
      <trkpt lat="43.74369" lon="7.06888">
        <ele>741</ele>
        <time>2022-09-21T11:23:16.000Z</time>
      </trkpt>
      <trkpt lat="43.74368" lon="7.06898">
        <ele>740.5</ele>
        <time>2022-09-21T11:23:18.000Z</time>
      </trkpt>
      <trkpt lat="43.74368" lon="7.0691">
        <ele>739.3</ele>
        <time>2022-09-21T11:23:20.000Z</time>
      </trkpt>
      <trkpt lat="43.74369" lon="7.06917">
        <ele>739.1</ele>
        <time>2022-09-21T11:23:21.000Z</time>
      </trkpt>
      <trkpt lat="43.74369" lon="7.06923">
        <ele>739.2</ele>
        <time>2022-09-21T11:23:22.000Z</time>
      </trkpt>
      <trkpt lat="43.74371" lon="7.06934">
        <ele>738.4</ele>
        <time>2022-09-21T11:23:24.000Z</time>
      </trkpt>
      <trkpt lat="43.74372" lon="7.06943">
        <ele>738.6</ele>
        <time>2022-09-21T11:23:26.000Z</time>
      </trkpt>
      <trkpt lat="43.74373" lon="7.0695">
        <ele>737.3</ele>
        <time>2022-09-21T11:23:28.000Z</time>
      </trkpt>
      <trkpt lat="43.74372" lon="7.06957">
        <ele>736.8</ele>
        <time>2022-09-21T11:23:30.000Z</time>
      </trkpt>
      <trkpt lat="43.74372" lon="7.06968">
        <ele>735.5</ele>
        <time>2022-09-21T11:23:32.000Z</time>
      </trkpt>
      <trkpt lat="43.74372" lon="7.06979">
        <ele>733.6</ele>
        <time>2022-09-21T11:23:34.000Z</time>
      </trkpt>
      <trkpt lat="43.74372" lon="7.06986">
        <ele>732.3</ele>
        <time>2022-09-21T11:23:35.000Z</time>
      </trkpt>
      <trkpt lat="43.74374" lon="7.06996">
        <ele>731.7</ele>
        <time>2022-09-21T11:23:37.000Z</time>
      </trkpt>
      <trkpt lat="43.74376" lon="7.07007">
        <ele>729.4</ele>
        <time>2022-09-21T11:23:39.000Z</time>
      </trkpt>
      <trkpt lat="43.74376" lon="7.07014">
        <ele>728.1</ele>
        <time>2022-09-21T11:23:40.000Z</time>
      </trkpt>
      <trkpt lat="43.74376" lon="7.07021">
        <ele>727.9</ele>
        <time>2022-09-21T11:23:41.000Z</time>
      </trkpt>
      <trkpt lat="43.74374" lon="7.07033">
        <ele>727.7</ele>
        <time>2022-09-21T11:23:43.000Z</time>
      </trkpt>
      <trkpt lat="43.74374" lon="7.0704">
        <ele>726.8</ele>
        <time>2022-09-21T11:23:44.000Z</time>
      </trkpt>
      <trkpt lat="43.74375" lon="7.0705">
        <ele>726</ele>
        <time>2022-09-21T11:23:46.000Z</time>
      </trkpt>
      <trkpt lat="43.74377" lon="7.07059">
        <ele>723.7</ele>
        <time>2022-09-21T11:23:48.000Z</time>
      </trkpt>
      <trkpt lat="43.74381" lon="7.0707">
        <ele>722</ele>
        <time>2022-09-21T11:23:50.000Z</time>
      </trkpt>
      <trkpt lat="43.74382" lon="7.07076">
        <ele>721.8</ele>
        <time>2022-09-21T11:23:51.000Z</time>
      </trkpt>
      <trkpt lat="43.74385" lon="7.07082">
        <ele>721.5</ele>
        <time>2022-09-21T11:23:52.000Z</time>
      </trkpt>
      <trkpt lat="43.74386" lon="7.07091">
        <ele>721.2</ele>
        <time>2022-09-21T11:23:54.000Z</time>
      </trkpt>
      <trkpt lat="43.74387" lon="7.07101">
        <ele>720.1</ele>
        <time>2022-09-21T11:23:56.000Z</time>
      </trkpt>
      <trkpt lat="43.74386" lon="7.07109">
        <ele>719.1</ele>
        <time>2022-09-21T11:23:58.000Z</time>
      </trkpt>
      <trkpt lat="43.74385" lon="7.07117">
        <ele>716.9</ele>
        <time>2022-09-21T11:24:00.000Z</time>
      </trkpt>
      <trkpt lat="43.74384" lon="7.07127">
        <ele>715.5</ele>
        <time>2022-09-21T11:24:02.000Z</time>
      </trkpt>
      <trkpt lat="43.74385" lon="7.07133">
        <ele>714.2</ele>
        <time>2022-09-21T11:24:04.000Z</time>
      </trkpt>
      <trkpt lat="43.74384" lon="7.07142">
        <ele>712.7</ele>
        <time>2022-09-21T11:24:06.000Z</time>
      </trkpt>
      <trkpt lat="43.74384" lon="7.07153">
        <ele>712.4</ele>
        <time>2022-09-21T11:24:08.000Z</time>
      </trkpt>
      <trkpt lat="43.74384" lon="7.07162">
        <ele>710.6</ele>
        <time>2022-09-21T11:24:10.000Z</time>
      </trkpt>
      <trkpt lat="43.74387" lon="7.07172">
        <ele>710.6</ele>
        <time>2022-09-21T11:24:12.000Z</time>
      </trkpt>
      <trkpt lat="43.74386" lon="7.07179">
        <ele>708.8</ele>
        <time>2022-09-21T11:24:14.000Z</time>
      </trkpt>
      <trkpt lat="43.74386" lon="7.07187">
        <ele>707.4</ele>
        <time>2022-09-21T11:24:16.000Z</time>
      </trkpt>
      <trkpt lat="43.74386" lon="7.07196">
        <ele>706.8</ele>
        <time>2022-09-21T11:24:18.000Z</time>
      </trkpt>
      <trkpt lat="43.74386" lon="7.07207">
        <ele>706.6</ele>
        <time>2022-09-21T11:24:20.000Z</time>
      </trkpt>
      <trkpt lat="43.74386" lon="7.07217">
        <ele>706.7</ele>
        <time>2022-09-21T11:24:22.000Z</time>
      </trkpt>
      <trkpt lat="43.74385" lon="7.07226">
        <ele>706.1</ele>
        <time>2022-09-21T11:24:24.000Z</time>
      </trkpt>
      <trkpt lat="43.74383" lon="7.07237">
        <ele>705.5</ele>
        <time>2022-09-21T11:24:26.000Z</time>
      </trkpt>
      <trkpt lat="43.74381" lon="7.07244">
        <ele>704.9</ele>
        <time>2022-09-21T11:24:27.000Z</time>
      </trkpt>
      <trkpt lat="43.74381" lon="7.0725">
        <ele>704.1</ele>
        <time>2022-09-21T11:24:28.000Z</time>
      </trkpt>
      <trkpt lat="43.7438" lon="7.07257">
        <ele>703.6</ele>
        <time>2022-09-21T11:24:29.000Z</time>
      </trkpt>
      <trkpt lat="43.74376" lon="7.07267">
        <ele>702.7</ele>
        <time>2022-09-21T11:24:31.000Z</time>
      </trkpt>
      <trkpt lat="43.74373" lon="7.07275">
        <ele>701.7</ele>
        <time>2022-09-21T11:24:33.000Z</time>
      </trkpt>
      <trkpt lat="43.7437" lon="7.07286">
        <ele>699.9</ele>
        <time>2022-09-21T11:24:35.000Z</time>
      </trkpt>
      <trkpt lat="43.74368" lon="7.07297">
        <ele>698.9</ele>
        <time>2022-09-21T11:24:37.000Z</time>
      </trkpt>
      <trkpt lat="43.74369" lon="7.07306">
        <ele>698.6</ele>
        <time>2022-09-21T11:24:39.000Z</time>
      </trkpt>
      <trkpt lat="43.74368" lon="7.07312">
        <ele>697.3</ele>
        <time>2022-09-21T11:24:41.000Z</time>
      </trkpt>
      <trkpt lat="43.74368" lon="7.0732">
        <ele>696.7</ele>
        <time>2022-09-21T11:24:43.000Z</time>
      </trkpt>
      <trkpt lat="43.74368" lon="7.07328">
        <ele>695.9</ele>
        <time>2022-09-21T11:24:45.000Z</time>
      </trkpt>
      <trkpt lat="43.74369" lon="7.07334">
        <ele>695.6</ele>
        <time>2022-09-21T11:24:47.000Z</time>
      </trkpt>
      <trkpt lat="43.74368" lon="7.07344">
        <ele>695.3</ele>
        <time>2022-09-21T11:24:49.000Z</time>
      </trkpt>
      <trkpt lat="43.74367" lon="7.07353">
        <ele>695.7</ele>
        <time>2022-09-21T11:24:51.000Z</time>
      </trkpt>
      <trkpt lat="43.74366" lon="7.07363">
        <ele>695.7</ele>
        <time>2022-09-21T11:24:53.000Z</time>
      </trkpt>
      <trkpt lat="43.74364" lon="7.07372">
        <ele>696.3</ele>
        <time>2022-09-21T11:24:55.000Z</time>
      </trkpt>
      <trkpt lat="43.74362" lon="7.07384">
        <ele>696.3</ele>
        <time>2022-09-21T11:24:57.000Z</time>
      </trkpt>
      <trkpt lat="43.74361" lon="7.07396">
        <ele>695.8</ele>
        <time>2022-09-21T11:24:59.000Z</time>
      </trkpt>
      <trkpt lat="43.7436" lon="7.07408">
        <ele>695.6</ele>
        <time>2022-09-21T11:25:01.000Z</time>
      </trkpt>
      <trkpt lat="43.74358" lon="7.07418">
        <ele>695.2</ele>
        <time>2022-09-21T11:25:03.000Z</time>
      </trkpt>
      <trkpt lat="43.74356" lon="7.07424">
        <ele>694.7</ele>
        <time>2022-09-21T11:25:04.000Z</time>
      </trkpt>
      <trkpt lat="43.74353" lon="7.07434">
        <ele>693.8</ele>
        <time>2022-09-21T11:25:06.000Z</time>
      </trkpt>
      <trkpt lat="43.74351" lon="7.07442">
        <ele>693.6</ele>
        <time>2022-09-21T11:25:08.000Z</time>
      </trkpt>
      <trkpt lat="43.74351" lon="7.07447">
        <ele>692.2</ele>
        <time>2022-09-21T11:25:12.000Z</time>
      </trkpt>
      <trkpt lat="43.74351" lon="7.07447">
        <ele>692.2</ele>
        <time>2022-09-21T11:25:13.000Z</time>
      </trkpt>
      <trkpt lat="43.74352" lon="7.07448">
        <ele>692</ele>
        <time>2022-09-21T11:25:20.000Z</time>
      </trkpt>
      <trkpt lat="43.74351" lon="7.07448">
        <ele>691.9</ele>
        <time>2022-09-21T11:25:22.000Z</time>
      </trkpt>
      <trkpt lat="43.74352" lon="7.07455">
        <ele>690.3</ele>
        <time>2022-09-21T11:25:35.000Z</time>
      </trkpt>
      <trkpt lat="43.7435" lon="7.07462">
        <ele>690.2</ele>
        <time>2022-09-21T11:25:39.000Z</time>
      </trkpt>
      <trkpt lat="43.74349" lon="7.0747">
        <ele>690</ele>
        <time>2022-09-21T11:25:41.000Z</time>
      </trkpt>
      <trkpt lat="43.74347" lon="7.07477">
        <ele>688</ele>
        <time>2022-09-21T11:25:43.000Z</time>
      </trkpt>
      <trkpt lat="43.74347" lon="7.07488">
        <ele>686.6</ele>
        <time>2022-09-21T11:25:45.000Z</time>
      </trkpt>
      <trkpt lat="43.74345" lon="7.07497">
        <ele>686</ele>
        <time>2022-09-21T11:25:47.000Z</time>
      </trkpt>
      <trkpt lat="43.74344" lon="7.07507">
        <ele>684.6</ele>
        <time>2022-09-21T11:25:49.000Z</time>
      </trkpt>
      <trkpt lat="43.74342" lon="7.07516">
        <ele>684.3</ele>
        <time>2022-09-21T11:25:51.000Z</time>
      </trkpt>
      <trkpt lat="43.74339" lon="7.07525">
        <ele>682.9</ele>
        <time>2022-09-21T11:25:53.000Z</time>
      </trkpt>
      <trkpt lat="43.74337" lon="7.07533">
        <ele>680.6</ele>
        <time>2022-09-21T11:25:55.000Z</time>
      </trkpt>
      <trkpt lat="43.74336" lon="7.07541">
        <ele>678.6</ele>
        <time>2022-09-21T11:25:57.000Z</time>
      </trkpt>
      <trkpt lat="43.74335" lon="7.0755">
        <ele>677.2</ele>
        <time>2022-09-21T11:25:59.000Z</time>
      </trkpt>
      <trkpt lat="43.74337" lon="7.07559">
        <ele>677.1</ele>
        <time>2022-09-21T11:26:01.000Z</time>
      </trkpt>
      <trkpt lat="43.74338" lon="7.07567">
        <ele>676.9</ele>
        <time>2022-09-21T11:26:03.000Z</time>
      </trkpt>
      <trkpt lat="43.74339" lon="7.07575">
        <ele>676.6</ele>
        <time>2022-09-21T11:26:05.000Z</time>
      </trkpt>
      <trkpt lat="43.74341" lon="7.07585">
        <ele>675.8</ele>
        <time>2022-09-21T11:26:08.000Z</time>
      </trkpt>
      <trkpt lat="43.74342" lon="7.07593">
        <ele>675.2</ele>
        <time>2022-09-21T11:26:10.000Z</time>
      </trkpt>
      <trkpt lat="43.74342" lon="7.07602">
        <ele>674.8</ele>
        <time>2022-09-21T11:26:12.000Z</time>
      </trkpt>
      <trkpt lat="43.74342" lon="7.07611">
        <ele>674.4</ele>
        <time>2022-09-21T11:26:14.000Z</time>
      </trkpt>
      <trkpt lat="43.74342" lon="7.07622">
        <ele>672.7</ele>
        <time>2022-09-21T11:26:16.000Z</time>
      </trkpt>
      <trkpt lat="43.74342" lon="7.07631">
        <ele>672.2</ele>
        <time>2022-09-21T11:26:18.000Z</time>
      </trkpt>
      <trkpt lat="43.74341" lon="7.07641">
        <ele>671.5</ele>
        <time>2022-09-21T11:26:20.000Z</time>
      </trkpt>
      <trkpt lat="43.74343" lon="7.07651">
        <ele>671.5</ele>
        <time>2022-09-21T11:26:22.000Z</time>
      </trkpt>
      <trkpt lat="43.74343" lon="7.07662">
        <ele>669.9</ele>
        <time>2022-09-21T11:26:24.000Z</time>
      </trkpt>
      <trkpt lat="43.74344" lon="7.07674">
        <ele>669.5</ele>
        <time>2022-09-21T11:26:26.000Z</time>
      </trkpt>
      <trkpt lat="43.74346" lon="7.0768">
        <ele>669.1</ele>
        <time>2022-09-21T11:26:27.000Z</time>
      </trkpt>
      <trkpt lat="43.7435" lon="7.07689">
        <ele>668.6</ele>
        <time>2022-09-21T11:26:29.000Z</time>
      </trkpt>
      <trkpt lat="43.74355" lon="7.07696">
        <ele>668.1</ele>
        <time>2022-09-21T11:26:31.000Z</time>
      </trkpt>
      <trkpt lat="43.74361" lon="7.07699">
        <ele>668.7</ele>
        <time>2022-09-21T11:26:33.000Z</time>
      </trkpt>
      <trkpt lat="43.74366" lon="7.07702">
        <ele>668.6</ele>
        <time>2022-09-21T11:26:35.000Z</time>
      </trkpt>
      <trkpt lat="43.74368" lon="7.07709">
        <ele>667.6</ele>
        <time>2022-09-21T11:26:37.000Z</time>
      </trkpt>
      <trkpt lat="43.74372" lon="7.07719">
        <ele>666.8</ele>
        <time>2022-09-21T11:26:39.000Z</time>
      </trkpt>
      <trkpt lat="43.74373" lon="7.07725">
        <ele>666.7</ele>
        <time>2022-09-21T11:26:40.000Z</time>
      </trkpt>
      <trkpt lat="43.74375" lon="7.07731">
        <ele>666.6</ele>
        <time>2022-09-21T11:26:41.000Z</time>
      </trkpt>
      <trkpt lat="43.74378" lon="7.07742">
        <ele>666.6</ele>
        <time>2022-09-21T11:26:43.000Z</time>
      </trkpt>
      <trkpt lat="43.7438" lon="7.07751">
        <ele>667</ele>
        <time>2022-09-21T11:26:45.000Z</time>
      </trkpt>
      <trkpt lat="43.74383" lon="7.07759">
        <ele>665.5</ele>
        <time>2022-09-21T11:26:47.000Z</time>
      </trkpt>
      <trkpt lat="43.74386" lon="7.07766">
        <ele>665.5</ele>
        <time>2022-09-21T11:26:49.000Z</time>
      </trkpt>
      <trkpt lat="43.74386" lon="7.07774">
        <ele>664.3</ele>
        <time>2022-09-21T11:26:51.000Z</time>
      </trkpt>
      <trkpt lat="43.74385" lon="7.07781">
        <ele>663.5</ele>
        <time>2022-09-21T11:26:53.000Z</time>
      </trkpt>
      <trkpt lat="43.74386" lon="7.07789">
        <ele>662</ele>
        <time>2022-09-21T11:26:56.000Z</time>
      </trkpt>
      <trkpt lat="43.74387" lon="7.07789">
        <ele>661.3</ele>
        <time>2022-09-21T11:27:00.000Z</time>
      </trkpt>
      <trkpt lat="43.74387" lon="7.0779">
        <ele>661.3</ele>
        <time>2022-09-21T11:27:02.000Z</time>
      </trkpt>
      <trkpt lat="43.7439" lon="7.07796">
        <ele>661.2</ele>
        <time>2022-09-21T11:27:05.000Z</time>
      </trkpt>
      <trkpt lat="43.74392" lon="7.07802">
        <ele>660.7</ele>
        <time>2022-09-21T11:27:07.000Z</time>
      </trkpt>
      <trkpt lat="43.74392" lon="7.07809">
        <ele>658.6</ele>
        <time>2022-09-21T11:27:10.000Z</time>
      </trkpt>
      <trkpt lat="43.74387" lon="7.07808">
        <ele>657.4</ele>
        <time>2022-09-21T11:27:13.000Z</time>
      </trkpt>
      <trkpt lat="43.74382" lon="7.07805">
        <ele>655.4</ele>
        <time>2022-09-21T11:27:16.000Z</time>
      </trkpt>
      <trkpt lat="43.74375" lon="7.07805">
        <ele>653.1</ele>
        <time>2022-09-21T11:27:21.000Z</time>
      </trkpt>
      <trkpt lat="43.7437" lon="7.07804">
        <ele>651.6</ele>
        <time>2022-09-21T11:27:23.000Z</time>
      </trkpt>
      <trkpt lat="43.74365" lon="7.07804">
        <ele>651.1</ele>
        <time>2022-09-21T11:27:25.000Z</time>
      </trkpt>
      <trkpt lat="43.7436" lon="7.07802">
        <ele>649.7</ele>
        <time>2022-09-21T11:27:27.000Z</time>
      </trkpt>
      <trkpt lat="43.74355" lon="7.07797">
        <ele>647.2</ele>
        <time>2022-09-21T11:27:30.000Z</time>
      </trkpt>
      <trkpt lat="43.74349" lon="7.07793">
        <ele>645.9</ele>
        <time>2022-09-21T11:27:32.000Z</time>
      </trkpt>
      <trkpt lat="43.74345" lon="7.07788">
        <ele>644.9</ele>
        <time>2022-09-21T11:27:34.000Z</time>
      </trkpt>
      <trkpt lat="43.74341" lon="7.07784">
        <ele>643.5</ele>
        <time>2022-09-21T11:27:36.000Z</time>
      </trkpt>
      <trkpt lat="43.74336" lon="7.07776">
        <ele>642</ele>
        <time>2022-09-21T11:27:38.000Z</time>
      </trkpt>
      <trkpt lat="43.7433" lon="7.07771">
        <ele>639.9</ele>
        <time>2022-09-21T11:27:40.000Z</time>
      </trkpt>
      <trkpt lat="43.74325" lon="7.07767">
        <ele>638.5</ele>
        <time>2022-09-21T11:27:42.000Z</time>
      </trkpt>
      <trkpt lat="43.7432" lon="7.07763">
        <ele>637.7</ele>
        <time>2022-09-21T11:27:44.000Z</time>
      </trkpt>
      <trkpt lat="43.74315" lon="7.07759">
        <ele>636.6</ele>
        <time>2022-09-21T11:27:46.000Z</time>
      </trkpt>
      <trkpt lat="43.74309" lon="7.07755">
        <ele>636.2</ele>
        <time>2022-09-21T11:27:48.000Z</time>
      </trkpt>
      <trkpt lat="43.74304" lon="7.07752">
        <ele>634.8</ele>
        <time>2022-09-21T11:27:50.000Z</time>
      </trkpt>
      <trkpt lat="43.74298" lon="7.07753">
        <ele>634</ele>
        <time>2022-09-21T11:27:52.000Z</time>
      </trkpt>
      <trkpt lat="43.74294" lon="7.07753">
        <ele>633.3</ele>
        <time>2022-09-21T11:27:54.000Z</time>
      </trkpt>
      <trkpt lat="43.74288" lon="7.07754">
        <ele>631.9</ele>
        <time>2022-09-21T11:27:56.000Z</time>
      </trkpt>
      <trkpt lat="43.74284" lon="7.07758">
        <ele>631.5</ele>
        <time>2022-09-21T11:27:58.000Z</time>
      </trkpt>
      <trkpt lat="43.74286" lon="7.07764">
        <ele>630.6</ele>
        <time>2022-09-21T11:28:00.000Z</time>
      </trkpt>
      <trkpt lat="43.74287" lon="7.07771">
        <ele>628.9</ele>
        <time>2022-09-21T11:28:02.000Z</time>
      </trkpt>
      <trkpt lat="43.74288" lon="7.07779">
        <ele>627</ele>
        <time>2022-09-21T11:28:05.000Z</time>
      </trkpt>
      <trkpt lat="43.74285" lon="7.07787">
        <ele>625.9</ele>
        <time>2022-09-21T11:28:08.000Z</time>
      </trkpt>
      <trkpt lat="43.74279" lon="7.07785">
        <ele>624.6</ele>
        <time>2022-09-21T11:28:11.000Z</time>
      </trkpt>
      <trkpt lat="43.74278" lon="7.07792">
        <ele>623.7</ele>
        <time>2022-09-21T11:28:15.000Z</time>
      </trkpt>
      <trkpt lat="43.7428" lon="7.07799">
        <ele>622.8</ele>
        <time>2022-09-21T11:28:19.000Z</time>
      </trkpt>
      <trkpt lat="43.74275" lon="7.07797">
        <ele>619.5</ele>
        <time>2022-09-21T11:28:28.000Z</time>
      </trkpt>
      <trkpt lat="43.7427" lon="7.07798">
        <ele>618.2</ele>
        <time>2022-09-21T11:28:40.000Z</time>
      </trkpt>
      <trkpt lat="43.74265" lon="7.07797">
        <ele>618.2</ele>
        <time>2022-09-21T11:28:47.000Z</time>
      </trkpt>
      <trkpt lat="43.74264" lon="7.07798">
        <ele>617.8</ele>
        <time>2022-09-21T11:28:50.000Z</time>
      </trkpt>
      <trkpt lat="43.74264" lon="7.07798">
        <ele>617.6</ele>
        <time>2022-09-21T11:28:51.000Z</time>
      </trkpt>
      <trkpt lat="43.74258" lon="7.07796">
        <ele>616</ele>
        <time>2022-09-21T11:28:59.000Z</time>
      </trkpt>
      <trkpt lat="43.74253" lon="7.07794">
        <ele>616</ele>
        <time>2022-09-21T11:29:05.000Z</time>
      </trkpt>
      <trkpt lat="43.74249" lon="7.07797">
        <ele>616.1</ele>
        <time>2022-09-21T11:29:10.000Z</time>
      </trkpt>
      <trkpt lat="43.74245" lon="7.07801">
        <ele>615.9</ele>
        <time>2022-09-21T11:29:21.000Z</time>
      </trkpt>
      <trkpt lat="43.74241" lon="7.07806">
        <ele>616.2</ele>
        <time>2022-09-21T11:29:25.000Z</time>
      </trkpt>
      <trkpt lat="43.74238" lon="7.07811">
        <ele>616.5</ele>
        <time>2022-09-21T11:29:28.000Z</time>
      </trkpt>
      <trkpt lat="43.74236" lon="7.07819">
        <ele>615.9</ele>
        <time>2022-09-21T11:29:31.000Z</time>
      </trkpt>
      <trkpt lat="43.74234" lon="7.07826">
        <ele>615.9</ele>
        <time>2022-09-21T11:29:34.000Z</time>
      </trkpt>
      <trkpt lat="43.74231" lon="7.07831">
        <ele>616.3</ele>
        <time>2022-09-21T11:29:42.000Z</time>
      </trkpt>
      <trkpt lat="43.74231" lon="7.07831">
        <ele>616.3</ele>
        <time>2022-09-21T11:29:43.000Z</time>
      </trkpt>
      <trkpt lat="43.74232" lon="7.07831">
        <ele>616.4</ele>
        <time>2022-09-21T11:29:44.000Z</time>
      </trkpt>
      <trkpt lat="43.74232" lon="7.07832">
        <ele>616.5</ele>
        <time>2022-09-21T11:29:48.000Z</time>
      </trkpt>
      <trkpt lat="43.74232" lon="7.07832">
        <ele>616.5</ele>
        <time>2022-09-21T11:29:49.000Z</time>
      </trkpt>
      <trkpt lat="43.74232" lon="7.07833">
        <ele>616.6</ele>
        <time>2022-09-21T11:29:51.000Z</time>
      </trkpt>
      <trkpt lat="43.74232" lon="7.07833">
        <ele>616.6</ele>
        <time>2022-09-21T11:29:52.000Z</time>
      </trkpt>
      <trkpt lat="43.74232" lon="7.07834">
        <ele>616.6</ele>
        <time>2022-09-21T11:29:54.000Z</time>
      </trkpt>
      <trkpt lat="43.74232" lon="7.07834">
        <ele>616.7</ele>
        <time>2022-09-21T11:29:55.000Z</time>
      </trkpt>
      <trkpt lat="43.74233" lon="7.07835">
        <ele>616.4</ele>
        <time>2022-09-21T11:29:58.000Z</time>
      </trkpt>
      <trkpt lat="43.74233" lon="7.07835">
        <ele>616.4</ele>
        <time>2022-09-21T11:29:59.000Z</time>
      </trkpt>
      <trkpt lat="43.74233" lon="7.07835">
        <ele>616</ele>
        <time>2022-09-21T11:30:04.000Z</time>
      </trkpt>
      <trkpt lat="43.74233" lon="7.07835">
        <ele>615.8</ele>
        <time>2022-09-21T11:30:05.000Z</time>
      </trkpt>
      <trkpt lat="43.74232" lon="7.07834">
        <ele>615.8</ele>
        <time>2022-09-21T11:30:13.000Z</time>
      </trkpt>
      <trkpt lat="43.74232" lon="7.07834">
        <ele>616.2</ele>
        <time>2022-09-21T11:30:29.000Z</time>
      </trkpt>
      <trkpt lat="43.74232" lon="7.07834">
        <ele>616.2</ele>
        <time>2022-09-21T11:30:30.000Z</time>
      </trkpt>
      <trkpt lat="43.74232" lon="7.07834">
        <ele>616.1</ele>
        <time>2022-09-21T11:30:35.000Z</time>
      </trkpt>
      <trkpt lat="43.74231" lon="7.07833">
        <ele>616.4</ele>
        <time>2022-09-21T11:30:39.000Z</time>
      </trkpt>
      <trkpt lat="43.74231" lon="7.07833">
        <ele>616.1</ele>
        <time>2022-09-21T11:30:42.000Z</time>
      </trkpt>
      <trkpt lat="43.74231" lon="7.07831">
        <ele>616</ele>
        <time>2022-09-21T11:30:46.000Z</time>
      </trkpt>
      <trkpt lat="43.74231" lon="7.07831">
        <ele>616</ele>
        <time>2022-09-21T11:30:47.000Z</time>
      </trkpt>
      <trkpt lat="43.7423" lon="7.07831">
        <ele>616.1</ele>
        <time>2022-09-21T11:30:49.000Z</time>
      </trkpt>
      <trkpt lat="43.7423" lon="7.07831">
        <ele>616.1</ele>
        <time>2022-09-21T11:30:50.000Z</time>
      </trkpt>
      <trkpt lat="43.7423" lon="7.0783">
        <ele>615.9</ele>
        <time>2022-09-21T11:30:52.000Z</time>
      </trkpt>
      <trkpt lat="43.74231" lon="7.0783">
        <ele>615.8</ele>
        <time>2022-09-21T11:30:53.000Z</time>
      </trkpt>
      <trkpt lat="43.74231" lon="7.0783">
        <ele>615.8</ele>
        <time>2022-09-21T11:30:54.000Z</time>
      </trkpt>
      <trkpt lat="43.7423" lon="7.0783">
        <ele>615.8</ele>
        <time>2022-09-21T11:30:55.000Z</time>
      </trkpt>
      <trkpt lat="43.74229" lon="7.07828">
        <ele>615.7</ele>
        <time>2022-09-21T11:31:00.000Z</time>
      </trkpt>
      <trkpt lat="43.74229" lon="7.07828">
        <ele>615.8</ele>
        <time>2022-09-21T11:31:02.000Z</time>
      </trkpt>
      <trkpt lat="43.74229" lon="7.07828">
        <ele>615.9</ele>
        <time>2022-09-21T11:31:04.000Z</time>
      </trkpt>
      <trkpt lat="43.74229" lon="7.07828">
        <ele>615.7</ele>
        <time>2022-09-21T11:31:06.000Z</time>
      </trkpt>
      <trkpt lat="43.74229" lon="7.0783">
        <ele>615.8</ele>
        <time>2022-09-21T11:31:17.000Z</time>
      </trkpt>
      <trkpt lat="43.74229" lon="7.07831">
        <ele>615.9</ele>
        <time>2022-09-21T11:31:19.000Z</time>
      </trkpt>
      <trkpt lat="43.74229" lon="7.07831">
        <ele>615.5</ele>
        <time>2022-09-21T11:31:21.000Z</time>
      </trkpt>
      <trkpt lat="43.74229" lon="7.07831">
        <ele>615.5</ele>
        <time>2022-09-21T11:31:22.000Z</time>
      </trkpt>
      <trkpt lat="43.7423" lon="7.07833">
        <ele>615.8</ele>
        <time>2022-09-21T11:31:26.000Z</time>
      </trkpt>
      <trkpt lat="43.74231" lon="7.07833">
        <ele>615.8</ele>
        <time>2022-09-21T11:31:27.000Z</time>
      </trkpt>
      <trkpt lat="43.74231" lon="7.07835">
        <ele>615.6</ele>
        <time>2022-09-21T11:31:35.000Z</time>
      </trkpt>
      <trkpt lat="43.74231" lon="7.07835">
        <ele>615.6</ele>
        <time>2022-09-21T11:31:36.000Z</time>
      </trkpt>
      <trkpt lat="43.74235" lon="7.07839">
        <ele>615.7</ele>
        <time>2022-09-21T11:31:46.000Z</time>
      </trkpt>
      <trkpt lat="43.74234" lon="7.07839">
        <ele>615.6</ele>
        <time>2022-09-21T11:31:50.000Z</time>
      </trkpt>
      <trkpt lat="43.74234" lon="7.07839">
        <ele>615.5</ele>
        <time>2022-09-21T11:31:51.000Z</time>
      </trkpt>
      <trkpt lat="43.74234" lon="7.07839">
        <ele>615.7</ele>
        <time>2022-09-21T11:31:52.000Z</time>
      </trkpt>
      <trkpt lat="43.74232" lon="7.07839">
        <ele>615.8</ele>
        <time>2022-09-21T11:32:00.000Z</time>
      </trkpt>
      <trkpt lat="43.74232" lon="7.07839">
        <ele>615.7</ele>
        <time>2022-09-21T11:32:01.000Z</time>
      </trkpt>
      <trkpt lat="43.74231" lon="7.07839">
        <ele>615.6</ele>
        <time>2022-09-21T11:32:09.000Z</time>
      </trkpt>
      <trkpt lat="43.74231" lon="7.07839">
        <ele>615.5</ele>
        <time>2022-09-21T11:32:10.000Z</time>
      </trkpt>
      <trkpt lat="43.74232" lon="7.0784">
        <ele>615.4</ele>
        <time>2022-09-21T11:32:13.000Z</time>
      </trkpt>
      <trkpt lat="43.74231" lon="7.07839">
        <ele>615.5</ele>
        <time>2022-09-21T11:32:14.000Z</time>
      </trkpt>
      <trkpt lat="43.7423" lon="7.07838">
        <ele>615.7</ele>
        <time>2022-09-21T11:32:18.000Z</time>
      </trkpt>
      <trkpt lat="43.7423" lon="7.07838">
        <ele>616</ele>
        <time>2022-09-21T11:32:20.000Z</time>
      </trkpt>
      <trkpt lat="43.7423" lon="7.07839">
        <ele>616</ele>
        <time>2022-09-21T11:32:22.000Z</time>
      </trkpt>
      <trkpt lat="43.7423" lon="7.07838">
        <ele>615.9</ele>
        <time>2022-09-21T11:32:23.000Z</time>
      </trkpt>
      <trkpt lat="43.7423" lon="7.07838">
        <ele>615.9</ele>
        <time>2022-09-21T11:32:24.000Z</time>
      </trkpt>
      <trkpt lat="43.74231" lon="7.07838">
        <ele>616</ele>
        <time>2022-09-21T11:32:26.000Z</time>
      </trkpt>
      <trkpt lat="43.74232" lon="7.07839">
        <ele>615.7</ele>
        <time>2022-09-21T11:32:31.000Z</time>
      </trkpt>
      <trkpt lat="43.74231" lon="7.07838">
        <ele>615.8</ele>
        <time>2022-09-21T11:32:32.000Z</time>
      </trkpt>
      <trkpt lat="43.74231" lon="7.07838">
        <ele>615.8</ele>
        <time>2022-09-21T11:32:33.000Z</time>
      </trkpt>
      <trkpt lat="43.74231" lon="7.07838">
        <ele>615.8</ele>
        <time>2022-09-21T11:32:34.000Z</time>
      </trkpt>
      <trkpt lat="43.74229" lon="7.07836">
        <ele>615.6</ele>
        <time>2022-09-21T11:32:39.000Z</time>
      </trkpt>
      <trkpt lat="43.74229" lon="7.07835">
        <ele>615.6</ele>
        <time>2022-09-21T11:32:41.000Z</time>
      </trkpt>
      <trkpt lat="43.74229" lon="7.07835">
        <ele>615.5</ele>
        <time>2022-09-21T11:32:54.000Z</time>
      </trkpt>
      <trkpt lat="43.74229" lon="7.07834">
        <ele>615.9</ele>
        <time>2022-09-21T11:32:59.000Z</time>
      </trkpt>
      <trkpt lat="43.74228" lon="7.07833">
        <ele>615.7</ele>
        <time>2022-09-21T11:33:02.000Z</time>
      </trkpt>
      <trkpt lat="43.74228" lon="7.07833">
        <ele>615.9</ele>
        <time>2022-09-21T11:33:03.000Z</time>
      </trkpt>
      <trkpt lat="43.74228" lon="7.07834">
        <ele>616.1</ele>
        <time>2022-09-21T11:33:12.000Z</time>
      </trkpt>
      <trkpt lat="43.74228" lon="7.07834">
        <ele>616.2</ele>
        <time>2022-09-21T11:33:13.000Z</time>
      </trkpt>
      <trkpt lat="43.74228" lon="7.07841">
        <ele>616.2</ele>
        <time>2022-09-21T11:33:16.000Z</time>
      </trkpt>
      <trkpt lat="43.74226" lon="7.07849">
        <ele>616.4</ele>
        <time>2022-09-21T11:33:19.000Z</time>
      </trkpt>
      <trkpt lat="43.74224" lon="7.07856">
        <ele>616.9</ele>
        <time>2022-09-21T11:33:22.000Z</time>
      </trkpt>
      <trkpt lat="43.74223" lon="7.07863">
        <ele>616.9</ele>
        <time>2022-09-21T11:33:26.000Z</time>
      </trkpt>
      <trkpt lat="43.74222" lon="7.07871">
        <ele>617.9</ele>
        <time>2022-09-21T11:33:29.000Z</time>
      </trkpt>
      <trkpt lat="43.74223" lon="7.07877">
        <ele>617.9</ele>
        <time>2022-09-21T11:33:32.000Z</time>
      </trkpt>
      <trkpt lat="43.74222" lon="7.07884">
        <ele>616.5</ele>
        <time>2022-09-21T11:33:35.000Z</time>
      </trkpt>
      <trkpt lat="43.74222" lon="7.07892">
        <ele>615.5</ele>
        <time>2022-09-21T11:33:38.000Z</time>
      </trkpt>
      <trkpt lat="43.74223" lon="7.07901">
        <ele>613.4</ele>
        <time>2022-09-21T11:33:40.000Z</time>
      </trkpt>
      <trkpt lat="43.74224" lon="7.0791">
        <ele>612.8</ele>
        <time>2022-09-21T11:33:42.000Z</time>
      </trkpt>
      <trkpt lat="43.74226" lon="7.07918">
        <ele>612.3</ele>
        <time>2022-09-21T11:33:44.000Z</time>
      </trkpt>
      <trkpt lat="43.74228" lon="7.07926">
        <ele>611.4</ele>
        <time>2022-09-21T11:33:46.000Z</time>
      </trkpt>
      <trkpt lat="43.74229" lon="7.07935">
        <ele>611.1</ele>
        <time>2022-09-21T11:33:48.000Z</time>
      </trkpt>
      <trkpt lat="43.74229" lon="7.07941">
        <ele>611.7</ele>
        <time>2022-09-21T11:33:50.000Z</time>
      </trkpt>
      <trkpt lat="43.74229" lon="7.07948">
        <ele>612.2</ele>
        <time>2022-09-21T11:33:53.000Z</time>
      </trkpt>
      <trkpt lat="43.74231" lon="7.07955">
        <ele>613.5</ele>
        <time>2022-09-21T11:33:56.000Z</time>
      </trkpt>
      <trkpt lat="43.74233" lon="7.07961">
        <ele>614.4</ele>
        <time>2022-09-21T11:33:59.000Z</time>
      </trkpt>
      <trkpt lat="43.74232" lon="7.07961">
        <ele>614.7</ele>
        <time>2022-09-21T11:34:03.000Z</time>
      </trkpt>
      <trkpt lat="43.74232" lon="7.07961">
        <ele>614.4</ele>
        <time>2022-09-21T11:34:04.000Z</time>
      </trkpt>
      <trkpt lat="43.74236" lon="7.07965">
        <ele>615.7</ele>
        <time>2022-09-21T11:34:10.000Z</time>
      </trkpt>
      <trkpt lat="43.74238" lon="7.0797">
        <ele>616.7</ele>
        <time>2022-09-21T11:34:18.000Z</time>
      </trkpt>
      <trkpt lat="43.74237" lon="7.07975">
        <ele>617.4</ele>
        <time>2022-09-21T11:34:29.000Z</time>
      </trkpt>
      <trkpt lat="43.74237" lon="7.07974">
        <ele>617.2</ele>
        <time>2022-09-21T11:34:30.000Z</time>
      </trkpt>
      <trkpt lat="43.74237" lon="7.07975">
        <ele>616.8</ele>
        <time>2022-09-21T11:34:32.000Z</time>
      </trkpt>
      <trkpt lat="43.74237" lon="7.07975">
        <ele>617</ele>
        <time>2022-09-21T11:34:33.000Z</time>
      </trkpt>
      <trkpt lat="43.74237" lon="7.07975">
        <ele>617</ele>
        <time>2022-09-21T11:34:34.000Z</time>
      </trkpt>
      <trkpt lat="43.74237" lon="7.07975">
        <ele>617.1</ele>
        <time>2022-09-21T11:34:35.000Z</time>
      </trkpt>
      <trkpt lat="43.74234" lon="7.0798">
        <ele>617.4</ele>
        <time>2022-09-21T11:34:43.000Z</time>
      </trkpt>
      <trkpt lat="43.74231" lon="7.07987">
        <ele>618.3</ele>
        <time>2022-09-21T11:34:48.000Z</time>
      </trkpt>
      <trkpt lat="43.74228" lon="7.07992">
        <ele>619.4</ele>
        <time>2022-09-21T11:34:52.000Z</time>
      </trkpt>
      <trkpt lat="43.74226" lon="7.07999">
        <ele>619.7</ele>
        <time>2022-09-21T11:34:56.000Z</time>
      </trkpt>
      <trkpt lat="43.74222" lon="7.08003">
        <ele>619.7</ele>
        <time>2022-09-21T11:34:59.000Z</time>
      </trkpt>
      <trkpt lat="43.74219" lon="7.08008">
        <ele>620.1</ele>
        <time>2022-09-21T11:35:01.000Z</time>
      </trkpt>
      <trkpt lat="43.74217" lon="7.08014">
        <ele>620.2</ele>
        <time>2022-09-21T11:35:03.000Z</time>
      </trkpt>
      <trkpt lat="43.74215" lon="7.08021">
        <ele>620.8</ele>
        <time>2022-09-21T11:35:06.000Z</time>
      </trkpt>
      <trkpt lat="43.74213" lon="7.08028">
        <ele>622.2</ele>
        <time>2022-09-21T11:35:10.000Z</time>
      </trkpt>
      <trkpt lat="43.7421" lon="7.08035">
        <ele>622.3</ele>
        <time>2022-09-21T11:35:14.000Z</time>
      </trkpt>
      <trkpt lat="43.74209" lon="7.08042">
        <ele>622.2</ele>
        <time>2022-09-21T11:35:17.000Z</time>
      </trkpt>
      <trkpt lat="43.74206" lon="7.08051">
        <ele>621.8</ele>
        <time>2022-09-21T11:35:20.000Z</time>
      </trkpt>
      <trkpt lat="43.74202" lon="7.08059">
        <ele>621.5</ele>
        <time>2022-09-21T11:35:22.000Z</time>
      </trkpt>
      <trkpt lat="43.74198" lon="7.08067">
        <ele>621.3</ele>
        <time>2022-09-21T11:35:24.000Z</time>
      </trkpt>
      <trkpt lat="43.74195" lon="7.08073">
        <ele>621.6</ele>
        <time>2022-09-21T11:35:26.000Z</time>
      </trkpt>
      <trkpt lat="43.74191" lon="7.08079">
        <ele>622.1</ele>
        <time>2022-09-21T11:35:29.000Z</time>
      </trkpt>
      <trkpt lat="43.74187" lon="7.08085">
        <ele>622.1</ele>
        <time>2022-09-21T11:35:32.000Z</time>
      </trkpt>
      <trkpt lat="43.74191" lon="7.0809">
        <ele>622.9</ele>
        <time>2022-09-21T11:35:39.000Z</time>
      </trkpt>
      <trkpt lat="43.74196" lon="7.08087">
        <ele>624.2</ele>
        <time>2022-09-21T11:35:44.000Z</time>
      </trkpt>
      <trkpt lat="43.742" lon="7.08085">
        <ele>625.1</ele>
        <time>2022-09-21T11:35:47.000Z</time>
      </trkpt>
      <trkpt lat="43.74206" lon="7.08084">
        <ele>625.7</ele>
        <time>2022-09-21T11:35:51.000Z</time>
      </trkpt>
      <trkpt lat="43.7421" lon="7.08082">
        <ele>626.9</ele>
        <time>2022-09-21T11:35:54.000Z</time>
      </trkpt>
      <trkpt lat="43.74216" lon="7.08079">
        <ele>627.9</ele>
        <time>2022-09-21T11:35:58.000Z</time>
      </trkpt>
      <trkpt lat="43.7422" lon="7.08076">
        <ele>629.9</ele>
        <time>2022-09-21T11:36:05.000Z</time>
      </trkpt>
      <trkpt lat="43.74226" lon="7.08074">
        <ele>631.3</ele>
        <time>2022-09-21T11:36:12.000Z</time>
      </trkpt>
      <trkpt lat="43.7423" lon="7.08071">
        <ele>631.7</ele>
        <time>2022-09-21T11:36:16.000Z</time>
      </trkpt>
      <trkpt lat="43.74234" lon="7.08068">
        <ele>632.9</ele>
        <time>2022-09-21T11:36:21.000Z</time>
      </trkpt>
      <trkpt lat="43.74236" lon="7.08067">
        <ele>633.5</ele>
        <time>2022-09-21T11:36:28.000Z</time>
      </trkpt>
      <trkpt lat="43.74236" lon="7.08067">
        <ele>633.5</ele>
        <time>2022-09-21T11:36:29.000Z</time>
      </trkpt>
      <trkpt lat="43.74236" lon="7.08066">
        <ele>633.4</ele>
        <time>2022-09-21T11:36:31.000Z</time>
      </trkpt>
      <trkpt lat="43.74236" lon="7.08066">
        <ele>633.5</ele>
        <time>2022-09-21T11:36:33.000Z</time>
      </trkpt>
      <trkpt lat="43.74236" lon="7.08067">
        <ele>633.4</ele>
        <time>2022-09-21T11:36:36.000Z</time>
      </trkpt>
      <trkpt lat="43.74236" lon="7.08067">
        <ele>633.5</ele>
        <time>2022-09-21T11:36:38.000Z</time>
      </trkpt>
      <trkpt lat="43.74242" lon="7.08065">
        <ele>634.3</ele>
        <time>2022-09-21T11:36:44.000Z</time>
      </trkpt>
      <trkpt lat="43.74247" lon="7.08064">
        <ele>634.2</ele>
        <time>2022-09-21T11:36:48.000Z</time>
      </trkpt>
      <trkpt lat="43.74252" lon="7.08064">
        <ele>634.6</ele>
        <time>2022-09-21T11:36:51.000Z</time>
      </trkpt>
      <trkpt lat="43.74256" lon="7.08062">
        <ele>634.9</ele>
        <time>2022-09-21T11:36:54.000Z</time>
      </trkpt>
      <trkpt lat="43.74262" lon="7.08059">
        <ele>636.2</ele>
        <time>2022-09-21T11:36:57.000Z</time>
      </trkpt>
      <trkpt lat="43.74265" lon="7.08058">
        <ele>636.7</ele>
        <time>2022-09-21T11:37:06.000Z</time>
      </trkpt>
      <trkpt lat="43.74266" lon="7.08057">
        <ele>636.6</ele>
        <time>2022-09-21T11:37:07.000Z</time>
      </trkpt>
      <trkpt lat="43.74271" lon="7.08054">
        <ele>637.4</ele>
        <time>2022-09-21T11:37:16.000Z</time>
      </trkpt>
      <trkpt lat="43.74275" lon="7.08053">
        <ele>637.7</ele>
        <time>2022-09-21T11:37:19.000Z</time>
      </trkpt>
      <trkpt lat="43.74281" lon="7.0805">
        <ele>638.4</ele>
        <time>2022-09-21T11:37:23.000Z</time>
      </trkpt>
      <trkpt lat="43.74285" lon="7.08046">
        <ele>639.1</ele>
        <time>2022-09-21T11:37:27.000Z</time>
      </trkpt>
      <trkpt lat="43.74289" lon="7.08042">
        <ele>639.6</ele>
        <time>2022-09-21T11:37:30.000Z</time>
      </trkpt>
      <trkpt lat="43.74293" lon="7.08039">
        <ele>640.2</ele>
        <time>2022-09-21T11:37:33.000Z</time>
      </trkpt>
      <trkpt lat="43.74298" lon="7.08035">
        <ele>640.8</ele>
        <time>2022-09-21T11:37:36.000Z</time>
      </trkpt>
      <trkpt lat="43.74302" lon="7.08031">
        <ele>640.9</ele>
        <time>2022-09-21T11:37:39.000Z</time>
      </trkpt>
      <trkpt lat="43.74306" lon="7.08026">
        <ele>641.7</ele>
        <time>2022-09-21T11:37:42.000Z</time>
      </trkpt>
      <trkpt lat="43.74309" lon="7.08021">
        <ele>642.5</ele>
        <time>2022-09-21T11:37:50.000Z</time>
      </trkpt>
      <trkpt lat="43.74314" lon="7.08017">
        <ele>643.7</ele>
        <time>2022-09-21T11:37:57.000Z</time>
      </trkpt>
      <trkpt lat="43.74319" lon="7.08014">
        <ele>645.1</ele>
        <time>2022-09-21T11:38:05.000Z</time>
      </trkpt>
      <trkpt lat="43.74321" lon="7.08008">
        <ele>646.5</ele>
        <time>2022-09-21T11:38:14.000Z</time>
      </trkpt>
      <trkpt lat="43.74322" lon="7.08002">
        <ele>647.5</ele>
        <time>2022-09-21T11:38:20.000Z</time>
      </trkpt>
      <trkpt lat="43.74327" lon="7.07999">
        <ele>649.4</ele>
        <time>2022-09-21T11:38:32.000Z</time>
      </trkpt>
      <trkpt lat="43.74332" lon="7.07996">
        <ele>650.5</ele>
        <time>2022-09-21T11:38:39.000Z</time>
      </trkpt>
      <trkpt lat="43.74335" lon="7.07992">
        <ele>651.9</ele>
        <time>2022-09-21T11:38:48.000Z</time>
      </trkpt>
      <trkpt lat="43.74335" lon="7.07992">
        <ele>652</ele>
        <time>2022-09-21T11:38:49.000Z</time>
      </trkpt>
      <trkpt lat="43.7434" lon="7.07992">
        <ele>652.4</ele>
        <time>2022-09-21T11:38:59.000Z</time>
      </trkpt>
      <trkpt lat="43.74341" lon="7.07995">
        <ele>653.8</ele>
        <time>2022-09-21T11:39:06.000Z</time>
      </trkpt>
      <trkpt lat="43.74342" lon="7.07995">
        <ele>653.8</ele>
        <time>2022-09-21T11:39:07.000Z</time>
      </trkpt>
      <trkpt lat="43.74345" lon="7.07998">
        <ele>654.9</ele>
        <time>2022-09-21T11:39:16.000Z</time>
      </trkpt>
      <trkpt lat="43.74345" lon="7.07998">
        <ele>654.9</ele>
        <time>2022-09-21T11:39:17.000Z</time>
      </trkpt>
      <trkpt lat="43.7435" lon="7.07997">
        <ele>655.5</ele>
        <time>2022-09-21T11:39:24.000Z</time>
      </trkpt>
      <trkpt lat="43.7435" lon="7.07997">
        <ele>656.2</ele>
        <time>2022-09-21T11:39:27.000Z</time>
      </trkpt>
      <trkpt lat="43.74351" lon="7.07997">
        <ele>656.6</ele>
        <time>2022-09-21T11:39:28.000Z</time>
      </trkpt>
      <trkpt lat="43.74354" lon="7.07991">
        <ele>658.4</ele>
        <time>2022-09-21T11:39:40.000Z</time>
      </trkpt>
      <trkpt lat="43.74358" lon="7.07988">
        <ele>658.9</ele>
        <time>2022-09-21T11:39:47.000Z</time>
      </trkpt>
      <trkpt lat="43.74362" lon="7.07985">
        <ele>660.2</ele>
        <time>2022-09-21T11:39:54.000Z</time>
      </trkpt>
      <trkpt lat="43.74366" lon="7.07983">
        <ele>660.9</ele>
        <time>2022-09-21T11:40:02.000Z</time>
      </trkpt>
      <trkpt lat="43.74366" lon="7.07983">
        <ele>661.1</ele>
        <time>2022-09-21T11:40:03.000Z</time>
      </trkpt>
      <trkpt lat="43.74371" lon="7.07986">
        <ele>662.4</ele>
        <time>2022-09-21T11:40:08.000Z</time>
      </trkpt>
      <trkpt lat="43.74376" lon="7.07986">
        <ele>663.7</ele>
        <time>2022-09-21T11:40:15.000Z</time>
      </trkpt>
      <trkpt lat="43.7438" lon="7.07985">
        <ele>665.1</ele>
        <time>2022-09-21T11:40:24.000Z</time>
      </trkpt>
      <trkpt lat="43.74379" lon="7.07986">
        <ele>665.6</ele>
        <time>2022-09-21T11:40:25.000Z</time>
      </trkpt>
      <trkpt lat="43.74383" lon="7.07986">
        <ele>667</ele>
        <time>2022-09-21T11:40:31.000Z</time>
      </trkpt>
      <trkpt lat="43.74388" lon="7.07988">
        <ele>668.2</ele>
        <time>2022-09-21T11:40:38.000Z</time>
      </trkpt>
      <trkpt lat="43.74389" lon="7.07989">
        <ele>669.3</ele>
        <time>2022-09-21T11:40:45.000Z</time>
      </trkpt>
      <trkpt lat="43.7439" lon="7.07989">
        <ele>669.3</ele>
        <time>2022-09-21T11:40:46.000Z</time>
      </trkpt>
      <trkpt lat="43.7439" lon="7.07989">
        <ele>669.3</ele>
        <time>2022-09-21T11:40:47.000Z</time>
      </trkpt>
      <trkpt lat="43.7439" lon="7.07989">
        <ele>669.4</ele>
        <time>2022-09-21T11:40:49.000Z</time>
      </trkpt>
      <trkpt lat="43.74389" lon="7.0799">
        <ele>669.2</ele>
        <time>2022-09-21T11:40:51.000Z</time>
      </trkpt>
      <trkpt lat="43.74389" lon="7.0799">
        <ele>669.4</ele>
        <time>2022-09-21T11:40:54.000Z</time>
      </trkpt>
      <trkpt lat="43.74391" lon="7.07996">
        <ele>670</ele>
        <time>2022-09-21T11:41:00.000Z</time>
      </trkpt>
      <trkpt lat="43.74395" lon="7.07999">
        <ele>671.8</ele>
        <time>2022-09-21T11:41:08.000Z</time>
      </trkpt>
      <trkpt lat="43.74399" lon="7.08005">
        <ele>673.7</ele>
        <time>2022-09-21T11:41:16.000Z</time>
      </trkpt>
      <trkpt lat="43.74399" lon="7.08005">
        <ele>674.2</ele>
        <time>2022-09-21T11:41:18.000Z</time>
      </trkpt>
      <trkpt lat="43.74399" lon="7.08006">
        <ele>674.2</ele>
        <time>2022-09-21T11:41:19.000Z</time>
      </trkpt>
      <trkpt lat="43.74403" lon="7.08008">
        <ele>675.8</ele>
        <time>2022-09-21T11:41:30.000Z</time>
      </trkpt>
      <trkpt lat="43.74408" lon="7.08007">
        <ele>677.5</ele>
        <time>2022-09-21T11:41:39.000Z</time>
      </trkpt>
      <trkpt lat="43.74413" lon="7.08005">
        <ele>678.5</ele>
        <time>2022-09-21T11:41:44.000Z</time>
      </trkpt>
      <trkpt lat="43.74417" lon="7.08003">
        <ele>679.2</ele>
        <time>2022-09-21T11:41:48.000Z</time>
      </trkpt>
      <trkpt lat="43.74422" lon="7.07999">
        <ele>679.8</ele>
        <time>2022-09-21T11:41:54.000Z</time>
      </trkpt>
      <trkpt lat="43.74421" lon="7.07999">
        <ele>680.2</ele>
        <time>2022-09-21T11:42:01.000Z</time>
      </trkpt>
      <trkpt lat="43.74421" lon="7.07999">
        <ele>680.2</ele>
        <time>2022-09-21T11:42:02.000Z</time>
      </trkpt>
      <trkpt lat="43.74421" lon="7.07999">
        <ele>680.1</ele>
        <time>2022-09-21T11:42:08.000Z</time>
      </trkpt>
      <trkpt lat="43.74421" lon="7.07999">
        <ele>679.9</ele>
        <time>2022-09-21T11:42:09.000Z</time>
      </trkpt>
      <trkpt lat="43.74421" lon="7.07999">
        <ele>680</ele>
        <time>2022-09-21T11:42:11.000Z</time>
      </trkpt>
      <trkpt lat="43.74421" lon="7.07999">
        <ele>679.9</ele>
        <time>2022-09-21T11:42:20.000Z</time>
      </trkpt>
      <trkpt lat="43.74426" lon="7.07995">
        <ele>680.8</ele>
        <time>2022-09-21T11:42:25.000Z</time>
      </trkpt>
      <trkpt lat="43.7443" lon="7.07993">
        <ele>681.3</ele>
        <time>2022-09-21T11:42:28.000Z</time>
      </trkpt>
      <trkpt lat="43.74435" lon="7.07994">
        <ele>682.4</ele>
        <time>2022-09-21T11:42:32.000Z</time>
      </trkpt>
      <trkpt lat="43.74439" lon="7.07991">
        <ele>682.7</ele>
        <time>2022-09-21T11:42:36.000Z</time>
      </trkpt>
      <trkpt lat="43.74446" lon="7.07991">
        <ele>683.8</ele>
        <time>2022-09-21T11:42:40.000Z</time>
      </trkpt>
      <trkpt lat="43.74451" lon="7.07989">
        <ele>684.9</ele>
        <time>2022-09-21T11:42:43.000Z</time>
      </trkpt>
      <trkpt lat="43.74455" lon="7.07986">
        <ele>685.4</ele>
        <time>2022-09-21T11:42:46.000Z</time>
      </trkpt>
      <trkpt lat="43.7446" lon="7.07983">
        <ele>686.1</ele>
        <time>2022-09-21T11:42:49.000Z</time>
      </trkpt>
      <trkpt lat="43.74464" lon="7.07979">
        <ele>686.3</ele>
        <time>2022-09-21T11:42:52.000Z</time>
      </trkpt>
      <trkpt lat="43.74469" lon="7.07973">
        <ele>687.3</ele>
        <time>2022-09-21T11:42:56.000Z</time>
      </trkpt>
      <trkpt lat="43.74472" lon="7.07969">
        <ele>687.8</ele>
        <time>2022-09-21T11:42:59.000Z</time>
      </trkpt>
      <trkpt lat="43.74477" lon="7.07965">
        <ele>688.1</ele>
        <time>2022-09-21T11:43:03.000Z</time>
      </trkpt>
      <trkpt lat="43.74482" lon="7.07963">
        <ele>688.9</ele>
        <time>2022-09-21T11:43:06.000Z</time>
      </trkpt>
      <trkpt lat="43.74486" lon="7.0796">
        <ele>688.9</ele>
        <time>2022-09-21T11:43:08.000Z</time>
      </trkpt>
      <trkpt lat="43.7449" lon="7.07957">
        <ele>689.3</ele>
        <time>2022-09-21T11:43:11.000Z</time>
      </trkpt>
      <trkpt lat="43.74494" lon="7.07953">
        <ele>689.3</ele>
        <time>2022-09-21T11:43:14.000Z</time>
      </trkpt>
      <trkpt lat="43.745" lon="7.07948">
        <ele>689.7</ele>
        <time>2022-09-21T11:43:17.000Z</time>
      </trkpt>
      <trkpt lat="43.74504" lon="7.07945">
        <ele>689.9</ele>
        <time>2022-09-21T11:43:19.000Z</time>
      </trkpt>
      <trkpt lat="43.74508" lon="7.07941">
        <ele>689.9</ele>
        <time>2022-09-21T11:43:21.000Z</time>
      </trkpt>
      <trkpt lat="43.74513" lon="7.07936">
        <ele>690.1</ele>
        <time>2022-09-21T11:43:24.000Z</time>
      </trkpt>
      <trkpt lat="43.74518" lon="7.07933">
        <ele>690.1</ele>
        <time>2022-09-21T11:43:26.000Z</time>
      </trkpt>
      <trkpt lat="43.74522" lon="7.07929">
        <ele>690.2</ele>
        <time>2022-09-21T11:43:28.000Z</time>
      </trkpt>
      <trkpt lat="43.74524" lon="7.07924">
        <ele>689.8</ele>
        <time>2022-09-21T11:43:30.000Z</time>
      </trkpt>
      <trkpt lat="43.74527" lon="7.07918">
        <ele>690.3</ele>
        <time>2022-09-21T11:43:32.000Z</time>
      </trkpt>
      <trkpt lat="43.74532" lon="7.0791">
        <ele>690</ele>
        <time>2022-09-21T11:43:35.000Z</time>
      </trkpt>
      <trkpt lat="43.74536" lon="7.07906">
        <ele>689.6</ele>
        <time>2022-09-21T11:43:37.000Z</time>
      </trkpt>
      <trkpt lat="43.7454" lon="7.07901">
        <ele>689.7</ele>
        <time>2022-09-21T11:43:39.000Z</time>
      </trkpt>
      <trkpt lat="43.74544" lon="7.07896">
        <ele>689.6</ele>
        <time>2022-09-21T11:43:42.000Z</time>
      </trkpt>
      <trkpt lat="43.7455" lon="7.07895">
        <ele>689.6</ele>
        <time>2022-09-21T11:43:45.000Z</time>
      </trkpt>
      <trkpt lat="43.74556" lon="7.07892">
        <ele>689.8</ele>
        <time>2022-09-21T11:43:48.000Z</time>
      </trkpt>
      <trkpt lat="43.74561" lon="7.07885">
        <ele>690</ele>
        <time>2022-09-21T11:43:51.000Z</time>
      </trkpt>
      <trkpt lat="43.74565" lon="7.07881">
        <ele>690.4</ele>
        <time>2022-09-21T11:43:53.000Z</time>
      </trkpt>
      <trkpt lat="43.7457" lon="7.07879">
        <ele>690.6</ele>
        <time>2022-09-21T11:43:55.000Z</time>
      </trkpt>
      <trkpt lat="43.74574" lon="7.07876">
        <ele>690.8</ele>
        <time>2022-09-21T11:43:57.000Z</time>
      </trkpt>
      <trkpt lat="43.7458" lon="7.07873">
        <ele>691.5</ele>
        <time>2022-09-21T11:44:00.000Z</time>
      </trkpt>
      <trkpt lat="43.74585" lon="7.07868">
        <ele>691.8</ele>
        <time>2022-09-21T11:44:03.000Z</time>
      </trkpt>
      <trkpt lat="43.74591" lon="7.0787">
        <ele>692.5</ele>
        <time>2022-09-21T11:44:06.000Z</time>
      </trkpt>
      <trkpt lat="43.74595" lon="7.07873">
        <ele>692.7</ele>
        <time>2022-09-21T11:44:08.000Z</time>
      </trkpt>
      <trkpt lat="43.74601" lon="7.07874">
        <ele>692.9</ele>
        <time>2022-09-21T11:44:11.000Z</time>
      </trkpt>
      <trkpt lat="43.74608" lon="7.07873">
        <ele>693.8</ele>
        <time>2022-09-21T11:44:15.000Z</time>
      </trkpt>
      <trkpt lat="43.74613" lon="7.0787">
        <ele>694.8</ele>
        <time>2022-09-21T11:44:18.000Z</time>
      </trkpt>
      <trkpt lat="43.74618" lon="7.07868">
        <ele>695.2</ele>
        <time>2022-09-21T11:44:21.000Z</time>
      </trkpt>
      <trkpt lat="43.74624" lon="7.07869">
        <ele>695.7</ele>
        <time>2022-09-21T11:44:24.000Z</time>
      </trkpt>
      <trkpt lat="43.74629" lon="7.07868">
        <ele>696.7</ele>
        <time>2022-09-21T11:44:28.000Z</time>
      </trkpt>
      <trkpt lat="43.74633" lon="7.07864">
        <ele>696.8</ele>
        <time>2022-09-21T11:44:31.000Z</time>
      </trkpt>
      <trkpt lat="43.74637" lon="7.0786">
        <ele>697.1</ele>
        <time>2022-09-21T11:44:34.000Z</time>
      </trkpt>
      <trkpt lat="43.74643" lon="7.07856">
        <ele>697.5</ele>
        <time>2022-09-21T11:44:37.000Z</time>
      </trkpt>
      <trkpt lat="43.74648" lon="7.07854">
        <ele>698</ele>
        <time>2022-09-21T11:44:40.000Z</time>
      </trkpt>
      <trkpt lat="43.74652" lon="7.0785">
        <ele>698.3</ele>
        <time>2022-09-21T11:44:43.000Z</time>
      </trkpt>
      <trkpt lat="43.74656" lon="7.07846">
        <ele>698.7</ele>
        <time>2022-09-21T11:44:46.000Z</time>
      </trkpt>
      <trkpt lat="43.74661" lon="7.07845">
        <ele>699.1</ele>
        <time>2022-09-21T11:44:50.000Z</time>
      </trkpt>
      <trkpt lat="43.74666" lon="7.07845">
        <ele>699.9</ele>
        <time>2022-09-21T11:44:53.000Z</time>
      </trkpt>
      <trkpt lat="43.74671" lon="7.07844">
        <ele>700.1</ele>
        <time>2022-09-21T11:44:56.000Z</time>
      </trkpt>
      <trkpt lat="43.74676" lon="7.07843">
        <ele>700.8</ele>
        <time>2022-09-21T11:44:59.000Z</time>
      </trkpt>
      <trkpt lat="43.74682" lon="7.07843">
        <ele>701</ele>
        <time>2022-09-21T11:45:03.000Z</time>
      </trkpt>
      <trkpt lat="43.74687" lon="7.07842">
        <ele>701.7</ele>
        <time>2022-09-21T11:45:07.000Z</time>
      </trkpt>
      <trkpt lat="43.74691" lon="7.07841">
        <ele>702.4</ele>
        <time>2022-09-21T11:45:10.000Z</time>
      </trkpt>
      <trkpt lat="43.74697" lon="7.07841">
        <ele>703.5</ele>
        <time>2022-09-21T11:45:15.000Z</time>
      </trkpt>
      <trkpt lat="43.74698" lon="7.07842">
        <ele>703.8</ele>
        <time>2022-09-21T11:45:21.000Z</time>
      </trkpt>
      <trkpt lat="43.74698" lon="7.07842">
        <ele>703.8</ele>
        <time>2022-09-21T11:45:25.000Z</time>
      </trkpt>
      <trkpt lat="43.74698" lon="7.07842">
        <ele>703.9</ele>
        <time>2022-09-21T11:45:26.000Z</time>
      </trkpt>
      <trkpt lat="43.74698" lon="7.07842">
        <ele>703.7</ele>
        <time>2022-09-21T11:45:32.000Z</time>
      </trkpt>
      <trkpt lat="43.74702" lon="7.07839">
        <ele>704</ele>
        <time>2022-09-21T11:45:45.000Z</time>
      </trkpt>
      <trkpt lat="43.74702" lon="7.07839">
        <ele>704.3</ele>
        <time>2022-09-21T11:45:47.000Z</time>
      </trkpt>
      <trkpt lat="43.74702" lon="7.07839">
        <ele>704.1</ele>
        <time>2022-09-21T11:45:48.000Z</time>
      </trkpt>
      <trkpt lat="43.74702" lon="7.0784">
        <ele>704.1</ele>
        <time>2022-09-21T11:45:51.000Z</time>
      </trkpt>
      <trkpt lat="43.74702" lon="7.0784">
        <ele>703.9</ele>
        <time>2022-09-21T11:45:57.000Z</time>
      </trkpt>
      <trkpt lat="43.74706" lon="7.07841">
        <ele>703.8</ele>
        <time>2022-09-21T11:46:01.000Z</time>
      </trkpt>
      <trkpt lat="43.74711" lon="7.0784">
        <ele>704.8</ele>
        <time>2022-09-21T11:46:05.000Z</time>
      </trkpt>
      <trkpt lat="43.74717" lon="7.07841">
        <ele>705.3</ele>
        <time>2022-09-21T11:46:09.000Z</time>
      </trkpt>
      <trkpt lat="43.74722" lon="7.0784">
        <ele>705.5</ele>
        <time>2022-09-21T11:46:12.000Z</time>
      </trkpt>
      <trkpt lat="43.74727" lon="7.07841">
        <ele>705.9</ele>
        <time>2022-09-21T11:46:15.000Z</time>
      </trkpt>
      <trkpt lat="43.74732" lon="7.0784">
        <ele>706.2</ele>
        <time>2022-09-21T11:46:18.000Z</time>
      </trkpt>
      <trkpt lat="43.74738" lon="7.0784">
        <ele>706.6</ele>
        <time>2022-09-21T11:46:21.000Z</time>
      </trkpt>
      <trkpt lat="43.74743" lon="7.0784">
        <ele>706.7</ele>
        <time>2022-09-21T11:46:24.000Z</time>
      </trkpt>
      <trkpt lat="43.74748" lon="7.07841">
        <ele>707</ele>
        <time>2022-09-21T11:46:27.000Z</time>
      </trkpt>
      <trkpt lat="43.74753" lon="7.07841">
        <ele>707.4</ele>
        <time>2022-09-21T11:46:30.000Z</time>
      </trkpt>
      <trkpt lat="43.74759" lon="7.07842">
        <ele>707.5</ele>
        <time>2022-09-21T11:46:33.000Z</time>
      </trkpt>
      <trkpt lat="43.74763" lon="7.07843">
        <ele>708.2</ele>
        <time>2022-09-21T11:46:36.000Z</time>
      </trkpt>
      <trkpt lat="43.74769" lon="7.07845">
        <ele>708.6</ele>
        <time>2022-09-21T11:46:40.000Z</time>
      </trkpt>
      <trkpt lat="43.74774" lon="7.07846">
        <ele>709</ele>
        <time>2022-09-21T11:46:43.000Z</time>
      </trkpt>
      <trkpt lat="43.7478" lon="7.07847">
        <ele>709.2</ele>
        <time>2022-09-21T11:46:47.000Z</time>
      </trkpt>
      <trkpt lat="43.74785" lon="7.07847">
        <ele>709.2</ele>
        <time>2022-09-21T11:46:50.000Z</time>
      </trkpt>
      <trkpt lat="43.74789" lon="7.07848">
        <ele>709.7</ele>
        <time>2022-09-21T11:46:53.000Z</time>
      </trkpt>
      <trkpt lat="43.74794" lon="7.07849">
        <ele>709.6</ele>
        <time>2022-09-21T11:46:56.000Z</time>
      </trkpt>
      <trkpt lat="43.748" lon="7.07851">
        <ele>710.1</ele>
        <time>2022-09-21T11:46:59.000Z</time>
      </trkpt>
      <trkpt lat="43.74806" lon="7.07852">
        <ele>710.5</ele>
        <time>2022-09-21T11:47:02.000Z</time>
      </trkpt>
      <trkpt lat="43.7481" lon="7.07855">
        <ele>711.6</ele>
        <time>2022-09-21T11:47:06.000Z</time>
      </trkpt>
      <trkpt lat="43.74815" lon="7.07856">
        <ele>712.1</ele>
        <time>2022-09-21T11:47:10.000Z</time>
      </trkpt>
      <trkpt lat="43.7482" lon="7.07855">
        <ele>712.5</ele>
        <time>2022-09-21T11:47:13.000Z</time>
      </trkpt>
      <trkpt lat="43.74825" lon="7.07853">
        <ele>712.8</ele>
        <time>2022-09-21T11:47:16.000Z</time>
      </trkpt>
      <trkpt lat="43.7483" lon="7.0785">
        <ele>713.2</ele>
        <time>2022-09-21T11:47:19.000Z</time>
      </trkpt>
      <trkpt lat="43.74835" lon="7.07846">
        <ele>713.4</ele>
        <time>2022-09-21T11:47:22.000Z</time>
      </trkpt>
      <trkpt lat="43.74839" lon="7.07842">
        <ele>714</ele>
        <time>2022-09-21T11:47:25.000Z</time>
      </trkpt>
      <trkpt lat="43.74844" lon="7.07837">
        <ele>714.5</ele>
        <time>2022-09-21T11:47:28.000Z</time>
      </trkpt>
      <trkpt lat="43.74849" lon="7.07833">
        <ele>714.9</ele>
        <time>2022-09-21T11:47:32.000Z</time>
      </trkpt>
      <trkpt lat="43.74854" lon="7.07829">
        <ele>715.4</ele>
        <time>2022-09-21T11:47:36.000Z</time>
      </trkpt>
      <trkpt lat="43.74858" lon="7.07826">
        <ele>715.9</ele>
        <time>2022-09-21T11:47:39.000Z</time>
      </trkpt>
      <trkpt lat="43.74863" lon="7.07823">
        <ele>716.5</ele>
        <time>2022-09-21T11:47:43.000Z</time>
      </trkpt>
      <trkpt lat="43.74868" lon="7.07821">
        <ele>716.8</ele>
        <time>2022-09-21T11:47:46.000Z</time>
      </trkpt>
      <trkpt lat="43.74872" lon="7.07819">
        <ele>717.5</ele>
        <time>2022-09-21T11:47:50.000Z</time>
      </trkpt>
      <trkpt lat="43.74877" lon="7.07817">
        <ele>717.6</ele>
        <time>2022-09-21T11:47:53.000Z</time>
      </trkpt>
      <trkpt lat="43.74881" lon="7.07814">
        <ele>717.7</ele>
        <time>2022-09-21T11:47:56.000Z</time>
      </trkpt>
      <trkpt lat="43.74887" lon="7.0781">
        <ele>717.9</ele>
        <time>2022-09-21T11:47:59.000Z</time>
      </trkpt>
      <trkpt lat="43.74893" lon="7.07807">
        <ele>718.1</ele>
        <time>2022-09-21T11:48:02.000Z</time>
      </trkpt>
      <trkpt lat="43.74899" lon="7.07804">
        <ele>718.4</ele>
        <time>2022-09-21T11:48:05.000Z</time>
      </trkpt>
      <trkpt lat="43.74903" lon="7.07802">
        <ele>718.5</ele>
        <time>2022-09-21T11:48:07.000Z</time>
      </trkpt>
      <trkpt lat="43.74909" lon="7.07799">
        <ele>718.9</ele>
        <time>2022-09-21T11:48:10.000Z</time>
      </trkpt>
      <trkpt lat="43.74914" lon="7.07796">
        <ele>719.2</ele>
        <time>2022-09-21T11:48:13.000Z</time>
      </trkpt>
      <trkpt lat="43.74919" lon="7.07793">
        <ele>719.4</ele>
        <time>2022-09-21T11:48:16.000Z</time>
      </trkpt>
      <trkpt lat="43.74924" lon="7.07792">
        <ele>719.7</ele>
        <time>2022-09-21T11:48:19.000Z</time>
      </trkpt>
      <trkpt lat="43.74929" lon="7.07789">
        <ele>719.7</ele>
        <time>2022-09-21T11:48:22.000Z</time>
      </trkpt>
      <trkpt lat="43.74934" lon="7.07786">
        <ele>719.9</ele>
        <time>2022-09-21T11:48:25.000Z</time>
      </trkpt>
      <trkpt lat="43.74939" lon="7.07785">
        <ele>720.3</ele>
        <time>2022-09-21T11:48:28.000Z</time>
      </trkpt>
      <trkpt lat="43.74944" lon="7.07782">
        <ele>720.2</ele>
        <time>2022-09-21T11:48:32.000Z</time>
      </trkpt>
      <trkpt lat="43.74949" lon="7.07781">
        <ele>721.3</ele>
        <time>2022-09-21T11:48:36.000Z</time>
      </trkpt>
      <trkpt lat="43.74954" lon="7.07779">
        <ele>721.4</ele>
        <time>2022-09-21T11:48:39.000Z</time>
      </trkpt>
      <trkpt lat="43.74959" lon="7.07777">
        <ele>722.1</ele>
        <time>2022-09-21T11:48:42.000Z</time>
      </trkpt>
      <trkpt lat="43.74964" lon="7.07775">
        <ele>722.3</ele>
        <time>2022-09-21T11:48:45.000Z</time>
      </trkpt>
      <trkpt lat="43.74968" lon="7.07773">
        <ele>723</ele>
        <time>2022-09-21T11:48:49.000Z</time>
      </trkpt>
      <trkpt lat="43.74974" lon="7.07773">
        <ele>723.4</ele>
        <time>2022-09-21T11:48:53.000Z</time>
      </trkpt>
      <trkpt lat="43.74977" lon="7.07773">
        <ele>724.4</ele>
        <time>2022-09-21T11:49:01.000Z</time>
      </trkpt>
      <trkpt lat="43.74977" lon="7.07774">
        <ele>724.5</ele>
        <time>2022-09-21T11:49:05.000Z</time>
      </trkpt>
      <trkpt lat="43.74977" lon="7.07774">
        <ele>724.5</ele>
        <time>2022-09-21T11:49:07.000Z</time>
      </trkpt>
      <trkpt lat="43.74977" lon="7.07774">
        <ele>724.5</ele>
        <time>2022-09-21T11:49:15.000Z</time>
      </trkpt>
      <trkpt lat="43.74977" lon="7.07774">
        <ele>724.6</ele>
        <time>2022-09-21T11:49:16.000Z</time>
      </trkpt>
      <trkpt lat="43.74976" lon="7.07774">
        <ele>724.3</ele>
        <time>2022-09-21T11:49:20.000Z</time>
      </trkpt>
      <trkpt lat="43.74976" lon="7.07774">
        <ele>724.4</ele>
        <time>2022-09-21T11:49:21.000Z</time>
      </trkpt>
      <trkpt lat="43.74977" lon="7.07774">
        <ele>724.6</ele>
        <time>2022-09-21T11:49:23.000Z</time>
      </trkpt>
      <trkpt lat="43.74977" lon="7.07774">
        <ele>724.7</ele>
        <time>2022-09-21T11:49:25.000Z</time>
      </trkpt>
      <trkpt lat="43.74976" lon="7.07774">
        <ele>724.6</ele>
        <time>2022-09-21T11:49:28.000Z</time>
      </trkpt>
      <trkpt lat="43.74976" lon="7.07774">
        <ele>724.6</ele>
        <time>2022-09-21T11:49:29.000Z</time>
      </trkpt>
      <trkpt lat="43.74977" lon="7.07775">
        <ele>724.8</ele>
        <time>2022-09-21T11:49:30.000Z</time>
      </trkpt>
      <trkpt lat="43.74976" lon="7.07775">
        <ele>724.6</ele>
        <time>2022-09-21T11:49:32.000Z</time>
      </trkpt>
      <trkpt lat="43.74976" lon="7.07775">
        <ele>724.5</ele>
        <time>2022-09-21T11:49:33.000Z</time>
      </trkpt>
      <trkpt lat="43.74976" lon="7.07775">
        <ele>724.6</ele>
        <time>2022-09-21T11:49:39.000Z</time>
      </trkpt>
      <trkpt lat="43.74976" lon="7.07775">
        <ele>724.5</ele>
        <time>2022-09-21T11:49:41.000Z</time>
      </trkpt>
      <trkpt lat="43.74982" lon="7.07776">
        <ele>725</ele>
        <time>2022-09-21T11:49:46.000Z</time>
      </trkpt>
      <trkpt lat="43.74986" lon="7.07777">
        <ele>726</ele>
        <time>2022-09-21T11:49:50.000Z</time>
      </trkpt>
      <trkpt lat="43.74991" lon="7.07779">
        <ele>727</ele>
        <time>2022-09-21T11:49:53.000Z</time>
      </trkpt>
      <trkpt lat="43.74995" lon="7.07781">
        <ele>727.7</ele>
        <time>2022-09-21T11:49:56.000Z</time>
      </trkpt>
      <trkpt lat="43.75001" lon="7.07781">
        <ele>728.6</ele>
        <time>2022-09-21T11:50:00.000Z</time>
      </trkpt>
      <trkpt lat="43.75006" lon="7.0778">
        <ele>729.3</ele>
        <time>2022-09-21T11:50:04.000Z</time>
      </trkpt>
      <trkpt lat="43.75006" lon="7.07783">
        <ele>729</ele>
        <time>2022-09-21T11:50:09.000Z</time>
      </trkpt>
      <trkpt lat="43.75006" lon="7.07784">
        <ele>729.1</ele>
        <time>2022-09-21T11:50:17.000Z</time>
      </trkpt>
      <trkpt lat="43.75011" lon="7.07785">
        <ele>729.6</ele>
        <time>2022-09-21T11:50:23.000Z</time>
      </trkpt>
      <trkpt lat="43.75016" lon="7.07787">
        <ele>730.7</ele>
        <time>2022-09-21T11:50:27.000Z</time>
      </trkpt>
      <trkpt lat="43.75022" lon="7.07789">
        <ele>730.8</ele>
        <time>2022-09-21T11:50:31.000Z</time>
      </trkpt>
      <trkpt lat="43.75028" lon="7.07791">
        <ele>731.7</ele>
        <time>2022-09-21T11:50:35.000Z</time>
      </trkpt>
      <trkpt lat="43.75033" lon="7.07793">
        <ele>731.6</ele>
        <time>2022-09-21T11:50:38.000Z</time>
      </trkpt>
      <trkpt lat="43.75038" lon="7.07794">
        <ele>732.2</ele>
        <time>2022-09-21T11:50:41.000Z</time>
      </trkpt>
      <trkpt lat="43.75043" lon="7.07795">
        <ele>732.4</ele>
        <time>2022-09-21T11:50:44.000Z</time>
      </trkpt>
      <trkpt lat="43.75048" lon="7.07796">
        <ele>732.6</ele>
        <time>2022-09-21T11:50:47.000Z</time>
      </trkpt>
      <trkpt lat="43.75054" lon="7.07795">
        <ele>733.2</ele>
        <time>2022-09-21T11:50:50.000Z</time>
      </trkpt>
      <trkpt lat="43.7506" lon="7.07793">
        <ele>733.2</ele>
        <time>2022-09-21T11:50:54.000Z</time>
      </trkpt>
      <trkpt lat="43.75065" lon="7.0779">
        <ele>733.6</ele>
        <time>2022-09-21T11:50:57.000Z</time>
      </trkpt>
      <trkpt lat="43.7507" lon="7.07788">
        <ele>734.1</ele>
        <time>2022-09-21T11:51:00.000Z</time>
      </trkpt>
      <trkpt lat="43.75076" lon="7.07785">
        <ele>734.5</ele>
        <time>2022-09-21T11:51:04.000Z</time>
      </trkpt>
      <trkpt lat="43.7508" lon="7.07783">
        <ele>734.9</ele>
        <time>2022-09-21T11:51:07.000Z</time>
      </trkpt>
      <trkpt lat="43.75085" lon="7.0778">
        <ele>735.5</ele>
        <time>2022-09-21T11:51:10.000Z</time>
      </trkpt>
      <trkpt lat="43.7509" lon="7.07781">
        <ele>736.5</ele>
        <time>2022-09-21T11:51:14.000Z</time>
      </trkpt>
      <trkpt lat="43.75095" lon="7.07782">
        <ele>737.3</ele>
        <time>2022-09-21T11:51:18.000Z</time>
      </trkpt>
      <trkpt lat="43.751" lon="7.07785">
        <ele>738.2</ele>
        <time>2022-09-21T11:51:23.000Z</time>
      </trkpt>
      <trkpt lat="43.75105" lon="7.07788">
        <ele>738.9</ele>
        <time>2022-09-21T11:51:27.000Z</time>
      </trkpt>
      <trkpt lat="43.75109" lon="7.07792">
        <ele>739.8</ele>
        <time>2022-09-21T11:51:33.000Z</time>
      </trkpt>
      <trkpt lat="43.75111" lon="7.07794">
        <ele>740.3</ele>
        <time>2022-09-21T11:51:40.000Z</time>
      </trkpt>
      <trkpt lat="43.75111" lon="7.07795">
        <ele>740.3</ele>
        <time>2022-09-21T11:51:43.000Z</time>
      </trkpt>
      <trkpt lat="43.75116" lon="7.07798">
        <ele>741.3</ele>
        <time>2022-09-21T11:51:48.000Z</time>
      </trkpt>
      <trkpt lat="43.7512" lon="7.078">
        <ele>741.7</ele>
        <time>2022-09-21T11:51:52.000Z</time>
      </trkpt>
      <trkpt lat="43.75124" lon="7.07804">
        <ele>742.8</ele>
        <time>2022-09-21T11:51:58.000Z</time>
      </trkpt>
      <trkpt lat="43.75129" lon="7.07805">
        <ele>743.8</ele>
        <time>2022-09-21T11:52:04.000Z</time>
      </trkpt>
      <trkpt lat="43.75134" lon="7.07807">
        <ele>744.9</ele>
        <time>2022-09-21T11:52:11.000Z</time>
      </trkpt>
      <trkpt lat="43.75139" lon="7.07807">
        <ele>745.6</ele>
        <time>2022-09-21T11:52:17.000Z</time>
      </trkpt>
      <trkpt lat="43.75143" lon="7.07809">
        <ele>746.6</ele>
        <time>2022-09-21T11:52:22.000Z</time>
      </trkpt>
      <trkpt lat="43.75148" lon="7.07809">
        <ele>747.2</ele>
        <time>2022-09-21T11:52:27.000Z</time>
      </trkpt>
      <trkpt lat="43.75153" lon="7.07809">
        <ele>747.3</ele>
        <time>2022-09-21T11:52:32.000Z</time>
      </trkpt>
      <trkpt lat="43.75158" lon="7.07811">
        <ele>748.1</ele>
        <time>2022-09-21T11:52:37.000Z</time>
      </trkpt>
      <trkpt lat="43.75163" lon="7.07815">
        <ele>748.7</ele>
        <time>2022-09-21T11:52:43.000Z</time>
      </trkpt>
      <trkpt lat="43.75167" lon="7.07817">
        <ele>749.9</ele>
        <time>2022-09-21T11:52:48.000Z</time>
      </trkpt>
      <trkpt lat="43.75172" lon="7.07819">
        <ele>750.7</ele>
        <time>2022-09-21T11:52:54.000Z</time>
      </trkpt>
      <trkpt lat="43.75176" lon="7.0782">
        <ele>751.5</ele>
        <time>2022-09-21T11:52:59.000Z</time>
      </trkpt>
      <trkpt lat="43.75179" lon="7.07817">
        <ele>752.7</ele>
        <time>2022-09-21T11:53:11.000Z</time>
      </trkpt>
      <trkpt lat="43.75179" lon="7.07817">
        <ele>752.7</ele>
        <time>2022-09-21T11:53:18.000Z</time>
      </trkpt>
      <trkpt lat="43.75179" lon="7.07816">
        <ele>752.5</ele>
        <time>2022-09-21T11:53:20.000Z</time>
      </trkpt>
      <trkpt lat="43.75179" lon="7.07816">
        <ele>753</ele>
        <time>2022-09-21T11:53:27.000Z</time>
      </trkpt>
      <trkpt lat="43.75184" lon="7.07816">
        <ele>753.8</ele>
        <time>2022-09-21T11:53:33.000Z</time>
      </trkpt>
      <trkpt lat="43.75189" lon="7.07817">
        <ele>754.6</ele>
        <time>2022-09-21T11:53:37.000Z</time>
      </trkpt>
      <trkpt lat="43.75194" lon="7.0782">
        <ele>755.6</ele>
        <time>2022-09-21T11:53:44.000Z</time>
      </trkpt>
      <trkpt lat="43.75198" lon="7.07822">
        <ele>756.6</ele>
        <time>2022-09-21T11:53:49.000Z</time>
      </trkpt>
      <trkpt lat="43.75203" lon="7.07826">
        <ele>757.6</ele>
        <time>2022-09-21T11:53:55.000Z</time>
      </trkpt>
      <trkpt lat="43.75208" lon="7.0783">
        <ele>757.7</ele>
        <time>2022-09-21T11:53:59.000Z</time>
      </trkpt>
      <trkpt lat="43.75212" lon="7.07834">
        <ele>758.7</ele>
        <time>2022-09-21T11:54:04.000Z</time>
      </trkpt>
      <trkpt lat="43.75217" lon="7.07837">
        <ele>759.5</ele>
        <time>2022-09-21T11:54:10.000Z</time>
      </trkpt>
      <trkpt lat="43.75221" lon="7.07839">
        <ele>760.5</ele>
        <time>2022-09-21T11:54:14.000Z</time>
      </trkpt>
      <trkpt lat="43.75225" lon="7.07841">
        <ele>761.3</ele>
        <time>2022-09-21T11:54:19.000Z</time>
      </trkpt>
      <trkpt lat="43.7523" lon="7.07843">
        <ele>762.5</ele>
        <time>2022-09-21T11:54:26.000Z</time>
      </trkpt>
      <trkpt lat="43.75235" lon="7.07846">
        <ele>762.9</ele>
        <time>2022-09-21T11:54:31.000Z</time>
      </trkpt>
      <trkpt lat="43.75239" lon="7.0785">
        <ele>763.8</ele>
        <time>2022-09-21T11:54:37.000Z</time>
      </trkpt>
      <trkpt lat="43.75244" lon="7.07853">
        <ele>764.7</ele>
        <time>2022-09-21T11:54:43.000Z</time>
      </trkpt>
      <trkpt lat="43.75241" lon="7.07858">
        <ele>765.6</ele>
        <time>2022-09-21T11:54:50.000Z</time>
      </trkpt>
      <trkpt lat="43.7524" lon="7.07858">
        <ele>766.5</ele>
        <time>2022-09-21T11:54:54.000Z</time>
      </trkpt>
      <trkpt lat="43.75241" lon="7.07858">
        <ele>766.6</ele>
        <time>2022-09-21T11:54:55.000Z</time>
      </trkpt>
      <trkpt lat="43.7524" lon="7.07858">
        <ele>766.8</ele>
        <time>2022-09-21T11:54:57.000Z</time>
      </trkpt>
      <trkpt lat="43.75241" lon="7.07858">
        <ele>766.5</ele>
        <time>2022-09-21T11:55:00.000Z</time>
      </trkpt>
      <trkpt lat="43.75241" lon="7.07858">
        <ele>766.3</ele>
        <time>2022-09-21T11:55:02.000Z</time>
      </trkpt>
      <trkpt lat="43.75241" lon="7.07858">
        <ele>766.3</ele>
        <time>2022-09-21T11:55:03.000Z</time>
      </trkpt>
      <trkpt lat="43.75241" lon="7.07858">
        <ele>766.4</ele>
        <time>2022-09-21T11:55:06.000Z</time>
      </trkpt>
      <trkpt lat="43.75241" lon="7.07858">
        <ele>766.4</ele>
        <time>2022-09-21T11:55:10.000Z</time>
      </trkpt>
      <trkpt lat="43.75241" lon="7.07858">
        <ele>766.3</ele>
        <time>2022-09-21T11:55:12.000Z</time>
      </trkpt>
      <trkpt lat="43.75241" lon="7.07858">
        <ele>766.4</ele>
        <time>2022-09-21T11:55:13.000Z</time>
      </trkpt>
      <trkpt lat="43.75241" lon="7.07858">
        <ele>766.5</ele>
        <time>2022-09-21T11:55:14.000Z</time>
      </trkpt>
      <trkpt lat="43.75241" lon="7.07858">
        <ele>766.1</ele>
        <time>2022-09-21T11:55:24.000Z</time>
      </trkpt>
      <trkpt lat="43.75241" lon="7.07858">
        <ele>766.1</ele>
        <time>2022-09-21T11:55:25.000Z</time>
      </trkpt>
      <trkpt lat="43.75241" lon="7.07857">
        <ele>766.1</ele>
        <time>2022-09-21T11:55:27.000Z</time>
      </trkpt>
      <trkpt lat="43.75241" lon="7.07857">
        <ele>766</ele>
        <time>2022-09-21T11:55:28.000Z</time>
      </trkpt>
      <trkpt lat="43.7524" lon="7.07858">
        <ele>766.3</ele>
        <time>2022-09-21T11:55:31.000Z</time>
      </trkpt>
      <trkpt lat="43.75236" lon="7.07861">
        <ele>766.9</ele>
        <time>2022-09-21T11:55:35.000Z</time>
      </trkpt>
      <trkpt lat="43.75232" lon="7.07864">
        <ele>767.9</ele>
        <time>2022-09-21T11:55:41.000Z</time>
      </trkpt>
      <trkpt lat="43.75232" lon="7.07864">
        <ele>767.8</ele>
        <time>2022-09-21T11:55:42.000Z</time>
      </trkpt>
      <trkpt lat="43.75232" lon="7.07864">
        <ele>767.9</ele>
        <time>2022-09-21T11:55:43.000Z</time>
      </trkpt>
      <trkpt lat="43.75232" lon="7.07864">
        <ele>767.8</ele>
        <time>2022-09-21T11:55:44.000Z</time>
      </trkpt>
      <trkpt lat="43.75231" lon="7.07865">
        <ele>767.6</ele>
        <time>2022-09-21T11:55:46.000Z</time>
      </trkpt>
      <trkpt lat="43.75227" lon="7.0787">
        <ele>769.3</ele>
        <time>2022-09-21T11:55:51.000Z</time>
      </trkpt>
      <trkpt lat="43.75225" lon="7.07875">
        <ele>769.1</ele>
        <time>2022-09-21T11:55:54.000Z</time>
      </trkpt>
      <trkpt lat="43.75222" lon="7.07881">
        <ele>769.5</ele>
        <time>2022-09-21T11:55:57.000Z</time>
      </trkpt>
      <trkpt lat="43.7522" lon="7.07888">
        <ele>770.1</ele>
        <time>2022-09-21T11:56:01.000Z</time>
      </trkpt>
      <trkpt lat="43.75218" lon="7.07894">
        <ele>770.7</ele>
        <time>2022-09-21T11:56:04.000Z</time>
      </trkpt>
      <trkpt lat="43.75216" lon="7.07902">
        <ele>771</ele>
        <time>2022-09-21T11:56:08.000Z</time>
      </trkpt>
      <trkpt lat="43.75213" lon="7.07908">
        <ele>771.7</ele>
        <time>2022-09-21T11:56:12.000Z</time>
      </trkpt>
      <trkpt lat="43.75211" lon="7.07914">
        <ele>771.9</ele>
        <time>2022-09-21T11:56:15.000Z</time>
      </trkpt>
      <trkpt lat="43.75209" lon="7.07921">
        <ele>772.5</ele>
        <time>2022-09-21T11:56:19.000Z</time>
      </trkpt>
      <trkpt lat="43.75205" lon="7.07925">
        <ele>773.2</ele>
        <time>2022-09-21T11:56:23.000Z</time>
      </trkpt>
      <trkpt lat="43.75199" lon="7.07927">
        <ele>773.5</ele>
        <time>2022-09-21T11:56:27.000Z</time>
      </trkpt>
      <trkpt lat="43.75196" lon="7.07931">
        <ele>773.7</ele>
        <time>2022-09-21T11:56:30.000Z</time>
      </trkpt>
      <trkpt lat="43.75192" lon="7.07936">
        <ele>774.4</ele>
        <time>2022-09-21T11:56:33.000Z</time>
      </trkpt>
      <trkpt lat="43.75189" lon="7.07941">
        <ele>774.9</ele>
        <time>2022-09-21T11:56:36.000Z</time>
      </trkpt>
      <trkpt lat="43.75186" lon="7.07947">
        <ele>775.8</ele>
        <time>2022-09-21T11:56:40.000Z</time>
      </trkpt>
      <trkpt lat="43.75185" lon="7.07954">
        <ele>776.7</ele>
        <time>2022-09-21T11:56:43.000Z</time>
      </trkpt>
      <trkpt lat="43.75189" lon="7.07959">
        <ele>777.5</ele>
        <time>2022-09-21T11:56:47.000Z</time>
      </trkpt>
      <trkpt lat="43.75194" lon="7.07959">
        <ele>778.4</ele>
        <time>2022-09-21T11:56:57.000Z</time>
      </trkpt>
      <trkpt lat="43.75199" lon="7.0796">
        <ele>779</ele>
        <time>2022-09-21T11:57:03.000Z</time>
      </trkpt>
      <trkpt lat="43.75203" lon="7.07961">
        <ele>779.5</ele>
        <time>2022-09-21T11:57:07.000Z</time>
      </trkpt>
      <trkpt lat="43.75204" lon="7.07959">
        <ele>779.9</ele>
        <time>2022-09-21T11:57:13.000Z</time>
      </trkpt>
      <trkpt lat="43.75204" lon="7.07958">
        <ele>780</ele>
        <time>2022-09-21T11:57:19.000Z</time>
      </trkpt>
      <trkpt lat="43.75209" lon="7.07959">
        <ele>780.6</ele>
        <time>2022-09-21T11:57:24.000Z</time>
      </trkpt>
      <trkpt lat="43.75214" lon="7.07959">
        <ele>781.8</ele>
        <time>2022-09-21T11:57:28.000Z</time>
      </trkpt>
      <trkpt lat="43.75219" lon="7.0796">
        <ele>782.9</ele>
        <time>2022-09-21T11:57:33.000Z</time>
      </trkpt>
      <trkpt lat="43.75224" lon="7.07962">
        <ele>784</ele>
        <time>2022-09-21T11:57:37.000Z</time>
      </trkpt>
      <trkpt lat="43.75228" lon="7.07966">
        <ele>785</ele>
        <time>2022-09-21T11:57:41.000Z</time>
      </trkpt>
      <trkpt lat="43.7523" lon="7.07967">
        <ele>784.4</ele>
        <time>2022-09-21T11:57:48.000Z</time>
      </trkpt>
      <trkpt lat="43.75229" lon="7.07967">
        <ele>784.3</ele>
        <time>2022-09-21T11:57:49.000Z</time>
      </trkpt>
      <trkpt lat="43.75229" lon="7.07967">
        <ele>784.2</ele>
        <time>2022-09-21T11:57:50.000Z</time>
      </trkpt>
      <trkpt lat="43.7523" lon="7.07967">
        <ele>784.3</ele>
        <time>2022-09-21T11:57:51.000Z</time>
      </trkpt>
      <trkpt lat="43.7523" lon="7.07967">
        <ele>784.1</ele>
        <time>2022-09-21T11:57:54.000Z</time>
      </trkpt>
      <trkpt lat="43.7523" lon="7.07967">
        <ele>784.3</ele>
        <time>2022-09-21T11:57:59.000Z</time>
      </trkpt>
      <trkpt lat="43.7523" lon="7.07967">
        <ele>784.3</ele>
        <time>2022-09-21T11:58:00.000Z</time>
      </trkpt>
      <trkpt lat="43.7523" lon="7.07966">
        <ele>784.4</ele>
        <time>2022-09-21T11:58:01.000Z</time>
      </trkpt>
      <trkpt lat="43.7523" lon="7.07965">
        <ele>784.1</ele>
        <time>2022-09-21T11:58:05.000Z</time>
      </trkpt>
      <trkpt lat="43.7523" lon="7.07966">
        <ele>784.1</ele>
        <time>2022-09-21T11:58:07.000Z</time>
      </trkpt>
      <trkpt lat="43.75235" lon="7.0797">
        <ele>784.9</ele>
        <time>2022-09-21T11:58:12.000Z</time>
      </trkpt>
      <trkpt lat="43.75239" lon="7.07975">
        <ele>786.5</ele>
        <time>2022-09-21T11:58:17.000Z</time>
      </trkpt>
      <trkpt lat="43.75242" lon="7.0798">
        <ele>787.5</ele>
        <time>2022-09-21T11:58:21.000Z</time>
      </trkpt>
      <trkpt lat="43.75246" lon="7.07984">
        <ele>787.8</ele>
        <time>2022-09-21T11:58:25.000Z</time>
      </trkpt>
      <trkpt lat="43.75249" lon="7.07989">
        <ele>788.5</ele>
        <time>2022-09-21T11:58:29.000Z</time>
      </trkpt>
      <trkpt lat="43.75254" lon="7.07992">
        <ele>788.7</ele>
        <time>2022-09-21T11:58:33.000Z</time>
      </trkpt>
      <trkpt lat="43.75259" lon="7.07995">
        <ele>789.6</ele>
        <time>2022-09-21T11:58:37.000Z</time>
      </trkpt>
      <trkpt lat="43.75264" lon="7.07997">
        <ele>789.9</ele>
        <time>2022-09-21T11:58:41.000Z</time>
      </trkpt>
      <trkpt lat="43.75268" lon="7.08003">
        <ele>790.8</ele>
        <time>2022-09-21T11:58:46.000Z</time>
      </trkpt>
      <trkpt lat="43.75271" lon="7.08008">
        <ele>791.2</ele>
        <time>2022-09-21T11:58:49.000Z</time>
      </trkpt>
      <trkpt lat="43.75273" lon="7.08014">
        <ele>792.3</ele>
        <time>2022-09-21T11:58:53.000Z</time>
      </trkpt>
      <trkpt lat="43.75275" lon="7.0802">
        <ele>793</ele>
        <time>2022-09-21T11:58:58.000Z</time>
      </trkpt>
      <trkpt lat="43.75276" lon="7.08021">
        <ele>793.4</ele>
        <time>2022-09-21T11:59:01.000Z</time>
      </trkpt>
      <trkpt lat="43.75276" lon="7.08021">
        <ele>793.3</ele>
        <time>2022-09-21T11:59:02.000Z</time>
      </trkpt>
      <trkpt lat="43.75276" lon="7.08029">
        <ele>794.3</ele>
        <time>2022-09-21T11:59:09.000Z</time>
      </trkpt>
      <trkpt lat="43.75275" lon="7.08037">
        <ele>795</ele>
        <time>2022-09-21T11:59:13.000Z</time>
      </trkpt>
      <trkpt lat="43.75273" lon="7.08044">
        <ele>795.4</ele>
        <time>2022-09-21T11:59:17.000Z</time>
      </trkpt>
      <trkpt lat="43.75273" lon="7.08051">
        <ele>795.9</ele>
        <time>2022-09-21T11:59:21.000Z</time>
      </trkpt>
      <trkpt lat="43.75272" lon="7.08059">
        <ele>796.1</ele>
        <time>2022-09-21T11:59:25.000Z</time>
      </trkpt>
      <trkpt lat="43.75272" lon="7.08065">
        <ele>796.4</ele>
        <time>2022-09-21T11:59:29.000Z</time>
      </trkpt>
      <trkpt lat="43.75273" lon="7.08072">
        <ele>796.3</ele>
        <time>2022-09-21T11:59:32.000Z</time>
      </trkpt>
      <trkpt lat="43.75273" lon="7.08081">
        <ele>796.4</ele>
        <time>2022-09-21T11:59:35.000Z</time>
      </trkpt>
      <trkpt lat="43.75273" lon="7.08087">
        <ele>796.9</ele>
        <time>2022-09-21T11:59:37.000Z</time>
      </trkpt>
      <trkpt lat="43.75273" lon="7.08094">
        <ele>797</ele>
        <time>2022-09-21T11:59:39.000Z</time>
      </trkpt>
      <trkpt lat="43.75273" lon="7.08102">
        <ele>796.8</ele>
        <time>2022-09-21T11:59:42.000Z</time>
      </trkpt>
      <trkpt lat="43.75273" lon="7.08111">
        <ele>796.9</ele>
        <time>2022-09-21T11:59:45.000Z</time>
      </trkpt>
      <trkpt lat="43.75274" lon="7.08119">
        <ele>797.5</ele>
        <time>2022-09-21T11:59:48.000Z</time>
      </trkpt>
      <trkpt lat="43.75274" lon="7.08127">
        <ele>797.7</ele>
        <time>2022-09-21T11:59:51.000Z</time>
      </trkpt>
      <trkpt lat="43.75274" lon="7.08135">
        <ele>797.7</ele>
        <time>2022-09-21T11:59:54.000Z</time>
      </trkpt>
      <trkpt lat="43.75274" lon="7.08144">
        <ele>797.6</ele>
        <time>2022-09-21T11:59:57.000Z</time>
      </trkpt>
      <trkpt lat="43.75275" lon="7.0815">
        <ele>797.4</ele>
        <time>2022-09-21T11:59:59.000Z</time>
      </trkpt>
      <trkpt lat="43.75278" lon="7.08156">
        <ele>797.5</ele>
        <time>2022-09-21T12:00:01.000Z</time>
      </trkpt>
      <trkpt lat="43.75282" lon="7.08162">
        <ele>797.6</ele>
        <time>2022-09-21T12:00:04.000Z</time>
      </trkpt>
      <trkpt lat="43.75286" lon="7.08169">
        <ele>797.7</ele>
        <time>2022-09-21T12:00:07.000Z</time>
      </trkpt>
      <trkpt lat="43.75289" lon="7.08175">
        <ele>797.1</ele>
        <time>2022-09-21T12:00:09.000Z</time>
      </trkpt>
      <trkpt lat="43.75292" lon="7.08181">
        <ele>797.3</ele>
        <time>2022-09-21T12:00:11.000Z</time>
      </trkpt>
      <trkpt lat="43.75294" lon="7.08187">
        <ele>797.4</ele>
        <time>2022-09-21T12:00:13.000Z</time>
      </trkpt>
      <trkpt lat="43.75298" lon="7.08193">
        <ele>797.4</ele>
        <time>2022-09-21T12:00:16.000Z</time>
      </trkpt>
      <trkpt lat="43.75302" lon="7.082">
        <ele>798.4</ele>
        <time>2022-09-21T12:00:19.000Z</time>
      </trkpt>
      <trkpt lat="43.75304" lon="7.08206">
        <ele>798.2</ele>
        <time>2022-09-21T12:00:21.000Z</time>
      </trkpt>
      <trkpt lat="43.75309" lon="7.08212">
        <ele>798.7</ele>
        <time>2022-09-21T12:00:24.000Z</time>
      </trkpt>
      <trkpt lat="43.75312" lon="7.08218">
        <ele>799.1</ele>
        <time>2022-09-21T12:00:27.000Z</time>
      </trkpt>
      <trkpt lat="43.75316" lon="7.08223">
        <ele>799.7</ele>
        <time>2022-09-21T12:00:30.000Z</time>
      </trkpt>
      <trkpt lat="43.7532" lon="7.08227">
        <ele>800.6</ele>
        <time>2022-09-21T12:00:33.000Z</time>
      </trkpt>
      <trkpt lat="43.75324" lon="7.08229">
        <ele>801.4</ele>
        <time>2022-09-21T12:00:36.000Z</time>
      </trkpt>
      <trkpt lat="43.75329" lon="7.0823">
        <ele>801.8</ele>
        <time>2022-09-21T12:00:39.000Z</time>
      </trkpt>
      <trkpt lat="43.75334" lon="7.0823">
        <ele>802.5</ele>
        <time>2022-09-21T12:00:42.000Z</time>
      </trkpt>
      <trkpt lat="43.75339" lon="7.08229">
        <ele>803</ele>
        <time>2022-09-21T12:00:45.000Z</time>
      </trkpt>
      <trkpt lat="43.75344" lon="7.08231">
        <ele>803.5</ele>
        <time>2022-09-21T12:00:49.000Z</time>
      </trkpt>
      <trkpt lat="43.75348" lon="7.08235">
        <ele>804.3</ele>
        <time>2022-09-21T12:00:53.000Z</time>
      </trkpt>
      <trkpt lat="43.75353" lon="7.08237">
        <ele>805.2</ele>
        <time>2022-09-21T12:00:58.000Z</time>
      </trkpt>
      <trkpt lat="43.75359" lon="7.0824">
        <ele>806.1</ele>
        <time>2022-09-21T12:01:02.000Z</time>
      </trkpt>
      <trkpt lat="43.75364" lon="7.08242">
        <ele>806.9</ele>
        <time>2022-09-21T12:01:06.000Z</time>
      </trkpt>
      <trkpt lat="43.75368" lon="7.08244">
        <ele>807</ele>
        <time>2022-09-21T12:01:10.000Z</time>
      </trkpt>
      <trkpt lat="43.75372" lon="7.08247">
        <ele>807.5</ele>
        <time>2022-09-21T12:01:13.000Z</time>
      </trkpt>
      <trkpt lat="43.75376" lon="7.08251">
        <ele>808</ele>
        <time>2022-09-21T12:01:16.000Z</time>
      </trkpt>
      <trkpt lat="43.7538" lon="7.08255">
        <ele>808.1</ele>
        <time>2022-09-21T12:01:19.000Z</time>
      </trkpt>
      <trkpt lat="43.75385" lon="7.08259">
        <ele>808.7</ele>
        <time>2022-09-21T12:01:23.000Z</time>
      </trkpt>
      <trkpt lat="43.7539" lon="7.08262">
        <ele>809.3</ele>
        <time>2022-09-21T12:01:27.000Z</time>
      </trkpt>
      <trkpt lat="43.75395" lon="7.08267">
        <ele>809.1</ele>
        <time>2022-09-21T12:01:30.000Z</time>
      </trkpt>
      <trkpt lat="43.754" lon="7.0827">
        <ele>809.2</ele>
        <time>2022-09-21T12:01:33.000Z</time>
      </trkpt>
      <trkpt lat="43.75405" lon="7.08274">
        <ele>808.8</ele>
        <time>2022-09-21T12:01:36.000Z</time>
      </trkpt>
      <trkpt lat="43.75408" lon="7.08279">
        <ele>809.5</ele>
        <time>2022-09-21T12:01:39.000Z</time>
      </trkpt>
      <trkpt lat="43.75412" lon="7.08285">
        <ele>810.3</ele>
        <time>2022-09-21T12:01:42.000Z</time>
      </trkpt>
      <trkpt lat="43.75416" lon="7.08289">
        <ele>810.5</ele>
        <time>2022-09-21T12:01:45.000Z</time>
      </trkpt>
      <trkpt lat="43.75421" lon="7.08287">
        <ele>810.9</ele>
        <time>2022-09-21T12:01:49.000Z</time>
      </trkpt>
      <trkpt lat="43.75424" lon="7.08281">
        <ele>811.9</ele>
        <time>2022-09-21T12:01:53.000Z</time>
      </trkpt>
      <trkpt lat="43.75428" lon="7.08274">
        <ele>812.2</ele>
        <time>2022-09-21T12:01:57.000Z</time>
      </trkpt>
      <trkpt lat="43.7543" lon="7.08267">
        <ele>812.6</ele>
        <time>2022-09-21T12:02:00.000Z</time>
      </trkpt>
      <trkpt lat="43.75433" lon="7.08261">
        <ele>813.2</ele>
        <time>2022-09-21T12:02:03.000Z</time>
      </trkpt>
      <trkpt lat="43.75435" lon="7.08255">
        <ele>813.8</ele>
        <time>2022-09-21T12:02:06.000Z</time>
      </trkpt>
      <trkpt lat="43.75437" lon="7.08248">
        <ele>814.3</ele>
        <time>2022-09-21T12:02:10.000Z</time>
      </trkpt>
      <trkpt lat="43.75439" lon="7.08242">
        <ele>815</ele>
        <time>2022-09-21T12:02:16.000Z</time>
      </trkpt>
      <trkpt lat="43.75439" lon="7.08242">
        <ele>814.8</ele>
        <time>2022-09-21T12:02:17.000Z</time>
      </trkpt>
      <trkpt lat="43.75438" lon="7.08242">
        <ele>814.8</ele>
        <time>2022-09-21T12:02:19.000Z</time>
      </trkpt>
      <trkpt lat="43.75438" lon="7.08241">
        <ele>814.9</ele>
        <time>2022-09-21T12:02:24.000Z</time>
      </trkpt>
      <trkpt lat="43.7544" lon="7.08235">
        <ele>816</ele>
        <time>2022-09-21T12:02:30.000Z</time>
      </trkpt>
      <trkpt lat="43.75442" lon="7.0823">
        <ele>816.8</ele>
        <time>2022-09-21T12:02:34.000Z</time>
      </trkpt>
      <trkpt lat="43.75444" lon="7.08223">
        <ele>817.5</ele>
        <time>2022-09-21T12:02:39.000Z</time>
      </trkpt>
      <trkpt lat="43.75448" lon="7.08218">
        <ele>818</ele>
        <time>2022-09-21T12:02:45.000Z</time>
      </trkpt>
      <trkpt lat="43.75448" lon="7.08217">
        <ele>818.3</ele>
        <time>2022-09-21T12:02:51.000Z</time>
      </trkpt>
      <trkpt lat="43.75448" lon="7.08216">
        <ele>818.3</ele>
        <time>2022-09-21T12:02:53.000Z</time>
      </trkpt>
      <trkpt lat="43.75451" lon="7.0821">
        <ele>818.9</ele>
        <time>2022-09-21T12:02:59.000Z</time>
      </trkpt>
      <trkpt lat="43.75454" lon="7.08205">
        <ele>819.6</ele>
        <time>2022-09-21T12:03:04.000Z</time>
      </trkpt>
      <trkpt lat="43.75458" lon="7.082">
        <ele>820.3</ele>
        <time>2022-09-21T12:03:09.000Z</time>
      </trkpt>
      <trkpt lat="43.75462" lon="7.08196">
        <ele>821.2</ele>
        <time>2022-09-21T12:03:17.000Z</time>
      </trkpt>
      <trkpt lat="43.75462" lon="7.08196">
        <ele>821.6</ele>
        <time>2022-09-21T12:03:24.000Z</time>
      </trkpt>
      <trkpt lat="43.75461" lon="7.08196">
        <ele>821.7</ele>
        <time>2022-09-21T12:03:28.000Z</time>
      </trkpt>
      <trkpt lat="43.75466" lon="7.08192">
        <ele>822.2</ele>
        <time>2022-09-21T12:03:35.000Z</time>
      </trkpt>
      <trkpt lat="43.7547" lon="7.08188">
        <ele>823</ele>
        <time>2022-09-21T12:03:40.000Z</time>
      </trkpt>
      <trkpt lat="43.75474" lon="7.08186">
        <ele>823.5</ele>
        <time>2022-09-21T12:03:45.000Z</time>
      </trkpt>
      <trkpt lat="43.75478" lon="7.08183">
        <ele>824.3</ele>
        <time>2022-09-21T12:03:50.000Z</time>
      </trkpt>
      <trkpt lat="43.75483" lon="7.08181">
        <ele>825.3</ele>
        <time>2022-09-21T12:03:55.000Z</time>
      </trkpt>
      <trkpt lat="43.75487" lon="7.08177">
        <ele>825.8</ele>
        <time>2022-09-21T12:04:00.000Z</time>
      </trkpt>
      <trkpt lat="43.75491" lon="7.08175">
        <ele>826.4</ele>
        <time>2022-09-21T12:04:07.000Z</time>
      </trkpt>
      <trkpt lat="43.75491" lon="7.08175">
        <ele>826.3</ele>
        <time>2022-09-21T12:04:10.000Z</time>
      </trkpt>
      <trkpt lat="43.75491" lon="7.08175">
        <ele>826.2</ele>
        <time>2022-09-21T12:04:13.000Z</time>
      </trkpt>
      <trkpt lat="43.75491" lon="7.08175">
        <ele>826.4</ele>
        <time>2022-09-21T12:04:20.000Z</time>
      </trkpt>
      <trkpt lat="43.75496" lon="7.08175">
        <ele>826.9</ele>
        <time>2022-09-21T12:04:24.000Z</time>
      </trkpt>
      <trkpt lat="43.75502" lon="7.08175">
        <ele>827.8</ele>
        <time>2022-09-21T12:04:28.000Z</time>
      </trkpt>
      <trkpt lat="43.75507" lon="7.08175">
        <ele>828.4</ele>
        <time>2022-09-21T12:04:31.000Z</time>
      </trkpt>
      <trkpt lat="43.75512" lon="7.08175">
        <ele>828.9</ele>
        <time>2022-09-21T12:04:34.000Z</time>
      </trkpt>
      <trkpt lat="43.75517" lon="7.08176">
        <ele>829.1</ele>
        <time>2022-09-21T12:04:37.000Z</time>
      </trkpt>
      <trkpt lat="43.75522" lon="7.08178">
        <ele>829.9</ele>
        <time>2022-09-21T12:04:41.000Z</time>
      </trkpt>
      <trkpt lat="43.75528" lon="7.08178">
        <ele>830.1</ele>
        <time>2022-09-21T12:04:45.000Z</time>
      </trkpt>
      <trkpt lat="43.75534" lon="7.08177">
        <ele>830.6</ele>
        <time>2022-09-21T12:04:49.000Z</time>
      </trkpt>
      <trkpt lat="43.75539" lon="7.08176">
        <ele>831.3</ele>
        <time>2022-09-21T12:04:53.000Z</time>
      </trkpt>
      <trkpt lat="43.75545" lon="7.08175">
        <ele>831.8</ele>
        <time>2022-09-21T12:04:57.000Z</time>
      </trkpt>
      <trkpt lat="43.7555" lon="7.08175">
        <ele>832.8</ele>
        <time>2022-09-21T12:05:01.000Z</time>
      </trkpt>
      <trkpt lat="43.75556" lon="7.08174">
        <ele>833.5</ele>
        <time>2022-09-21T12:05:05.000Z</time>
      </trkpt>
      <trkpt lat="43.75561" lon="7.08173">
        <ele>833.7</ele>
        <time>2022-09-21T12:05:09.000Z</time>
      </trkpt>
      <trkpt lat="43.75567" lon="7.08173">
        <ele>834.3</ele>
        <time>2022-09-21T12:05:13.000Z</time>
      </trkpt>
      <trkpt lat="43.75571" lon="7.08173">
        <ele>834.9</ele>
        <time>2022-09-21T12:05:16.000Z</time>
      </trkpt>
      <trkpt lat="43.75577" lon="7.08172">
        <ele>835.4</ele>
        <time>2022-09-21T12:05:21.000Z</time>
      </trkpt>
      <trkpt lat="43.75582" lon="7.08171">
        <ele>836.3</ele>
        <time>2022-09-21T12:05:24.000Z</time>
      </trkpt>
      <trkpt lat="43.75587" lon="7.0817">
        <ele>836.9</ele>
        <time>2022-09-21T12:05:28.000Z</time>
      </trkpt>
      <trkpt lat="43.75593" lon="7.08169">
        <ele>837</ele>
        <time>2022-09-21T12:05:32.000Z</time>
      </trkpt>
      <trkpt lat="43.75598" lon="7.08169">
        <ele>838.3</ele>
        <time>2022-09-21T12:05:36.000Z</time>
      </trkpt>
      <trkpt lat="43.75603" lon="7.08169">
        <ele>838.3</ele>
        <time>2022-09-21T12:05:40.000Z</time>
      </trkpt>
      <trkpt lat="43.75607" lon="7.08169">
        <ele>839.3</ele>
        <time>2022-09-21T12:05:43.000Z</time>
      </trkpt>
      <trkpt lat="43.75612" lon="7.08171">
        <ele>839.7</ele>
        <time>2022-09-21T12:05:47.000Z</time>
      </trkpt>
      <trkpt lat="43.75618" lon="7.08171">
        <ele>840.4</ele>
        <time>2022-09-21T12:05:52.000Z</time>
      </trkpt>
      <trkpt lat="43.75623" lon="7.08171">
        <ele>841</ele>
        <time>2022-09-21T12:05:56.000Z</time>
      </trkpt>
      <trkpt lat="43.75627" lon="7.0817">
        <ele>842</ele>
        <time>2022-09-21T12:06:01.000Z</time>
      </trkpt>
      <trkpt lat="43.75632" lon="7.0817">
        <ele>842.6</ele>
        <time>2022-09-21T12:06:05.000Z</time>
      </trkpt>
      <trkpt lat="43.75637" lon="7.0817">
        <ele>843.1</ele>
        <time>2022-09-21T12:06:10.000Z</time>
      </trkpt>
      <trkpt lat="43.75643" lon="7.0817">
        <ele>843.5</ele>
        <time>2022-09-21T12:06:14.000Z</time>
      </trkpt>
      <trkpt lat="43.75647" lon="7.0817">
        <ele>844.1</ele>
        <time>2022-09-21T12:06:17.000Z</time>
      </trkpt>
      <trkpt lat="43.75653" lon="7.08171">
        <ele>844.7</ele>
        <time>2022-09-21T12:06:21.000Z</time>
      </trkpt>
      <trkpt lat="43.75657" lon="7.08171">
        <ele>845.2</ele>
        <time>2022-09-21T12:06:24.000Z</time>
      </trkpt>
      <trkpt lat="43.75662" lon="7.08171">
        <ele>845.6</ele>
        <time>2022-09-21T12:06:28.000Z</time>
      </trkpt>
      <trkpt lat="43.75667" lon="7.08172">
        <ele>846.1</ele>
        <time>2022-09-21T12:06:32.000Z</time>
      </trkpt>
      <trkpt lat="43.75672" lon="7.08173">
        <ele>846.4</ele>
        <time>2022-09-21T12:06:36.000Z</time>
      </trkpt>
      <trkpt lat="43.75677" lon="7.08174">
        <ele>847.1</ele>
        <time>2022-09-21T12:06:41.000Z</time>
      </trkpt>
      <trkpt lat="43.75677" lon="7.08174">
        <ele>847.2</ele>
        <time>2022-09-21T12:06:45.000Z</time>
      </trkpt>
      <trkpt lat="43.75677" lon="7.08174">
        <ele>847.6</ele>
        <time>2022-09-21T12:06:48.000Z</time>
      </trkpt>
      <trkpt lat="43.75677" lon="7.08174">
        <ele>847.4</ele>
        <time>2022-09-21T12:06:51.000Z</time>
      </trkpt>
      <trkpt lat="43.75677" lon="7.08174">
        <ele>847.4</ele>
        <time>2022-09-21T12:06:54.000Z</time>
      </trkpt>
      <trkpt lat="43.75677" lon="7.08174">
        <ele>847.4</ele>
        <time>2022-09-21T12:06:57.000Z</time>
      </trkpt>
      <trkpt lat="43.75676" lon="7.08174">
        <ele>847.2</ele>
        <time>2022-09-21T12:07:07.000Z</time>
      </trkpt>
      <trkpt lat="43.75676" lon="7.08174">
        <ele>847.5</ele>
        <time>2022-09-21T12:07:08.000Z</time>
      </trkpt>
      <trkpt lat="43.75677" lon="7.08174">
        <ele>847.5</ele>
        <time>2022-09-21T12:07:15.000Z</time>
      </trkpt>
      <trkpt lat="43.75677" lon="7.08174">
        <ele>847.5</ele>
        <time>2022-09-21T12:07:16.000Z</time>
      </trkpt>
      <trkpt lat="43.75677" lon="7.08173">
        <ele>847.4</ele>
        <time>2022-09-21T12:07:23.000Z</time>
      </trkpt>
      <trkpt lat="43.75677" lon="7.08174">
        <ele>847.4</ele>
        <time>2022-09-21T12:07:24.000Z</time>
      </trkpt>
      <trkpt lat="43.75676" lon="7.08174">
        <ele>847.4</ele>
        <time>2022-09-21T12:07:25.000Z</time>
      </trkpt>
      <trkpt lat="43.75683" lon="7.08173">
        <ele>847.9</ele>
        <time>2022-09-21T12:07:33.000Z</time>
      </trkpt>
      <trkpt lat="43.75687" lon="7.08171">
        <ele>847.9</ele>
        <time>2022-09-21T12:07:36.000Z</time>
      </trkpt>
      <trkpt lat="43.75692" lon="7.0817">
        <ele>848.9</ele>
        <time>2022-09-21T12:07:39.000Z</time>
      </trkpt>
      <trkpt lat="43.75696" lon="7.08168">
        <ele>849.1</ele>
        <time>2022-09-21T12:07:42.000Z</time>
      </trkpt>
      <trkpt lat="43.75701" lon="7.08167">
        <ele>850.2</ele>
        <time>2022-09-21T12:07:45.000Z</time>
      </trkpt>
      <trkpt lat="43.75706" lon="7.08169">
        <ele>850.4</ele>
        <time>2022-09-21T12:07:48.000Z</time>
      </trkpt>
      <trkpt lat="43.75711" lon="7.08168">
        <ele>850.8</ele>
        <time>2022-09-21T12:07:51.000Z</time>
      </trkpt>
      <trkpt lat="43.75716" lon="7.08167">
        <ele>852</ele>
        <time>2022-09-21T12:07:55.000Z</time>
      </trkpt>
      <trkpt lat="43.75722" lon="7.08165">
        <ele>852.7</ele>
        <time>2022-09-21T12:07:59.000Z</time>
      </trkpt>
      <trkpt lat="43.75727" lon="7.08163">
        <ele>853.1</ele>
        <time>2022-09-21T12:08:03.000Z</time>
      </trkpt>
      <trkpt lat="43.7573" lon="7.08156">
        <ele>854.4</ele>
        <time>2022-09-21T12:08:07.000Z</time>
      </trkpt>
      <trkpt lat="43.75727" lon="7.0815">
        <ele>855.2</ele>
        <time>2022-09-21T12:08:11.000Z</time>
      </trkpt>
      <trkpt lat="43.75724" lon="7.08145">
        <ele>855.7</ele>
        <time>2022-09-21T12:08:15.000Z</time>
      </trkpt>
      <trkpt lat="43.75722" lon="7.08138">
        <ele>856.5</ele>
        <time>2022-09-21T12:08:20.000Z</time>
      </trkpt>
      <trkpt lat="43.75719" lon="7.08133">
        <ele>857.9</ele>
        <time>2022-09-21T12:08:27.000Z</time>
      </trkpt>
      <trkpt lat="43.75717" lon="7.08127">
        <ele>858.1</ele>
        <time>2022-09-21T12:08:31.000Z</time>
      </trkpt>
      <trkpt lat="43.75714" lon="7.08122">
        <ele>858.9</ele>
        <time>2022-09-21T12:08:36.000Z</time>
      </trkpt>
      <trkpt lat="43.75713" lon="7.08124">
        <ele>859</ele>
        <time>2022-09-21T12:08:41.000Z</time>
      </trkpt>
      <trkpt lat="43.75713" lon="7.08124">
        <ele>858.9</ele>
        <time>2022-09-21T12:08:45.000Z</time>
      </trkpt>
      <trkpt lat="43.75713" lon="7.08124">
        <ele>859</ele>
        <time>2022-09-21T12:08:46.000Z</time>
      </trkpt>
      <trkpt lat="43.75713" lon="7.08124">
        <ele>858.9</ele>
        <time>2022-09-21T12:09:26.000Z</time>
      </trkpt>
      <trkpt lat="43.7571" lon="7.08117">
        <ele>859.8</ele>
        <time>2022-09-21T12:09:31.000Z</time>
      </trkpt>
      <trkpt lat="43.75708" lon="7.08111">
        <ele>860.1</ele>
        <time>2022-09-21T12:09:35.000Z</time>
      </trkpt>
      <trkpt lat="43.75712" lon="7.08107">
        <ele>860.8</ele>
        <time>2022-09-21T12:09:42.000Z</time>
      </trkpt>
      <trkpt lat="43.75718" lon="7.08106">
        <ele>861.9</ele>
        <time>2022-09-21T12:09:47.000Z</time>
      </trkpt>
      <trkpt lat="43.75722" lon="7.08106">
        <ele>862.6</ele>
        <time>2022-09-21T12:09:51.000Z</time>
      </trkpt>
      <trkpt lat="43.75728" lon="7.08106">
        <ele>863</ele>
        <time>2022-09-21T12:09:55.000Z</time>
      </trkpt>
      <trkpt lat="43.75733" lon="7.08106">
        <ele>863.6</ele>
        <time>2022-09-21T12:10:01.000Z</time>
      </trkpt>
      <trkpt lat="43.75738" lon="7.08104">
        <ele>864.2</ele>
        <time>2022-09-21T12:10:05.000Z</time>
      </trkpt>
      <trkpt lat="43.75742" lon="7.08102">
        <ele>864.8</ele>
        <time>2022-09-21T12:10:10.000Z</time>
      </trkpt>
      <trkpt lat="43.75746" lon="7.08099">
        <ele>865.7</ele>
        <time>2022-09-21T12:10:15.000Z</time>
      </trkpt>
      <trkpt lat="43.75749" lon="7.08094">
        <ele>866.9</ele>
        <time>2022-09-21T12:10:20.000Z</time>
      </trkpt>
      <trkpt lat="43.75748" lon="7.08088">
        <ele>867.9</ele>
        <time>2022-09-21T12:10:26.000Z</time>
      </trkpt>
      <trkpt lat="43.75748" lon="7.08081">
        <ele>869.3</ele>
        <time>2022-09-21T12:10:33.000Z</time>
      </trkpt>
      <trkpt lat="43.75751" lon="7.08079">
        <ele>870.8</ele>
        <time>2022-09-21T12:10:43.000Z</time>
      </trkpt>
      <trkpt lat="43.75751" lon="7.08079">
        <ele>870.9</ele>
        <time>2022-09-21T12:10:47.000Z</time>
      </trkpt>
      <trkpt lat="43.75751" lon="7.08079">
        <ele>870.9</ele>
        <time>2022-09-21T12:10:48.000Z</time>
      </trkpt>
      <trkpt lat="43.7575" lon="7.0808">
        <ele>870.9</ele>
        <time>2022-09-21T12:10:50.000Z</time>
      </trkpt>
      <trkpt lat="43.75749" lon="7.08072">
        <ele>870.7</ele>
        <time>2022-09-21T12:10:57.000Z</time>
      </trkpt>
      <trkpt lat="43.75745" lon="7.08065">
        <ele>871.3</ele>
        <time>2022-09-21T12:11:00.000Z</time>
      </trkpt>
      <trkpt lat="43.75741" lon="7.08059">
        <ele>871.7</ele>
        <time>2022-09-21T12:11:03.000Z</time>
      </trkpt>
      <trkpt lat="43.75735" lon="7.08055">
        <ele>872.3</ele>
        <time>2022-09-21T12:11:06.000Z</time>
      </trkpt>
      <trkpt lat="43.7573" lon="7.0805">
        <ele>873.2</ele>
        <time>2022-09-21T12:11:09.000Z</time>
      </trkpt>
      <trkpt lat="43.75725" lon="7.08047">
        <ele>873.2</ele>
        <time>2022-09-21T12:11:12.000Z</time>
      </trkpt>
      <trkpt lat="43.75719" lon="7.08042">
        <ele>873.7</ele>
        <time>2022-09-21T12:11:15.000Z</time>
      </trkpt>
      <trkpt lat="43.75714" lon="7.08038">
        <ele>874.6</ele>
        <time>2022-09-21T12:11:18.000Z</time>
      </trkpt>
      <trkpt lat="43.75709" lon="7.08034">
        <ele>874.8</ele>
        <time>2022-09-21T12:11:21.000Z</time>
      </trkpt>
      <trkpt lat="43.75705" lon="7.08031">
        <ele>875.3</ele>
        <time>2022-09-21T12:11:23.000Z</time>
      </trkpt>
      <trkpt lat="43.757" lon="7.08027">
        <ele>875.9</ele>
        <time>2022-09-21T12:11:26.000Z</time>
      </trkpt>
      <trkpt lat="43.75695" lon="7.08021">
        <ele>876.3</ele>
        <time>2022-09-21T12:11:29.000Z</time>
      </trkpt>
      <trkpt lat="43.75691" lon="7.08015">
        <ele>876.7</ele>
        <time>2022-09-21T12:11:32.000Z</time>
      </trkpt>
      <trkpt lat="43.75688" lon="7.08007">
        <ele>877.5</ele>
        <time>2022-09-21T12:11:35.000Z</time>
      </trkpt>
      <trkpt lat="43.75686" lon="7.08">
        <ele>878</ele>
        <time>2022-09-21T12:11:38.000Z</time>
      </trkpt>
      <trkpt lat="43.75685" lon="7.07993">
        <ele>878.4</ele>
        <time>2022-09-21T12:11:41.000Z</time>
      </trkpt>
      <trkpt lat="43.75684" lon="7.07984">
        <ele>878.7</ele>
        <time>2022-09-21T12:11:44.000Z</time>
      </trkpt>
      <trkpt lat="43.75682" lon="7.07977">
        <ele>879.2</ele>
        <time>2022-09-21T12:11:47.000Z</time>
      </trkpt>
      <trkpt lat="43.75679" lon="7.0797">
        <ele>879.7</ele>
        <time>2022-09-21T12:11:50.000Z</time>
      </trkpt>
      <trkpt lat="43.75678" lon="7.07963">
        <ele>880.2</ele>
        <time>2022-09-21T12:11:53.000Z</time>
      </trkpt>
      <trkpt lat="43.75679" lon="7.07954">
        <ele>880.4</ele>
        <time>2022-09-21T12:11:56.000Z</time>
      </trkpt>
      <trkpt lat="43.75679" lon="7.07946">
        <ele>880.7</ele>
        <time>2022-09-21T12:11:59.000Z</time>
      </trkpt>
      <trkpt lat="43.75679" lon="7.07939">
        <ele>881.2</ele>
        <time>2022-09-21T12:12:02.000Z</time>
      </trkpt>
      <trkpt lat="43.75678" lon="7.07931">
        <ele>881.5</ele>
        <time>2022-09-21T12:12:05.000Z</time>
      </trkpt>
      <trkpt lat="43.75677" lon="7.07923">
        <ele>881.9</ele>
        <time>2022-09-21T12:12:08.000Z</time>
      </trkpt>
      <trkpt lat="43.75677" lon="7.07915">
        <ele>882.3</ele>
        <time>2022-09-21T12:12:11.000Z</time>
      </trkpt>
      <trkpt lat="43.75676" lon="7.07907">
        <ele>883.2</ele>
        <time>2022-09-21T12:12:14.000Z</time>
      </trkpt>
      <trkpt lat="43.75676" lon="7.07901">
        <ele>883.4</ele>
        <time>2022-09-21T12:12:17.000Z</time>
      </trkpt>
      <trkpt lat="43.75675" lon="7.07893">
        <ele>883.9</ele>
        <time>2022-09-21T12:12:20.000Z</time>
      </trkpt>
      <trkpt lat="43.75675" lon="7.07885">
        <ele>884.3</ele>
        <time>2022-09-21T12:12:23.000Z</time>
      </trkpt>
      <trkpt lat="43.75675" lon="7.07876">
        <ele>885.1</ele>
        <time>2022-09-21T12:12:26.000Z</time>
      </trkpt>
      <trkpt lat="43.75674" lon="7.07869">
        <ele>885.2</ele>
        <time>2022-09-21T12:12:29.000Z</time>
      </trkpt>
      <trkpt lat="43.75674" lon="7.07861">
        <ele>885.9</ele>
        <time>2022-09-21T12:12:32.000Z</time>
      </trkpt>
      <trkpt lat="43.75674" lon="7.07853">
        <ele>886.4</ele>
        <time>2022-09-21T12:12:35.000Z</time>
      </trkpt>
      <trkpt lat="43.75674" lon="7.07845">
        <ele>886.7</ele>
        <time>2022-09-21T12:12:38.000Z</time>
      </trkpt>
      <trkpt lat="43.75673" lon="7.07837">
        <ele>887.5</ele>
        <time>2022-09-21T12:12:41.000Z</time>
      </trkpt>
      <trkpt lat="43.75673" lon="7.07828">
        <ele>887.7</ele>
        <time>2022-09-21T12:12:44.000Z</time>
      </trkpt>
      <trkpt lat="43.75673" lon="7.0782">
        <ele>888.4</ele>
        <time>2022-09-21T12:12:47.000Z</time>
      </trkpt>
      <trkpt lat="43.75672" lon="7.07812">
        <ele>888.6</ele>
        <time>2022-09-21T12:12:50.000Z</time>
      </trkpt>
      <trkpt lat="43.75671" lon="7.07804">
        <ele>888.8</ele>
        <time>2022-09-21T12:12:53.000Z</time>
      </trkpt>
      <trkpt lat="43.75671" lon="7.07797">
        <ele>889.3</ele>
        <time>2022-09-21T12:12:56.000Z</time>
      </trkpt>
      <trkpt lat="43.75671" lon="7.07788">
        <ele>889.7</ele>
        <time>2022-09-21T12:12:59.000Z</time>
      </trkpt>
      <trkpt lat="43.7567" lon="7.0778">
        <ele>890</ele>
        <time>2022-09-21T12:13:02.000Z</time>
      </trkpt>
      <trkpt lat="43.7567" lon="7.07773">
        <ele>890.5</ele>
        <time>2022-09-21T12:13:05.000Z</time>
      </trkpt>
      <trkpt lat="43.75671" lon="7.07765">
        <ele>890.7</ele>
        <time>2022-09-21T12:13:08.000Z</time>
      </trkpt>
      <trkpt lat="43.75672" lon="7.07756">
        <ele>891.1</ele>
        <time>2022-09-21T12:13:11.000Z</time>
      </trkpt>
      <trkpt lat="43.75674" lon="7.07749">
        <ele>891.6</ele>
        <time>2022-09-21T12:13:14.000Z</time>
      </trkpt>
      <trkpt lat="43.75675" lon="7.07741">
        <ele>892</ele>
        <time>2022-09-21T12:13:17.000Z</time>
      </trkpt>
      <trkpt lat="43.75676" lon="7.07733">
        <ele>892.4</ele>
        <time>2022-09-21T12:13:20.000Z</time>
      </trkpt>
      <trkpt lat="43.75679" lon="7.07725">
        <ele>892.9</ele>
        <time>2022-09-21T12:13:23.000Z</time>
      </trkpt>
      <trkpt lat="43.75681" lon="7.07718">
        <ele>893.3</ele>
        <time>2022-09-21T12:13:26.000Z</time>
      </trkpt>
      <trkpt lat="43.75684" lon="7.07711">
        <ele>893.6</ele>
        <time>2022-09-21T12:13:29.000Z</time>
      </trkpt>
      <trkpt lat="43.75686" lon="7.07702">
        <ele>894</ele>
        <time>2022-09-21T12:13:32.000Z</time>
      </trkpt>
      <trkpt lat="43.75687" lon="7.07696">
        <ele>894.2</ele>
        <time>2022-09-21T12:13:34.000Z</time>
      </trkpt>
      <trkpt lat="43.75689" lon="7.07688">
        <ele>894.7</ele>
        <time>2022-09-21T12:13:37.000Z</time>
      </trkpt>
      <trkpt lat="43.75693" lon="7.07681">
        <ele>895.1</ele>
        <time>2022-09-21T12:13:40.000Z</time>
      </trkpt>
      <trkpt lat="43.75695" lon="7.07675">
        <ele>895.6</ele>
        <time>2022-09-21T12:13:43.000Z</time>
      </trkpt>
      <trkpt lat="43.75698" lon="7.07668">
        <ele>896.1</ele>
        <time>2022-09-21T12:13:46.000Z</time>
      </trkpt>
      <trkpt lat="43.757" lon="7.07661">
        <ele>896.2</ele>
        <time>2022-09-21T12:13:49.000Z</time>
      </trkpt>
      <trkpt lat="43.75703" lon="7.07654">
        <ele>896.8</ele>
        <time>2022-09-21T12:13:52.000Z</time>
      </trkpt>
      <trkpt lat="43.75705" lon="7.07647">
        <ele>897.1</ele>
        <time>2022-09-21T12:13:55.000Z</time>
      </trkpt>
      <trkpt lat="43.75707" lon="7.07639">
        <ele>897.6</ele>
        <time>2022-09-21T12:13:58.000Z</time>
      </trkpt>
      <trkpt lat="43.7571" lon="7.07632">
        <ele>897.8</ele>
        <time>2022-09-21T12:14:01.000Z</time>
      </trkpt>
      <trkpt lat="43.75712" lon="7.07624">
        <ele>898.2</ele>
        <time>2022-09-21T12:14:04.000Z</time>
      </trkpt>
      <trkpt lat="43.75713" lon="7.07617">
        <ele>898.4</ele>
        <time>2022-09-21T12:14:07.000Z</time>
      </trkpt>
      <trkpt lat="43.75716" lon="7.0761">
        <ele>898.9</ele>
        <time>2022-09-21T12:14:10.000Z</time>
      </trkpt>
      <trkpt lat="43.75718" lon="7.07603">
        <ele>899.2</ele>
        <time>2022-09-21T12:14:13.000Z</time>
      </trkpt>
      <trkpt lat="43.75719" lon="7.07595">
        <ele>899.5</ele>
        <time>2022-09-21T12:14:16.000Z</time>
      </trkpt>
      <trkpt lat="43.75719" lon="7.07587">
        <ele>900.1</ele>
        <time>2022-09-21T12:14:19.000Z</time>
      </trkpt>
      <trkpt lat="43.7572" lon="7.07579">
        <ele>900.5</ele>
        <time>2022-09-21T12:14:22.000Z</time>
      </trkpt>
      <trkpt lat="43.75721" lon="7.07572">
        <ele>901.2</ele>
        <time>2022-09-21T12:14:25.000Z</time>
      </trkpt>
      <trkpt lat="43.75721" lon="7.07564">
        <ele>901.5</ele>
        <time>2022-09-21T12:14:28.000Z</time>
      </trkpt>
      <trkpt lat="43.75722" lon="7.07556">
        <ele>902.5</ele>
        <time>2022-09-21T12:14:31.000Z</time>
      </trkpt>
      <trkpt lat="43.75723" lon="7.07548">
        <ele>902.3</ele>
        <time>2022-09-21T12:14:34.000Z</time>
      </trkpt>
      <trkpt lat="43.75723" lon="7.07539">
        <ele>903</ele>
        <time>2022-09-21T12:14:37.000Z</time>
      </trkpt>
      <trkpt lat="43.75723" lon="7.07532">
        <ele>903.6</ele>
        <time>2022-09-21T12:14:40.000Z</time>
      </trkpt>
      <trkpt lat="43.75722" lon="7.07523">
        <ele>903.4</ele>
        <time>2022-09-21T12:14:43.000Z</time>
      </trkpt>
      <trkpt lat="43.75721" lon="7.07514">
        <ele>903.9</ele>
        <time>2022-09-21T12:14:46.000Z</time>
      </trkpt>
      <trkpt lat="43.7572" lon="7.07508">
        <ele>904.3</ele>
        <time>2022-09-21T12:14:48.000Z</time>
      </trkpt>
      <trkpt lat="43.75719" lon="7.07502">
        <ele>904.7</ele>
        <time>2022-09-21T12:14:50.000Z</time>
      </trkpt>
      <trkpt lat="43.75717" lon="7.07495">
        <ele>904.8</ele>
        <time>2022-09-21T12:14:52.000Z</time>
      </trkpt>
      <trkpt lat="43.75716" lon="7.07487">
        <ele>905.5</ele>
        <time>2022-09-21T12:14:55.000Z</time>
      </trkpt>
      <trkpt lat="43.75714" lon="7.07481">
        <ele>906</ele>
        <time>2022-09-21T12:14:57.000Z</time>
      </trkpt>
      <trkpt lat="43.75713" lon="7.07474">
        <ele>906.7</ele>
        <time>2022-09-21T12:14:59.000Z</time>
      </trkpt>
      <trkpt lat="43.75713" lon="7.07465">
        <ele>906.9</ele>
        <time>2022-09-21T12:15:02.000Z</time>
      </trkpt>
      <trkpt lat="43.75715" lon="7.07457">
        <ele>907</ele>
        <time>2022-09-21T12:15:05.000Z</time>
      </trkpt>
      <trkpt lat="43.75721" lon="7.07452">
        <ele>907.7</ele>
        <time>2022-09-21T12:15:08.000Z</time>
      </trkpt>
      <trkpt lat="43.75726" lon="7.0745">
        <ele>907.7</ele>
        <time>2022-09-21T12:15:11.000Z</time>
      </trkpt>
      <trkpt lat="43.75731" lon="7.07449">
        <ele>908</ele>
        <time>2022-09-21T12:15:14.000Z</time>
      </trkpt>
      <trkpt lat="43.75734" lon="7.07446">
        <ele>908.2</ele>
        <time>2022-09-21T12:15:19.000Z</time>
      </trkpt>
      <trkpt lat="43.75734" lon="7.07446">
        <ele>908.1</ele>
        <time>2022-09-21T12:15:20.000Z</time>
      </trkpt>
      <trkpt lat="43.75734" lon="7.07446">
        <ele>908.1</ele>
        <time>2022-09-21T12:15:21.000Z</time>
      </trkpt>
      <trkpt lat="43.75734" lon="7.07447">
        <ele>908.1</ele>
        <time>2022-09-21T12:15:27.000Z</time>
      </trkpt>
      <trkpt lat="43.75735" lon="7.07449">
        <ele>908.3</ele>
        <time>2022-09-21T12:15:32.000Z</time>
      </trkpt>
      <trkpt lat="43.75735" lon="7.07449">
        <ele>908.5</ele>
        <time>2022-09-21T12:15:34.000Z</time>
      </trkpt>
      <trkpt lat="43.75737" lon="7.07458">
        <ele>908.6</ele>
        <time>2022-09-21T12:15:38.000Z</time>
      </trkpt>
      <trkpt lat="43.75739" lon="7.07465">
        <ele>908.7</ele>
        <time>2022-09-21T12:15:40.000Z</time>
      </trkpt>
      <trkpt lat="43.75743" lon="7.07472">
        <ele>908.9</ele>
        <time>2022-09-21T12:15:42.000Z</time>
      </trkpt>
      <trkpt lat="43.75746" lon="7.0748">
        <ele>909.2</ele>
        <time>2022-09-21T12:15:44.000Z</time>
      </trkpt>
      <trkpt lat="43.75749" lon="7.07486">
        <ele>909.8</ele>
        <time>2022-09-21T12:15:46.000Z</time>
      </trkpt>
      <trkpt lat="43.75751" lon="7.07493">
        <ele>910.2</ele>
        <time>2022-09-21T12:15:48.000Z</time>
      </trkpt>
      <trkpt lat="43.75754" lon="7.07501">
        <ele>910.7</ele>
        <time>2022-09-21T12:15:50.000Z</time>
      </trkpt>
      <trkpt lat="43.75756" lon="7.07508">
        <ele>910.7</ele>
        <time>2022-09-21T12:15:52.000Z</time>
      </trkpt>
      <trkpt lat="43.75757" lon="7.07516">
        <ele>910.9</ele>
        <time>2022-09-21T12:15:54.000Z</time>
      </trkpt>
      <trkpt lat="43.75759" lon="7.07523">
        <ele>911.2</ele>
        <time>2022-09-21T12:15:56.000Z</time>
      </trkpt>
      <trkpt lat="43.7576" lon="7.07529">
        <ele>911.9</ele>
        <time>2022-09-21T12:15:58.000Z</time>
      </trkpt>
      <trkpt lat="43.75762" lon="7.07536">
        <ele>912</ele>
        <time>2022-09-21T12:16:00.000Z</time>
      </trkpt>
      <trkpt lat="43.75763" lon="7.07543">
        <ele>912.6</ele>
        <time>2022-09-21T12:16:02.000Z</time>
      </trkpt>
      <trkpt lat="43.75765" lon="7.0755">
        <ele>913</ele>
        <time>2022-09-21T12:16:04.000Z</time>
      </trkpt>
      <trkpt lat="43.75766" lon="7.07556">
        <ele>913.2</ele>
        <time>2022-09-21T12:16:06.000Z</time>
      </trkpt>
      <trkpt lat="43.75768" lon="7.07562">
        <ele>913.7</ele>
        <time>2022-09-21T12:16:08.000Z</time>
      </trkpt>
      <trkpt lat="43.75769" lon="7.07569">
        <ele>914.1</ele>
        <time>2022-09-21T12:16:10.000Z</time>
      </trkpt>
      <trkpt lat="43.75771" lon="7.07575">
        <ele>914.4</ele>
        <time>2022-09-21T12:16:12.000Z</time>
      </trkpt>
      <trkpt lat="43.75771" lon="7.07581">
        <ele>914.8</ele>
        <time>2022-09-21T12:16:14.000Z</time>
      </trkpt>
      <trkpt lat="43.75773" lon="7.0759">
        <ele>915.1</ele>
        <time>2022-09-21T12:16:17.000Z</time>
      </trkpt>
      <trkpt lat="43.75775" lon="7.07598">
        <ele>915.6</ele>
        <time>2022-09-21T12:16:20.000Z</time>
      </trkpt>
      <trkpt lat="43.75777" lon="7.07604">
        <ele>915.9</ele>
        <time>2022-09-21T12:16:22.000Z</time>
      </trkpt>
      <trkpt lat="43.75779" lon="7.07612">
        <ele>916.6</ele>
        <time>2022-09-21T12:16:25.000Z</time>
      </trkpt>
      <trkpt lat="43.7578" lon="7.0762">
        <ele>917.1</ele>
        <time>2022-09-21T12:16:28.000Z</time>
      </trkpt>
      <trkpt lat="43.75782" lon="7.07629">
        <ele>917.5</ele>
        <time>2022-09-21T12:16:31.000Z</time>
      </trkpt>
      <trkpt lat="43.75783" lon="7.07637">
        <ele>917.9</ele>
        <time>2022-09-21T12:16:34.000Z</time>
      </trkpt>
      <trkpt lat="43.75785" lon="7.07645">
        <ele>918.4</ele>
        <time>2022-09-21T12:16:37.000Z</time>
      </trkpt>
      <trkpt lat="43.75787" lon="7.07652">
        <ele>918.7</ele>
        <time>2022-09-21T12:16:40.000Z</time>
      </trkpt>
      <trkpt lat="43.7579" lon="7.0766">
        <ele>919.4</ele>
        <time>2022-09-21T12:16:43.000Z</time>
      </trkpt>
      <trkpt lat="43.75793" lon="7.07666">
        <ele>919.8</ele>
        <time>2022-09-21T12:16:46.000Z</time>
      </trkpt>
      <trkpt lat="43.75797" lon="7.07673">
        <ele>920</ele>
        <time>2022-09-21T12:16:49.000Z</time>
      </trkpt>
      <trkpt lat="43.75801" lon="7.07679">
        <ele>920.7</ele>
        <time>2022-09-21T12:16:52.000Z</time>
      </trkpt>
      <trkpt lat="43.75806" lon="7.07684">
        <ele>921.1</ele>
        <time>2022-09-21T12:16:55.000Z</time>
      </trkpt>
      <trkpt lat="43.75812" lon="7.07688">
        <ele>921.4</ele>
        <time>2022-09-21T12:16:58.000Z</time>
      </trkpt>
      <trkpt lat="43.75818" lon="7.07692">
        <ele>921.8</ele>
        <time>2022-09-21T12:17:01.000Z</time>
      </trkpt>
      <trkpt lat="43.75824" lon="7.07694">
        <ele>922.1</ele>
        <time>2022-09-21T12:17:04.000Z</time>
      </trkpt>
      <trkpt lat="43.75831" lon="7.07697">
        <ele>922.7</ele>
        <time>2022-09-21T12:17:07.000Z</time>
      </trkpt>
      <trkpt lat="43.75835" lon="7.07698">
        <ele>923.3</ele>
        <time>2022-09-21T12:17:09.000Z</time>
      </trkpt>
      <trkpt lat="43.75842" lon="7.07699">
        <ele>923.9</ele>
        <time>2022-09-21T12:17:12.000Z</time>
      </trkpt>
      <trkpt lat="43.75848" lon="7.07701">
        <ele>924.4</ele>
        <time>2022-09-21T12:17:15.000Z</time>
      </trkpt>
      <trkpt lat="43.75855" lon="7.07703">
        <ele>924.7</ele>
        <time>2022-09-21T12:17:18.000Z</time>
      </trkpt>
      <trkpt lat="43.75861" lon="7.07704">
        <ele>925.2</ele>
        <time>2022-09-21T12:17:21.000Z</time>
      </trkpt>
      <trkpt lat="43.75867" lon="7.07703">
        <ele>925.5</ele>
        <time>2022-09-21T12:17:24.000Z</time>
      </trkpt>
      <trkpt lat="43.75873" lon="7.07701">
        <ele>926.2</ele>
        <time>2022-09-21T12:17:27.000Z</time>
      </trkpt>
      <trkpt lat="43.75878" lon="7.07698">
        <ele>926.6</ele>
        <time>2022-09-21T12:17:30.000Z</time>
      </trkpt>
      <trkpt lat="43.75883" lon="7.07693">
        <ele>927.2</ele>
        <time>2022-09-21T12:17:33.000Z</time>
      </trkpt>
      <trkpt lat="43.75888" lon="7.07688">
        <ele>927.3</ele>
        <time>2022-09-21T12:17:36.000Z</time>
      </trkpt>
      <trkpt lat="43.75893" lon="7.07681">
        <ele>927.9</ele>
        <time>2022-09-21T12:17:39.000Z</time>
      </trkpt>
      <trkpt lat="43.75898" lon="7.07675">
        <ele>928.2</ele>
        <time>2022-09-21T12:17:42.000Z</time>
      </trkpt>
      <trkpt lat="43.75901" lon="7.07671">
        <ele>928.7</ele>
        <time>2022-09-21T12:17:44.000Z</time>
      </trkpt>
      <trkpt lat="43.75905" lon="7.07666">
        <ele>929</ele>
        <time>2022-09-21T12:17:46.000Z</time>
      </trkpt>
      <trkpt lat="43.75908" lon="7.07662">
        <ele>929.2</ele>
        <time>2022-09-21T12:17:48.000Z</time>
      </trkpt>
      <trkpt lat="43.75912" lon="7.07654">
        <ele>929.7</ele>
        <time>2022-09-21T12:17:51.000Z</time>
      </trkpt>
      <trkpt lat="43.75917" lon="7.07647">
        <ele>930</ele>
        <time>2022-09-21T12:17:54.000Z</time>
      </trkpt>
      <trkpt lat="43.75919" lon="7.07641">
        <ele>930.2</ele>
        <time>2022-09-21T12:17:56.000Z</time>
      </trkpt>
      <trkpt lat="43.75922" lon="7.07634">
        <ele>930.7</ele>
        <time>2022-09-21T12:17:59.000Z</time>
      </trkpt>
      <trkpt lat="43.75926" lon="7.07627">
        <ele>931</ele>
        <time>2022-09-21T12:18:02.000Z</time>
      </trkpt>
      <trkpt lat="43.7593" lon="7.0762">
        <ele>931.5</ele>
        <time>2022-09-21T12:18:05.000Z</time>
      </trkpt>
      <trkpt lat="43.75934" lon="7.07614">
        <ele>931.6</ele>
        <time>2022-09-21T12:18:08.000Z</time>
      </trkpt>
      <trkpt lat="43.75938" lon="7.07607">
        <ele>931.3</ele>
        <time>2022-09-21T12:18:11.000Z</time>
      </trkpt>
      <trkpt lat="43.75942" lon="7.07601">
        <ele>933</ele>
        <time>2022-09-21T12:18:14.000Z</time>
      </trkpt>
      <trkpt lat="43.75946" lon="7.07595">
        <ele>934.1</ele>
        <time>2022-09-21T12:18:17.000Z</time>
      </trkpt>
      <trkpt lat="43.75949" lon="7.07591">
        <ele>933.6</ele>
        <time>2022-09-21T12:18:19.000Z</time>
      </trkpt>
      <trkpt lat="43.75953" lon="7.07586">
        <ele>933.5</ele>
        <time>2022-09-21T12:18:21.000Z</time>
      </trkpt>
      <trkpt lat="43.75956" lon="7.07581">
        <ele>933.9</ele>
        <time>2022-09-21T12:18:24.000Z</time>
      </trkpt>
      <trkpt lat="43.75961" lon="7.07576">
        <ele>934.3</ele>
        <time>2022-09-21T12:18:27.000Z</time>
      </trkpt>
      <trkpt lat="43.75965" lon="7.07572">
        <ele>934.7</ele>
        <time>2022-09-21T12:18:29.000Z</time>
      </trkpt>
      <trkpt lat="43.75969" lon="7.07567">
        <ele>935</ele>
        <time>2022-09-21T12:18:32.000Z</time>
      </trkpt>
      <trkpt lat="43.75974" lon="7.07562">
        <ele>935.9</ele>
        <time>2022-09-21T12:18:35.000Z</time>
      </trkpt>
      <trkpt lat="43.7598" lon="7.07558">
        <ele>936.4</ele>
        <time>2022-09-21T12:18:38.000Z</time>
      </trkpt>
      <trkpt lat="43.75986" lon="7.07555">
        <ele>937.2</ele>
        <time>2022-09-21T12:18:41.000Z</time>
      </trkpt>
      <trkpt lat="43.75991" lon="7.07553">
        <ele>937.3</ele>
        <time>2022-09-21T12:18:43.000Z</time>
      </trkpt>
      <trkpt lat="43.75997" lon="7.07551">
        <ele>937.8</ele>
        <time>2022-09-21T12:18:45.000Z</time>
      </trkpt>
      <trkpt lat="43.76002" lon="7.0755">
        <ele>938.1</ele>
        <time>2022-09-21T12:18:47.000Z</time>
      </trkpt>
      <trkpt lat="43.76008" lon="7.07549">
        <ele>938.9</ele>
        <time>2022-09-21T12:18:50.000Z</time>
      </trkpt>
      <trkpt lat="43.76013" lon="7.07547">
        <ele>939.5</ele>
        <time>2022-09-21T12:18:53.000Z</time>
      </trkpt>
      <trkpt lat="43.76019" lon="7.07545">
        <ele>940</ele>
        <time>2022-09-21T12:18:56.000Z</time>
      </trkpt>
      <trkpt lat="43.76025" lon="7.07541">
        <ele>940</ele>
        <time>2022-09-21T12:18:59.000Z</time>
      </trkpt>
      <trkpt lat="43.76029" lon="7.07537">
        <ele>940.5</ele>
        <time>2022-09-21T12:19:02.000Z</time>
      </trkpt>
      <trkpt lat="43.76035" lon="7.07533">
        <ele>941.3</ele>
        <time>2022-09-21T12:19:06.000Z</time>
      </trkpt>
      <trkpt lat="43.7604" lon="7.07531">
        <ele>941.5</ele>
        <time>2022-09-21T12:19:09.000Z</time>
      </trkpt>
      <trkpt lat="43.76045" lon="7.07528">
        <ele>941.7</ele>
        <time>2022-09-21T12:19:12.000Z</time>
      </trkpt>
      <trkpt lat="43.7605" lon="7.07524">
        <ele>942.1</ele>
        <time>2022-09-21T12:19:15.000Z</time>
      </trkpt>
      <trkpt lat="43.76055" lon="7.07523">
        <ele>942.4</ele>
        <time>2022-09-21T12:19:18.000Z</time>
      </trkpt>
      <trkpt lat="43.7606" lon="7.07522">
        <ele>943</ele>
        <time>2022-09-21T12:19:24.000Z</time>
      </trkpt>
      <trkpt lat="43.76061" lon="7.07522">
        <ele>942.9</ele>
        <time>2022-09-21T12:19:27.000Z</time>
      </trkpt>
      <trkpt lat="43.76061" lon="7.07523">
        <ele>942.8</ele>
        <time>2022-09-21T12:19:28.000Z</time>
      </trkpt>
      <trkpt lat="43.76061" lon="7.07523">
        <ele>942.8</ele>
        <time>2022-09-21T12:19:29.000Z</time>
      </trkpt>
      <trkpt lat="43.76061" lon="7.07522">
        <ele>943</ele>
        <time>2022-09-21T12:19:31.000Z</time>
      </trkpt>
      <trkpt lat="43.76061" lon="7.07522">
        <ele>943</ele>
        <time>2022-09-21T12:19:32.000Z</time>
      </trkpt>
      <trkpt lat="43.76061" lon="7.07522">
        <ele>943</ele>
        <time>2022-09-21T12:19:33.000Z</time>
      </trkpt>
      <trkpt lat="43.76061" lon="7.07522">
        <ele>942.8</ele>
        <time>2022-09-21T12:19:34.000Z</time>
      </trkpt>
      <trkpt lat="43.76061" lon="7.07522">
        <ele>942.7</ele>
        <time>2022-09-21T12:21:14.000Z</time>
      </trkpt>
      <trkpt lat="43.76061" lon="7.07522">
        <ele>942.8</ele>
        <time>2022-09-21T12:21:15.000Z</time>
      </trkpt>
      <trkpt lat="43.76061" lon="7.07522">
        <ele>942.6</ele>
        <time>2022-09-21T12:21:16.000Z</time>
      </trkpt>
      <trkpt lat="43.76061" lon="7.07522">
        <ele>942.6</ele>
        <time>2022-09-21T12:21:17.000Z</time>
      </trkpt>
      <trkpt lat="43.76061" lon="7.07522">
        <ele>942.5</ele>
        <time>2022-09-21T12:21:19.000Z</time>
      </trkpt>
      <trkpt lat="43.76065" lon="7.07517">
        <ele>942.5</ele>
        <time>2022-09-21T12:21:24.000Z</time>
      </trkpt>
      <trkpt lat="43.7607" lon="7.07512">
        <ele>942.7</ele>
        <time>2022-09-21T12:21:27.000Z</time>
      </trkpt>
      <trkpt lat="43.76074" lon="7.07505">
        <ele>942.9</ele>
        <time>2022-09-21T12:21:30.000Z</time>
      </trkpt>
      <trkpt lat="43.76072" lon="7.075">
        <ele>943</ele>
        <time>2022-09-21T12:21:32.000Z</time>
      </trkpt>
      <trkpt lat="43.76068" lon="7.07494">
        <ele>943</ele>
        <time>2022-09-21T12:21:35.000Z</time>
      </trkpt>
      <trkpt lat="43.76065" lon="7.07488">
        <ele>943</ele>
        <time>2022-09-21T12:21:38.000Z</time>
      </trkpt>
      <trkpt lat="43.76063" lon="7.07481">
        <ele>943.3</ele>
        <time>2022-09-21T12:21:41.000Z</time>
      </trkpt>
      <trkpt lat="43.76061" lon="7.07474">
        <ele>943.6</ele>
        <time>2022-09-21T12:21:44.000Z</time>
      </trkpt>
      <trkpt lat="43.76059" lon="7.07465">
        <ele>943.7</ele>
        <time>2022-09-21T12:21:47.000Z</time>
      </trkpt>
      <trkpt lat="43.76057" lon="7.07459">
        <ele>943.8</ele>
        <time>2022-09-21T12:21:49.000Z</time>
      </trkpt>
      <trkpt lat="43.76054" lon="7.07454">
        <ele>944.1</ele>
        <time>2022-09-21T12:21:51.000Z</time>
      </trkpt>
      <trkpt lat="43.7605" lon="7.07448">
        <ele>944.6</ele>
        <time>2022-09-21T12:21:54.000Z</time>
      </trkpt>
      <trkpt lat="43.76046" lon="7.07444">
        <ele>945.4</ele>
        <time>2022-09-21T12:21:56.000Z</time>
      </trkpt>
      <trkpt lat="43.76041" lon="7.0744">
        <ele>945.4</ele>
        <time>2022-09-21T12:21:59.000Z</time>
      </trkpt>
      <trkpt lat="43.76039" lon="7.07433">
        <ele>945.4</ele>
        <time>2022-09-21T12:22:03.000Z</time>
      </trkpt>
      <trkpt lat="43.76039" lon="7.07426">
        <ele>945.4</ele>
        <time>2022-09-21T12:22:07.000Z</time>
      </trkpt>
      <trkpt lat="43.76035" lon="7.07422">
        <ele>945.7</ele>
        <time>2022-09-21T12:22:21.000Z</time>
      </trkpt>
      <trkpt lat="43.76032" lon="7.07416">
        <ele>945.4</ele>
        <time>2022-09-21T12:22:27.000Z</time>
      </trkpt>
      <trkpt lat="43.76031" lon="7.07414">
        <ele>945.4</ele>
        <time>2022-09-21T12:22:32.000Z</time>
      </trkpt>
      <trkpt lat="43.76031" lon="7.07414">
        <ele>945.3</ele>
        <time>2022-09-21T12:22:33.000Z</time>
      </trkpt>
      <trkpt lat="43.7603" lon="7.07414">
        <ele>945.5</ele>
        <time>2022-09-21T12:22:35.000Z</time>
      </trkpt>
      <trkpt lat="43.7603" lon="7.07414">
        <ele>945</ele>
        <time>2022-09-21T12:23:44.000Z</time>
      </trkpt>
      <trkpt lat="43.7603" lon="7.07414">
        <ele>945</ele>
        <time>2022-09-21T12:23:45.000Z</time>
      </trkpt>
      <trkpt lat="43.7603" lon="7.07414">
        <ele>949.2</ele>
        <time>2022-09-21T12:30:19.000Z</time>
      </trkpt>
      <trkpt lat="43.7603" lon="7.07414">
        <ele>949.3</ele>
        <time>2022-09-21T12:30:20.000Z</time>
      </trkpt>
      <trkpt lat="43.7603" lon="7.07414">
        <ele>949.5</ele>
        <time>2022-09-21T12:30:51.000Z</time>
      </trkpt>
      <trkpt lat="43.7603" lon="7.07414">
        <ele>949.5</ele>
        <time>2022-09-21T12:30:52.000Z</time>
      </trkpt>
      <trkpt lat="43.7603" lon="7.07414">
        <ele>949.4</ele>
        <time>2022-09-21T12:31:01.000Z</time>
      </trkpt>
      <trkpt lat="43.7603" lon="7.07414">
        <ele>949.4</ele>
        <time>2022-09-21T12:31:02.000Z</time>
      </trkpt>
      <trkpt lat="43.7603" lon="7.07414">
        <ele>950.4</ele>
        <time>2022-09-21T12:32:07.000Z</time>
      </trkpt>
      <trkpt lat="43.7603" lon="7.07414">
        <ele>950.5</ele>
        <time>2022-09-21T12:32:08.000Z</time>
      </trkpt>
      <trkpt lat="43.7603" lon="7.07415">
        <ele>950.2</ele>
        <time>2022-09-21T12:32:15.000Z</time>
      </trkpt>
      <trkpt lat="43.7603" lon="7.07416">
        <ele>950.2</ele>
        <time>2022-09-21T12:32:18.000Z</time>
      </trkpt>
      <trkpt lat="43.7603" lon="7.07416">
        <ele>950.1</ele>
        <time>2022-09-21T12:32:19.000Z</time>
      </trkpt>
      <trkpt lat="43.7603" lon="7.07416">
        <ele>950.1</ele>
        <time>2022-09-21T12:32:20.000Z</time>
      </trkpt>
      <trkpt lat="43.7603" lon="7.07416">
        <ele>950.1</ele>
        <time>2022-09-21T12:32:21.000Z</time>
      </trkpt>
      <trkpt lat="43.7603" lon="7.07415">
        <ele>950.2</ele>
        <time>2022-09-21T12:32:22.000Z</time>
      </trkpt>
      <trkpt lat="43.7603" lon="7.07416">
        <ele>950.1</ele>
        <time>2022-09-21T12:32:24.000Z</time>
      </trkpt>
      <trkpt lat="43.7603" lon="7.07416">
        <ele>950.2</ele>
        <time>2022-09-21T12:32:25.000Z</time>
      </trkpt>
      <trkpt lat="43.76029" lon="7.07416">
        <ele>950.3</ele>
        <time>2022-09-21T12:32:30.000Z</time>
      </trkpt>
      <trkpt lat="43.76035" lon="7.07414">
        <ele>950.6</ele>
        <time>2022-09-21T12:32:36.000Z</time>
      </trkpt>
      <trkpt lat="43.7604" lon="7.07413">
        <ele>950</ele>
        <time>2022-09-21T12:32:38.000Z</time>
      </trkpt>
      <trkpt lat="43.76045" lon="7.07412">
        <ele>950</ele>
        <time>2022-09-21T12:32:41.000Z</time>
      </trkpt>
      <trkpt lat="43.7605" lon="7.07411">
        <ele>949.7</ele>
        <time>2022-09-21T12:32:45.000Z</time>
      </trkpt>
      <trkpt lat="43.76054" lon="7.07408">
        <ele>949.7</ele>
        <time>2022-09-21T12:32:47.000Z</time>
      </trkpt>
      <trkpt lat="43.7606" lon="7.07406">
        <ele>949.9</ele>
        <time>2022-09-21T12:32:50.000Z</time>
      </trkpt>
      <trkpt lat="43.76067" lon="7.07404">
        <ele>949.6</ele>
        <time>2022-09-21T12:32:53.000Z</time>
      </trkpt>
      <trkpt lat="43.76073" lon="7.07404">
        <ele>949.5</ele>
        <time>2022-09-21T12:32:55.000Z</time>
      </trkpt>
      <trkpt lat="43.76078" lon="7.07405">
        <ele>948.8</ele>
        <time>2022-09-21T12:32:57.000Z</time>
      </trkpt>
      <trkpt lat="43.76084" lon="7.07405">
        <ele>948.8</ele>
        <time>2022-09-21T12:33:00.000Z</time>
      </trkpt>
      <trkpt lat="43.7609" lon="7.07408">
        <ele>948.9</ele>
        <time>2022-09-21T12:33:03.000Z</time>
      </trkpt>
      <trkpt lat="43.76096" lon="7.0741">
        <ele>949.2</ele>
        <time>2022-09-21T12:33:06.000Z</time>
      </trkpt>
      <trkpt lat="43.76102" lon="7.07412">
        <ele>948.8</ele>
        <time>2022-09-21T12:33:09.000Z</time>
      </trkpt>
      <trkpt lat="43.76108" lon="7.07407">
        <ele>948.4</ele>
        <time>2022-09-21T12:33:12.000Z</time>
      </trkpt>
      <trkpt lat="43.7611" lon="7.07398">
        <ele>948.3</ele>
        <time>2022-09-21T12:33:14.000Z</time>
      </trkpt>
      <trkpt lat="43.76113" lon="7.0739">
        <ele>947.5</ele>
        <time>2022-09-21T12:33:16.000Z</time>
      </trkpt>
      <trkpt lat="43.76119" lon="7.07379">
        <ele>946.9</ele>
        <time>2022-09-21T12:33:18.000Z</time>
      </trkpt>
      <trkpt lat="43.76121" lon="7.07374">
        <ele>946.7</ele>
        <time>2022-09-21T12:33:19.000Z</time>
      </trkpt>
      <trkpt lat="43.76123" lon="7.07367">
        <ele>946.2</ele>
        <time>2022-09-21T12:33:20.000Z</time>
      </trkpt>
      <trkpt lat="43.76125" lon="7.0736">
        <ele>946.3</ele>
        <time>2022-09-21T12:33:21.000Z</time>
      </trkpt>
      <trkpt lat="43.76125" lon="7.07352">
        <ele>945.8</ele>
        <time>2022-09-21T12:33:22.000Z</time>
      </trkpt>
      <trkpt lat="43.76126" lon="7.07345">
        <ele>945.6</ele>
        <time>2022-09-21T12:33:23.000Z</time>
      </trkpt>
      <trkpt lat="43.76126" lon="7.07338">
        <ele>945.6</ele>
        <time>2022-09-21T12:33:24.000Z</time>
      </trkpt>
      <trkpt lat="43.76127" lon="7.07331">
        <ele>946.1</ele>
        <time>2022-09-21T12:33:25.000Z</time>
      </trkpt>
      <trkpt lat="43.76128" lon="7.07324">
        <ele>945.7</ele>
        <time>2022-09-21T12:33:26.000Z</time>
      </trkpt>
      <trkpt lat="43.76129" lon="7.07317">
        <ele>945.2</ele>
        <time>2022-09-21T12:33:27.000Z</time>
      </trkpt>
      <trkpt lat="43.76129" lon="7.07309">
        <ele>943.8</ele>
        <time>2022-09-21T12:33:28.000Z</time>
      </trkpt>
      <trkpt lat="43.7613" lon="7.07301">
        <ele>943.7</ele>
        <time>2022-09-21T12:33:29.000Z</time>
      </trkpt>
      <trkpt lat="43.7613" lon="7.07292">
        <ele>943.2</ele>
        <time>2022-09-21T12:33:30.000Z</time>
      </trkpt>
      <trkpt lat="43.7613" lon="7.07283">
        <ele>942.1</ele>
        <time>2022-09-21T12:33:31.000Z</time>
      </trkpt>
      <trkpt lat="43.76129" lon="7.07275">
        <ele>941</ele>
        <time>2022-09-21T12:33:32.000Z</time>
      </trkpt>
      <trkpt lat="43.76128" lon="7.07266">
        <ele>941.2</ele>
        <time>2022-09-21T12:33:33.000Z</time>
      </trkpt>
      <trkpt lat="43.76126" lon="7.07259">
        <ele>941</ele>
        <time>2022-09-21T12:33:34.000Z</time>
      </trkpt>
      <trkpt lat="43.7612" lon="7.07252">
        <ele>941.5</ele>
        <time>2022-09-21T12:33:36.000Z</time>
      </trkpt>
      <trkpt lat="43.76116" lon="7.07249">
        <ele>942.2</ele>
        <time>2022-09-21T12:33:38.000Z</time>
      </trkpt>
      <trkpt lat="43.76112" lon="7.07245">
        <ele>941.7</ele>
        <time>2022-09-21T12:33:40.000Z</time>
      </trkpt>
      <trkpt lat="43.76107" lon="7.07242">
        <ele>942.4</ele>
        <time>2022-09-21T12:33:42.000Z</time>
      </trkpt>
      <trkpt lat="43.76102" lon="7.07241">
        <ele>943.4</ele>
        <time>2022-09-21T12:33:44.000Z</time>
      </trkpt>
      <trkpt lat="43.76097" lon="7.07241">
        <ele>943.9</ele>
        <time>2022-09-21T12:33:46.000Z</time>
      </trkpt>
      <trkpt lat="43.76091" lon="7.07239">
        <ele>944.6</ele>
        <time>2022-09-21T12:33:49.000Z</time>
      </trkpt>
      <trkpt lat="43.76086" lon="7.07234">
        <ele>944.9</ele>
        <time>2022-09-21T12:33:52.000Z</time>
      </trkpt>
      <trkpt lat="43.76081" lon="7.07231">
        <ele>945</ele>
        <time>2022-09-21T12:33:55.000Z</time>
      </trkpt>
      <trkpt lat="43.76077" lon="7.07229">
        <ele>945.3</ele>
        <time>2022-09-21T12:33:57.000Z</time>
      </trkpt>
      <trkpt lat="43.76071" lon="7.07228">
        <ele>945.9</ele>
        <time>2022-09-21T12:33:59.000Z</time>
      </trkpt>
      <trkpt lat="43.76067" lon="7.07228">
        <ele>946.4</ele>
        <time>2022-09-21T12:34:01.000Z</time>
      </trkpt>
      <trkpt lat="43.76061" lon="7.07227">
        <ele>946.7</ele>
        <time>2022-09-21T12:34:04.000Z</time>
      </trkpt>
      <trkpt lat="43.76055" lon="7.07224">
        <ele>947.3</ele>
        <time>2022-09-21T12:34:07.000Z</time>
      </trkpt>
      <trkpt lat="43.7605" lon="7.07228">
        <ele>947.9</ele>
        <time>2022-09-21T12:34:11.000Z</time>
      </trkpt>
      <trkpt lat="43.76045" lon="7.07231">
        <ele>948.6</ele>
        <time>2022-09-21T12:34:14.000Z</time>
      </trkpt>
      <trkpt lat="43.7604" lon="7.07233">
        <ele>948.9</ele>
        <time>2022-09-21T12:34:17.000Z</time>
      </trkpt>
      <trkpt lat="43.76035" lon="7.07233">
        <ele>949.8</ele>
        <time>2022-09-21T12:34:20.000Z</time>
      </trkpt>
      <trkpt lat="43.76029" lon="7.07235">
        <ele>950</ele>
        <time>2022-09-21T12:34:23.000Z</time>
      </trkpt>
      <trkpt lat="43.76024" lon="7.07238">
        <ele>950.2</ele>
        <time>2022-09-21T12:34:26.000Z</time>
      </trkpt>
      <trkpt lat="43.76019" lon="7.07238">
        <ele>950.6</ele>
        <time>2022-09-21T12:34:29.000Z</time>
      </trkpt>
      <trkpt lat="43.76013" lon="7.07235">
        <ele>951.3</ele>
        <time>2022-09-21T12:34:32.000Z</time>
      </trkpt>
      <trkpt lat="43.7601" lon="7.07228">
        <ele>951.5</ele>
        <time>2022-09-21T12:34:35.000Z</time>
      </trkpt>
      <trkpt lat="43.76009" lon="7.07221">
        <ele>951.3</ele>
        <time>2022-09-21T12:34:37.000Z</time>
      </trkpt>
      <trkpt lat="43.76009" lon="7.07215">
        <ele>951.5</ele>
        <time>2022-09-21T12:34:39.000Z</time>
      </trkpt>
      <trkpt lat="43.76011" lon="7.07206">
        <ele>951.4</ele>
        <time>2022-09-21T12:34:42.000Z</time>
      </trkpt>
      <trkpt lat="43.76011" lon="7.072">
        <ele>951.9</ele>
        <time>2022-09-21T12:34:44.000Z</time>
      </trkpt>
      <trkpt lat="43.76008" lon="7.07192">
        <ele>951.7</ele>
        <time>2022-09-21T12:34:47.000Z</time>
      </trkpt>
      <trkpt lat="43.76005" lon="7.07189">
        <ele>952.2</ele>
        <time>2022-09-21T12:34:49.000Z</time>
      </trkpt>
      <trkpt lat="43.76" lon="7.07184">
        <ele>952</ele>
        <time>2022-09-21T12:34:52.000Z</time>
      </trkpt>
      <trkpt lat="43.75995" lon="7.07179">
        <ele>952.8</ele>
        <time>2022-09-21T12:34:55.000Z</time>
      </trkpt>
      <trkpt lat="43.75991" lon="7.07176">
        <ele>952.7</ele>
        <time>2022-09-21T12:34:58.000Z</time>
      </trkpt>
      <trkpt lat="43.75987" lon="7.07172">
        <ele>953.6</ele>
        <time>2022-09-21T12:35:01.000Z</time>
      </trkpt>
      <trkpt lat="43.7598" lon="7.07169">
        <ele>953.3</ele>
        <time>2022-09-21T12:35:04.000Z</time>
      </trkpt>
      <trkpt lat="43.75975" lon="7.07168">
        <ele>954</ele>
        <time>2022-09-21T12:35:07.000Z</time>
      </trkpt>
      <trkpt lat="43.7597" lon="7.07164">
        <ele>954.4</ele>
        <time>2022-09-21T12:35:10.000Z</time>
      </trkpt>
      <trkpt lat="43.75964" lon="7.07161">
        <ele>954.8</ele>
        <time>2022-09-21T12:35:13.000Z</time>
      </trkpt>
      <trkpt lat="43.7596" lon="7.07153">
        <ele>954.3</ele>
        <time>2022-09-21T12:35:16.000Z</time>
      </trkpt>
      <trkpt lat="43.75957" lon="7.07147">
        <ele>954.5</ele>
        <time>2022-09-21T12:35:18.000Z</time>
      </trkpt>
      <trkpt lat="43.75954" lon="7.07141">
        <ele>954.4</ele>
        <time>2022-09-21T12:35:20.000Z</time>
      </trkpt>
      <trkpt lat="43.75951" lon="7.07135">
        <ele>954.4</ele>
        <time>2022-09-21T12:35:22.000Z</time>
      </trkpt>
      <trkpt lat="43.75948" lon="7.07127">
        <ele>954.2</ele>
        <time>2022-09-21T12:35:24.000Z</time>
      </trkpt>
      <trkpt lat="43.75944" lon="7.07119">
        <ele>954.2</ele>
        <time>2022-09-21T12:35:26.000Z</time>
      </trkpt>
      <trkpt lat="43.75941" lon="7.07112">
        <ele>954.6</ele>
        <time>2022-09-21T12:35:28.000Z</time>
      </trkpt>
      <trkpt lat="43.75938" lon="7.07104">
        <ele>954.4</ele>
        <time>2022-09-21T12:35:30.000Z</time>
      </trkpt>
      <trkpt lat="43.75935" lon="7.07097">
        <ele>954.1</ele>
        <time>2022-09-21T12:35:32.000Z</time>
      </trkpt>
      <trkpt lat="43.75932" lon="7.07089">
        <ele>954.2</ele>
        <time>2022-09-21T12:35:34.000Z</time>
      </trkpt>
      <trkpt lat="43.75929" lon="7.07082">
        <ele>954.4</ele>
        <time>2022-09-21T12:35:36.000Z</time>
      </trkpt>
      <trkpt lat="43.75927" lon="7.07076">
        <ele>954.6</ele>
        <time>2022-09-21T12:35:38.000Z</time>
      </trkpt>
      <trkpt lat="43.75924" lon="7.0707">
        <ele>954.8</ele>
        <time>2022-09-21T12:35:40.000Z</time>
      </trkpt>
      <trkpt lat="43.75924" lon="7.07063">
        <ele>954.8</ele>
        <time>2022-09-21T12:35:42.000Z</time>
      </trkpt>
      <trkpt lat="43.75926" lon="7.07053">
        <ele>952.8</ele>
        <time>2022-09-21T12:35:44.000Z</time>
      </trkpt>
      <trkpt lat="43.75929" lon="7.07042">
        <ele>953.2</ele>
        <time>2022-09-21T12:35:46.000Z</time>
      </trkpt>
      <trkpt lat="43.75934" lon="7.07037">
        <ele>952.4</ele>
        <time>2022-09-21T12:35:48.000Z</time>
      </trkpt>
      <trkpt lat="43.75938" lon="7.07034">
        <ele>953.1</ele>
        <time>2022-09-21T12:35:50.000Z</time>
      </trkpt>
      <trkpt lat="43.75939" lon="7.07027">
        <ele>953.3</ele>
        <time>2022-09-21T12:35:56.000Z</time>
      </trkpt>
      <trkpt lat="43.75936" lon="7.07021">
        <ele>954.6</ele>
        <time>2022-09-21T12:36:02.000Z</time>
      </trkpt>
      <trkpt lat="43.75931" lon="7.07018">
        <ele>955.9</ele>
        <time>2022-09-21T12:36:07.000Z</time>
      </trkpt>
      <trkpt lat="43.75926" lon="7.07014">
        <ele>956.5</ele>
        <time>2022-09-21T12:36:14.000Z</time>
      </trkpt>
      <trkpt lat="43.75921" lon="7.07015">
        <ele>958</ele>
        <time>2022-09-21T12:36:22.000Z</time>
      </trkpt>
      <trkpt lat="43.75916" lon="7.07011">
        <ele>958.4</ele>
        <time>2022-09-21T12:36:26.000Z</time>
      </trkpt>
      <trkpt lat="43.75915" lon="7.07004">
        <ele>958.3</ele>
        <time>2022-09-21T12:36:30.000Z</time>
      </trkpt>
      <trkpt lat="43.75918" lon="7.06999">
        <ele>958.2</ele>
        <time>2022-09-21T12:36:32.000Z</time>
      </trkpt>
      <trkpt lat="43.75922" lon="7.06994">
        <ele>958.5</ele>
        <time>2022-09-21T12:36:34.000Z</time>
      </trkpt>
      <trkpt lat="43.75924" lon="7.06988">
        <ele>957.2</ele>
        <time>2022-09-21T12:36:36.000Z</time>
      </trkpt>
      <trkpt lat="43.75925" lon="7.0698">
        <ele>957.3</ele>
        <time>2022-09-21T12:36:38.000Z</time>
      </trkpt>
      <trkpt lat="43.75925" lon="7.0697">
        <ele>957.5</ele>
        <time>2022-09-21T12:36:40.000Z</time>
      </trkpt>
      <trkpt lat="43.75923" lon="7.0696">
        <ele>957.1</ele>
        <time>2022-09-21T12:36:42.000Z</time>
      </trkpt>
      <trkpt lat="43.75921" lon="7.06951">
        <ele>955.9</ele>
        <time>2022-09-21T12:36:44.000Z</time>
      </trkpt>
      <trkpt lat="43.75919" lon="7.06941">
        <ele>955.8</ele>
        <time>2022-09-21T12:36:46.000Z</time>
      </trkpt>
      <trkpt lat="43.75914" lon="7.06933">
        <ele>955.7</ele>
        <time>2022-09-21T12:36:48.000Z</time>
      </trkpt>
      <trkpt lat="43.75908" lon="7.06929">
        <ele>955.6</ele>
        <time>2022-09-21T12:36:50.000Z</time>
      </trkpt>
      <trkpt lat="43.75902" lon="7.06927">
        <ele>955.7</ele>
        <time>2022-09-21T12:36:52.000Z</time>
      </trkpt>
      <trkpt lat="43.75897" lon="7.06925">
        <ele>955.7</ele>
        <time>2022-09-21T12:36:54.000Z</time>
      </trkpt>
      <trkpt lat="43.75891" lon="7.06923">
        <ele>955.7</ele>
        <time>2022-09-21T12:36:56.000Z</time>
      </trkpt>
      <trkpt lat="43.75885" lon="7.06923">
        <ele>956.1</ele>
        <time>2022-09-21T12:36:58.000Z</time>
      </trkpt>
      <trkpt lat="43.75879" lon="7.06921">
        <ele>956.4</ele>
        <time>2022-09-21T12:37:00.000Z</time>
      </trkpt>
      <trkpt lat="43.75874" lon="7.06917">
        <ele>955.9</ele>
        <time>2022-09-21T12:37:02.000Z</time>
      </trkpt>
      <trkpt lat="43.75868" lon="7.06915">
        <ele>956.4</ele>
        <time>2022-09-21T12:37:04.000Z</time>
      </trkpt>
      <trkpt lat="43.75862" lon="7.06914">
        <ele>956.8</ele>
        <time>2022-09-21T12:37:07.000Z</time>
      </trkpt>
      <trkpt lat="43.75856" lon="7.06916">
        <ele>956.6</ele>
        <time>2022-09-21T12:37:09.000Z</time>
      </trkpt>
      <trkpt lat="43.7585" lon="7.06919">
        <ele>957.2</ele>
        <time>2022-09-21T12:37:11.000Z</time>
      </trkpt>
      <trkpt lat="43.75842" lon="7.06919">
        <ele>957.3</ele>
        <time>2022-09-21T12:37:13.000Z</time>
      </trkpt>
      <trkpt lat="43.75836" lon="7.06913">
        <ele>957.1</ele>
        <time>2022-09-21T12:37:15.000Z</time>
      </trkpt>
      <trkpt lat="43.75832" lon="7.06904">
        <ele>956.9</ele>
        <time>2022-09-21T12:37:17.000Z</time>
      </trkpt>
      <trkpt lat="43.75828" lon="7.06896">
        <ele>956.6</ele>
        <time>2022-09-21T12:37:19.000Z</time>
      </trkpt>
      <trkpt lat="43.75822" lon="7.06889">
        <ele>955.8</ele>
        <time>2022-09-21T12:37:21.000Z</time>
      </trkpt>
      <trkpt lat="43.75815" lon="7.06882">
        <ele>955.6</ele>
        <time>2022-09-21T12:37:23.000Z</time>
      </trkpt>
      <trkpt lat="43.75812" lon="7.06877">
        <ele>954.9</ele>
        <time>2022-09-21T12:37:24.000Z</time>
      </trkpt>
      <trkpt lat="43.75808" lon="7.06873">
        <ele>954.9</ele>
        <time>2022-09-21T12:37:25.000Z</time>
      </trkpt>
      <trkpt lat="43.75805" lon="7.06869">
        <ele>955.1</ele>
        <time>2022-09-21T12:37:26.000Z</time>
      </trkpt>
      <trkpt lat="43.75799" lon="7.06861">
        <ele>955.4</ele>
        <time>2022-09-21T12:37:28.000Z</time>
      </trkpt>
      <trkpt lat="43.75794" lon="7.06856">
        <ele>957</ele>
        <time>2022-09-21T12:37:30.000Z</time>
      </trkpt>
      <trkpt lat="43.75788" lon="7.06855">
        <ele>956.9</ele>
        <time>2022-09-21T12:37:32.000Z</time>
      </trkpt>
      <trkpt lat="43.7578" lon="7.06854">
        <ele>957.8</ele>
        <time>2022-09-21T12:37:34.000Z</time>
      </trkpt>
      <trkpt lat="43.75773" lon="7.06853">
        <ele>958</ele>
        <time>2022-09-21T12:37:36.000Z</time>
      </trkpt>
      <trkpt lat="43.75766" lon="7.06852">
        <ele>957.3</ele>
        <time>2022-09-21T12:37:38.000Z</time>
      </trkpt>
      <trkpt lat="43.75761" lon="7.06851">
        <ele>957</ele>
        <time>2022-09-21T12:37:40.000Z</time>
      </trkpt>
      <trkpt lat="43.75756" lon="7.06848">
        <ele>957.5</ele>
        <time>2022-09-21T12:37:42.000Z</time>
      </trkpt>
      <trkpt lat="43.7575" lon="7.06846">
        <ele>957.2</ele>
        <time>2022-09-21T12:37:44.000Z</time>
      </trkpt>
      <trkpt lat="43.75745" lon="7.06845">
        <ele>957.5</ele>
        <time>2022-09-21T12:37:46.000Z</time>
      </trkpt>
      <trkpt lat="43.7574" lon="7.06843">
        <ele>957.3</ele>
        <time>2022-09-21T12:37:48.000Z</time>
      </trkpt>
      <trkpt lat="43.75733" lon="7.0684">
        <ele>957</ele>
        <time>2022-09-21T12:37:50.000Z</time>
      </trkpt>
      <trkpt lat="43.75725" lon="7.06836">
        <ele>955.4</ele>
        <time>2022-09-21T12:37:52.000Z</time>
      </trkpt>
      <trkpt lat="43.7572" lon="7.06833">
        <ele>954.9</ele>
        <time>2022-09-21T12:37:53.000Z</time>
      </trkpt>
      <trkpt lat="43.75717" lon="7.06828">
        <ele>954.9</ele>
        <time>2022-09-21T12:37:54.000Z</time>
      </trkpt>
      <trkpt lat="43.75714" lon="7.06821">
        <ele>953.9</ele>
        <time>2022-09-21T12:37:55.000Z</time>
      </trkpt>
      <trkpt lat="43.75713" lon="7.06814">
        <ele>953.4</ele>
        <time>2022-09-21T12:37:56.000Z</time>
      </trkpt>
      <trkpt lat="43.75711" lon="7.06807">
        <ele>952.8</ele>
        <time>2022-09-21T12:37:57.000Z</time>
      </trkpt>
      <trkpt lat="43.75709" lon="7.06799">
        <ele>951.8</ele>
        <time>2022-09-21T12:37:58.000Z</time>
      </trkpt>
      <trkpt lat="43.75705" lon="7.06792">
        <ele>950.6</ele>
        <time>2022-09-21T12:37:59.000Z</time>
      </trkpt>
      <trkpt lat="43.757" lon="7.06786">
        <ele>949.9</ele>
        <time>2022-09-21T12:38:00.000Z</time>
      </trkpt>
      <trkpt lat="43.75696" lon="7.0678">
        <ele>950.4</ele>
        <time>2022-09-21T12:38:01.000Z</time>
      </trkpt>
      <trkpt lat="43.75693" lon="7.06774">
        <ele>950.8</ele>
        <time>2022-09-21T12:38:02.000Z</time>
      </trkpt>
      <trkpt lat="43.75689" lon="7.06768">
        <ele>950.9</ele>
        <time>2022-09-21T12:38:03.000Z</time>
      </trkpt>
      <trkpt lat="43.75686" lon="7.06762">
        <ele>950.3</ele>
        <time>2022-09-21T12:38:04.000Z</time>
      </trkpt>
      <trkpt lat="43.75682" lon="7.06756">
        <ele>950</ele>
        <time>2022-09-21T12:38:05.000Z</time>
      </trkpt>
      <trkpt lat="43.75678" lon="7.06749">
        <ele>949.7</ele>
        <time>2022-09-21T12:38:06.000Z</time>
      </trkpt>
      <trkpt lat="43.75674" lon="7.06743">
        <ele>949.5</ele>
        <time>2022-09-21T12:38:07.000Z</time>
      </trkpt>
      <trkpt lat="43.75669" lon="7.06737">
        <ele>949.7</ele>
        <time>2022-09-21T12:38:08.000Z</time>
      </trkpt>
      <trkpt lat="43.75666" lon="7.0673">
        <ele>949.4</ele>
        <time>2022-09-21T12:38:09.000Z</time>
      </trkpt>
      <trkpt lat="43.75664" lon="7.06724">
        <ele>948.1</ele>
        <time>2022-09-21T12:38:10.000Z</time>
      </trkpt>
      <trkpt lat="43.75662" lon="7.06713">
        <ele>947.5</ele>
        <time>2022-09-21T12:38:12.000Z</time>
      </trkpt>
      <trkpt lat="43.75658" lon="7.06703">
        <ele>947.3</ele>
        <time>2022-09-21T12:38:14.000Z</time>
      </trkpt>
      <trkpt lat="43.75653" lon="7.06696">
        <ele>946.6</ele>
        <time>2022-09-21T12:38:16.000Z</time>
      </trkpt>
      <trkpt lat="43.75648" lon="7.0669">
        <ele>947</ele>
        <time>2022-09-21T12:38:18.000Z</time>
      </trkpt>
      <trkpt lat="43.75643" lon="7.06681">
        <ele>947.1</ele>
        <time>2022-09-21T12:38:20.000Z</time>
      </trkpt>
      <trkpt lat="43.75639" lon="7.06671">
        <ele>947</ele>
        <time>2022-09-21T12:38:22.000Z</time>
      </trkpt>
      <trkpt lat="43.75635" lon="7.06662">
        <ele>947.5</ele>
        <time>2022-09-21T12:38:24.000Z</time>
      </trkpt>
      <trkpt lat="43.75631" lon="7.06654">
        <ele>948.7</ele>
        <time>2022-09-21T12:38:26.000Z</time>
      </trkpt>
      <trkpt lat="43.75626" lon="7.06648">
        <ele>950</ele>
        <time>2022-09-21T12:38:28.000Z</time>
      </trkpt>
      <trkpt lat="43.75622" lon="7.06642">
        <ele>950.1</ele>
        <time>2022-09-21T12:38:30.000Z</time>
      </trkpt>
      <trkpt lat="43.75617" lon="7.06636">
        <ele>949.9</ele>
        <time>2022-09-21T12:38:32.000Z</time>
      </trkpt>
      <trkpt lat="43.75613" lon="7.0663">
        <ele>950.1</ele>
        <time>2022-09-21T12:38:34.000Z</time>
      </trkpt>
      <trkpt lat="43.75609" lon="7.06624">
        <ele>950.8</ele>
        <time>2022-09-21T12:38:36.000Z</time>
      </trkpt>
      <trkpt lat="43.75605" lon="7.06619">
        <ele>951.1</ele>
        <time>2022-09-21T12:38:38.000Z</time>
      </trkpt>
      <trkpt lat="43.75601" lon="7.06616">
        <ele>951.7</ele>
        <time>2022-09-21T12:38:40.000Z</time>
      </trkpt>
      <trkpt lat="43.75597" lon="7.06612">
        <ele>952.3</ele>
        <time>2022-09-21T12:38:42.000Z</time>
      </trkpt>
      <trkpt lat="43.75593" lon="7.06605">
        <ele>952.9</ele>
        <time>2022-09-21T12:38:45.000Z</time>
      </trkpt>
      <trkpt lat="43.75589" lon="7.06601">
        <ele>953.5</ele>
        <time>2022-09-21T12:38:48.000Z</time>
      </trkpt>
      <trkpt lat="43.75585" lon="7.06597">
        <ele>954</ele>
        <time>2022-09-21T12:38:51.000Z</time>
      </trkpt>
      <trkpt lat="43.75581" lon="7.0659">
        <ele>954.6</ele>
        <time>2022-09-21T12:38:54.000Z</time>
      </trkpt>
      <trkpt lat="43.75577" lon="7.06587">
        <ele>954.8</ele>
        <time>2022-09-21T12:38:56.000Z</time>
      </trkpt>
      <trkpt lat="43.75573" lon="7.06581">
        <ele>955.2</ele>
        <time>2022-09-21T12:38:59.000Z</time>
      </trkpt>
      <trkpt lat="43.75568" lon="7.06575">
        <ele>955.8</ele>
        <time>2022-09-21T12:39:02.000Z</time>
      </trkpt>
      <trkpt lat="43.75564" lon="7.0657">
        <ele>956.4</ele>
        <time>2022-09-21T12:39:05.000Z</time>
      </trkpt>
      <trkpt lat="43.7556" lon="7.06562">
        <ele>956.4</ele>
        <time>2022-09-21T12:39:08.000Z</time>
      </trkpt>
      <trkpt lat="43.75557" lon="7.06557">
        <ele>956.9</ele>
        <time>2022-09-21T12:39:10.000Z</time>
      </trkpt>
      <trkpt lat="43.75553" lon="7.06551">
        <ele>957.6</ele>
        <time>2022-09-21T12:39:13.000Z</time>
      </trkpt>
      <trkpt lat="43.75548" lon="7.06545">
        <ele>957.8</ele>
        <time>2022-09-21T12:39:16.000Z</time>
      </trkpt>
      <trkpt lat="43.75544" lon="7.0654">
        <ele>957.6</ele>
        <time>2022-09-21T12:39:18.000Z</time>
      </trkpt>
      <trkpt lat="43.75541" lon="7.06533">
        <ele>957</ele>
        <time>2022-09-21T12:39:20.000Z</time>
      </trkpt>
      <trkpt lat="43.75538" lon="7.06523">
        <ele>956.7</ele>
        <time>2022-09-21T12:39:22.000Z</time>
      </trkpt>
      <trkpt lat="43.75534" lon="7.06513">
        <ele>955.8</ele>
        <time>2022-09-21T12:39:24.000Z</time>
      </trkpt>
      <trkpt lat="43.75529" lon="7.06503">
        <ele>955.9</ele>
        <time>2022-09-21T12:39:26.000Z</time>
      </trkpt>
      <trkpt lat="43.75525" lon="7.06494">
        <ele>955.7</ele>
        <time>2022-09-21T12:39:28.000Z</time>
      </trkpt>
      <trkpt lat="43.7552" lon="7.06488">
        <ele>956</ele>
        <time>2022-09-21T12:39:30.000Z</time>
      </trkpt>
      <trkpt lat="43.75516" lon="7.06484">
        <ele>955.8</ele>
        <time>2022-09-21T12:39:32.000Z</time>
      </trkpt>
      <trkpt lat="43.75512" lon="7.06479">
        <ele>955.6</ele>
        <time>2022-09-21T12:39:34.000Z</time>
      </trkpt>
      <trkpt lat="43.75507" lon="7.06474">
        <ele>955.5</ele>
        <time>2022-09-21T12:39:36.000Z</time>
      </trkpt>
      <trkpt lat="43.75502" lon="7.06469">
        <ele>955.4</ele>
        <time>2022-09-21T12:39:38.000Z</time>
      </trkpt>
      <trkpt lat="43.75496" lon="7.06465">
        <ele>955.7</ele>
        <time>2022-09-21T12:39:40.000Z</time>
      </trkpt>
      <trkpt lat="43.75491" lon="7.0646">
        <ele>956.2</ele>
        <time>2022-09-21T12:39:42.000Z</time>
      </trkpt>
      <trkpt lat="43.75487" lon="7.06455">
        <ele>956.6</ele>
        <time>2022-09-21T12:39:44.000Z</time>
      </trkpt>
      <trkpt lat="43.75484" lon="7.0645">
        <ele>956.7</ele>
        <time>2022-09-21T12:39:46.000Z</time>
      </trkpt>
      <trkpt lat="43.7548" lon="7.06445">
        <ele>956.9</ele>
        <time>2022-09-21T12:39:48.000Z</time>
      </trkpt>
      <trkpt lat="43.75476" lon="7.06442">
        <ele>957.6</ele>
        <time>2022-09-21T12:39:50.000Z</time>
      </trkpt>
      <trkpt lat="43.7547" lon="7.06439">
        <ele>958.2</ele>
        <time>2022-09-21T12:39:53.000Z</time>
      </trkpt>
      <trkpt lat="43.75463" lon="7.06437">
        <ele>958.3</ele>
        <time>2022-09-21T12:39:56.000Z</time>
      </trkpt>
      <trkpt lat="43.75459" lon="7.06436">
        <ele>959.1</ele>
        <time>2022-09-21T12:39:59.000Z</time>
      </trkpt>
      <trkpt lat="43.75453" lon="7.06434">
        <ele>959.6</ele>
        <time>2022-09-21T12:40:02.000Z</time>
      </trkpt>
      <trkpt lat="43.75448" lon="7.06434">
        <ele>959.7</ele>
        <time>2022-09-21T12:40:04.000Z</time>
      </trkpt>
      <trkpt lat="43.75443" lon="7.06433">
        <ele>960.5</ele>
        <time>2022-09-21T12:40:06.000Z</time>
      </trkpt>
      <trkpt lat="43.75438" lon="7.06435">
        <ele>960.2</ele>
        <time>2022-09-21T12:40:08.000Z</time>
      </trkpt>
      <trkpt lat="43.75433" lon="7.06438">
        <ele>960.5</ele>
        <time>2022-09-21T12:40:10.000Z</time>
      </trkpt>
      <trkpt lat="43.75428" lon="7.0644">
        <ele>960</ele>
        <time>2022-09-21T12:40:12.000Z</time>
      </trkpt>
      <trkpt lat="43.75422" lon="7.06441">
        <ele>959.1</ele>
        <time>2022-09-21T12:40:14.000Z</time>
      </trkpt>
      <trkpt lat="43.75417" lon="7.06443">
        <ele>959.2</ele>
        <time>2022-09-21T12:40:16.000Z</time>
      </trkpt>
      <trkpt lat="43.75412" lon="7.06445">
        <ele>959.9</ele>
        <time>2022-09-21T12:40:18.000Z</time>
      </trkpt>
      <trkpt lat="43.75406" lon="7.06445">
        <ele>959.7</ele>
        <time>2022-09-21T12:40:21.000Z</time>
      </trkpt>
      <trkpt lat="43.75401" lon="7.0644">
        <ele>959.3</ele>
        <time>2022-09-21T12:40:24.000Z</time>
      </trkpt>
      <trkpt lat="43.75397" lon="7.06437">
        <ele>959.5</ele>
        <time>2022-09-21T12:40:26.000Z</time>
      </trkpt>
      <trkpt lat="43.75392" lon="7.06437">
        <ele>959.1</ele>
        <time>2022-09-21T12:40:28.000Z</time>
      </trkpt>
      <trkpt lat="43.75387" lon="7.06438">
        <ele>959</ele>
        <time>2022-09-21T12:40:30.000Z</time>
      </trkpt>
      <trkpt lat="43.75382" lon="7.06437">
        <ele>959.4</ele>
        <time>2022-09-21T12:40:32.000Z</time>
      </trkpt>
      <trkpt lat="43.75376" lon="7.06436">
        <ele>960.4</ele>
        <time>2022-09-21T12:40:35.000Z</time>
      </trkpt>
      <trkpt lat="43.7537" lon="7.06434">
        <ele>961.7</ele>
        <time>2022-09-21T12:40:39.000Z</time>
      </trkpt>
      <trkpt lat="43.75367" lon="7.06428">
        <ele>962.8</ele>
        <time>2022-09-21T12:40:44.000Z</time>
      </trkpt>
      <trkpt lat="43.75364" lon="7.06421">
        <ele>962.8</ele>
        <time>2022-09-21T12:40:47.000Z</time>
      </trkpt>
      <trkpt lat="43.75363" lon="7.06414">
        <ele>963.4</ele>
        <time>2022-09-21T12:40:51.000Z</time>
      </trkpt>
      <trkpt lat="43.75361" lon="7.06409">
        <ele>963.9</ele>
        <time>2022-09-21T12:40:54.000Z</time>
      </trkpt>
      <trkpt lat="43.75358" lon="7.06402">
        <ele>964.4</ele>
        <time>2022-09-21T12:40:57.000Z</time>
      </trkpt>
      <trkpt lat="43.75353" lon="7.06398">
        <ele>964.7</ele>
        <time>2022-09-21T12:41:00.000Z</time>
      </trkpt>
      <trkpt lat="43.75347" lon="7.06398">
        <ele>965</ele>
        <time>2022-09-21T12:41:03.000Z</time>
      </trkpt>
      <trkpt lat="43.75341" lon="7.06397">
        <ele>965.3</ele>
        <time>2022-09-21T12:41:05.000Z</time>
      </trkpt>
      <trkpt lat="43.75336" lon="7.06397">
        <ele>965.5</ele>
        <time>2022-09-21T12:41:08.000Z</time>
      </trkpt>
      <trkpt lat="43.75331" lon="7.06399">
        <ele>965.8</ele>
        <time>2022-09-21T12:41:11.000Z</time>
      </trkpt>
      <trkpt lat="43.75326" lon="7.06399">
        <ele>965.7</ele>
        <time>2022-09-21T12:41:13.000Z</time>
      </trkpt>
      <trkpt lat="43.7532" lon="7.06398">
        <ele>966</ele>
        <time>2022-09-21T12:41:16.000Z</time>
      </trkpt>
      <trkpt lat="43.75314" lon="7.06395">
        <ele>965.7</ele>
        <time>2022-09-21T12:41:19.000Z</time>
      </trkpt>
      <trkpt lat="43.75309" lon="7.06393">
        <ele>966.7</ele>
        <time>2022-09-21T12:41:22.000Z</time>
      </trkpt>
      <trkpt lat="43.75303" lon="7.06392">
        <ele>966.9</ele>
        <time>2022-09-21T12:41:26.000Z</time>
      </trkpt>
      <trkpt lat="43.75297" lon="7.06392">
        <ele>967.5</ele>
        <time>2022-09-21T12:41:29.000Z</time>
      </trkpt>
      <trkpt lat="43.75291" lon="7.06389">
        <ele>968.4</ele>
        <time>2022-09-21T12:41:32.000Z</time>
      </trkpt>
      <trkpt lat="43.75287" lon="7.06386">
        <ele>968.7</ele>
        <time>2022-09-21T12:41:35.000Z</time>
      </trkpt>
      <trkpt lat="43.75283" lon="7.06381">
        <ele>968.9</ele>
        <time>2022-09-21T12:41:38.000Z</time>
      </trkpt>
      <trkpt lat="43.75278" lon="7.06378">
        <ele>969.8</ele>
        <time>2022-09-21T12:41:41.000Z</time>
      </trkpt>
      <trkpt lat="43.75272" lon="7.06375">
        <ele>968.9</ele>
        <time>2022-09-21T12:41:44.000Z</time>
      </trkpt>
      <trkpt lat="43.75267" lon="7.0637">
        <ele>969.1</ele>
        <time>2022-09-21T12:41:46.000Z</time>
      </trkpt>
      <trkpt lat="43.75262" lon="7.06365">
        <ele>968.7</ele>
        <time>2022-09-21T12:41:48.000Z</time>
      </trkpt>
      <trkpt lat="43.75258" lon="7.0636">
        <ele>968.2</ele>
        <time>2022-09-21T12:41:50.000Z</time>
      </trkpt>
      <trkpt lat="43.75253" lon="7.06354">
        <ele>968.5</ele>
        <time>2022-09-21T12:41:52.000Z</time>
      </trkpt>
      <trkpt lat="43.75248" lon="7.06348">
        <ele>968.2</ele>
        <time>2022-09-21T12:41:54.000Z</time>
      </trkpt>
      <trkpt lat="43.75245" lon="7.0634">
        <ele>967</ele>
        <time>2022-09-21T12:41:56.000Z</time>
      </trkpt>
      <trkpt lat="43.75242" lon="7.06332">
        <ele>966.8</ele>
        <time>2022-09-21T12:41:58.000Z</time>
      </trkpt>
      <trkpt lat="43.75238" lon="7.06323">
        <ele>965.9</ele>
        <time>2022-09-21T12:42:00.000Z</time>
      </trkpt>
      <trkpt lat="43.75234" lon="7.06312">
        <ele>965.3</ele>
        <time>2022-09-21T12:42:02.000Z</time>
      </trkpt>
      <trkpt lat="43.75232" lon="7.06307">
        <ele>965.2</ele>
        <time>2022-09-21T12:42:03.000Z</time>
      </trkpt>
      <trkpt lat="43.75228" lon="7.06297">
        <ele>965.8</ele>
        <time>2022-09-21T12:42:05.000Z</time>
      </trkpt>
      <trkpt lat="43.75225" lon="7.06289">
        <ele>965.9</ele>
        <time>2022-09-21T12:42:07.000Z</time>
      </trkpt>
      <trkpt lat="43.75227" lon="7.06281">
        <ele>966.8</ele>
        <time>2022-09-21T12:42:10.000Z</time>
      </trkpt>
      <trkpt lat="43.75228" lon="7.06272">
        <ele>967.7</ele>
        <time>2022-09-21T12:42:13.000Z</time>
      </trkpt>
      <trkpt lat="43.75229" lon="7.06265">
        <ele>967.9</ele>
        <time>2022-09-21T12:42:15.000Z</time>
      </trkpt>
      <trkpt lat="43.75228" lon="7.06258">
        <ele>968.1</ele>
        <time>2022-09-21T12:42:17.000Z</time>
      </trkpt>
      <trkpt lat="43.75227" lon="7.06252">
        <ele>968.6</ele>
        <time>2022-09-21T12:42:19.000Z</time>
      </trkpt>
      <trkpt lat="43.75227" lon="7.06242">
        <ele>968.9</ele>
        <time>2022-09-21T12:42:22.000Z</time>
      </trkpt>
      <trkpt lat="43.75226" lon="7.06236">
        <ele>968.7</ele>
        <time>2022-09-21T12:42:24.000Z</time>
      </trkpt>
      <trkpt lat="43.75225" lon="7.06229">
        <ele>968.9</ele>
        <time>2022-09-21T12:42:26.000Z</time>
      </trkpt>
      <trkpt lat="43.75225" lon="7.06224">
        <ele>969.1</ele>
        <time>2022-09-21T12:42:31.000Z</time>
      </trkpt>
      <trkpt lat="43.75225" lon="7.06224">
        <ele>969</ele>
        <time>2022-09-21T12:42:33.000Z</time>
      </trkpt>
      <trkpt lat="43.75225" lon="7.06224">
        <ele>968.9</ele>
        <time>2022-09-21T12:42:34.000Z</time>
      </trkpt>
      <trkpt lat="43.75224" lon="7.06223">
        <ele>969.1</ele>
        <time>2022-09-21T12:42:38.000Z</time>
      </trkpt>
      <trkpt lat="43.7522" lon="7.06217">
        <ele>968.3</ele>
        <time>2022-09-21T12:42:41.000Z</time>
      </trkpt>
      <trkpt lat="43.75214" lon="7.0621">
        <ele>967.1</ele>
        <time>2022-09-21T12:42:43.000Z</time>
      </trkpt>
      <trkpt lat="43.75209" lon="7.06201">
        <ele>966.3</ele>
        <time>2022-09-21T12:42:45.000Z</time>
      </trkpt>
      <trkpt lat="43.75206" lon="7.06195">
        <ele>966.1</ele>
        <time>2022-09-21T12:42:46.000Z</time>
      </trkpt>
      <trkpt lat="43.75202" lon="7.06189">
        <ele>965.3</ele>
        <time>2022-09-21T12:42:47.000Z</time>
      </trkpt>
      <trkpt lat="43.75198" lon="7.06183">
        <ele>965</ele>
        <time>2022-09-21T12:42:48.000Z</time>
      </trkpt>
      <trkpt lat="43.75193" lon="7.06178">
        <ele>964.1</ele>
        <time>2022-09-21T12:42:49.000Z</time>
      </trkpt>
      <trkpt lat="43.75188" lon="7.06173">
        <ele>963.4</ele>
        <time>2022-09-21T12:42:50.000Z</time>
      </trkpt>
      <trkpt lat="43.75184" lon="7.06168">
        <ele>963.4</ele>
        <time>2022-09-21T12:42:51.000Z</time>
      </trkpt>
      <trkpt lat="43.75181" lon="7.06163">
        <ele>962.9</ele>
        <time>2022-09-21T12:42:52.000Z</time>
      </trkpt>
      <trkpt lat="43.75176" lon="7.06153">
        <ele>961</ele>
        <time>2022-09-21T12:42:54.000Z</time>
      </trkpt>
      <trkpt lat="43.75172" lon="7.06148">
        <ele>960.7</ele>
        <time>2022-09-21T12:42:55.000Z</time>
      </trkpt>
      <trkpt lat="43.75167" lon="7.06145">
        <ele>960.6</ele>
        <time>2022-09-21T12:42:56.000Z</time>
      </trkpt>
      <trkpt lat="43.75163" lon="7.0614">
        <ele>960.2</ele>
        <time>2022-09-21T12:42:57.000Z</time>
      </trkpt>
      <trkpt lat="43.7516" lon="7.06134">
        <ele>960.3</ele>
        <time>2022-09-21T12:42:58.000Z</time>
      </trkpt>
      <trkpt lat="43.75157" lon="7.06129">
        <ele>960.5</ele>
        <time>2022-09-21T12:42:59.000Z</time>
      </trkpt>
      <trkpt lat="43.75153" lon="7.06124">
        <ele>960.4</ele>
        <time>2022-09-21T12:43:00.000Z</time>
      </trkpt>
      <trkpt lat="43.75148" lon="7.06115">
        <ele>960.5</ele>
        <time>2022-09-21T12:43:02.000Z</time>
      </trkpt>
      <trkpt lat="43.75141" lon="7.06109">
        <ele>960.8</ele>
        <time>2022-09-21T12:43:04.000Z</time>
      </trkpt>
      <trkpt lat="43.75136" lon="7.06104">
        <ele>960.9</ele>
        <time>2022-09-21T12:43:06.000Z</time>
      </trkpt>
      <trkpt lat="43.75132" lon="7.061">
        <ele>961.2</ele>
        <time>2022-09-21T12:43:08.000Z</time>
      </trkpt>
      <trkpt lat="43.75127" lon="7.06095">
        <ele>960.8</ele>
        <time>2022-09-21T12:43:10.000Z</time>
      </trkpt>
      <trkpt lat="43.75123" lon="7.06088">
        <ele>961.2</ele>
        <time>2022-09-21T12:43:12.000Z</time>
      </trkpt>
      <trkpt lat="43.75118" lon="7.06082">
        <ele>961.2</ele>
        <time>2022-09-21T12:43:14.000Z</time>
      </trkpt>
      <trkpt lat="43.75113" lon="7.06079">
        <ele>959.5</ele>
        <time>2022-09-21T12:43:16.000Z</time>
      </trkpt>
      <trkpt lat="43.75106" lon="7.06075">
        <ele>959.2</ele>
        <time>2022-09-21T12:43:18.000Z</time>
      </trkpt>
      <trkpt lat="43.75101" lon="7.06072">
        <ele>959</ele>
        <time>2022-09-21T12:43:20.000Z</time>
      </trkpt>
      <trkpt lat="43.75096" lon="7.06069">
        <ele>957.8</ele>
        <time>2022-09-21T12:43:23.000Z</time>
      </trkpt>
      <trkpt lat="43.75091" lon="7.06065">
        <ele>956.8</ele>
        <time>2022-09-21T12:43:25.000Z</time>
      </trkpt>
      <trkpt lat="43.75085" lon="7.06061">
        <ele>956</ele>
        <time>2022-09-21T12:43:27.000Z</time>
      </trkpt>
      <trkpt lat="43.75081" lon="7.06054">
        <ele>956.4</ele>
        <time>2022-09-21T12:43:30.000Z</time>
      </trkpt>
      <trkpt lat="43.75077" lon="7.06051">
        <ele>956.7</ele>
        <time>2022-09-21T12:43:32.000Z</time>
      </trkpt>
      <trkpt lat="43.75071" lon="7.06048">
        <ele>956.8</ele>
        <time>2022-09-21T12:43:34.000Z</time>
      </trkpt>
      <trkpt lat="43.75064" lon="7.06045">
        <ele>956.4</ele>
        <time>2022-09-21T12:43:36.000Z</time>
      </trkpt>
      <trkpt lat="43.75058" lon="7.06041">
        <ele>956.2</ele>
        <time>2022-09-21T12:43:38.000Z</time>
      </trkpt>
      <trkpt lat="43.75054" lon="7.06036">
        <ele>957.4</ele>
        <time>2022-09-21T12:43:40.000Z</time>
      </trkpt>
      <trkpt lat="43.75049" lon="7.06032">
        <ele>956.6</ele>
        <time>2022-09-21T12:43:42.000Z</time>
      </trkpt>
      <trkpt lat="43.75043" lon="7.06028">
        <ele>957.1</ele>
        <time>2022-09-21T12:43:44.000Z</time>
      </trkpt>
      <trkpt lat="43.75037" lon="7.06024">
        <ele>957.6</ele>
        <time>2022-09-21T12:43:46.000Z</time>
      </trkpt>
      <trkpt lat="43.75034" lon="7.06017">
        <ele>957.3</ele>
        <time>2022-09-21T12:43:48.000Z</time>
      </trkpt>
      <trkpt lat="43.75032" lon="7.06007">
        <ele>958</ele>
        <time>2022-09-21T12:43:50.000Z</time>
      </trkpt>
      <trkpt lat="43.7503" lon="7.06">
        <ele>957.7</ele>
        <time>2022-09-21T12:43:52.000Z</time>
      </trkpt>
      <trkpt lat="43.75029" lon="7.05992">
        <ele>958</ele>
        <time>2022-09-21T12:43:54.000Z</time>
      </trkpt>
      <trkpt lat="43.75029" lon="7.05984">
        <ele>958.2</ele>
        <time>2022-09-21T12:43:56.000Z</time>
      </trkpt>
      <trkpt lat="43.75028" lon="7.05975">
        <ele>957.8</ele>
        <time>2022-09-21T12:43:58.000Z</time>
      </trkpt>
      <trkpt lat="43.75024" lon="7.05965">
        <ele>957.5</ele>
        <time>2022-09-21T12:44:00.000Z</time>
      </trkpt>
      <trkpt lat="43.75023" lon="7.05955">
        <ele>956.8</ele>
        <time>2022-09-21T12:44:02.000Z</time>
      </trkpt>
      <trkpt lat="43.75022" lon="7.05945">
        <ele>957</ele>
        <time>2022-09-21T12:44:04.000Z</time>
      </trkpt>
      <trkpt lat="43.75019" lon="7.05937">
        <ele>957.3</ele>
        <time>2022-09-21T12:44:06.000Z</time>
      </trkpt>
      <trkpt lat="43.75016" lon="7.05931">
        <ele>957.2</ele>
        <time>2022-09-21T12:44:08.000Z</time>
      </trkpt>
      <trkpt lat="43.75013" lon="7.05923">
        <ele>958</ele>
        <time>2022-09-21T12:44:11.000Z</time>
      </trkpt>
      <trkpt lat="43.75011" lon="7.05917">
        <ele>958.7</ele>
        <time>2022-09-21T12:44:14.000Z</time>
      </trkpt>
      <trkpt lat="43.75008" lon="7.05909">
        <ele>959.8</ele>
        <time>2022-09-21T12:44:17.000Z</time>
      </trkpt>
      <trkpt lat="43.75007" lon="7.05903">
        <ele>959.6</ele>
        <time>2022-09-21T12:44:20.000Z</time>
      </trkpt>
      <trkpt lat="43.75006" lon="7.05896">
        <ele>960.6</ele>
        <time>2022-09-21T12:44:23.000Z</time>
      </trkpt>
      <trkpt lat="43.75007" lon="7.05889">
        <ele>962</ele>
        <time>2022-09-21T12:44:27.000Z</time>
      </trkpt>
      <trkpt lat="43.75007" lon="7.05883">
        <ele>962.4</ele>
        <time>2022-09-21T12:44:31.000Z</time>
      </trkpt>
      <trkpt lat="43.75006" lon="7.05876">
        <ele>962.3</ele>
        <time>2022-09-21T12:44:34.000Z</time>
      </trkpt>
      <trkpt lat="43.75005" lon="7.05868">
        <ele>963.2</ele>
        <time>2022-09-21T12:44:37.000Z</time>
      </trkpt>
      <trkpt lat="43.75004" lon="7.05859">
        <ele>963.1</ele>
        <time>2022-09-21T12:44:40.000Z</time>
      </trkpt>
      <trkpt lat="43.75003" lon="7.05852">
        <ele>962.9</ele>
        <time>2022-09-21T12:44:42.000Z</time>
      </trkpt>
      <trkpt lat="43.75" lon="7.05845">
        <ele>963.3</ele>
        <time>2022-09-21T12:44:44.000Z</time>
      </trkpt>
      <trkpt lat="43.74996" lon="7.05839">
        <ele>963.2</ele>
        <time>2022-09-21T12:44:46.000Z</time>
      </trkpt>
      <trkpt lat="43.74994" lon="7.05832">
        <ele>963.1</ele>
        <time>2022-09-21T12:44:48.000Z</time>
      </trkpt>
      <trkpt lat="43.74993" lon="7.05824">
        <ele>962.8</ele>
        <time>2022-09-21T12:44:50.000Z</time>
      </trkpt>
      <trkpt lat="43.74991" lon="7.05817">
        <ele>962.8</ele>
        <time>2022-09-21T12:44:52.000Z</time>
      </trkpt>
      <trkpt lat="43.74989" lon="7.0581">
        <ele>963.2</ele>
        <time>2022-09-21T12:44:54.000Z</time>
      </trkpt>
      <trkpt lat="43.74986" lon="7.05805">
        <ele>963.1</ele>
        <time>2022-09-21T12:44:56.000Z</time>
      </trkpt>
      <trkpt lat="43.74982" lon="7.058">
        <ele>963.6</ele>
        <time>2022-09-21T12:44:58.000Z</time>
      </trkpt>
      <trkpt lat="43.74979" lon="7.05795">
        <ele>963.7</ele>
        <time>2022-09-21T12:45:00.000Z</time>
      </trkpt>
      <trkpt lat="43.74975" lon="7.05792">
        <ele>963.5</ele>
        <time>2022-09-21T12:45:02.000Z</time>
      </trkpt>
      <trkpt lat="43.7497" lon="7.05788">
        <ele>963.5</ele>
        <time>2022-09-21T12:45:04.000Z</time>
      </trkpt>
      <trkpt lat="43.74966" lon="7.05781">
        <ele>963.6</ele>
        <time>2022-09-21T12:45:06.000Z</time>
      </trkpt>
      <trkpt lat="43.74963" lon="7.05774">
        <ele>963.6</ele>
        <time>2022-09-21T12:45:08.000Z</time>
      </trkpt>
      <trkpt lat="43.74961" lon="7.05767">
        <ele>963.1</ele>
        <time>2022-09-21T12:45:10.000Z</time>
      </trkpt>
      <trkpt lat="43.74958" lon="7.05761">
        <ele>962.8</ele>
        <time>2022-09-21T12:45:12.000Z</time>
      </trkpt>
      <trkpt lat="43.74958" lon="7.05753">
        <ele>962.9</ele>
        <time>2022-09-21T12:45:14.000Z</time>
      </trkpt>
      <trkpt lat="43.74958" lon="7.05745">
        <ele>962.8</ele>
        <time>2022-09-21T12:45:16.000Z</time>
      </trkpt>
      <trkpt lat="43.74961" lon="7.05739">
        <ele>962.9</ele>
        <time>2022-09-21T12:45:18.000Z</time>
      </trkpt>
      <trkpt lat="43.74964" lon="7.05733">
        <ele>963.4</ele>
        <time>2022-09-21T12:45:20.000Z</time>
      </trkpt>
      <trkpt lat="43.74967" lon="7.05727">
        <ele>963.8</ele>
        <time>2022-09-21T12:45:22.000Z</time>
      </trkpt>
      <trkpt lat="43.74969" lon="7.05721">
        <ele>964.1</ele>
        <time>2022-09-21T12:45:24.000Z</time>
      </trkpt>
      <trkpt lat="43.74972" lon="7.05716">
        <ele>964.9</ele>
        <time>2022-09-21T12:45:26.000Z</time>
      </trkpt>
      <trkpt lat="43.74976" lon="7.05708">
        <ele>964.9</ele>
        <time>2022-09-21T12:45:29.000Z</time>
      </trkpt>
      <trkpt lat="43.74979" lon="7.05703">
        <ele>965.7</ele>
        <time>2022-09-21T12:45:31.000Z</time>
      </trkpt>
      <trkpt lat="43.74982" lon="7.05698">
        <ele>966.1</ele>
        <time>2022-09-21T12:45:33.000Z</time>
      </trkpt>
      <trkpt lat="43.74986" lon="7.05692">
        <ele>966.2</ele>
        <time>2022-09-21T12:45:35.000Z</time>
      </trkpt>
      <trkpt lat="43.74989" lon="7.05688">
        <ele>966.4</ele>
        <time>2022-09-21T12:45:37.000Z</time>
      </trkpt>
      <trkpt lat="43.74993" lon="7.05684">
        <ele>965.9</ele>
        <time>2022-09-21T12:45:39.000Z</time>
      </trkpt>
      <trkpt lat="43.74997" lon="7.05681">
        <ele>967</ele>
        <time>2022-09-21T12:45:41.000Z</time>
      </trkpt>
      <trkpt lat="43.75002" lon="7.05681">
        <ele>967</ele>
        <time>2022-09-21T12:45:43.000Z</time>
      </trkpt>
      <trkpt lat="43.75008" lon="7.05682">
        <ele>967.3</ele>
        <time>2022-09-21T12:45:46.000Z</time>
      </trkpt>
      <trkpt lat="43.75014" lon="7.0568">
        <ele>967.8</ele>
        <time>2022-09-21T12:45:49.000Z</time>
      </trkpt>
      <trkpt lat="43.75019" lon="7.05676">
        <ele>968.8</ele>
        <time>2022-09-21T12:45:52.000Z</time>
      </trkpt>
      <trkpt lat="43.75024" lon="7.05672">
        <ele>969.4</ele>
        <time>2022-09-21T12:45:55.000Z</time>
      </trkpt>
      <trkpt lat="43.75029" lon="7.05669">
        <ele>970.1</ele>
        <time>2022-09-21T12:45:58.000Z</time>
      </trkpt>
      <trkpt lat="43.75033" lon="7.05664">
        <ele>970</ele>
        <time>2022-09-21T12:46:01.000Z</time>
      </trkpt>
      <trkpt lat="43.75037" lon="7.05659">
        <ele>970.5</ele>
        <time>2022-09-21T12:46:04.000Z</time>
      </trkpt>
      <trkpt lat="43.75041" lon="7.05653">
        <ele>970.9</ele>
        <time>2022-09-21T12:46:07.000Z</time>
      </trkpt>
      <trkpt lat="43.75043" lon="7.05645">
        <ele>971.3</ele>
        <time>2022-09-21T12:46:10.000Z</time>
      </trkpt>
      <trkpt lat="43.75045" lon="7.05637">
        <ele>971.3</ele>
        <time>2022-09-21T12:46:13.000Z</time>
      </trkpt>
      <trkpt lat="43.75048" lon="7.0563">
        <ele>971.3</ele>
        <time>2022-09-21T12:46:16.000Z</time>
      </trkpt>
      <trkpt lat="43.75052" lon="7.05625">
        <ele>971.1</ele>
        <time>2022-09-21T12:46:18.000Z</time>
      </trkpt>
      <trkpt lat="43.75055" lon="7.0562">
        <ele>970.8</ele>
        <time>2022-09-21T12:46:20.000Z</time>
      </trkpt>
      <trkpt lat="43.75059" lon="7.05616">
        <ele>970.3</ele>
        <time>2022-09-21T12:46:22.000Z</time>
      </trkpt>
      <trkpt lat="43.75064" lon="7.05612">
        <ele>970.4</ele>
        <time>2022-09-21T12:46:24.000Z</time>
      </trkpt>
      <trkpt lat="43.75069" lon="7.05607">
        <ele>970.3</ele>
        <time>2022-09-21T12:46:26.000Z</time>
      </trkpt>
      <trkpt lat="43.75075" lon="7.05601">
        <ele>970.2</ele>
        <time>2022-09-21T12:46:28.000Z</time>
      </trkpt>
      <trkpt lat="43.75081" lon="7.05595">
        <ele>969.1</ele>
        <time>2022-09-21T12:46:30.000Z</time>
      </trkpt>
      <trkpt lat="43.75087" lon="7.05588">
        <ele>968.1</ele>
        <time>2022-09-21T12:46:32.000Z</time>
      </trkpt>
      <trkpt lat="43.75094" lon="7.05582">
        <ele>968.3</ele>
        <time>2022-09-21T12:46:34.000Z</time>
      </trkpt>
      <trkpt lat="43.75102" lon="7.05576">
        <ele>967.9</ele>
        <time>2022-09-21T12:46:36.000Z</time>
      </trkpt>
      <trkpt lat="43.75107" lon="7.05572">
        <ele>967.4</ele>
        <time>2022-09-21T12:46:37.000Z</time>
      </trkpt>
      <trkpt lat="43.75111" lon="7.05568">
        <ele>967.7</ele>
        <time>2022-09-21T12:46:38.000Z</time>
      </trkpt>
      <trkpt lat="43.75116" lon="7.05565">
        <ele>967.5</ele>
        <time>2022-09-21T12:46:39.000Z</time>
      </trkpt>
      <trkpt lat="43.75121" lon="7.05562">
        <ele>966.9</ele>
        <time>2022-09-21T12:46:40.000Z</time>
      </trkpt>
      <trkpt lat="43.75126" lon="7.05559">
        <ele>966.2</ele>
        <time>2022-09-21T12:46:41.000Z</time>
      </trkpt>
      <trkpt lat="43.75131" lon="7.05557">
        <ele>965.2</ele>
        <time>2022-09-21T12:46:42.000Z</time>
      </trkpt>
      <trkpt lat="43.75135" lon="7.05554">
        <ele>964.9</ele>
        <time>2022-09-21T12:46:43.000Z</time>
      </trkpt>
      <trkpt lat="43.7514" lon="7.05551">
        <ele>965.2</ele>
        <time>2022-09-21T12:46:44.000Z</time>
      </trkpt>
      <trkpt lat="43.75144" lon="7.05547">
        <ele>964.7</ele>
        <time>2022-09-21T12:46:45.000Z</time>
      </trkpt>
      <trkpt lat="43.75148" lon="7.05542">
        <ele>964.3</ele>
        <time>2022-09-21T12:46:46.000Z</time>
      </trkpt>
      <trkpt lat="43.75152" lon="7.05536">
        <ele>963.5</ele>
        <time>2022-09-21T12:46:47.000Z</time>
      </trkpt>
      <trkpt lat="43.75155" lon="7.0553">
        <ele>963.4</ele>
        <time>2022-09-21T12:46:48.000Z</time>
      </trkpt>
      <trkpt lat="43.75158" lon="7.05524">
        <ele>963.6</ele>
        <time>2022-09-21T12:46:49.000Z</time>
      </trkpt>
      <trkpt lat="43.75161" lon="7.05519">
        <ele>964.2</ele>
        <time>2022-09-21T12:46:50.000Z</time>
      </trkpt>
      <trkpt lat="43.75165" lon="7.05514">
        <ele>964.2</ele>
        <time>2022-09-21T12:46:51.000Z</time>
      </trkpt>
      <trkpt lat="43.75168" lon="7.05509">
        <ele>963.7</ele>
        <time>2022-09-21T12:46:52.000Z</time>
      </trkpt>
      <trkpt lat="43.75172" lon="7.05504">
        <ele>963.1</ele>
        <time>2022-09-21T12:46:53.000Z</time>
      </trkpt>
      <trkpt lat="43.75178" lon="7.05495">
        <ele>962.4</ele>
        <time>2022-09-21T12:46:55.000Z</time>
      </trkpt>
      <trkpt lat="43.75184" lon="7.05488">
        <ele>962.3</ele>
        <time>2022-09-21T12:46:57.000Z</time>
      </trkpt>
      <trkpt lat="43.7519" lon="7.05483">
        <ele>962.2</ele>
        <time>2022-09-21T12:46:59.000Z</time>
      </trkpt>
      <trkpt lat="43.75198" lon="7.05477">
        <ele>962.5</ele>
        <time>2022-09-21T12:47:01.000Z</time>
      </trkpt>
      <trkpt lat="43.75202" lon="7.05473">
        <ele>962.7</ele>
        <time>2022-09-21T12:47:02.000Z</time>
      </trkpt>
      <trkpt lat="43.75206" lon="7.0547">
        <ele>962.5</ele>
        <time>2022-09-21T12:47:03.000Z</time>
      </trkpt>
      <trkpt lat="43.75214" lon="7.05464">
        <ele>962.4</ele>
        <time>2022-09-21T12:47:05.000Z</time>
      </trkpt>
      <trkpt lat="43.75221" lon="7.05458">
        <ele>963</ele>
        <time>2022-09-21T12:47:07.000Z</time>
      </trkpt>
      <trkpt lat="43.75227" lon="7.05452">
        <ele>963.5</ele>
        <time>2022-09-21T12:47:09.000Z</time>
      </trkpt>
      <trkpt lat="43.75233" lon="7.05445">
        <ele>964.1</ele>
        <time>2022-09-21T12:47:11.000Z</time>
      </trkpt>
      <trkpt lat="43.75239" lon="7.05437">
        <ele>964.9</ele>
        <time>2022-09-21T12:47:13.000Z</time>
      </trkpt>
      <trkpt lat="43.75245" lon="7.0543">
        <ele>964.2</ele>
        <time>2022-09-21T12:47:15.000Z</time>
      </trkpt>
      <trkpt lat="43.7525" lon="7.05424">
        <ele>964.8</ele>
        <time>2022-09-21T12:47:17.000Z</time>
      </trkpt>
      <trkpt lat="43.75254" lon="7.05418">
        <ele>966</ele>
        <time>2022-09-21T12:47:19.000Z</time>
      </trkpt>
      <trkpt lat="43.75258" lon="7.05414">
        <ele>966.1</ele>
        <time>2022-09-21T12:47:21.000Z</time>
      </trkpt>
      <trkpt lat="43.75263" lon="7.05408">
        <ele>966.1</ele>
        <time>2022-09-21T12:47:23.000Z</time>
      </trkpt>
      <trkpt lat="43.75265" lon="7.05401">
        <ele>966.3</ele>
        <time>2022-09-21T12:47:25.000Z</time>
      </trkpt>
      <trkpt lat="43.75267" lon="7.05395">
        <ele>966.2</ele>
        <time>2022-09-21T12:47:27.000Z</time>
      </trkpt>
      <trkpt lat="43.75268" lon="7.05388">
        <ele>966.4</ele>
        <time>2022-09-21T12:47:29.000Z</time>
      </trkpt>
      <trkpt lat="43.7527" lon="7.05381">
        <ele>966.7</ele>
        <time>2022-09-21T12:47:31.000Z</time>
      </trkpt>
      <trkpt lat="43.75273" lon="7.05374">
        <ele>967.1</ele>
        <time>2022-09-21T12:47:33.000Z</time>
      </trkpt>
      <trkpt lat="43.75275" lon="7.05367">
        <ele>967.5</ele>
        <time>2022-09-21T12:47:35.000Z</time>
      </trkpt>
      <trkpt lat="43.75278" lon="7.05359">
        <ele>967.8</ele>
        <time>2022-09-21T12:47:38.000Z</time>
      </trkpt>
      <trkpt lat="43.75282" lon="7.05352">
        <ele>968.7</ele>
        <time>2022-09-21T12:47:41.000Z</time>
      </trkpt>
      <trkpt lat="43.75284" lon="7.05344">
        <ele>969</ele>
        <time>2022-09-21T12:47:44.000Z</time>
      </trkpt>
      <trkpt lat="43.75286" lon="7.05337">
        <ele>968.7</ele>
        <time>2022-09-21T12:47:46.000Z</time>
      </trkpt>
      <trkpt lat="43.75288" lon="7.0533">
        <ele>969</ele>
        <time>2022-09-21T12:47:48.000Z</time>
      </trkpt>
      <trkpt lat="43.75289" lon="7.05323">
        <ele>969</ele>
        <time>2022-09-21T12:47:50.000Z</time>
      </trkpt>
      <trkpt lat="43.7529" lon="7.05316">
        <ele>969</ele>
        <time>2022-09-21T12:47:52.000Z</time>
      </trkpt>
      <trkpt lat="43.75292" lon="7.05309">
        <ele>968.6</ele>
        <time>2022-09-21T12:47:54.000Z</time>
      </trkpt>
      <trkpt lat="43.75294" lon="7.05301">
        <ele>968.4</ele>
        <time>2022-09-21T12:47:56.000Z</time>
      </trkpt>
      <trkpt lat="43.75298" lon="7.05296">
        <ele>968.3</ele>
        <time>2022-09-21T12:47:58.000Z</time>
      </trkpt>
      <trkpt lat="43.75303" lon="7.0529">
        <ele>968.2</ele>
        <time>2022-09-21T12:48:00.000Z</time>
      </trkpt>
      <trkpt lat="43.75309" lon="7.05284">
        <ele>968.4</ele>
        <time>2022-09-21T12:48:02.000Z</time>
      </trkpt>
      <trkpt lat="43.75314" lon="7.05276">
        <ele>968.3</ele>
        <time>2022-09-21T12:48:04.000Z</time>
      </trkpt>
      <trkpt lat="43.75318" lon="7.0527">
        <ele>968.4</ele>
        <time>2022-09-21T12:48:06.000Z</time>
      </trkpt>
      <trkpt lat="43.75322" lon="7.05263">
        <ele>968.9</ele>
        <time>2022-09-21T12:48:08.000Z</time>
      </trkpt>
      <trkpt lat="43.75327" lon="7.05257">
        <ele>968.9</ele>
        <time>2022-09-21T12:48:10.000Z</time>
      </trkpt>
      <trkpt lat="43.7533" lon="7.0525">
        <ele>969.3</ele>
        <time>2022-09-21T12:48:12.000Z</time>
      </trkpt>
      <trkpt lat="43.75334" lon="7.05244">
        <ele>970.2</ele>
        <time>2022-09-21T12:48:14.000Z</time>
      </trkpt>
      <trkpt lat="43.75338" lon="7.05238">
        <ele>970</ele>
        <time>2022-09-21T12:48:16.000Z</time>
      </trkpt>
      <trkpt lat="43.75342" lon="7.05232">
        <ele>970.1</ele>
        <time>2022-09-21T12:48:18.000Z</time>
      </trkpt>
      <trkpt lat="43.75345" lon="7.05227">
        <ele>970.8</ele>
        <time>2022-09-21T12:48:20.000Z</time>
      </trkpt>
      <trkpt lat="43.75349" lon="7.0522">
        <ele>970.9</ele>
        <time>2022-09-21T12:48:22.000Z</time>
      </trkpt>
      <trkpt lat="43.75353" lon="7.05214">
        <ele>970.9</ele>
        <time>2022-09-21T12:48:24.000Z</time>
      </trkpt>
      <trkpt lat="43.75357" lon="7.05208">
        <ele>970.9</ele>
        <time>2022-09-21T12:48:26.000Z</time>
      </trkpt>
      <trkpt lat="43.7536" lon="7.05202">
        <ele>971.6</ele>
        <time>2022-09-21T12:48:28.000Z</time>
      </trkpt>
      <trkpt lat="43.75364" lon="7.05195">
        <ele>972</ele>
        <time>2022-09-21T12:48:31.000Z</time>
      </trkpt>
      <trkpt lat="43.75367" lon="7.05189">
        <ele>972.3</ele>
        <time>2022-09-21T12:48:33.000Z</time>
      </trkpt>
      <trkpt lat="43.75371" lon="7.05184">
        <ele>972.3</ele>
        <time>2022-09-21T12:48:35.000Z</time>
      </trkpt>
      <trkpt lat="43.75376" lon="7.05175">
        <ele>971.9</ele>
        <time>2022-09-21T12:48:37.000Z</time>
      </trkpt>
      <trkpt lat="43.75381" lon="7.05166">
        <ele>970.8</ele>
        <time>2022-09-21T12:48:39.000Z</time>
      </trkpt>
      <trkpt lat="43.75383" lon="7.0516">
        <ele>970.7</ele>
        <time>2022-09-21T12:48:40.000Z</time>
      </trkpt>
      <trkpt lat="43.75386" lon="7.05154">
        <ele>970.5</ele>
        <time>2022-09-21T12:48:41.000Z</time>
      </trkpt>
      <trkpt lat="43.75389" lon="7.05149">
        <ele>970.2</ele>
        <time>2022-09-21T12:48:42.000Z</time>
      </trkpt>
      <trkpt lat="43.75393" lon="7.05145">
        <ele>969.7</ele>
        <time>2022-09-21T12:48:43.000Z</time>
      </trkpt>
      <trkpt lat="43.75401" lon="7.05139">
        <ele>969.9</ele>
        <time>2022-09-21T12:48:45.000Z</time>
      </trkpt>
      <trkpt lat="43.75408" lon="7.05136">
        <ele>969.8</ele>
        <time>2022-09-21T12:48:47.000Z</time>
      </trkpt>
      <trkpt lat="43.75416" lon="7.05134">
        <ele>970</ele>
        <time>2022-09-21T12:48:49.000Z</time>
      </trkpt>
      <trkpt lat="43.75422" lon="7.05132">
        <ele>970.6</ele>
        <time>2022-09-21T12:48:51.000Z</time>
      </trkpt>
      <trkpt lat="43.75427" lon="7.05128">
        <ele>971</ele>
        <time>2022-09-21T12:48:53.000Z</time>
      </trkpt>
      <trkpt lat="43.75433" lon="7.05125">
        <ele>971.2</ele>
        <time>2022-09-21T12:48:55.000Z</time>
      </trkpt>
      <trkpt lat="43.75438" lon="7.05119">
        <ele>971.3</ele>
        <time>2022-09-21T12:48:57.000Z</time>
      </trkpt>
      <trkpt lat="43.75442" lon="7.05112">
        <ele>971.8</ele>
        <time>2022-09-21T12:48:59.000Z</time>
      </trkpt>
      <trkpt lat="43.75446" lon="7.05105">
        <ele>972.4</ele>
        <time>2022-09-21T12:49:01.000Z</time>
      </trkpt>
      <trkpt lat="43.7545" lon="7.05097">
        <ele>972</ele>
        <time>2022-09-21T12:49:03.000Z</time>
      </trkpt>
      <trkpt lat="43.75454" lon="7.05088">
        <ele>971.3</ele>
        <time>2022-09-21T12:49:05.000Z</time>
      </trkpt>
      <trkpt lat="43.75455" lon="7.05077">
        <ele>970.9</ele>
        <time>2022-09-21T12:49:07.000Z</time>
      </trkpt>
      <trkpt lat="43.75456" lon="7.05066">
        <ele>970.9</ele>
        <time>2022-09-21T12:49:09.000Z</time>
      </trkpt>
      <trkpt lat="43.75457" lon="7.05054">
        <ele>971</ele>
        <time>2022-09-21T12:49:11.000Z</time>
      </trkpt>
      <trkpt lat="43.75459" lon="7.05043">
        <ele>970.9</ele>
        <time>2022-09-21T12:49:13.000Z</time>
      </trkpt>
      <trkpt lat="43.7546" lon="7.05037">
        <ele>971.2</ele>
        <time>2022-09-21T12:49:14.000Z</time>
      </trkpt>
      <trkpt lat="43.75461" lon="7.05025">
        <ele>971</ele>
        <time>2022-09-21T12:49:16.000Z</time>
      </trkpt>
      <trkpt lat="43.75462" lon="7.05013">
        <ele>970.7</ele>
        <time>2022-09-21T12:49:18.000Z</time>
      </trkpt>
      <trkpt lat="43.75464" lon="7.05001">
        <ele>970.9</ele>
        <time>2022-09-21T12:49:20.000Z</time>
      </trkpt>
      <trkpt lat="43.75467" lon="7.0499">
        <ele>971.3</ele>
        <time>2022-09-21T12:49:22.000Z</time>
      </trkpt>
      <trkpt lat="43.75471" lon="7.04984">
        <ele>971.7</ele>
        <time>2022-09-21T12:49:24.000Z</time>
      </trkpt>
      <trkpt lat="43.75476" lon="7.0498">
        <ele>972.6</ele>
        <time>2022-09-21T12:49:26.000Z</time>
      </trkpt>
      <trkpt lat="43.75481" lon="7.04975">
        <ele>973.3</ele>
        <time>2022-09-21T12:49:29.000Z</time>
      </trkpt>
      <trkpt lat="43.75486" lon="7.04973">
        <ele>974</ele>
        <time>2022-09-21T12:49:31.000Z</time>
      </trkpt>
      <trkpt lat="43.75489" lon="7.04969">
        <ele>974.4</ele>
        <time>2022-09-21T12:49:33.000Z</time>
      </trkpt>
      <trkpt lat="43.75493" lon="7.04964">
        <ele>974.2</ele>
        <time>2022-09-21T12:49:35.000Z</time>
      </trkpt>
      <trkpt lat="43.75496" lon="7.04958">
        <ele>974.6</ele>
        <time>2022-09-21T12:49:37.000Z</time>
      </trkpt>
      <trkpt lat="43.75499" lon="7.04951">
        <ele>974.5</ele>
        <time>2022-09-21T12:49:39.000Z</time>
      </trkpt>
      <trkpt lat="43.75502" lon="7.04943">
        <ele>973.7</ele>
        <time>2022-09-21T12:49:41.000Z</time>
      </trkpt>
      <trkpt lat="43.75503" lon="7.04932">
        <ele>972.4</ele>
        <time>2022-09-21T12:49:43.000Z</time>
      </trkpt>
      <trkpt lat="43.75505" lon="7.04922">
        <ele>972.2</ele>
        <time>2022-09-21T12:49:45.000Z</time>
      </trkpt>
      <trkpt lat="43.75508" lon="7.04911">
        <ele>970.5</ele>
        <time>2022-09-21T12:49:47.000Z</time>
      </trkpt>
      <trkpt lat="43.75509" lon="7.04905">
        <ele>969.3</ele>
        <time>2022-09-21T12:49:48.000Z</time>
      </trkpt>
      <trkpt lat="43.7551" lon="7.04897">
        <ele>970.1</ele>
        <time>2022-09-21T12:49:49.000Z</time>
      </trkpt>
      <trkpt lat="43.75511" lon="7.04888">
        <ele>970.2</ele>
        <time>2022-09-21T12:49:50.000Z</time>
      </trkpt>
      <trkpt lat="43.75511" lon="7.0488">
        <ele>969.3</ele>
        <time>2022-09-21T12:49:51.000Z</time>
      </trkpt>
      <trkpt lat="43.75512" lon="7.04871">
        <ele>968.5</ele>
        <time>2022-09-21T12:49:52.000Z</time>
      </trkpt>
      <trkpt lat="43.75515" lon="7.04862">
        <ele>968.1</ele>
        <time>2022-09-21T12:49:53.000Z</time>
      </trkpt>
      <trkpt lat="43.75517" lon="7.04853">
        <ele>967.4</ele>
        <time>2022-09-21T12:49:54.000Z</time>
      </trkpt>
      <trkpt lat="43.75519" lon="7.04844">
        <ele>967</ele>
        <time>2022-09-21T12:49:55.000Z</time>
      </trkpt>
      <trkpt lat="43.75523" lon="7.04835">
        <ele>967</ele>
        <time>2022-09-21T12:49:56.000Z</time>
      </trkpt>
      <trkpt lat="43.75525" lon="7.04827">
        <ele>966.7</ele>
        <time>2022-09-21T12:49:57.000Z</time>
      </trkpt>
      <trkpt lat="43.75528" lon="7.04819">
        <ele>966.5</ele>
        <time>2022-09-21T12:49:58.000Z</time>
      </trkpt>
      <trkpt lat="43.75531" lon="7.04812">
        <ele>966.7</ele>
        <time>2022-09-21T12:49:59.000Z</time>
      </trkpt>
      <trkpt lat="43.75533" lon="7.04804">
        <ele>966.4</ele>
        <time>2022-09-21T12:50:00.000Z</time>
      </trkpt>
      <trkpt lat="43.75536" lon="7.04796">
        <ele>965.3</ele>
        <time>2022-09-21T12:50:01.000Z</time>
      </trkpt>
      <trkpt lat="43.75538" lon="7.04788">
        <ele>965.2</ele>
        <time>2022-09-21T12:50:02.000Z</time>
      </trkpt>
      <trkpt lat="43.7554" lon="7.04781">
        <ele>965.3</ele>
        <time>2022-09-21T12:50:03.000Z</time>
      </trkpt>
      <trkpt lat="43.75542" lon="7.04773">
        <ele>965.8</ele>
        <time>2022-09-21T12:50:04.000Z</time>
      </trkpt>
      <trkpt lat="43.75545" lon="7.04767">
        <ele>965.7</ele>
        <time>2022-09-21T12:50:05.000Z</time>
      </trkpt>
      <trkpt lat="43.75548" lon="7.04761">
        <ele>964.9</ele>
        <time>2022-09-21T12:50:06.000Z</time>
      </trkpt>
      <trkpt lat="43.75553" lon="7.04752">
        <ele>964.3</ele>
        <time>2022-09-21T12:50:08.000Z</time>
      </trkpt>
      <trkpt lat="43.75558" lon="7.04744">
        <ele>964.9</ele>
        <time>2022-09-21T12:50:10.000Z</time>
      </trkpt>
      <trkpt lat="43.75564" lon="7.04739">
        <ele>965.2</ele>
        <time>2022-09-21T12:50:12.000Z</time>
      </trkpt>
      <trkpt lat="43.75569" lon="7.04733">
        <ele>965.8</ele>
        <time>2022-09-21T12:50:14.000Z</time>
      </trkpt>
      <trkpt lat="43.75574" lon="7.04727">
        <ele>966</ele>
        <time>2022-09-21T12:50:16.000Z</time>
      </trkpt>
      <trkpt lat="43.75578" lon="7.0472">
        <ele>966.2</ele>
        <time>2022-09-21T12:50:18.000Z</time>
      </trkpt>
      <trkpt lat="43.75583" lon="7.04712">
        <ele>966.4</ele>
        <time>2022-09-21T12:50:20.000Z</time>
      </trkpt>
      <trkpt lat="43.75587" lon="7.04705">
        <ele>966.7</ele>
        <time>2022-09-21T12:50:22.000Z</time>
      </trkpt>
      <trkpt lat="43.75591" lon="7.04699">
        <ele>966.8</ele>
        <time>2022-09-21T12:50:24.000Z</time>
      </trkpt>
      <trkpt lat="43.75597" lon="7.04694">
        <ele>967.5</ele>
        <time>2022-09-21T12:50:26.000Z</time>
      </trkpt>
      <trkpt lat="43.75601" lon="7.04689">
        <ele>968</ele>
        <time>2022-09-21T12:50:28.000Z</time>
      </trkpt>
      <trkpt lat="43.75605" lon="7.04684">
        <ele>968</ele>
        <time>2022-09-21T12:50:30.000Z</time>
      </trkpt>
      <trkpt lat="43.75609" lon="7.04679">
        <ele>968.4</ele>
        <time>2022-09-21T12:50:32.000Z</time>
      </trkpt>
      <trkpt lat="43.75614" lon="7.04676">
        <ele>968.7</ele>
        <time>2022-09-21T12:50:34.000Z</time>
      </trkpt>
      <trkpt lat="43.75619" lon="7.04672">
        <ele>968.3</ele>
        <time>2022-09-21T12:50:36.000Z</time>
      </trkpt>
      <trkpt lat="43.75624" lon="7.04667">
        <ele>968.2</ele>
        <time>2022-09-21T12:50:38.000Z</time>
      </trkpt>
      <trkpt lat="43.7563" lon="7.04662">
        <ele>968.1</ele>
        <time>2022-09-21T12:50:40.000Z</time>
      </trkpt>
      <trkpt lat="43.75636" lon="7.04657">
        <ele>968</ele>
        <time>2022-09-21T12:50:42.000Z</time>
      </trkpt>
      <trkpt lat="43.75642" lon="7.04652">
        <ele>968</ele>
        <time>2022-09-21T12:50:44.000Z</time>
      </trkpt>
      <trkpt lat="43.75646" lon="7.04648">
        <ele>968.9</ele>
        <time>2022-09-21T12:50:46.000Z</time>
      </trkpt>
      <trkpt lat="43.75651" lon="7.04642">
        <ele>969.1</ele>
        <time>2022-09-21T12:50:48.000Z</time>
      </trkpt>
      <trkpt lat="43.75656" lon="7.04636">
        <ele>969.5</ele>
        <time>2022-09-21T12:50:50.000Z</time>
      </trkpt>
      <trkpt lat="43.7566" lon="7.04631">
        <ele>970.1</ele>
        <time>2022-09-21T12:50:52.000Z</time>
      </trkpt>
      <trkpt lat="43.75664" lon="7.04625">
        <ele>970.6</ele>
        <time>2022-09-21T12:50:54.000Z</time>
      </trkpt>
      <trkpt lat="43.75668" lon="7.0462">
        <ele>971.7</ele>
        <time>2022-09-21T12:50:56.000Z</time>
      </trkpt>
      <trkpt lat="43.75674" lon="7.04615">
        <ele>971.7</ele>
        <time>2022-09-21T12:50:58.000Z</time>
      </trkpt>
      <trkpt lat="43.75678" lon="7.04611">
        <ele>971.6</ele>
        <time>2022-09-21T12:51:00.000Z</time>
      </trkpt>
      <trkpt lat="43.75682" lon="7.04607">
        <ele>972.3</ele>
        <time>2022-09-21T12:51:02.000Z</time>
      </trkpt>
      <trkpt lat="43.75687" lon="7.04602">
        <ele>972.8</ele>
        <time>2022-09-21T12:51:05.000Z</time>
      </trkpt>
      <trkpt lat="43.75692" lon="7.04596">
        <ele>972.8</ele>
        <time>2022-09-21T12:51:08.000Z</time>
      </trkpt>
      <trkpt lat="43.75696" lon="7.04593">
        <ele>973</ele>
        <time>2022-09-21T12:51:10.000Z</time>
      </trkpt>
      <trkpt lat="43.757" lon="7.04589">
        <ele>972.9</ele>
        <time>2022-09-21T12:51:12.000Z</time>
      </trkpt>
      <trkpt lat="43.75705" lon="7.04584">
        <ele>972.6</ele>
        <time>2022-09-21T12:51:14.000Z</time>
      </trkpt>
      <trkpt lat="43.75709" lon="7.04578">
        <ele>972.7</ele>
        <time>2022-09-21T12:51:17.000Z</time>
      </trkpt>
      <trkpt lat="43.75713" lon="7.04574">
        <ele>972.7</ele>
        <time>2022-09-21T12:51:20.000Z</time>
      </trkpt>
      <trkpt lat="43.75717" lon="7.04571">
        <ele>972.9</ele>
        <time>2022-09-21T12:51:24.000Z</time>
      </trkpt>
      <trkpt lat="43.75722" lon="7.04566">
        <ele>973.3</ele>
        <time>2022-09-21T12:51:27.000Z</time>
      </trkpt>
      <trkpt lat="43.75725" lon="7.04562">
        <ele>973.2</ele>
        <time>2022-09-21T12:51:29.000Z</time>
      </trkpt>
      <trkpt lat="43.75729" lon="7.04557">
        <ele>973.7</ele>
        <time>2022-09-21T12:51:32.000Z</time>
      </trkpt>
      <trkpt lat="43.75733" lon="7.04553">
        <ele>973.7</ele>
        <time>2022-09-21T12:51:34.000Z</time>
      </trkpt>
      <trkpt lat="43.75737" lon="7.04549">
        <ele>973.4</ele>
        <time>2022-09-21T12:51:36.000Z</time>
      </trkpt>
      <trkpt lat="43.75741" lon="7.04543">
        <ele>973.6</ele>
        <time>2022-09-21T12:51:39.000Z</time>
      </trkpt>
      <trkpt lat="43.75746" lon="7.04537">
        <ele>974.3</ele>
        <time>2022-09-21T12:51:42.000Z</time>
      </trkpt>
      <trkpt lat="43.75749" lon="7.04531">
        <ele>974.5</ele>
        <time>2022-09-21T12:51:45.000Z</time>
      </trkpt>
      <trkpt lat="43.75751" lon="7.04528">
        <ele>975</ele>
        <time>2022-09-21T12:51:51.000Z</time>
      </trkpt>
      <trkpt lat="43.75751" lon="7.04528">
        <ele>974.7</ele>
        <time>2022-09-21T12:51:55.000Z</time>
      </trkpt>
      <trkpt lat="43.75751" lon="7.04528">
        <ele>974.8</ele>
        <time>2022-09-21T12:51:56.000Z</time>
      </trkpt>
      <trkpt lat="43.7575" lon="7.04528">
        <ele>975.1</ele>
        <time>2022-09-21T12:52:03.000Z</time>
      </trkpt>
      <trkpt lat="43.7575" lon="7.04527">
        <ele>975</ele>
        <time>2022-09-21T12:52:07.000Z</time>
      </trkpt>
      <trkpt lat="43.75751" lon="7.04526">
        <ele>975.1</ele>
        <time>2022-09-21T12:52:08.000Z</time>
      </trkpt>
      <trkpt lat="43.75753" lon="7.0452">
        <ele>975.1</ele>
        <time>2022-09-21T12:52:16.000Z</time>
      </trkpt>
      <trkpt lat="43.75756" lon="7.04513">
        <ele>975.2</ele>
        <time>2022-09-21T12:52:19.000Z</time>
      </trkpt>
      <trkpt lat="43.7576" lon="7.04508">
        <ele>974.8</ele>
        <time>2022-09-21T12:52:21.000Z</time>
      </trkpt>
      <trkpt lat="43.75764" lon="7.04501">
        <ele>975</ele>
        <time>2022-09-21T12:52:24.000Z</time>
      </trkpt>
      <trkpt lat="43.75768" lon="7.04496">
        <ele>974.6</ele>
        <time>2022-09-21T12:52:27.000Z</time>
      </trkpt>
      <trkpt lat="43.75771" lon="7.0449">
        <ele>974.6</ele>
        <time>2022-09-21T12:52:29.000Z</time>
      </trkpt>
      <trkpt lat="43.75777" lon="7.04482">
        <ele>974.7</ele>
        <time>2022-09-21T12:52:31.000Z</time>
      </trkpt>
      <trkpt lat="43.75781" lon="7.04474">
        <ele>974.6</ele>
        <time>2022-09-21T12:52:33.000Z</time>
      </trkpt>
      <trkpt lat="43.75788" lon="7.04467">
        <ele>974.4</ele>
        <time>2022-09-21T12:52:35.000Z</time>
      </trkpt>
      <trkpt lat="43.75795" lon="7.04461">
        <ele>974.5</ele>
        <time>2022-09-21T12:52:37.000Z</time>
      </trkpt>
      <trkpt lat="43.75799" lon="7.04457">
        <ele>974.5</ele>
        <time>2022-09-21T12:52:38.000Z</time>
      </trkpt>
      <trkpt lat="43.75802" lon="7.04453">
        <ele>974.3</ele>
        <time>2022-09-21T12:52:39.000Z</time>
      </trkpt>
      <trkpt lat="43.75806" lon="7.04449">
        <ele>974.5</ele>
        <time>2022-09-21T12:52:40.000Z</time>
      </trkpt>
      <trkpt lat="43.75811" lon="7.04441">
        <ele>974.5</ele>
        <time>2022-09-21T12:52:42.000Z</time>
      </trkpt>
      <trkpt lat="43.75816" lon="7.04431">
        <ele>974.1</ele>
        <time>2022-09-21T12:52:44.000Z</time>
      </trkpt>
      <trkpt lat="43.75822" lon="7.04422">
        <ele>974.2</ele>
        <time>2022-09-21T12:52:46.000Z</time>
      </trkpt>
      <trkpt lat="43.75825" lon="7.04418">
        <ele>974.1</ele>
        <time>2022-09-21T12:52:47.000Z</time>
      </trkpt>
      <trkpt lat="43.75829" lon="7.04414">
        <ele>974.3</ele>
        <time>2022-09-21T12:52:48.000Z</time>
      </trkpt>
      <trkpt lat="43.75833" lon="7.04409">
        <ele>974.5</ele>
        <time>2022-09-21T12:52:49.000Z</time>
      </trkpt>
      <trkpt lat="43.75836" lon="7.04405">
        <ele>974.5</ele>
        <time>2022-09-21T12:52:50.000Z</time>
      </trkpt>
      <trkpt lat="43.7584" lon="7.04402">
        <ele>974.4</ele>
        <time>2022-09-21T12:52:51.000Z</time>
      </trkpt>
      <trkpt lat="43.75844" lon="7.04399">
        <ele>974.6</ele>
        <time>2022-09-21T12:52:52.000Z</time>
      </trkpt>
      <trkpt lat="43.75848" lon="7.04396">
        <ele>974.7</ele>
        <time>2022-09-21T12:52:53.000Z</time>
      </trkpt>
      <trkpt lat="43.75852" lon="7.04392">
        <ele>974.5</ele>
        <time>2022-09-21T12:52:54.000Z</time>
      </trkpt>
      <trkpt lat="43.75856" lon="7.04389">
        <ele>974.4</ele>
        <time>2022-09-21T12:52:55.000Z</time>
      </trkpt>
      <trkpt lat="43.75864" lon="7.04383">
        <ele>974.6</ele>
        <time>2022-09-21T12:52:57.000Z</time>
      </trkpt>
      <trkpt lat="43.75871" lon="7.04379">
        <ele>975.1</ele>
        <time>2022-09-21T12:52:59.000Z</time>
      </trkpt>
      <trkpt lat="43.75879" lon="7.04376">
        <ele>975.1</ele>
        <time>2022-09-21T12:53:01.000Z</time>
      </trkpt>
      <trkpt lat="43.75887" lon="7.04373">
        <ele>975.2</ele>
        <time>2022-09-21T12:53:03.000Z</time>
      </trkpt>
      <trkpt lat="43.75892" lon="7.04372">
        <ele>975.1</ele>
        <time>2022-09-21T12:53:04.000Z</time>
      </trkpt>
      <trkpt lat="43.75899" lon="7.04369">
        <ele>975.3</ele>
        <time>2022-09-21T12:53:06.000Z</time>
      </trkpt>
      <trkpt lat="43.75904" lon="7.04368">
        <ele>975.4</ele>
        <time>2022-09-21T12:53:07.000Z</time>
      </trkpt>
      <trkpt lat="43.75912" lon="7.04367">
        <ele>975.3</ele>
        <time>2022-09-21T12:53:09.000Z</time>
      </trkpt>
      <trkpt lat="43.7592" lon="7.04364">
        <ele>974.9</ele>
        <time>2022-09-21T12:53:11.000Z</time>
      </trkpt>
      <trkpt lat="43.75925" lon="7.04363">
        <ele>974.8</ele>
        <time>2022-09-21T12:53:12.000Z</time>
      </trkpt>
      <trkpt lat="43.75934" lon="7.04361">
        <ele>974.5</ele>
        <time>2022-09-21T12:53:14.000Z</time>
      </trkpt>
      <trkpt lat="43.75942" lon="7.04359">
        <ele>974.8</ele>
        <time>2022-09-21T12:53:16.000Z</time>
      </trkpt>
      <trkpt lat="43.7595" lon="7.04357">
        <ele>974.7</ele>
        <time>2022-09-21T12:53:18.000Z</time>
      </trkpt>
      <trkpt lat="43.75958" lon="7.04355">
        <ele>974.6</ele>
        <time>2022-09-21T12:53:20.000Z</time>
      </trkpt>
      <trkpt lat="43.75966" lon="7.04352">
        <ele>974.7</ele>
        <time>2022-09-21T12:53:22.000Z</time>
      </trkpt>
      <trkpt lat="43.75974" lon="7.04346">
        <ele>974.7</ele>
        <time>2022-09-21T12:53:24.000Z</time>
      </trkpt>
      <trkpt lat="43.75978" lon="7.04342">
        <ele>974.8</ele>
        <time>2022-09-21T12:53:25.000Z</time>
      </trkpt>
      <trkpt lat="43.75982" lon="7.04337">
        <ele>974.7</ele>
        <time>2022-09-21T12:53:26.000Z</time>
      </trkpt>
      <trkpt lat="43.75986" lon="7.04334">
        <ele>974.6</ele>
        <time>2022-09-21T12:53:27.000Z</time>
      </trkpt>
      <trkpt lat="43.7599" lon="7.04329">
        <ele>974.4</ele>
        <time>2022-09-21T12:53:28.000Z</time>
      </trkpt>
      <trkpt lat="43.75993" lon="7.04324">
        <ele>974.4</ele>
        <time>2022-09-21T12:53:29.000Z</time>
      </trkpt>
      <trkpt lat="43.75998" lon="7.04315">
        <ele>974.3</ele>
        <time>2022-09-21T12:53:31.000Z</time>
      </trkpt>
      <trkpt lat="43.76005" lon="7.04308">
        <ele>974</ele>
        <time>2022-09-21T12:53:33.000Z</time>
      </trkpt>
      <trkpt lat="43.76011" lon="7.04301">
        <ele>973.6</ele>
        <time>2022-09-21T12:53:35.000Z</time>
      </trkpt>
      <trkpt lat="43.76017" lon="7.04292">
        <ele>973.5</ele>
        <time>2022-09-21T12:53:37.000Z</time>
      </trkpt>
      <trkpt lat="43.76023" lon="7.04284">
        <ele>973.5</ele>
        <time>2022-09-21T12:53:39.000Z</time>
      </trkpt>
      <trkpt lat="43.76027" lon="7.04279">
        <ele>973.2</ele>
        <time>2022-09-21T12:53:40.000Z</time>
      </trkpt>
      <trkpt lat="43.7603" lon="7.04276">
        <ele>972.9</ele>
        <time>2022-09-21T12:53:41.000Z</time>
      </trkpt>
      <trkpt lat="43.76037" lon="7.04267">
        <ele>972.4</ele>
        <time>2022-09-21T12:53:43.000Z</time>
      </trkpt>
      <trkpt lat="43.76041" lon="7.04262">
        <ele>972.4</ele>
        <time>2022-09-21T12:53:44.000Z</time>
      </trkpt>
      <trkpt lat="43.76045" lon="7.04258">
        <ele>972.1</ele>
        <time>2022-09-21T12:53:45.000Z</time>
      </trkpt>
      <trkpt lat="43.76049" lon="7.04253">
        <ele>971.9</ele>
        <time>2022-09-21T12:53:46.000Z</time>
      </trkpt>
      <trkpt lat="43.76053" lon="7.04248">
        <ele>971.8</ele>
        <time>2022-09-21T12:53:47.000Z</time>
      </trkpt>
      <trkpt lat="43.76056" lon="7.04243">
        <ele>971.7</ele>
        <time>2022-09-21T12:53:48.000Z</time>
      </trkpt>
      <trkpt lat="43.7606" lon="7.04238">
        <ele>971.6</ele>
        <time>2022-09-21T12:53:49.000Z</time>
      </trkpt>
      <trkpt lat="43.76064" lon="7.04233">
        <ele>971.5</ele>
        <time>2022-09-21T12:53:50.000Z</time>
      </trkpt>
      <trkpt lat="43.76068" lon="7.04228">
        <ele>971.4</ele>
        <time>2022-09-21T12:53:51.000Z</time>
      </trkpt>
      <trkpt lat="43.76072" lon="7.04224">
        <ele>971.5</ele>
        <time>2022-09-21T12:53:52.000Z</time>
      </trkpt>
      <trkpt lat="43.76075" lon="7.0422">
        <ele>971.6</ele>
        <time>2022-09-21T12:53:53.000Z</time>
      </trkpt>
      <trkpt lat="43.76082" lon="7.04213">
        <ele>971.5</ele>
        <time>2022-09-21T12:53:55.000Z</time>
      </trkpt>
      <trkpt lat="43.76088" lon="7.04208">
        <ele>971.7</ele>
        <time>2022-09-21T12:53:57.000Z</time>
      </trkpt>
      <trkpt lat="43.76094" lon="7.04202">
        <ele>971.9</ele>
        <time>2022-09-21T12:53:59.000Z</time>
      </trkpt>
      <trkpt lat="43.76101" lon="7.04195">
        <ele>971.7</ele>
        <time>2022-09-21T12:54:01.000Z</time>
      </trkpt>
      <trkpt lat="43.76107" lon="7.04188">
        <ele>972</ele>
        <time>2022-09-21T12:54:03.000Z</time>
      </trkpt>
      <trkpt lat="43.76114" lon="7.04181">
        <ele>972.4</ele>
        <time>2022-09-21T12:54:05.000Z</time>
      </trkpt>
      <trkpt lat="43.7612" lon="7.04174">
        <ele>972.2</ele>
        <time>2022-09-21T12:54:07.000Z</time>
      </trkpt>
      <trkpt lat="43.76125" lon="7.04166">
        <ele>972.5</ele>
        <time>2022-09-21T12:54:09.000Z</time>
      </trkpt>
      <trkpt lat="43.76131" lon="7.0416">
        <ele>972.4</ele>
        <time>2022-09-21T12:54:11.000Z</time>
      </trkpt>
      <trkpt lat="43.76138" lon="7.04153">
        <ele>972.3</ele>
        <time>2022-09-21T12:54:13.000Z</time>
      </trkpt>
      <trkpt lat="43.76145" lon="7.04147">
        <ele>972.3</ele>
        <time>2022-09-21T12:54:15.000Z</time>
      </trkpt>
      <trkpt lat="43.76151" lon="7.0414">
        <ele>972.6</ele>
        <time>2022-09-21T12:54:17.000Z</time>
      </trkpt>
      <trkpt lat="43.76157" lon="7.04131">
        <ele>972.4</ele>
        <time>2022-09-21T12:54:19.000Z</time>
      </trkpt>
      <trkpt lat="43.76161" lon="7.04127">
        <ele>972.6</ele>
        <time>2022-09-21T12:54:20.000Z</time>
      </trkpt>
      <trkpt lat="43.76164" lon="7.04123">
        <ele>972.6</ele>
        <time>2022-09-21T12:54:21.000Z</time>
      </trkpt>
      <trkpt lat="43.76167" lon="7.04118">
        <ele>972.7</ele>
        <time>2022-09-21T12:54:22.000Z</time>
      </trkpt>
      <trkpt lat="43.76171" lon="7.04113">
        <ele>972.6</ele>
        <time>2022-09-21T12:54:23.000Z</time>
      </trkpt>
      <trkpt lat="43.76177" lon="7.04104">
        <ele>972.4</ele>
        <time>2022-09-21T12:54:25.000Z</time>
      </trkpt>
      <trkpt lat="43.76179" lon="7.04098">
        <ele>972.4</ele>
        <time>2022-09-21T12:54:26.000Z</time>
      </trkpt>
      <trkpt lat="43.76182" lon="7.04094">
        <ele>972.3</ele>
        <time>2022-09-21T12:54:27.000Z</time>
      </trkpt>
      <trkpt lat="43.76185" lon="7.04089">
        <ele>972.3</ele>
        <time>2022-09-21T12:54:28.000Z</time>
      </trkpt>
      <trkpt lat="43.76188" lon="7.04084">
        <ele>972.5</ele>
        <time>2022-09-21T12:54:29.000Z</time>
      </trkpt>
      <trkpt lat="43.76191" lon="7.04078">
        <ele>972.9</ele>
        <time>2022-09-21T12:54:30.000Z</time>
      </trkpt>
      <trkpt lat="43.76193" lon="7.04073">
        <ele>973</ele>
        <time>2022-09-21T12:54:31.000Z</time>
      </trkpt>
      <trkpt lat="43.76196" lon="7.04068">
        <ele>972.8</ele>
        <time>2022-09-21T12:54:32.000Z</time>
      </trkpt>
      <trkpt lat="43.76199" lon="7.04063">
        <ele>972.8</ele>
        <time>2022-09-21T12:54:33.000Z</time>
      </trkpt>
      <trkpt lat="43.76202" lon="7.04058">
        <ele>972.8</ele>
        <time>2022-09-21T12:54:34.000Z</time>
      </trkpt>
      <trkpt lat="43.76208" lon="7.04049">
        <ele>973.1</ele>
        <time>2022-09-21T12:54:36.000Z</time>
      </trkpt>
      <trkpt lat="43.76213" lon="7.04041">
        <ele>973.2</ele>
        <time>2022-09-21T12:54:38.000Z</time>
      </trkpt>
      <trkpt lat="43.76221" lon="7.04035">
        <ele>973.1</ele>
        <time>2022-09-21T12:54:40.000Z</time>
      </trkpt>
      <trkpt lat="43.7623" lon="7.04032">
        <ele>973</ele>
        <time>2022-09-21T12:54:42.000Z</time>
      </trkpt>
      <trkpt lat="43.76238" lon="7.04029">
        <ele>972.9</ele>
        <time>2022-09-21T12:54:44.000Z</time>
      </trkpt>
      <trkpt lat="43.76246" lon="7.04027">
        <ele>972.8</ele>
        <time>2022-09-21T12:54:46.000Z</time>
      </trkpt>
      <trkpt lat="43.76255" lon="7.04024">
        <ele>972.5</ele>
        <time>2022-09-21T12:54:48.000Z</time>
      </trkpt>
      <trkpt lat="43.7626" lon="7.04022">
        <ele>972.1</ele>
        <time>2022-09-21T12:54:49.000Z</time>
      </trkpt>
      <trkpt lat="43.76264" lon="7.0402">
        <ele>971.7</ele>
        <time>2022-09-21T12:54:50.000Z</time>
      </trkpt>
      <trkpt lat="43.76268" lon="7.04017">
        <ele>971.6</ele>
        <time>2022-09-21T12:54:51.000Z</time>
      </trkpt>
      <trkpt lat="43.76273" lon="7.04014">
        <ele>971.7</ele>
        <time>2022-09-21T12:54:52.000Z</time>
      </trkpt>
      <trkpt lat="43.76277" lon="7.0401">
        <ele>971.7</ele>
        <time>2022-09-21T12:54:53.000Z</time>
      </trkpt>
      <trkpt lat="43.76282" lon="7.04006">
        <ele>971.5</ele>
        <time>2022-09-21T12:54:54.000Z</time>
      </trkpt>
      <trkpt lat="43.76286" lon="7.04002">
        <ele>971.4</ele>
        <time>2022-09-21T12:54:55.000Z</time>
      </trkpt>
      <trkpt lat="43.7629" lon="7.03998">
        <ele>971.3</ele>
        <time>2022-09-21T12:54:56.000Z</time>
      </trkpt>
      <trkpt lat="43.76294" lon="7.03994">
        <ele>971.2</ele>
        <time>2022-09-21T12:54:57.000Z</time>
      </trkpt>
      <trkpt lat="43.76299" lon="7.03989">
        <ele>971.1</ele>
        <time>2022-09-21T12:54:58.000Z</time>
      </trkpt>
      <trkpt lat="43.76304" lon="7.03984">
        <ele>970.8</ele>
        <time>2022-09-21T12:54:59.000Z</time>
      </trkpt>
      <trkpt lat="43.76308" lon="7.0398">
        <ele>970.5</ele>
        <time>2022-09-21T12:55:00.000Z</time>
      </trkpt>
      <trkpt lat="43.76312" lon="7.03976">
        <ele>970.4</ele>
        <time>2022-09-21T12:55:01.000Z</time>
      </trkpt>
      <trkpt lat="43.76316" lon="7.03972">
        <ele>970.4</ele>
        <time>2022-09-21T12:55:02.000Z</time>
      </trkpt>
      <trkpt lat="43.7632" lon="7.03969">
        <ele>970.4</ele>
        <time>2022-09-21T12:55:03.000Z</time>
      </trkpt>
      <trkpt lat="43.76323" lon="7.03965">
        <ele>970.3</ele>
        <time>2022-09-21T12:55:04.000Z</time>
      </trkpt>
      <trkpt lat="43.76327" lon="7.03961">
        <ele>970.4</ele>
        <time>2022-09-21T12:55:05.000Z</time>
      </trkpt>
      <trkpt lat="43.76331" lon="7.03957">
        <ele>970.2</ele>
        <time>2022-09-21T12:55:06.000Z</time>
      </trkpt>
      <trkpt lat="43.76336" lon="7.03952">
        <ele>970.2</ele>
        <time>2022-09-21T12:55:07.000Z</time>
      </trkpt>
      <trkpt lat="43.76341" lon="7.03948">
        <ele>970.1</ele>
        <time>2022-09-21T12:55:08.000Z</time>
      </trkpt>
      <trkpt lat="43.76345" lon="7.03943">
        <ele>970</ele>
        <time>2022-09-21T12:55:09.000Z</time>
      </trkpt>
      <trkpt lat="43.76349" lon="7.03939">
        <ele>970.1</ele>
        <time>2022-09-21T12:55:10.000Z</time>
      </trkpt>
      <trkpt lat="43.76353" lon="7.03935">
        <ele>970.1</ele>
        <time>2022-09-21T12:55:11.000Z</time>
      </trkpt>
      <trkpt lat="43.76357" lon="7.03931">
        <ele>970.2</ele>
        <time>2022-09-21T12:55:12.000Z</time>
      </trkpt>
      <trkpt lat="43.7636" lon="7.03927">
        <ele>970.2</ele>
        <time>2022-09-21T12:55:13.000Z</time>
      </trkpt>
      <trkpt lat="43.76367" lon="7.03919">
        <ele>970.2</ele>
        <time>2022-09-21T12:55:15.000Z</time>
      </trkpt>
      <trkpt lat="43.76371" lon="7.0391">
        <ele>970.5</ele>
        <time>2022-09-21T12:55:17.000Z</time>
      </trkpt>
      <trkpt lat="43.76373" lon="7.03901">
        <ele>970.3</ele>
        <time>2022-09-21T12:55:19.000Z</time>
      </trkpt>
      <trkpt lat="43.76375" lon="7.03892">
        <ele>970.3</ele>
        <time>2022-09-21T12:55:21.000Z</time>
      </trkpt>
      <trkpt lat="43.76378" lon="7.03884">
        <ele>970.8</ele>
        <time>2022-09-21T12:55:23.000Z</time>
      </trkpt>
      <trkpt lat="43.7638" lon="7.03877">
        <ele>970.5</ele>
        <time>2022-09-21T12:55:25.000Z</time>
      </trkpt>
      <trkpt lat="43.76383" lon="7.03869">
        <ele>970.4</ele>
        <time>2022-09-21T12:55:28.000Z</time>
      </trkpt>
      <trkpt lat="43.76388" lon="7.03864">
        <ele>970.5</ele>
        <time>2022-09-21T12:55:30.000Z</time>
      </trkpt>
      <trkpt lat="43.76392" lon="7.03859">
        <ele>970.5</ele>
        <time>2022-09-21T12:55:32.000Z</time>
      </trkpt>
      <trkpt lat="43.76398" lon="7.03854">
        <ele>970.7</ele>
        <time>2022-09-21T12:55:34.000Z</time>
      </trkpt>
      <trkpt lat="43.76403" lon="7.03851">
        <ele>971.1</ele>
        <time>2022-09-21T12:55:36.000Z</time>
      </trkpt>
      <trkpt lat="43.76409" lon="7.03849">
        <ele>971.3</ele>
        <time>2022-09-21T12:55:38.000Z</time>
      </trkpt>
      <trkpt lat="43.76415" lon="7.03847">
        <ele>971.5</ele>
        <time>2022-09-21T12:55:40.000Z</time>
      </trkpt>
      <trkpt lat="43.76421" lon="7.03847">
        <ele>971.4</ele>
        <time>2022-09-21T12:55:42.000Z</time>
      </trkpt>
      <trkpt lat="43.76427" lon="7.03847">
        <ele>971.2</ele>
        <time>2022-09-21T12:55:44.000Z</time>
      </trkpt>
      <trkpt lat="43.76433" lon="7.03847">
        <ele>971.5</ele>
        <time>2022-09-21T12:55:46.000Z</time>
      </trkpt>
      <trkpt lat="43.76437" lon="7.0384">
        <ele>971.9</ele>
        <time>2022-09-21T12:55:48.000Z</time>
      </trkpt>
      <trkpt lat="43.76435" lon="7.03831">
        <ele>971.8</ele>
        <time>2022-09-21T12:55:50.000Z</time>
      </trkpt>
      <trkpt lat="43.76432" lon="7.03822">
        <ele>971.6</ele>
        <time>2022-09-21T12:55:52.000Z</time>
      </trkpt>
      <trkpt lat="43.76431" lon="7.03813">
        <ele>971.3</ele>
        <time>2022-09-21T12:55:54.000Z</time>
      </trkpt>
      <trkpt lat="43.7643" lon="7.03801">
        <ele>970.5</ele>
        <time>2022-09-21T12:55:56.000Z</time>
      </trkpt>
      <trkpt lat="43.76429" lon="7.03791">
        <ele>970.5</ele>
        <time>2022-09-21T12:55:58.000Z</time>
      </trkpt>
      <trkpt lat="43.76429" lon="7.03781">
        <ele>970.1</ele>
        <time>2022-09-21T12:56:00.000Z</time>
      </trkpt>
      <trkpt lat="43.76429" lon="7.03774">
        <ele>970.3</ele>
        <time>2022-09-21T12:56:02.000Z</time>
      </trkpt>
      <trkpt lat="43.76429" lon="7.03767">
        <ele>969.7</ele>
        <time>2022-09-21T12:56:04.000Z</time>
      </trkpt>
      <trkpt lat="43.76425" lon="7.03763">
        <ele>969.3</ele>
        <time>2022-09-21T12:56:07.000Z</time>
      </trkpt>
      <trkpt lat="43.7642" lon="7.03758">
        <ele>968.8</ele>
        <time>2022-09-21T12:56:10.000Z</time>
      </trkpt>
      <trkpt lat="43.76415" lon="7.03752">
        <ele>968.6</ele>
        <time>2022-09-21T12:56:13.000Z</time>
      </trkpt>
      <trkpt lat="43.76413" lon="7.03745">
        <ele>966.5</ele>
        <time>2022-09-21T12:56:15.000Z</time>
      </trkpt>
      <trkpt lat="43.76414" lon="7.03737">
        <ele>964.9</ele>
        <time>2022-09-21T12:56:17.000Z</time>
      </trkpt>
      <trkpt lat="43.76412" lon="7.03726">
        <ele>963.4</ele>
        <time>2022-09-21T12:56:19.000Z</time>
      </trkpt>
      <trkpt lat="43.76411" lon="7.03719">
        <ele>962.7</ele>
        <time>2022-09-21T12:56:20.000Z</time>
      </trkpt>
      <trkpt lat="43.76409" lon="7.03712">
        <ele>962.6</ele>
        <time>2022-09-21T12:56:21.000Z</time>
      </trkpt>
      <trkpt lat="43.76406" lon="7.03705">
        <ele>962.5</ele>
        <time>2022-09-21T12:56:22.000Z</time>
      </trkpt>
      <trkpt lat="43.76404" lon="7.037">
        <ele>963</ele>
        <time>2022-09-21T12:56:23.000Z</time>
      </trkpt>
      <trkpt lat="43.76401" lon="7.03695">
        <ele>963.1</ele>
        <time>2022-09-21T12:56:24.000Z</time>
      </trkpt>
      <trkpt lat="43.76397" lon="7.0369">
        <ele>962.9</ele>
        <time>2022-09-21T12:56:25.000Z</time>
      </trkpt>
      <trkpt lat="43.76394" lon="7.03685">
        <ele>962.9</ele>
        <time>2022-09-21T12:56:26.000Z</time>
      </trkpt>
      <trkpt lat="43.76392" lon="7.03679">
        <ele>962.3</ele>
        <time>2022-09-21T12:56:27.000Z</time>
      </trkpt>
      <trkpt lat="43.76388" lon="7.03673">
        <ele>961.9</ele>
        <time>2022-09-21T12:56:28.000Z</time>
      </trkpt>
      <trkpt lat="43.76384" lon="7.03666">
        <ele>961.6</ele>
        <time>2022-09-21T12:56:29.000Z</time>
      </trkpt>
      <trkpt lat="43.76379" lon="7.03659">
        <ele>961.2</ele>
        <time>2022-09-21T12:56:30.000Z</time>
      </trkpt>
      <trkpt lat="43.7637" lon="7.03653">
        <ele>960.8</ele>
        <time>2022-09-21T12:56:31.000Z</time>
      </trkpt>
      <trkpt lat="43.76362" lon="7.03646">
        <ele>960.7</ele>
        <time>2022-09-21T12:56:32.000Z</time>
      </trkpt>
      <trkpt lat="43.76355" lon="7.03641">
        <ele>960.5</ele>
        <time>2022-09-21T12:56:33.000Z</time>
      </trkpt>
      <trkpt lat="43.76348" lon="7.03636">
        <ele>960.6</ele>
        <time>2022-09-21T12:56:34.000Z</time>
      </trkpt>
      <trkpt lat="43.76343" lon="7.03632">
        <ele>960.8</ele>
        <time>2022-09-21T12:56:35.000Z</time>
      </trkpt>
      <trkpt lat="43.76335" lon="7.0363">
        <ele>961</ele>
        <time>2022-09-21T12:56:36.000Z</time>
      </trkpt>
      <trkpt lat="43.7633" lon="7.03626">
        <ele>961.2</ele>
        <time>2022-09-21T12:56:37.000Z</time>
      </trkpt>
      <trkpt lat="43.76325" lon="7.03623">
        <ele>961.4</ele>
        <time>2022-09-21T12:56:38.000Z</time>
      </trkpt>
      <trkpt lat="43.7632" lon="7.0362">
        <ele>961.4</ele>
        <time>2022-09-21T12:56:39.000Z</time>
      </trkpt>
      <trkpt lat="43.76315" lon="7.03618">
        <ele>961.7</ele>
        <time>2022-09-21T12:56:40.000Z</time>
      </trkpt>
      <trkpt lat="43.76308" lon="7.03613">
        <ele>962.2</ele>
        <time>2022-09-21T12:56:42.000Z</time>
      </trkpt>
      <trkpt lat="43.763" lon="7.03607">
        <ele>961.6</ele>
        <time>2022-09-21T12:56:44.000Z</time>
      </trkpt>
      <trkpt lat="43.76296" lon="7.03603">
        <ele>961.2</ele>
        <time>2022-09-21T12:56:45.000Z</time>
      </trkpt>
      <trkpt lat="43.76292" lon="7.03599">
        <ele>960.8</ele>
        <time>2022-09-21T12:56:46.000Z</time>
      </trkpt>
      <trkpt lat="43.76288" lon="7.03595">
        <ele>960.3</ele>
        <time>2022-09-21T12:56:47.000Z</time>
      </trkpt>
      <trkpt lat="43.76284" lon="7.03591">
        <ele>959.9</ele>
        <time>2022-09-21T12:56:48.000Z</time>
      </trkpt>
      <trkpt lat="43.7628" lon="7.03586">
        <ele>959.9</ele>
        <time>2022-09-21T12:56:49.000Z</time>
      </trkpt>
      <trkpt lat="43.76277" lon="7.03582">
        <ele>960.2</ele>
        <time>2022-09-21T12:56:50.000Z</time>
      </trkpt>
      <trkpt lat="43.76273" lon="7.03576">
        <ele>959.9</ele>
        <time>2022-09-21T12:56:51.000Z</time>
      </trkpt>
      <trkpt lat="43.7627" lon="7.03571">
        <ele>960</ele>
        <time>2022-09-21T12:56:52.000Z</time>
      </trkpt>
      <trkpt lat="43.76264" lon="7.03563">
        <ele>960.4</ele>
        <time>2022-09-21T12:56:54.000Z</time>
      </trkpt>
      <trkpt lat="43.76258" lon="7.03558">
        <ele>960.2</ele>
        <time>2022-09-21T12:56:56.000Z</time>
      </trkpt>
      <trkpt lat="43.76251" lon="7.03549">
        <ele>959.6</ele>
        <time>2022-09-21T12:56:58.000Z</time>
      </trkpt>
      <trkpt lat="43.76248" lon="7.03545">
        <ele>959.5</ele>
        <time>2022-09-21T12:56:59.000Z</time>
      </trkpt>
      <trkpt lat="43.76244" lon="7.03542">
        <ele>959.3</ele>
        <time>2022-09-21T12:57:00.000Z</time>
      </trkpt>
      <trkpt lat="43.76235" lon="7.03538">
        <ele>958.1</ele>
        <time>2022-09-21T12:57:02.000Z</time>
      </trkpt>
      <trkpt lat="43.76231" lon="7.03535">
        <ele>957.2</ele>
        <time>2022-09-21T12:57:03.000Z</time>
      </trkpt>
      <trkpt lat="43.76227" lon="7.03531">
        <ele>956.7</ele>
        <time>2022-09-21T12:57:04.000Z</time>
      </trkpt>
      <trkpt lat="43.76223" lon="7.03526">
        <ele>955.7</ele>
        <time>2022-09-21T12:57:05.000Z</time>
      </trkpt>
      <trkpt lat="43.76219" lon="7.0352">
        <ele>955</ele>
        <time>2022-09-21T12:57:06.000Z</time>
      </trkpt>
      <trkpt lat="43.76215" lon="7.03514">
        <ele>954.2</ele>
        <time>2022-09-21T12:57:07.000Z</time>
      </trkpt>
      <trkpt lat="43.76211" lon="7.03507">
        <ele>953.6</ele>
        <time>2022-09-21T12:57:08.000Z</time>
      </trkpt>
      <trkpt lat="43.76207" lon="7.03499">
        <ele>953</ele>
        <time>2022-09-21T12:57:09.000Z</time>
      </trkpt>
      <trkpt lat="43.76203" lon="7.03492">
        <ele>951.5</ele>
        <time>2022-09-21T12:57:10.000Z</time>
      </trkpt>
      <trkpt lat="43.76198" lon="7.03486">
        <ele>951.2</ele>
        <time>2022-09-21T12:57:11.000Z</time>
      </trkpt>
      <trkpt lat="43.76194" lon="7.03481">
        <ele>950.6</ele>
        <time>2022-09-21T12:57:12.000Z</time>
      </trkpt>
      <trkpt lat="43.76187" lon="7.03478">
        <ele>950</ele>
        <time>2022-09-21T12:57:13.000Z</time>
      </trkpt>
      <trkpt lat="43.76181" lon="7.03473">
        <ele>949.3</ele>
        <time>2022-09-21T12:57:14.000Z</time>
      </trkpt>
      <trkpt lat="43.76176" lon="7.03467">
        <ele>949.4</ele>
        <time>2022-09-21T12:57:15.000Z</time>
      </trkpt>
      <trkpt lat="43.76171" lon="7.03462">
        <ele>949.6</ele>
        <time>2022-09-21T12:57:16.000Z</time>
      </trkpt>
      <trkpt lat="43.76166" lon="7.03457">
        <ele>949.3</ele>
        <time>2022-09-21T12:57:17.000Z</time>
      </trkpt>
      <trkpt lat="43.76162" lon="7.03451">
        <ele>948.7</ele>
        <time>2022-09-21T12:57:18.000Z</time>
      </trkpt>
      <trkpt lat="43.76158" lon="7.03446">
        <ele>947.9</ele>
        <time>2022-09-21T12:57:19.000Z</time>
      </trkpt>
      <trkpt lat="43.76154" lon="7.03441">
        <ele>947.5</ele>
        <time>2022-09-21T12:57:20.000Z</time>
      </trkpt>
      <trkpt lat="43.76151" lon="7.03434">
        <ele>947.4</ele>
        <time>2022-09-21T12:57:21.000Z</time>
      </trkpt>
      <trkpt lat="43.76148" lon="7.03428">
        <ele>947.5</ele>
        <time>2022-09-21T12:57:22.000Z</time>
      </trkpt>
      <trkpt lat="43.76144" lon="7.03423">
        <ele>947.3</ele>
        <time>2022-09-21T12:57:23.000Z</time>
      </trkpt>
      <trkpt lat="43.76141" lon="7.03417">
        <ele>947.1</ele>
        <time>2022-09-21T12:57:24.000Z</time>
      </trkpt>
      <trkpt lat="43.76138" lon="7.03412">
        <ele>947.2</ele>
        <time>2022-09-21T12:57:25.000Z</time>
      </trkpt>
      <trkpt lat="43.76135" lon="7.03406">
        <ele>947.3</ele>
        <time>2022-09-21T12:57:26.000Z</time>
      </trkpt>
      <trkpt lat="43.7613" lon="7.03397">
        <ele>947.3</ele>
        <time>2022-09-21T12:57:28.000Z</time>
      </trkpt>
      <trkpt lat="43.76127" lon="7.03388">
        <ele>947.3</ele>
        <time>2022-09-21T12:57:30.000Z</time>
      </trkpt>
      <trkpt lat="43.76123" lon="7.03377">
        <ele>947.1</ele>
        <time>2022-09-21T12:57:32.000Z</time>
      </trkpt>
      <trkpt lat="43.7612" lon="7.03371">
        <ele>946.8</ele>
        <time>2022-09-21T12:57:33.000Z</time>
      </trkpt>
      <trkpt lat="43.76118" lon="7.03365">
        <ele>946.6</ele>
        <time>2022-09-21T12:57:34.000Z</time>
      </trkpt>
      <trkpt lat="43.76116" lon="7.03358">
        <ele>947</ele>
        <time>2022-09-21T12:57:35.000Z</time>
      </trkpt>
      <trkpt lat="43.76114" lon="7.03352">
        <ele>947.2</ele>
        <time>2022-09-21T12:57:36.000Z</time>
      </trkpt>
      <trkpt lat="43.76108" lon="7.03343">
        <ele>947.4</ele>
        <time>2022-09-21T12:57:38.000Z</time>
      </trkpt>
      <trkpt lat="43.76103" lon="7.03335">
        <ele>947.8</ele>
        <time>2022-09-21T12:57:40.000Z</time>
      </trkpt>
      <trkpt lat="43.76099" lon="7.03327">
        <ele>948.6</ele>
        <time>2022-09-21T12:57:42.000Z</time>
      </trkpt>
      <trkpt lat="43.76093" lon="7.0332">
        <ele>948.3</ele>
        <time>2022-09-21T12:57:44.000Z</time>
      </trkpt>
      <trkpt lat="43.76088" lon="7.03313">
        <ele>949</ele>
        <time>2022-09-21T12:57:46.000Z</time>
      </trkpt>
      <trkpt lat="43.76084" lon="7.03306">
        <ele>949.5</ele>
        <time>2022-09-21T12:57:48.000Z</time>
      </trkpt>
      <trkpt lat="43.76079" lon="7.03299">
        <ele>949.5</ele>
        <time>2022-09-21T12:57:50.000Z</time>
      </trkpt>
      <trkpt lat="43.76072" lon="7.03294">
        <ele>949.1</ele>
        <time>2022-09-21T12:57:52.000Z</time>
      </trkpt>
      <trkpt lat="43.76068" lon="7.03291">
        <ele>948.7</ele>
        <time>2022-09-21T12:57:53.000Z</time>
      </trkpt>
      <trkpt lat="43.7606" lon="7.03285">
        <ele>947.7</ele>
        <time>2022-09-21T12:57:55.000Z</time>
      </trkpt>
      <trkpt lat="43.76056" lon="7.03283">
        <ele>947.8</ele>
        <time>2022-09-21T12:57:56.000Z</time>
      </trkpt>
      <trkpt lat="43.76052" lon="7.0328">
        <ele>947.8</ele>
        <time>2022-09-21T12:57:57.000Z</time>
      </trkpt>
      <trkpt lat="43.76045" lon="7.03273">
        <ele>947.3</ele>
        <time>2022-09-21T12:57:59.000Z</time>
      </trkpt>
      <trkpt lat="43.76039" lon="7.03264">
        <ele>946.7</ele>
        <time>2022-09-21T12:58:01.000Z</time>
      </trkpt>
      <trkpt lat="43.76034" lon="7.03255">
        <ele>946.6</ele>
        <time>2022-09-21T12:58:03.000Z</time>
      </trkpt>
      <trkpt lat="43.76029" lon="7.03245">
        <ele>947.1</ele>
        <time>2022-09-21T12:58:05.000Z</time>
      </trkpt>
      <trkpt lat="43.76025" lon="7.03237">
        <ele>946.9</ele>
        <time>2022-09-21T12:58:07.000Z</time>
      </trkpt>
      <trkpt lat="43.76019" lon="7.03229">
        <ele>946.7</ele>
        <time>2022-09-21T12:58:09.000Z</time>
      </trkpt>
      <trkpt lat="43.76013" lon="7.03221">
        <ele>946.1</ele>
        <time>2022-09-21T12:58:11.000Z</time>
      </trkpt>
      <trkpt lat="43.76008" lon="7.03211">
        <ele>945.4</ele>
        <time>2022-09-21T12:58:13.000Z</time>
      </trkpt>
      <trkpt lat="43.76005" lon="7.032">
        <ele>945.8</ele>
        <time>2022-09-21T12:58:15.000Z</time>
      </trkpt>
      <trkpt lat="43.76002" lon="7.0319">
        <ele>946.3</ele>
        <time>2022-09-21T12:58:17.000Z</time>
      </trkpt>
      <trkpt lat="43.76001" lon="7.03178">
        <ele>945.9</ele>
        <time>2022-09-21T12:58:19.000Z</time>
      </trkpt>
      <trkpt lat="43.76" lon="7.03172">
        <ele>945.4</ele>
        <time>2022-09-21T12:58:20.000Z</time>
      </trkpt>
      <trkpt lat="43.75998" lon="7.03166">
        <ele>945.2</ele>
        <time>2022-09-21T12:58:21.000Z</time>
      </trkpt>
      <trkpt lat="43.75996" lon="7.0316">
        <ele>945.4</ele>
        <time>2022-09-21T12:58:22.000Z</time>
      </trkpt>
      <trkpt lat="43.75994" lon="7.03155">
        <ele>945.4</ele>
        <time>2022-09-21T12:58:23.000Z</time>
      </trkpt>
      <trkpt lat="43.75992" lon="7.03149">
        <ele>945.6</ele>
        <time>2022-09-21T12:58:24.000Z</time>
      </trkpt>
      <trkpt lat="43.75986" lon="7.03139">
        <ele>946</ele>
        <time>2022-09-21T12:58:26.000Z</time>
      </trkpt>
      <trkpt lat="43.75981" lon="7.03131">
        <ele>946.5</ele>
        <time>2022-09-21T12:58:28.000Z</time>
      </trkpt>
      <trkpt lat="43.75976" lon="7.03123">
        <ele>946.9</ele>
        <time>2022-09-21T12:58:30.000Z</time>
      </trkpt>
      <trkpt lat="43.7597" lon="7.03115">
        <ele>946.3</ele>
        <time>2022-09-21T12:58:32.000Z</time>
      </trkpt>
      <trkpt lat="43.75964" lon="7.03105">
        <ele>945.8</ele>
        <time>2022-09-21T12:58:34.000Z</time>
      </trkpt>
      <trkpt lat="43.75962" lon="7.031">
        <ele>945.7</ele>
        <time>2022-09-21T12:58:35.000Z</time>
      </trkpt>
      <trkpt lat="43.75958" lon="7.03089">
        <ele>945.8</ele>
        <time>2022-09-21T12:58:37.000Z</time>
      </trkpt>
      <trkpt lat="43.75955" lon="7.03079">
        <ele>945.7</ele>
        <time>2022-09-21T12:58:39.000Z</time>
      </trkpt>
      <trkpt lat="43.75954" lon="7.03072">
        <ele>945.8</ele>
        <time>2022-09-21T12:58:40.000Z</time>
      </trkpt>
      <trkpt lat="43.75951" lon="7.03065">
        <ele>945.3</ele>
        <time>2022-09-21T12:58:41.000Z</time>
      </trkpt>
      <trkpt lat="43.75948" lon="7.03059">
        <ele>945</ele>
        <time>2022-09-21T12:58:42.000Z</time>
      </trkpt>
      <trkpt lat="43.75945" lon="7.03054">
        <ele>944.3</ele>
        <time>2022-09-21T12:58:43.000Z</time>
      </trkpt>
      <trkpt lat="43.7594" lon="7.0305">
        <ele>944.2</ele>
        <time>2022-09-21T12:58:44.000Z</time>
      </trkpt>
      <trkpt lat="43.75935" lon="7.03046">
        <ele>943.7</ele>
        <time>2022-09-21T12:58:45.000Z</time>
      </trkpt>
      <trkpt lat="43.7593" lon="7.03041">
        <ele>943.5</ele>
        <time>2022-09-21T12:58:46.000Z</time>
      </trkpt>
      <trkpt lat="43.75927" lon="7.03036">
        <ele>943.3</ele>
        <time>2022-09-21T12:58:47.000Z</time>
      </trkpt>
      <trkpt lat="43.75924" lon="7.0303">
        <ele>943.5</ele>
        <time>2022-09-21T12:58:48.000Z</time>
      </trkpt>
      <trkpt lat="43.75921" lon="7.03024">
        <ele>943.6</ele>
        <time>2022-09-21T12:58:49.000Z</time>
      </trkpt>
      <trkpt lat="43.75919" lon="7.03018">
        <ele>943.7</ele>
        <time>2022-09-21T12:58:50.000Z</time>
      </trkpt>
      <trkpt lat="43.75917" lon="7.03012">
        <ele>943.7</ele>
        <time>2022-09-21T12:58:51.000Z</time>
      </trkpt>
      <trkpt lat="43.75915" lon="7.03006">
        <ele>943.2</ele>
        <time>2022-09-21T12:58:52.000Z</time>
      </trkpt>
      <trkpt lat="43.75912" lon="7.03001">
        <ele>943.1</ele>
        <time>2022-09-21T12:58:53.000Z</time>
      </trkpt>
      <trkpt lat="43.75909" lon="7.02995">
        <ele>943</ele>
        <time>2022-09-21T12:58:54.000Z</time>
      </trkpt>
      <trkpt lat="43.75902" lon="7.02987">
        <ele>942.6</ele>
        <time>2022-09-21T12:58:56.000Z</time>
      </trkpt>
      <trkpt lat="43.75899" lon="7.02982">
        <ele>942.4</ele>
        <time>2022-09-21T12:58:57.000Z</time>
      </trkpt>
      <trkpt lat="43.75896" lon="7.0297">
        <ele>942.3</ele>
        <time>2022-09-21T12:58:59.000Z</time>
      </trkpt>
      <trkpt lat="43.75894" lon="7.02963">
        <ele>941.8</ele>
        <time>2022-09-21T12:59:00.000Z</time>
      </trkpt>
      <trkpt lat="43.75892" lon="7.02956">
        <ele>941.6</ele>
        <time>2022-09-21T12:59:01.000Z</time>
      </trkpt>
      <trkpt lat="43.7589" lon="7.02948">
        <ele>941.6</ele>
        <time>2022-09-21T12:59:02.000Z</time>
      </trkpt>
      <trkpt lat="43.75888" lon="7.0294">
        <ele>941.9</ele>
        <time>2022-09-21T12:59:03.000Z</time>
      </trkpt>
      <trkpt lat="43.75886" lon="7.02934">
        <ele>942</ele>
        <time>2022-09-21T12:59:04.000Z</time>
      </trkpt>
      <trkpt lat="43.75881" lon="7.02924">
        <ele>942.2</ele>
        <time>2022-09-21T12:59:06.000Z</time>
      </trkpt>
      <trkpt lat="43.75876" lon="7.02915">
        <ele>942.7</ele>
        <time>2022-09-21T12:59:08.000Z</time>
      </trkpt>
      <trkpt lat="43.7587" lon="7.02909">
        <ele>942.9</ele>
        <time>2022-09-21T12:59:10.000Z</time>
      </trkpt>
      <trkpt lat="43.75864" lon="7.02904">
        <ele>942.8</ele>
        <time>2022-09-21T12:59:12.000Z</time>
      </trkpt>
      <trkpt lat="43.75858" lon="7.02898">
        <ele>942.9</ele>
        <time>2022-09-21T12:59:14.000Z</time>
      </trkpt>
      <trkpt lat="43.75853" lon="7.02891">
        <ele>943.5</ele>
        <time>2022-09-21T12:59:16.000Z</time>
      </trkpt>
      <trkpt lat="43.75849" lon="7.02885">
        <ele>943.9</ele>
        <time>2022-09-21T12:59:18.000Z</time>
      </trkpt>
      <trkpt lat="43.75846" lon="7.02879">
        <ele>944.1</ele>
        <time>2022-09-21T12:59:20.000Z</time>
      </trkpt>
      <trkpt lat="43.75843" lon="7.02872">
        <ele>944.7</ele>
        <time>2022-09-21T12:59:22.000Z</time>
      </trkpt>
      <trkpt lat="43.75841" lon="7.02866">
        <ele>944.8</ele>
        <time>2022-09-21T12:59:24.000Z</time>
      </trkpt>
      <trkpt lat="43.75835" lon="7.02857">
        <ele>943.9</ele>
        <time>2022-09-21T12:59:26.000Z</time>
      </trkpt>
      <trkpt lat="43.75829" lon="7.02848">
        <ele>943.5</ele>
        <time>2022-09-21T12:59:28.000Z</time>
      </trkpt>
      <trkpt lat="43.75824" lon="7.0284">
        <ele>944.2</ele>
        <time>2022-09-21T12:59:30.000Z</time>
      </trkpt>
      <trkpt lat="43.75819" lon="7.0283">
        <ele>944.1</ele>
        <time>2022-09-21T12:59:32.000Z</time>
      </trkpt>
      <trkpt lat="43.75815" lon="7.0282">
        <ele>944</ele>
        <time>2022-09-21T12:59:34.000Z</time>
      </trkpt>
      <trkpt lat="43.75811" lon="7.02811">
        <ele>944.3</ele>
        <time>2022-09-21T12:59:36.000Z</time>
      </trkpt>
      <trkpt lat="43.75807" lon="7.02801">
        <ele>944.3</ele>
        <time>2022-09-21T12:59:38.000Z</time>
      </trkpt>
      <trkpt lat="43.75805" lon="7.02791">
        <ele>943.9</ele>
        <time>2022-09-21T12:59:40.000Z</time>
      </trkpt>
      <trkpt lat="43.75802" lon="7.02782">
        <ele>944.7</ele>
        <time>2022-09-21T12:59:42.000Z</time>
      </trkpt>
      <trkpt lat="43.75798" lon="7.02773">
        <ele>944.7</ele>
        <time>2022-09-21T12:59:44.000Z</time>
      </trkpt>
      <trkpt lat="43.75795" lon="7.02766">
        <ele>944.9</ele>
        <time>2022-09-21T12:59:46.000Z</time>
      </trkpt>
      <trkpt lat="43.75793" lon="7.02759">
        <ele>945.1</ele>
        <time>2022-09-21T12:59:48.000Z</time>
      </trkpt>
      <trkpt lat="43.7579" lon="7.02751">
        <ele>945.3</ele>
        <time>2022-09-21T12:59:50.000Z</time>
      </trkpt>
      <trkpt lat="43.75789" lon="7.02743">
        <ele>945.6</ele>
        <time>2022-09-21T12:59:52.000Z</time>
      </trkpt>
      <trkpt lat="43.75788" lon="7.02734">
        <ele>945.8</ele>
        <time>2022-09-21T12:59:54.000Z</time>
      </trkpt>
      <trkpt lat="43.75787" lon="7.02725">
        <ele>946</ele>
        <time>2022-09-21T12:59:56.000Z</time>
      </trkpt>
      <trkpt lat="43.75784" lon="7.02716">
        <ele>945.8</ele>
        <time>2022-09-21T12:59:58.000Z</time>
      </trkpt>
      <trkpt lat="43.75782" lon="7.02706">
        <ele>946.1</ele>
        <time>2022-09-21T13:00:00.000Z</time>
      </trkpt>
      <trkpt lat="43.75781" lon="7.02697">
        <ele>946.2</ele>
        <time>2022-09-21T13:00:02.000Z</time>
      </trkpt>
      <trkpt lat="43.7578" lon="7.02689">
        <ele>946.5</ele>
        <time>2022-09-21T13:00:04.000Z</time>
      </trkpt>
      <trkpt lat="43.7578" lon="7.0268">
        <ele>946.6</ele>
        <time>2022-09-21T13:00:06.000Z</time>
      </trkpt>
      <trkpt lat="43.75778" lon="7.0267">
        <ele>946.1</ele>
        <time>2022-09-21T13:00:08.000Z</time>
      </trkpt>
      <trkpt lat="43.75778" lon="7.02659">
        <ele>945.3</ele>
        <time>2022-09-21T13:00:10.000Z</time>
      </trkpt>
      <trkpt lat="43.75779" lon="7.02652">
        <ele>944.6</ele>
        <time>2022-09-21T13:00:11.000Z</time>
      </trkpt>
      <trkpt lat="43.7578" lon="7.02645">
        <ele>943.9</ele>
        <time>2022-09-21T13:00:12.000Z</time>
      </trkpt>
      <trkpt lat="43.7578" lon="7.02638">
        <ele>943.5</ele>
        <time>2022-09-21T13:00:13.000Z</time>
      </trkpt>
      <trkpt lat="43.75781" lon="7.0263">
        <ele>943.2</ele>
        <time>2022-09-21T13:00:14.000Z</time>
      </trkpt>
      <trkpt lat="43.75782" lon="7.02623">
        <ele>943.5</ele>
        <time>2022-09-21T13:00:15.000Z</time>
      </trkpt>
      <trkpt lat="43.75782" lon="7.02616">
        <ele>943.9</ele>
        <time>2022-09-21T13:00:16.000Z</time>
      </trkpt>
      <trkpt lat="43.75783" lon="7.02609">
        <ele>944</ele>
        <time>2022-09-21T13:00:17.000Z</time>
      </trkpt>
      <trkpt lat="43.75784" lon="7.02602">
        <ele>944.1</ele>
        <time>2022-09-21T13:00:18.000Z</time>
      </trkpt>
      <trkpt lat="43.75785" lon="7.02596">
        <ele>944</ele>
        <time>2022-09-21T13:00:19.000Z</time>
      </trkpt>
      <trkpt lat="43.75785" lon="7.02589">
        <ele>943.3</ele>
        <time>2022-09-21T13:00:20.000Z</time>
      </trkpt>
      <trkpt lat="43.75785" lon="7.02583">
        <ele>943.1</ele>
        <time>2022-09-21T13:00:21.000Z</time>
      </trkpt>
      <trkpt lat="43.75785" lon="7.02575">
        <ele>942.8</ele>
        <time>2022-09-21T13:00:22.000Z</time>
      </trkpt>
      <trkpt lat="43.75785" lon="7.02569">
        <ele>942.3</ele>
        <time>2022-09-21T13:00:23.000Z</time>
      </trkpt>
      <trkpt lat="43.75786" lon="7.02562">
        <ele>942</ele>
        <time>2022-09-21T13:00:24.000Z</time>
      </trkpt>
      <trkpt lat="43.75787" lon="7.02556">
        <ele>942</ele>
        <time>2022-09-21T13:00:25.000Z</time>
      </trkpt>
      <trkpt lat="43.75787" lon="7.02549">
        <ele>942</ele>
        <time>2022-09-21T13:00:26.000Z</time>
      </trkpt>
      <trkpt lat="43.75786" lon="7.02542">
        <ele>941.8</ele>
        <time>2022-09-21T13:00:27.000Z</time>
      </trkpt>
      <trkpt lat="43.75785" lon="7.02535">
        <ele>941.4</ele>
        <time>2022-09-21T13:00:28.000Z</time>
      </trkpt>
      <trkpt lat="43.75784" lon="7.02528">
        <ele>941.1</ele>
        <time>2022-09-21T13:00:29.000Z</time>
      </trkpt>
      <trkpt lat="43.75783" lon="7.02521">
        <ele>941</ele>
        <time>2022-09-21T13:00:30.000Z</time>
      </trkpt>
      <trkpt lat="43.75782" lon="7.02514">
        <ele>940.9</ele>
        <time>2022-09-21T13:00:31.000Z</time>
      </trkpt>
      <trkpt lat="43.75782" lon="7.02508">
        <ele>940.6</ele>
        <time>2022-09-21T13:00:32.000Z</time>
      </trkpt>
      <trkpt lat="43.75781" lon="7.02501">
        <ele>940.5</ele>
        <time>2022-09-21T13:00:33.000Z</time>
      </trkpt>
      <trkpt lat="43.75781" lon="7.02495">
        <ele>940.5</ele>
        <time>2022-09-21T13:00:34.000Z</time>
      </trkpt>
      <trkpt lat="43.75782" lon="7.02485">
        <ele>940.8</ele>
        <time>2022-09-21T13:00:36.000Z</time>
      </trkpt>
      <trkpt lat="43.75782" lon="7.02477">
        <ele>940.8</ele>
        <time>2022-09-21T13:00:38.000Z</time>
      </trkpt>
      <trkpt lat="43.75781" lon="7.02468">
        <ele>940.5</ele>
        <time>2022-09-21T13:00:40.000Z</time>
      </trkpt>
      <trkpt lat="43.7578" lon="7.02459">
        <ele>940.4</ele>
        <time>2022-09-21T13:00:42.000Z</time>
      </trkpt>
      <trkpt lat="43.75778" lon="7.02449">
        <ele>941</ele>
        <time>2022-09-21T13:00:44.000Z</time>
      </trkpt>
      <trkpt lat="43.75776" lon="7.02442">
        <ele>941.1</ele>
        <time>2022-09-21T13:00:46.000Z</time>
      </trkpt>
      <trkpt lat="43.75773" lon="7.02433">
        <ele>941.6</ele>
        <time>2022-09-21T13:00:48.000Z</time>
      </trkpt>
      <trkpt lat="43.75772" lon="7.02425">
        <ele>941.2</ele>
        <time>2022-09-21T13:00:50.000Z</time>
      </trkpt>
      <trkpt lat="43.75771" lon="7.02417">
        <ele>941.1</ele>
        <time>2022-09-21T13:00:52.000Z</time>
      </trkpt>
      <trkpt lat="43.75772" lon="7.02407">
        <ele>941.3</ele>
        <time>2022-09-21T13:00:54.000Z</time>
      </trkpt>
      <trkpt lat="43.75774" lon="7.02397">
        <ele>941.2</ele>
        <time>2022-09-21T13:00:56.000Z</time>
      </trkpt>
      <trkpt lat="43.75776" lon="7.02387">
        <ele>940.9</ele>
        <time>2022-09-21T13:00:58.000Z</time>
      </trkpt>
      <trkpt lat="43.75777" lon="7.02378">
        <ele>941.2</ele>
        <time>2022-09-21T13:01:00.000Z</time>
      </trkpt>
      <trkpt lat="43.75778" lon="7.02369">
        <ele>941.6</ele>
        <time>2022-09-21T13:01:02.000Z</time>
      </trkpt>
      <trkpt lat="43.7578" lon="7.02359">
        <ele>942</ele>
        <time>2022-09-21T13:01:04.000Z</time>
      </trkpt>
      <trkpt lat="43.75784" lon="7.02351">
        <ele>941.4</ele>
        <time>2022-09-21T13:01:06.000Z</time>
      </trkpt>
      <trkpt lat="43.75786" lon="7.02341">
        <ele>941.7</ele>
        <time>2022-09-21T13:01:08.000Z</time>
      </trkpt>
      <trkpt lat="43.75788" lon="7.02331">
        <ele>941.6</ele>
        <time>2022-09-21T13:01:10.000Z</time>
      </trkpt>
      <trkpt lat="43.75788" lon="7.02322">
        <ele>941.9</ele>
        <time>2022-09-21T13:01:12.000Z</time>
      </trkpt>
      <trkpt lat="43.75788" lon="7.02315">
        <ele>942.2</ele>
        <time>2022-09-21T13:01:15.000Z</time>
      </trkpt>
      <trkpt lat="43.75786" lon="7.02315">
        <ele>942</ele>
        <time>2022-09-21T13:01:25.000Z</time>
      </trkpt>
      <trkpt lat="43.75786" lon="7.02315">
        <ele>942</ele>
        <time>2022-09-21T13:01:26.000Z</time>
      </trkpt>
      <trkpt lat="43.75788" lon="7.0231">
        <ele>941.6</ele>
        <time>2022-09-21T13:01:31.000Z</time>
      </trkpt>
      <trkpt lat="43.75787" lon="7.02303">
        <ele>942.1</ele>
        <time>2022-09-21T13:01:33.000Z</time>
      </trkpt>
      <trkpt lat="43.75786" lon="7.02295">
        <ele>941.8</ele>
        <time>2022-09-21T13:01:35.000Z</time>
      </trkpt>
      <trkpt lat="43.75787" lon="7.02287">
        <ele>942</ele>
        <time>2022-09-21T13:01:37.000Z</time>
      </trkpt>
      <trkpt lat="43.75787" lon="7.02279">
        <ele>942.4</ele>
        <time>2022-09-21T13:01:39.000Z</time>
      </trkpt>
      <trkpt lat="43.75783" lon="7.02272">
        <ele>942.7</ele>
        <time>2022-09-21T13:01:41.000Z</time>
      </trkpt>
      <trkpt lat="43.75779" lon="7.02266">
        <ele>943</ele>
        <time>2022-09-21T13:01:44.000Z</time>
      </trkpt>
      <trkpt lat="43.75775" lon="7.02262">
        <ele>944.1</ele>
        <time>2022-09-21T13:01:46.000Z</time>
      </trkpt>
      <trkpt lat="43.75772" lon="7.02256">
        <ele>944.4</ele>
        <time>2022-09-21T13:01:48.000Z</time>
      </trkpt>
      <trkpt lat="43.75771" lon="7.02249">
        <ele>944.4</ele>
        <time>2022-09-21T13:01:51.000Z</time>
      </trkpt>
      <trkpt lat="43.75772" lon="7.0224">
        <ele>944.7</ele>
        <time>2022-09-21T13:01:54.000Z</time>
      </trkpt>
      <trkpt lat="43.75774" lon="7.02232">
        <ele>945.8</ele>
        <time>2022-09-21T13:01:57.000Z</time>
      </trkpt>
      <trkpt lat="43.75776" lon="7.02224">
        <ele>945.7</ele>
        <time>2022-09-21T13:02:00.000Z</time>
      </trkpt>
      <trkpt lat="43.75777" lon="7.02216">
        <ele>946.2</ele>
        <time>2022-09-21T13:02:03.000Z</time>
      </trkpt>
      <trkpt lat="43.75777" lon="7.02209">
        <ele>946.5</ele>
        <time>2022-09-21T13:02:05.000Z</time>
      </trkpt>
      <trkpt lat="43.75777" lon="7.02201">
        <ele>946.4</ele>
        <time>2022-09-21T13:02:07.000Z</time>
      </trkpt>
      <trkpt lat="43.75775" lon="7.02193">
        <ele>946.4</ele>
        <time>2022-09-21T13:02:09.000Z</time>
      </trkpt>
      <trkpt lat="43.75774" lon="7.02187">
        <ele>946.6</ele>
        <time>2022-09-21T13:02:11.000Z</time>
      </trkpt>
      <trkpt lat="43.75773" lon="7.02181">
        <ele>946.8</ele>
        <time>2022-09-21T13:02:13.000Z</time>
      </trkpt>
      <trkpt lat="43.75773" lon="7.02175">
        <ele>946.7</ele>
        <time>2022-09-21T13:02:15.000Z</time>
      </trkpt>
      <trkpt lat="43.75778" lon="7.02169">
        <ele>947.4</ele>
        <time>2022-09-21T13:02:18.000Z</time>
      </trkpt>
      <trkpt lat="43.75781" lon="7.02161">
        <ele>947.6</ele>
        <time>2022-09-21T13:02:21.000Z</time>
      </trkpt>
      <trkpt lat="43.75783" lon="7.02153">
        <ele>947.7</ele>
        <time>2022-09-21T13:02:23.000Z</time>
      </trkpt>
      <trkpt lat="43.75786" lon="7.02143">
        <ele>947.2</ele>
        <time>2022-09-21T13:02:25.000Z</time>
      </trkpt>
      <trkpt lat="43.75788" lon="7.02132">
        <ele>946.3</ele>
        <time>2022-09-21T13:02:27.000Z</time>
      </trkpt>
      <trkpt lat="43.7579" lon="7.0212">
        <ele>946.2</ele>
        <time>2022-09-21T13:02:29.000Z</time>
      </trkpt>
      <trkpt lat="43.75792" lon="7.0211">
        <ele>946.1</ele>
        <time>2022-09-21T13:02:31.000Z</time>
      </trkpt>
      <trkpt lat="43.75794" lon="7.02101">
        <ele>946.2</ele>
        <time>2022-09-21T13:02:33.000Z</time>
      </trkpt>
      <trkpt lat="43.75795" lon="7.02093">
        <ele>946.5</ele>
        <time>2022-09-21T13:02:35.000Z</time>
      </trkpt>
      <trkpt lat="43.75796" lon="7.02085">
        <ele>946.4</ele>
        <time>2022-09-21T13:02:37.000Z</time>
      </trkpt>
      <trkpt lat="43.75797" lon="7.02078">
        <ele>946.8</ele>
        <time>2022-09-21T13:02:39.000Z</time>
      </trkpt>
      <trkpt lat="43.75799" lon="7.02071">
        <ele>946.8</ele>
        <time>2022-09-21T13:02:41.000Z</time>
      </trkpt>
      <trkpt lat="43.75801" lon="7.02064">
        <ele>947.4</ele>
        <time>2022-09-21T13:02:43.000Z</time>
      </trkpt>
      <trkpt lat="43.75803" lon="7.02059">
        <ele>947.8</ele>
        <time>2022-09-21T13:02:45.000Z</time>
      </trkpt>
      <trkpt lat="43.75806" lon="7.02052">
        <ele>948.2</ele>
        <time>2022-09-21T13:02:48.000Z</time>
      </trkpt>
      <trkpt lat="43.75807" lon="7.02045">
        <ele>948.7</ele>
        <time>2022-09-21T13:02:51.000Z</time>
      </trkpt>
      <trkpt lat="43.75807" lon="7.02037">
        <ele>949.3</ele>
        <time>2022-09-21T13:02:54.000Z</time>
      </trkpt>
      <trkpt lat="43.75808" lon="7.0203">
        <ele>950.2</ele>
        <time>2022-09-21T13:02:58.000Z</time>
      </trkpt>
      <trkpt lat="43.75809" lon="7.02022">
        <ele>951.2</ele>
        <time>2022-09-21T13:03:02.000Z</time>
      </trkpt>
      <trkpt lat="43.75812" lon="7.02017">
        <ele>952</ele>
        <time>2022-09-21T13:03:06.000Z</time>
      </trkpt>
      <trkpt lat="43.75811" lon="7.02009">
        <ele>952.9</ele>
        <time>2022-09-21T13:03:10.000Z</time>
      </trkpt>
      <trkpt lat="43.75809" lon="7.02002">
        <ele>953.6</ele>
        <time>2022-09-21T13:03:14.000Z</time>
      </trkpt>
      <trkpt lat="43.75807" lon="7.01996">
        <ele>954.2</ele>
        <time>2022-09-21T13:03:17.000Z</time>
      </trkpt>
      <trkpt lat="43.75806" lon="7.01989">
        <ele>954.5</ele>
        <time>2022-09-21T13:03:21.000Z</time>
      </trkpt>
      <trkpt lat="43.75805" lon="7.01982">
        <ele>954.9</ele>
        <time>2022-09-21T13:03:24.000Z</time>
      </trkpt>
      <trkpt lat="43.75806" lon="7.01975">
        <ele>955.3</ele>
        <time>2022-09-21T13:03:27.000Z</time>
      </trkpt>
      <trkpt lat="43.75807" lon="7.01969">
        <ele>955.7</ele>
        <time>2022-09-21T13:03:30.000Z</time>
      </trkpt>
      <trkpt lat="43.75808" lon="7.01962">
        <ele>956.1</ele>
        <time>2022-09-21T13:03:33.000Z</time>
      </trkpt>
      <trkpt lat="43.75808" lon="7.01954">
        <ele>956.6</ele>
        <time>2022-09-21T13:03:37.000Z</time>
      </trkpt>
      <trkpt lat="43.75808" lon="7.01946">
        <ele>956.9</ele>
        <time>2022-09-21T13:03:40.000Z</time>
      </trkpt>
      <trkpt lat="43.75808" lon="7.01939">
        <ele>957.1</ele>
        <time>2022-09-21T13:03:43.000Z</time>
      </trkpt>
      <trkpt lat="43.75808" lon="7.0193">
        <ele>957.1</ele>
        <time>2022-09-21T13:03:46.000Z</time>
      </trkpt>
      <trkpt lat="43.75808" lon="7.01922">
        <ele>957.4</ele>
        <time>2022-09-21T13:03:49.000Z</time>
      </trkpt>
      <trkpt lat="43.75806" lon="7.01915">
        <ele>957.4</ele>
        <time>2022-09-21T13:03:52.000Z</time>
      </trkpt>
      <trkpt lat="43.75803" lon="7.01909">
        <ele>957.5</ele>
        <time>2022-09-21T13:03:55.000Z</time>
      </trkpt>
      <trkpt lat="43.75803" lon="7.01909">
        <ele>957.6</ele>
        <time>2022-09-21T13:03:59.000Z</time>
      </trkpt>
      <trkpt lat="43.75804" lon="7.01909">
        <ele>957.2</ele>
        <time>2022-09-21T13:04:16.000Z</time>
      </trkpt>
      <trkpt lat="43.75804" lon="7.0191">
        <ele>957.2</ele>
        <time>2022-09-21T13:04:18.000Z</time>
      </trkpt>
      <trkpt lat="43.75804" lon="7.0191">
        <ele>957.5</ele>
        <time>2022-09-21T13:04:20.000Z</time>
      </trkpt>
      <trkpt lat="43.75804" lon="7.0191">
        <ele>957.6</ele>
        <time>2022-09-21T13:04:21.000Z</time>
      </trkpt>
      <trkpt lat="43.75804" lon="7.0191">
        <ele>957.5</ele>
        <time>2022-09-21T13:04:27.000Z</time>
      </trkpt>
      <trkpt lat="43.75801" lon="7.01904">
        <ele>957.8</ele>
        <time>2022-09-21T13:04:31.000Z</time>
      </trkpt>
      <trkpt lat="43.758" lon="7.01898">
        <ele>957.8</ele>
        <time>2022-09-21T13:04:34.000Z</time>
      </trkpt>
      <trkpt lat="43.75801" lon="7.01891">
        <ele>958.9</ele>
        <time>2022-09-21T13:04:37.000Z</time>
      </trkpt>
      <trkpt lat="43.75803" lon="7.01884">
        <ele>959.7</ele>
        <time>2022-09-21T13:04:40.000Z</time>
      </trkpt>
      <trkpt lat="43.75805" lon="7.01876">
        <ele>959.8</ele>
        <time>2022-09-21T13:04:43.000Z</time>
      </trkpt>
      <trkpt lat="43.75806" lon="7.01869">
        <ele>959.5</ele>
        <time>2022-09-21T13:04:45.000Z</time>
      </trkpt>
      <trkpt lat="43.75807" lon="7.01862">
        <ele>960</ele>
        <time>2022-09-21T13:04:47.000Z</time>
      </trkpt>
      <trkpt lat="43.75807" lon="7.01855">
        <ele>959.9</ele>
        <time>2022-09-21T13:04:49.000Z</time>
      </trkpt>
      <trkpt lat="43.75807" lon="7.01848">
        <ele>960</ele>
        <time>2022-09-21T13:04:51.000Z</time>
      </trkpt>
      <trkpt lat="43.75808" lon="7.01841">
        <ele>960.1</ele>
        <time>2022-09-21T13:04:53.000Z</time>
      </trkpt>
      <trkpt lat="43.75808" lon="7.01834">
        <ele>960.6</ele>
        <time>2022-09-21T13:04:55.000Z</time>
      </trkpt>
      <trkpt lat="43.75808" lon="7.01827">
        <ele>961</ele>
        <time>2022-09-21T13:04:57.000Z</time>
      </trkpt>
      <trkpt lat="43.75808" lon="7.01821">
        <ele>961.1</ele>
        <time>2022-09-21T13:04:59.000Z</time>
      </trkpt>
      <trkpt lat="43.75807" lon="7.01814">
        <ele>961.4</ele>
        <time>2022-09-21T13:05:01.000Z</time>
      </trkpt>
      <trkpt lat="43.75806" lon="7.01808">
        <ele>961.6</ele>
        <time>2022-09-21T13:05:03.000Z</time>
      </trkpt>
      <trkpt lat="43.75805" lon="7.01801">
        <ele>961.8</ele>
        <time>2022-09-21T13:05:05.000Z</time>
      </trkpt>
      <trkpt lat="43.75806" lon="7.01794">
        <ele>962</ele>
        <time>2022-09-21T13:05:07.000Z</time>
      </trkpt>
      <trkpt lat="43.75806" lon="7.01786">
        <ele>962.1</ele>
        <time>2022-09-21T13:05:09.000Z</time>
      </trkpt>
      <trkpt lat="43.75805" lon="7.01778">
        <ele>961.8</ele>
        <time>2022-09-21T13:05:11.000Z</time>
      </trkpt>
      <trkpt lat="43.75805" lon="7.0177">
        <ele>962</ele>
        <time>2022-09-21T13:05:13.000Z</time>
      </trkpt>
      <trkpt lat="43.75805" lon="7.01763">
        <ele>962.5</ele>
        <time>2022-09-21T13:05:15.000Z</time>
      </trkpt>
      <trkpt lat="43.75806" lon="7.01756">
        <ele>962.3</ele>
        <time>2022-09-21T13:05:17.000Z</time>
      </trkpt>
      <trkpt lat="43.75807" lon="7.01748">
        <ele>962.1</ele>
        <time>2022-09-21T13:05:19.000Z</time>
      </trkpt>
      <trkpt lat="43.75809" lon="7.0174">
        <ele>961.9</ele>
        <time>2022-09-21T13:05:21.000Z</time>
      </trkpt>
      <trkpt lat="43.75811" lon="7.01734">
        <ele>962.3</ele>
        <time>2022-09-21T13:05:23.000Z</time>
      </trkpt>
      <trkpt lat="43.75814" lon="7.01728">
        <ele>962.6</ele>
        <time>2022-09-21T13:05:25.000Z</time>
      </trkpt>
      <trkpt lat="43.75816" lon="7.01722">
        <ele>962.7</ele>
        <time>2022-09-21T13:05:27.000Z</time>
      </trkpt>
      <trkpt lat="43.75817" lon="7.01713">
        <ele>963.9</ele>
        <time>2022-09-21T13:05:30.000Z</time>
      </trkpt>
      <trkpt lat="43.75817" lon="7.01704">
        <ele>964.7</ele>
        <time>2022-09-21T13:05:33.000Z</time>
      </trkpt>
      <trkpt lat="43.75816" lon="7.01696">
        <ele>965.4</ele>
        <time>2022-09-21T13:05:36.000Z</time>
      </trkpt>
      <trkpt lat="43.75815" lon="7.01689">
        <ele>965.6</ele>
        <time>2022-09-21T13:05:38.000Z</time>
      </trkpt>
      <trkpt lat="43.75813" lon="7.01682">
        <ele>965.3</ele>
        <time>2022-09-21T13:05:40.000Z</time>
      </trkpt>
      <trkpt lat="43.75812" lon="7.01675">
        <ele>965.5</ele>
        <time>2022-09-21T13:05:42.000Z</time>
      </trkpt>
      <trkpt lat="43.7581" lon="7.01669">
        <ele>965.6</ele>
        <time>2022-09-21T13:05:44.000Z</time>
      </trkpt>
      <trkpt lat="43.75807" lon="7.01663">
        <ele>965.7</ele>
        <time>2022-09-21T13:05:46.000Z</time>
      </trkpt>
      <trkpt lat="43.75804" lon="7.01658">
        <ele>965.8</ele>
        <time>2022-09-21T13:05:48.000Z</time>
      </trkpt>
      <trkpt lat="43.758" lon="7.01653">
        <ele>966.3</ele>
        <time>2022-09-21T13:05:50.000Z</time>
      </trkpt>
      <trkpt lat="43.75798" lon="7.01647">
        <ele>966.3</ele>
        <time>2022-09-21T13:05:52.000Z</time>
      </trkpt>
      <trkpt lat="43.75797" lon="7.0164">
        <ele>966.5</ele>
        <time>2022-09-21T13:05:54.000Z</time>
      </trkpt>
      <trkpt lat="43.75797" lon="7.01633">
        <ele>966.4</ele>
        <time>2022-09-21T13:05:56.000Z</time>
      </trkpt>
      <trkpt lat="43.75797" lon="7.01626">
        <ele>966.5</ele>
        <time>2022-09-21T13:05:58.000Z</time>
      </trkpt>
      <trkpt lat="43.75797" lon="7.01618">
        <ele>966.7</ele>
        <time>2022-09-21T13:06:00.000Z</time>
      </trkpt>
      <trkpt lat="43.75796" lon="7.01611">
        <ele>966.2</ele>
        <time>2022-09-21T13:06:02.000Z</time>
      </trkpt>
      <trkpt lat="43.75796" lon="7.01604">
        <ele>966.2</ele>
        <time>2022-09-21T13:06:04.000Z</time>
      </trkpt>
      <trkpt lat="43.75796" lon="7.01596">
        <ele>966.6</ele>
        <time>2022-09-21T13:06:07.000Z</time>
      </trkpt>
      <trkpt lat="43.75795" lon="7.01589">
        <ele>966.5</ele>
        <time>2022-09-21T13:06:10.000Z</time>
      </trkpt>
      <trkpt lat="43.75795" lon="7.01581">
        <ele>966.7</ele>
        <time>2022-09-21T13:06:14.000Z</time>
      </trkpt>
      <trkpt lat="43.75794" lon="7.01572">
        <ele>966.6</ele>
        <time>2022-09-21T13:06:17.000Z</time>
      </trkpt>
      <trkpt lat="43.75794" lon="7.01564">
        <ele>966.3</ele>
        <time>2022-09-21T13:06:19.000Z</time>
      </trkpt>
      <trkpt lat="43.75794" lon="7.01561">
        <ele>966.5</ele>
        <time>2022-09-21T13:06:28.000Z</time>
      </trkpt>
      <trkpt lat="43.75794" lon="7.01561">
        <ele>966.6</ele>
        <time>2022-09-21T13:06:38.000Z</time>
      </trkpt>
      <trkpt lat="43.75797" lon="7.01554">
        <ele>966.6</ele>
        <time>2022-09-21T13:06:41.000Z</time>
      </trkpt>
      <trkpt lat="43.75801" lon="7.01545">
        <ele>964.8</ele>
        <time>2022-09-21T13:06:43.000Z</time>
      </trkpt>
      <trkpt lat="43.75804" lon="7.01537">
        <ele>963.6</ele>
        <time>2022-09-21T13:06:45.000Z</time>
      </trkpt>
      <trkpt lat="43.75807" lon="7.01533">
        <ele>963.1</ele>
        <time>2022-09-21T13:06:47.000Z</time>
      </trkpt>
      <trkpt lat="43.75812" lon="7.0153">
        <ele>962.2</ele>
        <time>2022-09-21T13:06:49.000Z</time>
      </trkpt>
      <trkpt lat="43.75817" lon="7.01529">
        <ele>960.5</ele>
        <time>2022-09-21T13:06:51.000Z</time>
      </trkpt>
      <trkpt lat="43.75822" lon="7.01527">
        <ele>959.9</ele>
        <time>2022-09-21T13:06:53.000Z</time>
      </trkpt>
      <trkpt lat="43.75827" lon="7.01524">
        <ele>959.4</ele>
        <time>2022-09-21T13:06:55.000Z</time>
      </trkpt>
      <trkpt lat="43.75833" lon="7.01521">
        <ele>958.6</ele>
        <time>2022-09-21T13:06:57.000Z</time>
      </trkpt>
      <trkpt lat="43.75841" lon="7.01516">
        <ele>958.3</ele>
        <time>2022-09-21T13:06:59.000Z</time>
      </trkpt>
      <trkpt lat="43.75848" lon="7.0151">
        <ele>956.7</ele>
        <time>2022-09-21T13:07:01.000Z</time>
      </trkpt>
      <trkpt lat="43.75855" lon="7.01505">
        <ele>954.9</ele>
        <time>2022-09-21T13:07:03.000Z</time>
      </trkpt>
      <trkpt lat="43.75862" lon="7.01499">
        <ele>953</ele>
        <time>2022-09-21T13:07:05.000Z</time>
      </trkpt>
      <trkpt lat="43.75867" lon="7.01493">
        <ele>953</ele>
        <time>2022-09-21T13:07:07.000Z</time>
      </trkpt>
      <trkpt lat="43.75873" lon="7.01488">
        <ele>950.7</ele>
        <time>2022-09-21T13:07:09.000Z</time>
      </trkpt>
      <trkpt lat="43.75879" lon="7.01483">
        <ele>948.8</ele>
        <time>2022-09-21T13:07:11.000Z</time>
      </trkpt>
      <trkpt lat="43.75885" lon="7.01477">
        <ele>947.8</ele>
        <time>2022-09-21T13:07:13.000Z</time>
      </trkpt>
      <trkpt lat="43.75891" lon="7.01472">
        <ele>946.7</ele>
        <time>2022-09-21T13:07:15.000Z</time>
      </trkpt>
      <trkpt lat="43.75897" lon="7.01468">
        <ele>945.6</ele>
        <time>2022-09-21T13:07:17.000Z</time>
      </trkpt>
      <trkpt lat="43.75903" lon="7.01465">
        <ele>945.6</ele>
        <time>2022-09-21T13:07:19.000Z</time>
      </trkpt>
      <trkpt lat="43.75909" lon="7.01464">
        <ele>944</ele>
        <time>2022-09-21T13:07:21.000Z</time>
      </trkpt>
      <trkpt lat="43.75915" lon="7.01462">
        <ele>942.6</ele>
        <time>2022-09-21T13:07:23.000Z</time>
      </trkpt>
      <trkpt lat="43.7592" lon="7.0146">
        <ele>941.2</ele>
        <time>2022-09-21T13:07:25.000Z</time>
      </trkpt>
      <trkpt lat="43.75926" lon="7.01456">
        <ele>941</ele>
        <time>2022-09-21T13:07:27.000Z</time>
      </trkpt>
      <trkpt lat="43.75934" lon="7.01452">
        <ele>938.9</ele>
        <time>2022-09-21T13:07:29.000Z</time>
      </trkpt>
      <trkpt lat="43.75938" lon="7.01449">
        <ele>938.8</ele>
        <time>2022-09-21T13:07:30.000Z</time>
      </trkpt>
      <trkpt lat="43.75946" lon="7.01445">
        <ele>937.3</ele>
        <time>2022-09-21T13:07:32.000Z</time>
      </trkpt>
      <trkpt lat="43.75953" lon="7.01441">
        <ele>935.8</ele>
        <time>2022-09-21T13:07:34.000Z</time>
      </trkpt>
      <trkpt lat="43.75958" lon="7.01438">
        <ele>935.2</ele>
        <time>2022-09-21T13:07:35.000Z</time>
      </trkpt>
      <trkpt lat="43.75962" lon="7.01435">
        <ele>935.2</ele>
        <time>2022-09-21T13:07:36.000Z</time>
      </trkpt>
      <trkpt lat="43.75967" lon="7.01431">
        <ele>934.5</ele>
        <time>2022-09-21T13:07:37.000Z</time>
      </trkpt>
      <trkpt lat="43.75972" lon="7.01427">
        <ele>933.9</ele>
        <time>2022-09-21T13:07:38.000Z</time>
      </trkpt>
      <trkpt lat="43.75977" lon="7.01423">
        <ele>933.2</ele>
        <time>2022-09-21T13:07:39.000Z</time>
      </trkpt>
      <trkpt lat="43.75982" lon="7.01419">
        <ele>932.6</ele>
        <time>2022-09-21T13:07:41.000Z</time>
      </trkpt>
      <trkpt lat="43.75988" lon="7.01412">
        <ele>930.2</ele>
        <time>2022-09-21T13:07:44.000Z</time>
      </trkpt>
      <trkpt lat="43.75994" lon="7.01406">
        <ele>928.6</ele>
        <time>2022-09-21T13:07:46.000Z</time>
      </trkpt>
      <trkpt lat="43.76" lon="7.01397">
        <ele>928.8</ele>
        <time>2022-09-21T13:07:48.000Z</time>
      </trkpt>
      <trkpt lat="43.76003" lon="7.01391">
        <ele>928.3</ele>
        <time>2022-09-21T13:07:49.000Z</time>
      </trkpt>
      <trkpt lat="43.76009" lon="7.01381">
        <ele>926.1</ele>
        <time>2022-09-21T13:07:51.000Z</time>
      </trkpt>
      <trkpt lat="43.76013" lon="7.01371">
        <ele>924.6</ele>
        <time>2022-09-21T13:07:53.000Z</time>
      </trkpt>
      <trkpt lat="43.76016" lon="7.01363">
        <ele>922.9</ele>
        <time>2022-09-21T13:07:55.000Z</time>
      </trkpt>
      <trkpt lat="43.7602" lon="7.01355">
        <ele>921.9</ele>
        <time>2022-09-21T13:07:57.000Z</time>
      </trkpt>
      <trkpt lat="43.76024" lon="7.01348">
        <ele>921.8</ele>
        <time>2022-09-21T13:07:59.000Z</time>
      </trkpt>
      <trkpt lat="43.76028" lon="7.01341">
        <ele>920.8</ele>
        <time>2022-09-21T13:08:01.000Z</time>
      </trkpt>
      <trkpt lat="43.76035" lon="7.01332">
        <ele>919.4</ele>
        <time>2022-09-21T13:08:03.000Z</time>
      </trkpt>
      <trkpt lat="43.76039" lon="7.01328">
        <ele>918.7</ele>
        <time>2022-09-21T13:08:04.000Z</time>
      </trkpt>
      <trkpt lat="43.76042" lon="7.01323">
        <ele>917.9</ele>
        <time>2022-09-21T13:08:05.000Z</time>
      </trkpt>
      <trkpt lat="43.76043" lon="7.01316">
        <ele>916.7</ele>
        <time>2022-09-21T13:08:07.000Z</time>
      </trkpt>
      <trkpt lat="43.76043" lon="7.01307">
        <ele>915.9</ele>
        <time>2022-09-21T13:08:09.000Z</time>
      </trkpt>
      <trkpt lat="43.76044" lon="7.01297">
        <ele>914.5</ele>
        <time>2022-09-21T13:08:11.000Z</time>
      </trkpt>
      <trkpt lat="43.76046" lon="7.0129">
        <ele>913.8</ele>
        <time>2022-09-21T13:08:13.000Z</time>
      </trkpt>
      <trkpt lat="43.76048" lon="7.01281">
        <ele>912</ele>
        <time>2022-09-21T13:08:15.000Z</time>
      </trkpt>
      <trkpt lat="43.76052" lon="7.01272">
        <ele>911.7</ele>
        <time>2022-09-21T13:08:17.000Z</time>
      </trkpt>
      <trkpt lat="43.76055" lon="7.01264">
        <ele>910.8</ele>
        <time>2022-09-21T13:08:19.000Z</time>
      </trkpt>
      <trkpt lat="43.76056" lon="7.01256">
        <ele>911.1</ele>
        <time>2022-09-21T13:08:21.000Z</time>
      </trkpt>
      <trkpt lat="43.76057" lon="7.01248">
        <ele>910.7</ele>
        <time>2022-09-21T13:08:23.000Z</time>
      </trkpt>
      <trkpt lat="43.76055" lon="7.01241">
        <ele>909.3</ele>
        <time>2022-09-21T13:08:25.000Z</time>
      </trkpt>
      <trkpt lat="43.76053" lon="7.01228">
        <ele>908.5</ele>
        <time>2022-09-21T13:08:27.000Z</time>
      </trkpt>
      <trkpt lat="43.76052" lon="7.01221">
        <ele>907.6</ele>
        <time>2022-09-21T13:08:28.000Z</time>
      </trkpt>
      <trkpt lat="43.7605" lon="7.01215">
        <ele>906.5</ele>
        <time>2022-09-21T13:08:29.000Z</time>
      </trkpt>
      <trkpt lat="43.76049" lon="7.01208">
        <ele>905</ele>
        <time>2022-09-21T13:08:30.000Z</time>
      </trkpt>
      <trkpt lat="43.76049" lon="7.01202">
        <ele>904.7</ele>
        <time>2022-09-21T13:08:31.000Z</time>
      </trkpt>
      <trkpt lat="43.7605" lon="7.0119">
        <ele>903</ele>
        <time>2022-09-21T13:08:33.000Z</time>
      </trkpt>
      <trkpt lat="43.76051" lon="7.01178">
        <ele>901.6</ele>
        <time>2022-09-21T13:08:35.000Z</time>
      </trkpt>
      <trkpt lat="43.76054" lon="7.0117">
        <ele>902.3</ele>
        <time>2022-09-21T13:08:37.000Z</time>
      </trkpt>
      <trkpt lat="43.76058" lon="7.01162">
        <ele>901.8</ele>
        <time>2022-09-21T13:08:40.000Z</time>
      </trkpt>
      <trkpt lat="43.76061" lon="7.01154">
        <ele>901.8</ele>
        <time>2022-09-21T13:08:42.000Z</time>
      </trkpt>
      <trkpt lat="43.76066" lon="7.01147">
        <ele>901.6</ele>
        <time>2022-09-21T13:08:44.000Z</time>
      </trkpt>
      <trkpt lat="43.76068" lon="7.01141">
        <ele>902.2</ele>
        <time>2022-09-21T13:08:46.000Z</time>
      </trkpt>
      <trkpt lat="43.76071" lon="7.01133">
        <ele>902.4</ele>
        <time>2022-09-21T13:08:48.000Z</time>
      </trkpt>
      <trkpt lat="43.76074" lon="7.01124">
        <ele>902.2</ele>
        <time>2022-09-21T13:08:50.000Z</time>
      </trkpt>
      <trkpt lat="43.76077" lon="7.01119">
        <ele>902.3</ele>
        <time>2022-09-21T13:08:52.000Z</time>
      </trkpt>
      <trkpt lat="43.76081" lon="7.01114">
        <ele>902.7</ele>
        <time>2022-09-21T13:08:54.000Z</time>
      </trkpt>
      <trkpt lat="43.76083" lon="7.01108">
        <ele>903.1</ele>
        <time>2022-09-21T13:08:57.000Z</time>
      </trkpt>
      <trkpt lat="43.76085" lon="7.01102">
        <ele>902.8</ele>
        <time>2022-09-21T13:08:59.000Z</time>
      </trkpt>
      <trkpt lat="43.76086" lon="7.01093">
        <ele>902.1</ele>
        <time>2022-09-21T13:09:01.000Z</time>
      </trkpt>
      <trkpt lat="43.76088" lon="7.01083">
        <ele>902.6</ele>
        <time>2022-09-21T13:09:03.000Z</time>
      </trkpt>
      <trkpt lat="43.76089" lon="7.01073">
        <ele>901.6</ele>
        <time>2022-09-21T13:09:05.000Z</time>
      </trkpt>
      <trkpt lat="43.76091" lon="7.01063">
        <ele>900.9</ele>
        <time>2022-09-21T13:09:07.000Z</time>
      </trkpt>
      <trkpt lat="43.76093" lon="7.01054">
        <ele>900.2</ele>
        <time>2022-09-21T13:09:09.000Z</time>
      </trkpt>
      <trkpt lat="43.76094" lon="7.01046">
        <ele>899.6</ele>
        <time>2022-09-21T13:09:11.000Z</time>
      </trkpt>
      <trkpt lat="43.76095" lon="7.01034">
        <ele>897.8</ele>
        <time>2022-09-21T13:09:13.000Z</time>
      </trkpt>
      <trkpt lat="43.76096" lon="7.01027">
        <ele>897.5</ele>
        <time>2022-09-21T13:09:14.000Z</time>
      </trkpt>
      <trkpt lat="43.76097" lon="7.01021">
        <ele>898.5</ele>
        <time>2022-09-21T13:09:15.000Z</time>
      </trkpt>
      <trkpt lat="43.761" lon="7.0101">
        <ele>897.7</ele>
        <time>2022-09-21T13:09:17.000Z</time>
      </trkpt>
      <trkpt lat="43.76101" lon="7.00998">
        <ele>895.4</ele>
        <time>2022-09-21T13:09:19.000Z</time>
      </trkpt>
      <trkpt lat="43.76101" lon="7.00992">
        <ele>895.3</ele>
        <time>2022-09-21T13:09:20.000Z</time>
      </trkpt>
      <trkpt lat="43.76102" lon="7.00985">
        <ele>895.7</ele>
        <time>2022-09-21T13:09:21.000Z</time>
      </trkpt>
      <trkpt lat="43.76105" lon="7.00974">
        <ele>895.6</ele>
        <time>2022-09-21T13:09:23.000Z</time>
      </trkpt>
      <trkpt lat="43.76107" lon="7.00966">
        <ele>895.4</ele>
        <time>2022-09-21T13:09:25.000Z</time>
      </trkpt>
      <trkpt lat="43.7611" lon="7.0096">
        <ele>896</ele>
        <time>2022-09-21T13:09:27.000Z</time>
      </trkpt>
      <trkpt lat="43.76113" lon="7.00954">
        <ele>897.2</ele>
        <time>2022-09-21T13:09:30.000Z</time>
      </trkpt>
      <trkpt lat="43.76116" lon="7.00949">
        <ele>897.4</ele>
        <time>2022-09-21T13:09:33.000Z</time>
      </trkpt>
      <trkpt lat="43.76118" lon="7.00941">
        <ele>897</ele>
        <time>2022-09-21T13:09:36.000Z</time>
      </trkpt>
      <trkpt lat="43.76121" lon="7.00935">
        <ele>896.9</ele>
        <time>2022-09-21T13:09:38.000Z</time>
      </trkpt>
      <trkpt lat="43.76123" lon="7.0093">
        <ele>897.1</ele>
        <time>2022-09-21T13:09:40.000Z</time>
      </trkpt>
      <trkpt lat="43.76125" lon="7.00924">
        <ele>897.1</ele>
        <time>2022-09-21T13:09:42.000Z</time>
      </trkpt>
      <trkpt lat="43.76123" lon="7.00917">
        <ele>896.3</ele>
        <time>2022-09-21T13:09:45.000Z</time>
      </trkpt>
      <trkpt lat="43.76119" lon="7.00911">
        <ele>894.9</ele>
        <time>2022-09-21T13:09:47.000Z</time>
      </trkpt>
      <trkpt lat="43.76114" lon="7.00905">
        <ele>894.2</ele>
        <time>2022-09-21T13:09:49.000Z</time>
      </trkpt>
      <trkpt lat="43.7611" lon="7.00896">
        <ele>894.2</ele>
        <time>2022-09-21T13:09:51.000Z</time>
      </trkpt>
      <trkpt lat="43.76106" lon="7.00887">
        <ele>893.3</ele>
        <time>2022-09-21T13:09:53.000Z</time>
      </trkpt>
      <trkpt lat="43.761" lon="7.00877">
        <ele>891.5</ele>
        <time>2022-09-21T13:09:55.000Z</time>
      </trkpt>
      <trkpt lat="43.76097" lon="7.00872">
        <ele>890.8</ele>
        <time>2022-09-21T13:09:56.000Z</time>
      </trkpt>
      <trkpt lat="43.76094" lon="7.00866">
        <ele>889.6</ele>
        <time>2022-09-21T13:09:57.000Z</time>
      </trkpt>
      <trkpt lat="43.76091" lon="7.0086">
        <ele>889.3</ele>
        <time>2022-09-21T13:09:58.000Z</time>
      </trkpt>
      <trkpt lat="43.76088" lon="7.00853">
        <ele>888.9</ele>
        <time>2022-09-21T13:09:59.000Z</time>
      </trkpt>
      <trkpt lat="43.76086" lon="7.00847">
        <ele>888.7</ele>
        <time>2022-09-21T13:10:00.000Z</time>
      </trkpt>
      <trkpt lat="43.76084" lon="7.00837">
        <ele>888.8</ele>
        <time>2022-09-21T13:10:02.000Z</time>
      </trkpt>
      <trkpt lat="43.76083" lon="7.0083">
        <ele>889</ele>
        <time>2022-09-21T13:10:04.000Z</time>
      </trkpt>
      <trkpt lat="43.76082" lon="7.00824">
        <ele>889.1</ele>
        <time>2022-09-21T13:10:06.000Z</time>
      </trkpt>
      <trkpt lat="43.76079" lon="7.00816">
        <ele>889.3</ele>
        <time>2022-09-21T13:10:09.000Z</time>
      </trkpt>
      <trkpt lat="43.76077" lon="7.00808">
        <ele>889.6</ele>
        <time>2022-09-21T13:10:11.000Z</time>
      </trkpt>
      <trkpt lat="43.76077" lon="7.00799">
        <ele>889.9</ele>
        <time>2022-09-21T13:10:13.000Z</time>
      </trkpt>
      <trkpt lat="43.76076" lon="7.00793">
        <ele>890.3</ele>
        <time>2022-09-21T13:10:15.000Z</time>
      </trkpt>
      <trkpt lat="43.76076" lon="7.00787">
        <ele>890.9</ele>
        <time>2022-09-21T13:10:21.000Z</time>
      </trkpt>
      <trkpt lat="43.76076" lon="7.00787">
        <ele>891.2</ele>
        <time>2022-09-21T13:10:41.000Z</time>
      </trkpt>
      <trkpt lat="43.76076" lon="7.00787">
        <ele>891.3</ele>
        <time>2022-09-21T13:10:42.000Z</time>
      </trkpt>
      <trkpt lat="43.76076" lon="7.00787">
        <ele>891.2</ele>
        <time>2022-09-21T13:10:43.000Z</time>
      </trkpt>
      <trkpt lat="43.76076" lon="7.00787">
        <ele>891.2</ele>
        <time>2022-09-21T13:10:44.000Z</time>
      </trkpt>
      <trkpt lat="43.76076" lon="7.00787">
        <ele>891.2</ele>
        <time>2022-09-21T13:10:47.000Z</time>
      </trkpt>
      <trkpt lat="43.76076" lon="7.00787">
        <ele>891.2</ele>
        <time>2022-09-21T13:10:48.000Z</time>
      </trkpt>
      <trkpt lat="43.76076" lon="7.00787">
        <ele>891.4</ele>
        <time>2022-09-21T13:11:00.000Z</time>
      </trkpt>
      <trkpt lat="43.76076" lon="7.00787">
        <ele>891.5</ele>
        <time>2022-09-21T13:11:01.000Z</time>
      </trkpt>
      <trkpt lat="43.76076" lon="7.00786">
        <ele>891.5</ele>
        <time>2022-09-21T13:11:04.000Z</time>
      </trkpt>
      <trkpt lat="43.76076" lon="7.00786">
        <ele>891.5</ele>
        <time>2022-09-21T13:11:05.000Z</time>
      </trkpt>
      <trkpt lat="43.76077" lon="7.00786">
        <ele>891.6</ele>
        <time>2022-09-21T13:11:08.000Z</time>
      </trkpt>
      <trkpt lat="43.76077" lon="7.00786">
        <ele>891.5</ele>
        <time>2022-09-21T13:11:09.000Z</time>
      </trkpt>
      <trkpt lat="43.76077" lon="7.00786">
        <ele>891.4</ele>
        <time>2022-09-21T13:11:12.000Z</time>
      </trkpt>
      <trkpt lat="43.76077" lon="7.00786">
        <ele>891.5</ele>
        <time>2022-09-21T13:11:13.000Z</time>
      </trkpt>
      <trkpt lat="43.76077" lon="7.00786">
        <ele>891.5</ele>
        <time>2022-09-21T13:11:15.000Z</time>
      </trkpt>
      <trkpt lat="43.76077" lon="7.00786">
        <ele>891.4</ele>
        <time>2022-09-21T13:11:16.000Z</time>
      </trkpt>
      <trkpt lat="43.76077" lon="7.00786">
        <ele>891.4</ele>
        <time>2022-09-21T13:11:18.000Z</time>
      </trkpt>
      <trkpt lat="43.76077" lon="7.00786">
        <ele>891.5</ele>
        <time>2022-09-21T13:11:19.000Z</time>
      </trkpt>
      <trkpt lat="43.76077" lon="7.00787">
        <ele>891.5</ele>
        <time>2022-09-21T13:11:20.000Z</time>
      </trkpt>
      <trkpt lat="43.76077" lon="7.00787">
        <ele>891.4</ele>
        <time>2022-09-21T13:11:21.000Z</time>
      </trkpt>
      <trkpt lat="43.76077" lon="7.00786">
        <ele>891.2</ele>
        <time>2022-09-21T13:11:25.000Z</time>
      </trkpt>
      <trkpt lat="43.76074" lon="7.00778">
        <ele>891.2</ele>
        <time>2022-09-21T13:11:29.000Z</time>
      </trkpt>
      <trkpt lat="43.76073" lon="7.00772">
        <ele>891.6</ele>
        <time>2022-09-21T13:11:31.000Z</time>
      </trkpt>
      <trkpt lat="43.76072" lon="7.00766">
        <ele>892</ele>
        <time>2022-09-21T13:11:33.000Z</time>
      </trkpt>
      <trkpt lat="43.7607" lon="7.0076">
        <ele>892.5</ele>
        <time>2022-09-21T13:11:35.000Z</time>
      </trkpt>
      <trkpt lat="43.7607" lon="7.00752">
        <ele>892.1</ele>
        <time>2022-09-21T13:11:37.000Z</time>
      </trkpt>
      <trkpt lat="43.76069" lon="7.00744">
        <ele>892.2</ele>
        <time>2022-09-21T13:11:39.000Z</time>
      </trkpt>
      <trkpt lat="43.76067" lon="7.00735">
        <ele>892.3</ele>
        <time>2022-09-21T13:11:42.000Z</time>
      </trkpt>
      <trkpt lat="43.76065" lon="7.00727">
        <ele>891.7</ele>
        <time>2022-09-21T13:11:44.000Z</time>
      </trkpt>
      <trkpt lat="43.76063" lon="7.00719">
        <ele>891.5</ele>
        <time>2022-09-21T13:11:46.000Z</time>
      </trkpt>
      <trkpt lat="43.76061" lon="7.0071">
        <ele>891.9</ele>
        <time>2022-09-21T13:11:48.000Z</time>
      </trkpt>
      <trkpt lat="43.76059" lon="7.00701">
        <ele>891.6</ele>
        <time>2022-09-21T13:11:50.000Z</time>
      </trkpt>
      <trkpt lat="43.76056" lon="7.00695">
        <ele>891.1</ele>
        <time>2022-09-21T13:11:52.000Z</time>
      </trkpt>
      <trkpt lat="43.76053" lon="7.00688">
        <ele>890.6</ele>
        <time>2022-09-21T13:11:54.000Z</time>
      </trkpt>
      <trkpt lat="43.7605" lon="7.0068">
        <ele>890.6</ele>
        <time>2022-09-21T13:11:56.000Z</time>
      </trkpt>
      <trkpt lat="43.76049" lon="7.00673">
        <ele>890.4</ele>
        <time>2022-09-21T13:11:58.000Z</time>
      </trkpt>
      <trkpt lat="43.76047" lon="7.00666">
        <ele>890.3</ele>
        <time>2022-09-21T13:12:00.000Z</time>
      </trkpt>
      <trkpt lat="43.76046" lon="7.00654">
        <ele>889.9</ele>
        <time>2022-09-21T13:12:02.000Z</time>
      </trkpt>
      <trkpt lat="43.76047" lon="7.00644">
        <ele>889.1</ele>
        <time>2022-09-21T13:12:04.000Z</time>
      </trkpt>
      <trkpt lat="43.76049" lon="7.00634">
        <ele>888.8</ele>
        <time>2022-09-21T13:12:06.000Z</time>
      </trkpt>
      <trkpt lat="43.76051" lon="7.00623">
        <ele>889.3</ele>
        <time>2022-09-21T13:12:08.000Z</time>
      </trkpt>
      <trkpt lat="43.76053" lon="7.00614">
        <ele>889.6</ele>
        <time>2022-09-21T13:12:10.000Z</time>
      </trkpt>
      <trkpt lat="43.76058" lon="7.00606">
        <ele>888.1</ele>
        <time>2022-09-21T13:12:12.000Z</time>
      </trkpt>
      <trkpt lat="43.76061" lon="7.00599">
        <ele>888.2</ele>
        <time>2022-09-21T13:12:14.000Z</time>
      </trkpt>
      <trkpt lat="43.76064" lon="7.00591">
        <ele>887.5</ele>
        <time>2022-09-21T13:12:16.000Z</time>
      </trkpt>
      <trkpt lat="43.76068" lon="7.00583">
        <ele>886.3</ele>
        <time>2022-09-21T13:12:18.000Z</time>
      </trkpt>
      <trkpt lat="43.76074" lon="7.00573">
        <ele>885.7</ele>
        <time>2022-09-21T13:12:20.000Z</time>
      </trkpt>
      <trkpt lat="43.76077" lon="7.00567">
        <ele>885.2</ele>
        <time>2022-09-21T13:12:21.000Z</time>
      </trkpt>
      <trkpt lat="43.7608" lon="7.00561">
        <ele>884.7</ele>
        <time>2022-09-21T13:12:22.000Z</time>
      </trkpt>
      <trkpt lat="43.76083" lon="7.00555">
        <ele>884.2</ele>
        <time>2022-09-21T13:12:23.000Z</time>
      </trkpt>
      <trkpt lat="43.76087" lon="7.00549">
        <ele>883.5</ele>
        <time>2022-09-21T13:12:24.000Z</time>
      </trkpt>
      <trkpt lat="43.7609" lon="7.00543">
        <ele>883.2</ele>
        <time>2022-09-21T13:12:25.000Z</time>
      </trkpt>
      <trkpt lat="43.76093" lon="7.00537">
        <ele>883.3</ele>
        <time>2022-09-21T13:12:26.000Z</time>
      </trkpt>
      <trkpt lat="43.76097" lon="7.00531">
        <ele>883.1</ele>
        <time>2022-09-21T13:12:27.000Z</time>
      </trkpt>
      <trkpt lat="43.76101" lon="7.00526">
        <ele>882</ele>
        <time>2022-09-21T13:12:28.000Z</time>
      </trkpt>
      <trkpt lat="43.76105" lon="7.00521">
        <ele>880.9</ele>
        <time>2022-09-21T13:12:29.000Z</time>
      </trkpt>
      <trkpt lat="43.7611" lon="7.00516">
        <ele>879.8</ele>
        <time>2022-09-21T13:12:30.000Z</time>
      </trkpt>
      <trkpt lat="43.76114" lon="7.0051">
        <ele>879.2</ele>
        <time>2022-09-21T13:12:31.000Z</time>
      </trkpt>
      <trkpt lat="43.76118" lon="7.00505">
        <ele>878.9</ele>
        <time>2022-09-21T13:12:32.000Z</time>
      </trkpt>
      <trkpt lat="43.76124" lon="7.00496">
        <ele>879.3</ele>
        <time>2022-09-21T13:12:34.000Z</time>
      </trkpt>
      <trkpt lat="43.76128" lon="7.0049">
        <ele>878.4</ele>
        <time>2022-09-21T13:12:36.000Z</time>
      </trkpt>
      <trkpt lat="43.7613" lon="7.00483">
        <ele>877</ele>
        <time>2022-09-21T13:12:39.000Z</time>
      </trkpt>
      <trkpt lat="43.76131" lon="7.00477">
        <ele>875.3</ele>
        <time>2022-09-21T13:12:42.000Z</time>
      </trkpt>
      <trkpt lat="43.76133" lon="7.00469">
        <ele>872.8</ele>
        <time>2022-09-21T13:12:44.000Z</time>
      </trkpt>
      <trkpt lat="43.76137" lon="7.00459">
        <ele>871.6</ele>
        <time>2022-09-21T13:12:46.000Z</time>
      </trkpt>
      <trkpt lat="43.7614" lon="7.00454">
        <ele>871.2</ele>
        <time>2022-09-21T13:12:47.000Z</time>
      </trkpt>
      <trkpt lat="43.76145" lon="7.00446">
        <ele>870.4</ele>
        <time>2022-09-21T13:12:49.000Z</time>
      </trkpt>
      <trkpt lat="43.7615" lon="7.0044">
        <ele>870.1</ele>
        <time>2022-09-21T13:12:51.000Z</time>
      </trkpt>
      <trkpt lat="43.76146" lon="7.00436">
        <ele>868.9</ele>
        <time>2022-09-21T13:12:54.000Z</time>
      </trkpt>
      <trkpt lat="43.76139" lon="7.00435">
        <ele>867.2</ele>
        <time>2022-09-21T13:12:56.000Z</time>
      </trkpt>
      <trkpt lat="43.76132" lon="7.00434">
        <ele>865.5</ele>
        <time>2022-09-21T13:12:58.000Z</time>
      </trkpt>
      <trkpt lat="43.76127" lon="7.00432">
        <ele>863.4</ele>
        <time>2022-09-21T13:13:00.000Z</time>
      </trkpt>
      <trkpt lat="43.76123" lon="7.00431">
        <ele>862.4</ele>
        <time>2022-09-21T13:13:02.000Z</time>
      </trkpt>
      <trkpt lat="43.76118" lon="7.00428">
        <ele>860.2</ele>
        <time>2022-09-21T13:13:05.000Z</time>
      </trkpt>
      <trkpt lat="43.76125" lon="7.00423">
        <ele>859.8</ele>
        <time>2022-09-21T13:13:10.000Z</time>
      </trkpt>
      <trkpt lat="43.76128" lon="7.00417">
        <ele>859.8</ele>
        <time>2022-09-21T13:13:12.000Z</time>
      </trkpt>
      <trkpt lat="43.76129" lon="7.00407">
        <ele>859.8</ele>
        <time>2022-09-21T13:13:14.000Z</time>
      </trkpt>
      <trkpt lat="43.7613" lon="7.00394">
        <ele>858.8</ele>
        <time>2022-09-21T13:13:16.000Z</time>
      </trkpt>
      <trkpt lat="43.7613" lon="7.00387">
        <ele>859</ele>
        <time>2022-09-21T13:13:17.000Z</time>
      </trkpt>
      <trkpt lat="43.7613" lon="7.00381">
        <ele>858.9</ele>
        <time>2022-09-21T13:13:18.000Z</time>
      </trkpt>
      <trkpt lat="43.7613" lon="7.00373">
        <ele>858.8</ele>
        <time>2022-09-21T13:13:19.000Z</time>
      </trkpt>
      <trkpt lat="43.7613" lon="7.00366">
        <ele>858.5</ele>
        <time>2022-09-21T13:13:20.000Z</time>
      </trkpt>
      <trkpt lat="43.76131" lon="7.00357">
        <ele>858.9</ele>
        <time>2022-09-21T13:13:22.000Z</time>
      </trkpt>
      <trkpt lat="43.76132" lon="7.00349">
        <ele>859.2</ele>
        <time>2022-09-21T13:13:24.000Z</time>
      </trkpt>
      <trkpt lat="43.76134" lon="7.00342">
        <ele>859.7</ele>
        <time>2022-09-21T13:13:26.000Z</time>
      </trkpt>
      <trkpt lat="43.76136" lon="7.00335">
        <ele>859.5</ele>
        <time>2022-09-21T13:13:28.000Z</time>
      </trkpt>
      <trkpt lat="43.76138" lon="7.00328">
        <ele>860.2</ele>
        <time>2022-09-21T13:13:31.000Z</time>
      </trkpt>
      <trkpt lat="43.76143" lon="7.00323">
        <ele>860.8</ele>
        <time>2022-09-21T13:13:34.000Z</time>
      </trkpt>
      <trkpt lat="43.76147" lon="7.0032">
        <ele>861</ele>
        <time>2022-09-21T13:13:36.000Z</time>
      </trkpt>
      <trkpt lat="43.7615" lon="7.00316">
        <ele>861.1</ele>
        <time>2022-09-21T13:13:38.000Z</time>
      </trkpt>
      <trkpt lat="43.76154" lon="7.00312">
        <ele>861.2</ele>
        <time>2022-09-21T13:13:40.000Z</time>
      </trkpt>
      <trkpt lat="43.76159" lon="7.00309">
        <ele>861.1</ele>
        <time>2022-09-21T13:13:42.000Z</time>
      </trkpt>
      <trkpt lat="43.76163" lon="7.00304">
        <ele>860.7</ele>
        <time>2022-09-21T13:13:44.000Z</time>
      </trkpt>
      <trkpt lat="43.76168" lon="7.00298">
        <ele>860.4</ele>
        <time>2022-09-21T13:13:46.000Z</time>
      </trkpt>
      <trkpt lat="43.76174" lon="7.00295">
        <ele>860.5</ele>
        <time>2022-09-21T13:13:48.000Z</time>
      </trkpt>
      <trkpt lat="43.76178" lon="7.00291">
        <ele>860.6</ele>
        <time>2022-09-21T13:13:50.000Z</time>
      </trkpt>
      <trkpt lat="43.76182" lon="7.00285">
        <ele>860.8</ele>
        <time>2022-09-21T13:13:52.000Z</time>
      </trkpt>
      <trkpt lat="43.76189" lon="7.00279">
        <ele>860.7</ele>
        <time>2022-09-21T13:13:55.000Z</time>
      </trkpt>
      <trkpt lat="43.76193" lon="7.00273">
        <ele>860.6</ele>
        <time>2022-09-21T13:13:57.000Z</time>
      </trkpt>
      <trkpt lat="43.76199" lon="7.00269">
        <ele>860.9</ele>
        <time>2022-09-21T13:13:59.000Z</time>
      </trkpt>
      <trkpt lat="43.76204" lon="7.00266">
        <ele>861.6</ele>
        <time>2022-09-21T13:14:01.000Z</time>
      </trkpt>
      <trkpt lat="43.76208" lon="7.00261">
        <ele>861.3</ele>
        <time>2022-09-21T13:14:03.000Z</time>
      </trkpt>
      <trkpt lat="43.76213" lon="7.00259">
        <ele>861.5</ele>
        <time>2022-09-21T13:14:05.000Z</time>
      </trkpt>
      <trkpt lat="43.76219" lon="7.00258">
        <ele>861.5</ele>
        <time>2022-09-21T13:14:07.000Z</time>
      </trkpt>
      <trkpt lat="43.76224" lon="7.00256">
        <ele>860.8</ele>
        <time>2022-09-21T13:14:09.000Z</time>
      </trkpt>
      <trkpt lat="43.76228" lon="7.00253">
        <ele>861.1</ele>
        <time>2022-09-21T13:14:11.000Z</time>
      </trkpt>
      <trkpt lat="43.76234" lon="7.00249">
        <ele>860.7</ele>
        <time>2022-09-21T13:14:13.000Z</time>
      </trkpt>
      <trkpt lat="43.7624" lon="7.00244">
        <ele>860.4</ele>
        <time>2022-09-21T13:14:15.000Z</time>
      </trkpt>
      <trkpt lat="43.76245" lon="7.0024">
        <ele>861</ele>
        <time>2022-09-21T13:14:17.000Z</time>
      </trkpt>
      <trkpt lat="43.7625" lon="7.00234">
        <ele>861.6</ele>
        <time>2022-09-21T13:14:20.000Z</time>
      </trkpt>
      <trkpt lat="43.76256" lon="7.00229">
        <ele>861.6</ele>
        <time>2022-09-21T13:14:23.000Z</time>
      </trkpt>
      <trkpt lat="43.76259" lon="7.00222">
        <ele>862.1</ele>
        <time>2022-09-21T13:14:26.000Z</time>
      </trkpt>
      <trkpt lat="43.76263" lon="7.00218">
        <ele>862</ele>
        <time>2022-09-21T13:14:32.000Z</time>
      </trkpt>
      <trkpt lat="43.7627" lon="7.00219">
        <ele>861.8</ele>
        <time>2022-09-21T13:14:35.000Z</time>
      </trkpt>
      <trkpt lat="43.76275" lon="7.00216">
        <ele>862.1</ele>
        <time>2022-09-21T13:14:38.000Z</time>
      </trkpt>
      <trkpt lat="43.7628" lon="7.00212">
        <ele>862.2</ele>
        <time>2022-09-21T13:14:41.000Z</time>
      </trkpt>
      <trkpt lat="43.76284" lon="7.00208">
        <ele>862.1</ele>
        <time>2022-09-21T13:14:45.000Z</time>
      </trkpt>
      <trkpt lat="43.76289" lon="7.00204">
        <ele>861.6</ele>
        <time>2022-09-21T13:14:49.000Z</time>
      </trkpt>
      <trkpt lat="43.76293" lon="7.00199">
        <ele>861.9</ele>
        <time>2022-09-21T13:14:52.000Z</time>
      </trkpt>
      <trkpt lat="43.76298" lon="7.00195">
        <ele>861.9</ele>
        <time>2022-09-21T13:14:55.000Z</time>
      </trkpt>
      <trkpt lat="43.76303" lon="7.0019">
        <ele>861.8</ele>
        <time>2022-09-21T13:14:59.000Z</time>
      </trkpt>
      <trkpt lat="43.76308" lon="7.00188">
        <ele>861.8</ele>
        <time>2022-09-21T13:15:01.000Z</time>
      </trkpt>
      <trkpt lat="43.76312" lon="7.00185">
        <ele>861.4</ele>
        <time>2022-09-21T13:15:03.000Z</time>
      </trkpt>
      <trkpt lat="43.76317" lon="7.00181">
        <ele>861.1</ele>
        <time>2022-09-21T13:15:05.000Z</time>
      </trkpt>
      <trkpt lat="43.76321" lon="7.00178">
        <ele>860.5</ele>
        <time>2022-09-21T13:15:07.000Z</time>
      </trkpt>
      <trkpt lat="43.76327" lon="7.00174">
        <ele>860.4</ele>
        <time>2022-09-21T13:15:09.000Z</time>
      </trkpt>
      <trkpt lat="43.76332" lon="7.0017">
        <ele>860.2</ele>
        <time>2022-09-21T13:15:11.000Z</time>
      </trkpt>
      <trkpt lat="43.76336" lon="7.00166">
        <ele>860.2</ele>
        <time>2022-09-21T13:15:13.000Z</time>
      </trkpt>
      <trkpt lat="43.7634" lon="7.00162">
        <ele>860.7</ele>
        <time>2022-09-21T13:15:17.000Z</time>
      </trkpt>
      <trkpt lat="43.76344" lon="7.00159">
        <ele>862.2</ele>
        <time>2022-09-21T13:15:25.000Z</time>
      </trkpt>
      <trkpt lat="43.76349" lon="7.00156">
        <ele>862.3</ele>
        <time>2022-09-21T13:15:29.000Z</time>
      </trkpt>
      <trkpt lat="43.76354" lon="7.00153">
        <ele>863</ele>
        <time>2022-09-21T13:15:34.000Z</time>
      </trkpt>
      <trkpt lat="43.76358" lon="7.0015">
        <ele>863.4</ele>
        <time>2022-09-21T13:15:38.000Z</time>
      </trkpt>
      <trkpt lat="43.76362" lon="7.00145">
        <ele>863.9</ele>
        <time>2022-09-21T13:15:42.000Z</time>
      </trkpt>
      <trkpt lat="43.76362" lon="7.00142">
        <ele>864.1</ele>
        <time>2022-09-21T13:15:53.000Z</time>
      </trkpt>
      <trkpt lat="43.76362" lon="7.00142">
        <ele>864.5</ele>
        <time>2022-09-21T13:15:59.000Z</time>
      </trkpt>
      <trkpt lat="43.76362" lon="7.00142">
        <ele>864.3</ele>
        <time>2022-09-21T13:16:00.000Z</time>
      </trkpt>
      <trkpt lat="43.76362" lon="7.00143">
        <ele>864</ele>
        <time>2022-09-21T13:16:02.000Z</time>
      </trkpt>
      <trkpt lat="43.76367" lon="7.00139">
        <ele>864.1</ele>
        <time>2022-09-21T13:16:07.000Z</time>
      </trkpt>
      <trkpt lat="43.7637" lon="7.00134">
        <ele>864.8</ele>
        <time>2022-09-21T13:16:10.000Z</time>
      </trkpt>
      <trkpt lat="43.76374" lon="7.00129">
        <ele>865.3</ele>
        <time>2022-09-21T13:16:13.000Z</time>
      </trkpt>
      <trkpt lat="43.76376" lon="7.00126">
        <ele>865.3</ele>
        <time>2022-09-21T13:16:19.000Z</time>
      </trkpt>
      <trkpt lat="43.76376" lon="7.00126">
        <ele>865.7</ele>
        <time>2022-09-21T13:16:21.000Z</time>
      </trkpt>
      <trkpt lat="43.7638" lon="7.00121">
        <ele>866.3</ele>
        <time>2022-09-21T13:16:27.000Z</time>
      </trkpt>
      <trkpt lat="43.76384" lon="7.00116">
        <ele>866.6</ele>
        <time>2022-09-21T13:16:31.000Z</time>
      </trkpt>
      <trkpt lat="43.76387" lon="7.0011">
        <ele>866.8</ele>
        <time>2022-09-21T13:16:34.000Z</time>
      </trkpt>
      <trkpt lat="43.76391" lon="7.00106">
        <ele>867</ele>
        <time>2022-09-21T13:16:37.000Z</time>
      </trkpt>
      <trkpt lat="43.76395" lon="7.00101">
        <ele>867.4</ele>
        <time>2022-09-21T13:16:40.000Z</time>
      </trkpt>
      <trkpt lat="43.76398" lon="7.00096">
        <ele>868.1</ele>
        <time>2022-09-21T13:16:42.000Z</time>
      </trkpt>
      <trkpt lat="43.76402" lon="7.00091">
        <ele>868.8</ele>
        <time>2022-09-21T13:16:44.000Z</time>
      </trkpt>
      <trkpt lat="43.76404" lon="7.00083">
        <ele>869.3</ele>
        <time>2022-09-21T13:16:47.000Z</time>
      </trkpt>
      <trkpt lat="43.76405" lon="7.00076">
        <ele>871</ele>
        <time>2022-09-21T13:16:51.000Z</time>
      </trkpt>
      <trkpt lat="43.76407" lon="7.00069">
        <ele>871.6</ele>
        <time>2022-09-21T13:16:55.000Z</time>
      </trkpt>
      <trkpt lat="43.76409" lon="7.00062">
        <ele>872.7</ele>
        <time>2022-09-21T13:16:58.000Z</time>
      </trkpt>
      <trkpt lat="43.76411" lon="7.00056">
        <ele>873.3</ele>
        <time>2022-09-21T13:17:01.000Z</time>
      </trkpt>
      <trkpt lat="43.76411" lon="7.00048">
        <ele>873.8</ele>
        <time>2022-09-21T13:17:05.000Z</time>
      </trkpt>
      <trkpt lat="43.76414" lon="7.00042">
        <ele>874.4</ele>
        <time>2022-09-21T13:17:08.000Z</time>
      </trkpt>
      <trkpt lat="43.76415" lon="7.00034">
        <ele>874.9</ele>
        <time>2022-09-21T13:17:11.000Z</time>
      </trkpt>
      <trkpt lat="43.76416" lon="7.00027">
        <ele>875.5</ele>
        <time>2022-09-21T13:17:15.000Z</time>
      </trkpt>
      <trkpt lat="43.76417" lon="7.00019">
        <ele>876.2</ele>
        <time>2022-09-21T13:17:21.000Z</time>
      </trkpt>
      <trkpt lat="43.76417" lon="7.00011">
        <ele>876.7</ele>
        <time>2022-09-21T13:17:25.000Z</time>
      </trkpt>
      <trkpt lat="43.76416" lon="7.00004">
        <ele>877</ele>
        <time>2022-09-21T13:17:28.000Z</time>
      </trkpt>
      <trkpt lat="43.76417" lon="6.99995">
        <ele>876.7</ele>
        <time>2022-09-21T13:17:31.000Z</time>
      </trkpt>
      <trkpt lat="43.76418" lon="6.99988">
        <ele>876.7</ele>
        <time>2022-09-21T13:17:33.000Z</time>
      </trkpt>
      <trkpt lat="43.76419" lon="6.9998">
        <ele>876.7</ele>
        <time>2022-09-21T13:17:35.000Z</time>
      </trkpt>
      <trkpt lat="43.7642" lon="6.99973">
        <ele>876.8</ele>
        <time>2022-09-21T13:17:38.000Z</time>
      </trkpt>
      <trkpt lat="43.76421" lon="6.99964">
        <ele>877</ele>
        <time>2022-09-21T13:17:41.000Z</time>
      </trkpt>
      <trkpt lat="43.76422" lon="6.99958">
        <ele>877.7</ele>
        <time>2022-09-21T13:17:44.000Z</time>
      </trkpt>
      <trkpt lat="43.76422" lon="6.99951">
        <ele>878.2</ele>
        <time>2022-09-21T13:17:48.000Z</time>
      </trkpt>
      <trkpt lat="43.76425" lon="6.99945">
        <ele>879.2</ele>
        <time>2022-09-21T13:17:52.000Z</time>
      </trkpt>
      <trkpt lat="43.76429" lon="6.9994">
        <ele>879.4</ele>
        <time>2022-09-21T13:17:56.000Z</time>
      </trkpt>
      <trkpt lat="43.76434" lon="6.99936">
        <ele>880.3</ele>
        <time>2022-09-21T13:18:00.000Z</time>
      </trkpt>
      <trkpt lat="43.76438" lon="6.99932">
        <ele>881</ele>
        <time>2022-09-21T13:18:03.000Z</time>
      </trkpt>
      <trkpt lat="43.76442" lon="6.99928">
        <ele>882.2</ele>
        <time>2022-09-21T13:18:06.000Z</time>
      </trkpt>
      <trkpt lat="43.76442" lon="6.99926">
        <ele>882.3</ele>
        <time>2022-09-21T13:18:15.000Z</time>
      </trkpt>
      <trkpt lat="43.76442" lon="6.99926">
        <ele>882.3</ele>
        <time>2022-09-21T13:18:16.000Z</time>
      </trkpt>
      <trkpt lat="43.76446" lon="6.99924">
        <ele>882.7</ele>
        <time>2022-09-21T13:18:23.000Z</time>
      </trkpt>
      <trkpt lat="43.76449" lon="6.9992">
        <ele>883.4</ele>
        <time>2022-09-21T13:18:29.000Z</time>
      </trkpt>
      <trkpt lat="43.7645" lon="6.9992">
        <ele>883.5</ele>
        <time>2022-09-21T13:18:30.000Z</time>
      </trkpt>
      <trkpt lat="43.76449" lon="6.99922">
        <ele>883.7</ele>
        <time>2022-09-21T13:18:44.000Z</time>
      </trkpt>
      <trkpt lat="43.76449" lon="6.99922">
        <ele>883.3</ele>
        <time>2022-09-21T13:18:46.000Z</time>
      </trkpt>
      <trkpt lat="43.76455" lon="6.9992">
        <ele>883.6</ele>
        <time>2022-09-21T13:18:50.000Z</time>
      </trkpt>
      <trkpt lat="43.7646" lon="6.99916">
        <ele>883.8</ele>
        <time>2022-09-21T13:18:53.000Z</time>
      </trkpt>
      <trkpt lat="43.76464" lon="6.99914">
        <ele>884.6</ele>
        <time>2022-09-21T13:18:56.000Z</time>
      </trkpt>
      <trkpt lat="43.76468" lon="6.99909">
        <ele>885.1</ele>
        <time>2022-09-21T13:18:59.000Z</time>
      </trkpt>
      <trkpt lat="43.76472" lon="6.99905">
        <ele>884.9</ele>
        <time>2022-09-21T13:19:02.000Z</time>
      </trkpt>
      <trkpt lat="43.76475" lon="6.99909">
        <ele>885.6</ele>
        <time>2022-09-21T13:19:05.000Z</time>
      </trkpt>
      <trkpt lat="43.76477" lon="6.99915">
        <ele>885.8</ele>
        <time>2022-09-21T13:19:08.000Z</time>
      </trkpt>
      <trkpt lat="43.7648" lon="6.9992">
        <ele>885.7</ele>
        <time>2022-09-21T13:19:11.000Z</time>
      </trkpt>
      <trkpt lat="43.76485" lon="6.99924">
        <ele>886</ele>
        <time>2022-09-21T13:19:14.000Z</time>
      </trkpt>
      <trkpt lat="43.76488" lon="6.99928">
        <ele>886.2</ele>
        <time>2022-09-21T13:19:16.000Z</time>
      </trkpt>
      <trkpt lat="43.76492" lon="6.99933">
        <ele>886.2</ele>
        <time>2022-09-21T13:19:19.000Z</time>
      </trkpt>
      <trkpt lat="43.76496" lon="6.99939">
        <ele>886.6</ele>
        <time>2022-09-21T13:19:23.000Z</time>
      </trkpt>
      <trkpt lat="43.765" lon="6.99943">
        <ele>886.8</ele>
        <time>2022-09-21T13:19:26.000Z</time>
      </trkpt>
      <trkpt lat="43.76504" lon="6.99947">
        <ele>886.5</ele>
        <time>2022-09-21T13:19:29.000Z</time>
      </trkpt>
      <trkpt lat="43.76507" lon="6.99948">
        <ele>886.8</ele>
        <time>2022-09-21T13:19:35.000Z</time>
      </trkpt>
      <trkpt lat="43.76508" lon="6.99948">
        <ele>886.9</ele>
        <time>2022-09-21T13:19:36.000Z</time>
      </trkpt>
      <trkpt lat="43.76508" lon="6.99948">
        <ele>886.8</ele>
        <time>2022-09-21T13:19:37.000Z</time>
      </trkpt>
      <trkpt lat="43.76507" lon="6.99948">
        <ele>886.8</ele>
        <time>2022-09-21T13:19:38.000Z</time>
      </trkpt>
      <trkpt lat="43.76507" lon="6.99948">
        <ele>886.9</ele>
        <time>2022-09-21T13:19:39.000Z</time>
      </trkpt>
      <trkpt lat="43.76508" lon="6.99949">
        <ele>887.1</ele>
        <time>2022-09-21T13:19:40.000Z</time>
      </trkpt>
      <trkpt lat="43.76513" lon="6.99954">
        <ele>887</ele>
        <time>2022-09-21T13:19:44.000Z</time>
      </trkpt>
      <trkpt lat="43.76517" lon="6.99958">
        <ele>886.7</ele>
        <time>2022-09-21T13:19:46.000Z</time>
      </trkpt>
      <trkpt lat="43.76522" lon="6.99957">
        <ele>887.1</ele>
        <time>2022-09-21T13:19:49.000Z</time>
      </trkpt>
      <trkpt lat="43.76527" lon="6.99959">
        <ele>887.6</ele>
        <time>2022-09-21T13:19:57.000Z</time>
      </trkpt>
      <trkpt lat="43.76532" lon="6.99958">
        <ele>888.6</ele>
        <time>2022-09-21T13:20:06.000Z</time>
      </trkpt>
      <trkpt lat="43.76536" lon="6.99963">
        <ele>888.5</ele>
        <time>2022-09-21T13:20:10.000Z</time>
      </trkpt>
      <trkpt lat="43.76541" lon="6.99966">
        <ele>889.4</ele>
        <time>2022-09-21T13:20:14.000Z</time>
      </trkpt>
      <trkpt lat="43.76547" lon="6.99965">
        <ele>889.9</ele>
        <time>2022-09-21T13:20:17.000Z</time>
      </trkpt>
      <trkpt lat="43.76553" lon="6.99966">
        <ele>890.5</ele>
        <time>2022-09-21T13:20:21.000Z</time>
      </trkpt>
      <trkpt lat="43.76558" lon="6.99969">
        <ele>891.3</ele>
        <time>2022-09-21T13:20:25.000Z</time>
      </trkpt>
      <trkpt lat="43.76562" lon="6.99972">
        <ele>891.9</ele>
        <time>2022-09-21T13:20:29.000Z</time>
      </trkpt>
      <trkpt lat="43.76566" lon="6.99978">
        <ele>892.8</ele>
        <time>2022-09-21T13:20:33.000Z</time>
      </trkpt>
      <trkpt lat="43.76568" lon="6.99981">
        <ele>893.4</ele>
        <time>2022-09-21T13:20:39.000Z</time>
      </trkpt>
      <trkpt lat="43.76568" lon="6.99981">
        <ele>893.4</ele>
        <time>2022-09-21T13:20:40.000Z</time>
      </trkpt>
      <trkpt lat="43.76568" lon="6.99982">
        <ele>893.2</ele>
        <time>2022-09-21T13:20:46.000Z</time>
      </trkpt>
      <trkpt lat="43.76569" lon="6.99982">
        <ele>893.5</ele>
        <time>2022-09-21T13:20:49.000Z</time>
      </trkpt>
      <trkpt lat="43.76573" lon="6.99985">
        <ele>893</ele>
        <time>2022-09-21T13:20:52.000Z</time>
      </trkpt>
      <trkpt lat="43.76577" lon="6.9999">
        <ele>893.2</ele>
        <time>2022-09-21T13:20:55.000Z</time>
      </trkpt>
      <trkpt lat="43.76581" lon="6.99993">
        <ele>893.2</ele>
        <time>2022-09-21T13:20:58.000Z</time>
      </trkpt>
      <trkpt lat="43.76586" lon="6.99994">
        <ele>893.7</ele>
        <time>2022-09-21T13:21:01.000Z</time>
      </trkpt>
      <trkpt lat="43.76591" lon="6.99995">
        <ele>894.2</ele>
        <time>2022-09-21T13:21:04.000Z</time>
      </trkpt>
      <trkpt lat="43.76596" lon="6.99996">
        <ele>894.3</ele>
        <time>2022-09-21T13:21:08.000Z</time>
      </trkpt>
      <trkpt lat="43.76602" lon="6.99995">
        <ele>894.6</ele>
        <time>2022-09-21T13:21:11.000Z</time>
      </trkpt>
      <trkpt lat="43.76606" lon="6.99995">
        <ele>894.7</ele>
        <time>2022-09-21T13:21:14.000Z</time>
      </trkpt>
      <trkpt lat="43.76612" lon="6.99996">
        <ele>895</ele>
        <time>2022-09-21T13:21:17.000Z</time>
      </trkpt>
      <trkpt lat="43.76617" lon="6.99996">
        <ele>894.7</ele>
        <time>2022-09-21T13:21:20.000Z</time>
      </trkpt>
      <trkpt lat="43.76622" lon="6.99995">
        <ele>894.6</ele>
        <time>2022-09-21T13:21:23.000Z</time>
      </trkpt>
      <trkpt lat="43.76628" lon="6.99992">
        <ele>894.7</ele>
        <time>2022-09-21T13:21:26.000Z</time>
      </trkpt>
      <trkpt lat="43.76632" lon="6.99989">
        <ele>894.4</ele>
        <time>2022-09-21T13:21:28.000Z</time>
      </trkpt>
      <trkpt lat="43.76638" lon="6.99988">
        <ele>894.3</ele>
        <time>2022-09-21T13:21:31.000Z</time>
      </trkpt>
      <trkpt lat="43.76642" lon="6.99986">
        <ele>894.2</ele>
        <time>2022-09-21T13:21:34.000Z</time>
      </trkpt>
      <trkpt lat="43.76647" lon="6.99989">
        <ele>894.3</ele>
        <time>2022-09-21T13:21:38.000Z</time>
      </trkpt>
      <trkpt lat="43.76653" lon="6.99992">
        <ele>894.2</ele>
        <time>2022-09-21T13:21:40.000Z</time>
      </trkpt>
      <trkpt lat="43.7666" lon="6.99992">
        <ele>893.8</ele>
        <time>2022-09-21T13:21:42.000Z</time>
      </trkpt>
      <trkpt lat="43.76667" lon="6.99991">
        <ele>892.5</ele>
        <time>2022-09-21T13:21:44.000Z</time>
      </trkpt>
      <trkpt lat="43.76674" lon="6.99989">
        <ele>892.4</ele>
        <time>2022-09-21T13:21:46.000Z</time>
      </trkpt>
      <trkpt lat="43.76678" lon="6.99986">
        <ele>893.3</ele>
        <time>2022-09-21T13:21:47.000Z</time>
      </trkpt>
      <trkpt lat="43.76683" lon="6.9998">
        <ele>892.8</ele>
        <time>2022-09-21T13:21:49.000Z</time>
      </trkpt>
      <trkpt lat="43.76687" lon="6.99977">
        <ele>891.8</ele>
        <time>2022-09-21T13:21:51.000Z</time>
      </trkpt>
      <trkpt lat="43.76692" lon="6.99974">
        <ele>892.1</ele>
        <time>2022-09-21T13:21:53.000Z</time>
      </trkpt>
      <trkpt lat="43.76698" lon="6.99973">
        <ele>891.7</ele>
        <time>2022-09-21T13:21:55.000Z</time>
      </trkpt>
      <trkpt lat="43.76703" lon="6.99969">
        <ele>891.9</ele>
        <time>2022-09-21T13:21:57.000Z</time>
      </trkpt>
      <trkpt lat="43.76707" lon="6.99963">
        <ele>891.2</ele>
        <time>2022-09-21T13:21:59.000Z</time>
      </trkpt>
      <trkpt lat="43.76712" lon="6.99959">
        <ele>890.6</ele>
        <time>2022-09-21T13:22:01.000Z</time>
      </trkpt>
      <trkpt lat="43.76717" lon="6.99954">
        <ele>890.5</ele>
        <time>2022-09-21T13:22:03.000Z</time>
      </trkpt>
      <trkpt lat="43.76722" lon="6.99953">
        <ele>890.5</ele>
        <time>2022-09-21T13:22:05.000Z</time>
      </trkpt>
      <trkpt lat="43.76728" lon="6.99955">
        <ele>890.4</ele>
        <time>2022-09-21T13:22:08.000Z</time>
      </trkpt>
      <trkpt lat="43.7673" lon="6.99954">
        <ele>890.6</ele>
        <time>2022-09-21T13:22:11.000Z</time>
      </trkpt>
      <trkpt lat="43.76729" lon="6.99954">
        <ele>890.5</ele>
        <time>2022-09-21T13:22:12.000Z</time>
      </trkpt>
      <trkpt lat="43.76729" lon="6.99954">
        <ele>890.6</ele>
        <time>2022-09-21T13:22:13.000Z</time>
      </trkpt>
      <trkpt lat="43.7673" lon="6.99955">
        <ele>890.3</ele>
        <time>2022-09-21T13:22:27.000Z</time>
      </trkpt>
      <trkpt lat="43.7673" lon="6.99955">
        <ele>890.2</ele>
        <time>2022-09-21T13:22:28.000Z</time>
      </trkpt>
      <trkpt lat="43.7673" lon="6.99954">
        <ele>890.6</ele>
        <time>2022-09-21T13:22:33.000Z</time>
      </trkpt>
      <trkpt lat="43.76734" lon="6.99953">
        <ele>890.5</ele>
        <time>2022-09-21T13:22:40.000Z</time>
      </trkpt>
      <trkpt lat="43.76738" lon="6.99949">
        <ele>890.5</ele>
        <time>2022-09-21T13:22:44.000Z</time>
      </trkpt>
      <trkpt lat="43.76742" lon="6.99942">
        <ele>890.3</ele>
        <time>2022-09-21T13:22:48.000Z</time>
      </trkpt>
      <trkpt lat="43.76747" lon="6.99938">
        <ele>889.6</ele>
        <time>2022-09-21T13:22:51.000Z</time>
      </trkpt>
      <trkpt lat="43.7675" lon="6.99931">
        <ele>889.8</ele>
        <time>2022-09-21T13:22:54.000Z</time>
      </trkpt>
      <trkpt lat="43.76752" lon="6.99923">
        <ele>889.2</ele>
        <time>2022-09-21T13:22:56.000Z</time>
      </trkpt>
      <trkpt lat="43.76754" lon="6.99915">
        <ele>888.7</ele>
        <time>2022-09-21T13:22:58.000Z</time>
      </trkpt>
      <trkpt lat="43.76756" lon="6.99909">
        <ele>888.2</ele>
        <time>2022-09-21T13:23:00.000Z</time>
      </trkpt>
      <trkpt lat="43.76758" lon="6.999">
        <ele>887.9</ele>
        <time>2022-09-21T13:23:02.000Z</time>
      </trkpt>
      <trkpt lat="43.76761" lon="6.99892">
        <ele>887</ele>
        <time>2022-09-21T13:23:04.000Z</time>
      </trkpt>
      <trkpt lat="43.76765" lon="6.99888">
        <ele>886.6</ele>
        <time>2022-09-21T13:23:07.000Z</time>
      </trkpt>
      <trkpt lat="43.76763" lon="6.99891">
        <ele>886.3</ele>
        <time>2022-09-21T13:23:14.000Z</time>
      </trkpt>
      <trkpt lat="43.76763" lon="6.99891">
        <ele>886.2</ele>
        <time>2022-09-21T13:23:15.000Z</time>
      </trkpt>
      <trkpt lat="43.76763" lon="6.99891">
        <ele>886.2</ele>
        <time>2022-09-21T13:23:16.000Z</time>
      </trkpt>
      <trkpt lat="43.76763" lon="6.99891">
        <ele>886.3</ele>
        <time>2022-09-21T13:23:19.000Z</time>
      </trkpt>
      <trkpt lat="43.76763" lon="6.99892">
        <ele>886.3</ele>
        <time>2022-09-21T13:23:25.000Z</time>
      </trkpt>
      <trkpt lat="43.76763" lon="6.99892">
        <ele>886.3</ele>
        <time>2022-09-21T13:23:26.000Z</time>
      </trkpt>
      <trkpt lat="43.76768" lon="6.99889">
        <ele>885.9</ele>
        <time>2022-09-21T13:23:30.000Z</time>
      </trkpt>
      <trkpt lat="43.76774" lon="6.99889">
        <ele>886.6</ele>
        <time>2022-09-21T13:23:33.000Z</time>
      </trkpt>
      <trkpt lat="43.7678" lon="6.99889">
        <ele>887.3</ele>
        <time>2022-09-21T13:23:37.000Z</time>
      </trkpt>
      <trkpt lat="43.76785" lon="6.99889">
        <ele>887.9</ele>
        <time>2022-09-21T13:23:40.000Z</time>
      </trkpt>
      <trkpt lat="43.76791" lon="6.99889">
        <ele>888.1</ele>
        <time>2022-09-21T13:23:43.000Z</time>
      </trkpt>
      <trkpt lat="43.76796" lon="6.99888">
        <ele>888.2</ele>
        <time>2022-09-21T13:23:45.000Z</time>
      </trkpt>
      <trkpt lat="43.76802" lon="6.99887">
        <ele>887.9</ele>
        <time>2022-09-21T13:23:48.000Z</time>
      </trkpt>
      <trkpt lat="43.76808" lon="6.99886">
        <ele>887.9</ele>
        <time>2022-09-21T13:23:51.000Z</time>
      </trkpt>
      <trkpt lat="43.76813" lon="6.99884">
        <ele>887.8</ele>
        <time>2022-09-21T13:23:54.000Z</time>
      </trkpt>
      <trkpt lat="43.76818" lon="6.99883">
        <ele>888.4</ele>
        <time>2022-09-21T13:23:57.000Z</time>
      </trkpt>
      <trkpt lat="43.76823" lon="6.9988">
        <ele>887.7</ele>
        <time>2022-09-21T13:24:00.000Z</time>
      </trkpt>
      <trkpt lat="43.76828" lon="6.99876">
        <ele>887.7</ele>
        <time>2022-09-21T13:24:02.000Z</time>
      </trkpt>
      <trkpt lat="43.76834" lon="6.99875">
        <ele>886.7</ele>
        <time>2022-09-21T13:24:04.000Z</time>
      </trkpt>
      <trkpt lat="43.7684" lon="6.99873">
        <ele>886.6</ele>
        <time>2022-09-21T13:24:06.000Z</time>
      </trkpt>
      <trkpt lat="43.76847" lon="6.99871">
        <ele>886.7</ele>
        <time>2022-09-21T13:24:08.000Z</time>
      </trkpt>
      <trkpt lat="43.76852" lon="6.99869">
        <ele>886.8</ele>
        <time>2022-09-21T13:24:10.000Z</time>
      </trkpt>
      <trkpt lat="43.76858" lon="6.99866">
        <ele>886.6</ele>
        <time>2022-09-21T13:24:12.000Z</time>
      </trkpt>
      <trkpt lat="43.76862" lon="6.99862">
        <ele>886.6</ele>
        <time>2022-09-21T13:24:14.000Z</time>
      </trkpt>
      <trkpt lat="43.76869" lon="6.99856">
        <ele>886.1</ele>
        <time>2022-09-21T13:24:16.000Z</time>
      </trkpt>
      <trkpt lat="43.76876" lon="6.99851">
        <ele>885.3</ele>
        <time>2022-09-21T13:24:18.000Z</time>
      </trkpt>
      <trkpt lat="43.76884" lon="6.99847">
        <ele>884.5</ele>
        <time>2022-09-21T13:24:20.000Z</time>
      </trkpt>
      <trkpt lat="43.76889" lon="6.99845">
        <ele>884.6</ele>
        <time>2022-09-21T13:24:21.000Z</time>
      </trkpt>
      <trkpt lat="43.76897" lon="6.99842">
        <ele>884.4</ele>
        <time>2022-09-21T13:24:23.000Z</time>
      </trkpt>
      <trkpt lat="43.76902" lon="6.99837">
        <ele>884.1</ele>
        <time>2022-09-21T13:24:25.000Z</time>
      </trkpt>
      <trkpt lat="43.76899" lon="6.9983">
        <ele>884</ele>
        <time>2022-09-21T13:24:27.000Z</time>
      </trkpt>
      <trkpt lat="43.76892" lon="6.99826">
        <ele>883.4</ele>
        <time>2022-09-21T13:24:29.000Z</time>
      </trkpt>
      <trkpt lat="43.76887" lon="6.99823">
        <ele>882.4</ele>
        <time>2022-09-21T13:24:31.000Z</time>
      </trkpt>
      <trkpt lat="43.76882" lon="6.99818">
        <ele>881.3</ele>
        <time>2022-09-21T13:24:33.000Z</time>
      </trkpt>
      <trkpt lat="43.76876" lon="6.99812">
        <ele>879.7</ele>
        <time>2022-09-21T13:24:35.000Z</time>
      </trkpt>
      <trkpt lat="43.76869" lon="6.99806">
        <ele>879.1</ele>
        <time>2022-09-21T13:24:37.000Z</time>
      </trkpt>
      <trkpt lat="43.76861" lon="6.99803">
        <ele>877.1</ele>
        <time>2022-09-21T13:24:39.000Z</time>
      </trkpt>
      <trkpt lat="43.76853" lon="6.99798">
        <ele>875.4</ele>
        <time>2022-09-21T13:24:41.000Z</time>
      </trkpt>
      <trkpt lat="43.76848" lon="6.99796">
        <ele>875.7</ele>
        <time>2022-09-21T13:24:42.000Z</time>
      </trkpt>
      <trkpt lat="43.76844" lon="6.99794">
        <ele>875.2</ele>
        <time>2022-09-21T13:24:43.000Z</time>
      </trkpt>
      <trkpt lat="43.76839" lon="6.99792">
        <ele>874.1</ele>
        <time>2022-09-21T13:24:44.000Z</time>
      </trkpt>
      <trkpt lat="43.76835" lon="6.9979">
        <ele>872.9</ele>
        <time>2022-09-21T13:24:45.000Z</time>
      </trkpt>
      <trkpt lat="43.7683" lon="6.99787">
        <ele>872.2</ele>
        <time>2022-09-21T13:24:46.000Z</time>
      </trkpt>
      <trkpt lat="43.76825" lon="6.99785">
        <ele>871.8</ele>
        <time>2022-09-21T13:24:47.000Z</time>
      </trkpt>
      <trkpt lat="43.76821" lon="6.99782">
        <ele>871.4</ele>
        <time>2022-09-21T13:24:48.000Z</time>
      </trkpt>
      <trkpt lat="43.76813" lon="6.99778">
        <ele>869.5</ele>
        <time>2022-09-21T13:24:50.000Z</time>
      </trkpt>
      <trkpt lat="43.76808" lon="6.99776">
        <ele>868.3</ele>
        <time>2022-09-21T13:24:51.000Z</time>
      </trkpt>
      <trkpt lat="43.76804" lon="6.99774">
        <ele>867.1</ele>
        <time>2022-09-21T13:24:52.000Z</time>
      </trkpt>
      <trkpt lat="43.76795" lon="6.9977">
        <ele>866</ele>
        <time>2022-09-21T13:24:54.000Z</time>
      </trkpt>
      <trkpt lat="43.76791" lon="6.99769">
        <ele>865.8</ele>
        <time>2022-09-21T13:24:55.000Z</time>
      </trkpt>
      <trkpt lat="43.76786" lon="6.99767">
        <ele>865.1</ele>
        <time>2022-09-21T13:24:56.000Z</time>
      </trkpt>
      <trkpt lat="43.76778" lon="6.99764">
        <ele>863</ele>
        <time>2022-09-21T13:24:58.000Z</time>
      </trkpt>
      <trkpt lat="43.76771" lon="6.99758">
        <ele>860.7</ele>
        <time>2022-09-21T13:25:00.000Z</time>
      </trkpt>
      <trkpt lat="43.76764" lon="6.99751">
        <ele>858.6</ele>
        <time>2022-09-21T13:25:02.000Z</time>
      </trkpt>
      <trkpt lat="43.76757" lon="6.99746">
        <ele>857.9</ele>
        <time>2022-09-21T13:25:04.000Z</time>
      </trkpt>
      <trkpt lat="43.7675" lon="6.99745">
        <ele>856.6</ele>
        <time>2022-09-21T13:25:06.000Z</time>
      </trkpt>
      <trkpt lat="43.76742" lon="6.99747">
        <ele>854.6</ele>
        <time>2022-09-21T13:25:08.000Z</time>
      </trkpt>
      <trkpt lat="43.76735" lon="6.99744">
        <ele>852.6</ele>
        <time>2022-09-21T13:25:10.000Z</time>
      </trkpt>
      <trkpt lat="43.76727" lon="6.99741">
        <ele>851.8</ele>
        <time>2022-09-21T13:25:12.000Z</time>
      </trkpt>
      <trkpt lat="43.76721" lon="6.99738">
        <ele>850.5</ele>
        <time>2022-09-21T13:25:14.000Z</time>
      </trkpt>
      <trkpt lat="43.76715" lon="6.99737">
        <ele>849.3</ele>
        <time>2022-09-21T13:25:16.000Z</time>
      </trkpt>
      <trkpt lat="43.76708" lon="6.99734">
        <ele>848.7</ele>
        <time>2022-09-21T13:25:18.000Z</time>
      </trkpt>
      <trkpt lat="43.76703" lon="6.99731">
        <ele>847.4</ele>
        <time>2022-09-21T13:25:19.000Z</time>
      </trkpt>
      <trkpt lat="43.76698" lon="6.99728">
        <ele>845.7</ele>
        <time>2022-09-21T13:25:20.000Z</time>
      </trkpt>
      <trkpt lat="43.76694" lon="6.99726">
        <ele>845.1</ele>
        <time>2022-09-21T13:25:21.000Z</time>
      </trkpt>
      <trkpt lat="43.76686" lon="6.99723">
        <ele>843.9</ele>
        <time>2022-09-21T13:25:23.000Z</time>
      </trkpt>
      <trkpt lat="43.76678" lon="6.9972">
        <ele>842.1</ele>
        <time>2022-09-21T13:25:25.000Z</time>
      </trkpt>
      <trkpt lat="43.7667" lon="6.99718">
        <ele>841.1</ele>
        <time>2022-09-21T13:25:27.000Z</time>
      </trkpt>
      <trkpt lat="43.76662" lon="6.99716">
        <ele>840.6</ele>
        <time>2022-09-21T13:25:29.000Z</time>
      </trkpt>
      <trkpt lat="43.76656" lon="6.99711">
        <ele>838.5</ele>
        <time>2022-09-21T13:25:31.000Z</time>
      </trkpt>
      <trkpt lat="43.7665" lon="6.99707">
        <ele>837.7</ele>
        <time>2022-09-21T13:25:33.000Z</time>
      </trkpt>
      <trkpt lat="43.76644" lon="6.99703">
        <ele>836</ele>
        <time>2022-09-21T13:25:35.000Z</time>
      </trkpt>
      <trkpt lat="43.76638" lon="6.997">
        <ele>833.4</ele>
        <time>2022-09-21T13:25:37.000Z</time>
      </trkpt>
      <trkpt lat="43.76633" lon="6.99697">
        <ele>832.5</ele>
        <time>2022-09-21T13:25:39.000Z</time>
      </trkpt>
      <trkpt lat="43.76628" lon="6.99693">
        <ele>830.3</ele>
        <time>2022-09-21T13:25:41.000Z</time>
      </trkpt>
      <trkpt lat="43.76623" lon="6.99689">
        <ele>828.7</ele>
        <time>2022-09-21T13:25:43.000Z</time>
      </trkpt>
      <trkpt lat="43.76616" lon="6.99686">
        <ele>827.5</ele>
        <time>2022-09-21T13:25:45.000Z</time>
      </trkpt>
      <trkpt lat="43.7661" lon="6.99681">
        <ele>827</ele>
        <time>2022-09-21T13:25:47.000Z</time>
      </trkpt>
      <trkpt lat="43.76603" lon="6.99677">
        <ele>825.6</ele>
        <time>2022-09-21T13:25:49.000Z</time>
      </trkpt>
      <trkpt lat="43.76598" lon="6.99672">
        <ele>822.7</ele>
        <time>2022-09-21T13:25:51.000Z</time>
      </trkpt>
      <trkpt lat="43.76595" lon="6.99665">
        <ele>821.6</ele>
        <time>2022-09-21T13:25:53.000Z</time>
      </trkpt>
      <trkpt lat="43.76589" lon="6.99659">
        <ele>820.4</ele>
        <time>2022-09-21T13:25:55.000Z</time>
      </trkpt>
      <trkpt lat="43.76581" lon="6.99654">
        <ele>819.5</ele>
        <time>2022-09-21T13:25:57.000Z</time>
      </trkpt>
      <trkpt lat="43.76576" lon="6.99652">
        <ele>818.8</ele>
        <time>2022-09-21T13:25:58.000Z</time>
      </trkpt>
      <trkpt lat="43.76569" lon="6.99647">
        <ele>818.3</ele>
        <time>2022-09-21T13:26:00.000Z</time>
      </trkpt>
      <trkpt lat="43.76563" lon="6.99643">
        <ele>815.9</ele>
        <time>2022-09-21T13:26:02.000Z</time>
      </trkpt>
      <trkpt lat="43.76555" lon="6.99639">
        <ele>813.6</ele>
        <time>2022-09-21T13:26:04.000Z</time>
      </trkpt>
      <trkpt lat="43.76549" lon="6.99634">
        <ele>813.4</ele>
        <time>2022-09-21T13:26:06.000Z</time>
      </trkpt>
      <trkpt lat="43.76546" lon="6.99626">
        <ele>811.9</ele>
        <time>2022-09-21T13:26:08.000Z</time>
      </trkpt>
      <trkpt lat="43.7654" lon="6.99622">
        <ele>810.4</ele>
        <time>2022-09-21T13:26:10.000Z</time>
      </trkpt>
      <trkpt lat="43.76536" lon="6.99616">
        <ele>809.4</ele>
        <time>2022-09-21T13:26:12.000Z</time>
      </trkpt>
      <trkpt lat="43.76532" lon="6.99611">
        <ele>808.1</ele>
        <time>2022-09-21T13:26:14.000Z</time>
      </trkpt>
      <trkpt lat="43.76527" lon="6.99604">
        <ele>806.4</ele>
        <time>2022-09-21T13:26:16.000Z</time>
      </trkpt>
      <trkpt lat="43.76523" lon="6.99599">
        <ele>805.2</ele>
        <time>2022-09-21T13:26:18.000Z</time>
      </trkpt>
      <trkpt lat="43.76518" lon="6.99595">
        <ele>804.3</ele>
        <time>2022-09-21T13:26:20.000Z</time>
      </trkpt>
      <trkpt lat="43.76514" lon="6.9959">
        <ele>802.9</ele>
        <time>2022-09-21T13:26:23.000Z</time>
      </trkpt>
      <trkpt lat="43.76521" lon="6.99591">
        <ele>802.6</ele>
        <time>2022-09-21T13:26:27.000Z</time>
      </trkpt>
      <trkpt lat="43.76526" lon="6.99589">
        <ele>800.3</ele>
        <time>2022-09-21T13:26:30.000Z</time>
      </trkpt>
      <trkpt lat="43.76529" lon="6.99581">
        <ele>799</ele>
        <time>2022-09-21T13:26:33.000Z</time>
      </trkpt>
      <trkpt lat="43.76528" lon="6.99573">
        <ele>797.2</ele>
        <time>2022-09-21T13:26:36.000Z</time>
      </trkpt>
      <trkpt lat="43.7653" lon="6.99564">
        <ele>795.7</ele>
        <time>2022-09-21T13:26:39.000Z</time>
      </trkpt>
      <trkpt lat="43.76534" lon="6.9956">
        <ele>793.5</ele>
        <time>2022-09-21T13:26:41.000Z</time>
      </trkpt>
      <trkpt lat="43.76539" lon="6.99558">
        <ele>792.2</ele>
        <time>2022-09-21T13:26:44.000Z</time>
      </trkpt>
      <trkpt lat="43.76544" lon="6.99556">
        <ele>791.3</ele>
        <time>2022-09-21T13:26:47.000Z</time>
      </trkpt>
      <trkpt lat="43.7655" lon="6.99555">
        <ele>788.6</ele>
        <time>2022-09-21T13:26:50.000Z</time>
      </trkpt>
      <trkpt lat="43.76557" lon="6.9955">
        <ele>788.2</ele>
        <time>2022-09-21T13:26:53.000Z</time>
      </trkpt>
      <trkpt lat="43.76561" lon="6.99546">
        <ele>787.6</ele>
        <time>2022-09-21T13:26:54.000Z</time>
      </trkpt>
      <trkpt lat="43.76557" lon="6.99541">
        <ele>786.2</ele>
        <time>2022-09-21T13:26:58.000Z</time>
      </trkpt>
      <trkpt lat="43.76552" lon="6.99537">
        <ele>784.7</ele>
        <time>2022-09-21T13:27:00.000Z</time>
      </trkpt>
      <trkpt lat="43.76549" lon="6.99533">
        <ele>783.4</ele>
        <time>2022-09-21T13:27:02.000Z</time>
      </trkpt>
      <trkpt lat="43.76546" lon="6.99526">
        <ele>782.2</ele>
        <time>2022-09-21T13:27:05.000Z</time>
      </trkpt>
      <trkpt lat="43.76545" lon="6.9952">
        <ele>779.8</ele>
        <time>2022-09-21T13:27:09.000Z</time>
      </trkpt>
      <trkpt lat="43.76543" lon="6.99513">
        <ele>777.8</ele>
        <time>2022-09-21T13:27:13.000Z</time>
      </trkpt>
      <trkpt lat="43.76538" lon="6.99508">
        <ele>775.8</ele>
        <time>2022-09-21T13:27:16.000Z</time>
      </trkpt>
      <trkpt lat="43.76533" lon="6.99503">
        <ele>774.6</ele>
        <time>2022-09-21T13:27:18.000Z</time>
      </trkpt>
      <trkpt lat="43.76528" lon="6.995">
        <ele>773.2</ele>
        <time>2022-09-21T13:27:20.000Z</time>
      </trkpt>
      <trkpt lat="43.76523" lon="6.99495">
        <ele>772</ele>
        <time>2022-09-21T13:27:23.000Z</time>
      </trkpt>
      <trkpt lat="43.76518" lon="6.9949">
        <ele>769.8</ele>
        <time>2022-09-21T13:27:26.000Z</time>
      </trkpt>
      <trkpt lat="43.76515" lon="6.99484">
        <ele>766.8</ele>
        <time>2022-09-21T13:27:29.000Z</time>
      </trkpt>
      <trkpt lat="43.76511" lon="6.99479">
        <ele>766.4</ele>
        <time>2022-09-21T13:27:31.000Z</time>
      </trkpt>
      <trkpt lat="43.76508" lon="6.99474">
        <ele>764.8</ele>
        <time>2022-09-21T13:27:34.000Z</time>
      </trkpt>
      <trkpt lat="43.7651" lon="6.99468">
        <ele>763.8</ele>
        <time>2022-09-21T13:27:38.000Z</time>
      </trkpt>
      <trkpt lat="43.76515" lon="6.99469">
        <ele>761.8</ele>
        <time>2022-09-21T13:27:41.000Z</time>
      </trkpt>
      <trkpt lat="43.76521" lon="6.99467">
        <ele>759.8</ele>
        <time>2022-09-21T13:27:45.000Z</time>
      </trkpt>
      <trkpt lat="43.76525" lon="6.99462">
        <ele>758.5</ele>
        <time>2022-09-21T13:27:48.000Z</time>
      </trkpt>
      <trkpt lat="43.76529" lon="6.99456">
        <ele>757.2</ele>
        <time>2022-09-21T13:27:50.000Z</time>
      </trkpt>
      <trkpt lat="43.76533" lon="6.99451">
        <ele>756.1</ele>
        <time>2022-09-21T13:27:52.000Z</time>
      </trkpt>
      <trkpt lat="43.76538" lon="6.99445">
        <ele>754.3</ele>
        <time>2022-09-21T13:27:56.000Z</time>
      </trkpt>
      <trkpt lat="43.76543" lon="6.99439">
        <ele>754.5</ele>
        <time>2022-09-21T13:28:00.000Z</time>
      </trkpt>
      <trkpt lat="43.76548" lon="6.99435">
        <ele>754.5</ele>
        <time>2022-09-21T13:28:02.000Z</time>
      </trkpt>
      <trkpt lat="43.76551" lon="6.99436">
        <ele>754.2</ele>
        <time>2022-09-21T13:28:09.000Z</time>
      </trkpt>
      <trkpt lat="43.76551" lon="6.99436">
        <ele>754.4</ele>
        <time>2022-09-21T13:28:12.000Z</time>
      </trkpt>
      <trkpt lat="43.76554" lon="6.99438">
        <ele>754.5</ele>
        <time>2022-09-21T13:28:16.000Z</time>
      </trkpt>
      <trkpt lat="43.76554" lon="6.99439">
        <ele>754.5</ele>
        <time>2022-09-21T13:28:18.000Z</time>
      </trkpt>
      <trkpt lat="43.76555" lon="6.99439">
        <ele>754.6</ele>
        <time>2022-09-21T13:28:22.000Z</time>
      </trkpt>
      <trkpt lat="43.76555" lon="6.99439">
        <ele>754.6</ele>
        <time>2022-09-21T13:28:24.000Z</time>
      </trkpt>
      <trkpt lat="43.76555" lon="6.99439">
        <ele>754.6</ele>
        <time>2022-09-21T13:28:28.000Z</time>
      </trkpt>
      <trkpt lat="43.76555" lon="6.99439">
        <ele>754</ele>
        <time>2022-09-21T13:28:36.000Z</time>
      </trkpt>
      <trkpt lat="43.76559" lon="6.99433">
        <ele>753.3</ele>
        <time>2022-09-21T13:28:42.000Z</time>
      </trkpt>
      <trkpt lat="43.76564" lon="6.99431">
        <ele>752.3</ele>
        <time>2022-09-21T13:28:46.000Z</time>
      </trkpt>
      <trkpt lat="43.76569" lon="6.99428">
        <ele>750.5</ele>
        <time>2022-09-21T13:28:51.000Z</time>
      </trkpt>
      <trkpt lat="43.76568" lon="6.9942">
        <ele>748.4</ele>
        <time>2022-09-21T13:28:55.000Z</time>
      </trkpt>
      <trkpt lat="43.76563" lon="6.99414">
        <ele>747.8</ele>
        <time>2022-09-21T13:28:58.000Z</time>
      </trkpt>
      <trkpt lat="43.76557" lon="6.99413">
        <ele>747.3</ele>
        <time>2022-09-21T13:29:02.000Z</time>
      </trkpt>
      <trkpt lat="43.7655" lon="6.99411">
        <ele>746.5</ele>
        <time>2022-09-21T13:29:04.000Z</time>
      </trkpt>
      <trkpt lat="43.76542" lon="6.99409">
        <ele>745.9</ele>
        <time>2022-09-21T13:29:06.000Z</time>
      </trkpt>
      <trkpt lat="43.76536" lon="6.99406">
        <ele>745.2</ele>
        <time>2022-09-21T13:29:08.000Z</time>
      </trkpt>
      <trkpt lat="43.76529" lon="6.99403">
        <ele>743.6</ele>
        <time>2022-09-21T13:29:10.000Z</time>
      </trkpt>
      <trkpt lat="43.76524" lon="6.99402">
        <ele>742</ele>
        <time>2022-09-21T13:29:12.000Z</time>
      </trkpt>
      <trkpt lat="43.76519" lon="6.99398">
        <ele>740.5</ele>
        <time>2022-09-21T13:29:14.000Z</time>
      </trkpt>
      <trkpt lat="43.76513" lon="6.99398">
        <ele>738.8</ele>
        <time>2022-09-21T13:29:16.000Z</time>
      </trkpt>
      <trkpt lat="43.76508" lon="6.99397">
        <ele>737.5</ele>
        <time>2022-09-21T13:29:18.000Z</time>
      </trkpt>
      <trkpt lat="43.76503" lon="6.99397">
        <ele>737.1</ele>
        <time>2022-09-21T13:29:21.000Z</time>
      </trkpt>
      <trkpt lat="43.76508" lon="6.99394">
        <ele>733.6</ele>
        <time>2022-09-21T13:29:28.000Z</time>
      </trkpt>
      <trkpt lat="43.76514" lon="6.99388">
        <ele>732.3</ele>
        <time>2022-09-21T13:29:31.000Z</time>
      </trkpt>
      <trkpt lat="43.76522" lon="6.99385">
        <ele>729.7</ele>
        <time>2022-09-21T13:29:33.000Z</time>
      </trkpt>
      <trkpt lat="43.76529" lon="6.9938">
        <ele>727.6</ele>
        <time>2022-09-21T13:29:35.000Z</time>
      </trkpt>
      <trkpt lat="43.76533" lon="6.99376">
        <ele>725.6</ele>
        <time>2022-09-21T13:29:38.000Z</time>
      </trkpt>
      <trkpt lat="43.76538" lon="6.99374">
        <ele>725.2</ele>
        <time>2022-09-21T13:29:40.000Z</time>
      </trkpt>
      <trkpt lat="43.76541" lon="6.99369">
        <ele>724.5</ele>
        <time>2022-09-21T13:29:43.000Z</time>
      </trkpt>
      <trkpt lat="43.76541" lon="6.99361">
        <ele>723.5</ele>
        <time>2022-09-21T13:29:46.000Z</time>
      </trkpt>
      <trkpt lat="43.76538" lon="6.99355">
        <ele>720.4</ele>
        <time>2022-09-21T13:29:53.000Z</time>
      </trkpt>
      <trkpt lat="43.76538" lon="6.99348">
        <ele>718.6</ele>
        <time>2022-09-21T13:29:56.000Z</time>
      </trkpt>
      <trkpt lat="43.76544" lon="6.99345">
        <ele>718.2</ele>
        <time>2022-09-21T13:29:59.000Z</time>
      </trkpt>
      <trkpt lat="43.76549" lon="6.99343">
        <ele>717</ele>
        <time>2022-09-21T13:30:01.000Z</time>
      </trkpt>
      <trkpt lat="43.76554" lon="6.99344">
        <ele>716.3</ele>
        <time>2022-09-21T13:30:04.000Z</time>
      </trkpt>
      <trkpt lat="43.76559" lon="6.99344">
        <ele>715.3</ele>
        <time>2022-09-21T13:30:08.000Z</time>
      </trkpt>
      <trkpt lat="43.76562" lon="6.99339">
        <ele>715.2</ele>
        <time>2022-09-21T13:30:10.000Z</time>
      </trkpt>
      <trkpt lat="43.76567" lon="6.99339">
        <ele>715.1</ele>
        <time>2022-09-21T13:30:14.000Z</time>
      </trkpt>
      <trkpt lat="43.76565" lon="6.99333">
        <ele>714.8</ele>
        <time>2022-09-21T13:30:19.000Z</time>
      </trkpt>
      <trkpt lat="43.76563" lon="6.99333">
        <ele>715.2</ele>
        <time>2022-09-21T13:30:23.000Z</time>
      </trkpt>
      <trkpt lat="43.76563" lon="6.99332">
        <ele>715.2</ele>
        <time>2022-09-21T13:30:24.000Z</time>
      </trkpt>
      <trkpt lat="43.76562" lon="6.99331">
        <ele>715.2</ele>
        <time>2022-09-21T13:30:27.000Z</time>
      </trkpt>
      <trkpt lat="43.76561" lon="6.9933">
        <ele>715</ele>
        <time>2022-09-21T13:30:29.000Z</time>
      </trkpt>
      <trkpt lat="43.76557" lon="6.99322">
        <ele>713.6</ele>
        <time>2022-09-21T13:30:35.000Z</time>
      </trkpt>
      <trkpt lat="43.76553" lon="6.99317">
        <ele>712.5</ele>
        <time>2022-09-21T13:30:37.000Z</time>
      </trkpt>
      <trkpt lat="43.76546" lon="6.99313">
        <ele>711.2</ele>
        <time>2022-09-21T13:30:39.000Z</time>
      </trkpt>
      <trkpt lat="43.76541" lon="6.99311">
        <ele>709.5</ele>
        <time>2022-09-21T13:30:41.000Z</time>
      </trkpt>
      <trkpt lat="43.76536" lon="6.99309">
        <ele>708.6</ele>
        <time>2022-09-21T13:30:43.000Z</time>
      </trkpt>
      <trkpt lat="43.7653" lon="6.99309">
        <ele>708.2</ele>
        <time>2022-09-21T13:30:45.000Z</time>
      </trkpt>
      <trkpt lat="43.76525" lon="6.99307">
        <ele>707.1</ele>
        <time>2022-09-21T13:30:47.000Z</time>
      </trkpt>
      <trkpt lat="43.7652" lon="6.99306">
        <ele>706.6</ele>
        <time>2022-09-21T13:30:49.000Z</time>
      </trkpt>
      <trkpt lat="43.76514" lon="6.99305">
        <ele>704.2</ele>
        <time>2022-09-21T13:30:51.000Z</time>
      </trkpt>
      <trkpt lat="43.76509" lon="6.99302">
        <ele>703.5</ele>
        <time>2022-09-21T13:30:53.000Z</time>
      </trkpt>
      <trkpt lat="43.76504" lon="6.99298">
        <ele>702.3</ele>
        <time>2022-09-21T13:30:55.000Z</time>
      </trkpt>
      <trkpt lat="43.765" lon="6.99292">
        <ele>700.8</ele>
        <time>2022-09-21T13:30:57.000Z</time>
      </trkpt>
      <trkpt lat="43.76495" lon="6.99289">
        <ele>699</ele>
        <time>2022-09-21T13:30:59.000Z</time>
      </trkpt>
      <trkpt lat="43.7649" lon="6.99286">
        <ele>697.7</ele>
        <time>2022-09-21T13:31:01.000Z</time>
      </trkpt>
      <trkpt lat="43.76484" lon="6.99283">
        <ele>695.5</ele>
        <time>2022-09-21T13:31:03.000Z</time>
      </trkpt>
      <trkpt lat="43.7648" lon="6.9928">
        <ele>694.4</ele>
        <time>2022-09-21T13:31:05.000Z</time>
      </trkpt>
      <trkpt lat="43.76474" lon="6.99278">
        <ele>692.2</ele>
        <time>2022-09-21T13:31:08.000Z</time>
      </trkpt>
      <trkpt lat="43.7647" lon="6.99277">
        <ele>690.2</ele>
        <time>2022-09-21T13:31:10.000Z</time>
      </trkpt>
      <trkpt lat="43.76468" lon="6.99275">
        <ele>689.2</ele>
        <time>2022-09-21T13:31:14.000Z</time>
      </trkpt>
      <trkpt lat="43.76469" lon="6.99274">
        <ele>687.6</ele>
        <time>2022-09-21T13:31:15.000Z</time>
      </trkpt>
      <trkpt lat="43.76473" lon="6.99268">
        <ele>685.7</ele>
        <time>2022-09-21T13:31:18.000Z</time>
      </trkpt>
      <trkpt lat="43.76478" lon="6.99265">
        <ele>683.1</ele>
        <time>2022-09-21T13:31:21.000Z</time>
      </trkpt>
      <trkpt lat="43.76478" lon="6.99258">
        <ele>679</ele>
        <time>2022-09-21T13:31:25.000Z</time>
      </trkpt>
      <trkpt lat="43.76474" lon="6.99255">
        <ele>677.3</ele>
        <time>2022-09-21T13:31:27.000Z</time>
      </trkpt>
      <trkpt lat="43.76468" lon="6.99252">
        <ele>674.9</ele>
        <time>2022-09-21T13:31:29.000Z</time>
      </trkpt>
      <trkpt lat="43.76459" lon="6.99248">
        <ele>673.5</ele>
        <time>2022-09-21T13:31:31.000Z</time>
      </trkpt>
      <trkpt lat="43.76453" lon="6.99244">
        <ele>672.9</ele>
        <time>2022-09-21T13:31:33.000Z</time>
      </trkpt>
      <trkpt lat="43.76448" lon="6.9924">
        <ele>671.8</ele>
        <time>2022-09-21T13:31:35.000Z</time>
      </trkpt>
      <trkpt lat="43.7645" lon="6.99232">
        <ele>669.6</ele>
        <time>2022-09-21T13:31:39.000Z</time>
      </trkpt>
      <trkpt lat="43.76456" lon="6.99227">
        <ele>667.8</ele>
        <time>2022-09-21T13:31:42.000Z</time>
      </trkpt>
      <trkpt lat="43.76459" lon="6.99222">
        <ele>666.1</ele>
        <time>2022-09-21T13:31:45.000Z</time>
      </trkpt>
      <trkpt lat="43.76463" lon="6.99218">
        <ele>665.3</ele>
        <time>2022-09-21T13:31:48.000Z</time>
      </trkpt>
      <trkpt lat="43.76465" lon="6.99211">
        <ele>664.3</ele>
        <time>2022-09-21T13:31:52.000Z</time>
      </trkpt>
      <trkpt lat="43.76469" lon="6.99205">
        <ele>661.5</ele>
        <time>2022-09-21T13:31:55.000Z</time>
      </trkpt>
      <trkpt lat="43.76472" lon="6.99201">
        <ele>660.6</ele>
        <time>2022-09-21T13:31:57.000Z</time>
      </trkpt>
      <trkpt lat="43.76474" lon="6.99195">
        <ele>658.8</ele>
        <time>2022-09-21T13:32:00.000Z</time>
      </trkpt>
      <trkpt lat="43.7647" lon="6.99191">
        <ele>657.5</ele>
        <time>2022-09-21T13:32:02.000Z</time>
      </trkpt>
      <trkpt lat="43.76467" lon="6.99183">
        <ele>655.7</ele>
        <time>2022-09-21T13:32:05.000Z</time>
      </trkpt>
      <trkpt lat="43.76471" lon="6.99179">
        <ele>654.3</ele>
        <time>2022-09-21T13:32:08.000Z</time>
      </trkpt>
      <trkpt lat="43.76473" lon="6.99173">
        <ele>653</ele>
        <time>2022-09-21T13:32:11.000Z</time>
      </trkpt>
      <trkpt lat="43.76472" lon="6.99166">
        <ele>651.4</ele>
        <time>2022-09-21T13:32:13.000Z</time>
      </trkpt>
      <trkpt lat="43.76467" lon="6.99164">
        <ele>650.5</ele>
        <time>2022-09-21T13:32:15.000Z</time>
      </trkpt>
      <trkpt lat="43.76464" lon="6.99156">
        <ele>648.2</ele>
        <time>2022-09-21T13:32:19.000Z</time>
      </trkpt>
      <trkpt lat="43.76465" lon="6.99145">
        <ele>646.1</ele>
        <time>2022-09-21T13:32:21.000Z</time>
      </trkpt>
      <trkpt lat="43.76468" lon="6.99135">
        <ele>645.9</ele>
        <time>2022-09-21T13:32:23.000Z</time>
      </trkpt>
      <trkpt lat="43.76473" lon="6.99129">
        <ele>644.4</ele>
        <time>2022-09-21T13:32:25.000Z</time>
      </trkpt>
      <trkpt lat="43.76478" lon="6.99129">
        <ele>643.4</ele>
        <time>2022-09-21T13:32:27.000Z</time>
      </trkpt>
      <trkpt lat="43.76483" lon="6.9913">
        <ele>643.2</ele>
        <time>2022-09-21T13:32:29.000Z</time>
      </trkpt>
      <trkpt lat="43.76488" lon="6.99128">
        <ele>642.5</ele>
        <time>2022-09-21T13:32:31.000Z</time>
      </trkpt>
      <trkpt lat="43.76493" lon="6.99124">
        <ele>641.7</ele>
        <time>2022-09-21T13:32:35.000Z</time>
      </trkpt>
      <trkpt lat="43.76491" lon="6.99117">
        <ele>640.9</ele>
        <time>2022-09-21T13:32:37.000Z</time>
      </trkpt>
      <trkpt lat="43.76487" lon="6.9911">
        <ele>639.3</ele>
        <time>2022-09-21T13:32:39.000Z</time>
      </trkpt>
      <trkpt lat="43.76481" lon="6.99106">
        <ele>638.7</ele>
        <time>2022-09-21T13:32:41.000Z</time>
      </trkpt>
      <trkpt lat="43.76475" lon="6.99106">
        <ele>636.5</ele>
        <time>2022-09-21T13:32:43.000Z</time>
      </trkpt>
      <trkpt lat="43.76468" lon="6.99105">
        <ele>636.2</ele>
        <time>2022-09-21T13:32:45.000Z</time>
      </trkpt>
      <trkpt lat="43.76462" lon="6.99105">
        <ele>635.1</ele>
        <time>2022-09-21T13:32:47.000Z</time>
      </trkpt>
      <trkpt lat="43.76456" lon="6.99107">
        <ele>633.5</ele>
        <time>2022-09-21T13:32:49.000Z</time>
      </trkpt>
      <trkpt lat="43.76451" lon="6.99108">
        <ele>632.2</ele>
        <time>2022-09-21T13:32:51.000Z</time>
      </trkpt>
      <trkpt lat="43.76445" lon="6.99109">
        <ele>630.5</ele>
        <time>2022-09-21T13:32:53.000Z</time>
      </trkpt>
      <trkpt lat="43.76438" lon="6.99112">
        <ele>629.5</ele>
        <time>2022-09-21T13:32:55.000Z</time>
      </trkpt>
      <trkpt lat="43.76433" lon="6.99113">
        <ele>628.7</ele>
        <time>2022-09-21T13:32:57.000Z</time>
      </trkpt>
      <trkpt lat="43.76427" lon="6.99116">
        <ele>627.3</ele>
        <time>2022-09-21T13:32:59.000Z</time>
      </trkpt>
      <trkpt lat="43.76423" lon="6.99114">
        <ele>624.8</ele>
        <time>2022-09-21T13:33:02.000Z</time>
      </trkpt>
      <trkpt lat="43.76424" lon="6.99106">
        <ele>622.5</ele>
        <time>2022-09-21T13:33:05.000Z</time>
      </trkpt>
      <trkpt lat="43.76422" lon="6.991">
        <ele>620.3</ele>
        <time>2022-09-21T13:33:08.000Z</time>
      </trkpt>
      <trkpt lat="43.76422" lon="6.9909">
        <ele>617</ele>
        <time>2022-09-21T13:33:13.000Z</time>
      </trkpt>
      <trkpt lat="43.76425" lon="6.99083">
        <ele>614.6</ele>
        <time>2022-09-21T13:33:15.000Z</time>
      </trkpt>
      <trkpt lat="43.76429" lon="6.99076">
        <ele>613.6</ele>
        <time>2022-09-21T13:33:17.000Z</time>
      </trkpt>
      <trkpt lat="43.76429" lon="6.99069">
        <ele>612.5</ele>
        <time>2022-09-21T13:33:19.000Z</time>
      </trkpt>
      <trkpt lat="43.7643" lon="6.99061">
        <ele>610.2</ele>
        <time>2022-09-21T13:33:22.000Z</time>
      </trkpt>
      <trkpt lat="43.76429" lon="6.99053">
        <ele>609.1</ele>
        <time>2022-09-21T13:33:24.000Z</time>
      </trkpt>
      <trkpt lat="43.7643" lon="6.99044">
        <ele>606.7</ele>
        <time>2022-09-21T13:33:26.000Z</time>
      </trkpt>
      <trkpt lat="43.76432" lon="6.99036">
        <ele>605.4</ele>
        <time>2022-09-21T13:33:28.000Z</time>
      </trkpt>
      <trkpt lat="43.76431" lon="6.99029">
        <ele>604.3</ele>
        <time>2022-09-21T13:33:31.000Z</time>
      </trkpt>
      <trkpt lat="43.76426" lon="6.99029">
        <ele>602.8</ele>
        <time>2022-09-21T13:33:33.000Z</time>
      </trkpt>
      <trkpt lat="43.76421" lon="6.99029">
        <ele>602.3</ele>
        <time>2022-09-21T13:33:35.000Z</time>
      </trkpt>
      <trkpt lat="43.76415" lon="6.9903">
        <ele>600.7</ele>
        <time>2022-09-21T13:33:38.000Z</time>
      </trkpt>
      <trkpt lat="43.76411" lon="6.99027">
        <ele>598.4</ele>
        <time>2022-09-21T13:33:43.000Z</time>
      </trkpt>
      <trkpt lat="43.76406" lon="6.99027">
        <ele>596.9</ele>
        <time>2022-09-21T13:33:45.000Z</time>
      </trkpt>
      <trkpt lat="43.764" lon="6.99028">
        <ele>595</ele>
        <time>2022-09-21T13:33:48.000Z</time>
      </trkpt>
      <trkpt lat="43.76396" lon="6.99031">
        <ele>593.4</ele>
        <time>2022-09-21T13:33:50.000Z</time>
      </trkpt>
      <trkpt lat="43.7639" lon="6.99035">
        <ele>592.3</ele>
        <time>2022-09-21T13:33:53.000Z</time>
      </trkpt>
      <trkpt lat="43.76383" lon="6.99038">
        <ele>589.7</ele>
        <time>2022-09-21T13:33:56.000Z</time>
      </trkpt>
      <trkpt lat="43.76378" lon="6.99038">
        <ele>587.6</ele>
        <time>2022-09-21T13:33:59.000Z</time>
      </trkpt>
      <trkpt lat="43.76376" lon="6.99033">
        <ele>585.7</ele>
        <time>2022-09-21T13:34:01.000Z</time>
      </trkpt>
      <trkpt lat="43.76374" lon="6.99024">
        <ele>583.5</ele>
        <time>2022-09-21T13:34:04.000Z</time>
      </trkpt>
      <trkpt lat="43.76374" lon="6.99016">
        <ele>582.3</ele>
        <time>2022-09-21T13:34:07.000Z</time>
      </trkpt>
      <trkpt lat="43.76374" lon="6.99009">
        <ele>580.4</ele>
        <time>2022-09-21T13:34:10.000Z</time>
      </trkpt>
      <trkpt lat="43.76375" lon="6.99001">
        <ele>578.1</ele>
        <time>2022-09-21T13:34:13.000Z</time>
      </trkpt>
      <trkpt lat="43.76377" lon="6.98993">
        <ele>577.3</ele>
        <time>2022-09-21T13:34:16.000Z</time>
      </trkpt>
      <trkpt lat="43.76376" lon="6.98986">
        <ele>575.6</ele>
        <time>2022-09-21T13:34:20.000Z</time>
      </trkpt>
      <trkpt lat="43.76375" lon="6.98979">
        <ele>574.2</ele>
        <time>2022-09-21T13:34:24.000Z</time>
      </trkpt>
      <trkpt lat="43.76369" lon="6.98979">
        <ele>572.2</ele>
        <time>2022-09-21T13:34:28.000Z</time>
      </trkpt>
      <trkpt lat="43.76365" lon="6.98983">
        <ele>570.6</ele>
        <time>2022-09-21T13:34:31.000Z</time>
      </trkpt>
      <trkpt lat="43.76361" lon="6.98979">
        <ele>568.1</ele>
        <time>2022-09-21T13:34:37.000Z</time>
      </trkpt>
      <trkpt lat="43.76355" lon="6.98982">
        <ele>567</ele>
        <time>2022-09-21T13:34:40.000Z</time>
      </trkpt>
      <trkpt lat="43.76349" lon="6.9898">
        <ele>565.8</ele>
        <time>2022-09-21T13:34:45.000Z</time>
      </trkpt>
      <trkpt lat="43.76343" lon="6.98982">
        <ele>564.3</ele>
        <time>2022-09-21T13:34:53.000Z</time>
      </trkpt>
      <trkpt lat="43.76339" lon="6.98986">
        <ele>562.5</ele>
        <time>2022-09-21T13:34:55.000Z</time>
      </trkpt>
      <trkpt lat="43.76335" lon="6.9899">
        <ele>561.6</ele>
        <time>2022-09-21T13:34:57.000Z</time>
      </trkpt>
      <trkpt lat="43.7633" lon="6.98995">
        <ele>559.6</ele>
        <time>2022-09-21T13:34:59.000Z</time>
      </trkpt>
      <trkpt lat="43.76327" lon="6.99">
        <ele>558.8</ele>
        <time>2022-09-21T13:35:01.000Z</time>
      </trkpt>
      <trkpt lat="43.76325" lon="6.99002">
        <ele>556.4</ele>
        <time>2022-09-21T13:35:06.000Z</time>
      </trkpt>
      <trkpt lat="43.76325" lon="6.99003">
        <ele>556.2</ele>
        <time>2022-09-21T13:35:07.000Z</time>
      </trkpt>
      <trkpt lat="43.76327" lon="6.98996">
        <ele>555.2</ele>
        <time>2022-09-21T13:35:12.000Z</time>
      </trkpt>
      <trkpt lat="43.76324" lon="6.99003">
        <ele>554</ele>
        <time>2022-09-21T13:35:19.000Z</time>
      </trkpt>
      <trkpt lat="43.76321" lon="6.99012">
        <ele>552.2</ele>
        <time>2022-09-21T13:35:22.000Z</time>
      </trkpt>
      <trkpt lat="43.76319" lon="6.99024">
        <ele>550.8</ele>
        <time>2022-09-21T13:35:24.000Z</time>
      </trkpt>
      <trkpt lat="43.76315" lon="6.99036">
        <ele>549.3</ele>
        <time>2022-09-21T13:35:26.000Z</time>
      </trkpt>
      <trkpt lat="43.7631" lon="6.99045">
        <ele>547.1</ele>
        <time>2022-09-21T13:35:28.000Z</time>
      </trkpt>
      <trkpt lat="43.76306" lon="6.99049">
        <ele>546.1</ele>
        <time>2022-09-21T13:35:29.000Z</time>
      </trkpt>
      <trkpt lat="43.76302" lon="6.99052">
        <ele>545.2</ele>
        <time>2022-09-21T13:35:30.000Z</time>
      </trkpt>
      <trkpt lat="43.76297" lon="6.99056">
        <ele>544.8</ele>
        <time>2022-09-21T13:35:31.000Z</time>
      </trkpt>
      <trkpt lat="43.76291" lon="6.9906">
        <ele>544</ele>
        <time>2022-09-21T13:35:32.000Z</time>
      </trkpt>
      <trkpt lat="43.76285" lon="6.99064">
        <ele>543.3</ele>
        <time>2022-09-21T13:35:33.000Z</time>
      </trkpt>
      <trkpt lat="43.76278" lon="6.99067">
        <ele>542.6</ele>
        <time>2022-09-21T13:35:34.000Z</time>
      </trkpt>
      <trkpt lat="43.76271" lon="6.99071">
        <ele>542</ele>
        <time>2022-09-21T13:35:35.000Z</time>
      </trkpt>
      <trkpt lat="43.76264" lon="6.99073">
        <ele>541.6</ele>
        <time>2022-09-21T13:35:36.000Z</time>
      </trkpt>
      <trkpt lat="43.76258" lon="6.99076">
        <ele>541</ele>
        <time>2022-09-21T13:35:37.000Z</time>
      </trkpt>
      <trkpt lat="43.7625" lon="6.99078">
        <ele>540</ele>
        <time>2022-09-21T13:35:38.000Z</time>
      </trkpt>
      <trkpt lat="43.76242" lon="6.99081">
        <ele>538.8</ele>
        <time>2022-09-21T13:35:39.000Z</time>
      </trkpt>
      <trkpt lat="43.76235" lon="6.99086">
        <ele>537.6</ele>
        <time>2022-09-21T13:35:40.000Z</time>
      </trkpt>
      <trkpt lat="43.76228" lon="6.9909">
        <ele>537</ele>
        <time>2022-09-21T13:35:41.000Z</time>
      </trkpt>
      <trkpt lat="43.76222" lon="6.99094">
        <ele>536.4</ele>
        <time>2022-09-21T13:35:42.000Z</time>
      </trkpt>
      <trkpt lat="43.76215" lon="6.99098">
        <ele>535.7</ele>
        <time>2022-09-21T13:35:43.000Z</time>
      </trkpt>
      <trkpt lat="43.7621" lon="6.99102">
        <ele>534.9</ele>
        <time>2022-09-21T13:35:44.000Z</time>
      </trkpt>
      <trkpt lat="43.76206" lon="6.99104">
        <ele>534</ele>
        <time>2022-09-21T13:35:47.000Z</time>
      </trkpt>
      <trkpt lat="43.76202" lon="6.9911">
        <ele>533.3</ele>
        <time>2022-09-21T13:35:51.000Z</time>
      </trkpt>
      <trkpt lat="43.76199" lon="6.99115">
        <ele>533.2</ele>
        <time>2022-09-21T13:35:54.000Z</time>
      </trkpt>
      <trkpt lat="43.76194" lon="6.9912">
        <ele>532.5</ele>
        <time>2022-09-21T13:35:57.000Z</time>
      </trkpt>
      <trkpt lat="43.7619" lon="6.99117">
        <ele>532.3</ele>
        <time>2022-09-21T13:35:58.000Z</time>
      </trkpt>
      <trkpt lat="43.76185" lon="6.9911">
        <ele>531.6</ele>
        <time>2022-09-21T13:36:00.000Z</time>
      </trkpt>
      <trkpt lat="43.7619" lon="6.99102">
        <ele>531.2</ele>
        <time>2022-09-21T13:36:02.000Z</time>
      </trkpt>
      <trkpt lat="43.76197" lon="6.99092">
        <ele>530.4</ele>
        <time>2022-09-21T13:36:04.000Z</time>
      </trkpt>
      <trkpt lat="43.76203" lon="6.99083">
        <ele>529.2</ele>
        <time>2022-09-21T13:36:06.000Z</time>
      </trkpt>
      <trkpt lat="43.76207" lon="6.99079">
        <ele>528.5</ele>
        <time>2022-09-21T13:36:07.000Z</time>
      </trkpt>
      <trkpt lat="43.7621" lon="6.99072">
        <ele>528.1</ele>
        <time>2022-09-21T13:36:08.000Z</time>
      </trkpt>
      <trkpt lat="43.76213" lon="6.99063">
        <ele>527.4</ele>
        <time>2022-09-21T13:36:09.000Z</time>
      </trkpt>
      <trkpt lat="43.76217" lon="6.99056">
        <ele>526.2</ele>
        <time>2022-09-21T13:36:10.000Z</time>
      </trkpt>
      <trkpt lat="43.76219" lon="6.99048">
        <ele>525.7</ele>
        <time>2022-09-21T13:36:11.000Z</time>
      </trkpt>
      <trkpt lat="43.76221" lon="6.99041">
        <ele>524.9</ele>
        <time>2022-09-21T13:36:12.000Z</time>
      </trkpt>
      <trkpt lat="43.76224" lon="6.99034">
        <ele>524.1</ele>
        <time>2022-09-21T13:36:13.000Z</time>
      </trkpt>
      <trkpt lat="43.76227" lon="6.99027">
        <ele>523.9</ele>
        <time>2022-09-21T13:36:14.000Z</time>
      </trkpt>
      <trkpt lat="43.76228" lon="6.99019">
        <ele>523.3</ele>
        <time>2022-09-21T13:36:15.000Z</time>
      </trkpt>
      <trkpt lat="43.76228" lon="6.99011">
        <ele>522.7</ele>
        <time>2022-09-21T13:36:16.000Z</time>
      </trkpt>
      <trkpt lat="43.76229" lon="6.99002">
        <ele>522.1</ele>
        <time>2022-09-21T13:36:17.000Z</time>
      </trkpt>
      <trkpt lat="43.76229" lon="6.98994">
        <ele>521.3</ele>
        <time>2022-09-21T13:36:18.000Z</time>
      </trkpt>
      <trkpt lat="43.76228" lon="6.98986">
        <ele>520.8</ele>
        <time>2022-09-21T13:36:19.000Z</time>
      </trkpt>
      <trkpt lat="43.76227" lon="6.9898">
        <ele>520</ele>
        <time>2022-09-21T13:36:20.000Z</time>
      </trkpt>
      <trkpt lat="43.76225" lon="6.98972">
        <ele>519</ele>
        <time>2022-09-21T13:36:22.000Z</time>
      </trkpt>
      <trkpt lat="43.76221" lon="6.98966">
        <ele>518.5</ele>
        <time>2022-09-21T13:36:23.000Z</time>
      </trkpt>
      <trkpt lat="43.76216" lon="6.98956">
        <ele>517.3</ele>
        <time>2022-09-21T13:36:25.000Z</time>
      </trkpt>
      <trkpt lat="43.76213" lon="6.9895">
        <ele>516.8</ele>
        <time>2022-09-21T13:36:26.000Z</time>
      </trkpt>
      <trkpt lat="43.76209" lon="6.98946">
        <ele>516</ele>
        <time>2022-09-21T13:36:27.000Z</time>
      </trkpt>
      <trkpt lat="43.76205" lon="6.98941">
        <ele>515</ele>
        <time>2022-09-21T13:36:28.000Z</time>
      </trkpt>
      <trkpt lat="43.76201" lon="6.98935">
        <ele>514.4</ele>
        <time>2022-09-21T13:36:29.000Z</time>
      </trkpt>
      <trkpt lat="43.76197" lon="6.98928">
        <ele>513.7</ele>
        <time>2022-09-21T13:36:30.000Z</time>
      </trkpt>
      <trkpt lat="43.76194" lon="6.98922">
        <ele>513.1</ele>
        <time>2022-09-21T13:36:31.000Z</time>
      </trkpt>
      <trkpt lat="43.76189" lon="6.98915">
        <ele>512.6</ele>
        <time>2022-09-21T13:36:32.000Z</time>
      </trkpt>
      <trkpt lat="43.76186" lon="6.98907">
        <ele>511.6</ele>
        <time>2022-09-21T13:36:33.000Z</time>
      </trkpt>
      <trkpt lat="43.76183" lon="6.98899">
        <ele>510.8</ele>
        <time>2022-09-21T13:36:34.000Z</time>
      </trkpt>
      <trkpt lat="43.76181" lon="6.98891">
        <ele>509.8</ele>
        <time>2022-09-21T13:36:35.000Z</time>
      </trkpt>
      <trkpt lat="43.76179" lon="6.98884">
        <ele>509.2</ele>
        <time>2022-09-21T13:36:36.000Z</time>
      </trkpt>
      <trkpt lat="43.76179" lon="6.98878">
        <ele>508.6</ele>
        <time>2022-09-21T13:36:37.000Z</time>
      </trkpt>
      <trkpt lat="43.76179" lon="6.9887">
        <ele>507.9</ele>
        <time>2022-09-21T13:36:38.000Z</time>
      </trkpt>
      <trkpt lat="43.7618" lon="6.98862">
        <ele>507</ele>
        <time>2022-09-21T13:36:39.000Z</time>
      </trkpt>
      <trkpt lat="43.76183" lon="6.98853">
        <ele>505.8</ele>
        <time>2022-09-21T13:36:40.000Z</time>
      </trkpt>
      <trkpt lat="43.76188" lon="6.98843">
        <ele>504.9</ele>
        <time>2022-09-21T13:36:41.000Z</time>
      </trkpt>
      <trkpt lat="43.76192" lon="6.98832">
        <ele>503.9</ele>
        <time>2022-09-21T13:36:42.000Z</time>
      </trkpt>
      <trkpt lat="43.76197" lon="6.98822">
        <ele>502.6</ele>
        <time>2022-09-21T13:36:43.000Z</time>
      </trkpt>
      <trkpt lat="43.76204" lon="6.98814">
        <ele>501.4</ele>
        <time>2022-09-21T13:36:44.000Z</time>
      </trkpt>
      <trkpt lat="43.76212" lon="6.98807">
        <ele>500</ele>
        <time>2022-09-21T13:36:45.000Z</time>
      </trkpt>
      <trkpt lat="43.76221" lon="6.98804">
        <ele>499.2</ele>
        <time>2022-09-21T13:36:46.000Z</time>
      </trkpt>
      <trkpt lat="43.7623" lon="6.98801">
        <ele>498.2</ele>
        <time>2022-09-21T13:36:47.000Z</time>
      </trkpt>
      <trkpt lat="43.76238" lon="6.98797">
        <ele>497.2</ele>
        <time>2022-09-21T13:36:48.000Z</time>
      </trkpt>
      <trkpt lat="43.76247" lon="6.98792">
        <ele>496.7</ele>
        <time>2022-09-21T13:36:49.000Z</time>
      </trkpt>
      <trkpt lat="43.76255" lon="6.98787">
        <ele>495.9</ele>
        <time>2022-09-21T13:36:50.000Z</time>
      </trkpt>
      <trkpt lat="43.76262" lon="6.98779">
        <ele>495.5</ele>
        <time>2022-09-21T13:36:51.000Z</time>
      </trkpt>
      <trkpt lat="43.76269" lon="6.98771">
        <ele>495.4</ele>
        <time>2022-09-21T13:36:52.000Z</time>
      </trkpt>
      <trkpt lat="43.76276" lon="6.98764">
        <ele>495.2</ele>
        <time>2022-09-21T13:36:53.000Z</time>
      </trkpt>
      <trkpt lat="43.7628" lon="6.9876">
        <ele>495.1</ele>
        <time>2022-09-21T13:36:54.000Z</time>
      </trkpt>
      <trkpt lat="43.76285" lon="6.98756">
        <ele>495</ele>
        <time>2022-09-21T13:36:55.000Z</time>
      </trkpt>
      <trkpt lat="43.7629" lon="6.98754">
        <ele>495.2</ele>
        <time>2022-09-21T13:36:56.000Z</time>
      </trkpt>
      <trkpt lat="43.76294" lon="6.98754">
        <ele>495.3</ele>
        <time>2022-09-21T13:36:57.000Z</time>
      </trkpt>
      <trkpt lat="43.763" lon="6.98758">
        <ele>495.3</ele>
        <time>2022-09-21T13:36:58.000Z</time>
      </trkpt>
      <trkpt lat="43.76306" lon="6.98759">
        <ele>495.6</ele>
        <time>2022-09-21T13:37:00.000Z</time>
      </trkpt>
      <trkpt lat="43.76311" lon="6.98757">
        <ele>495.6</ele>
        <time>2022-09-21T13:37:02.000Z</time>
      </trkpt>
      <trkpt lat="43.76308" lon="6.98749">
        <ele>496.3</ele>
        <time>2022-09-21T13:37:05.000Z</time>
      </trkpt>
      <trkpt lat="43.76306" lon="6.98748">
        <ele>496.7</ele>
        <time>2022-09-21T13:37:09.000Z</time>
      </trkpt>
      <trkpt lat="43.76305" lon="6.98748">
        <ele>496.7</ele>
        <time>2022-09-21T13:37:10.000Z</time>
      </trkpt>
      <trkpt lat="43.76305" lon="6.98748">
        <ele>496.7</ele>
        <time>2022-09-21T13:37:11.000Z</time>
      </trkpt>
      <trkpt lat="43.76305" lon="6.98747">
        <ele>496.8</ele>
        <time>2022-09-21T13:37:12.000Z</time>
      </trkpt>
      <trkpt lat="43.763" lon="6.98745">
        <ele>496.9</ele>
        <time>2022-09-21T13:37:15.000Z</time>
      </trkpt>
      <trkpt lat="43.763" lon="6.98744">
        <ele>496.9</ele>
        <time>2022-09-21T13:37:27.000Z</time>
      </trkpt>
      <trkpt lat="43.76301" lon="6.98745">
        <ele>496.5</ele>
        <time>2022-09-21T13:37:33.000Z</time>
      </trkpt>
      <trkpt lat="43.76302" lon="6.98745">
        <ele>496.8</ele>
        <time>2022-09-21T13:37:35.000Z</time>
      </trkpt>
      <trkpt lat="43.76302" lon="6.98746">
        <ele>496.8</ele>
        <time>2022-09-21T13:37:38.000Z</time>
      </trkpt>
      <trkpt lat="43.76302" lon="6.98746">
        <ele>496.8</ele>
        <time>2022-09-21T13:37:39.000Z</time>
      </trkpt>
      <trkpt lat="43.76301" lon="6.98745">
        <ele>496.7</ele>
        <time>2022-09-21T13:37:44.000Z</time>
      </trkpt>
      <trkpt lat="43.76301" lon="6.98745">
        <ele>496.5</ele>
        <time>2022-09-21T13:37:45.000Z</time>
      </trkpt>
      <trkpt lat="43.76301" lon="6.98745">
        <ele>496.4</ele>
        <time>2022-09-21T13:37:48.000Z</time>
      </trkpt>
      <trkpt lat="43.76301" lon="6.98745">
        <ele>496.6</ele>
        <time>2022-09-21T13:37:52.000Z</time>
      </trkpt>
      <trkpt lat="43.76302" lon="6.98746">
        <ele>496.5</ele>
        <time>2022-09-21T13:38:04.000Z</time>
      </trkpt>
      <trkpt lat="43.76302" lon="6.98746">
        <ele>496.6</ele>
        <time>2022-09-21T13:38:05.000Z</time>
      </trkpt>
      <trkpt lat="43.76301" lon="6.98746">
        <ele>496.8</ele>
        <time>2022-09-21T13:38:11.000Z</time>
      </trkpt>
      <trkpt lat="43.763" lon="6.98745">
        <ele>496.7</ele>
        <time>2022-09-21T13:38:16.000Z</time>
      </trkpt>
      <trkpt lat="43.763" lon="6.98745">
        <ele>496.7</ele>
        <time>2022-09-21T13:38:17.000Z</time>
      </trkpt>
      <trkpt lat="43.763" lon="6.98746">
        <ele>496.5</ele>
        <time>2022-09-21T13:38:20.000Z</time>
      </trkpt>
      <trkpt lat="43.763" lon="6.98746">
        <ele>496.3</ele>
        <time>2022-09-21T13:38:22.000Z</time>
      </trkpt>
      <trkpt lat="43.763" lon="6.98746">
        <ele>496.3</ele>
        <time>2022-09-21T13:38:23.000Z</time>
      </trkpt>
      <trkpt lat="43.763" lon="6.98746">
        <ele>496.4</ele>
        <time>2022-09-21T13:38:24.000Z</time>
      </trkpt>
      <trkpt lat="43.763" lon="6.98746">
        <ele>496.5</ele>
        <time>2022-09-21T13:38:25.000Z</time>
      </trkpt>
      <trkpt lat="43.76301" lon="6.98746">
        <ele>496.5</ele>
        <time>2022-09-21T13:38:26.000Z</time>
      </trkpt>
      <trkpt lat="43.76302" lon="6.98747">
        <ele>496.5</ele>
        <time>2022-09-21T13:38:32.000Z</time>
      </trkpt>
      <trkpt lat="43.76302" lon="6.98747">
        <ele>496.8</ele>
        <time>2022-09-21T13:38:33.000Z</time>
      </trkpt>
      <trkpt lat="43.76302" lon="6.98747">
        <ele>496.7</ele>
        <time>2022-09-21T13:38:35.000Z</time>
      </trkpt>
      <trkpt lat="43.76302" lon="6.98748">
        <ele>496.7</ele>
        <time>2022-09-21T13:38:36.000Z</time>
      </trkpt>
      <trkpt lat="43.76301" lon="6.98749">
        <ele>496.8</ele>
        <time>2022-09-21T13:38:41.000Z</time>
      </trkpt>
      <trkpt lat="43.76301" lon="6.98749">
        <ele>497</ele>
        <time>2022-09-21T13:39:09.000Z</time>
      </trkpt>
      <trkpt lat="43.763" lon="6.98749">
        <ele>496.9</ele>
        <time>2022-09-21T13:39:11.000Z</time>
      </trkpt>
      <trkpt lat="43.76299" lon="6.98749">
        <ele>496.9</ele>
        <time>2022-09-21T13:39:13.000Z</time>
      </trkpt>
      <trkpt lat="43.76299" lon="6.98748">
        <ele>496.9</ele>
        <time>2022-09-21T13:39:15.000Z</time>
      </trkpt>
      <trkpt lat="43.76298" lon="6.98748">
        <ele>496.7</ele>
        <time>2022-09-21T13:39:18.000Z</time>
      </trkpt>
      <trkpt lat="43.76298" lon="6.98748">
        <ele>496.6</ele>
        <time>2022-09-21T13:39:19.000Z</time>
      </trkpt>
      <trkpt lat="43.76298" lon="6.98748">
        <ele>496.5</ele>
        <time>2022-09-21T13:39:24.000Z</time>
      </trkpt>
      <trkpt lat="43.76298" lon="6.98747">
        <ele>496.9</ele>
        <time>2022-09-21T13:39:27.000Z</time>
      </trkpt>
      <trkpt lat="43.76297" lon="6.98747">
        <ele>496.8</ele>
        <time>2022-09-21T13:39:29.000Z</time>
      </trkpt>
      <trkpt lat="43.76297" lon="6.98747">
        <ele>496.6</ele>
        <time>2022-09-21T13:39:33.000Z</time>
      </trkpt>
      <trkpt lat="43.76297" lon="6.98747">
        <ele>497</ele>
        <time>2022-09-21T13:39:42.000Z</time>
      </trkpt>
      <trkpt lat="43.76297" lon="6.98747">
        <ele>496.9</ele>
        <time>2022-09-21T13:39:43.000Z</time>
      </trkpt>
      <trkpt lat="43.76297" lon="6.98747">
        <ele>497</ele>
        <time>2022-09-21T13:39:44.000Z</time>
      </trkpt>
      <trkpt lat="43.76297" lon="6.98747">
        <ele>497.1</ele>
        <time>2022-09-21T13:39:45.000Z</time>
      </trkpt>
      <trkpt lat="43.76297" lon="6.98747">
        <ele>497.1</ele>
        <time>2022-09-21T13:39:46.000Z</time>
      </trkpt>
      <trkpt lat="43.76297" lon="6.98748">
        <ele>496.9</ele>
        <time>2022-09-21T13:39:52.000Z</time>
      </trkpt>
      <trkpt lat="43.76296" lon="6.98748">
        <ele>496.9</ele>
        <time>2022-09-21T13:39:53.000Z</time>
      </trkpt>
      <trkpt lat="43.76296" lon="6.98748">
        <ele>497</ele>
        <time>2022-09-21T13:39:54.000Z</time>
      </trkpt>
      <trkpt lat="43.76296" lon="6.98747">
        <ele>498</ele>
        <time>2022-09-21T13:40:10.000Z</time>
      </trkpt>
      <trkpt lat="43.76299" lon="6.98745">
        <ele>497</ele>
        <time>2022-09-21T13:40:20.000Z</time>
      </trkpt>
      <trkpt lat="43.76299" lon="6.98745">
        <ele>496.8</ele>
        <time>2022-09-21T13:40:23.000Z</time>
      </trkpt>
      <trkpt lat="43.76299" lon="6.98745">
        <ele>496.9</ele>
        <time>2022-09-21T13:40:25.000Z</time>
      </trkpt>
      <trkpt lat="43.76299" lon="6.98745">
        <ele>496.7</ele>
        <time>2022-09-21T13:40:28.000Z</time>
      </trkpt>
      <trkpt lat="43.76299" lon="6.98745">
        <ele>496.7</ele>
        <time>2022-09-21T13:40:28.000Z</time>
      </trkpt>
    </trkseg>
  </trk>
</gpx>